<?xml version="1.0" encoding="UTF-8" standalone="no" ?><gpx xmlns="http://www.topografix.com/GPX/1/1" xmlns:gpxx="http://www.garmin.com/xmlschemas/GpxExtensions/v3" xmlns:wptx1="http://www.garmin.com/xmlschemas/WaypointExtension/v1" xmlns:gpxtpx="http://www.garmin.com/xmlschemas/TrackPointExtension/v1" creator="Alpha 50 EU" version="1.1" xmlns:xsi="http://www.w3.org/2001/XMLSchema-instance" xsi:schemaLocation="http://www.topografix.com/GPX/1/1 http://www.topografix.com/GPX/1/1/gpx.xsd http://www.garmin.com/xmlschemas/GpxExtensions/v3 http://www8.garmin.com/xmlschemas/GpxExtensionsv3.xsd http://www.garmin.com/xmlschemas/WaypointExtension/v1 http://www8.garmin.com/xmlschemas/WaypointExtensionv1.xsd http://www.garmin.com/xmlschemas/TrackPointExtension/v1 http://www.garmin.com/xmlschemas/TrackPointExtensionv1.xsd"><metadata><link href="http://www.garmin.com"><text>Garmin International</text></link><time>2026-04-22T13:52:55Z</time></metadata><trk><name>2026-04-22 16:52:54</name><extensions><gpxx:TrackExtension><gpxx:DisplayColor>DarkGreen</gpxx:DisplayColor></gpxx:TrackExtension></extensions><trkseg><trkpt lat="59.0921330452" lon="29.9865174294"><time>2026-04-22T08:17:18Z</time></trkpt><trkpt lat="59.0921330452" lon="29.9865388870"><time>2026-04-22T08:17:15Z</time></trkpt><trkpt lat="59.0921545029" lon="29.9865174294"><time>2026-04-22T08:17:20Z</time></trkpt><trkpt lat="59.0921545029" lon="29.9865174294"><time>2026-04-22T08:17:23Z</time></trkpt><trkpt lat="59.0921545029" lon="29.9865174294"><time>2026-04-22T08:17:30Z</time></trkpt><trkpt lat="59.0921545029" lon="29.9864745140"><time>2026-04-22T08:17:33Z</time></trkpt><trkpt lat="59.0921115875" lon="29.9864315987"><time>2026-04-22T08:17:35Z</time></trkpt><trkpt lat="59.0921115875" lon="29.9864530563"><time>2026-04-22T08:17:38Z</time></trkpt><trkpt lat="59.0921330452" lon="29.9864530563"><time>2026-04-22T08:17:40Z</time></trkpt><trkpt lat="59.0921330452" lon="29.9864530563"><time>2026-04-22T08:17:43Z</time></trkpt><trkpt lat="59.0921330452" lon="29.9864530563"><time>2026-04-22T08:17:45Z</time></trkpt><trkpt lat="59.0921330452" lon="29.9864530563"><time>2026-04-22T08:17:48Z</time></trkpt><trkpt lat="59.0921545029" lon="29.9864745140"><time>2026-04-22T08:17:50Z</time></trkpt><trkpt lat="59.0921545029" lon="29.9864530563"><time>2026-04-22T08:17:53Z</time></trkpt><trkpt lat="59.0921330452" lon="29.9864101410"><time>2026-04-22T08:17:55Z</time></trkpt><trkpt lat="59.0921330452" lon="29.9864101410"><time>2026-04-22T08:17:58Z</time></trkpt><trkpt lat="59.0921545029" lon="29.9864745140"><time>2026-04-22T08:18:00Z</time></trkpt><trkpt lat="59.0921545029" lon="29.9864745140"><time>2026-04-22T08:18:03Z</time></trkpt><trkpt lat="59.0921545029" lon="29.9864745140"><time>2026-04-22T08:18:05Z</time></trkpt><trkpt lat="59.0921545029" lon="29.9864959717"><time>2026-04-22T08:18:08Z</time></trkpt><trkpt lat="59.0921545029" lon="29.9864959717"><time>2026-04-22T08:18:10Z</time></trkpt><trkpt lat="59.0921545029" lon="29.9864745140"><time>2026-04-22T08:18:13Z</time></trkpt><trkpt lat="59.0921545029" lon="29.9864315987"><time>2026-04-22T08:18:15Z</time></trkpt><trkpt lat="59.0921545029" lon="29.9864530563"><time>2026-04-22T08:18:18Z</time></trkpt><trkpt lat="59.0921330452" lon="29.9864745140"><time>2026-04-22T08:18:20Z</time></trkpt><trkpt lat="59.0921330452" lon="29.9864745140"><time>2026-04-22T08:18:23Z</time></trkpt><trkpt lat="59.0921545029" lon="29.9864959717"><time>2026-04-22T08:18:25Z</time></trkpt><trkpt lat="59.0921545029" lon="29.9864959717"><time>2026-04-22T08:18:28Z</time></trkpt><trkpt lat="59.0921545029" lon="29.9864959717"><time>2026-04-22T08:18:30Z</time></trkpt><trkpt lat="59.0921330452" lon="29.9864530563"><time>2026-04-22T08:18:33Z</time></trkpt><trkpt lat="59.0921545029" lon="29.9864530563"><time>2026-04-22T08:18:35Z</time></trkpt><trkpt lat="59.0921545029" lon="29.9864745140"><time>2026-04-22T08:18:38Z</time></trkpt><trkpt lat="59.0921545029" lon="29.9864745140"><time>2026-04-22T08:18:40Z</time></trkpt><trkpt lat="59.0921545029" lon="29.9864745140"><time>2026-04-22T08:18:43Z</time></trkpt><trkpt lat="59.0921545029" lon="29.9864530563"><time>2026-04-22T08:18:45Z</time></trkpt><trkpt lat="59.0921545029" lon="29.9864530563"><time>2026-04-22T08:18:48Z</time></trkpt><trkpt lat="59.0921545029" lon="29.9864959717"><time>2026-04-22T08:18:50Z</time></trkpt><trkpt lat="59.0921545029" lon="29.9864959717"><time>2026-04-22T08:18:53Z</time></trkpt><trkpt lat="59.0921545029" lon="29.9865174294"><time>2026-04-22T08:18:55Z</time></trkpt><trkpt lat="59.0921545029" lon="29.9865174294"><time>2026-04-22T08:18:58Z</time></trkpt><trkpt lat="59.0921545029" lon="29.9865174294"><time>2026-04-22T08:19:00Z</time></trkpt><trkpt lat="59.0921545029" lon="29.9865174294"><time>2026-04-22T08:19:03Z</time></trkpt><trkpt lat="59.0921545029" lon="29.9864959717"><time>2026-04-22T08:19:05Z</time></trkpt><trkpt lat="59.0921545029" lon="29.9864959717"><time>2026-04-22T08:19:08Z</time></trkpt><trkpt lat="59.0921545029" lon="29.9864959717"><time>2026-04-22T08:19:10Z</time></trkpt><trkpt lat="59.0921545029" lon="29.9864959717"><time>2026-04-22T08:19:13Z</time></trkpt><trkpt lat="59.0921545029" lon="29.9864959717"><time>2026-04-22T08:19:15Z</time></trkpt><trkpt lat="59.0921545029" lon="29.9864959717"><time>2026-04-22T08:19:18Z</time></trkpt><trkpt lat="59.0921545029" lon="29.9864745140"><time>2026-04-22T08:19:20Z</time></trkpt><trkpt lat="59.0921330452" lon="29.9864745140"><time>2026-04-22T08:19:23Z</time></trkpt><trkpt lat="59.0921330452" lon="29.9864745140"><time>2026-04-22T08:19:25Z</time></trkpt><trkpt lat="59.0921330452" lon="29.9864959717"><time>2026-04-22T08:19:28Z</time></trkpt><trkpt lat="59.0921330452" lon="29.9865174294"><time>2026-04-22T08:19:30Z</time></trkpt><trkpt lat="59.0921330452" lon="29.9865174294"><time>2026-04-22T08:19:33Z</time></trkpt><trkpt lat="59.0921330452" lon="29.9865174294"><time>2026-04-22T08:19:35Z</time></trkpt><trkpt lat="59.0921330452" lon="29.9865174294"><time>2026-04-22T08:19:38Z</time></trkpt><trkpt lat="59.0921545029" lon="29.9865174294"><time>2026-04-22T08:19:40Z</time></trkpt><trkpt lat="59.0921545029" lon="29.9865174294"><time>2026-04-22T08:19:43Z</time></trkpt><trkpt lat="59.0921545029" lon="29.9865388870"><time>2026-04-22T08:19:45Z</time></trkpt><trkpt lat="59.0921545029" lon="29.9865388870"><time>2026-04-22T08:19:48Z</time></trkpt><trkpt lat="59.0921545029" lon="29.9864745140"><time>2026-04-22T08:19:50Z</time></trkpt><trkpt lat="59.0921330452" lon="29.9864530563"><time>2026-04-22T08:19:53Z</time></trkpt><trkpt lat="59.0921330452" lon="29.9864530563"><time>2026-04-22T08:19:55Z</time></trkpt><trkpt lat="59.0921330452" lon="29.9864530563"><time>2026-04-22T08:19:58Z</time></trkpt><trkpt lat="59.0921545029" lon="29.9864959717"><time>2026-04-22T08:20:00Z</time></trkpt><trkpt lat="59.0921545029" lon="29.9864959717"><time>2026-04-22T08:20:03Z</time></trkpt><trkpt lat="59.0921545029" lon="29.9864959717"><time>2026-04-22T08:20:05Z</time></trkpt><trkpt lat="59.0921545029" lon="29.9864959717"><time>2026-04-22T08:20:08Z</time></trkpt><trkpt lat="59.0921545029" lon="29.9864959717"><time>2026-04-22T08:20:10Z</time></trkpt><trkpt lat="59.0921545029" lon="29.9864745140"><time>2026-04-22T08:20:13Z</time></trkpt><trkpt lat="59.0921545029" lon="29.9864745140"><time>2026-04-22T08:20:15Z</time></trkpt><trkpt lat="59.0921545029" lon="29.9864745140"><time>2026-04-22T08:20:18Z</time></trkpt><trkpt lat="59.0921545029" lon="29.9864745140"><time>2026-04-22T08:20:20Z</time></trkpt><trkpt lat="59.0921545029" lon="29.9864745140"><time>2026-04-22T08:20:23Z</time></trkpt><trkpt lat="59.0921545029" lon="29.9864745140"><time>2026-04-22T08:20:25Z</time></trkpt><trkpt lat="59.0921545029" lon="29.9864745140"><time>2026-04-22T08:20:28Z</time></trkpt><trkpt lat="59.0921545029" lon="29.9864530563"><time>2026-04-22T08:20:30Z</time></trkpt><trkpt lat="59.0921545029" lon="29.9864530563"><time>2026-04-22T08:20:33Z</time></trkpt><trkpt lat="59.0921545029" lon="29.9864530563"><time>2026-04-22T08:20:35Z</time></trkpt><trkpt lat="59.0921545029" lon="29.9864530563"><time>2026-04-22T08:20:38Z</time></trkpt><trkpt lat="59.0921545029" lon="29.9864530563"><time>2026-04-22T08:20:40Z</time></trkpt><trkpt lat="59.0921545029" lon="29.9864530563"><time>2026-04-22T08:20:43Z</time></trkpt><trkpt lat="59.0921545029" lon="29.9864530563"><time>2026-04-22T08:20:45Z</time></trkpt><trkpt lat="59.0921545029" lon="29.9864530563"><time>2026-04-22T08:20:48Z</time></trkpt><trkpt lat="59.0921545029" lon="29.9864745140"><time>2026-04-22T08:20:50Z</time></trkpt><trkpt lat="59.0921545029" lon="29.9864745140"><time>2026-04-22T08:20:53Z</time></trkpt><trkpt lat="59.0921545029" lon="29.9864530563"><time>2026-04-22T08:20:55Z</time></trkpt><trkpt lat="59.0921545029" lon="29.9864530563"><time>2026-04-22T08:20:58Z</time></trkpt><trkpt lat="59.0921545029" lon="29.9864315987"><time>2026-04-22T08:21:00Z</time></trkpt><trkpt lat="59.0921545029" lon="29.9864315987"><time>2026-04-22T08:21:03Z</time></trkpt><trkpt lat="59.0921545029" lon="29.9864530563"><time>2026-04-22T08:21:05Z</time></trkpt><trkpt lat="59.0921545029" lon="29.9864315987"><time>2026-04-22T08:21:08Z</time></trkpt><trkpt lat="59.0921545029" lon="29.9864530563"><time>2026-04-22T08:21:10Z</time></trkpt><trkpt lat="59.0921545029" lon="29.9864530563"><time>2026-04-22T08:21:13Z</time></trkpt><trkpt lat="59.0921545029" lon="29.9864530563"><time>2026-04-22T08:21:15Z</time></trkpt><trkpt lat="59.0921545029" lon="29.9864530563"><time>2026-04-22T08:21:18Z</time></trkpt><trkpt lat="59.0921545029" lon="29.9864745140"><time>2026-04-22T08:21:20Z</time></trkpt><trkpt lat="59.0921545029" lon="29.9864745140"><time>2026-04-22T08:21:23Z</time></trkpt><trkpt lat="59.0921545029" lon="29.9864745140"><time>2026-04-22T08:21:25Z</time></trkpt><trkpt lat="59.0921545029" lon="29.9864745140"><time>2026-04-22T08:21:28Z</time></trkpt><trkpt lat="59.0921545029" lon="29.9864530563"><time>2026-04-22T08:21:30Z</time></trkpt><trkpt lat="59.0921545029" lon="29.9864315987"><time>2026-04-22T08:21:33Z</time></trkpt><trkpt lat="59.0921545029" lon="29.9864315987"><time>2026-04-22T08:21:35Z</time></trkpt><trkpt lat="59.0921545029" lon="29.9864315987"><time>2026-04-22T08:21:38Z</time></trkpt><trkpt lat="59.0921545029" lon="29.9864530563"><time>2026-04-22T08:21:40Z</time></trkpt><trkpt lat="59.0921545029" lon="29.9864530563"><time>2026-04-22T08:21:43Z</time></trkpt><trkpt lat="59.0921545029" lon="29.9864530563"><time>2026-04-22T08:21:45Z</time></trkpt><trkpt lat="59.0921545029" lon="29.9864530563"><time>2026-04-22T08:21:48Z</time></trkpt><trkpt lat="59.0921545029" lon="29.9864745140"><time>2026-04-22T08:21:50Z</time></trkpt><trkpt lat="59.0921545029" lon="29.9864959717"><time>2026-04-22T08:21:53Z</time></trkpt><trkpt lat="59.0921545029" lon="29.9864745140"><time>2026-04-22T08:21:55Z</time></trkpt><trkpt lat="59.0921330452" lon="29.9864745140"><time>2026-04-22T08:21:58Z</time></trkpt><trkpt lat="59.0921115875" lon="29.9864530563"><time>2026-04-22T08:22:00Z</time></trkpt><trkpt lat="59.0921330452" lon="29.9864530563"><time>2026-04-22T08:22:03Z</time></trkpt><trkpt lat="59.0921330452" lon="29.9864530563"><time>2026-04-22T08:22:05Z</time></trkpt><trkpt lat="59.0921330452" lon="29.9864530563"><time>2026-04-22T08:22:08Z</time></trkpt><trkpt lat="59.0921759605" lon="29.9864315987"><time>2026-04-22T08:22:10Z</time></trkpt><trkpt lat="59.0921759605" lon="29.9864315987"><time>2026-04-22T08:22:13Z</time></trkpt><trkpt lat="59.0921759605" lon="29.9864315987"><time>2026-04-22T08:22:15Z</time></trkpt><trkpt lat="59.0921759605" lon="29.9864315987"><time>2026-04-22T08:22:18Z</time></trkpt><trkpt lat="59.0921974182" lon="29.9864315987"><time>2026-04-22T08:22:20Z</time></trkpt><trkpt lat="59.0921974182" lon="29.9864530563"><time>2026-04-22T08:22:23Z</time></trkpt><trkpt lat="59.0921974182" lon="29.9864530563"><time>2026-04-22T08:22:25Z</time></trkpt><trkpt lat="59.0921974182" lon="29.9864530563"><time>2026-04-22T08:22:28Z</time></trkpt><trkpt lat="59.0921759605" lon="29.9864315987"><time>2026-04-22T08:22:30Z</time></trkpt><trkpt lat="59.0921759605" lon="29.9864530563"><time>2026-04-22T08:22:33Z</time></trkpt><trkpt lat="59.0921759605" lon="29.9864530563"><time>2026-04-22T08:22:35Z</time></trkpt><trkpt lat="59.0921759605" lon="29.9864530563"><time>2026-04-22T08:22:38Z</time></trkpt><trkpt lat="59.0921759605" lon="29.9864530563"><time>2026-04-22T08:22:40Z</time></trkpt><trkpt lat="59.0921759605" lon="29.9864530563"><time>2026-04-22T08:22:43Z</time></trkpt><trkpt lat="59.0921759605" lon="29.9864530563"><time>2026-04-22T08:22:45Z</time></trkpt><trkpt lat="59.0921759605" lon="29.9864530563"><time>2026-04-22T08:22:48Z</time></trkpt><trkpt lat="59.0921759605" lon="29.9864530563"><time>2026-04-22T08:22:50Z</time></trkpt><trkpt lat="59.0921759605" lon="29.9864530563"><time>2026-04-22T08:22:53Z</time></trkpt><trkpt lat="59.0921759605" lon="29.9864530563"><time>2026-04-22T08:22:55Z</time></trkpt><trkpt lat="59.0921759605" lon="29.9864530563"><time>2026-04-22T08:22:58Z</time></trkpt><trkpt lat="59.0921759605" lon="29.9864530563"><time>2026-04-22T08:23:00Z</time></trkpt><trkpt lat="59.0921759605" lon="29.9864530563"><time>2026-04-22T08:23:03Z</time></trkpt><trkpt lat="59.0921759605" lon="29.9864530563"><time>2026-04-22T08:23:05Z</time></trkpt><trkpt lat="59.0921759605" lon="29.9864530563"><time>2026-04-22T08:23:08Z</time></trkpt><trkpt lat="59.0921759605" lon="29.9864530563"><time>2026-04-22T08:23:10Z</time></trkpt><trkpt lat="59.0921759605" lon="29.9864530563"><time>2026-04-22T08:23:13Z</time></trkpt><trkpt lat="59.0921759605" lon="29.9864315987"><time>2026-04-22T08:23:15Z</time></trkpt><trkpt lat="59.0921974182" lon="29.9864101410"><time>2026-04-22T08:23:18Z</time></trkpt><trkpt lat="59.0921759605" lon="29.9864315987"><time>2026-04-22T08:23:20Z</time></trkpt><trkpt lat="59.0921545029" lon="29.9864315987"><time>2026-04-22T08:23:23Z</time></trkpt><trkpt lat="59.0921545029" lon="29.9864530563"><time>2026-04-22T08:23:25Z</time></trkpt><trkpt lat="59.0921545029" lon="29.9864530563"><time>2026-04-22T08:23:28Z</time></trkpt><trkpt lat="59.0921545029" lon="29.9864530563"><time>2026-04-22T08:23:30Z</time></trkpt><trkpt lat="59.0921545029" lon="29.9864530563"><time>2026-04-22T08:23:33Z</time></trkpt><trkpt lat="59.0921545029" lon="29.9864530563"><time>2026-04-22T08:23:35Z</time></trkpt><trkpt lat="59.0921545029" lon="29.9864530563"><time>2026-04-22T08:23:38Z</time></trkpt><trkpt lat="59.0921545029" lon="29.9864530563"><time>2026-04-22T08:23:40Z</time></trkpt><trkpt lat="59.0921545029" lon="29.9864530563"><time>2026-04-22T08:23:43Z</time></trkpt><trkpt lat="59.0921545029" lon="29.9864530563"><time>2026-04-22T08:23:45Z</time></trkpt><trkpt lat="59.0921545029" lon="29.9864530563"><time>2026-04-22T08:23:48Z</time></trkpt><trkpt lat="59.0921545029" lon="29.9864530563"><time>2026-04-22T08:23:50Z</time></trkpt><trkpt lat="59.0921545029" lon="29.9864530563"><time>2026-04-22T08:23:53Z</time></trkpt><trkpt lat="59.0921545029" lon="29.9864530563"><time>2026-04-22T08:23:55Z</time></trkpt><trkpt lat="59.0921759605" lon="29.9864530563"><time>2026-04-22T08:23:58Z</time></trkpt><trkpt lat="59.0921545029" lon="29.9864745140"><time>2026-04-22T08:24:03Z</time></trkpt><trkpt lat="59.0921545029" lon="29.9864959717"><time>2026-04-22T08:24:05Z</time></trkpt><trkpt lat="59.0921545029" lon="29.9864959717"><time>2026-04-22T08:24:08Z</time></trkpt><trkpt lat="59.0921545029" lon="29.9864745140"><time>2026-04-22T08:24:10Z</time></trkpt><trkpt lat="59.0921759605" lon="29.9864530563"><time>2026-04-22T08:24:13Z</time></trkpt><trkpt lat="59.0922188759" lon="29.9864315987"><time>2026-04-22T08:24:15Z</time></trkpt><trkpt lat="59.0922188759" lon="29.9864101410"><time>2026-04-22T08:24:18Z</time></trkpt><trkpt lat="59.0922403336" lon="29.9864101410"><time>2026-04-22T08:24:20Z</time></trkpt><trkpt lat="59.0922403336" lon="29.9864101410"><time>2026-04-22T08:24:23Z</time></trkpt><trkpt lat="59.0922403336" lon="29.9863886833"><time>2026-04-22T08:24:25Z</time></trkpt><trkpt lat="59.0922403336" lon="29.9863672256"><time>2026-04-22T08:24:28Z</time></trkpt><trkpt lat="59.0922403336" lon="29.9864315987"><time>2026-04-22T08:24:30Z</time></trkpt><trkpt lat="59.0922403336" lon="29.9864315987"><time>2026-04-22T08:24:33Z</time></trkpt><trkpt lat="59.0922403336" lon="29.9864315987"><time>2026-04-22T08:24:35Z</time></trkpt><trkpt lat="59.0922403336" lon="29.9864315987"><time>2026-04-22T08:24:38Z</time></trkpt><trkpt lat="59.0922403336" lon="29.9864959717"><time>2026-04-22T08:24:40Z</time></trkpt><trkpt lat="59.0922403336" lon="29.9865388870"><time>2026-04-22T08:24:43Z</time></trkpt><trkpt lat="59.0922403336" lon="29.9865174294"><time>2026-04-22T08:24:45Z</time></trkpt><trkpt lat="59.0922403336" lon="29.9865174294"><time>2026-04-22T08:24:48Z</time></trkpt><trkpt lat="59.0922403336" lon="29.9865174294"><time>2026-04-22T08:24:50Z</time></trkpt><trkpt lat="59.0922403336" lon="29.9865174294"><time>2026-04-22T08:24:53Z</time></trkpt><trkpt lat="59.0922403336" lon="29.9865174294"><time>2026-04-22T08:24:55Z</time></trkpt><trkpt lat="59.0922403336" lon="29.9865388870"><time>2026-04-22T08:24:58Z</time></trkpt><trkpt lat="59.0922617912" lon="29.9866032600"><time>2026-04-22T08:25:00Z</time></trkpt><trkpt lat="59.0922617912" lon="29.9866032600"><time>2026-04-22T08:25:03Z</time></trkpt><trkpt lat="59.0922617912" lon="29.9866032600"><time>2026-04-22T08:25:05Z</time></trkpt><trkpt lat="59.0922617912" lon="29.9866032600"><time>2026-04-22T08:25:08Z</time></trkpt><trkpt lat="59.0922617912" lon="29.9866032600"><time>2026-04-22T08:25:10Z</time></trkpt><trkpt lat="59.0922403336" lon="29.9865818024"><time>2026-04-22T08:25:13Z</time></trkpt><trkpt lat="59.0922617912" lon="29.9866890907"><time>2026-04-22T08:25:15Z</time></trkpt><trkpt lat="59.0922832489" lon="29.9867534637"><time>2026-04-22T08:25:18Z</time></trkpt><trkpt lat="59.0923047066" lon="29.9867749214"><time>2026-04-22T08:25:20Z</time></trkpt><trkpt lat="59.0922832489" lon="29.9868178368"><time>2026-04-22T08:25:23Z</time></trkpt><trkpt lat="59.0922403336" lon="29.9869251251"><time>2026-04-22T08:25:25Z</time></trkpt><trkpt lat="59.0922403336" lon="29.9869036674"><time>2026-04-22T08:25:28Z</time></trkpt><trkpt lat="59.0922403336" lon="29.9868822098"><time>2026-04-22T08:25:30Z</time></trkpt><trkpt lat="59.0922403336" lon="29.9868822098"><time>2026-04-22T08:25:33Z</time></trkpt><trkpt lat="59.0922832489" lon="29.9870753288"><time>2026-04-22T08:25:35Z</time></trkpt><trkpt lat="59.0922832489" lon="29.9871611595"><time>2026-04-22T08:25:38Z</time></trkpt><trkpt lat="59.0923047066" lon="29.9872469902"><time>2026-04-22T08:25:40Z</time></trkpt><trkpt lat="59.0923047066" lon="29.9872899055"><time>2026-04-22T08:25:43Z</time></trkpt><trkpt lat="59.0923261642" lon="29.9873328209"><time>2026-04-22T08:25:45Z</time></trkpt><trkpt lat="59.0923261642" lon="29.9874186516"><time>2026-04-22T08:25:48Z</time></trkpt><trkpt lat="59.0923690796" lon="29.9874615669"><time>2026-04-22T08:25:50Z</time></trkpt><trkpt lat="59.0923905373" lon="29.9874186516"><time>2026-04-22T08:25:53Z</time></trkpt><trkpt lat="59.0923690796" lon="29.9873971939"><time>2026-04-22T08:25:55Z</time></trkpt><trkpt lat="59.0923690796" lon="29.9873971939"><time>2026-04-22T08:25:58Z</time></trkpt><trkpt lat="59.0923690796" lon="29.9873971939"><time>2026-04-22T08:26:00Z</time></trkpt><trkpt lat="59.0923690796" lon="29.9873971939"><time>2026-04-22T08:26:03Z</time></trkpt><trkpt lat="59.0923690796" lon="29.9873971939"><time>2026-04-22T08:26:05Z</time></trkpt><trkpt lat="59.0923690796" lon="29.9873971939"><time>2026-04-22T08:26:08Z</time></trkpt><trkpt lat="59.0923690796" lon="29.9875044823"><time>2026-04-22T08:26:10Z</time></trkpt><trkpt lat="59.0923690796" lon="29.9875688553"><time>2026-04-22T08:26:13Z</time></trkpt><trkpt lat="59.0923905373" lon="29.9876546860"><time>2026-04-22T08:26:15Z</time></trkpt><trkpt lat="59.0924119949" lon="29.9877190590"><time>2026-04-22T08:26:18Z</time></trkpt><trkpt lat="59.0924334526" lon="29.9877834320"><time>2026-04-22T08:26:20Z</time></trkpt><trkpt lat="59.0924549103" lon="29.9878478050"><time>2026-04-22T08:26:23Z</time></trkpt><trkpt lat="59.0924763680" lon="29.9879336357"><time>2026-04-22T08:26:25Z</time></trkpt><trkpt lat="59.0924763680" lon="29.9879765511"><time>2026-04-22T08:26:28Z</time></trkpt><trkpt lat="59.0924978256" lon="29.9881052971"><time>2026-04-22T08:26:30Z</time></trkpt><trkpt lat="59.0924978256" lon="29.9881267548"><time>2026-04-22T08:26:33Z</time></trkpt><trkpt lat="59.0925192833" lon="29.9882125854"><time>2026-04-22T08:26:35Z</time></trkpt><trkpt lat="59.0925192833" lon="29.9881911278"><time>2026-04-22T08:26:38Z</time></trkpt><trkpt lat="59.0925192833" lon="29.9881696701"><time>2026-04-22T08:26:40Z</time></trkpt><trkpt lat="59.0925192833" lon="29.9881696701"><time>2026-04-22T08:26:43Z</time></trkpt><trkpt lat="59.0925407410" lon="29.9882769585"><time>2026-04-22T08:26:45Z</time></trkpt><trkpt lat="59.0925407410" lon="29.9882769585"><time>2026-04-22T08:26:48Z</time></trkpt><trkpt lat="59.0925407410" lon="29.9882769585"><time>2026-04-22T08:26:50Z</time></trkpt><trkpt lat="59.0925407410" lon="29.9882769585"><time>2026-04-22T08:26:53Z</time></trkpt><trkpt lat="59.0925407410" lon="29.9882769585"><time>2026-04-22T08:26:55Z</time></trkpt><trkpt lat="59.0925407410" lon="29.9882769585"><time>2026-04-22T08:26:58Z</time></trkpt><trkpt lat="59.0925836563" lon="29.9884486198"><time>2026-04-22T08:27:00Z</time></trkpt><trkpt lat="59.0925836563" lon="29.9885559082"><time>2026-04-22T08:27:03Z</time></trkpt><trkpt lat="59.0925836563" lon="29.9886202812"><time>2026-04-22T08:27:05Z</time></trkpt><trkpt lat="59.0926051140" lon="29.9886846542"><time>2026-04-22T08:27:08Z</time></trkpt><trkpt lat="59.0926265717" lon="29.9887490273"><time>2026-04-22T08:27:10Z</time></trkpt><trkpt lat="59.0926480293" lon="29.9888134003"><time>2026-04-22T08:27:13Z</time></trkpt><trkpt lat="59.0926694870" lon="29.9888777733"><time>2026-04-22T08:27:15Z</time></trkpt><trkpt lat="59.0926909447" lon="29.9889421463"><time>2026-04-22T08:27:18Z</time></trkpt><trkpt lat="59.0926909447" lon="29.9889421463"><time>2026-04-22T08:27:20Z</time></trkpt><trkpt lat="59.0926909447" lon="29.9889421463"><time>2026-04-22T08:27:23Z</time></trkpt><trkpt lat="59.0926909447" lon="29.9889421463"><time>2026-04-22T08:27:25Z</time></trkpt><trkpt lat="59.0926909447" lon="29.9889636040"><time>2026-04-22T08:27:28Z</time></trkpt><trkpt lat="59.0926909447" lon="29.9889850616"><time>2026-04-22T08:27:30Z</time></trkpt><trkpt lat="59.0926909447" lon="29.9889850616"><time>2026-04-22T08:27:33Z</time></trkpt><trkpt lat="59.0926909447" lon="29.9889850616"><time>2026-04-22T08:27:35Z</time></trkpt><trkpt lat="59.0926909447" lon="29.9889850616"><time>2026-04-22T08:27:38Z</time></trkpt><trkpt lat="59.0926909447" lon="29.9889850616"><time>2026-04-22T08:27:40Z</time></trkpt><trkpt lat="59.0926909447" lon="29.9890494347"><time>2026-04-22T08:27:43Z</time></trkpt><trkpt lat="59.0927338600" lon="29.9892210960"><time>2026-04-22T08:27:45Z</time></trkpt><trkpt lat="59.0927338600" lon="29.9891996384"><time>2026-04-22T08:27:48Z</time></trkpt><trkpt lat="59.0927338600" lon="29.9891352654"><time>2026-04-22T08:27:50Z</time></trkpt><trkpt lat="59.0927338600" lon="29.9891352654"><time>2026-04-22T08:27:53Z</time></trkpt><trkpt lat="59.0927338600" lon="29.9891352654"><time>2026-04-22T08:27:55Z</time></trkpt><trkpt lat="59.0927553177" lon="29.9891138077"><time>2026-04-22T08:27:58Z</time></trkpt><trkpt lat="59.0927553177" lon="29.9890923500"><time>2026-04-22T08:28:00Z</time></trkpt><trkpt lat="59.0927553177" lon="29.9890923500"><time>2026-04-22T08:28:03Z</time></trkpt><trkpt lat="59.0927553177" lon="29.9891567230"><time>2026-04-22T08:28:05Z</time></trkpt><trkpt lat="59.0927553177" lon="29.9893927574"><time>2026-04-22T08:28:08Z</time></trkpt><trkpt lat="59.0928411484" lon="29.9897575378"><time>2026-04-22T08:28:10Z</time></trkpt><trkpt lat="59.0928626060" lon="29.9899077415"><time>2026-04-22T08:28:13Z</time></trkpt><trkpt lat="59.0928626060" lon="29.9898862839"><time>2026-04-22T08:28:15Z</time></trkpt><trkpt lat="59.0928840637" lon="29.9898862839"><time>2026-04-22T08:28:18Z</time></trkpt><trkpt lat="59.0929269791" lon="29.9899506569"><time>2026-04-22T08:28:20Z</time></trkpt><trkpt lat="59.0929269791" lon="29.9899721146"><time>2026-04-22T08:28:23Z</time></trkpt><trkpt lat="59.0929484367" lon="29.9900794029"><time>2026-04-22T08:28:25Z</time></trkpt><trkpt lat="59.0929484367" lon="29.9901652336"><time>2026-04-22T08:28:28Z</time></trkpt><trkpt lat="59.0929269791" lon="29.9902510643"><time>2026-04-22T08:28:30Z</time></trkpt><trkpt lat="59.0929055214" lon="29.9902725220"><time>2026-04-22T08:28:33Z</time></trkpt><trkpt lat="59.0929055214" lon="29.9902939796"><time>2026-04-22T08:28:35Z</time></trkpt><trkpt lat="59.0929484367" lon="29.9904012680"><time>2026-04-22T08:28:38Z</time></trkpt><trkpt lat="59.0929913521" lon="29.9905729294"><time>2026-04-22T08:28:40Z</time></trkpt><trkpt lat="59.0929913521" lon="29.9905729294"><time>2026-04-22T08:28:43Z</time></trkpt><trkpt lat="59.0929913521" lon="29.9905729294"><time>2026-04-22T08:28:45Z</time></trkpt><trkpt lat="59.0929913521" lon="29.9905729294"><time>2026-04-22T08:28:48Z</time></trkpt><trkpt lat="59.0929913521" lon="29.9905729294"><time>2026-04-22T08:28:50Z</time></trkpt><trkpt lat="59.0929913521" lon="29.9906158447"><time>2026-04-22T08:28:53Z</time></trkpt><trkpt lat="59.0930342674" lon="29.9908304214"><time>2026-04-22T08:28:55Z</time></trkpt><trkpt lat="59.0930557251" lon="29.9909591675"><time>2026-04-22T08:28:58Z</time></trkpt><trkpt lat="59.0930771828" lon="29.9910235405"><time>2026-04-22T08:29:00Z</time></trkpt><trkpt lat="59.0930986404" lon="29.9910235405"><time>2026-04-22T08:29:03Z</time></trkpt><trkpt lat="59.0930771828" lon="29.9910449982"><time>2026-04-22T08:29:05Z</time></trkpt><trkpt lat="59.0930557251" lon="29.9911093712"><time>2026-04-22T08:29:08Z</time></trkpt><trkpt lat="59.0930771828" lon="29.9911737442"><time>2026-04-22T08:29:10Z</time></trkpt><trkpt lat="59.0930986404" lon="29.9912381172"><time>2026-04-22T08:29:13Z</time></trkpt><trkpt lat="59.0931200981" lon="29.9914097786"><time>2026-04-22T08:29:15Z</time></trkpt><trkpt lat="59.0931200981" lon="29.9914956093"><time>2026-04-22T08:29:18Z</time></trkpt><trkpt lat="59.0931415558" lon="29.9915385246"><time>2026-04-22T08:29:20Z</time></trkpt><trkpt lat="59.0931415558" lon="29.9915385246"><time>2026-04-22T08:29:23Z</time></trkpt><trkpt lat="59.0931415558" lon="29.9915385246"><time>2026-04-22T08:29:25Z</time></trkpt><trkpt lat="59.0931415558" lon="29.9915814400"><time>2026-04-22T08:29:28Z</time></trkpt><trkpt lat="59.0931630135" lon="29.9916887283"><time>2026-04-22T08:29:30Z</time></trkpt><trkpt lat="59.0931630135" lon="29.9917101860"><time>2026-04-22T08:29:33Z</time></trkpt><trkpt lat="59.0931844711" lon="29.9918174744"><time>2026-04-22T08:29:35Z</time></trkpt><trkpt lat="59.0931844711" lon="29.9919247627"><time>2026-04-22T08:29:38Z</time></trkpt><trkpt lat="59.0932059288" lon="29.9920105934"><time>2026-04-22T08:29:40Z</time></trkpt><trkpt lat="59.0932273865" lon="29.9920964241"><time>2026-04-22T08:29:43Z</time></trkpt><trkpt lat="59.0932488441" lon="29.9921393394"><time>2026-04-22T08:29:45Z</time></trkpt><trkpt lat="59.0932488441" lon="29.9922466278"><time>2026-04-22T08:29:48Z</time></trkpt><trkpt lat="59.0932917595" lon="29.9923753738"><time>2026-04-22T08:29:50Z</time></trkpt><trkpt lat="59.0933132172" lon="29.9924612045"><time>2026-04-22T08:29:53Z</time></trkpt><trkpt lat="59.0933346748" lon="29.9925899506"><time>2026-04-22T08:29:55Z</time></trkpt><trkpt lat="59.0933561325" lon="29.9926543236"><time>2026-04-22T08:29:58Z</time></trkpt><trkpt lat="59.0933561325" lon="29.9926972389"><time>2026-04-22T08:30:00Z</time></trkpt><trkpt lat="59.0933561325" lon="29.9926972389"><time>2026-04-22T08:30:03Z</time></trkpt><trkpt lat="59.0933775902" lon="29.9927186966"><time>2026-04-22T08:30:05Z</time></trkpt><trkpt lat="59.0933775902" lon="29.9928045273"><time>2026-04-22T08:30:08Z</time></trkpt><trkpt lat="59.0933775902" lon="29.9928903580"><time>2026-04-22T08:30:10Z</time></trkpt><trkpt lat="59.0933775902" lon="29.9928474426"><time>2026-04-22T08:30:13Z</time></trkpt><trkpt lat="59.0933775902" lon="29.9928689003"><time>2026-04-22T08:30:15Z</time></trkpt><trkpt lat="59.0933775902" lon="29.9929547310"><time>2026-04-22T08:30:18Z</time></trkpt><trkpt lat="59.0933990479" lon="29.9931263924"><time>2026-04-22T08:30:20Z</time></trkpt><trkpt lat="59.0934419632" lon="29.9932336807"><time>2026-04-22T08:30:23Z</time></trkpt><trkpt lat="59.0934634209" lon="29.9933838844"><time>2026-04-22T08:30:25Z</time></trkpt><trkpt lat="59.0934634209" lon="29.9934482574"><time>2026-04-22T08:30:28Z</time></trkpt><trkpt lat="59.0934634209" lon="29.9934482574"><time>2026-04-22T08:30:30Z</time></trkpt><trkpt lat="59.0934848785" lon="29.9934697151"><time>2026-04-22T08:30:33Z</time></trkpt><trkpt lat="59.0935063362" lon="29.9934911728"><time>2026-04-22T08:30:35Z</time></trkpt><trkpt lat="59.0935063362" lon="29.9935126305"><time>2026-04-22T08:30:38Z</time></trkpt><trkpt lat="59.0935063362" lon="29.9935126305"><time>2026-04-22T08:30:40Z</time></trkpt><trkpt lat="59.0935063362" lon="29.9935126305"><time>2026-04-22T08:30:43Z</time></trkpt><trkpt lat="59.0935277939" lon="29.9936199188"><time>2026-04-22T08:30:45Z</time></trkpt><trkpt lat="59.0935492516" lon="29.9937057495"><time>2026-04-22T08:30:48Z</time></trkpt><trkpt lat="59.0935707092" lon="29.9937272072"><time>2026-04-22T08:30:50Z</time></trkpt><trkpt lat="59.0935707092" lon="29.9937486649"><time>2026-04-22T08:30:53Z</time></trkpt><trkpt lat="59.0935707092" lon="29.9937272072"><time>2026-04-22T08:30:55Z</time></trkpt><trkpt lat="59.0935707092" lon="29.9937272072"><time>2026-04-22T08:30:58Z</time></trkpt><trkpt lat="59.0936136246" lon="29.9939417839"><time>2026-04-22T08:31:00Z</time></trkpt><trkpt lat="59.0936350822" lon="29.9941134453"><time>2026-04-22T08:31:03Z</time></trkpt><trkpt lat="59.0936565399" lon="29.9943280220"><time>2026-04-22T08:31:05Z</time></trkpt><trkpt lat="59.0936350822" lon="29.9944353104"><time>2026-04-22T08:31:08Z</time></trkpt><trkpt lat="59.0936565399" lon="29.9945211411"><time>2026-04-22T08:31:10Z</time></trkpt><trkpt lat="59.0936565399" lon="29.9945211411"><time>2026-04-22T08:31:13Z</time></trkpt><trkpt lat="59.0936565399" lon="29.9945211411"><time>2026-04-22T08:31:15Z</time></trkpt><trkpt lat="59.0936565399" lon="29.9945211411"><time>2026-04-22T08:31:18Z</time></trkpt><trkpt lat="59.0936779976" lon="29.9945640564"><time>2026-04-22T08:31:20Z</time></trkpt><trkpt lat="59.0936779976" lon="29.9946498871"><time>2026-04-22T08:31:23Z</time></trkpt><trkpt lat="59.0937209129" lon="29.9948215485"><time>2026-04-22T08:31:25Z</time></trkpt><trkpt lat="59.0937423706" lon="29.9949073792"><time>2026-04-22T08:31:28Z</time></trkpt><trkpt lat="59.0937423706" lon="29.9950361252"><time>2026-04-22T08:31:30Z</time></trkpt><trkpt lat="59.0937423706" lon="29.9950361252"><time>2026-04-22T08:31:33Z</time></trkpt><trkpt lat="59.0937423706" lon="29.9950361252"><time>2026-04-22T08:31:35Z</time></trkpt><trkpt lat="59.0937638283" lon="29.9951004982"><time>2026-04-22T08:31:38Z</time></trkpt><trkpt lat="59.0937638283" lon="29.9951004982"><time>2026-04-22T08:31:40Z</time></trkpt><trkpt lat="59.0937638283" lon="29.9951004982"><time>2026-04-22T08:31:43Z</time></trkpt><trkpt lat="59.0937638283" lon="29.9951004982"><time>2026-04-22T08:31:45Z</time></trkpt><trkpt lat="59.0937638283" lon="29.9951004982"><time>2026-04-22T08:31:48Z</time></trkpt><trkpt lat="59.0937638283" lon="29.9951004982"><time>2026-04-22T08:31:50Z</time></trkpt><trkpt lat="59.0937638283" lon="29.9951004982"><time>2026-04-22T08:31:53Z</time></trkpt><trkpt lat="59.0937638283" lon="29.9951004982"><time>2026-04-22T08:31:55Z</time></trkpt><trkpt lat="59.0937638283" lon="29.9951004982"><time>2026-04-22T08:31:58Z</time></trkpt><trkpt lat="59.0937638283" lon="29.9951648712"><time>2026-04-22T08:32:00Z</time></trkpt><trkpt lat="59.0937638283" lon="29.9951863289"><time>2026-04-22T08:32:03Z</time></trkpt><trkpt lat="59.0937638283" lon="29.9951863289"><time>2026-04-22T08:32:05Z</time></trkpt><trkpt lat="59.0937638283" lon="29.9951863289"><time>2026-04-22T08:32:08Z</time></trkpt><trkpt lat="59.0937638283" lon="29.9953365326"><time>2026-04-22T08:32:10Z</time></trkpt><trkpt lat="59.0937852859" lon="29.9955081940"><time>2026-04-22T08:32:13Z</time></trkpt><trkpt lat="59.0938282013" lon="29.9957656860"><time>2026-04-22T08:32:15Z</time></trkpt><trkpt lat="59.0938496590" lon="29.9958729744"><time>2026-04-22T08:32:18Z</time></trkpt><trkpt lat="59.0938711166" lon="29.9959158897"><time>2026-04-22T08:32:20Z</time></trkpt><trkpt lat="59.0938711166" lon="29.9959158897"><time>2026-04-22T08:32:23Z</time></trkpt><trkpt lat="59.0938711166" lon="29.9959158897"><time>2026-04-22T08:32:25Z</time></trkpt><trkpt lat="59.0938711166" lon="29.9959158897"><time>2026-04-22T08:32:28Z</time></trkpt><trkpt lat="59.0938711166" lon="29.9959158897"><time>2026-04-22T08:32:30Z</time></trkpt><trkpt lat="59.0938711166" lon="29.9960231781"><time>2026-04-22T08:32:33Z</time></trkpt><trkpt lat="59.0939140320" lon="29.9962592125"><time>2026-04-22T08:32:35Z</time></trkpt><trkpt lat="59.0939569473" lon="29.9964094162"><time>2026-04-22T08:32:38Z</time></trkpt><trkpt lat="59.0939784050" lon="29.9965810776"><time>2026-04-22T08:32:40Z</time></trkpt><trkpt lat="59.0939998627" lon="29.9966669083"><time>2026-04-22T08:32:43Z</time></trkpt><trkpt lat="59.0939998627" lon="29.9967098236"><time>2026-04-22T08:32:45Z</time></trkpt><trkpt lat="59.0939998627" lon="29.9967098236"><time>2026-04-22T08:32:48Z</time></trkpt><trkpt lat="59.0939998627" lon="29.9967098236"><time>2026-04-22T08:32:50Z</time></trkpt><trkpt lat="59.0939998627" lon="29.9967956543"><time>2026-04-22T08:32:53Z</time></trkpt><trkpt lat="59.0940427780" lon="29.9969244003"><time>2026-04-22T08:32:55Z</time></trkpt><trkpt lat="59.0940427780" lon="29.9970102310"><time>2026-04-22T08:32:58Z</time></trkpt><trkpt lat="59.0940642357" lon="29.9971175194"><time>2026-04-22T08:33:00Z</time></trkpt><trkpt lat="59.0940642357" lon="29.9971818924"><time>2026-04-22T08:33:03Z</time></trkpt><trkpt lat="59.0941071510" lon="29.9973106384"><time>2026-04-22T08:33:05Z</time></trkpt><trkpt lat="59.0941286087" lon="29.9973320961"><time>2026-04-22T08:33:08Z</time></trkpt><trkpt lat="59.0941286087" lon="29.9973320961"><time>2026-04-22T08:33:10Z</time></trkpt><trkpt lat="59.0941500664" lon="29.9974179268"><time>2026-04-22T08:33:13Z</time></trkpt><trkpt lat="59.0941715240" lon="29.9974608421"><time>2026-04-22T08:33:15Z</time></trkpt><trkpt lat="59.0941715240" lon="29.9974608421"><time>2026-04-22T08:33:18Z</time></trkpt><trkpt lat="59.0941715240" lon="29.9974608421"><time>2026-04-22T08:33:20Z</time></trkpt><trkpt lat="59.0941715240" lon="29.9975037575"><time>2026-04-22T08:33:23Z</time></trkpt><trkpt lat="59.0941929817" lon="29.9975681305"><time>2026-04-22T08:33:25Z</time></trkpt><trkpt lat="59.0941929817" lon="29.9975681305"><time>2026-04-22T08:33:28Z</time></trkpt><trkpt lat="59.0941929817" lon="29.9975681305"><time>2026-04-22T08:33:30Z</time></trkpt><trkpt lat="59.0941929817" lon="29.9975681305"><time>2026-04-22T08:33:33Z</time></trkpt><trkpt lat="59.0941929817" lon="29.9975681305"><time>2026-04-22T08:33:35Z</time></trkpt><trkpt lat="59.0941929817" lon="29.9976110458"><time>2026-04-22T08:33:38Z</time></trkpt><trkpt lat="59.0942358971" lon="29.9978470802"><time>2026-04-22T08:33:40Z</time></trkpt><trkpt lat="59.0942788124" lon="29.9979972839"><time>2026-04-22T08:33:43Z</time></trkpt><trkpt lat="59.0943002701" lon="29.9981904030"><time>2026-04-22T08:33:45Z</time></trkpt><trkpt lat="59.0943217278" lon="29.9982762337"><time>2026-04-22T08:33:48Z</time></trkpt><trkpt lat="59.0943431854" lon="29.9983620644"><time>2026-04-22T08:33:50Z</time></trkpt><trkpt lat="59.0943431854" lon="29.9983620644"><time>2026-04-22T08:33:53Z</time></trkpt><trkpt lat="59.0943431854" lon="29.9983835220"><time>2026-04-22T08:33:55Z</time></trkpt><trkpt lat="59.0943646431" lon="29.9984908104"><time>2026-04-22T08:33:58Z</time></trkpt><trkpt lat="59.0943646431" lon="29.9985122681"><time>2026-04-22T08:34:00Z</time></trkpt><trkpt lat="59.0943646431" lon="29.9985122681"><time>2026-04-22T08:34:03Z</time></trkpt><trkpt lat="59.0943646431" lon="29.9985337257"><time>2026-04-22T08:34:05Z</time></trkpt><trkpt lat="59.0943431854" lon="29.9986195564"><time>2026-04-22T08:34:08Z</time></trkpt><trkpt lat="59.0943861008" lon="29.9987912178"><time>2026-04-22T08:34:10Z</time></trkpt><trkpt lat="59.0944075584" lon="29.9988770485"><time>2026-04-22T08:34:13Z</time></trkpt><trkpt lat="59.0944290161" lon="29.9988770485"><time>2026-04-22T08:34:15Z</time></trkpt><trkpt lat="59.0944290161" lon="29.9988770485"><time>2026-04-22T08:34:18Z</time></trkpt><trkpt lat="59.0944290161" lon="29.9988770485"><time>2026-04-22T08:34:20Z</time></trkpt><trkpt lat="59.0944290161" lon="29.9989628792"><time>2026-04-22T08:34:23Z</time></trkpt><trkpt lat="59.0944504738" lon="29.9991130829"><time>2026-04-22T08:34:25Z</time></trkpt><trkpt lat="59.0944504738" lon="29.9991989136"><time>2026-04-22T08:34:28Z</time></trkpt><trkpt lat="59.0944719315" lon="29.9993276596"><time>2026-04-22T08:34:30Z</time></trkpt><trkpt lat="59.0944719315" lon="29.9993920326"><time>2026-04-22T08:34:33Z</time></trkpt><trkpt lat="59.0944933891" lon="29.9994778633"><time>2026-04-22T08:34:35Z</time></trkpt><trkpt lat="59.0944933891" lon="29.9994778633"><time>2026-04-22T08:34:38Z</time></trkpt><trkpt lat="59.0945148468" lon="29.9996280670"><time>2026-04-22T08:34:40Z</time></trkpt><trkpt lat="59.0945363045" lon="29.9997353554"><time>2026-04-22T08:34:43Z</time></trkpt><trkpt lat="59.0945577621" lon="29.9998641014"><time>2026-04-22T08:34:45Z</time></trkpt><trkpt lat="59.0945792198" lon="29.9999070168"><time>2026-04-22T08:34:48Z</time></trkpt><trkpt lat="59.0946006775" lon="29.9999284744"><time>2026-04-22T08:34:50Z</time></trkpt><trkpt lat="59.0946006775" lon="29.9999284744"><time>2026-04-22T08:34:53Z</time></trkpt><trkpt lat="59.0946006775" lon="29.9999284744"><time>2026-04-22T08:34:55Z</time></trkpt><trkpt lat="59.0946006775" lon="29.9999284744"><time>2026-04-22T08:34:58Z</time></trkpt><trkpt lat="59.0946006775" lon="29.9999284744"><time>2026-04-22T08:35:00Z</time></trkpt><trkpt lat="59.0946006775" lon="29.9999284744"><time>2026-04-22T08:35:03Z</time></trkpt><trkpt lat="59.0946006775" lon="29.9999928474"><time>2026-04-22T08:35:05Z</time></trkpt><trkpt lat="59.0946221352" lon="30.0001215935"><time>2026-04-22T08:35:08Z</time></trkpt><trkpt lat="59.0946435928" lon="30.0002717972"><time>2026-04-22T08:35:10Z</time></trkpt><trkpt lat="59.0946650505" lon="30.0003576279"><time>2026-04-22T08:35:13Z</time></trkpt><trkpt lat="59.0946865082" lon="30.0003790855"><time>2026-04-22T08:35:15Z</time></trkpt><trkpt lat="59.0946865082" lon="30.0003790855"><time>2026-04-22T08:35:18Z</time></trkpt><trkpt lat="59.0946865082" lon="30.0003790855"><time>2026-04-22T08:35:20Z</time></trkpt><trkpt lat="59.0946865082" lon="30.0003790855"><time>2026-04-22T08:35:23Z</time></trkpt><trkpt lat="59.0946865082" lon="30.0003790855"><time>2026-04-22T08:35:25Z</time></trkpt><trkpt lat="59.0946865082" lon="30.0003790855"><time>2026-04-22T08:35:28Z</time></trkpt><trkpt lat="59.0947294235" lon="30.0006794930"><time>2026-04-22T08:35:30Z</time></trkpt><trkpt lat="59.0947723389" lon="30.0008726120"><time>2026-04-22T08:35:33Z</time></trkpt><trkpt lat="59.0947937965" lon="30.0010871887"><time>2026-04-22T08:35:35Z</time></trkpt><trkpt lat="59.0947723389" lon="30.0010657310"><time>2026-04-22T08:35:38Z</time></trkpt><trkpt lat="59.0947723389" lon="30.0010657310"><time>2026-04-22T08:35:40Z</time></trkpt><trkpt lat="59.0947723389" lon="30.0010657310"><time>2026-04-22T08:35:43Z</time></trkpt><trkpt lat="59.0948152542" lon="30.0012373924"><time>2026-04-22T08:35:45Z</time></trkpt><trkpt lat="59.0948581696" lon="30.0013446808"><time>2026-04-22T08:35:48Z</time></trkpt><trkpt lat="59.0948581696" lon="30.0013875961"><time>2026-04-22T08:35:50Z</time></trkpt><trkpt lat="59.0948581696" lon="30.0013875961"><time>2026-04-22T08:35:53Z</time></trkpt><trkpt lat="59.0948581696" lon="30.0014305115"><time>2026-04-22T08:35:55Z</time></trkpt><trkpt lat="59.0949010849" lon="30.0015377998"><time>2026-04-22T08:35:58Z</time></trkpt><trkpt lat="59.0949225426" lon="30.0017309189"><time>2026-04-22T08:36:00Z</time></trkpt><trkpt lat="59.0949440002" lon="30.0018596649"><time>2026-04-22T08:36:03Z</time></trkpt><trkpt lat="59.0949440002" lon="30.0020313263"><time>2026-04-22T08:36:05Z</time></trkpt><trkpt lat="59.0949654579" lon="30.0020956993"><time>2026-04-22T08:36:08Z</time></trkpt><trkpt lat="59.0949654579" lon="30.0020313263"><time>2026-04-22T08:36:10Z</time></trkpt><trkpt lat="59.0949869156" lon="30.0019669533"><time>2026-04-22T08:36:13Z</time></trkpt><trkpt lat="59.0949869156" lon="30.0019240379"><time>2026-04-22T08:36:15Z</time></trkpt><trkpt lat="59.0949654579" lon="30.0019025803"><time>2026-04-22T08:36:18Z</time></trkpt><trkpt lat="59.0949654579" lon="30.0019884109"><time>2026-04-22T08:36:20Z</time></trkpt><trkpt lat="59.0949869156" lon="30.0020956993"><time>2026-04-22T08:36:23Z</time></trkpt><trkpt lat="59.0950083733" lon="30.0022888184"><time>2026-04-22T08:36:25Z</time></trkpt><trkpt lat="59.0950083733" lon="30.0023961067"><time>2026-04-22T08:36:28Z</time></trkpt><trkpt lat="59.0950298309" lon="30.0025463104"><time>2026-04-22T08:36:30Z</time></trkpt><trkpt lat="59.0950298309" lon="30.0025463104"><time>2026-04-22T08:36:33Z</time></trkpt><trkpt lat="59.0950298309" lon="30.0025463104"><time>2026-04-22T08:36:35Z</time></trkpt><trkpt lat="59.0950298309" lon="30.0025463104"><time>2026-04-22T08:36:38Z</time></trkpt><trkpt lat="59.0950727463" lon="30.0026965141"><time>2026-04-22T08:36:40Z</time></trkpt><trkpt lat="59.0950942039" lon="30.0028252602"><time>2026-04-22T08:36:43Z</time></trkpt><trkpt lat="59.0951371193" lon="30.0029969215"><time>2026-04-22T08:36:45Z</time></trkpt><trkpt lat="59.0951371193" lon="30.0031042099"><time>2026-04-22T08:36:48Z</time></trkpt><trkpt lat="59.0951371193" lon="30.0030827522"><time>2026-04-22T08:36:50Z</time></trkpt><trkpt lat="59.0951371193" lon="30.0030827522"><time>2026-04-22T08:36:53Z</time></trkpt><trkpt lat="59.0951371193" lon="30.0030827522"><time>2026-04-22T08:36:55Z</time></trkpt><trkpt lat="59.0951371193" lon="30.0031256676"><time>2026-04-22T08:36:58Z</time></trkpt><trkpt lat="59.0951585770" lon="30.0032758713"><time>2026-04-22T08:37:00Z</time></trkpt><trkpt lat="59.0951800346" lon="30.0033617020"><time>2026-04-22T08:37:03Z</time></trkpt><trkpt lat="59.0951800346" lon="30.0034689903"><time>2026-04-22T08:37:05Z</time></trkpt><trkpt lat="59.0951800346" lon="30.0034689903"><time>2026-04-22T08:37:08Z</time></trkpt><trkpt lat="59.0951800346" lon="30.0035119057"><time>2026-04-22T08:37:10Z</time></trkpt><trkpt lat="59.0952014923" lon="30.0035333633"><time>2026-04-22T08:37:13Z</time></trkpt><trkpt lat="59.0952014923" lon="30.0035333633"><time>2026-04-22T08:37:15Z</time></trkpt><trkpt lat="59.0952014923" lon="30.0035333633"><time>2026-04-22T08:37:18Z</time></trkpt><trkpt lat="59.0952229500" lon="30.0036835670"><time>2026-04-22T08:37:20Z</time></trkpt><trkpt lat="59.0952444077" lon="30.0037479401"><time>2026-04-22T08:37:23Z</time></trkpt><trkpt lat="59.0952658653" lon="30.0038766861"><time>2026-04-22T08:37:25Z</time></trkpt><trkpt lat="59.0952873230" lon="30.0039410591"><time>2026-04-22T08:37:28Z</time></trkpt><trkpt lat="59.0952873230" lon="30.0039839745"><time>2026-04-22T08:37:30Z</time></trkpt><trkpt lat="59.0952873230" lon="30.0039839745"><time>2026-04-22T08:37:33Z</time></trkpt><trkpt lat="59.0952873230" lon="30.0039839745"><time>2026-04-22T08:37:35Z</time></trkpt><trkpt lat="59.0952873230" lon="30.0039839745"><time>2026-04-22T08:37:38Z</time></trkpt><trkpt lat="59.0952873230" lon="30.0040483475"><time>2026-04-22T08:37:40Z</time></trkpt><trkpt lat="59.0953087807" lon="30.0041770935"><time>2026-04-22T08:37:43Z</time></trkpt><trkpt lat="59.0953302383" lon="30.0043272972"><time>2026-04-22T08:37:45Z</time></trkpt><trkpt lat="59.0953516960" lon="30.0043272972"><time>2026-04-22T08:37:48Z</time></trkpt><trkpt lat="59.0953516960" lon="30.0043272972"><time>2026-04-22T08:37:50Z</time></trkpt><trkpt lat="59.0953516960" lon="30.0043272972"><time>2026-04-22T08:37:53Z</time></trkpt><trkpt lat="59.0953516960" lon="30.0043916702"><time>2026-04-22T08:37:55Z</time></trkpt><trkpt lat="59.0953516960" lon="30.0043916702"><time>2026-04-22T08:37:58Z</time></trkpt><trkpt lat="59.0953516960" lon="30.0043916702"><time>2026-04-22T08:38:00Z</time></trkpt><trkpt lat="59.0953516960" lon="30.0043916702"><time>2026-04-22T08:38:03Z</time></trkpt><trkpt lat="59.0953516960" lon="30.0043916702"><time>2026-04-22T08:38:05Z</time></trkpt><trkpt lat="59.0953946114" lon="30.0045633316"><time>2026-04-22T08:38:08Z</time></trkpt><trkpt lat="59.0954589844" lon="30.0048851967"><time>2026-04-22T08:38:10Z</time></trkpt><trkpt lat="59.0954804420" lon="30.0050354004"><time>2026-04-22T08:38:13Z</time></trkpt><trkpt lat="59.0955018997" lon="30.0051856041"><time>2026-04-22T08:38:15Z</time></trkpt><trkpt lat="59.0955018997" lon="30.0051856041"><time>2026-04-22T08:38:18Z</time></trkpt><trkpt lat="59.0955448151" lon="30.0051641464"><time>2026-04-22T08:38:20Z</time></trkpt><trkpt lat="59.0955448151" lon="30.0051641464"><time>2026-04-22T08:38:23Z</time></trkpt><trkpt lat="59.0955448151" lon="30.0051641464"><time>2026-04-22T08:38:25Z</time></trkpt><trkpt lat="59.0955233574" lon="30.0052285194"><time>2026-04-22T08:38:28Z</time></trkpt><trkpt lat="59.0955662727" lon="30.0054645538"><time>2026-04-22T08:38:30Z</time></trkpt><trkpt lat="59.0955877304" lon="30.0055718422"><time>2026-04-22T08:38:33Z</time></trkpt><trkpt lat="59.0955877304" lon="30.0055932999"><time>2026-04-22T08:38:35Z</time></trkpt><trkpt lat="59.0955877304" lon="30.0055932999"><time>2026-04-22T08:38:38Z</time></trkpt><trkpt lat="59.0956091881" lon="30.0056576729"><time>2026-04-22T08:38:40Z</time></trkpt><trkpt lat="59.0956091881" lon="30.0056576729"><time>2026-04-22T08:38:43Z</time></trkpt><trkpt lat="59.0956091881" lon="30.0057005882"><time>2026-04-22T08:38:45Z</time></trkpt><trkpt lat="59.0956306458" lon="30.0056791306"><time>2026-04-22T08:38:48Z</time></trkpt><trkpt lat="59.0956306458" lon="30.0056576729"><time>2026-04-22T08:38:50Z</time></trkpt><trkpt lat="59.0956306458" lon="30.0056576729"><time>2026-04-22T08:38:53Z</time></trkpt><trkpt lat="59.0956306458" lon="30.0057005882"><time>2026-04-22T08:38:55Z</time></trkpt><trkpt lat="59.0956521034" lon="30.0058722496"><time>2026-04-22T08:38:58Z</time></trkpt><trkpt lat="59.0957164764" lon="30.0061726570"><time>2026-04-22T08:39:00Z</time></trkpt><trkpt lat="59.0957379341" lon="30.0062370300"><time>2026-04-22T08:39:03Z</time></trkpt><trkpt lat="59.0957164764" lon="30.0062370300"><time>2026-04-22T08:39:05Z</time></trkpt><trkpt lat="59.0957164764" lon="30.0062370300"><time>2026-04-22T08:39:08Z</time></trkpt><trkpt lat="59.0957164764" lon="30.0060653687"><time>2026-04-22T08:39:10Z</time></trkpt><trkpt lat="59.0957808495" lon="30.0060009956"><time>2026-04-22T08:39:13Z</time></trkpt><trkpt lat="59.0958666801" lon="30.0060009956"><time>2026-04-22T08:39:15Z</time></trkpt><trkpt lat="59.0958666801" lon="30.0059795380"><time>2026-04-22T08:39:18Z</time></trkpt><trkpt lat="59.0958666801" lon="30.0059795380"><time>2026-04-22T08:39:20Z</time></trkpt><trkpt lat="59.0958666801" lon="30.0059795380"><time>2026-04-22T08:39:23Z</time></trkpt><trkpt lat="59.0958881378" lon="30.0059795380"><time>2026-04-22T08:39:25Z</time></trkpt><trkpt lat="59.0958881378" lon="30.0059795380"><time>2026-04-22T08:39:28Z</time></trkpt><trkpt lat="59.0958881378" lon="30.0059795380"><time>2026-04-22T08:39:30Z</time></trkpt><trkpt lat="59.0958881378" lon="30.0059795380"><time>2026-04-22T08:39:33Z</time></trkpt><trkpt lat="59.0958452225" lon="30.0060439110"><time>2026-04-22T08:39:35Z</time></trkpt><trkpt lat="59.0958452225" lon="30.0060653687"><time>2026-04-22T08:39:38Z</time></trkpt><trkpt lat="59.0958452225" lon="30.0060009956"><time>2026-04-22T08:39:40Z</time></trkpt><trkpt lat="59.0958237648" lon="30.0060009956"><time>2026-04-22T08:39:43Z</time></trkpt><trkpt lat="59.0958237648" lon="30.0060009956"><time>2026-04-22T08:39:45Z</time></trkpt><trkpt lat="59.0958237648" lon="30.0060009956"><time>2026-04-22T08:39:48Z</time></trkpt><trkpt lat="59.0958237648" lon="30.0060009956"><time>2026-04-22T08:39:50Z</time></trkpt><trkpt lat="59.0958237648" lon="30.0060224533"><time>2026-04-22T08:39:53Z</time></trkpt><trkpt lat="59.0958237648" lon="30.0060439110"><time>2026-04-22T08:39:55Z</time></trkpt><trkpt lat="59.0958237648" lon="30.0060224533"><time>2026-04-22T08:39:58Z</time></trkpt><trkpt lat="59.0958237648" lon="30.0060224533"><time>2026-04-22T08:40:00Z</time></trkpt><trkpt lat="59.0958237648" lon="30.0060224533"><time>2026-04-22T08:40:03Z</time></trkpt><trkpt lat="59.0958237648" lon="30.0060224533"><time>2026-04-22T08:40:05Z</time></trkpt><trkpt lat="59.0958237648" lon="30.0060224533"><time>2026-04-22T08:40:08Z</time></trkpt><trkpt lat="59.0958237648" lon="30.0060224533"><time>2026-04-22T08:40:10Z</time></trkpt><trkpt lat="59.0958237648" lon="30.0060224533"><time>2026-04-22T08:40:13Z</time></trkpt><trkpt lat="59.0958237648" lon="30.0060224533"><time>2026-04-22T08:40:15Z</time></trkpt><trkpt lat="59.0958237648" lon="30.0060224533"><time>2026-04-22T08:40:18Z</time></trkpt><trkpt lat="59.0958237648" lon="30.0060439110"><time>2026-04-22T08:40:20Z</time></trkpt><trkpt lat="59.0958237648" lon="30.0060439110"><time>2026-04-22T08:40:23Z</time></trkpt><trkpt lat="59.0958237648" lon="30.0060439110"><time>2026-04-22T08:40:25Z</time></trkpt><trkpt lat="59.0958237648" lon="30.0060439110"><time>2026-04-22T08:40:28Z</time></trkpt><trkpt lat="59.0958023071" lon="30.0060224533"><time>2026-04-22T08:40:30Z</time></trkpt><trkpt lat="59.0958023071" lon="30.0060224533"><time>2026-04-22T08:40:33Z</time></trkpt><trkpt lat="59.0958023071" lon="30.0060224533"><time>2026-04-22T08:40:35Z</time></trkpt><trkpt lat="59.0958023071" lon="30.0060224533"><time>2026-04-22T08:40:38Z</time></trkpt><trkpt lat="59.0958023071" lon="30.0060224533"><time>2026-04-22T08:40:40Z</time></trkpt><trkpt lat="59.0958023071" lon="30.0060224533"><time>2026-04-22T08:40:43Z</time></trkpt><trkpt lat="59.0958023071" lon="30.0060224533"><time>2026-04-22T08:40:45Z</time></trkpt><trkpt lat="59.0958023071" lon="30.0060224533"><time>2026-04-22T08:40:48Z</time></trkpt><trkpt lat="59.0958237648" lon="30.0060224533"><time>2026-04-22T08:40:50Z</time></trkpt><trkpt lat="59.0958237648" lon="30.0060224533"><time>2026-04-22T08:40:53Z</time></trkpt><trkpt lat="59.0958237648" lon="30.0060224533"><time>2026-04-22T08:40:55Z</time></trkpt><trkpt lat="59.0958237648" lon="30.0060224533"><time>2026-04-22T08:40:58Z</time></trkpt><trkpt lat="59.0958237648" lon="30.0060224533"><time>2026-04-22T08:41:00Z</time></trkpt><trkpt lat="59.0958237648" lon="30.0060224533"><time>2026-04-22T08:41:03Z</time></trkpt><trkpt lat="59.0958237648" lon="30.0060224533"><time>2026-04-22T08:41:05Z</time></trkpt><trkpt lat="59.0958237648" lon="30.0060224533"><time>2026-04-22T08:41:08Z</time></trkpt><trkpt lat="59.0958237648" lon="30.0060224533"><time>2026-04-22T08:41:10Z</time></trkpt><trkpt lat="59.0958237648" lon="30.0060224533"><time>2026-04-22T08:41:13Z</time></trkpt><trkpt lat="59.0958237648" lon="30.0060224533"><time>2026-04-22T08:41:15Z</time></trkpt><trkpt lat="59.0958237648" lon="30.0060224533"><time>2026-04-22T08:41:18Z</time></trkpt><trkpt lat="59.0958237648" lon="30.0060224533"><time>2026-04-22T08:41:20Z</time></trkpt><trkpt lat="59.0958237648" lon="30.0060439110"><time>2026-04-22T08:41:23Z</time></trkpt><trkpt lat="59.0958237648" lon="30.0060439110"><time>2026-04-22T08:41:25Z</time></trkpt><trkpt lat="59.0958237648" lon="30.0060439110"><time>2026-04-22T08:41:28Z</time></trkpt><trkpt lat="59.0958237648" lon="30.0060439110"><time>2026-04-22T08:41:30Z</time></trkpt><trkpt lat="59.0958237648" lon="30.0060439110"><time>2026-04-22T08:41:33Z</time></trkpt><trkpt lat="59.0958666801" lon="30.0060224533"><time>2026-04-22T08:41:35Z</time></trkpt><trkpt lat="59.0958881378" lon="30.0060009956"><time>2026-04-22T08:41:38Z</time></trkpt><trkpt lat="59.0959525108" lon="30.0059795380"><time>2026-04-22T08:41:40Z</time></trkpt><trkpt lat="59.0959525108" lon="30.0059795380"><time>2026-04-22T08:41:43Z</time></trkpt><trkpt lat="59.0959525108" lon="30.0059795380"><time>2026-04-22T08:41:45Z</time></trkpt><trkpt lat="59.0959525108" lon="30.0059795380"><time>2026-04-22T08:41:48Z</time></trkpt><trkpt lat="59.0959525108" lon="30.0059795380"><time>2026-04-22T08:41:50Z</time></trkpt><trkpt lat="59.0959525108" lon="30.0059795380"><time>2026-04-22T08:41:53Z</time></trkpt><trkpt lat="59.0959954262" lon="30.0059795380"><time>2026-04-22T08:41:55Z</time></trkpt><trkpt lat="59.0960383415" lon="30.0059580803"><time>2026-04-22T08:41:58Z</time></trkpt><trkpt lat="59.0961027145" lon="30.0059151649"><time>2026-04-22T08:42:00Z</time></trkpt><trkpt lat="59.0961027145" lon="30.0059151649"><time>2026-04-22T08:42:03Z</time></trkpt><trkpt lat="59.0961027145" lon="30.0059151649"><time>2026-04-22T08:42:05Z</time></trkpt><trkpt lat="59.0961027145" lon="30.0059151649"><time>2026-04-22T08:42:08Z</time></trkpt><trkpt lat="59.0961456299" lon="30.0059151649"><time>2026-04-22T08:42:10Z</time></trkpt><trkpt lat="59.0961885452" lon="30.0058937073"><time>2026-04-22T08:42:13Z</time></trkpt><trkpt lat="59.0962529182" lon="30.0058507919"><time>2026-04-22T08:42:15Z</time></trkpt><trkpt lat="59.0962958336" lon="30.0058293343"><time>2026-04-22T08:42:18Z</time></trkpt><trkpt lat="59.0963816643" lon="30.0058078766"><time>2026-04-22T08:42:20Z</time></trkpt><trkpt lat="59.0964031219" lon="30.0057864189"><time>2026-04-22T08:42:23Z</time></trkpt><trkpt lat="59.0963816643" lon="30.0057864189"><time>2026-04-22T08:42:25Z</time></trkpt><trkpt lat="59.0963387489" lon="30.0058078766"><time>2026-04-22T08:42:28Z</time></trkpt><trkpt lat="59.0962958336" lon="30.0057435036"><time>2026-04-22T08:42:30Z</time></trkpt><trkpt lat="59.0962958336" lon="30.0056576729"><time>2026-04-22T08:42:33Z</time></trkpt><trkpt lat="59.0963172913" lon="30.0055503845"><time>2026-04-22T08:42:35Z</time></trkpt><trkpt lat="59.0963387489" lon="30.0055503845"><time>2026-04-22T08:42:38Z</time></trkpt><trkpt lat="59.0963387489" lon="30.0055503845"><time>2026-04-22T08:42:40Z</time></trkpt><trkpt lat="59.0963387489" lon="30.0055503845"><time>2026-04-22T08:42:43Z</time></trkpt><trkpt lat="59.0963602066" lon="30.0055932999"><time>2026-04-22T08:42:45Z</time></trkpt><trkpt lat="59.0964031219" lon="30.0056791306"><time>2026-04-22T08:42:48Z</time></trkpt><trkpt lat="59.0964674950" lon="30.0057649612"><time>2026-04-22T08:42:50Z</time></trkpt><trkpt lat="59.0965104103" lon="30.0057435036"><time>2026-04-22T08:42:53Z</time></trkpt><trkpt lat="59.0965962410" lon="30.0057220459"><time>2026-04-22T08:42:55Z</time></trkpt><trkpt lat="59.0966391563" lon="30.0057220459"><time>2026-04-22T08:42:58Z</time></trkpt><trkpt lat="59.0967035294" lon="30.0056791306"><time>2026-04-22T08:43:00Z</time></trkpt><trkpt lat="59.0967035294" lon="30.0056791306"><time>2026-04-22T08:43:03Z</time></trkpt><trkpt lat="59.0967035294" lon="30.0056791306"><time>2026-04-22T08:43:05Z</time></trkpt><trkpt lat="59.0967035294" lon="30.0056791306"><time>2026-04-22T08:43:08Z</time></trkpt><trkpt lat="59.0967249870" lon="30.0056576729"><time>2026-04-22T08:43:10Z</time></trkpt><trkpt lat="59.0967249870" lon="30.0056576729"><time>2026-04-22T08:43:13Z</time></trkpt><trkpt lat="59.0967249870" lon="30.0056576729"><time>2026-04-22T08:43:15Z</time></trkpt><trkpt lat="59.0967249870" lon="30.0056576729"><time>2026-04-22T08:43:18Z</time></trkpt><trkpt lat="59.0967249870" lon="30.0056576729"><time>2026-04-22T08:43:20Z</time></trkpt><trkpt lat="59.0967464447" lon="30.0056576729"><time>2026-04-22T08:43:23Z</time></trkpt><trkpt lat="59.0968751907" lon="30.0055932999"><time>2026-04-22T08:43:25Z</time></trkpt><trkpt lat="59.0969395638" lon="30.0055503845"><time>2026-04-22T08:43:28Z</time></trkpt><trkpt lat="59.0969395638" lon="30.0055503845"><time>2026-04-22T08:43:30Z</time></trkpt><trkpt lat="59.0969395638" lon="30.0055503845"><time>2026-04-22T08:43:33Z</time></trkpt><trkpt lat="59.0969395638" lon="30.0055503845"><time>2026-04-22T08:43:35Z</time></trkpt><trkpt lat="59.0969395638" lon="30.0055503845"><time>2026-04-22T08:43:38Z</time></trkpt><trkpt lat="59.0969824791" lon="30.0055289268"><time>2026-04-22T08:43:40Z</time></trkpt><trkpt lat="59.0970253944" lon="30.0055074692"><time>2026-04-22T08:43:43Z</time></trkpt><trkpt lat="59.0970683098" lon="30.0054430962"><time>2026-04-22T08:43:45Z</time></trkpt><trkpt lat="59.0971112251" lon="30.0054430962"><time>2026-04-22T08:43:48Z</time></trkpt><trkpt lat="59.0971541405" lon="30.0055074692"><time>2026-04-22T08:43:50Z</time></trkpt><trkpt lat="59.0971541405" lon="30.0055074692"><time>2026-04-22T08:43:53Z</time></trkpt><trkpt lat="59.0971326828" lon="30.0055289268"><time>2026-04-22T08:43:55Z</time></trkpt><trkpt lat="59.0971326828" lon="30.0055289268"><time>2026-04-22T08:43:58Z</time></trkpt><trkpt lat="59.0971326828" lon="30.0055289268"><time>2026-04-22T08:44:00Z</time></trkpt><trkpt lat="59.0971326828" lon="30.0055289268"><time>2026-04-22T08:44:03Z</time></trkpt><trkpt lat="59.0971755981" lon="30.0054430962"><time>2026-04-22T08:44:05Z</time></trkpt><trkpt lat="59.0972399712" lon="30.0053787231"><time>2026-04-22T08:44:08Z</time></trkpt><trkpt lat="59.0973258018" lon="30.0053572655"><time>2026-04-22T08:44:10Z</time></trkpt><trkpt lat="59.0973258018" lon="30.0053572655"><time>2026-04-22T08:44:13Z</time></trkpt><trkpt lat="59.0973687172" lon="30.0053358078"><time>2026-04-22T08:44:15Z</time></trkpt><trkpt lat="59.0974116325" lon="30.0052928925"><time>2026-04-22T08:44:18Z</time></trkpt><trkpt lat="59.0974330902" lon="30.0052928925"><time>2026-04-22T08:44:20Z</time></trkpt><trkpt lat="59.0974330902" lon="30.0052928925"><time>2026-04-22T08:44:23Z</time></trkpt><trkpt lat="59.0974330902" lon="30.0052714348"><time>2026-04-22T08:44:25Z</time></trkpt><trkpt lat="59.0974330902" lon="30.0052714348"><time>2026-04-22T08:44:28Z</time></trkpt><trkpt lat="59.0974330902" lon="30.0052714348"><time>2026-04-22T08:44:30Z</time></trkpt><trkpt lat="59.0974330902" lon="30.0052714348"><time>2026-04-22T08:44:33Z</time></trkpt><trkpt lat="59.0974330902" lon="30.0052714348"><time>2026-04-22T08:44:35Z</time></trkpt><trkpt lat="59.0974545479" lon="30.0052714348"><time>2026-04-22T08:44:38Z</time></trkpt><trkpt lat="59.0975618362" lon="30.0052499771"><time>2026-04-22T08:44:40Z</time></trkpt><trkpt lat="59.0976262093" lon="30.0051856041"><time>2026-04-22T08:44:43Z</time></trkpt><trkpt lat="59.0976905823" lon="30.0051641464"><time>2026-04-22T08:44:45Z</time></trkpt><trkpt lat="59.0977120399" lon="30.0051856041"><time>2026-04-22T08:44:48Z</time></trkpt><trkpt lat="59.0977120399" lon="30.0051856041"><time>2026-04-22T08:44:50Z</time></trkpt><trkpt lat="59.0977334976" lon="30.0051641464"><time>2026-04-22T08:44:53Z</time></trkpt><trkpt lat="59.0977978706" lon="30.0051212311"><time>2026-04-22T08:44:55Z</time></trkpt><trkpt lat="59.0978193283" lon="30.0050997734"><time>2026-04-22T08:44:58Z</time></trkpt><trkpt lat="59.0977978706" lon="30.0049924850"><time>2026-04-22T08:45:00Z</time></trkpt><trkpt lat="59.0977764130" lon="30.0049281120"><time>2026-04-22T08:45:03Z</time></trkpt><trkpt lat="59.0977549553" lon="30.0048851967"><time>2026-04-22T08:45:05Z</time></trkpt><trkpt lat="59.0977549553" lon="30.0048637390"><time>2026-04-22T08:45:08Z</time></trkpt><trkpt lat="59.0977978706" lon="30.0049924850"><time>2026-04-22T08:45:10Z</time></trkpt><trkpt lat="59.0978193283" lon="30.0050568581"><time>2026-04-22T08:45:13Z</time></trkpt><trkpt lat="59.0978837013" lon="30.0050568581"><time>2026-04-22T08:45:15Z</time></trkpt><trkpt lat="59.0979051590" lon="30.0050568581"><time>2026-04-22T08:45:18Z</time></trkpt><trkpt lat="59.0979695320" lon="30.0050568581"><time>2026-04-22T08:45:20Z</time></trkpt><trkpt lat="59.0979695320" lon="30.0050354004"><time>2026-04-22T08:45:23Z</time></trkpt><trkpt lat="59.0979695320" lon="30.0049495697"><time>2026-04-22T08:45:25Z</time></trkpt><trkpt lat="59.0979695320" lon="30.0048851967"><time>2026-04-22T08:45:28Z</time></trkpt><trkpt lat="59.0979695320" lon="30.0048851967"><time>2026-04-22T08:45:30Z</time></trkpt><trkpt lat="59.0979695320" lon="30.0048851967"><time>2026-04-22T08:45:33Z</time></trkpt><trkpt lat="59.0979695320" lon="30.0048851967"><time>2026-04-22T08:45:35Z</time></trkpt><trkpt lat="59.0979695320" lon="30.0048851967"><time>2026-04-22T08:45:38Z</time></trkpt><trkpt lat="59.0979909897" lon="30.0048851967"><time>2026-04-22T08:45:40Z</time></trkpt><trkpt lat="59.0980124474" lon="30.0048637390"><time>2026-04-22T08:45:43Z</time></trkpt><trkpt lat="59.0980768204" lon="30.0048422813"><time>2026-04-22T08:45:45Z</time></trkpt><trkpt lat="59.0980982780" lon="30.0048208237"><time>2026-04-22T08:45:48Z</time></trkpt><trkpt lat="59.0980982780" lon="30.0047993660"><time>2026-04-22T08:45:50Z</time></trkpt><trkpt lat="59.0981197357" lon="30.0047349930"><time>2026-04-22T08:45:53Z</time></trkpt><trkpt lat="59.0981197357" lon="30.0047135353"><time>2026-04-22T08:45:55Z</time></trkpt><trkpt lat="59.0981197357" lon="30.0047135353"><time>2026-04-22T08:45:58Z</time></trkpt><trkpt lat="59.0981197357" lon="30.0047135353"><time>2026-04-22T08:46:00Z</time></trkpt><trkpt lat="59.0981197357" lon="30.0047135353"><time>2026-04-22T08:46:03Z</time></trkpt><trkpt lat="59.0981197357" lon="30.0047135353"><time>2026-04-22T08:46:05Z</time></trkpt><trkpt lat="59.0981197357" lon="30.0047135353"><time>2026-04-22T08:46:08Z</time></trkpt><trkpt lat="59.0981411934" lon="30.0047135353"><time>2026-04-22T08:46:10Z</time></trkpt><trkpt lat="59.0981411934" lon="30.0046920776"><time>2026-04-22T08:46:13Z</time></trkpt><trkpt lat="59.0981626511" lon="30.0047135353"><time>2026-04-22T08:46:15Z</time></trkpt><trkpt lat="59.0981626511" lon="30.0047135353"><time>2026-04-22T08:46:18Z</time></trkpt><trkpt lat="59.0981626511" lon="30.0047135353"><time>2026-04-22T08:46:20Z</time></trkpt><trkpt lat="59.0981841087" lon="30.0047135353"><time>2026-04-22T08:46:23Z</time></trkpt><trkpt lat="59.0981841087" lon="30.0047135353"><time>2026-04-22T08:46:25Z</time></trkpt><trkpt lat="59.0981841087" lon="30.0047135353"><time>2026-04-22T08:46:28Z</time></trkpt><trkpt lat="59.0981841087" lon="30.0047135353"><time>2026-04-22T08:46:30Z</time></trkpt><trkpt lat="59.0981841087" lon="30.0047135353"><time>2026-04-22T08:46:33Z</time></trkpt><trkpt lat="59.0981841087" lon="30.0047135353"><time>2026-04-22T08:46:35Z</time></trkpt><trkpt lat="59.0981841087" lon="30.0047135353"><time>2026-04-22T08:46:38Z</time></trkpt><trkpt lat="59.0981841087" lon="30.0047135353"><time>2026-04-22T08:46:40Z</time></trkpt><trkpt lat="59.0981841087" lon="30.0047135353"><time>2026-04-22T08:46:43Z</time></trkpt><trkpt lat="59.0981841087" lon="30.0047135353"><time>2026-04-22T08:46:45Z</time></trkpt><trkpt lat="59.0981841087" lon="30.0047135353"><time>2026-04-22T08:46:48Z</time></trkpt><trkpt lat="59.0981841087" lon="30.0047135353"><time>2026-04-22T08:46:50Z</time></trkpt><trkpt lat="59.0981841087" lon="30.0047135353"><time>2026-04-22T08:46:53Z</time></trkpt><trkpt lat="59.0981841087" lon="30.0047135353"><time>2026-04-22T08:46:55Z</time></trkpt><trkpt lat="59.0981841087" lon="30.0047135353"><time>2026-04-22T08:46:58Z</time></trkpt><trkpt lat="59.0981841087" lon="30.0047135353"><time>2026-04-22T08:47:00Z</time></trkpt><trkpt lat="59.0981841087" lon="30.0047135353"><time>2026-04-22T08:47:03Z</time></trkpt><trkpt lat="59.0981841087" lon="30.0047135353"><time>2026-04-22T08:47:05Z</time></trkpt><trkpt lat="59.0981841087" lon="30.0047135353"><time>2026-04-22T08:47:08Z</time></trkpt><trkpt lat="59.0981841087" lon="30.0047135353"><time>2026-04-22T08:47:10Z</time></trkpt><trkpt lat="59.0981841087" lon="30.0046491623"><time>2026-04-22T08:47:13Z</time></trkpt><trkpt lat="59.0981841087" lon="30.0046491623"><time>2026-04-22T08:47:15Z</time></trkpt><trkpt lat="59.0981841087" lon="30.0046491623"><time>2026-04-22T08:47:18Z</time></trkpt><trkpt lat="59.0981841087" lon="30.0046062469"><time>2026-04-22T08:47:20Z</time></trkpt><trkpt lat="59.0981626511" lon="30.0045418739"><time>2026-04-22T08:47:23Z</time></trkpt><trkpt lat="59.0981626511" lon="30.0045418739"><time>2026-04-22T08:47:25Z</time></trkpt><trkpt lat="59.0981626511" lon="30.0045418739"><time>2026-04-22T08:47:28Z</time></trkpt><trkpt lat="59.0981626511" lon="30.0045418739"><time>2026-04-22T08:47:30Z</time></trkpt><trkpt lat="59.0981626511" lon="30.0045418739"><time>2026-04-22T08:47:33Z</time></trkpt><trkpt lat="59.0981197357" lon="30.0044560432"><time>2026-04-22T08:47:35Z</time></trkpt><trkpt lat="59.0980768204" lon="30.0043702126"><time>2026-04-22T08:47:38Z</time></trkpt><trkpt lat="59.0980124474" lon="30.0043058395"><time>2026-04-22T08:47:40Z</time></trkpt><trkpt lat="59.0980124474" lon="30.0043058395"><time>2026-04-22T08:47:43Z</time></trkpt><trkpt lat="59.0980339050" lon="30.0042414665"><time>2026-04-22T08:47:45Z</time></trkpt><trkpt lat="59.0980553627" lon="30.0041556358"><time>2026-04-22T08:47:48Z</time></trkpt><trkpt lat="59.0980553627" lon="30.0040698051"><time>2026-04-22T08:47:50Z</time></trkpt><trkpt lat="59.0980553627" lon="30.0040268898"><time>2026-04-22T08:47:53Z</time></trkpt><trkpt lat="59.0980553627" lon="30.0040268898"><time>2026-04-22T08:47:55Z</time></trkpt><trkpt lat="59.0980553627" lon="30.0039839745"><time>2026-04-22T08:47:58Z</time></trkpt><trkpt lat="59.0980553627" lon="30.0038552284"><time>2026-04-22T08:48:00Z</time></trkpt><trkpt lat="59.0980339050" lon="30.0037908554"><time>2026-04-22T08:48:03Z</time></trkpt><trkpt lat="59.0980553627" lon="30.0037479401"><time>2026-04-22T08:48:05Z</time></trkpt><trkpt lat="59.0980768204" lon="30.0036621094"><time>2026-04-22T08:48:08Z</time></trkpt><trkpt lat="59.0980768204" lon="30.0035548210"><time>2026-04-22T08:48:10Z</time></trkpt><trkpt lat="59.0980768204" lon="30.0034904480"><time>2026-04-22T08:48:13Z</time></trkpt><trkpt lat="59.0980982780" lon="30.0034904480"><time>2026-04-22T08:48:15Z</time></trkpt><trkpt lat="59.0981197357" lon="30.0034904480"><time>2026-04-22T08:48:18Z</time></trkpt><trkpt lat="59.0981197357" lon="30.0034904480"><time>2026-04-22T08:48:20Z</time></trkpt><trkpt lat="59.0981197357" lon="30.0034904480"><time>2026-04-22T08:48:23Z</time></trkpt><trkpt lat="59.0981197357" lon="30.0034904480"><time>2026-04-22T08:48:25Z</time></trkpt><trkpt lat="59.0981197357" lon="30.0034904480"><time>2026-04-22T08:48:28Z</time></trkpt><trkpt lat="59.0980982780" lon="30.0034904480"><time>2026-04-22T08:48:30Z</time></trkpt><trkpt lat="59.0980339050" lon="30.0034904480"><time>2026-04-22T08:48:33Z</time></trkpt><trkpt lat="59.0979909897" lon="30.0035977364"><time>2026-04-22T08:48:35Z</time></trkpt><trkpt lat="59.0979695320" lon="30.0036406517"><time>2026-04-22T08:48:38Z</time></trkpt><trkpt lat="59.0979480743" lon="30.0035762787"><time>2026-04-22T08:48:40Z</time></trkpt><trkpt lat="59.0979051590" lon="30.0035548210"><time>2026-04-22T08:48:43Z</time></trkpt><trkpt lat="59.0978622437" lon="30.0035548210"><time>2026-04-22T08:48:45Z</time></trkpt><trkpt lat="59.0978407860" lon="30.0035548210"><time>2026-04-22T08:48:48Z</time></trkpt><trkpt lat="59.0978193283" lon="30.0035762787"><time>2026-04-22T08:48:50Z</time></trkpt><trkpt lat="59.0977978706" lon="30.0035762787"><time>2026-04-22T08:48:53Z</time></trkpt><trkpt lat="59.0977549553" lon="30.0036191940"><time>2026-04-22T08:48:55Z</time></trkpt><trkpt lat="59.0977334976" lon="30.0036621094"><time>2026-04-22T08:48:58Z</time></trkpt><trkpt lat="59.0977120399" lon="30.0036835670"><time>2026-04-22T08:49:00Z</time></trkpt><trkpt lat="59.0977120399" lon="30.0036835670"><time>2026-04-22T08:49:03Z</time></trkpt><trkpt lat="59.0977120399" lon="30.0036406517"><time>2026-04-22T08:49:05Z</time></trkpt><trkpt lat="59.0976905823" lon="30.0036191940"><time>2026-04-22T08:49:08Z</time></trkpt><trkpt lat="59.0977120399" lon="30.0035977364"><time>2026-04-22T08:49:10Z</time></trkpt><trkpt lat="59.0977120399" lon="30.0035762787"><time>2026-04-22T08:49:13Z</time></trkpt><trkpt lat="59.0976905823" lon="30.0035762787"><time>2026-04-22T08:49:15Z</time></trkpt><trkpt lat="59.0976905823" lon="30.0035548210"><time>2026-04-22T08:49:18Z</time></trkpt><trkpt lat="59.0976905823" lon="30.0035548210"><time>2026-04-22T08:49:20Z</time></trkpt><trkpt lat="59.0976905823" lon="30.0035762787"><time>2026-04-22T08:49:23Z</time></trkpt><trkpt lat="59.0977334976" lon="30.0036406517"><time>2026-04-22T08:49:25Z</time></trkpt><trkpt lat="59.0977978706" lon="30.0036406517"><time>2026-04-22T08:49:28Z</time></trkpt><trkpt lat="59.0978193283" lon="30.0036406517"><time>2026-04-22T08:49:30Z</time></trkpt><trkpt lat="59.0978193283" lon="30.0036406517"><time>2026-04-22T08:49:33Z</time></trkpt><trkpt lat="59.0978193283" lon="30.0036406517"><time>2026-04-22T08:49:35Z</time></trkpt><trkpt lat="59.0977978706" lon="30.0036406517"><time>2026-04-22T08:49:38Z</time></trkpt><trkpt lat="59.0977549553" lon="30.0037050247"><time>2026-04-22T08:49:40Z</time></trkpt><trkpt lat="59.0977549553" lon="30.0037479401"><time>2026-04-22T08:49:43Z</time></trkpt><trkpt lat="59.0977549553" lon="30.0037693977"><time>2026-04-22T08:49:45Z</time></trkpt><trkpt lat="59.0977549553" lon="30.0038123131"><time>2026-04-22T08:49:48Z</time></trkpt><trkpt lat="59.0977549553" lon="30.0038766861"><time>2026-04-22T08:49:50Z</time></trkpt><trkpt lat="59.0977334976" lon="30.0038981438"><time>2026-04-22T08:49:53Z</time></trkpt><trkpt lat="59.0977120399" lon="30.0038552284"><time>2026-04-22T08:49:55Z</time></trkpt><trkpt lat="59.0976691246" lon="30.0038337708"><time>2026-04-22T08:49:58Z</time></trkpt><trkpt lat="59.0976476669" lon="30.0038552284"><time>2026-04-22T08:50:00Z</time></trkpt><trkpt lat="59.0976262093" lon="30.0038766861"><time>2026-04-22T08:50:03Z</time></trkpt><trkpt lat="59.0976262093" lon="30.0040054321"><time>2026-04-22T08:50:05Z</time></trkpt><trkpt lat="59.0976262093" lon="30.0040698051"><time>2026-04-22T08:50:08Z</time></trkpt><trkpt lat="59.0976262093" lon="30.0041770935"><time>2026-04-22T08:50:10Z</time></trkpt><trkpt lat="59.0976262093" lon="30.0041770935"><time>2026-04-22T08:50:13Z</time></trkpt><trkpt lat="59.0976262093" lon="30.0041770935"><time>2026-04-22T08:50:15Z</time></trkpt><trkpt lat="59.0976262093" lon="30.0041770935"><time>2026-04-22T08:50:18Z</time></trkpt><trkpt lat="59.0975832939" lon="30.0041341782"><time>2026-04-22T08:50:20Z</time></trkpt><trkpt lat="59.0975618362" lon="30.0041341782"><time>2026-04-22T08:50:23Z</time></trkpt><trkpt lat="59.0975618362" lon="30.0042200089"><time>2026-04-22T08:50:25Z</time></trkpt><trkpt lat="59.0975618362" lon="30.0042629242"><time>2026-04-22T08:50:28Z</time></trkpt><trkpt lat="59.0975189209" lon="30.0043058395"><time>2026-04-22T08:50:30Z</time></trkpt><trkpt lat="59.0974974632" lon="30.0043058395"><time>2026-04-22T08:50:33Z</time></trkpt><trkpt lat="59.0974974632" lon="30.0043058395"><time>2026-04-22T08:50:35Z</time></trkpt><trkpt lat="59.0974974632" lon="30.0043058395"><time>2026-04-22T08:50:38Z</time></trkpt><trkpt lat="59.0974974632" lon="30.0043058395"><time>2026-04-22T08:50:40Z</time></trkpt><trkpt lat="59.0974974632" lon="30.0043058395"><time>2026-04-22T08:50:43Z</time></trkpt><trkpt lat="59.0974974632" lon="30.0043058395"><time>2026-04-22T08:50:45Z</time></trkpt><trkpt lat="59.0974974632" lon="30.0043058395"><time>2026-04-22T08:50:48Z</time></trkpt><trkpt lat="59.0974974632" lon="30.0043058395"><time>2026-04-22T08:50:50Z</time></trkpt><trkpt lat="59.0975189209" lon="30.0043058395"><time>2026-04-22T08:50:53Z</time></trkpt><trkpt lat="59.0975189209" lon="30.0043058395"><time>2026-04-22T08:50:55Z</time></trkpt><trkpt lat="59.0975189209" lon="30.0043058395"><time>2026-04-22T08:50:58Z</time></trkpt><trkpt lat="59.0975189209" lon="30.0043058395"><time>2026-04-22T08:51:00Z</time></trkpt><trkpt lat="59.0975189209" lon="30.0043058395"><time>2026-04-22T08:51:03Z</time></trkpt><trkpt lat="59.0975189209" lon="30.0043058395"><time>2026-04-22T08:51:05Z</time></trkpt><trkpt lat="59.0975189209" lon="30.0043058395"><time>2026-04-22T08:51:08Z</time></trkpt><trkpt lat="59.0975189209" lon="30.0043058395"><time>2026-04-22T08:51:10Z</time></trkpt><trkpt lat="59.0975189209" lon="30.0043058395"><time>2026-04-22T08:51:13Z</time></trkpt><trkpt lat="59.0974974632" lon="30.0043058395"><time>2026-04-22T08:51:15Z</time></trkpt><trkpt lat="59.0974974632" lon="30.0043272972"><time>2026-04-22T08:51:18Z</time></trkpt><trkpt lat="59.0974760056" lon="30.0043487549"><time>2026-04-22T08:51:20Z</time></trkpt><trkpt lat="59.0974760056" lon="30.0043487549"><time>2026-04-22T08:51:23Z</time></trkpt><trkpt lat="59.0974760056" lon="30.0043272972"><time>2026-04-22T08:51:25Z</time></trkpt><trkpt lat="59.0974545479" lon="30.0042629242"><time>2026-04-22T08:51:28Z</time></trkpt><trkpt lat="59.0974545479" lon="30.0041770935"><time>2026-04-22T08:51:30Z</time></trkpt><trkpt lat="59.0974760056" lon="30.0041127205"><time>2026-04-22T08:51:33Z</time></trkpt><trkpt lat="59.0974760056" lon="30.0040268898"><time>2026-04-22T08:51:35Z</time></trkpt><trkpt lat="59.0974760056" lon="30.0039839745"><time>2026-04-22T08:51:38Z</time></trkpt><trkpt lat="59.0974974632" lon="30.0039410591"><time>2026-04-22T08:51:40Z</time></trkpt><trkpt lat="59.0974974632" lon="30.0038766861"><time>2026-04-22T08:51:43Z</time></trkpt><trkpt lat="59.0974974632" lon="30.0038337708"><time>2026-04-22T08:51:45Z</time></trkpt><trkpt lat="59.0974974632" lon="30.0037908554"><time>2026-04-22T08:51:48Z</time></trkpt><trkpt lat="59.0974974632" lon="30.0038123131"><time>2026-04-22T08:51:50Z</time></trkpt><trkpt lat="59.0974760056" lon="30.0038552284"><time>2026-04-22T08:51:53Z</time></trkpt><trkpt lat="59.0974760056" lon="30.0038766861"><time>2026-04-22T08:51:55Z</time></trkpt><trkpt lat="59.0974760056" lon="30.0038766861"><time>2026-04-22T08:51:58Z</time></trkpt><trkpt lat="59.0974330902" lon="30.0039410591"><time>2026-04-22T08:52:00Z</time></trkpt><trkpt lat="59.0974116325" lon="30.0039625168"><time>2026-04-22T08:52:03Z</time></trkpt><trkpt lat="59.0973687172" lon="30.0039839745"><time>2026-04-22T08:52:05Z</time></trkpt><trkpt lat="59.0973258018" lon="30.0039625168"><time>2026-04-22T08:52:08Z</time></trkpt><trkpt lat="59.0972828865" lon="30.0038981438"><time>2026-04-22T08:52:10Z</time></trkpt><trkpt lat="59.0972828865" lon="30.0038981438"><time>2026-04-22T08:52:13Z</time></trkpt><trkpt lat="59.0972614288" lon="30.0039839745"><time>2026-04-22T08:52:15Z</time></trkpt><trkpt lat="59.0972399712" lon="30.0040268898"><time>2026-04-22T08:52:18Z</time></trkpt><trkpt lat="59.0971970558" lon="30.0040483475"><time>2026-04-22T08:52:20Z</time></trkpt><trkpt lat="59.0971755981" lon="30.0040483475"><time>2026-04-22T08:52:23Z</time></trkpt><trkpt lat="59.0971755981" lon="30.0040483475"><time>2026-04-22T08:52:25Z</time></trkpt><trkpt lat="59.0971970558" lon="30.0040912628"><time>2026-04-22T08:52:28Z</time></trkpt><trkpt lat="59.0971970558" lon="30.0041556358"><time>2026-04-22T08:52:30Z</time></trkpt><trkpt lat="59.0971970558" lon="30.0041770935"><time>2026-04-22T08:52:33Z</time></trkpt><trkpt lat="59.0971541405" lon="30.0041556358"><time>2026-04-22T08:52:35Z</time></trkpt><trkpt lat="59.0971326828" lon="30.0041341782"><time>2026-04-22T08:52:38Z</time></trkpt><trkpt lat="59.0970897675" lon="30.0040912628"><time>2026-04-22T08:52:40Z</time></trkpt><trkpt lat="59.0970897675" lon="30.0040698051"><time>2026-04-22T08:52:43Z</time></trkpt><trkpt lat="59.0970468521" lon="30.0040698051"><time>2026-04-22T08:52:45Z</time></trkpt><trkpt lat="59.0970468521" lon="30.0040268898"><time>2026-04-22T08:52:48Z</time></trkpt><trkpt lat="59.0970468521" lon="30.0040054321"><time>2026-04-22T08:52:50Z</time></trkpt><trkpt lat="59.0970468521" lon="30.0040054321"><time>2026-04-22T08:52:53Z</time></trkpt><trkpt lat="59.0970253944" lon="30.0040268898"><time>2026-04-22T08:52:55Z</time></trkpt><trkpt lat="59.0970253944" lon="30.0040268898"><time>2026-04-22T08:52:58Z</time></trkpt><trkpt lat="59.0970253944" lon="30.0040483475"><time>2026-04-22T08:53:00Z</time></trkpt><trkpt lat="59.0970039368" lon="30.0041127205"><time>2026-04-22T08:53:03Z</time></trkpt><trkpt lat="59.0969824791" lon="30.0041556358"><time>2026-04-22T08:53:05Z</time></trkpt><trkpt lat="59.0969824791" lon="30.0041985512"><time>2026-04-22T08:53:08Z</time></trkpt><trkpt lat="59.0969395638" lon="30.0042629242"><time>2026-04-22T08:53:10Z</time></trkpt><trkpt lat="59.0968966484" lon="30.0042843819"><time>2026-04-22T08:53:13Z</time></trkpt><trkpt lat="59.0968537331" lon="30.0043058395"><time>2026-04-22T08:53:15Z</time></trkpt><trkpt lat="59.0968322754" lon="30.0043272972"><time>2026-04-22T08:53:18Z</time></trkpt><trkpt lat="59.0967893600" lon="30.0043272972"><time>2026-04-22T08:53:20Z</time></trkpt><trkpt lat="59.0967464447" lon="30.0043487549"><time>2026-04-22T08:53:23Z</time></trkpt><trkpt lat="59.0967035294" lon="30.0043272972"><time>2026-04-22T08:53:25Z</time></trkpt><trkpt lat="59.0967035294" lon="30.0043272972"><time>2026-04-22T08:53:28Z</time></trkpt><trkpt lat="59.0967035294" lon="30.0043272972"><time>2026-04-22T08:53:30Z</time></trkpt><trkpt lat="59.0967035294" lon="30.0043272972"><time>2026-04-22T08:53:33Z</time></trkpt><trkpt lat="59.0966820717" lon="30.0043487549"><time>2026-04-22T08:53:35Z</time></trkpt><trkpt lat="59.0966606140" lon="30.0043916702"><time>2026-04-22T08:53:38Z</time></trkpt><trkpt lat="59.0965962410" lon="30.0044775009"><time>2026-04-22T08:53:40Z</time></trkpt><trkpt lat="59.0965747833" lon="30.0045204163"><time>2026-04-22T08:53:43Z</time></trkpt><trkpt lat="59.0965962410" lon="30.0046062469"><time>2026-04-22T08:53:45Z</time></trkpt><trkpt lat="59.0965962410" lon="30.0046277046"><time>2026-04-22T08:53:48Z</time></trkpt><trkpt lat="59.0965962410" lon="30.0047135353"><time>2026-04-22T08:53:50Z</time></trkpt><trkpt lat="59.0966176987" lon="30.0047779083"><time>2026-04-22T08:53:53Z</time></trkpt><trkpt lat="59.0966391563" lon="30.0048422813"><time>2026-04-22T08:53:55Z</time></trkpt><trkpt lat="59.0966391563" lon="30.0048422813"><time>2026-04-22T08:53:58Z</time></trkpt><trkpt lat="59.0966391563" lon="30.0048208237"><time>2026-04-22T08:54:00Z</time></trkpt><trkpt lat="59.0966176987" lon="30.0047135353"><time>2026-04-22T08:54:03Z</time></trkpt><trkpt lat="59.0965747833" lon="30.0046277046"><time>2026-04-22T08:54:05Z</time></trkpt><trkpt lat="59.0965747833" lon="30.0046277046"><time>2026-04-22T08:54:08Z</time></trkpt><trkpt lat="59.0965747833" lon="30.0046277046"><time>2026-04-22T08:54:10Z</time></trkpt><trkpt lat="59.0965747833" lon="30.0046277046"><time>2026-04-22T08:54:13Z</time></trkpt><trkpt lat="59.0965104103" lon="30.0046491623"><time>2026-04-22T08:54:15Z</time></trkpt><trkpt lat="59.0964889526" lon="30.0046491623"><time>2026-04-22T08:54:18Z</time></trkpt><trkpt lat="59.0964674950" lon="30.0046277046"><time>2026-04-22T08:54:20Z</time></trkpt><trkpt lat="59.0964674950" lon="30.0046277046"><time>2026-04-22T08:54:23Z</time></trkpt><trkpt lat="59.0964674950" lon="30.0046277046"><time>2026-04-22T08:54:25Z</time></trkpt><trkpt lat="59.0964674950" lon="30.0046277046"><time>2026-04-22T08:54:28Z</time></trkpt><trkpt lat="59.0964674950" lon="30.0046277046"><time>2026-04-22T08:54:30Z</time></trkpt><trkpt lat="59.0964674950" lon="30.0046277046"><time>2026-04-22T08:54:33Z</time></trkpt><trkpt lat="59.0964674950" lon="30.0046277046"><time>2026-04-22T08:54:35Z</time></trkpt><trkpt lat="59.0963602066" lon="30.0046920776"><time>2026-04-22T08:54:40Z</time></trkpt><trkpt lat="59.0963387489" lon="30.0047564507"><time>2026-04-22T08:54:43Z</time></trkpt><trkpt lat="59.0963387489" lon="30.0048637390"><time>2026-04-22T08:54:45Z</time></trkpt><trkpt lat="59.0963172913" lon="30.0049066544"><time>2026-04-22T08:54:48Z</time></trkpt><trkpt lat="59.0962958336" lon="30.0049710274"><time>2026-04-22T08:54:50Z</time></trkpt><trkpt lat="59.0962958336" lon="30.0050139427"><time>2026-04-22T08:54:53Z</time></trkpt><trkpt lat="59.0962529182" lon="30.0050354004"><time>2026-04-22T08:54:55Z</time></trkpt><trkpt lat="59.0962529182" lon="30.0050568581"><time>2026-04-22T08:54:58Z</time></trkpt><trkpt lat="59.0962314606" lon="30.0050568581"><time>2026-04-22T08:55:00Z</time></trkpt><trkpt lat="59.0961885452" lon="30.0050783157"><time>2026-04-22T08:55:03Z</time></trkpt><trkpt lat="59.0961885452" lon="30.0050783157"><time>2026-04-22T08:55:05Z</time></trkpt><trkpt lat="59.0961885452" lon="30.0050783157"><time>2026-04-22T08:55:08Z</time></trkpt><trkpt lat="59.0961885452" lon="30.0050783157"><time>2026-04-22T08:55:10Z</time></trkpt><trkpt lat="59.0961885452" lon="30.0050783157"><time>2026-04-22T08:55:13Z</time></trkpt><trkpt lat="59.0962100029" lon="30.0050783157"><time>2026-04-22T08:55:15Z</time></trkpt><trkpt lat="59.0962100029" lon="30.0050568581"><time>2026-04-22T08:55:18Z</time></trkpt><trkpt lat="59.0962100029" lon="30.0050354004"><time>2026-04-22T08:55:20Z</time></trkpt><trkpt lat="59.0962100029" lon="30.0050354004"><time>2026-04-22T08:55:23Z</time></trkpt><trkpt lat="59.0961885452" lon="30.0050354004"><time>2026-04-22T08:55:25Z</time></trkpt><trkpt lat="59.0961885452" lon="30.0050354004"><time>2026-04-22T08:55:28Z</time></trkpt><trkpt lat="59.0961885452" lon="30.0050139427"><time>2026-04-22T08:55:30Z</time></trkpt><trkpt lat="59.0961885452" lon="30.0050354004"><time>2026-04-22T08:55:33Z</time></trkpt><trkpt lat="59.0961885452" lon="30.0050354004"><time>2026-04-22T08:55:35Z</time></trkpt><trkpt lat="59.0961885452" lon="30.0050354004"><time>2026-04-22T08:55:38Z</time></trkpt><trkpt lat="59.0961670876" lon="30.0050354004"><time>2026-04-22T08:55:40Z</time></trkpt><trkpt lat="59.0961456299" lon="30.0050139427"><time>2026-04-22T08:55:43Z</time></trkpt><trkpt lat="59.0961027145" lon="30.0049710274"><time>2026-04-22T08:55:45Z</time></trkpt><trkpt lat="59.0961027145" lon="30.0049281120"><time>2026-04-22T08:55:48Z</time></trkpt><trkpt lat="59.0960597992" lon="30.0048637390"><time>2026-04-22T08:55:50Z</time></trkpt><trkpt lat="59.0960383415" lon="30.0048422813"><time>2026-04-22T08:55:53Z</time></trkpt><trkpt lat="59.0959954262" lon="30.0048208237"><time>2026-04-22T08:55:55Z</time></trkpt><trkpt lat="59.0959954262" lon="30.0047993660"><time>2026-04-22T08:55:58Z</time></trkpt><trkpt lat="59.0959525108" lon="30.0047779083"><time>2026-04-22T08:56:00Z</time></trkpt><trkpt lat="59.0959310532" lon="30.0047564507"><time>2026-04-22T08:56:03Z</time></trkpt><trkpt lat="59.0959310532" lon="30.0047135353"><time>2026-04-22T08:56:05Z</time></trkpt><trkpt lat="59.0959310532" lon="30.0046706200"><time>2026-04-22T08:56:08Z</time></trkpt><trkpt lat="59.0959525108" lon="30.0046062469"><time>2026-04-22T08:56:10Z</time></trkpt><trkpt lat="59.0959525108" lon="30.0045418739"><time>2026-04-22T08:56:13Z</time></trkpt><trkpt lat="59.0959310532" lon="30.0044775009"><time>2026-04-22T08:56:15Z</time></trkpt><trkpt lat="59.0959310532" lon="30.0044775009"><time>2026-04-22T08:56:18Z</time></trkpt><trkpt lat="59.0959310532" lon="30.0044775009"><time>2026-04-22T08:56:20Z</time></trkpt><trkpt lat="59.0959310532" lon="30.0044775009"><time>2026-04-22T08:56:23Z</time></trkpt><trkpt lat="59.0959310532" lon="30.0044131279"><time>2026-04-22T08:56:25Z</time></trkpt><trkpt lat="59.0959310532" lon="30.0043272972"><time>2026-04-22T08:56:28Z</time></trkpt><trkpt lat="59.0959310532" lon="30.0042629242"><time>2026-04-22T08:56:30Z</time></trkpt><trkpt lat="59.0959310532" lon="30.0041985512"><time>2026-04-22T08:56:33Z</time></trkpt><trkpt lat="59.0959095955" lon="30.0041770935"><time>2026-04-22T08:56:35Z</time></trkpt><trkpt lat="59.0959095955" lon="30.0041770935"><time>2026-04-22T08:56:38Z</time></trkpt><trkpt lat="59.0958881378" lon="30.0041556358"><time>2026-04-22T08:56:40Z</time></trkpt><trkpt lat="59.0958881378" lon="30.0041556358"><time>2026-04-22T08:56:43Z</time></trkpt><trkpt lat="59.0958666801" lon="30.0041556358"><time>2026-04-22T08:56:45Z</time></trkpt><trkpt lat="59.0958666801" lon="30.0041556358"><time>2026-04-22T08:56:48Z</time></trkpt><trkpt lat="59.0958237648" lon="30.0041341782"><time>2026-04-22T08:56:50Z</time></trkpt><trkpt lat="59.0958237648" lon="30.0041341782"><time>2026-04-22T08:56:53Z</time></trkpt><trkpt lat="59.0958237648" lon="30.0040698051"><time>2026-04-22T08:56:55Z</time></trkpt><trkpt lat="59.0958237648" lon="30.0040698051"><time>2026-04-22T08:56:58Z</time></trkpt><trkpt lat="59.0958237648" lon="30.0040698051"><time>2026-04-22T08:57:00Z</time></trkpt><trkpt lat="59.0958237648" lon="30.0040698051"><time>2026-04-22T08:57:03Z</time></trkpt><trkpt lat="59.0958452225" lon="30.0040483475"><time>2026-04-22T08:57:05Z</time></trkpt><trkpt lat="59.0958666801" lon="30.0040483475"><time>2026-04-22T08:57:08Z</time></trkpt><trkpt lat="59.0958666801" lon="30.0040483475"><time>2026-04-22T08:57:10Z</time></trkpt><trkpt lat="59.0958666801" lon="30.0040483475"><time>2026-04-22T08:57:13Z</time></trkpt><trkpt lat="59.0958666801" lon="30.0040483475"><time>2026-04-22T08:57:15Z</time></trkpt><trkpt lat="59.0958666801" lon="30.0040698051"><time>2026-04-22T08:57:18Z</time></trkpt><trkpt lat="59.0959095955" lon="30.0041341782"><time>2026-04-22T08:57:20Z</time></trkpt><trkpt lat="59.0959310532" lon="30.0040912628"><time>2026-04-22T08:57:23Z</time></trkpt><trkpt lat="59.0959739685" lon="30.0040912628"><time>2026-04-22T08:57:25Z</time></trkpt><trkpt lat="59.0960168839" lon="30.0041341782"><time>2026-04-22T08:57:28Z</time></trkpt><trkpt lat="59.0960597992" lon="30.0041341782"><time>2026-04-22T08:57:30Z</time></trkpt><trkpt lat="59.0960597992" lon="30.0041341782"><time>2026-04-22T08:57:33Z</time></trkpt><trkpt lat="59.0960597992" lon="30.0040912628"><time>2026-04-22T08:57:35Z</time></trkpt><trkpt lat="59.0960812569" lon="30.0040483475"><time>2026-04-22T08:57:38Z</time></trkpt><trkpt lat="59.0960812569" lon="30.0040268898"><time>2026-04-22T08:57:40Z</time></trkpt><trkpt lat="59.0960812569" lon="30.0040268898"><time>2026-04-22T08:57:43Z</time></trkpt><trkpt lat="59.0960812569" lon="30.0040268898"><time>2026-04-22T08:57:45Z</time></trkpt><trkpt lat="59.0961027145" lon="30.0040268898"><time>2026-04-22T08:57:48Z</time></trkpt><trkpt lat="59.0961241722" lon="30.0039625168"><time>2026-04-22T08:57:50Z</time></trkpt><trkpt lat="59.0961456299" lon="30.0039410591"><time>2026-04-22T08:57:53Z</time></trkpt><trkpt lat="59.0961456299" lon="30.0038766861"><time>2026-04-22T08:57:55Z</time></trkpt><trkpt lat="59.0961456299" lon="30.0038981438"><time>2026-04-22T08:57:58Z</time></trkpt><trkpt lat="59.0961241722" lon="30.0038981438"><time>2026-04-22T08:58:00Z</time></trkpt><trkpt lat="59.0961456299" lon="30.0038981438"><time>2026-04-22T08:58:03Z</time></trkpt><trkpt lat="59.0961670876" lon="30.0039410591"><time>2026-04-22T08:58:05Z</time></trkpt><trkpt lat="59.0961670876" lon="30.0039410591"><time>2026-04-22T08:58:08Z</time></trkpt><trkpt lat="59.0961885452" lon="30.0039625168"><time>2026-04-22T08:58:10Z</time></trkpt><trkpt lat="59.0962100029" lon="30.0039625168"><time>2026-04-22T08:58:13Z</time></trkpt><trkpt lat="59.0962314606" lon="30.0039196014"><time>2026-04-22T08:58:15Z</time></trkpt><trkpt lat="59.0962743759" lon="30.0038766861"><time>2026-04-22T08:58:18Z</time></trkpt><trkpt lat="59.0962958336" lon="30.0038552284"><time>2026-04-22T08:58:20Z</time></trkpt><trkpt lat="59.0962958336" lon="30.0038337708"><time>2026-04-22T08:58:23Z</time></trkpt><trkpt lat="59.0962958336" lon="30.0038337708"><time>2026-04-22T08:58:25Z</time></trkpt><trkpt lat="59.0962958336" lon="30.0038337708"><time>2026-04-22T08:58:28Z</time></trkpt><trkpt lat="59.0962958336" lon="30.0038337708"><time>2026-04-22T08:58:30Z</time></trkpt><trkpt lat="59.0962958336" lon="30.0038337708"><time>2026-04-22T08:58:33Z</time></trkpt><trkpt lat="59.0963387489" lon="30.0038337708"><time>2026-04-22T08:58:35Z</time></trkpt><trkpt lat="59.0963816643" lon="30.0038123131"><time>2026-04-22T08:58:38Z</time></trkpt><trkpt lat="59.0964031219" lon="30.0037908554"><time>2026-04-22T08:58:40Z</time></trkpt><trkpt lat="59.0964031219" lon="30.0037908554"><time>2026-04-22T08:58:43Z</time></trkpt><trkpt lat="59.0964245796" lon="30.0037479401"><time>2026-04-22T08:58:45Z</time></trkpt><trkpt lat="59.0964460373" lon="30.0037264824"><time>2026-04-22T08:58:48Z</time></trkpt><trkpt lat="59.0964460373" lon="30.0036621094"><time>2026-04-22T08:58:50Z</time></trkpt><trkpt lat="59.0964460373" lon="30.0036621094"><time>2026-04-22T08:58:53Z</time></trkpt><trkpt lat="59.0964674950" lon="30.0035977364"><time>2026-04-22T08:58:55Z</time></trkpt><trkpt lat="59.0964460373" lon="30.0035762787"><time>2026-04-22T08:58:58Z</time></trkpt><trkpt lat="59.0964889526" lon="30.0035333633"><time>2026-04-22T08:59:00Z</time></trkpt><trkpt lat="59.0965104103" lon="30.0035119057"><time>2026-04-22T08:59:03Z</time></trkpt><trkpt lat="59.0965318680" lon="30.0035119057"><time>2026-04-22T08:59:05Z</time></trkpt><trkpt lat="59.0965747833" lon="30.0035333633"><time>2026-04-22T08:59:08Z</time></trkpt><trkpt lat="59.0965962410" lon="30.0035333633"><time>2026-04-22T08:59:10Z</time></trkpt><trkpt lat="59.0966176987" lon="30.0035119057"><time>2026-04-22T08:59:13Z</time></trkpt><trkpt lat="59.0966606140" lon="30.0034904480"><time>2026-04-22T08:59:15Z</time></trkpt><trkpt lat="59.0966820717" lon="30.0034689903"><time>2026-04-22T08:59:18Z</time></trkpt><trkpt lat="59.0967035294" lon="30.0034475327"><time>2026-04-22T08:59:20Z</time></trkpt><trkpt lat="59.0967035294" lon="30.0034475327"><time>2026-04-22T08:59:23Z</time></trkpt><trkpt lat="59.0967035294" lon="30.0033617020"><time>2026-04-22T08:59:25Z</time></trkpt><trkpt lat="59.0967035294" lon="30.0033402443"><time>2026-04-22T08:59:28Z</time></trkpt><trkpt lat="59.0967035294" lon="30.0033187866"><time>2026-04-22T08:59:30Z</time></trkpt><trkpt lat="59.0967035294" lon="30.0032973289"><time>2026-04-22T08:59:33Z</time></trkpt><trkpt lat="59.0967035294" lon="30.0032973289"><time>2026-04-22T08:59:35Z</time></trkpt><trkpt lat="59.0967035294" lon="30.0032758713"><time>2026-04-22T08:59:38Z</time></trkpt><trkpt lat="59.0967035294" lon="30.0032758713"><time>2026-04-22T08:59:40Z</time></trkpt><trkpt lat="59.0967035294" lon="30.0032758713"><time>2026-04-22T08:59:43Z</time></trkpt><trkpt lat="59.0967249870" lon="30.0032329559"><time>2026-04-22T08:59:45Z</time></trkpt><trkpt lat="59.0967249870" lon="30.0032544136"><time>2026-04-22T08:59:48Z</time></trkpt><trkpt lat="59.0967249870" lon="30.0032544136"><time>2026-04-22T08:59:50Z</time></trkpt><trkpt lat="59.0967249870" lon="30.0032544136"><time>2026-04-22T08:59:53Z</time></trkpt><trkpt lat="59.0967249870" lon="30.0032544136"><time>2026-04-22T08:59:55Z</time></trkpt><trkpt lat="59.0967464447" lon="30.0032544136"><time>2026-04-22T08:59:58Z</time></trkpt><trkpt lat="59.0967893600" lon="30.0032329559"><time>2026-04-22T09:00:00Z</time></trkpt><trkpt lat="59.0968108177" lon="30.0032114983"><time>2026-04-22T09:00:03Z</time></trkpt><trkpt lat="59.0968537331" lon="30.0032114983"><time>2026-04-22T09:00:05Z</time></trkpt><trkpt lat="59.0968537331" lon="30.0031900406"><time>2026-04-22T09:00:08Z</time></trkpt><trkpt lat="59.0968751907" lon="30.0031900406"><time>2026-04-22T09:00:10Z</time></trkpt><trkpt lat="59.0968751907" lon="30.0031900406"><time>2026-04-22T09:00:13Z</time></trkpt><trkpt lat="59.0968966484" lon="30.0031685829"><time>2026-04-22T09:00:15Z</time></trkpt><trkpt lat="59.0969181061" lon="30.0031256676"><time>2026-04-22T09:00:18Z</time></trkpt><trkpt lat="59.0969395638" lon="30.0030827522"><time>2026-04-22T09:00:20Z</time></trkpt><trkpt lat="59.0969395638" lon="30.0030398369"><time>2026-04-22T09:00:23Z</time></trkpt><trkpt lat="59.0969610214" lon="30.0030183792"><time>2026-04-22T09:00:25Z</time></trkpt><trkpt lat="59.0969824791" lon="30.0029754639"><time>2026-04-22T09:00:28Z</time></trkpt><trkpt lat="59.0970039368" lon="30.0029540062"><time>2026-04-22T09:00:30Z</time></trkpt><trkpt lat="59.0970039368" lon="30.0029540062"><time>2026-04-22T09:00:33Z</time></trkpt><trkpt lat="59.0970253944" lon="30.0030183792"><time>2026-04-22T09:00:35Z</time></trkpt><trkpt lat="59.0970253944" lon="30.0029969215"><time>2026-04-22T09:00:38Z</time></trkpt><trkpt lat="59.0970468521" lon="30.0029754639"><time>2026-04-22T09:00:40Z</time></trkpt><trkpt lat="59.0970897675" lon="30.0029540062"><time>2026-04-22T09:00:43Z</time></trkpt><trkpt lat="59.0971112251" lon="30.0029325485"><time>2026-04-22T09:00:45Z</time></trkpt><trkpt lat="59.0971112251" lon="30.0029110909"><time>2026-04-22T09:00:48Z</time></trkpt><trkpt lat="59.0971326828" lon="30.0029110909"><time>2026-04-22T09:00:50Z</time></trkpt><trkpt lat="59.0971541405" lon="30.0029110909"><time>2026-04-22T09:00:53Z</time></trkpt><trkpt lat="59.0971755981" lon="30.0028896332"><time>2026-04-22T09:00:55Z</time></trkpt><trkpt lat="59.0971970558" lon="30.0028681755"><time>2026-04-22T09:00:58Z</time></trkpt><trkpt lat="59.0971970558" lon="30.0028038025"><time>2026-04-22T09:01:00Z</time></trkpt><trkpt lat="59.0972185135" lon="30.0027823448"><time>2026-04-22T09:01:03Z</time></trkpt><trkpt lat="59.0972185135" lon="30.0027608871"><time>2026-04-22T09:01:05Z</time></trkpt><trkpt lat="59.0972185135" lon="30.0028038025"><time>2026-04-22T09:01:08Z</time></trkpt><trkpt lat="59.0971970558" lon="30.0028467178"><time>2026-04-22T09:01:10Z</time></trkpt><trkpt lat="59.0971970558" lon="30.0028467178"><time>2026-04-22T09:01:13Z</time></trkpt><trkpt lat="59.0971970558" lon="30.0028681755"><time>2026-04-22T09:01:15Z</time></trkpt><trkpt lat="59.0971970558" lon="30.0028038025"><time>2026-04-22T09:01:18Z</time></trkpt><trkpt lat="59.0972185135" lon="30.0027608871"><time>2026-04-22T09:01:20Z</time></trkpt><trkpt lat="59.0972399712" lon="30.0027394295"><time>2026-04-22T09:01:23Z</time></trkpt><trkpt lat="59.0972614288" lon="30.0027179718"><time>2026-04-22T09:01:25Z</time></trkpt><trkpt lat="59.0972614288" lon="30.0027179718"><time>2026-04-22T09:01:28Z</time></trkpt><trkpt lat="59.0972614288" lon="30.0027179718"><time>2026-04-22T09:01:30Z</time></trkpt><trkpt lat="59.0972614288" lon="30.0026965141"><time>2026-04-22T09:01:33Z</time></trkpt><trkpt lat="59.0973472595" lon="30.0026535988"><time>2026-04-22T09:01:35Z</time></trkpt><trkpt lat="59.0973687172" lon="30.0026321411"><time>2026-04-22T09:01:38Z</time></trkpt><trkpt lat="59.0973901749" lon="30.0026106834"><time>2026-04-22T09:01:40Z</time></trkpt><trkpt lat="59.0973901749" lon="30.0026106834"><time>2026-04-22T09:01:43Z</time></trkpt><trkpt lat="59.0973901749" lon="30.0026106834"><time>2026-04-22T09:01:45Z</time></trkpt><trkpt lat="59.0974330902" lon="30.0025892258"><time>2026-04-22T09:01:48Z</time></trkpt><trkpt lat="59.0974330902" lon="30.0025248528"><time>2026-04-22T09:01:50Z</time></trkpt><trkpt lat="59.0974330902" lon="30.0025033951"><time>2026-04-22T09:01:53Z</time></trkpt><trkpt lat="59.0974545479" lon="30.0025033951"><time>2026-04-22T09:01:55Z</time></trkpt><trkpt lat="59.0974974632" lon="30.0024819374"><time>2026-04-22T09:01:58Z</time></trkpt><trkpt lat="59.0975189209" lon="30.0024390221"><time>2026-04-22T09:02:00Z</time></trkpt><trkpt lat="59.0975403786" lon="30.0023961067"><time>2026-04-22T09:02:03Z</time></trkpt><trkpt lat="59.0975403786" lon="30.0023531914"><time>2026-04-22T09:02:05Z</time></trkpt><trkpt lat="59.0975403786" lon="30.0023531914"><time>2026-04-22T09:02:08Z</time></trkpt><trkpt lat="59.0975403786" lon="30.0023531914"><time>2026-04-22T09:02:10Z</time></trkpt><trkpt lat="59.0975618362" lon="30.0023746490"><time>2026-04-22T09:02:13Z</time></trkpt><trkpt lat="59.0975832939" lon="30.0023746490"><time>2026-04-22T09:02:15Z</time></trkpt><trkpt lat="59.0976262093" lon="30.0023961067"><time>2026-04-22T09:02:18Z</time></trkpt><trkpt lat="59.0976476669" lon="30.0023746490"><time>2026-04-22T09:02:20Z</time></trkpt><trkpt lat="59.0976476669" lon="30.0023746490"><time>2026-04-22T09:02:23Z</time></trkpt><trkpt lat="59.0976476669" lon="30.0023746490"><time>2026-04-22T09:02:25Z</time></trkpt><trkpt lat="59.0976476669" lon="30.0023746490"><time>2026-04-22T09:02:28Z</time></trkpt><trkpt lat="59.0976476669" lon="30.0023746490"><time>2026-04-22T09:02:30Z</time></trkpt><trkpt lat="59.0976691246" lon="30.0023961067"><time>2026-04-22T09:02:33Z</time></trkpt><trkpt lat="59.0976905823" lon="30.0023961067"><time>2026-04-22T09:02:35Z</time></trkpt><trkpt lat="59.0976905823" lon="30.0023961067"><time>2026-04-22T09:02:38Z</time></trkpt><trkpt lat="59.0976905823" lon="30.0023961067"><time>2026-04-22T09:02:40Z</time></trkpt><trkpt lat="59.0977120399" lon="30.0023961067"><time>2026-04-22T09:02:43Z</time></trkpt><trkpt lat="59.0977764130" lon="30.0023746490"><time>2026-04-22T09:02:45Z</time></trkpt><trkpt lat="59.0978407860" lon="30.0023102760"><time>2026-04-22T09:02:48Z</time></trkpt><trkpt lat="59.0978837013" lon="30.0022459030"><time>2026-04-22T09:02:50Z</time></trkpt><trkpt lat="59.0979051590" lon="30.0022244453"><time>2026-04-22T09:02:53Z</time></trkpt><trkpt lat="59.0979051590" lon="30.0021815300"><time>2026-04-22T09:02:55Z</time></trkpt><trkpt lat="59.0979051590" lon="30.0021815300"><time>2026-04-22T09:02:58Z</time></trkpt><trkpt lat="59.0979051590" lon="30.0021815300"><time>2026-04-22T09:03:00Z</time></trkpt><trkpt lat="59.0979051590" lon="30.0022459030"><time>2026-04-22T09:03:03Z</time></trkpt><trkpt lat="59.0979051590" lon="30.0022459030"><time>2026-04-22T09:03:05Z</time></trkpt><trkpt lat="59.0979051590" lon="30.0022459030"><time>2026-04-22T09:03:08Z</time></trkpt><trkpt lat="59.0979051590" lon="30.0022459030"><time>2026-04-22T09:03:10Z</time></trkpt><trkpt lat="59.0979051590" lon="30.0022459030"><time>2026-04-22T09:03:13Z</time></trkpt><trkpt lat="59.0979051590" lon="30.0022459030"><time>2026-04-22T09:03:15Z</time></trkpt><trkpt lat="59.0979051590" lon="30.0022459030"><time>2026-04-22T09:03:18Z</time></trkpt><trkpt lat="59.0979051590" lon="30.0022459030"><time>2026-04-22T09:03:20Z</time></trkpt><trkpt lat="59.0979051590" lon="30.0022459030"><time>2026-04-22T09:03:23Z</time></trkpt><trkpt lat="59.0979051590" lon="30.0022459030"><time>2026-04-22T09:03:25Z</time></trkpt><trkpt lat="59.0979051590" lon="30.0022459030"><time>2026-04-22T09:03:28Z</time></trkpt><trkpt lat="59.0979051590" lon="30.0022459030"><time>2026-04-22T09:03:30Z</time></trkpt><trkpt lat="59.0979051590" lon="30.0022459030"><time>2026-04-22T09:03:33Z</time></trkpt><trkpt lat="59.0979051590" lon="30.0022459030"><time>2026-04-22T09:03:35Z</time></trkpt><trkpt lat="59.0979051590" lon="30.0022459030"><time>2026-04-22T09:03:38Z</time></trkpt><trkpt lat="59.0979051590" lon="30.0022459030"><time>2026-04-22T09:03:40Z</time></trkpt><trkpt lat="59.0979051590" lon="30.0022459030"><time>2026-04-22T09:03:43Z</time></trkpt><trkpt lat="59.0979051590" lon="30.0022459030"><time>2026-04-22T09:03:45Z</time></trkpt><trkpt lat="59.0979051590" lon="30.0022459030"><time>2026-04-22T09:03:48Z</time></trkpt><trkpt lat="59.0979051590" lon="30.0022459030"><time>2026-04-22T09:03:50Z</time></trkpt><trkpt lat="59.0979051590" lon="30.0022459030"><time>2026-04-22T09:03:53Z</time></trkpt><trkpt lat="59.0979051590" lon="30.0022459030"><time>2026-04-22T09:03:55Z</time></trkpt><trkpt lat="59.0979051590" lon="30.0022459030"><time>2026-04-22T09:03:58Z</time></trkpt><trkpt lat="59.0979051590" lon="30.0022459030"><time>2026-04-22T09:04:00Z</time></trkpt><trkpt lat="59.0979051590" lon="30.0022459030"><time>2026-04-22T09:04:03Z</time></trkpt><trkpt lat="59.0979051590" lon="30.0022459030"><time>2026-04-22T09:04:05Z</time></trkpt><trkpt lat="59.0979051590" lon="30.0022459030"><time>2026-04-22T09:04:08Z</time></trkpt><trkpt lat="59.0979051590" lon="30.0022459030"><time>2026-04-22T09:04:10Z</time></trkpt><trkpt lat="59.0979051590" lon="30.0022459030"><time>2026-04-22T09:04:13Z</time></trkpt><trkpt lat="59.0979051590" lon="30.0022459030"><time>2026-04-22T09:04:15Z</time></trkpt><trkpt lat="59.0979051590" lon="30.0022459030"><time>2026-04-22T09:04:18Z</time></trkpt><trkpt lat="59.0979051590" lon="30.0022459030"><time>2026-04-22T09:04:20Z</time></trkpt><trkpt lat="59.0979051590" lon="30.0022459030"><time>2026-04-22T09:04:23Z</time></trkpt><trkpt lat="59.0979051590" lon="30.0022459030"><time>2026-04-22T09:04:25Z</time></trkpt><trkpt lat="59.0979051590" lon="30.0022459030"><time>2026-04-22T09:04:28Z</time></trkpt><trkpt lat="59.0978837013" lon="30.0022459030"><time>2026-04-22T09:04:30Z</time></trkpt><trkpt lat="59.0978837013" lon="30.0022459030"><time>2026-04-22T09:04:33Z</time></trkpt><trkpt lat="59.0978837013" lon="30.0022459030"><time>2026-04-22T09:04:35Z</time></trkpt><trkpt lat="59.0978622437" lon="30.0022029877"><time>2026-04-22T09:04:38Z</time></trkpt><trkpt lat="59.0978407860" lon="30.0021386147"><time>2026-04-22T09:04:40Z</time></trkpt><trkpt lat="59.0978193283" lon="30.0021171570"><time>2026-04-22T09:04:43Z</time></trkpt><trkpt lat="59.0977978706" lon="30.0020313263"><time>2026-04-22T09:04:45Z</time></trkpt><trkpt lat="59.0978407860" lon="30.0019669533"><time>2026-04-22T09:04:48Z</time></trkpt><trkpt lat="59.0979051590" lon="30.0019025803"><time>2026-04-22T09:04:50Z</time></trkpt><trkpt lat="59.0979266167" lon="30.0018167496"><time>2026-04-22T09:04:53Z</time></trkpt><trkpt lat="59.0979051590" lon="30.0017738342"><time>2026-04-22T09:04:55Z</time></trkpt><trkpt lat="59.0979051590" lon="30.0017738342"><time>2026-04-22T09:04:58Z</time></trkpt><trkpt lat="59.0979051590" lon="30.0017309189"><time>2026-04-22T09:05:00Z</time></trkpt><trkpt lat="59.0979051590" lon="30.0017309189"><time>2026-04-22T09:05:03Z</time></trkpt><trkpt lat="59.0979266167" lon="30.0016665459"><time>2026-04-22T09:05:05Z</time></trkpt><trkpt lat="59.0979480743" lon="30.0016021729"><time>2026-04-22T09:05:08Z</time></trkpt><trkpt lat="59.0979480743" lon="30.0015163422"><time>2026-04-22T09:05:10Z</time></trkpt><trkpt lat="59.0979266167" lon="30.0014734268"><time>2026-04-22T09:05:13Z</time></trkpt><trkpt lat="59.0979051590" lon="30.0013875961"><time>2026-04-22T09:05:15Z</time></trkpt><trkpt lat="59.0979051590" lon="30.0013446808"><time>2026-04-22T09:05:18Z</time></trkpt><trkpt lat="59.0979266167" lon="30.0013232231"><time>2026-04-22T09:05:20Z</time></trkpt><trkpt lat="59.0979266167" lon="30.0013232231"><time>2026-04-22T09:05:23Z</time></trkpt><trkpt lat="59.0979266167" lon="30.0012803078"><time>2026-04-22T09:05:25Z</time></trkpt><trkpt lat="59.0979266167" lon="30.0012803078"><time>2026-04-22T09:05:28Z</time></trkpt><trkpt lat="59.0979266167" lon="30.0012588501"><time>2026-04-22T09:05:30Z</time></trkpt><trkpt lat="59.0979266167" lon="30.0012159348"><time>2026-04-22T09:05:33Z</time></trkpt><trkpt lat="59.0979266167" lon="30.0011730194"><time>2026-04-22T09:05:35Z</time></trkpt><trkpt lat="59.0979266167" lon="30.0011944771"><time>2026-04-22T09:05:38Z</time></trkpt><trkpt lat="59.0979266167" lon="30.0011944771"><time>2026-04-22T09:05:40Z</time></trkpt><trkpt lat="59.0979266167" lon="30.0011944771"><time>2026-04-22T09:05:43Z</time></trkpt><trkpt lat="59.0979266167" lon="30.0011944771"><time>2026-04-22T09:05:45Z</time></trkpt><trkpt lat="59.0979266167" lon="30.0011944771"><time>2026-04-22T09:05:48Z</time></trkpt><trkpt lat="59.0979266167" lon="30.0011944771"><time>2026-04-22T09:05:50Z</time></trkpt><trkpt lat="59.0979266167" lon="30.0011944771"><time>2026-04-22T09:05:53Z</time></trkpt><trkpt lat="59.0979266167" lon="30.0011944771"><time>2026-04-22T09:05:55Z</time></trkpt><trkpt lat="59.0979266167" lon="30.0011944771"><time>2026-04-22T09:05:58Z</time></trkpt><trkpt lat="59.0979051590" lon="30.0011944771"><time>2026-04-22T09:06:00Z</time></trkpt><trkpt lat="59.0978622437" lon="30.0012159348"><time>2026-04-22T09:06:03Z</time></trkpt><trkpt lat="59.0977978706" lon="30.0012159348"><time>2026-04-22T09:06:05Z</time></trkpt><trkpt lat="59.0977764130" lon="30.0012159348"><time>2026-04-22T09:06:08Z</time></trkpt><trkpt lat="59.0977549553" lon="30.0012159348"><time>2026-04-22T09:06:10Z</time></trkpt><trkpt lat="59.0977549553" lon="30.0012159348"><time>2026-04-22T09:06:13Z</time></trkpt><trkpt lat="59.0977549553" lon="30.0012159348"><time>2026-04-22T09:06:15Z</time></trkpt><trkpt lat="59.0977549553" lon="30.0012159348"><time>2026-04-22T09:06:18Z</time></trkpt><trkpt lat="59.0977549553" lon="30.0012159348"><time>2026-04-22T09:06:20Z</time></trkpt><trkpt lat="59.0977334976" lon="30.0012159348"><time>2026-04-22T09:06:23Z</time></trkpt><trkpt lat="59.0976905823" lon="30.0012588501"><time>2026-04-22T09:06:25Z</time></trkpt><trkpt lat="59.0976691246" lon="30.0012588501"><time>2026-04-22T09:06:28Z</time></trkpt><trkpt lat="59.0976262093" lon="30.0012159348"><time>2026-04-22T09:06:30Z</time></trkpt><trkpt lat="59.0976262093" lon="30.0012159348"><time>2026-04-22T09:06:33Z</time></trkpt><trkpt lat="59.0976262093" lon="30.0011944771"><time>2026-04-22T09:06:35Z</time></trkpt><trkpt lat="59.0976047516" lon="30.0011515617"><time>2026-04-22T09:06:38Z</time></trkpt><trkpt lat="59.0975403786" lon="30.0011515617"><time>2026-04-22T09:06:40Z</time></trkpt><trkpt lat="59.0975189209" lon="30.0011730194"><time>2026-04-22T09:06:43Z</time></trkpt><trkpt lat="59.0974974632" lon="30.0011944771"><time>2026-04-22T09:06:45Z</time></trkpt><trkpt lat="59.0974760056" lon="30.0012373924"><time>2026-04-22T09:06:48Z</time></trkpt><trkpt lat="59.0974545479" lon="30.0013017654"><time>2026-04-22T09:06:50Z</time></trkpt><trkpt lat="59.0974545479" lon="30.0013017654"><time>2026-04-22T09:06:53Z</time></trkpt><trkpt lat="59.0974545479" lon="30.0013017654"><time>2026-04-22T09:06:55Z</time></trkpt><trkpt lat="59.0974545479" lon="30.0012803078"><time>2026-04-22T09:06:58Z</time></trkpt><trkpt lat="59.0974545479" lon="30.0012803078"><time>2026-04-22T09:07:00Z</time></trkpt><trkpt lat="59.0974116325" lon="30.0012803078"><time>2026-04-22T09:07:03Z</time></trkpt><trkpt lat="59.0973687172" lon="30.0013017654"><time>2026-04-22T09:07:05Z</time></trkpt><trkpt lat="59.0973258018" lon="30.0013232231"><time>2026-04-22T09:07:08Z</time></trkpt><trkpt lat="59.0972828865" lon="30.0013232231"><time>2026-04-22T09:07:10Z</time></trkpt><trkpt lat="59.0972828865" lon="30.0013232231"><time>2026-04-22T09:07:13Z</time></trkpt><trkpt lat="59.0972828865" lon="30.0013232231"><time>2026-04-22T09:07:15Z</time></trkpt><trkpt lat="59.0972828865" lon="30.0013232231"><time>2026-04-22T09:07:18Z</time></trkpt><trkpt lat="59.0972828865" lon="30.0013232231"><time>2026-04-22T09:07:20Z</time></trkpt><trkpt lat="59.0972828865" lon="30.0013232231"><time>2026-04-22T09:07:23Z</time></trkpt><trkpt lat="59.0972828865" lon="30.0013232231"><time>2026-04-22T09:07:25Z</time></trkpt><trkpt lat="59.0973258018" lon="30.0013661385"><time>2026-04-22T09:07:28Z</time></trkpt><trkpt lat="59.0973258018" lon="30.0014090538"><time>2026-04-22T09:07:30Z</time></trkpt><trkpt lat="59.0972828865" lon="30.0014305115"><time>2026-04-22T09:07:33Z</time></trkpt><trkpt lat="59.0972828865" lon="30.0014519691"><time>2026-04-22T09:07:35Z</time></trkpt><trkpt lat="59.0973043442" lon="30.0014519691"><time>2026-04-22T09:07:38Z</time></trkpt><trkpt lat="59.0973043442" lon="30.0014519691"><time>2026-04-22T09:07:43Z</time></trkpt><trkpt lat="59.0972614288" lon="30.0014948845"><time>2026-04-22T09:07:45Z</time></trkpt><trkpt lat="59.0971970558" lon="30.0015592575"><time>2026-04-22T09:07:48Z</time></trkpt><trkpt lat="59.0971541405" lon="30.0016236305"><time>2026-04-22T09:07:50Z</time></trkpt><trkpt lat="59.0971326828" lon="30.0016450882"><time>2026-04-22T09:07:53Z</time></trkpt><trkpt lat="59.0971326828" lon="30.0016450882"><time>2026-04-22T09:07:55Z</time></trkpt><trkpt lat="59.0971326828" lon="30.0016450882"><time>2026-04-22T09:07:58Z</time></trkpt><trkpt lat="59.0971326828" lon="30.0016450882"><time>2026-04-22T09:08:00Z</time></trkpt><trkpt lat="59.0971326828" lon="30.0016450882"><time>2026-04-22T09:08:03Z</time></trkpt><trkpt lat="59.0971326828" lon="30.0016665459"><time>2026-04-22T09:08:05Z</time></trkpt><trkpt lat="59.0971112251" lon="30.0016665459"><time>2026-04-22T09:08:08Z</time></trkpt><trkpt lat="59.0970683098" lon="30.0017094612"><time>2026-04-22T09:08:10Z</time></trkpt><trkpt lat="59.0970468521" lon="30.0017309189"><time>2026-04-22T09:08:13Z</time></trkpt><trkpt lat="59.0970468521" lon="30.0017309189"><time>2026-04-22T09:08:15Z</time></trkpt><trkpt lat="59.0970468521" lon="30.0017309189"><time>2026-04-22T09:08:18Z</time></trkpt><trkpt lat="59.0970468521" lon="30.0017309189"><time>2026-04-22T09:08:20Z</time></trkpt><trkpt lat="59.0970253944" lon="30.0017523766"><time>2026-04-22T09:08:23Z</time></trkpt><trkpt lat="59.0969824791" lon="30.0018167496"><time>2026-04-22T09:08:25Z</time></trkpt><trkpt lat="59.0969824791" lon="30.0018382072"><time>2026-04-22T09:08:28Z</time></trkpt><trkpt lat="59.0969395638" lon="30.0019025803"><time>2026-04-22T09:08:30Z</time></trkpt><trkpt lat="59.0969395638" lon="30.0019669533"><time>2026-04-22T09:08:33Z</time></trkpt><trkpt lat="59.0969181061" lon="30.0020527840"><time>2026-04-22T09:08:35Z</time></trkpt><trkpt lat="59.0969181061" lon="30.0020742416"><time>2026-04-22T09:08:38Z</time></trkpt><trkpt lat="59.0969181061" lon="30.0020742416"><time>2026-04-22T09:08:40Z</time></trkpt><trkpt lat="59.0968966484" lon="30.0020527840"><time>2026-04-22T09:08:43Z</time></trkpt><trkpt lat="59.0968751907" lon="30.0020313263"><time>2026-04-22T09:08:45Z</time></trkpt><trkpt lat="59.0968751907" lon="30.0020313263"><time>2026-04-22T09:08:48Z</time></trkpt><trkpt lat="59.0968751907" lon="30.0020313263"><time>2026-04-22T09:08:50Z</time></trkpt><trkpt lat="59.0968751907" lon="30.0020313263"><time>2026-04-22T09:08:53Z</time></trkpt><trkpt lat="59.0968537331" lon="30.0020956993"><time>2026-04-22T09:08:55Z</time></trkpt><trkpt lat="59.0968751907" lon="30.0020956993"><time>2026-04-22T09:08:58Z</time></trkpt><trkpt lat="59.0968751907" lon="30.0020956993"><time>2026-04-22T09:09:00Z</time></trkpt><trkpt lat="59.0968751907" lon="30.0020956993"><time>2026-04-22T09:09:03Z</time></trkpt><trkpt lat="59.0968751907" lon="30.0020956993"><time>2026-04-22T09:09:05Z</time></trkpt><trkpt lat="59.0968751907" lon="30.0020956993"><time>2026-04-22T09:09:08Z</time></trkpt><trkpt lat="59.0968751907" lon="30.0020956993"><time>2026-04-22T09:09:10Z</time></trkpt><trkpt lat="59.0968537331" lon="30.0020956993"><time>2026-04-22T09:09:13Z</time></trkpt><trkpt lat="59.0968108177" lon="30.0020742416"><time>2026-04-22T09:09:15Z</time></trkpt><trkpt lat="59.0967679024" lon="30.0020313263"><time>2026-04-22T09:09:18Z</time></trkpt><trkpt lat="59.0967679024" lon="30.0020527840"><time>2026-04-22T09:09:20Z</time></trkpt><trkpt lat="59.0967464447" lon="30.0020742416"><time>2026-04-22T09:09:23Z</time></trkpt><trkpt lat="59.0967249870" lon="30.0021171570"><time>2026-04-22T09:09:25Z</time></trkpt><trkpt lat="59.0967249870" lon="30.0021171570"><time>2026-04-22T09:09:28Z</time></trkpt><trkpt lat="59.0967035294" lon="30.0021386147"><time>2026-04-22T09:09:30Z</time></trkpt><trkpt lat="59.0967035294" lon="30.0022029877"><time>2026-04-22T09:09:33Z</time></trkpt><trkpt lat="59.0966820717" lon="30.0023102760"><time>2026-04-22T09:09:35Z</time></trkpt><trkpt lat="59.0966606140" lon="30.0023531914"><time>2026-04-22T09:09:38Z</time></trkpt><trkpt lat="59.0966176987" lon="30.0023961067"><time>2026-04-22T09:09:40Z</time></trkpt><trkpt lat="59.0966176987" lon="30.0023746490"><time>2026-04-22T09:09:43Z</time></trkpt><trkpt lat="59.0965962410" lon="30.0023102760"><time>2026-04-22T09:09:45Z</time></trkpt><trkpt lat="59.0965747833" lon="30.0022888184"><time>2026-04-22T09:09:48Z</time></trkpt><trkpt lat="59.0965533257" lon="30.0022244453"><time>2026-04-22T09:09:50Z</time></trkpt><trkpt lat="59.0965533257" lon="30.0022029877"><time>2026-04-22T09:09:53Z</time></trkpt><trkpt lat="59.0965533257" lon="30.0022029877"><time>2026-04-22T09:09:55Z</time></trkpt><trkpt lat="59.0965533257" lon="30.0022029877"><time>2026-04-22T09:09:58Z</time></trkpt><trkpt lat="59.0965318680" lon="30.0022459030"><time>2026-04-22T09:10:00Z</time></trkpt><trkpt lat="59.0965104103" lon="30.0022673607"><time>2026-04-22T09:10:03Z</time></trkpt><trkpt lat="59.0965104103" lon="30.0022673607"><time>2026-04-22T09:10:05Z</time></trkpt><trkpt lat="59.0965318680" lon="30.0023102760"><time>2026-04-22T09:10:08Z</time></trkpt><trkpt lat="59.0965318680" lon="30.0023531914"><time>2026-04-22T09:10:10Z</time></trkpt><trkpt lat="59.0965318680" lon="30.0023531914"><time>2026-04-22T09:10:13Z</time></trkpt><trkpt lat="59.0965104103" lon="30.0023531914"><time>2026-04-22T09:10:15Z</time></trkpt><trkpt lat="59.0964889526" lon="30.0023531914"><time>2026-04-22T09:10:18Z</time></trkpt><trkpt lat="59.0964889526" lon="30.0023317337"><time>2026-04-22T09:10:20Z</time></trkpt><trkpt lat="59.0964674950" lon="30.0023317337"><time>2026-04-22T09:10:23Z</time></trkpt><trkpt lat="59.0964460373" lon="30.0023317337"><time>2026-04-22T09:10:25Z</time></trkpt><trkpt lat="59.0964245796" lon="30.0023102760"><time>2026-04-22T09:10:28Z</time></trkpt><trkpt lat="59.0964031219" lon="30.0023531914"><time>2026-04-22T09:10:30Z</time></trkpt><trkpt lat="59.0964031219" lon="30.0023746490"><time>2026-04-22T09:10:33Z</time></trkpt><trkpt lat="59.0964031219" lon="30.0023961067"><time>2026-04-22T09:10:35Z</time></trkpt><trkpt lat="59.0964031219" lon="30.0023961067"><time>2026-04-22T09:10:38Z</time></trkpt><trkpt lat="59.0964031219" lon="30.0023961067"><time>2026-04-22T09:10:40Z</time></trkpt><trkpt lat="59.0964031219" lon="30.0023961067"><time>2026-04-22T09:10:43Z</time></trkpt><trkpt lat="59.0964031219" lon="30.0023961067"><time>2026-04-22T09:10:45Z</time></trkpt><trkpt lat="59.0964031219" lon="30.0023961067"><time>2026-04-22T09:10:48Z</time></trkpt><trkpt lat="59.0964031219" lon="30.0024390221"><time>2026-04-22T09:10:50Z</time></trkpt><trkpt lat="59.0964031219" lon="30.0024390221"><time>2026-04-22T09:10:53Z</time></trkpt><trkpt lat="59.0964031219" lon="30.0024390221"><time>2026-04-22T09:10:55Z</time></trkpt><trkpt lat="59.0964031219" lon="30.0024390221"><time>2026-04-22T09:10:58Z</time></trkpt><trkpt lat="59.0964031219" lon="30.0024390221"><time>2026-04-22T09:11:00Z</time></trkpt><trkpt lat="59.0964031219" lon="30.0024390221"><time>2026-04-22T09:11:03Z</time></trkpt><trkpt lat="59.0964031219" lon="30.0024390221"><time>2026-04-22T09:11:05Z</time></trkpt><trkpt lat="59.0963816643" lon="30.0024604797"><time>2026-04-22T09:11:08Z</time></trkpt><trkpt lat="59.0963816643" lon="30.0024819374"><time>2026-04-22T09:11:10Z</time></trkpt><trkpt lat="59.0963602066" lon="30.0024819374"><time>2026-04-22T09:11:13Z</time></trkpt><trkpt lat="59.0963387489" lon="30.0024390221"><time>2026-04-22T09:11:15Z</time></trkpt><trkpt lat="59.0963172913" lon="30.0024390221"><time>2026-04-22T09:11:18Z</time></trkpt><trkpt lat="59.0963172913" lon="30.0024390221"><time>2026-04-22T09:11:20Z</time></trkpt><trkpt lat="59.0963172913" lon="30.0024175644"><time>2026-04-22T09:11:23Z</time></trkpt><trkpt lat="59.0963172913" lon="30.0024175644"><time>2026-04-22T09:11:25Z</time></trkpt><trkpt lat="59.0962958336" lon="30.0024175644"><time>2026-04-22T09:11:28Z</time></trkpt><trkpt lat="59.0962743759" lon="30.0024390221"><time>2026-04-22T09:11:30Z</time></trkpt><trkpt lat="59.0962529182" lon="30.0024604797"><time>2026-04-22T09:11:33Z</time></trkpt><trkpt lat="59.0962100029" lon="30.0024390221"><time>2026-04-22T09:11:35Z</time></trkpt><trkpt lat="59.0962100029" lon="30.0024175644"><time>2026-04-22T09:11:38Z</time></trkpt><trkpt lat="59.0962100029" lon="30.0024175644"><time>2026-04-22T09:11:40Z</time></trkpt><trkpt lat="59.0962100029" lon="30.0024175644"><time>2026-04-22T09:11:43Z</time></trkpt><trkpt lat="59.0962100029" lon="30.0024175644"><time>2026-04-22T09:11:45Z</time></trkpt><trkpt lat="59.0962100029" lon="30.0024175644"><time>2026-04-22T09:11:48Z</time></trkpt><trkpt lat="59.0962100029" lon="30.0024175644"><time>2026-04-22T09:11:50Z</time></trkpt><trkpt lat="59.0962100029" lon="30.0024175644"><time>2026-04-22T09:11:53Z</time></trkpt><trkpt lat="59.0961885452" lon="30.0024175644"><time>2026-04-22T09:11:55Z</time></trkpt><trkpt lat="59.0961670876" lon="30.0023961067"><time>2026-04-22T09:11:58Z</time></trkpt><trkpt lat="59.0961241722" lon="30.0023961067"><time>2026-04-22T09:12:00Z</time></trkpt><trkpt lat="59.0961241722" lon="30.0023746490"><time>2026-04-22T09:12:03Z</time></trkpt><trkpt lat="59.0961241722" lon="30.0023746490"><time>2026-04-22T09:12:05Z</time></trkpt><trkpt lat="59.0961027145" lon="30.0023961067"><time>2026-04-22T09:12:08Z</time></trkpt><trkpt lat="59.0960812569" lon="30.0023746490"><time>2026-04-22T09:12:10Z</time></trkpt><trkpt lat="59.0960597992" lon="30.0023746490"><time>2026-04-22T09:12:13Z</time></trkpt><trkpt lat="59.0960383415" lon="30.0023961067"><time>2026-04-22T09:12:15Z</time></trkpt><trkpt lat="59.0960383415" lon="30.0023746490"><time>2026-04-22T09:12:18Z</time></trkpt><trkpt lat="59.0960168839" lon="30.0023317337"><time>2026-04-22T09:12:20Z</time></trkpt><trkpt lat="59.0960168839" lon="30.0023317337"><time>2026-04-22T09:12:23Z</time></trkpt><trkpt lat="59.0960168839" lon="30.0023317337"><time>2026-04-22T09:12:25Z</time></trkpt><trkpt lat="59.0960168839" lon="30.0023317337"><time>2026-04-22T09:12:28Z</time></trkpt><trkpt lat="59.0960168839" lon="30.0023102760"><time>2026-04-22T09:12:30Z</time></trkpt><trkpt lat="59.0960168839" lon="30.0022673607"><time>2026-04-22T09:12:33Z</time></trkpt><trkpt lat="59.0959954262" lon="30.0022459030"><time>2026-04-22T09:12:35Z</time></trkpt><trkpt lat="59.0959954262" lon="30.0022459030"><time>2026-04-22T09:12:38Z</time></trkpt><trkpt lat="59.0959954262" lon="30.0022673607"><time>2026-04-22T09:12:40Z</time></trkpt><trkpt lat="59.0959739685" lon="30.0022673607"><time>2026-04-22T09:12:43Z</time></trkpt><trkpt lat="59.0959310532" lon="30.0022244453"><time>2026-04-22T09:12:45Z</time></trkpt><trkpt lat="59.0959310532" lon="30.0022244453"><time>2026-04-22T09:12:48Z</time></trkpt><trkpt lat="59.0959310532" lon="30.0022244453"><time>2026-04-22T09:12:50Z</time></trkpt><trkpt lat="59.0959310532" lon="30.0022244453"><time>2026-04-22T09:12:53Z</time></trkpt><trkpt lat="59.0959310532" lon="30.0022244453"><time>2026-04-22T09:12:55Z</time></trkpt><trkpt lat="59.0959310532" lon="30.0022244453"><time>2026-04-22T09:12:58Z</time></trkpt><trkpt lat="59.0959310532" lon="30.0022244453"><time>2026-04-22T09:13:00Z</time></trkpt><trkpt lat="59.0959525108" lon="30.0022459030"><time>2026-04-22T09:13:03Z</time></trkpt><trkpt lat="59.0959525108" lon="30.0022888184"><time>2026-04-22T09:13:05Z</time></trkpt><trkpt lat="59.0959525108" lon="30.0022888184"><time>2026-04-22T09:13:08Z</time></trkpt><trkpt lat="59.0959525108" lon="30.0023531914"><time>2026-04-22T09:13:10Z</time></trkpt><trkpt lat="59.0959525108" lon="30.0023746490"><time>2026-04-22T09:13:13Z</time></trkpt><trkpt lat="59.0959525108" lon="30.0023746490"><time>2026-04-22T09:13:15Z</time></trkpt><trkpt lat="59.0959739685" lon="30.0023746490"><time>2026-04-22T09:13:18Z</time></trkpt><trkpt lat="59.0959739685" lon="30.0024819374"><time>2026-04-22T09:13:20Z</time></trkpt><trkpt lat="59.0959525108" lon="30.0025033951"><time>2026-04-22T09:13:23Z</time></trkpt><trkpt lat="59.0959525108" lon="30.0025892258"><time>2026-04-22T09:13:25Z</time></trkpt><trkpt lat="59.0959525108" lon="30.0026321411"><time>2026-04-22T09:13:28Z</time></trkpt><trkpt lat="59.0959525108" lon="30.0026106834"><time>2026-04-22T09:13:30Z</time></trkpt><trkpt lat="59.0959954262" lon="30.0025892258"><time>2026-04-22T09:13:33Z</time></trkpt><trkpt lat="59.0960168839" lon="30.0025892258"><time>2026-04-22T09:13:35Z</time></trkpt><trkpt lat="59.0960168839" lon="30.0025892258"><time>2026-04-22T09:13:38Z</time></trkpt><trkpt lat="59.0960168839" lon="30.0025892258"><time>2026-04-22T09:13:40Z</time></trkpt><trkpt lat="59.0960168839" lon="30.0026106834"><time>2026-04-22T09:13:43Z</time></trkpt><trkpt lat="59.0959954262" lon="30.0026106834"><time>2026-04-22T09:13:45Z</time></trkpt><trkpt lat="59.0959739685" lon="30.0026321411"><time>2026-04-22T09:13:48Z</time></trkpt><trkpt lat="59.0959739685" lon="30.0026321411"><time>2026-04-22T09:13:50Z</time></trkpt><trkpt lat="59.0959739685" lon="30.0026106834"><time>2026-04-22T09:13:53Z</time></trkpt><trkpt lat="59.0959739685" lon="30.0026750565"><time>2026-04-22T09:13:55Z</time></trkpt><trkpt lat="59.0959739685" lon="30.0026965141"><time>2026-04-22T09:13:58Z</time></trkpt><trkpt lat="59.0959739685" lon="30.0027823448"><time>2026-04-22T09:14:00Z</time></trkpt><trkpt lat="59.0959525108" lon="30.0028467178"><time>2026-04-22T09:14:03Z</time></trkpt><trkpt lat="59.0959095955" lon="30.0028896332"><time>2026-04-22T09:14:05Z</time></trkpt><trkpt lat="59.0958881378" lon="30.0028467178"><time>2026-04-22T09:14:08Z</time></trkpt><trkpt lat="59.0958666801" lon="30.0027823448"><time>2026-04-22T09:14:10Z</time></trkpt><trkpt lat="59.0958666801" lon="30.0027823448"><time>2026-04-22T09:14:13Z</time></trkpt><trkpt lat="59.0958666801" lon="30.0027823448"><time>2026-04-22T09:14:15Z</time></trkpt><trkpt lat="59.0958666801" lon="30.0027394295"><time>2026-04-22T09:14:18Z</time></trkpt><trkpt lat="59.0958666801" lon="30.0027179718"><time>2026-04-22T09:14:20Z</time></trkpt><trkpt lat="59.0958452225" lon="30.0027179718"><time>2026-04-22T09:14:23Z</time></trkpt><trkpt lat="59.0958452225" lon="30.0027394295"><time>2026-04-22T09:14:25Z</time></trkpt><trkpt lat="59.0958452225" lon="30.0027608871"><time>2026-04-22T09:14:28Z</time></trkpt><trkpt lat="59.0958237648" lon="30.0027394295"><time>2026-04-22T09:14:30Z</time></trkpt><trkpt lat="59.0958023071" lon="30.0027394295"><time>2026-04-22T09:14:33Z</time></trkpt><trkpt lat="59.0957808495" lon="30.0027179718"><time>2026-04-22T09:14:35Z</time></trkpt><trkpt lat="59.0957593918" lon="30.0027179718"><time>2026-04-22T09:14:38Z</time></trkpt><trkpt lat="59.0957593918" lon="30.0027179718"><time>2026-04-22T09:14:40Z</time></trkpt><trkpt lat="59.0957593918" lon="30.0027179718"><time>2026-04-22T09:14:43Z</time></trkpt><trkpt lat="59.0957379341" lon="30.0027394295"><time>2026-04-22T09:14:45Z</time></trkpt><trkpt lat="59.0957164764" lon="30.0027179718"><time>2026-04-22T09:14:48Z</time></trkpt><trkpt lat="59.0956950188" lon="30.0026965141"><time>2026-04-22T09:14:50Z</time></trkpt><trkpt lat="59.0956521034" lon="30.0026965141"><time>2026-04-22T09:14:53Z</time></trkpt><trkpt lat="59.0956521034" lon="30.0026965141"><time>2026-04-22T09:14:55Z</time></trkpt><trkpt lat="59.0956521034" lon="30.0026965141"><time>2026-04-22T09:14:58Z</time></trkpt><trkpt lat="59.0956521034" lon="30.0026965141"><time>2026-04-22T09:15:00Z</time></trkpt><trkpt lat="59.0956521034" lon="30.0026965141"><time>2026-04-22T09:15:03Z</time></trkpt><trkpt lat="59.0956521034" lon="30.0026965141"><time>2026-04-22T09:15:05Z</time></trkpt><trkpt lat="59.0956521034" lon="30.0026965141"><time>2026-04-22T09:15:08Z</time></trkpt><trkpt lat="59.0956521034" lon="30.0026965141"><time>2026-04-22T09:15:10Z</time></trkpt><trkpt lat="59.0956521034" lon="30.0026965141"><time>2026-04-22T09:15:13Z</time></trkpt><trkpt lat="59.0956521034" lon="30.0026965141"><time>2026-04-22T09:15:15Z</time></trkpt><trkpt lat="59.0956521034" lon="30.0026965141"><time>2026-04-22T09:15:18Z</time></trkpt><trkpt lat="59.0956521034" lon="30.0026965141"><time>2026-04-22T09:15:20Z</time></trkpt><trkpt lat="59.0956735611" lon="30.0026750565"><time>2026-04-22T09:15:23Z</time></trkpt><trkpt lat="59.0956950188" lon="30.0026535988"><time>2026-04-22T09:15:25Z</time></trkpt><trkpt lat="59.0956950188" lon="30.0026750565"><time>2026-04-22T09:15:28Z</time></trkpt><trkpt lat="59.0956950188" lon="30.0027179718"><time>2026-04-22T09:15:30Z</time></trkpt><trkpt lat="59.0956735611" lon="30.0026965141"><time>2026-04-22T09:15:33Z</time></trkpt><trkpt lat="59.0956521034" lon="30.0026535988"><time>2026-04-22T09:15:35Z</time></trkpt><trkpt lat="59.0956521034" lon="30.0026535988"><time>2026-04-22T09:15:38Z</time></trkpt><trkpt lat="59.0956521034" lon="30.0026535988"><time>2026-04-22T09:15:40Z</time></trkpt><trkpt lat="59.0956521034" lon="30.0026535988"><time>2026-04-22T09:15:43Z</time></trkpt><trkpt lat="59.0956521034" lon="30.0026535988"><time>2026-04-22T09:15:45Z</time></trkpt><trkpt lat="59.0956521034" lon="30.0026535988"><time>2026-04-22T09:15:48Z</time></trkpt><trkpt lat="59.0956521034" lon="30.0026535988"><time>2026-04-22T09:15:50Z</time></trkpt><trkpt lat="59.0956521034" lon="30.0026535988"><time>2026-04-22T09:15:53Z</time></trkpt><trkpt lat="59.0956521034" lon="30.0026535988"><time>2026-04-22T09:15:55Z</time></trkpt><trkpt lat="59.0956521034" lon="30.0026535988"><time>2026-04-22T09:15:58Z</time></trkpt><trkpt lat="59.0956521034" lon="30.0026535988"><time>2026-04-22T09:16:00Z</time></trkpt><trkpt lat="59.0956521034" lon="30.0026535988"><time>2026-04-22T09:16:03Z</time></trkpt><trkpt lat="59.0956521034" lon="30.0026535988"><time>2026-04-22T09:16:05Z</time></trkpt><trkpt lat="59.0956521034" lon="30.0026535988"><time>2026-04-22T09:16:08Z</time></trkpt><trkpt lat="59.0956521034" lon="30.0026535988"><time>2026-04-22T09:16:10Z</time></trkpt><trkpt lat="59.0956521034" lon="30.0026535988"><time>2026-04-22T09:16:13Z</time></trkpt><trkpt lat="59.0956521034" lon="30.0026535988"><time>2026-04-22T09:16:15Z</time></trkpt><trkpt lat="59.0956521034" lon="30.0026535988"><time>2026-04-22T09:16:18Z</time></trkpt><trkpt lat="59.0956521034" lon="30.0026535988"><time>2026-04-22T09:16:20Z</time></trkpt><trkpt lat="59.0956521034" lon="30.0026535988"><time>2026-04-22T09:16:23Z</time></trkpt><trkpt lat="59.0956521034" lon="30.0026535988"><time>2026-04-22T09:16:25Z</time></trkpt><trkpt lat="59.0956521034" lon="30.0026535988"><time>2026-04-22T09:16:28Z</time></trkpt><trkpt lat="59.0956521034" lon="30.0026535988"><time>2026-04-22T09:16:30Z</time></trkpt><trkpt lat="59.0956521034" lon="30.0026535988"><time>2026-04-22T09:16:33Z</time></trkpt><trkpt lat="59.0956521034" lon="30.0026535988"><time>2026-04-22T09:16:38Z</time></trkpt><trkpt lat="59.0956521034" lon="30.0026535988"><time>2026-04-22T09:16:40Z</time></trkpt><trkpt lat="59.0956521034" lon="30.0026535988"><time>2026-04-22T09:16:43Z</time></trkpt><trkpt lat="59.0956521034" lon="30.0026535988"><time>2026-04-22T09:16:45Z</time></trkpt><trkpt lat="59.0956521034" lon="30.0026535988"><time>2026-04-22T09:16:48Z</time></trkpt><trkpt lat="59.0956521034" lon="30.0026535988"><time>2026-04-22T09:16:50Z</time></trkpt><trkpt lat="59.0956521034" lon="30.0026106834"><time>2026-04-22T09:16:53Z</time></trkpt><trkpt lat="59.0956521034" lon="30.0026106834"><time>2026-04-22T09:16:55Z</time></trkpt><trkpt lat="59.0956306458" lon="30.0026106834"><time>2026-04-22T09:16:58Z</time></trkpt><trkpt lat="59.0956521034" lon="30.0026106834"><time>2026-04-22T09:17:00Z</time></trkpt><trkpt lat="59.0956521034" lon="30.0026106834"><time>2026-04-22T09:17:03Z</time></trkpt><trkpt lat="59.0956521034" lon="30.0026106834"><time>2026-04-22T09:17:05Z</time></trkpt><trkpt lat="59.0956521034" lon="30.0026106834"><time>2026-04-22T09:17:08Z</time></trkpt><trkpt lat="59.0956521034" lon="30.0026106834"><time>2026-04-22T09:17:10Z</time></trkpt><trkpt lat="59.0956521034" lon="30.0026106834"><time>2026-04-22T09:17:13Z</time></trkpt><trkpt lat="59.0956521034" lon="30.0026106834"><time>2026-04-22T09:17:15Z</time></trkpt><trkpt lat="59.0956521034" lon="30.0026106834"><time>2026-04-22T09:17:18Z</time></trkpt><trkpt lat="59.0956521034" lon="30.0026106834"><time>2026-04-22T09:17:20Z</time></trkpt><trkpt lat="59.0956521034" lon="30.0026106834"><time>2026-04-22T09:17:23Z</time></trkpt><trkpt lat="59.0956521034" lon="30.0026106834"><time>2026-04-22T09:17:25Z</time></trkpt><trkpt lat="59.0956521034" lon="30.0026106834"><time>2026-04-22T09:17:28Z</time></trkpt><trkpt lat="59.0956521034" lon="30.0026106834"><time>2026-04-22T09:17:30Z</time></trkpt><trkpt lat="59.0956521034" lon="30.0026106834"><time>2026-04-22T09:17:33Z</time></trkpt><trkpt lat="59.0956521034" lon="30.0026106834"><time>2026-04-22T09:17:35Z</time></trkpt><trkpt lat="59.0956521034" lon="30.0026106834"><time>2026-04-22T09:17:38Z</time></trkpt><trkpt lat="59.0956521034" lon="30.0026106834"><time>2026-04-22T09:17:40Z</time></trkpt><trkpt lat="59.0956521034" lon="30.0026106834"><time>2026-04-22T09:17:43Z</time></trkpt><trkpt lat="59.0956521034" lon="30.0026106834"><time>2026-04-22T09:17:45Z</time></trkpt><trkpt lat="59.0956521034" lon="30.0026106834"><time>2026-04-22T09:17:48Z</time></trkpt><trkpt lat="59.0956521034" lon="30.0026106834"><time>2026-04-22T09:17:50Z</time></trkpt><trkpt lat="59.0956521034" lon="30.0026106834"><time>2026-04-22T09:17:53Z</time></trkpt><trkpt lat="59.0956521034" lon="30.0026106834"><time>2026-04-22T09:17:55Z</time></trkpt><trkpt lat="59.0956521034" lon="30.0026106834"><time>2026-04-22T09:17:58Z</time></trkpt><trkpt lat="59.0956521034" lon="30.0026106834"><time>2026-04-22T09:18:00Z</time></trkpt><trkpt lat="59.0956521034" lon="30.0026106834"><time>2026-04-22T09:18:03Z</time></trkpt><trkpt lat="59.0956521034" lon="30.0026106834"><time>2026-04-22T09:18:05Z</time></trkpt><trkpt lat="59.0956521034" lon="30.0026106834"><time>2026-04-22T09:18:08Z</time></trkpt><trkpt lat="59.0956521034" lon="30.0026106834"><time>2026-04-22T09:18:10Z</time></trkpt><trkpt lat="59.0956521034" lon="30.0026106834"><time>2026-04-22T09:18:13Z</time></trkpt><trkpt lat="59.0956521034" lon="30.0026106834"><time>2026-04-22T09:18:15Z</time></trkpt><trkpt lat="59.0956521034" lon="30.0026106834"><time>2026-04-22T09:18:18Z</time></trkpt><trkpt lat="59.0956521034" lon="30.0026321411"><time>2026-04-22T09:18:20Z</time></trkpt><trkpt lat="59.0956521034" lon="30.0026321411"><time>2026-04-22T09:18:23Z</time></trkpt><trkpt lat="59.0956521034" lon="30.0026321411"><time>2026-04-22T09:18:25Z</time></trkpt><trkpt lat="59.0956521034" lon="30.0026321411"><time>2026-04-22T09:18:28Z</time></trkpt><trkpt lat="59.0956521034" lon="30.0026321411"><time>2026-04-22T09:18:30Z</time></trkpt><trkpt lat="59.0956521034" lon="30.0026321411"><time>2026-04-22T09:18:33Z</time></trkpt><trkpt lat="59.0956521034" lon="30.0026321411"><time>2026-04-22T09:18:35Z</time></trkpt><trkpt lat="59.0956521034" lon="30.0026321411"><time>2026-04-22T09:18:38Z</time></trkpt><trkpt lat="59.0956521034" lon="30.0026321411"><time>2026-04-22T09:18:40Z</time></trkpt><trkpt lat="59.0956521034" lon="30.0026321411"><time>2026-04-22T09:18:43Z</time></trkpt><trkpt lat="59.0956521034" lon="30.0026321411"><time>2026-04-22T09:18:45Z</time></trkpt><trkpt lat="59.0956521034" lon="30.0026321411"><time>2026-04-22T09:18:48Z</time></trkpt><trkpt lat="59.0956521034" lon="30.0026321411"><time>2026-04-22T09:18:50Z</time></trkpt><trkpt lat="59.0956521034" lon="30.0026321411"><time>2026-04-22T09:18:53Z</time></trkpt><trkpt lat="59.0956521034" lon="30.0026321411"><time>2026-04-22T09:18:55Z</time></trkpt><trkpt lat="59.0956521034" lon="30.0026321411"><time>2026-04-22T09:18:58Z</time></trkpt><trkpt lat="59.0956521034" lon="30.0026321411"><time>2026-04-22T09:19:00Z</time></trkpt><trkpt lat="59.0956521034" lon="30.0026321411"><time>2026-04-22T09:19:03Z</time></trkpt><trkpt lat="59.0956521034" lon="30.0026321411"><time>2026-04-22T09:19:05Z</time></trkpt><trkpt lat="59.0956521034" lon="30.0026321411"><time>2026-04-22T09:19:08Z</time></trkpt><trkpt lat="59.0956521034" lon="30.0026321411"><time>2026-04-22T09:19:10Z</time></trkpt><trkpt lat="59.0956521034" lon="30.0026321411"><time>2026-04-22T09:19:13Z</time></trkpt><trkpt lat="59.0956521034" lon="30.0026321411"><time>2026-04-22T09:19:15Z</time></trkpt><trkpt lat="59.0956521034" lon="30.0026321411"><time>2026-04-22T09:19:18Z</time></trkpt><trkpt lat="59.0956521034" lon="30.0026321411"><time>2026-04-22T09:19:20Z</time></trkpt><trkpt lat="59.0956521034" lon="30.0026321411"><time>2026-04-22T09:19:23Z</time></trkpt><trkpt lat="59.0956521034" lon="30.0026321411"><time>2026-04-22T09:19:25Z</time></trkpt><trkpt lat="59.0956521034" lon="30.0026321411"><time>2026-04-22T09:19:28Z</time></trkpt><trkpt lat="59.0956521034" lon="30.0026321411"><time>2026-04-22T09:19:30Z</time></trkpt><trkpt lat="59.0956521034" lon="30.0026321411"><time>2026-04-22T09:19:33Z</time></trkpt><trkpt lat="59.0956521034" lon="30.0026321411"><time>2026-04-22T09:19:35Z</time></trkpt><trkpt lat="59.0956521034" lon="30.0026321411"><time>2026-04-22T09:19:38Z</time></trkpt><trkpt lat="59.0956521034" lon="30.0026321411"><time>2026-04-22T09:19:40Z</time></trkpt><trkpt lat="59.0956521034" lon="30.0026321411"><time>2026-04-22T09:19:43Z</time></trkpt><trkpt lat="59.0956521034" lon="30.0026321411"><time>2026-04-22T09:19:45Z</time></trkpt><trkpt lat="59.0956521034" lon="30.0026321411"><time>2026-04-22T09:19:48Z</time></trkpt><trkpt lat="59.0956521034" lon="30.0026321411"><time>2026-04-22T09:19:50Z</time></trkpt><trkpt lat="59.0956306458" lon="30.0026535988"><time>2026-04-22T09:19:53Z</time></trkpt><trkpt lat="59.0956306458" lon="30.0026535988"><time>2026-04-22T09:19:58Z</time></trkpt><trkpt lat="59.0956306458" lon="30.0026535988"><time>2026-04-22T09:20:00Z</time></trkpt><trkpt lat="59.0956306458" lon="30.0026535988"><time>2026-04-22T09:20:03Z</time></trkpt><trkpt lat="59.0956306458" lon="30.0026535988"><time>2026-04-22T09:20:05Z</time></trkpt><trkpt lat="59.0956306458" lon="30.0026535988"><time>2026-04-22T09:20:08Z</time></trkpt><trkpt lat="59.0956521034" lon="30.0026750565"><time>2026-04-22T09:20:10Z</time></trkpt><trkpt lat="59.0956521034" lon="30.0026750565"><time>2026-04-22T09:20:13Z</time></trkpt><trkpt lat="59.0956521034" lon="30.0026750565"><time>2026-04-22T09:20:15Z</time></trkpt><trkpt lat="59.0956521034" lon="30.0026750565"><time>2026-04-22T09:20:18Z</time></trkpt><trkpt lat="59.0956521034" lon="30.0026750565"><time>2026-04-22T09:20:20Z</time></trkpt><trkpt lat="59.0956521034" lon="30.0026750565"><time>2026-04-22T09:20:23Z</time></trkpt><trkpt lat="59.0956521034" lon="30.0026750565"><time>2026-04-22T09:20:25Z</time></trkpt><trkpt lat="59.0956521034" lon="30.0026750565"><time>2026-04-22T09:20:28Z</time></trkpt><trkpt lat="59.0956521034" lon="30.0026750565"><time>2026-04-22T09:20:30Z</time></trkpt><trkpt lat="59.0956521034" lon="30.0026750565"><time>2026-04-22T09:20:33Z</time></trkpt><trkpt lat="59.0956521034" lon="30.0026750565"><time>2026-04-22T09:20:35Z</time></trkpt><trkpt lat="59.0956521034" lon="30.0026535988"><time>2026-04-22T09:20:38Z</time></trkpt><trkpt lat="59.0956521034" lon="30.0026535988"><time>2026-04-22T09:20:40Z</time></trkpt><trkpt lat="59.0956521034" lon="30.0026535988"><time>2026-04-22T09:20:43Z</time></trkpt><trkpt lat="59.0956306458" lon="30.0026750565"><time>2026-04-22T09:20:45Z</time></trkpt><trkpt lat="59.0956306458" lon="30.0026750565"><time>2026-04-22T09:20:48Z</time></trkpt><trkpt lat="59.0956306458" lon="30.0026750565"><time>2026-04-22T09:20:50Z</time></trkpt><trkpt lat="59.0956306458" lon="30.0026750565"><time>2026-04-22T09:20:53Z</time></trkpt><trkpt lat="59.0956306458" lon="30.0026750565"><time>2026-04-22T09:20:55Z</time></trkpt><trkpt lat="59.0956306458" lon="30.0026750565"><time>2026-04-22T09:20:58Z</time></trkpt><trkpt lat="59.0956306458" lon="30.0026750565"><time>2026-04-22T09:21:00Z</time></trkpt><trkpt lat="59.0956306458" lon="30.0026321411"><time>2026-04-22T09:21:03Z</time></trkpt><trkpt lat="59.0956306458" lon="30.0026321411"><time>2026-04-22T09:21:05Z</time></trkpt><trkpt lat="59.0956306458" lon="30.0026321411"><time>2026-04-22T09:21:08Z</time></trkpt><trkpt lat="59.0956306458" lon="30.0026321411"><time>2026-04-22T09:21:10Z</time></trkpt><trkpt lat="59.0956306458" lon="30.0026321411"><time>2026-04-22T09:21:13Z</time></trkpt><trkpt lat="59.0956306458" lon="30.0026321411"><time>2026-04-22T09:21:15Z</time></trkpt><trkpt lat="59.0956306458" lon="30.0026321411"><time>2026-04-22T09:21:18Z</time></trkpt><trkpt lat="59.0956306458" lon="30.0026321411"><time>2026-04-22T09:21:20Z</time></trkpt><trkpt lat="59.0956306458" lon="30.0026321411"><time>2026-04-22T09:21:23Z</time></trkpt><trkpt lat="59.0956306458" lon="30.0026321411"><time>2026-04-22T09:21:25Z</time></trkpt><trkpt lat="59.0956306458" lon="30.0026321411"><time>2026-04-22T09:21:28Z</time></trkpt><trkpt lat="59.0956306458" lon="30.0026106834"><time>2026-04-22T09:21:30Z</time></trkpt><trkpt lat="59.0956306458" lon="30.0026106834"><time>2026-04-22T09:21:33Z</time></trkpt><trkpt lat="59.0956306458" lon="30.0026106834"><time>2026-04-22T09:21:35Z</time></trkpt><trkpt lat="59.0956306458" lon="30.0026106834"><time>2026-04-22T09:21:38Z</time></trkpt><trkpt lat="59.0956306458" lon="30.0026106834"><time>2026-04-22T09:21:40Z</time></trkpt><trkpt lat="59.0956306458" lon="30.0026106834"><time>2026-04-22T09:21:43Z</time></trkpt><trkpt lat="59.0956306458" lon="30.0026106834"><time>2026-04-22T09:21:45Z</time></trkpt><trkpt lat="59.0956306458" lon="30.0026106834"><time>2026-04-22T09:21:48Z</time></trkpt><trkpt lat="59.0956306458" lon="30.0026321411"><time>2026-04-22T09:21:50Z</time></trkpt><trkpt lat="59.0956521034" lon="30.0026750565"><time>2026-04-22T09:21:53Z</time></trkpt><trkpt lat="59.0956521034" lon="30.0026965141"><time>2026-04-22T09:21:55Z</time></trkpt><trkpt lat="59.0956306458" lon="30.0026965141"><time>2026-04-22T09:21:58Z</time></trkpt><trkpt lat="59.0956521034" lon="30.0026750565"><time>2026-04-22T09:22:00Z</time></trkpt><trkpt lat="59.0956306458" lon="30.0026535988"><time>2026-04-22T09:22:03Z</time></trkpt><trkpt lat="59.0956306458" lon="30.0026106834"><time>2026-04-22T09:22:05Z</time></trkpt><trkpt lat="59.0956306458" lon="30.0025892258"><time>2026-04-22T09:22:08Z</time></trkpt><trkpt lat="59.0956306458" lon="30.0025892258"><time>2026-04-22T09:22:10Z</time></trkpt><trkpt lat="59.0956306458" lon="30.0025892258"><time>2026-04-22T09:22:13Z</time></trkpt><trkpt lat="59.0956306458" lon="30.0025892258"><time>2026-04-22T09:22:15Z</time></trkpt><trkpt lat="59.0956521034" lon="30.0025892258"><time>2026-04-22T09:22:18Z</time></trkpt><trkpt lat="59.0956306458" lon="30.0025677681"><time>2026-04-22T09:22:20Z</time></trkpt><trkpt lat="59.0956306458" lon="30.0025677681"><time>2026-04-22T09:22:23Z</time></trkpt><trkpt lat="59.0956091881" lon="30.0025033951"><time>2026-04-22T09:22:25Z</time></trkpt><trkpt lat="59.0956091881" lon="30.0024390221"><time>2026-04-22T09:22:28Z</time></trkpt><trkpt lat="59.0956091881" lon="30.0023961067"><time>2026-04-22T09:22:30Z</time></trkpt><trkpt lat="59.0956091881" lon="30.0023961067"><time>2026-04-22T09:22:33Z</time></trkpt><trkpt lat="59.0956091881" lon="30.0023961067"><time>2026-04-22T09:22:35Z</time></trkpt><trkpt lat="59.0956091881" lon="30.0023961067"><time>2026-04-22T09:22:38Z</time></trkpt><trkpt lat="59.0956091881" lon="30.0023961067"><time>2026-04-22T09:22:40Z</time></trkpt><trkpt lat="59.0956091881" lon="30.0023961067"><time>2026-04-22T09:22:43Z</time></trkpt><trkpt lat="59.0956306458" lon="30.0023102760"><time>2026-04-22T09:22:45Z</time></trkpt><trkpt lat="59.0956306458" lon="30.0022673607"><time>2026-04-22T09:22:48Z</time></trkpt><trkpt lat="59.0956306458" lon="30.0021815300"><time>2026-04-22T09:22:50Z</time></trkpt><trkpt lat="59.0956306458" lon="30.0022029877"><time>2026-04-22T09:22:53Z</time></trkpt><trkpt lat="59.0956091881" lon="30.0021815300"><time>2026-04-22T09:22:55Z</time></trkpt><trkpt lat="59.0955877304" lon="30.0021600723"><time>2026-04-22T09:22:58Z</time></trkpt><trkpt lat="59.0955662727" lon="30.0021386147"><time>2026-04-22T09:23:00Z</time></trkpt><trkpt lat="59.0955662727" lon="30.0021386147"><time>2026-04-22T09:23:03Z</time></trkpt><trkpt lat="59.0955662727" lon="30.0021386147"><time>2026-04-22T09:23:05Z</time></trkpt><trkpt lat="59.0955662727" lon="30.0021386147"><time>2026-04-22T09:23:08Z</time></trkpt><trkpt lat="59.0955662727" lon="30.0021386147"><time>2026-04-22T09:23:10Z</time></trkpt><trkpt lat="59.0955662727" lon="30.0021386147"><time>2026-04-22T09:23:13Z</time></trkpt><trkpt lat="59.0955662727" lon="30.0021386147"><time>2026-04-22T09:23:15Z</time></trkpt><trkpt lat="59.0955662727" lon="30.0021386147"><time>2026-04-22T09:23:18Z</time></trkpt><trkpt lat="59.0955662727" lon="30.0021386147"><time>2026-04-22T09:23:20Z</time></trkpt><trkpt lat="59.0955662727" lon="30.0021386147"><time>2026-04-22T09:23:23Z</time></trkpt><trkpt lat="59.0955448151" lon="30.0021171570"><time>2026-04-22T09:23:25Z</time></trkpt><trkpt lat="59.0955448151" lon="30.0020527840"><time>2026-04-22T09:23:28Z</time></trkpt><trkpt lat="59.0955448151" lon="30.0020098686"><time>2026-04-22T09:23:30Z</time></trkpt><trkpt lat="59.0955662727" lon="30.0019669533"><time>2026-04-22T09:23:33Z</time></trkpt><trkpt lat="59.0955662727" lon="30.0019454956"><time>2026-04-22T09:23:35Z</time></trkpt><trkpt lat="59.0955662727" lon="30.0019454956"><time>2026-04-22T09:23:38Z</time></trkpt><trkpt lat="59.0955662727" lon="30.0019669533"><time>2026-04-22T09:23:40Z</time></trkpt><trkpt lat="59.0955448151" lon="30.0019454956"><time>2026-04-22T09:23:43Z</time></trkpt><trkpt lat="59.0955448151" lon="30.0019454956"><time>2026-04-22T09:23:45Z</time></trkpt><trkpt lat="59.0955448151" lon="30.0019240379"><time>2026-04-22T09:23:48Z</time></trkpt><trkpt lat="59.0955448151" lon="30.0018811226"><time>2026-04-22T09:23:50Z</time></trkpt><trkpt lat="59.0955662727" lon="30.0018167496"><time>2026-04-22T09:23:53Z</time></trkpt><trkpt lat="59.0955662727" lon="30.0017738342"><time>2026-04-22T09:23:55Z</time></trkpt><trkpt lat="59.0955662727" lon="30.0017523766"><time>2026-04-22T09:23:58Z</time></trkpt><trkpt lat="59.0955662727" lon="30.0017523766"><time>2026-04-22T09:24:00Z</time></trkpt><trkpt lat="59.0955662727" lon="30.0017523766"><time>2026-04-22T09:24:03Z</time></trkpt><trkpt lat="59.0955448151" lon="30.0017952919"><time>2026-04-22T09:24:05Z</time></trkpt><trkpt lat="59.0955018997" lon="30.0017523766"><time>2026-04-22T09:24:08Z</time></trkpt><trkpt lat="59.0954804420" lon="30.0017309189"><time>2026-04-22T09:24:10Z</time></trkpt><trkpt lat="59.0954375267" lon="30.0016880035"><time>2026-04-22T09:24:13Z</time></trkpt><trkpt lat="59.0954375267" lon="30.0016665459"><time>2026-04-22T09:24:15Z</time></trkpt><trkpt lat="59.0954160690" lon="30.0016450882"><time>2026-04-22T09:24:18Z</time></trkpt><trkpt lat="59.0954375267" lon="30.0015592575"><time>2026-04-22T09:24:20Z</time></trkpt><trkpt lat="59.0954589844" lon="30.0015377998"><time>2026-04-22T09:24:23Z</time></trkpt><trkpt lat="59.0954804420" lon="30.0015592575"><time>2026-04-22T09:24:25Z</time></trkpt><trkpt lat="59.0954804420" lon="30.0015592575"><time>2026-04-22T09:24:28Z</time></trkpt><trkpt lat="59.0954804420" lon="30.0015592575"><time>2026-04-22T09:24:30Z</time></trkpt><trkpt lat="59.0955018997" lon="30.0015377998"><time>2026-04-22T09:24:33Z</time></trkpt><trkpt lat="59.0955018997" lon="30.0014305115"><time>2026-04-22T09:24:35Z</time></trkpt><trkpt lat="59.0955018997" lon="30.0013875961"><time>2026-04-22T09:24:38Z</time></trkpt><trkpt lat="59.0954804420" lon="30.0013446808"><time>2026-04-22T09:24:40Z</time></trkpt><trkpt lat="59.0954804420" lon="30.0013232231"><time>2026-04-22T09:24:43Z</time></trkpt><trkpt lat="59.0954804420" lon="30.0013232231"><time>2026-04-22T09:24:45Z</time></trkpt><trkpt lat="59.0954804420" lon="30.0013232231"><time>2026-04-22T09:24:48Z</time></trkpt><trkpt lat="59.0954804420" lon="30.0013232231"><time>2026-04-22T09:24:50Z</time></trkpt><trkpt lat="59.0954804420" lon="30.0013232231"><time>2026-04-22T09:24:53Z</time></trkpt><trkpt lat="59.0954804420" lon="30.0013232231"><time>2026-04-22T09:24:55Z</time></trkpt><trkpt lat="59.0954804420" lon="30.0013232231"><time>2026-04-22T09:24:58Z</time></trkpt><trkpt lat="59.0954804420" lon="30.0013232231"><time>2026-04-22T09:25:00Z</time></trkpt><trkpt lat="59.0954804420" lon="30.0013232231"><time>2026-04-22T09:25:03Z</time></trkpt><trkpt lat="59.0954804420" lon="30.0013232231"><time>2026-04-22T09:25:05Z</time></trkpt><trkpt lat="59.0954804420" lon="30.0013232231"><time>2026-04-22T09:25:08Z</time></trkpt><trkpt lat="59.0954804420" lon="30.0013232231"><time>2026-04-22T09:25:10Z</time></trkpt><trkpt lat="59.0954804420" lon="30.0013661385"><time>2026-04-22T09:25:13Z</time></trkpt><trkpt lat="59.0955018997" lon="30.0013446808"><time>2026-04-22T09:25:15Z</time></trkpt><trkpt lat="59.0954804420" lon="30.0013232231"><time>2026-04-22T09:25:18Z</time></trkpt><trkpt lat="59.0954804420" lon="30.0013232231"><time>2026-04-22T09:25:20Z</time></trkpt><trkpt lat="59.0954804420" lon="30.0013232231"><time>2026-04-22T09:25:23Z</time></trkpt><trkpt lat="59.0954804420" lon="30.0013232231"><time>2026-04-22T09:25:25Z</time></trkpt><trkpt lat="59.0954804420" lon="30.0013232231"><time>2026-04-22T09:25:28Z</time></trkpt><trkpt lat="59.0954804420" lon="30.0013232231"><time>2026-04-22T09:25:30Z</time></trkpt><trkpt lat="59.0954804420" lon="30.0013232231"><time>2026-04-22T09:25:33Z</time></trkpt><trkpt lat="59.0954804420" lon="30.0013232231"><time>2026-04-22T09:25:35Z</time></trkpt><trkpt lat="59.0954804420" lon="30.0013232231"><time>2026-04-22T09:25:38Z</time></trkpt><trkpt lat="59.0954804420" lon="30.0013232231"><time>2026-04-22T09:25:40Z</time></trkpt><trkpt lat="59.0955233574" lon="30.0012803078"><time>2026-04-22T09:25:43Z</time></trkpt><trkpt lat="59.0955662727" lon="30.0012373924"><time>2026-04-22T09:25:45Z</time></trkpt><trkpt lat="59.0955662727" lon="30.0011944771"><time>2026-04-22T09:25:48Z</time></trkpt><trkpt lat="59.0955662727" lon="30.0011944771"><time>2026-04-22T09:25:50Z</time></trkpt><trkpt lat="59.0955662727" lon="30.0011944771"><time>2026-04-22T09:25:53Z</time></trkpt><trkpt lat="59.0955877304" lon="30.0011730194"><time>2026-04-22T09:25:55Z</time></trkpt><trkpt lat="59.0955877304" lon="30.0011515617"><time>2026-04-22T09:25:58Z</time></trkpt><trkpt lat="59.0955877304" lon="30.0011301041"><time>2026-04-22T09:26:00Z</time></trkpt><trkpt lat="59.0955877304" lon="30.0011301041"><time>2026-04-22T09:26:03Z</time></trkpt><trkpt lat="59.0955877304" lon="30.0011301041"><time>2026-04-22T09:26:05Z</time></trkpt><trkpt lat="59.0956091881" lon="30.0011086464"><time>2026-04-22T09:26:08Z</time></trkpt><trkpt lat="59.0956735611" lon="30.0010657310"><time>2026-04-22T09:26:10Z</time></trkpt><trkpt lat="59.0956950188" lon="30.0010442734"><time>2026-04-22T09:26:13Z</time></trkpt><trkpt lat="59.0957593918" lon="30.0009799004"><time>2026-04-22T09:26:15Z</time></trkpt><trkpt lat="59.0957808495" lon="30.0009584427"><time>2026-04-22T09:26:18Z</time></trkpt><trkpt lat="59.0957808495" lon="30.0009369850"><time>2026-04-22T09:26:20Z</time></trkpt><trkpt lat="59.0957808495" lon="30.0009369850"><time>2026-04-22T09:26:23Z</time></trkpt><trkpt lat="59.0957808495" lon="30.0009369850"><time>2026-04-22T09:26:25Z</time></trkpt><trkpt lat="59.0957808495" lon="30.0009369850"><time>2026-04-22T09:26:28Z</time></trkpt><trkpt lat="59.0957808495" lon="30.0009584427"><time>2026-04-22T09:26:30Z</time></trkpt><trkpt lat="59.0957808495" lon="30.0009369850"><time>2026-04-22T09:26:33Z</time></trkpt><trkpt lat="59.0957593918" lon="30.0008511543"><time>2026-04-22T09:26:35Z</time></trkpt><trkpt lat="59.0957593918" lon="30.0008296967"><time>2026-04-22T09:26:38Z</time></trkpt><trkpt lat="59.0957593918" lon="30.0008082390"><time>2026-04-22T09:26:40Z</time></trkpt><trkpt lat="59.0957593918" lon="30.0008296967"><time>2026-04-22T09:26:43Z</time></trkpt><trkpt lat="59.0957379341" lon="30.0009155273"><time>2026-04-22T09:26:45Z</time></trkpt><trkpt lat="59.0957379341" lon="30.0009369850"><time>2026-04-22T09:26:48Z</time></trkpt><trkpt lat="59.0957593918" lon="30.0009155273"><time>2026-04-22T09:26:50Z</time></trkpt><trkpt lat="59.0957808495" lon="30.0008940697"><time>2026-04-22T09:26:53Z</time></trkpt><trkpt lat="59.0958023071" lon="30.0008511543"><time>2026-04-22T09:26:55Z</time></trkpt><trkpt lat="59.0958237648" lon="30.0008296967"><time>2026-04-22T09:26:58Z</time></trkpt><trkpt lat="59.0958452225" lon="30.0008296967"><time>2026-04-22T09:27:00Z</time></trkpt><trkpt lat="59.0958452225" lon="30.0008296967"><time>2026-04-22T09:27:03Z</time></trkpt><trkpt lat="59.0958452225" lon="30.0008511543"><time>2026-04-22T09:27:05Z</time></trkpt><trkpt lat="59.0958452225" lon="30.0008511543"><time>2026-04-22T09:27:08Z</time></trkpt><trkpt lat="59.0958452225" lon="30.0008511543"><time>2026-04-22T09:27:10Z</time></trkpt><trkpt lat="59.0958452225" lon="30.0008511543"><time>2026-04-22T09:27:13Z</time></trkpt><trkpt lat="59.0958666801" lon="30.0008511543"><time>2026-04-22T09:27:15Z</time></trkpt><trkpt lat="59.0958666801" lon="30.0008511543"><time>2026-04-22T09:27:18Z</time></trkpt><trkpt lat="59.0958666801" lon="30.0008511543"><time>2026-04-22T09:27:20Z</time></trkpt><trkpt lat="59.0958666801" lon="30.0008511543"><time>2026-04-22T09:27:23Z</time></trkpt><trkpt lat="59.0959095955" lon="30.0008940697"><time>2026-04-22T09:27:25Z</time></trkpt><trkpt lat="59.0959310532" lon="30.0009155273"><time>2026-04-22T09:27:28Z</time></trkpt><trkpt lat="59.0959525108" lon="30.0009369850"><time>2026-04-22T09:27:30Z</time></trkpt><trkpt lat="59.0959525108" lon="30.0009155273"><time>2026-04-22T09:27:33Z</time></trkpt><trkpt lat="59.0959739685" lon="30.0008296967"><time>2026-04-22T09:27:35Z</time></trkpt><trkpt lat="59.0959954262" lon="30.0007867813"><time>2026-04-22T09:27:38Z</time></trkpt><trkpt lat="59.0960168839" lon="30.0007438660"><time>2026-04-22T09:27:40Z</time></trkpt><trkpt lat="59.0960168839" lon="30.0007224083"><time>2026-04-22T09:27:43Z</time></trkpt><trkpt lat="59.0960597992" lon="30.0006580353"><time>2026-04-22T09:27:45Z</time></trkpt><trkpt lat="59.0960597992" lon="30.0006365776"><time>2026-04-22T09:27:48Z</time></trkpt><trkpt lat="59.0960597992" lon="30.0006365776"><time>2026-04-22T09:27:50Z</time></trkpt><trkpt lat="59.0960597992" lon="30.0006365776"><time>2026-04-22T09:27:53Z</time></trkpt><trkpt lat="59.0960812569" lon="30.0006580353"><time>2026-04-22T09:27:55Z</time></trkpt><trkpt lat="59.0960812569" lon="30.0007009506"><time>2026-04-22T09:27:58Z</time></trkpt><trkpt lat="59.0960812569" lon="30.0007438660"><time>2026-04-22T09:28:00Z</time></trkpt><trkpt lat="59.0960812569" lon="30.0007438660"><time>2026-04-22T09:28:03Z</time></trkpt><trkpt lat="59.0960812569" lon="30.0007438660"><time>2026-04-22T09:28:05Z</time></trkpt><trkpt lat="59.0960812569" lon="30.0007438660"><time>2026-04-22T09:28:08Z</time></trkpt><trkpt lat="59.0961027145" lon="30.0007224083"><time>2026-04-22T09:28:10Z</time></trkpt><trkpt lat="59.0961027145" lon="30.0007224083"><time>2026-04-22T09:28:13Z</time></trkpt><trkpt lat="59.0961027145" lon="30.0007224083"><time>2026-04-22T09:28:15Z</time></trkpt><trkpt lat="59.0961241722" lon="30.0007009506"><time>2026-04-22T09:28:18Z</time></trkpt><trkpt lat="59.0961241722" lon="30.0007009506"><time>2026-04-22T09:28:20Z</time></trkpt><trkpt lat="59.0961241722" lon="30.0007009506"><time>2026-04-22T09:28:23Z</time></trkpt><trkpt lat="59.0961241722" lon="30.0007009506"><time>2026-04-22T09:28:25Z</time></trkpt><trkpt lat="59.0961241722" lon="30.0007009506"><time>2026-04-22T09:28:28Z</time></trkpt><trkpt lat="59.0961241722" lon="30.0007009506"><time>2026-04-22T09:28:30Z</time></trkpt><trkpt lat="59.0961241722" lon="30.0007009506"><time>2026-04-22T09:28:33Z</time></trkpt><trkpt lat="59.0961241722" lon="30.0007009506"><time>2026-04-22T09:28:35Z</time></trkpt><trkpt lat="59.0961241722" lon="30.0007009506"><time>2026-04-22T09:28:38Z</time></trkpt><trkpt lat="59.0961241722" lon="30.0007653236"><time>2026-04-22T09:28:40Z</time></trkpt><trkpt lat="59.0961241722" lon="30.0008082390"><time>2026-04-22T09:28:43Z</time></trkpt><trkpt lat="59.0961456299" lon="30.0008726120"><time>2026-04-22T09:28:45Z</time></trkpt><trkpt lat="59.0961456299" lon="30.0008940697"><time>2026-04-22T09:28:48Z</time></trkpt><trkpt lat="59.0961670876" lon="30.0008726120"><time>2026-04-22T09:28:50Z</time></trkpt><trkpt lat="59.0961670876" lon="30.0008082390"><time>2026-04-22T09:28:53Z</time></trkpt><trkpt lat="59.0961885452" lon="30.0007653236"><time>2026-04-22T09:28:55Z</time></trkpt><trkpt lat="59.0961885452" lon="30.0007653236"><time>2026-04-22T09:28:58Z</time></trkpt><trkpt lat="59.0961885452" lon="30.0007438660"><time>2026-04-22T09:29:00Z</time></trkpt><trkpt lat="59.0961885452" lon="30.0007009506"><time>2026-04-22T09:29:03Z</time></trkpt><trkpt lat="59.0961670876" lon="30.0007009506"><time>2026-04-22T09:29:05Z</time></trkpt><trkpt lat="59.0961670876" lon="30.0007224083"><time>2026-04-22T09:29:08Z</time></trkpt><trkpt lat="59.0961456299" lon="30.0007653236"><time>2026-04-22T09:29:10Z</time></trkpt><trkpt lat="59.0961670876" lon="30.0007653236"><time>2026-04-22T09:29:13Z</time></trkpt><trkpt lat="59.0961885452" lon="30.0007867813"><time>2026-04-22T09:29:15Z</time></trkpt><trkpt lat="59.0961885452" lon="30.0008296967"><time>2026-04-22T09:29:18Z</time></trkpt><trkpt lat="59.0961670876" lon="30.0008940697"><time>2026-04-22T09:29:20Z</time></trkpt><trkpt lat="59.0961670876" lon="30.0008726120"><time>2026-04-22T09:29:23Z</time></trkpt><trkpt lat="59.0961670876" lon="30.0008940697"><time>2026-04-22T09:29:25Z</time></trkpt><trkpt lat="59.0961456299" lon="30.0009155273"><time>2026-04-22T09:29:28Z</time></trkpt><trkpt lat="59.0961241722" lon="30.0009799004"><time>2026-04-22T09:29:30Z</time></trkpt><trkpt lat="59.0961241722" lon="30.0010228157"><time>2026-04-22T09:29:33Z</time></trkpt><trkpt lat="59.0961241722" lon="30.0010442734"><time>2026-04-22T09:29:35Z</time></trkpt><trkpt lat="59.0961241722" lon="30.0010442734"><time>2026-04-22T09:29:38Z</time></trkpt><trkpt lat="59.0961241722" lon="30.0010442734"><time>2026-04-22T09:29:40Z</time></trkpt><trkpt lat="59.0961241722" lon="30.0010442734"><time>2026-04-22T09:29:43Z</time></trkpt><trkpt lat="59.0961241722" lon="30.0010442734"><time>2026-04-22T09:29:45Z</time></trkpt><trkpt lat="59.0961241722" lon="30.0010442734"><time>2026-04-22T09:29:48Z</time></trkpt><trkpt lat="59.0961241722" lon="30.0010442734"><time>2026-04-22T09:29:50Z</time></trkpt><trkpt lat="59.0961241722" lon="30.0010442734"><time>2026-04-22T09:29:53Z</time></trkpt><trkpt lat="59.0961241722" lon="30.0010442734"><time>2026-04-22T09:29:55Z</time></trkpt><trkpt lat="59.0961241722" lon="30.0010228157"><time>2026-04-22T09:29:58Z</time></trkpt><trkpt lat="59.0961241722" lon="30.0010013580"><time>2026-04-22T09:30:00Z</time></trkpt><trkpt lat="59.0961241722" lon="30.0010013580"><time>2026-04-22T09:30:03Z</time></trkpt><trkpt lat="59.0961456299" lon="30.0010228157"><time>2026-04-22T09:30:05Z</time></trkpt><trkpt lat="59.0961456299" lon="30.0010228157"><time>2026-04-22T09:30:08Z</time></trkpt><trkpt lat="59.0961670876" lon="30.0010013580"><time>2026-04-22T09:30:10Z</time></trkpt><trkpt lat="59.0961670876" lon="30.0010013580"><time>2026-04-22T09:30:13Z</time></trkpt><trkpt lat="59.0961885452" lon="30.0009584427"><time>2026-04-22T09:30:15Z</time></trkpt><trkpt lat="59.0962100029" lon="30.0009369850"><time>2026-04-22T09:30:18Z</time></trkpt><trkpt lat="59.0962100029" lon="30.0009369850"><time>2026-04-22T09:30:20Z</time></trkpt><trkpt lat="59.0962100029" lon="30.0009369850"><time>2026-04-22T09:30:23Z</time></trkpt><trkpt lat="59.0962314606" lon="30.0009155273"><time>2026-04-22T09:30:25Z</time></trkpt><trkpt lat="59.0962314606" lon="30.0008940697"><time>2026-04-22T09:30:28Z</time></trkpt><trkpt lat="59.0962529182" lon="30.0008296967"><time>2026-04-22T09:30:30Z</time></trkpt><trkpt lat="59.0962529182" lon="30.0007867813"><time>2026-04-22T09:30:33Z</time></trkpt><trkpt lat="59.0962529182" lon="30.0007867813"><time>2026-04-22T09:30:35Z</time></trkpt><trkpt lat="59.0962743759" lon="30.0007438660"><time>2026-04-22T09:30:38Z</time></trkpt><trkpt lat="59.0962743759" lon="30.0006794930"><time>2026-04-22T09:30:40Z</time></trkpt><trkpt lat="59.0962743759" lon="30.0006580353"><time>2026-04-22T09:30:43Z</time></trkpt><trkpt lat="59.0962743759" lon="30.0006580353"><time>2026-04-22T09:30:45Z</time></trkpt><trkpt lat="59.0962743759" lon="30.0006365776"><time>2026-04-22T09:30:48Z</time></trkpt><trkpt lat="59.0962958336" lon="30.0006365776"><time>2026-04-22T09:30:50Z</time></trkpt><trkpt lat="59.0962958336" lon="30.0006365776"><time>2026-04-22T09:30:53Z</time></trkpt><trkpt lat="59.0963172913" lon="30.0006151199"><time>2026-04-22T09:30:55Z</time></trkpt><trkpt lat="59.0963602066" lon="30.0006151199"><time>2026-04-22T09:30:58Z</time></trkpt><trkpt lat="59.0963816643" lon="30.0006151199"><time>2026-04-22T09:31:00Z</time></trkpt><trkpt lat="59.0964031219" lon="30.0006151199"><time>2026-04-22T09:31:03Z</time></trkpt><trkpt lat="59.0964031219" lon="30.0006151199"><time>2026-04-22T09:31:05Z</time></trkpt><trkpt lat="59.0964031219" lon="30.0006151199"><time>2026-04-22T09:31:08Z</time></trkpt><trkpt lat="59.0964245796" lon="30.0006365776"><time>2026-04-22T09:31:10Z</time></trkpt><trkpt lat="59.0964460373" lon="30.0006580353"><time>2026-04-22T09:31:13Z</time></trkpt><trkpt lat="59.0964889526" lon="30.0006580353"><time>2026-04-22T09:31:15Z</time></trkpt><trkpt lat="59.0965104103" lon="30.0006580353"><time>2026-04-22T09:31:18Z</time></trkpt><trkpt lat="59.0965104103" lon="30.0006365776"><time>2026-04-22T09:31:20Z</time></trkpt><trkpt lat="59.0965104103" lon="30.0006365776"><time>2026-04-22T09:31:23Z</time></trkpt><trkpt lat="59.0965104103" lon="30.0006365776"><time>2026-04-22T09:31:25Z</time></trkpt><trkpt lat="59.0965104103" lon="30.0006151199"><time>2026-04-22T09:31:28Z</time></trkpt><trkpt lat="59.0965104103" lon="30.0006151199"><time>2026-04-22T09:31:30Z</time></trkpt><trkpt lat="59.0965104103" lon="30.0005936623"><time>2026-04-22T09:31:33Z</time></trkpt><trkpt lat="59.0965104103" lon="30.0005936623"><time>2026-04-22T09:31:35Z</time></trkpt><trkpt lat="59.0965104103" lon="30.0005936623"><time>2026-04-22T09:31:38Z</time></trkpt><trkpt lat="59.0965318680" lon="30.0006151199"><time>2026-04-22T09:31:40Z</time></trkpt><trkpt lat="59.0965318680" lon="30.0006365776"><time>2026-04-22T09:31:43Z</time></trkpt><trkpt lat="59.0965533257" lon="30.0006580353"><time>2026-04-22T09:31:45Z</time></trkpt><trkpt lat="59.0965962410" lon="30.0007224083"><time>2026-04-22T09:31:48Z</time></trkpt><trkpt lat="59.0966176987" lon="30.0007224083"><time>2026-04-22T09:31:50Z</time></trkpt><trkpt lat="59.0966176987" lon="30.0006794930"><time>2026-04-22T09:31:53Z</time></trkpt><trkpt lat="59.0966176987" lon="30.0005936623"><time>2026-04-22T09:31:55Z</time></trkpt><trkpt lat="59.0966176987" lon="30.0005722046"><time>2026-04-22T09:31:58Z</time></trkpt><trkpt lat="59.0966176987" lon="30.0005292892"><time>2026-04-22T09:32:00Z</time></trkpt><trkpt lat="59.0966176987" lon="30.0005078316"><time>2026-04-22T09:32:03Z</time></trkpt><trkpt lat="59.0966391563" lon="30.0004649162"><time>2026-04-22T09:32:05Z</time></trkpt><trkpt lat="59.0966606140" lon="30.0004649162"><time>2026-04-22T09:32:08Z</time></trkpt><trkpt lat="59.0967035294" lon="30.0004220009"><time>2026-04-22T09:32:10Z</time></trkpt><trkpt lat="59.0967249870" lon="30.0003790855"><time>2026-04-22T09:32:13Z</time></trkpt><trkpt lat="59.0967464447" lon="30.0003361702"><time>2026-04-22T09:32:15Z</time></trkpt><trkpt lat="59.0967679024" lon="30.0003361702"><time>2026-04-22T09:32:18Z</time></trkpt><trkpt lat="59.0967679024" lon="30.0003361702"><time>2026-04-22T09:32:20Z</time></trkpt><trkpt lat="59.0967679024" lon="30.0003361702"><time>2026-04-22T09:32:23Z</time></trkpt><trkpt lat="59.0967679024" lon="30.0003147125"><time>2026-04-22T09:32:25Z</time></trkpt><trkpt lat="59.0967679024" lon="30.0003147125"><time>2026-04-22T09:32:28Z</time></trkpt><trkpt lat="59.0967679024" lon="30.0003147125"><time>2026-04-22T09:32:30Z</time></trkpt><trkpt lat="59.0967679024" lon="30.0003147125"><time>2026-04-22T09:32:33Z</time></trkpt><trkpt lat="59.0967679024" lon="30.0003147125"><time>2026-04-22T09:32:35Z</time></trkpt><trkpt lat="59.0967679024" lon="30.0003147125"><time>2026-04-22T09:32:38Z</time></trkpt><trkpt lat="59.0967679024" lon="30.0003147125"><time>2026-04-22T09:32:40Z</time></trkpt><trkpt lat="59.0967679024" lon="30.0002932549"><time>2026-04-22T09:32:43Z</time></trkpt><trkpt lat="59.0967893600" lon="30.0002932549"><time>2026-04-22T09:32:45Z</time></trkpt><trkpt lat="59.0967893600" lon="30.0002717972"><time>2026-04-22T09:32:48Z</time></trkpt><trkpt lat="59.0968108177" lon="30.0002717972"><time>2026-04-22T09:32:50Z</time></trkpt><trkpt lat="59.0968108177" lon="30.0002717972"><time>2026-04-22T09:32:53Z</time></trkpt><trkpt lat="59.0968108177" lon="30.0002717972"><time>2026-04-22T09:32:55Z</time></trkpt><trkpt lat="59.0968108177" lon="30.0002717972"><time>2026-04-22T09:32:58Z</time></trkpt><trkpt lat="59.0968108177" lon="30.0002717972"><time>2026-04-22T09:33:00Z</time></trkpt><trkpt lat="59.0968322754" lon="30.0002503395"><time>2026-04-22T09:33:03Z</time></trkpt><trkpt lat="59.0968322754" lon="30.0001859665"><time>2026-04-22T09:33:05Z</time></trkpt><trkpt lat="59.0968322754" lon="30.0001645088"><time>2026-04-22T09:33:08Z</time></trkpt><trkpt lat="59.0968537331" lon="30.0001430511"><time>2026-04-22T09:33:10Z</time></trkpt><trkpt lat="59.0968751907" lon="30.0000572205"><time>2026-04-22T09:33:13Z</time></trkpt><trkpt lat="59.0969181061" lon="29.9999499321"><time>2026-04-22T09:33:15Z</time></trkpt><trkpt lat="59.0969181061" lon="29.9999284744"><time>2026-04-22T09:33:18Z</time></trkpt><trkpt lat="59.0969610214" lon="29.9999713898"><time>2026-04-22T09:33:20Z</time></trkpt><trkpt lat="59.0969610214" lon="29.9999499321"><time>2026-04-22T09:33:23Z</time></trkpt><trkpt lat="59.0969824791" lon="29.9999284744"><time>2026-04-22T09:33:25Z</time></trkpt><trkpt lat="59.0970039368" lon="29.9999284744"><time>2026-04-22T09:33:28Z</time></trkpt><trkpt lat="59.0970253944" lon="29.9999499321"><time>2026-04-22T09:33:30Z</time></trkpt><trkpt lat="59.0970253944" lon="29.9999499321"><time>2026-04-22T09:33:33Z</time></trkpt><trkpt lat="59.0970039368" lon="29.9999713898"><time>2026-04-22T09:33:35Z</time></trkpt><trkpt lat="59.0970039368" lon="29.9999713898"><time>2026-04-22T09:33:38Z</time></trkpt><trkpt lat="59.0970039368" lon="29.9999713898"><time>2026-04-22T09:33:40Z</time></trkpt><trkpt lat="59.0970253944" lon="29.9999713898"><time>2026-04-22T09:33:43Z</time></trkpt><trkpt lat="59.0970683098" lon="29.9999713898"><time>2026-04-22T09:33:45Z</time></trkpt><trkpt lat="59.0970468521" lon="29.9999499321"><time>2026-04-22T09:33:48Z</time></trkpt><trkpt lat="59.0970253944" lon="29.9999070168"><time>2026-04-22T09:33:50Z</time></trkpt><trkpt lat="59.0970253944" lon="29.9998855591"><time>2026-04-22T09:33:53Z</time></trkpt><trkpt lat="59.0970253944" lon="29.9998855591"><time>2026-04-22T09:33:55Z</time></trkpt><trkpt lat="59.0970039368" lon="29.9999070168"><time>2026-04-22T09:33:58Z</time></trkpt><trkpt lat="59.0970039368" lon="29.9999928474"><time>2026-04-22T09:34:00Z</time></trkpt><trkpt lat="59.0970468521" lon="29.9999713898"><time>2026-04-22T09:34:03Z</time></trkpt><trkpt lat="59.0970897675" lon="29.9998855591"><time>2026-04-22T09:34:05Z</time></trkpt><trkpt lat="59.0971112251" lon="29.9998426437"><time>2026-04-22T09:34:08Z</time></trkpt><trkpt lat="59.0971112251" lon="29.9998426437"><time>2026-04-22T09:34:10Z</time></trkpt><trkpt lat="59.0971112251" lon="29.9998426437"><time>2026-04-22T09:34:13Z</time></trkpt><trkpt lat="59.0971326828" lon="29.9997782707"><time>2026-04-22T09:34:15Z</time></trkpt><trkpt lat="59.0971326828" lon="29.9997782707"><time>2026-04-22T09:34:18Z</time></trkpt><trkpt lat="59.0971541405" lon="29.9997782707"><time>2026-04-22T09:34:20Z</time></trkpt><trkpt lat="59.0971755981" lon="29.9997997284"><time>2026-04-22T09:34:23Z</time></trkpt><trkpt lat="59.0971755981" lon="29.9997997284"><time>2026-04-22T09:34:25Z</time></trkpt><trkpt lat="59.0971541405" lon="29.9998211861"><time>2026-04-22T09:34:28Z</time></trkpt><trkpt lat="59.0971755981" lon="29.9998641014"><time>2026-04-22T09:34:30Z</time></trkpt><trkpt lat="59.0971970558" lon="29.9998641014"><time>2026-04-22T09:34:33Z</time></trkpt><trkpt lat="59.0972185135" lon="29.9998426437"><time>2026-04-22T09:34:35Z</time></trkpt><trkpt lat="59.0972399712" lon="29.9998211861"><time>2026-04-22T09:34:38Z</time></trkpt><trkpt lat="59.0972399712" lon="29.9998211861"><time>2026-04-22T09:34:40Z</time></trkpt><trkpt lat="59.0972399712" lon="29.9998211861"><time>2026-04-22T09:34:43Z</time></trkpt><trkpt lat="59.0972399712" lon="29.9997782707"><time>2026-04-22T09:34:45Z</time></trkpt><trkpt lat="59.0972399712" lon="29.9997353554"><time>2026-04-22T09:34:48Z</time></trkpt><trkpt lat="59.0972614288" lon="29.9997568130"><time>2026-04-22T09:34:50Z</time></trkpt><trkpt lat="59.0972614288" lon="29.9997568130"><time>2026-04-22T09:34:53Z</time></trkpt><trkpt lat="59.0972614288" lon="29.9997568130"><time>2026-04-22T09:34:55Z</time></trkpt><trkpt lat="59.0972614288" lon="29.9997568130"><time>2026-04-22T09:34:58Z</time></trkpt><trkpt lat="59.0972828865" lon="29.9997353554"><time>2026-04-22T09:35:00Z</time></trkpt><trkpt lat="59.0973043442" lon="29.9997568130"><time>2026-04-22T09:35:03Z</time></trkpt><trkpt lat="59.0973258018" lon="29.9997782707"><time>2026-04-22T09:35:05Z</time></trkpt><trkpt lat="59.0973258018" lon="29.9998211861"><time>2026-04-22T09:35:08Z</time></trkpt><trkpt lat="59.0973472595" lon="29.9998855591"><time>2026-04-22T09:35:10Z</time></trkpt><trkpt lat="59.0973687172" lon="29.9998855591"><time>2026-04-22T09:35:13Z</time></trkpt><trkpt lat="59.0973901749" lon="29.9999070168"><time>2026-04-22T09:35:15Z</time></trkpt><trkpt lat="59.0973901749" lon="29.9999070168"><time>2026-04-22T09:35:18Z</time></trkpt><trkpt lat="59.0974330902" lon="29.9998855591"><time>2026-04-22T09:35:20Z</time></trkpt><trkpt lat="59.0974760056" lon="29.9998641014"><time>2026-04-22T09:35:23Z</time></trkpt><trkpt lat="59.0974760056" lon="29.9997997284"><time>2026-04-22T09:35:25Z</time></trkpt><trkpt lat="59.0974760056" lon="29.9997568130"><time>2026-04-22T09:35:28Z</time></trkpt><trkpt lat="59.0974974632" lon="29.9997138977"><time>2026-04-22T09:35:30Z</time></trkpt><trkpt lat="59.0975189209" lon="29.9996709824"><time>2026-04-22T09:35:33Z</time></trkpt><trkpt lat="59.0975403786" lon="29.9995851517"><time>2026-04-22T09:35:35Z</time></trkpt><trkpt lat="59.0975618362" lon="29.9995422363"><time>2026-04-22T09:35:38Z</time></trkpt><trkpt lat="59.0975832939" lon="29.9994778633"><time>2026-04-22T09:35:40Z</time></trkpt><trkpt lat="59.0976262093" lon="29.9994349480"><time>2026-04-22T09:35:43Z</time></trkpt><trkpt lat="59.0976476669" lon="29.9994349480"><time>2026-04-22T09:35:45Z</time></trkpt><trkpt lat="59.0976476669" lon="29.9994349480"><time>2026-04-22T09:35:48Z</time></trkpt><trkpt lat="59.0976476669" lon="29.9994349480"><time>2026-04-22T09:35:50Z</time></trkpt><trkpt lat="59.0976476669" lon="29.9994349480"><time>2026-04-22T09:35:53Z</time></trkpt><trkpt lat="59.0976476669" lon="29.9994349480"><time>2026-04-22T09:35:55Z</time></trkpt><trkpt lat="59.0976476669" lon="29.9994349480"><time>2026-04-22T09:35:58Z</time></trkpt><trkpt lat="59.0976476669" lon="29.9994349480"><time>2026-04-22T09:36:00Z</time></trkpt><trkpt lat="59.0976476669" lon="29.9994349480"><time>2026-04-22T09:36:03Z</time></trkpt><trkpt lat="59.0976476669" lon="29.9994349480"><time>2026-04-22T09:36:05Z</time></trkpt><trkpt lat="59.0976476669" lon="29.9994349480"><time>2026-04-22T09:36:08Z</time></trkpt><trkpt lat="59.0976476669" lon="29.9994349480"><time>2026-04-22T09:36:10Z</time></trkpt><trkpt lat="59.0976476669" lon="29.9994134903"><time>2026-04-22T09:36:13Z</time></trkpt><trkpt lat="59.0976476669" lon="29.9993920326"><time>2026-04-22T09:36:15Z</time></trkpt><trkpt lat="59.0976476669" lon="29.9993491173"><time>2026-04-22T09:36:18Z</time></trkpt><trkpt lat="59.0976262093" lon="29.9992632866"><time>2026-04-22T09:36:20Z</time></trkpt><trkpt lat="59.0976047516" lon="29.9992418289"><time>2026-04-22T09:36:23Z</time></trkpt><trkpt lat="59.0975832939" lon="29.9992418289"><time>2026-04-22T09:36:25Z</time></trkpt><trkpt lat="59.0976047516" lon="29.9992847443"><time>2026-04-22T09:36:28Z</time></trkpt><trkpt lat="59.0976047516" lon="29.9993491173"><time>2026-04-22T09:36:30Z</time></trkpt><trkpt lat="59.0976262093" lon="29.9994349480"><time>2026-04-22T09:36:33Z</time></trkpt><trkpt lat="59.0976047516" lon="29.9995207787"><time>2026-04-22T09:36:35Z</time></trkpt><trkpt lat="59.0976047516" lon="29.9995207787"><time>2026-04-22T09:36:38Z</time></trkpt><trkpt lat="59.0975832939" lon="29.9995422363"><time>2026-04-22T09:36:40Z</time></trkpt><trkpt lat="59.0975832939" lon="29.9995422363"><time>2026-04-22T09:36:43Z</time></trkpt><trkpt lat="59.0975832939" lon="29.9995207787"><time>2026-04-22T09:36:45Z</time></trkpt><trkpt lat="59.0975832939" lon="29.9995207787"><time>2026-04-22T09:36:48Z</time></trkpt><trkpt lat="59.0975832939" lon="29.9995207787"><time>2026-04-22T09:36:50Z</time></trkpt><trkpt lat="59.0975832939" lon="29.9995207787"><time>2026-04-22T09:36:53Z</time></trkpt><trkpt lat="59.0975832939" lon="29.9995207787"><time>2026-04-22T09:36:55Z</time></trkpt><trkpt lat="59.0975832939" lon="29.9995207787"><time>2026-04-22T09:36:58Z</time></trkpt><trkpt lat="59.0975832939" lon="29.9995207787"><time>2026-04-22T09:37:00Z</time></trkpt><trkpt lat="59.0975832939" lon="29.9995207787"><time>2026-04-22T09:37:03Z</time></trkpt><trkpt lat="59.0975832939" lon="29.9995207787"><time>2026-04-22T09:37:05Z</time></trkpt><trkpt lat="59.0975832939" lon="29.9995207787"><time>2026-04-22T09:37:08Z</time></trkpt><trkpt lat="59.0975832939" lon="29.9995207787"><time>2026-04-22T09:37:10Z</time></trkpt><trkpt lat="59.0975832939" lon="29.9995207787"><time>2026-04-22T09:37:13Z</time></trkpt><trkpt lat="59.0975832939" lon="29.9995207787"><time>2026-04-22T09:37:15Z</time></trkpt><trkpt lat="59.0975832939" lon="29.9995207787"><time>2026-04-22T09:37:18Z</time></trkpt><trkpt lat="59.0975832939" lon="29.9995207787"><time>2026-04-22T09:37:20Z</time></trkpt><trkpt lat="59.0975832939" lon="29.9995207787"><time>2026-04-22T09:37:23Z</time></trkpt><trkpt lat="59.0975832939" lon="29.9995207787"><time>2026-04-22T09:37:25Z</time></trkpt><trkpt lat="59.0975832939" lon="29.9995207787"><time>2026-04-22T09:37:28Z</time></trkpt><trkpt lat="59.0975832939" lon="29.9995207787"><time>2026-04-22T09:37:33Z</time></trkpt><trkpt lat="59.0975832939" lon="29.9995207787"><time>2026-04-22T09:37:35Z</time></trkpt><trkpt lat="59.0975832939" lon="29.9995207787"><time>2026-04-22T09:37:38Z</time></trkpt><trkpt lat="59.0975832939" lon="29.9995207787"><time>2026-04-22T09:37:40Z</time></trkpt><trkpt lat="59.0975832939" lon="29.9995207787"><time>2026-04-22T09:37:43Z</time></trkpt><trkpt lat="59.0975832939" lon="29.9995207787"><time>2026-04-22T09:37:45Z</time></trkpt><trkpt lat="59.0975832939" lon="29.9995207787"><time>2026-04-22T09:37:48Z</time></trkpt><trkpt lat="59.0975832939" lon="29.9995207787"><time>2026-04-22T09:37:53Z</time></trkpt><trkpt lat="59.0975832939" lon="29.9995207787"><time>2026-04-22T09:37:55Z</time></trkpt><trkpt lat="59.0975832939" lon="29.9995207787"><time>2026-04-22T09:37:58Z</time></trkpt><trkpt lat="59.0975832939" lon="29.9995207787"><time>2026-04-22T09:38:00Z</time></trkpt><trkpt lat="59.0975832939" lon="29.9995207787"><time>2026-04-22T09:38:03Z</time></trkpt><trkpt lat="59.0975832939" lon="29.9995207787"><time>2026-04-22T09:38:05Z</time></trkpt><trkpt lat="59.0975832939" lon="29.9995207787"><time>2026-04-22T09:38:08Z</time></trkpt><trkpt lat="59.0975832939" lon="29.9995207787"><time>2026-04-22T09:38:10Z</time></trkpt><trkpt lat="59.0975832939" lon="29.9995207787"><time>2026-04-22T09:38:13Z</time></trkpt><trkpt lat="59.0975832939" lon="29.9995207787"><time>2026-04-22T09:38:15Z</time></trkpt><trkpt lat="59.0975832939" lon="29.9995207787"><time>2026-04-22T09:38:18Z</time></trkpt><trkpt lat="59.0975832939" lon="29.9995207787"><time>2026-04-22T09:38:20Z</time></trkpt><trkpt lat="59.0975832939" lon="29.9995207787"><time>2026-04-22T09:38:23Z</time></trkpt><trkpt lat="59.0975618362" lon="29.9995636940"><time>2026-04-22T09:38:25Z</time></trkpt><trkpt lat="59.0975618362" lon="29.9995851517"><time>2026-04-22T09:38:28Z</time></trkpt><trkpt lat="59.0975618362" lon="29.9996280670"><time>2026-04-22T09:38:30Z</time></trkpt><trkpt lat="59.0975618362" lon="29.9996066093"><time>2026-04-22T09:38:33Z</time></trkpt><trkpt lat="59.0975832939" lon="29.9995422363"><time>2026-04-22T09:38:35Z</time></trkpt><trkpt lat="59.0975832939" lon="29.9995422363"><time>2026-04-22T09:38:38Z</time></trkpt><trkpt lat="59.0975832939" lon="29.9995422363"><time>2026-04-22T09:38:43Z</time></trkpt><trkpt lat="59.0975832939" lon="29.9995422363"><time>2026-04-22T09:38:45Z</time></trkpt><trkpt lat="59.0975832939" lon="29.9995422363"><time>2026-04-22T09:38:48Z</time></trkpt><trkpt lat="59.0975832939" lon="29.9995422363"><time>2026-04-22T09:38:50Z</time></trkpt><trkpt lat="59.0975832939" lon="29.9995422363"><time>2026-04-22T09:38:53Z</time></trkpt><trkpt lat="59.0975832939" lon="29.9995422363"><time>2026-04-22T09:38:55Z</time></trkpt><trkpt lat="59.0975832939" lon="29.9995422363"><time>2026-04-22T09:38:58Z</time></trkpt><trkpt lat="59.0975832939" lon="29.9995422363"><time>2026-04-22T09:39:00Z</time></trkpt><trkpt lat="59.0975832939" lon="29.9995422363"><time>2026-04-22T09:39:03Z</time></trkpt><trkpt lat="59.0975832939" lon="29.9995422363"><time>2026-04-22T09:39:05Z</time></trkpt><trkpt lat="59.0975832939" lon="29.9995422363"><time>2026-04-22T09:39:08Z</time></trkpt><trkpt lat="59.0975832939" lon="29.9995422363"><time>2026-04-22T09:39:10Z</time></trkpt><trkpt lat="59.0975832939" lon="29.9995422363"><time>2026-04-22T09:39:13Z</time></trkpt><trkpt lat="59.0975832939" lon="29.9995422363"><time>2026-04-22T09:39:15Z</time></trkpt><trkpt lat="59.0975832939" lon="29.9995422363"><time>2026-04-22T09:39:18Z</time></trkpt><trkpt lat="59.0975832939" lon="29.9995422363"><time>2026-04-22T09:39:20Z</time></trkpt><trkpt lat="59.0975832939" lon="29.9995422363"><time>2026-04-22T09:39:23Z</time></trkpt><trkpt lat="59.0975832939" lon="29.9995422363"><time>2026-04-22T09:39:28Z</time></trkpt><trkpt lat="59.0975832939" lon="29.9995422363"><time>2026-04-22T09:39:30Z</time></trkpt><trkpt lat="59.0975832939" lon="29.9995422363"><time>2026-04-22T09:39:33Z</time></trkpt><trkpt lat="59.0975832939" lon="29.9995422363"><time>2026-04-22T09:39:35Z</time></trkpt><trkpt lat="59.0975832939" lon="29.9995422363"><time>2026-04-22T09:39:38Z</time></trkpt><trkpt lat="59.0975832939" lon="29.9995422363"><time>2026-04-22T09:39:40Z</time></trkpt><trkpt lat="59.0975832939" lon="29.9995422363"><time>2026-04-22T09:39:43Z</time></trkpt><trkpt lat="59.0975832939" lon="29.9995422363"><time>2026-04-22T09:39:45Z</time></trkpt><trkpt lat="59.0975832939" lon="29.9995422363"><time>2026-04-22T09:39:48Z</time></trkpt><trkpt lat="59.0975832939" lon="29.9995422363"><time>2026-04-22T09:39:53Z</time></trkpt><trkpt lat="59.0975832939" lon="29.9995636940"><time>2026-04-22T09:39:55Z</time></trkpt><trkpt lat="59.0975832939" lon="29.9995636940"><time>2026-04-22T09:39:58Z</time></trkpt><trkpt lat="59.0975832939" lon="29.9995636940"><time>2026-04-22T09:40:00Z</time></trkpt><trkpt lat="59.0975832939" lon="29.9995636940"><time>2026-04-22T09:40:03Z</time></trkpt><trkpt lat="59.0975832939" lon="29.9995636940"><time>2026-04-22T09:40:05Z</time></trkpt><trkpt lat="59.0975832939" lon="29.9995636940"><time>2026-04-22T09:40:08Z</time></trkpt><trkpt lat="59.0975832939" lon="29.9995636940"><time>2026-04-22T09:40:10Z</time></trkpt><trkpt lat="59.0975832939" lon="29.9995636940"><time>2026-04-22T09:40:13Z</time></trkpt><trkpt lat="59.0975832939" lon="29.9995422363"><time>2026-04-22T09:40:15Z</time></trkpt><trkpt lat="59.0975832939" lon="29.9995422363"><time>2026-04-22T09:40:18Z</time></trkpt><trkpt lat="59.0975832939" lon="29.9995422363"><time>2026-04-22T09:40:20Z</time></trkpt><trkpt lat="59.0975618362" lon="29.9995207787"><time>2026-04-22T09:40:23Z</time></trkpt><trkpt lat="59.0975618362" lon="29.9995207787"><time>2026-04-22T09:40:25Z</time></trkpt><trkpt lat="59.0975618362" lon="29.9995207787"><time>2026-04-22T09:40:28Z</time></trkpt><trkpt lat="59.0975618362" lon="29.9995207787"><time>2026-04-22T09:40:30Z</time></trkpt><trkpt lat="59.0975618362" lon="29.9995207787"><time>2026-04-22T09:40:33Z</time></trkpt><trkpt lat="59.0975618362" lon="29.9995207787"><time>2026-04-22T09:40:35Z</time></trkpt><trkpt lat="59.0975618362" lon="29.9995207787"><time>2026-04-22T09:40:38Z</time></trkpt><trkpt lat="59.0975618362" lon="29.9995207787"><time>2026-04-22T09:40:40Z</time></trkpt><trkpt lat="59.0975618362" lon="29.9995207787"><time>2026-04-22T09:40:43Z</time></trkpt><trkpt lat="59.0975618362" lon="29.9995207787"><time>2026-04-22T09:40:45Z</time></trkpt><trkpt lat="59.0975832939" lon="29.9994993210"><time>2026-04-22T09:40:48Z</time></trkpt><trkpt lat="59.0976262093" lon="29.9994778633"><time>2026-04-22T09:40:50Z</time></trkpt><trkpt lat="59.0976476669" lon="29.9994564056"><time>2026-04-22T09:40:53Z</time></trkpt><trkpt lat="59.0976691246" lon="29.9994564056"><time>2026-04-22T09:40:55Z</time></trkpt><trkpt lat="59.0976905823" lon="29.9994564056"><time>2026-04-22T09:40:58Z</time></trkpt><trkpt lat="59.0976905823" lon="29.9994564056"><time>2026-04-22T09:41:00Z</time></trkpt><trkpt lat="59.0976905823" lon="29.9994564056"><time>2026-04-22T09:41:03Z</time></trkpt><trkpt lat="59.0977334976" lon="29.9994134903"><time>2026-04-22T09:41:08Z</time></trkpt><trkpt lat="59.0977764130" lon="29.9993920326"><time>2026-04-22T09:41:10Z</time></trkpt><trkpt lat="59.0977764130" lon="29.9993920326"><time>2026-04-22T09:41:13Z</time></trkpt><trkpt lat="59.0977764130" lon="29.9993920326"><time>2026-04-22T09:41:15Z</time></trkpt><trkpt lat="59.0977764130" lon="29.9993920326"><time>2026-04-22T09:41:18Z</time></trkpt><trkpt lat="59.0977764130" lon="29.9993920326"><time>2026-04-22T09:41:20Z</time></trkpt><trkpt lat="59.0977764130" lon="29.9993920326"><time>2026-04-22T09:41:23Z</time></trkpt><trkpt lat="59.0977978706" lon="29.9994349480"><time>2026-04-22T09:41:25Z</time></trkpt><trkpt lat="59.0978193283" lon="29.9994564056"><time>2026-04-22T09:41:28Z</time></trkpt><trkpt lat="59.0978193283" lon="29.9994778633"><time>2026-04-22T09:41:30Z</time></trkpt><trkpt lat="59.0978193283" lon="29.9994778633"><time>2026-04-22T09:41:33Z</time></trkpt><trkpt lat="59.0978622437" lon="29.9994778633"><time>2026-04-22T09:41:35Z</time></trkpt><trkpt lat="59.0978837013" lon="29.9994778633"><time>2026-04-22T09:41:38Z</time></trkpt><trkpt lat="59.0978837013" lon="29.9994778633"><time>2026-04-22T09:41:40Z</time></trkpt><trkpt lat="59.0978837013" lon="29.9994778633"><time>2026-04-22T09:41:43Z</time></trkpt><trkpt lat="59.0978837013" lon="29.9994778633"><time>2026-04-22T09:41:45Z</time></trkpt><trkpt lat="59.0979266167" lon="29.9994778633"><time>2026-04-22T09:41:48Z</time></trkpt><trkpt lat="59.0979480743" lon="29.9994134903"><time>2026-04-22T09:41:50Z</time></trkpt><trkpt lat="59.0979480743" lon="29.9993705750"><time>2026-04-22T09:41:53Z</time></trkpt><trkpt lat="59.0979480743" lon="29.9993491173"><time>2026-04-22T09:41:55Z</time></trkpt><trkpt lat="59.0979480743" lon="29.9993491173"><time>2026-04-22T09:41:58Z</time></trkpt><trkpt lat="59.0979480743" lon="29.9993491173"><time>2026-04-22T09:42:00Z</time></trkpt><trkpt lat="59.0979480743" lon="29.9993276596"><time>2026-04-22T09:42:03Z</time></trkpt><trkpt lat="59.0979695320" lon="29.9992418289"><time>2026-04-22T09:42:05Z</time></trkpt><trkpt lat="59.0979909897" lon="29.9991774559"><time>2026-04-22T09:42:08Z</time></trkpt><trkpt lat="59.0980339050" lon="29.9990272522"><time>2026-04-22T09:42:10Z</time></trkpt><trkpt lat="59.0980553627" lon="29.9989628792"><time>2026-04-22T09:42:13Z</time></trkpt><trkpt lat="59.0980553627" lon="29.9988985062"><time>2026-04-22T09:42:15Z</time></trkpt><trkpt lat="59.0980553627" lon="29.9988985062"><time>2026-04-22T09:42:18Z</time></trkpt><trkpt lat="59.0980553627" lon="29.9988985062"><time>2026-04-22T09:42:20Z</time></trkpt><trkpt lat="59.0980768204" lon="29.9989628792"><time>2026-04-22T09:42:23Z</time></trkpt><trkpt lat="59.0980982780" lon="29.9990272522"><time>2026-04-22T09:42:25Z</time></trkpt><trkpt lat="59.0980982780" lon="29.9990487099"><time>2026-04-22T09:42:28Z</time></trkpt><trkpt lat="59.0981197357" lon="29.9990272522"><time>2026-04-22T09:42:30Z</time></trkpt><trkpt lat="59.0981411934" lon="29.9989843369"><time>2026-04-22T09:42:33Z</time></trkpt><trkpt lat="59.0981626511" lon="29.9989414215"><time>2026-04-22T09:42:35Z</time></trkpt><trkpt lat="59.0981841087" lon="29.9988985062"><time>2026-04-22T09:42:38Z</time></trkpt><trkpt lat="59.0982270241" lon="29.9988555908"><time>2026-04-22T09:42:40Z</time></trkpt><trkpt lat="59.0982270241" lon="29.9988555908"><time>2026-04-22T09:42:43Z</time></trkpt><trkpt lat="59.0982055664" lon="29.9988126755"><time>2026-04-22T09:42:45Z</time></trkpt><trkpt lat="59.0982055664" lon="29.9987912178"><time>2026-04-22T09:42:48Z</time></trkpt><trkpt lat="59.0982055664" lon="29.9987483025"><time>2026-04-22T09:42:50Z</time></trkpt><trkpt lat="59.0982055664" lon="29.9987483025"><time>2026-04-22T09:42:53Z</time></trkpt><trkpt lat="59.0982484818" lon="29.9987912178"><time>2026-04-22T09:42:55Z</time></trkpt><trkpt lat="59.0982913971" lon="29.9988126755"><time>2026-04-22T09:42:58Z</time></trkpt><trkpt lat="59.0983557701" lon="29.9987912178"><time>2026-04-22T09:43:00Z</time></trkpt><trkpt lat="59.0983772278" lon="29.9988126755"><time>2026-04-22T09:43:03Z</time></trkpt><trkpt lat="59.0983772278" lon="29.9988341331"><time>2026-04-22T09:43:05Z</time></trkpt><trkpt lat="59.0983986855" lon="29.9988555908"><time>2026-04-22T09:43:08Z</time></trkpt><trkpt lat="59.0984201431" lon="29.9988985062"><time>2026-04-22T09:43:10Z</time></trkpt><trkpt lat="59.0984201431" lon="29.9988985062"><time>2026-04-22T09:43:13Z</time></trkpt><trkpt lat="59.0984201431" lon="29.9988985062"><time>2026-04-22T09:43:15Z</time></trkpt><trkpt lat="59.0984201431" lon="29.9988985062"><time>2026-04-22T09:43:18Z</time></trkpt><trkpt lat="59.0984201431" lon="29.9988341331"><time>2026-04-22T09:43:20Z</time></trkpt><trkpt lat="59.0984416008" lon="29.9987697601"><time>2026-04-22T09:43:23Z</time></trkpt><trkpt lat="59.0984630585" lon="29.9987053871"><time>2026-04-22T09:43:25Z</time></trkpt><trkpt lat="59.0984845161" lon="29.9987268448"><time>2026-04-22T09:43:28Z</time></trkpt><trkpt lat="59.0985059738" lon="29.9987268448"><time>2026-04-22T09:43:30Z</time></trkpt><trkpt lat="59.0985059738" lon="29.9987268448"><time>2026-04-22T09:43:33Z</time></trkpt><trkpt lat="59.0985059738" lon="29.9987268448"><time>2026-04-22T09:43:35Z</time></trkpt><trkpt lat="59.0985488892" lon="29.9987053871"><time>2026-04-22T09:43:38Z</time></trkpt><trkpt lat="59.0986132622" lon="29.9987268448"><time>2026-04-22T09:43:40Z</time></trkpt><trkpt lat="59.0986561775" lon="29.9986839294"><time>2026-04-22T09:43:43Z</time></trkpt><trkpt lat="59.0986990929" lon="29.9987268448"><time>2026-04-22T09:43:45Z</time></trkpt><trkpt lat="59.0987205505" lon="29.9987268448"><time>2026-04-22T09:43:48Z</time></trkpt><trkpt lat="59.0987205505" lon="29.9987268448"><time>2026-04-22T09:43:50Z</time></trkpt><trkpt lat="59.0987205505" lon="29.9987268448"><time>2026-04-22T09:43:53Z</time></trkpt><trkpt lat="59.0987205505" lon="29.9987268448"><time>2026-04-22T09:43:55Z</time></trkpt><trkpt lat="59.0987205505" lon="29.9987268448"><time>2026-04-22T09:43:58Z</time></trkpt><trkpt lat="59.0987205505" lon="29.9986839294"><time>2026-04-22T09:44:00Z</time></trkpt><trkpt lat="59.0987849236" lon="29.9985980988"><time>2026-04-22T09:44:03Z</time></trkpt><trkpt lat="59.0988707542" lon="29.9984693527"><time>2026-04-22T09:44:05Z</time></trkpt><trkpt lat="59.0988922119" lon="29.9984049797"><time>2026-04-22T09:44:08Z</time></trkpt><trkpt lat="59.0988922119" lon="29.9983406067"><time>2026-04-22T09:44:10Z</time></trkpt><trkpt lat="59.0988922119" lon="29.9982762337"><time>2026-04-22T09:44:13Z</time></trkpt><trkpt lat="59.0988922119" lon="29.9981689453"><time>2026-04-22T09:44:15Z</time></trkpt><trkpt lat="59.0988922119" lon="29.9981474876"><time>2026-04-22T09:44:18Z</time></trkpt><trkpt lat="59.0989136696" lon="29.9981904030"><time>2026-04-22T09:44:20Z</time></trkpt><trkpt lat="59.0989351273" lon="29.9982333183"><time>2026-04-22T09:44:23Z</time></trkpt><trkpt lat="59.0989780426" lon="29.9982976913"><time>2026-04-22T09:44:25Z</time></trkpt><trkpt lat="59.0989995003" lon="29.9982976913"><time>2026-04-22T09:44:28Z</time></trkpt><trkpt lat="59.0990424156" lon="29.9983191490"><time>2026-04-22T09:44:30Z</time></trkpt><trkpt lat="59.0990638733" lon="29.9983191490"><time>2026-04-22T09:44:33Z</time></trkpt><trkpt lat="59.0990638733" lon="29.9983191490"><time>2026-04-22T09:44:35Z</time></trkpt><trkpt lat="59.0990853310" lon="29.9982976913"><time>2026-04-22T09:44:38Z</time></trkpt><trkpt lat="59.0991067886" lon="29.9982762337"><time>2026-04-22T09:44:40Z</time></trkpt><trkpt lat="59.0991282463" lon="29.9982547760"><time>2026-04-22T09:44:43Z</time></trkpt><trkpt lat="59.0991282463" lon="29.9982547760"><time>2026-04-22T09:44:45Z</time></trkpt><trkpt lat="59.0991282463" lon="29.9982547760"><time>2026-04-22T09:44:48Z</time></trkpt><trkpt lat="59.0991497040" lon="29.9982762337"><time>2026-04-22T09:44:50Z</time></trkpt><trkpt lat="59.0991711617" lon="29.9982547760"><time>2026-04-22T09:44:53Z</time></trkpt><trkpt lat="59.0991711617" lon="29.9982762337"><time>2026-04-22T09:44:55Z</time></trkpt><trkpt lat="59.0991711617" lon="29.9982118607"><time>2026-04-22T09:44:58Z</time></trkpt><trkpt lat="59.0991926193" lon="29.9981260300"><time>2026-04-22T09:45:00Z</time></trkpt><trkpt lat="59.0991926193" lon="29.9981260300"><time>2026-04-22T09:45:03Z</time></trkpt><trkpt lat="59.0991926193" lon="29.9981260300"><time>2026-04-22T09:45:05Z</time></trkpt><trkpt lat="59.0991926193" lon="29.9981260300"><time>2026-04-22T09:45:08Z</time></trkpt><trkpt lat="59.0991926193" lon="29.9981260300"><time>2026-04-22T09:45:10Z</time></trkpt><trkpt lat="59.0991926193" lon="29.9981260300"><time>2026-04-22T09:45:13Z</time></trkpt><trkpt lat="59.0992140770" lon="29.9981260300"><time>2026-04-22T09:45:15Z</time></trkpt><trkpt lat="59.0992140770" lon="29.9981260300"><time>2026-04-22T09:45:18Z</time></trkpt><trkpt lat="59.0992355347" lon="29.9981260300"><time>2026-04-22T09:45:20Z</time></trkpt><trkpt lat="59.0992569923" lon="29.9981260300"><time>2026-04-22T09:45:23Z</time></trkpt><trkpt lat="59.0992999077" lon="29.9981474876"><time>2026-04-22T09:45:25Z</time></trkpt><trkpt lat="59.0993213654" lon="29.9981260300"><time>2026-04-22T09:45:28Z</time></trkpt><trkpt lat="59.0993642807" lon="29.9981474876"><time>2026-04-22T09:45:30Z</time></trkpt><trkpt lat="59.0993642807" lon="29.9981689453"><time>2026-04-22T09:45:33Z</time></trkpt><trkpt lat="59.0993857384" lon="29.9981689453"><time>2026-04-22T09:45:35Z</time></trkpt><trkpt lat="59.0993857384" lon="29.9981689453"><time>2026-04-22T09:45:38Z</time></trkpt><trkpt lat="59.0993857384" lon="29.9981689453"><time>2026-04-22T09:45:40Z</time></trkpt><trkpt lat="59.0993857384" lon="29.9981689453"><time>2026-04-22T09:45:43Z</time></trkpt><trkpt lat="59.0993857384" lon="29.9981689453"><time>2026-04-22T09:45:45Z</time></trkpt><trkpt lat="59.0994071960" lon="29.9981904030"><time>2026-04-22T09:45:48Z</time></trkpt><trkpt lat="59.0994715691" lon="29.9982333183"><time>2026-04-22T09:45:50Z</time></trkpt><trkpt lat="59.0994930267" lon="29.9982547760"><time>2026-04-22T09:45:53Z</time></trkpt><trkpt lat="59.0994930267" lon="29.9982976913"><time>2026-04-22T09:45:55Z</time></trkpt><trkpt lat="59.0994930267" lon="29.9982976913"><time>2026-04-22T09:45:58Z</time></trkpt><trkpt lat="59.0994930267" lon="29.9982976913"><time>2026-04-22T09:46:00Z</time></trkpt><trkpt lat="59.0994930267" lon="29.9982976913"><time>2026-04-22T09:46:03Z</time></trkpt><trkpt lat="59.0995144844" lon="29.9983191490"><time>2026-04-22T09:46:05Z</time></trkpt><trkpt lat="59.0995573997" lon="29.9983620644"><time>2026-04-22T09:46:08Z</time></trkpt><trkpt lat="59.0996003151" lon="29.9983620644"><time>2026-04-22T09:46:10Z</time></trkpt><trkpt lat="59.0996003151" lon="29.9983406067"><time>2026-04-22T09:46:13Z</time></trkpt><trkpt lat="59.0996217728" lon="29.9983406067"><time>2026-04-22T09:46:15Z</time></trkpt><trkpt lat="59.0996003151" lon="29.9983406067"><time>2026-04-22T09:46:18Z</time></trkpt><trkpt lat="59.0996217728" lon="29.9983191490"><time>2026-04-22T09:46:20Z</time></trkpt><trkpt lat="59.0996432304" lon="29.9982976913"><time>2026-04-22T09:46:23Z</time></trkpt><trkpt lat="59.0996646881" lon="29.9982976913"><time>2026-04-22T09:46:25Z</time></trkpt><trkpt lat="59.0996646881" lon="29.9982976913"><time>2026-04-22T09:46:28Z</time></trkpt><trkpt lat="59.0996861458" lon="29.9982976913"><time>2026-04-22T09:46:30Z</time></trkpt><trkpt lat="59.0997076035" lon="29.9982762337"><time>2026-04-22T09:46:33Z</time></trkpt><trkpt lat="59.0997505188" lon="29.9982547760"><time>2026-04-22T09:46:35Z</time></trkpt><trkpt lat="59.0997290611" lon="29.9982333183"><time>2026-04-22T09:46:38Z</time></trkpt><trkpt lat="59.0997290611" lon="29.9982333183"><time>2026-04-22T09:46:40Z</time></trkpt><trkpt lat="59.0997290611" lon="29.9982333183"><time>2026-04-22T09:46:43Z</time></trkpt><trkpt lat="59.0997505188" lon="29.9982118607"><time>2026-04-22T09:46:45Z</time></trkpt><trkpt lat="59.0997505188" lon="29.9982118607"><time>2026-04-22T09:46:48Z</time></trkpt><trkpt lat="59.0996861458" lon="29.9982762337"><time>2026-04-22T09:46:53Z</time></trkpt><trkpt lat="59.0996861458" lon="29.9983191490"><time>2026-04-22T09:46:55Z</time></trkpt><trkpt lat="59.0996861458" lon="29.9983191490"><time>2026-04-22T09:46:58Z</time></trkpt><trkpt lat="59.0996861458" lon="29.9983191490"><time>2026-04-22T09:47:00Z</time></trkpt><trkpt lat="59.0996861458" lon="29.9983191490"><time>2026-04-22T09:47:03Z</time></trkpt><trkpt lat="59.0996861458" lon="29.9983191490"><time>2026-04-22T09:47:05Z</time></trkpt><trkpt lat="59.0996861458" lon="29.9983191490"><time>2026-04-22T09:47:08Z</time></trkpt><trkpt lat="59.0996861458" lon="29.9983191490"><time>2026-04-22T09:47:10Z</time></trkpt><trkpt lat="59.0996861458" lon="29.9983191490"><time>2026-04-22T09:47:13Z</time></trkpt><trkpt lat="59.0996861458" lon="29.9983191490"><time>2026-04-22T09:47:15Z</time></trkpt><trkpt lat="59.0996861458" lon="29.9983191490"><time>2026-04-22T09:47:18Z</time></trkpt><trkpt lat="59.0996861458" lon="29.9983191490"><time>2026-04-22T09:47:20Z</time></trkpt><trkpt lat="59.0996861458" lon="29.9983191490"><time>2026-04-22T09:47:23Z</time></trkpt><trkpt lat="59.0996861458" lon="29.9983191490"><time>2026-04-22T09:47:25Z</time></trkpt><trkpt lat="59.0996861458" lon="29.9983191490"><time>2026-04-22T09:47:28Z</time></trkpt><trkpt lat="59.0996861458" lon="29.9983191490"><time>2026-04-22T09:47:30Z</time></trkpt><trkpt lat="59.0996861458" lon="29.9983191490"><time>2026-04-22T09:47:33Z</time></trkpt><trkpt lat="59.0997290611" lon="29.9983835220"><time>2026-04-22T09:47:35Z</time></trkpt><trkpt lat="59.0997290611" lon="29.9983835220"><time>2026-04-22T09:47:38Z</time></trkpt><trkpt lat="59.0997505188" lon="29.9983835220"><time>2026-04-22T09:47:40Z</time></trkpt><trkpt lat="59.0997719765" lon="29.9984264374"><time>2026-04-22T09:47:43Z</time></trkpt><trkpt lat="59.0997719765" lon="29.9984264374"><time>2026-04-22T09:47:45Z</time></trkpt><trkpt lat="59.0997719765" lon="29.9984264374"><time>2026-04-22T09:47:48Z</time></trkpt><trkpt lat="59.0997719765" lon="29.9984049797"><time>2026-04-22T09:47:50Z</time></trkpt><trkpt lat="59.0998148918" lon="29.9984049797"><time>2026-04-22T09:47:53Z</time></trkpt><trkpt lat="59.0998363495" lon="29.9984049797"><time>2026-04-22T09:47:55Z</time></trkpt><trkpt lat="59.0998363495" lon="29.9984049797"><time>2026-04-22T09:47:58Z</time></trkpt><trkpt lat="59.0998363495" lon="29.9984049797"><time>2026-04-22T09:48:00Z</time></trkpt><trkpt lat="59.0998792648" lon="29.9983835220"><time>2026-04-22T09:48:03Z</time></trkpt><trkpt lat="59.0999436378" lon="29.9983620644"><time>2026-04-22T09:48:05Z</time></trkpt><trkpt lat="59.0999650955" lon="29.9983620644"><time>2026-04-22T09:48:08Z</time></trkpt><trkpt lat="59.0999865532" lon="29.9983406067"><time>2026-04-22T09:48:10Z</time></trkpt><trkpt lat="59.1000080109" lon="29.9983406067"><time>2026-04-22T09:48:13Z</time></trkpt><trkpt lat="59.1000294685" lon="29.9983406067"><time>2026-04-22T09:48:15Z</time></trkpt><trkpt lat="59.1000509262" lon="29.9983191490"><time>2026-04-22T09:48:18Z</time></trkpt><trkpt lat="59.1000723839" lon="29.9983406067"><time>2026-04-22T09:48:20Z</time></trkpt><trkpt lat="59.1000938416" lon="29.9983620644"><time>2026-04-22T09:48:23Z</time></trkpt><trkpt lat="59.1001367569" lon="29.9984049797"><time>2026-04-22T09:48:25Z</time></trkpt><trkpt lat="59.1001367569" lon="29.9984049797"><time>2026-04-22T09:48:28Z</time></trkpt><trkpt lat="59.1001367569" lon="29.9984049797"><time>2026-04-22T09:48:30Z</time></trkpt><trkpt lat="59.1001367569" lon="29.9984049797"><time>2026-04-22T09:48:33Z</time></trkpt><trkpt lat="59.1001582146" lon="29.9983835220"><time>2026-04-22T09:48:35Z</time></trkpt><trkpt lat="59.1001796722" lon="29.9983406067"><time>2026-04-22T09:48:38Z</time></trkpt><trkpt lat="59.1002225876" lon="29.9982976913"><time>2026-04-22T09:48:40Z</time></trkpt><trkpt lat="59.1002440453" lon="29.9982547760"><time>2026-04-22T09:48:43Z</time></trkpt><trkpt lat="59.1002655029" lon="29.9982333183"><time>2026-04-22T09:48:45Z</time></trkpt><trkpt lat="59.1002655029" lon="29.9982333183"><time>2026-04-22T09:48:48Z</time></trkpt><trkpt lat="59.1002655029" lon="29.9982333183"><time>2026-04-22T09:48:50Z</time></trkpt><trkpt lat="59.1002655029" lon="29.9982333183"><time>2026-04-22T09:48:53Z</time></trkpt><trkpt lat="59.1002655029" lon="29.9982333183"><time>2026-04-22T09:48:55Z</time></trkpt><trkpt lat="59.1002655029" lon="29.9982333183"><time>2026-04-22T09:48:58Z</time></trkpt><trkpt lat="59.1002655029" lon="29.9982333183"><time>2026-04-22T09:49:00Z</time></trkpt><trkpt lat="59.1002869606" lon="29.9982547760"><time>2026-04-22T09:49:03Z</time></trkpt><trkpt lat="59.1003084183" lon="29.9982333183"><time>2026-04-22T09:49:05Z</time></trkpt><trkpt lat="59.1003084183" lon="29.9982547760"><time>2026-04-22T09:49:08Z</time></trkpt><trkpt lat="59.1003298759" lon="29.9982547760"><time>2026-04-22T09:49:10Z</time></trkpt><trkpt lat="59.1003298759" lon="29.9982333183"><time>2026-04-22T09:49:13Z</time></trkpt><trkpt lat="59.1003513336" lon="29.9982333183"><time>2026-04-22T09:49:15Z</time></trkpt><trkpt lat="59.1003727913" lon="29.9982547760"><time>2026-04-22T09:49:18Z</time></trkpt><trkpt lat="59.1003942490" lon="29.9982762337"><time>2026-04-22T09:49:20Z</time></trkpt><trkpt lat="59.1004371643" lon="29.9982547760"><time>2026-04-22T09:49:23Z</time></trkpt><trkpt lat="59.1004371643" lon="29.9982118607"><time>2026-04-22T09:49:25Z</time></trkpt><trkpt lat="59.1004371643" lon="29.9982118607"><time>2026-04-22T09:49:28Z</time></trkpt><trkpt lat="59.1004371643" lon="29.9982118607"><time>2026-04-22T09:49:30Z</time></trkpt><trkpt lat="59.1004371643" lon="29.9981904030"><time>2026-04-22T09:49:33Z</time></trkpt><trkpt lat="59.1004586220" lon="29.9981904030"><time>2026-04-22T09:49:35Z</time></trkpt><trkpt lat="59.1005229950" lon="29.9981904030"><time>2026-04-22T09:49:38Z</time></trkpt><trkpt lat="59.1005444527" lon="29.9981904030"><time>2026-04-22T09:49:40Z</time></trkpt><trkpt lat="59.1005659103" lon="29.9981904030"><time>2026-04-22T09:49:43Z</time></trkpt><trkpt lat="59.1005659103" lon="29.9981904030"><time>2026-04-22T09:49:45Z</time></trkpt><trkpt lat="59.1005659103" lon="29.9981904030"><time>2026-04-22T09:49:48Z</time></trkpt><trkpt lat="59.1005659103" lon="29.9981904030"><time>2026-04-22T09:49:50Z</time></trkpt><trkpt lat="59.1005873680" lon="29.9981904030"><time>2026-04-22T09:49:53Z</time></trkpt><trkpt lat="59.1006088257" lon="29.9981904030"><time>2026-04-22T09:49:55Z</time></trkpt><trkpt lat="59.1006302834" lon="29.9981474876"><time>2026-04-22T09:49:58Z</time></trkpt><trkpt lat="59.1006517410" lon="29.9981474876"><time>2026-04-22T09:50:00Z</time></trkpt><trkpt lat="59.1006731987" lon="29.9980831146"><time>2026-04-22T09:50:03Z</time></trkpt><trkpt lat="59.1007375717" lon="29.9980616570"><time>2026-04-22T09:50:05Z</time></trkpt><trkpt lat="59.1007375717" lon="29.9980616570"><time>2026-04-22T09:50:08Z</time></trkpt><trkpt lat="59.1007375717" lon="29.9980616570"><time>2026-04-22T09:50:10Z</time></trkpt><trkpt lat="59.1007375717" lon="29.9980616570"><time>2026-04-22T09:50:13Z</time></trkpt><trkpt lat="59.1007375717" lon="29.9981689453"><time>2026-04-22T09:50:15Z</time></trkpt><trkpt lat="59.1007804871" lon="29.9982547760"><time>2026-04-22T09:50:18Z</time></trkpt><trkpt lat="59.1008019447" lon="29.9981474876"><time>2026-04-22T09:50:20Z</time></trkpt><trkpt lat="59.1008019447" lon="29.9980616570"><time>2026-04-22T09:50:23Z</time></trkpt><trkpt lat="59.1008019447" lon="29.9980401993"><time>2026-04-22T09:50:25Z</time></trkpt><trkpt lat="59.1008019447" lon="29.9980187416"><time>2026-04-22T09:50:28Z</time></trkpt><trkpt lat="59.1008448601" lon="29.9979972839"><time>2026-04-22T09:50:30Z</time></trkpt><trkpt lat="59.1008448601" lon="29.9979758263"><time>2026-04-22T09:50:33Z</time></trkpt><trkpt lat="59.1008663177" lon="29.9979329109"><time>2026-04-22T09:50:35Z</time></trkpt><trkpt lat="59.1008877754" lon="29.9979758263"><time>2026-04-22T09:50:38Z</time></trkpt><trkpt lat="59.1009306908" lon="29.9979972839"><time>2026-04-22T09:50:40Z</time></trkpt><trkpt lat="59.1009306908" lon="29.9979758263"><time>2026-04-22T09:50:43Z</time></trkpt><trkpt lat="59.1009521484" lon="29.9979758263"><time>2026-04-22T09:50:45Z</time></trkpt><trkpt lat="59.1009521484" lon="29.9979758263"><time>2026-04-22T09:50:48Z</time></trkpt><trkpt lat="59.1009521484" lon="29.9979758263"><time>2026-04-22T09:50:50Z</time></trkpt><trkpt lat="59.1009521484" lon="29.9979758263"><time>2026-04-22T09:50:53Z</time></trkpt><trkpt lat="59.1009521484" lon="29.9979758263"><time>2026-04-22T09:50:55Z</time></trkpt><trkpt lat="59.1009521484" lon="29.9979758263"><time>2026-04-22T09:50:58Z</time></trkpt><trkpt lat="59.1009521484" lon="29.9979758263"><time>2026-04-22T09:51:00Z</time></trkpt><trkpt lat="59.1009521484" lon="29.9979758263"><time>2026-04-22T09:51:03Z</time></trkpt><trkpt lat="59.1009521484" lon="29.9979758263"><time>2026-04-22T09:51:05Z</time></trkpt><trkpt lat="59.1009521484" lon="29.9979543686"><time>2026-04-22T09:51:08Z</time></trkpt><trkpt lat="59.1009521484" lon="29.9979543686"><time>2026-04-22T09:51:10Z</time></trkpt><trkpt lat="59.1009521484" lon="29.9979543686"><time>2026-04-22T09:51:13Z</time></trkpt><trkpt lat="59.1009521484" lon="29.9979543686"><time>2026-04-22T09:51:15Z</time></trkpt><trkpt lat="59.1009521484" lon="29.9979543686"><time>2026-04-22T09:51:18Z</time></trkpt><trkpt lat="59.1009521484" lon="29.9979543686"><time>2026-04-22T09:51:20Z</time></trkpt><trkpt lat="59.1009736061" lon="29.9979543686"><time>2026-04-22T09:51:23Z</time></trkpt><trkpt lat="59.1009950638" lon="29.9979758263"><time>2026-04-22T09:51:25Z</time></trkpt><trkpt lat="59.1009950638" lon="29.9979758263"><time>2026-04-22T09:51:28Z</time></trkpt><trkpt lat="59.1009950638" lon="29.9979758263"><time>2026-04-22T09:51:30Z</time></trkpt><trkpt lat="59.1010379791" lon="29.9979758263"><time>2026-04-22T09:51:33Z</time></trkpt><trkpt lat="59.1010808945" lon="29.9979972839"><time>2026-04-22T09:51:35Z</time></trkpt><trkpt lat="59.1010808945" lon="29.9979972839"><time>2026-04-22T09:51:38Z</time></trkpt><trkpt lat="59.1010808945" lon="29.9979972839"><time>2026-04-22T09:51:40Z</time></trkpt><trkpt lat="59.1011238098" lon="29.9979758263"><time>2026-04-22T09:51:43Z</time></trkpt><trkpt lat="59.1011667252" lon="29.9979758263"><time>2026-04-22T09:51:45Z</time></trkpt><trkpt lat="59.1011667252" lon="29.9979972839"><time>2026-04-22T09:51:48Z</time></trkpt><trkpt lat="59.1011667252" lon="29.9979972839"><time>2026-04-22T09:51:50Z</time></trkpt><trkpt lat="59.1011667252" lon="29.9979972839"><time>2026-04-22T09:51:53Z</time></trkpt><trkpt lat="59.1011667252" lon="29.9979972839"><time>2026-04-22T09:51:55Z</time></trkpt><trkpt lat="59.1011881828" lon="29.9980187416"><time>2026-04-22T09:51:58Z</time></trkpt><trkpt lat="59.1012096405" lon="29.9980187416"><time>2026-04-22T09:52:00Z</time></trkpt><trkpt lat="59.1012525558" lon="29.9980187416"><time>2026-04-22T09:52:03Z</time></trkpt><trkpt lat="59.1012740135" lon="29.9980401993"><time>2026-04-22T09:52:05Z</time></trkpt><trkpt lat="59.1012954712" lon="29.9980616570"><time>2026-04-22T09:52:08Z</time></trkpt><trkpt lat="59.1013169289" lon="29.9980401993"><time>2026-04-22T09:52:10Z</time></trkpt><trkpt lat="59.1013383865" lon="29.9980187416"><time>2026-04-22T09:52:13Z</time></trkpt><trkpt lat="59.1013813019" lon="29.9979758263"><time>2026-04-22T09:52:15Z</time></trkpt><trkpt lat="59.1014027596" lon="29.9979758263"><time>2026-04-22T09:52:18Z</time></trkpt><trkpt lat="59.1014671326" lon="29.9979329109"><time>2026-04-22T09:52:20Z</time></trkpt><trkpt lat="59.1014885902" lon="29.9979114532"><time>2026-04-22T09:52:23Z</time></trkpt><trkpt lat="59.1015100479" lon="29.9979114532"><time>2026-04-22T09:52:25Z</time></trkpt><trkpt lat="59.1015100479" lon="29.9979114532"><time>2026-04-22T09:52:28Z</time></trkpt><trkpt lat="59.1015100479" lon="29.9979114532"><time>2026-04-22T09:52:30Z</time></trkpt><trkpt lat="59.1015100479" lon="29.9979114532"><time>2026-04-22T09:52:33Z</time></trkpt><trkpt lat="59.1015529633" lon="29.9978685379"><time>2026-04-22T09:52:35Z</time></trkpt><trkpt lat="59.1015744209" lon="29.9978470802"><time>2026-04-22T09:52:38Z</time></trkpt><trkpt lat="59.1015958786" lon="29.9977827072"><time>2026-04-22T09:52:40Z</time></trkpt><trkpt lat="59.1016173363" lon="29.9977612495"><time>2026-04-22T09:52:43Z</time></trkpt><trkpt lat="59.1016173363" lon="29.9977612495"><time>2026-04-22T09:52:45Z</time></trkpt><trkpt lat="59.1016173363" lon="29.9977612495"><time>2026-04-22T09:52:48Z</time></trkpt><trkpt lat="59.1016173363" lon="29.9977612495"><time>2026-04-22T09:52:50Z</time></trkpt><trkpt lat="59.1015958786" lon="29.9977612495"><time>2026-04-22T09:52:53Z</time></trkpt><trkpt lat="59.1015744209" lon="29.9976968765"><time>2026-04-22T09:52:55Z</time></trkpt><trkpt lat="59.1015744209" lon="29.9976968765"><time>2026-04-22T09:52:58Z</time></trkpt><trkpt lat="59.1015958786" lon="29.9976754189"><time>2026-04-22T09:53:00Z</time></trkpt><trkpt lat="59.1015958786" lon="29.9976110458"><time>2026-04-22T09:53:03Z</time></trkpt><trkpt lat="59.1016173363" lon="29.9975466728"><time>2026-04-22T09:53:05Z</time></trkpt><trkpt lat="59.1016173363" lon="29.9975466728"><time>2026-04-22T09:53:08Z</time></trkpt><trkpt lat="59.1016173363" lon="29.9976325035"><time>2026-04-22T09:53:10Z</time></trkpt><trkpt lat="59.1016387939" lon="29.9976325035"><time>2026-04-22T09:53:13Z</time></trkpt><trkpt lat="59.1016602516" lon="29.9976539612"><time>2026-04-22T09:53:15Z</time></trkpt><trkpt lat="59.1016817093" lon="29.9976539612"><time>2026-04-22T09:53:18Z</time></trkpt><trkpt lat="59.1017031670" lon="29.9976539612"><time>2026-04-22T09:53:20Z</time></trkpt><trkpt lat="59.1017031670" lon="29.9976539612"><time>2026-04-22T09:53:23Z</time></trkpt><trkpt lat="59.1017031670" lon="29.9976539612"><time>2026-04-22T09:53:25Z</time></trkpt><trkpt lat="59.1017031670" lon="29.9976539612"><time>2026-04-22T09:53:28Z</time></trkpt><trkpt lat="59.1017675400" lon="29.9976110458"><time>2026-04-22T09:53:30Z</time></trkpt><trkpt lat="59.1017889977" lon="29.9975681305"><time>2026-04-22T09:53:33Z</time></trkpt><trkpt lat="59.1018104553" lon="29.9975037575"><time>2026-04-22T09:53:35Z</time></trkpt><trkpt lat="59.1018104553" lon="29.9974608421"><time>2026-04-22T09:53:38Z</time></trkpt><trkpt lat="59.1018104553" lon="29.9974393845"><time>2026-04-22T09:53:40Z</time></trkpt><trkpt lat="59.1018104553" lon="29.9974822998"><time>2026-04-22T09:53:43Z</time></trkpt><trkpt lat="59.1018319130" lon="29.9974822998"><time>2026-04-22T09:53:45Z</time></trkpt><trkpt lat="59.1018319130" lon="29.9974822998"><time>2026-04-22T09:53:48Z</time></trkpt><trkpt lat="59.1018319130" lon="29.9975252151"><time>2026-04-22T09:53:50Z</time></trkpt><trkpt lat="59.1018533707" lon="29.9975466728"><time>2026-04-22T09:53:53Z</time></trkpt><trkpt lat="59.1018748283" lon="29.9975466728"><time>2026-04-22T09:53:55Z</time></trkpt><trkpt lat="59.1018748283" lon="29.9975466728"><time>2026-04-22T09:53:58Z</time></trkpt><trkpt lat="59.1018748283" lon="29.9975466728"><time>2026-04-22T09:54:00Z</time></trkpt><trkpt lat="59.1018962860" lon="29.9975681305"><time>2026-04-22T09:54:03Z</time></trkpt><trkpt lat="59.1019177437" lon="29.9975895882"><time>2026-04-22T09:54:05Z</time></trkpt><trkpt lat="59.1019177437" lon="29.9975895882"><time>2026-04-22T09:54:08Z</time></trkpt><trkpt lat="59.1019177437" lon="29.9975895882"><time>2026-04-22T09:54:10Z</time></trkpt><trkpt lat="59.1019177437" lon="29.9975895882"><time>2026-04-22T09:54:13Z</time></trkpt><trkpt lat="59.1019177437" lon="29.9975895882"><time>2026-04-22T09:54:15Z</time></trkpt><trkpt lat="59.1019177437" lon="29.9975895882"><time>2026-04-22T09:54:18Z</time></trkpt><trkpt lat="59.1019392014" lon="29.9975466728"><time>2026-04-22T09:54:20Z</time></trkpt><trkpt lat="59.1019606590" lon="29.9975037575"><time>2026-04-22T09:54:23Z</time></trkpt><trkpt lat="59.1020035744" lon="29.9974608421"><time>2026-04-22T09:54:25Z</time></trkpt><trkpt lat="59.1020035744" lon="29.9974608421"><time>2026-04-22T09:54:28Z</time></trkpt><trkpt lat="59.1020250320" lon="29.9974822998"><time>2026-04-22T09:54:30Z</time></trkpt><trkpt lat="59.1020250320" lon="29.9975037575"><time>2026-04-22T09:54:33Z</time></trkpt><trkpt lat="59.1020250320" lon="29.9975037575"><time>2026-04-22T09:54:35Z</time></trkpt><trkpt lat="59.1020464897" lon="29.9974608421"><time>2026-04-22T09:54:38Z</time></trkpt><trkpt lat="59.1020464897" lon="29.9974608421"><time>2026-04-22T09:54:40Z</time></trkpt><trkpt lat="59.1020464897" lon="29.9974608421"><time>2026-04-22T09:54:43Z</time></trkpt><trkpt lat="59.1020464897" lon="29.9974393845"><time>2026-04-22T09:54:45Z</time></trkpt><trkpt lat="59.1020464897" lon="29.9974179268"><time>2026-04-22T09:54:48Z</time></trkpt><trkpt lat="59.1020679474" lon="29.9973750114"><time>2026-04-22T09:54:50Z</time></trkpt><trkpt lat="59.1020679474" lon="29.9973535538"><time>2026-04-22T09:54:53Z</time></trkpt><trkpt lat="59.1020679474" lon="29.9973320961"><time>2026-04-22T09:54:55Z</time></trkpt><trkpt lat="59.1020894051" lon="29.9973320961"><time>2026-04-22T09:54:58Z</time></trkpt><trkpt lat="59.1020894051" lon="29.9973320961"><time>2026-04-22T09:55:00Z</time></trkpt><trkpt lat="59.1020894051" lon="29.9973320961"><time>2026-04-22T09:55:03Z</time></trkpt><trkpt lat="59.1020894051" lon="29.9973106384"><time>2026-04-22T09:55:05Z</time></trkpt><trkpt lat="59.1020894051" lon="29.9973106384"><time>2026-04-22T09:55:08Z</time></trkpt><trkpt lat="59.1020894051" lon="29.9973106384"><time>2026-04-22T09:55:10Z</time></trkpt><trkpt lat="59.1020894051" lon="29.9973106384"><time>2026-04-22T09:55:13Z</time></trkpt><trkpt lat="59.1020679474" lon="29.9972677231"><time>2026-04-22T09:55:15Z</time></trkpt><trkpt lat="59.1020679474" lon="29.9972033501"><time>2026-04-22T09:55:18Z</time></trkpt><trkpt lat="59.1020679474" lon="29.9971175194"><time>2026-04-22T09:55:20Z</time></trkpt><trkpt lat="59.1020464897" lon="29.9970746040"><time>2026-04-22T09:55:23Z</time></trkpt><trkpt lat="59.1020464897" lon="29.9969887733"><time>2026-04-22T09:55:25Z</time></trkpt><trkpt lat="59.1020679474" lon="29.9969887733"><time>2026-04-22T09:55:28Z</time></trkpt><trkpt lat="59.1020894051" lon="29.9969887733"><time>2026-04-22T09:55:30Z</time></trkpt><trkpt lat="59.1021108627" lon="29.9970102310"><time>2026-04-22T09:55:33Z</time></trkpt><trkpt lat="59.1021537781" lon="29.9969887733"><time>2026-04-22T09:55:35Z</time></trkpt><trkpt lat="59.1021752357" lon="29.9969673157"><time>2026-04-22T09:55:38Z</time></trkpt><trkpt lat="59.1021966934" lon="29.9969458580"><time>2026-04-22T09:55:40Z</time></trkpt><trkpt lat="59.1021966934" lon="29.9969673157"><time>2026-04-22T09:55:43Z</time></trkpt><trkpt lat="59.1021966934" lon="29.9969673157"><time>2026-04-22T09:55:45Z</time></trkpt><trkpt lat="59.1021966934" lon="29.9969673157"><time>2026-04-22T09:55:48Z</time></trkpt><trkpt lat="59.1021966934" lon="29.9969673157"><time>2026-04-22T09:55:50Z</time></trkpt><trkpt lat="59.1021966934" lon="29.9969673157"><time>2026-04-22T09:55:53Z</time></trkpt><trkpt lat="59.1022181511" lon="29.9969673157"><time>2026-04-22T09:55:55Z</time></trkpt><trkpt lat="59.1022396088" lon="29.9969458580"><time>2026-04-22T09:55:58Z</time></trkpt><trkpt lat="59.1022825241" lon="29.9969458580"><time>2026-04-22T09:56:00Z</time></trkpt><trkpt lat="59.1023039818" lon="29.9969458580"><time>2026-04-22T09:56:03Z</time></trkpt><trkpt lat="59.1023683548" lon="29.9969029427"><time>2026-04-22T09:56:05Z</time></trkpt><trkpt lat="59.1023683548" lon="29.9969029427"><time>2026-04-22T09:56:08Z</time></trkpt><trkpt lat="59.1023683548" lon="29.9969029427"><time>2026-04-22T09:56:10Z</time></trkpt><trkpt lat="59.1023683548" lon="29.9969244003"><time>2026-04-22T09:56:13Z</time></trkpt><trkpt lat="59.1023683548" lon="29.9970102310"><time>2026-04-22T09:56:15Z</time></trkpt><trkpt lat="59.1023898125" lon="29.9970316887"><time>2026-04-22T09:56:18Z</time></trkpt><trkpt lat="59.1023898125" lon="29.9970316887"><time>2026-04-22T09:56:20Z</time></trkpt><trkpt lat="59.1023898125" lon="29.9970316887"><time>2026-04-22T09:56:23Z</time></trkpt><trkpt lat="59.1024112701" lon="29.9970960617"><time>2026-04-22T09:56:25Z</time></trkpt><trkpt lat="59.1024112701" lon="29.9971389771"><time>2026-04-22T09:56:28Z</time></trkpt><trkpt lat="59.1024327278" lon="29.9971175194"><time>2026-04-22T09:56:30Z</time></trkpt><trkpt lat="59.1024541855" lon="29.9971175194"><time>2026-04-22T09:56:33Z</time></trkpt><trkpt lat="59.1024541855" lon="29.9971175194"><time>2026-04-22T09:56:35Z</time></trkpt><trkpt lat="59.1024541855" lon="29.9971175194"><time>2026-04-22T09:56:38Z</time></trkpt><trkpt lat="59.1024756432" lon="29.9970960617"><time>2026-04-22T09:56:40Z</time></trkpt><trkpt lat="59.1024541855" lon="29.9970746040"><time>2026-04-22T09:56:43Z</time></trkpt><trkpt lat="59.1024756432" lon="29.9970746040"><time>2026-04-22T09:56:45Z</time></trkpt><trkpt lat="59.1024971008" lon="29.9970746040"><time>2026-04-22T09:56:48Z</time></trkpt><trkpt lat="59.1025185585" lon="29.9970746040"><time>2026-04-22T09:56:50Z</time></trkpt><trkpt lat="59.1025185585" lon="29.9970746040"><time>2026-04-22T09:56:53Z</time></trkpt><trkpt lat="59.1025614738" lon="29.9970746040"><time>2026-04-22T09:56:55Z</time></trkpt><trkpt lat="59.1025829315" lon="29.9970960617"><time>2026-04-22T09:56:58Z</time></trkpt><trkpt lat="59.1026258469" lon="29.9971389771"><time>2026-04-22T09:57:00Z</time></trkpt><trkpt lat="59.1026473045" lon="29.9971604347"><time>2026-04-22T09:57:03Z</time></trkpt><trkpt lat="59.1026473045" lon="29.9971175194"><time>2026-04-22T09:57:05Z</time></trkpt><trkpt lat="59.1026473045" lon="29.9970960617"><time>2026-04-22T09:57:08Z</time></trkpt><trkpt lat="59.1026473045" lon="29.9970960617"><time>2026-04-22T09:57:10Z</time></trkpt><trkpt lat="59.1026687622" lon="29.9970746040"><time>2026-04-22T09:57:13Z</time></trkpt><trkpt lat="59.1027116776" lon="29.9970746040"><time>2026-04-22T09:57:15Z</time></trkpt><trkpt lat="59.1027116776" lon="29.9970960617"><time>2026-04-22T09:57:18Z</time></trkpt><trkpt lat="59.1027116776" lon="29.9970960617"><time>2026-04-22T09:57:20Z</time></trkpt><trkpt lat="59.1027116776" lon="29.9970960617"><time>2026-04-22T09:57:23Z</time></trkpt><trkpt lat="59.1027116776" lon="29.9970960617"><time>2026-04-22T09:57:25Z</time></trkpt><trkpt lat="59.1027545929" lon="29.9971175194"><time>2026-04-22T09:57:28Z</time></trkpt><trkpt lat="59.1027975082" lon="29.9970960617"><time>2026-04-22T09:57:30Z</time></trkpt><trkpt lat="59.1027975082" lon="29.9970316887"><time>2026-04-22T09:57:33Z</time></trkpt><trkpt lat="59.1028189659" lon="29.9969887733"><time>2026-04-22T09:57:35Z</time></trkpt><trkpt lat="59.1028189659" lon="29.9970102310"><time>2026-04-22T09:57:38Z</time></trkpt><trkpt lat="59.1028618813" lon="29.9969887733"><time>2026-04-22T09:57:40Z</time></trkpt><trkpt lat="59.1028404236" lon="29.9970102310"><time>2026-04-22T09:57:43Z</time></trkpt><trkpt lat="59.1028404236" lon="29.9969887733"><time>2026-04-22T09:57:45Z</time></trkpt><trkpt lat="59.1028618813" lon="29.9969673157"><time>2026-04-22T09:57:48Z</time></trkpt><trkpt lat="59.1029047966" lon="29.9969458580"><time>2026-04-22T09:57:50Z</time></trkpt><trkpt lat="59.1029047966" lon="29.9969458580"><time>2026-04-22T09:57:53Z</time></trkpt><trkpt lat="59.1029262543" lon="29.9969244003"><time>2026-04-22T09:57:55Z</time></trkpt><trkpt lat="59.1029262543" lon="29.9969458580"><time>2026-04-22T09:57:58Z</time></trkpt><trkpt lat="59.1029047966" lon="29.9969458580"><time>2026-04-22T09:58:00Z</time></trkpt><trkpt lat="59.1028833389" lon="29.9969673157"><time>2026-04-22T09:58:03Z</time></trkpt><trkpt lat="59.1029047966" lon="29.9968814850"><time>2026-04-22T09:58:05Z</time></trkpt><trkpt lat="59.1029047966" lon="29.9968385696"><time>2026-04-22T09:58:08Z</time></trkpt><trkpt lat="59.1029477119" lon="29.9968171120"><time>2026-04-22T09:58:10Z</time></trkpt><trkpt lat="59.1029691696" lon="29.9967956543"><time>2026-04-22T09:58:13Z</time></trkpt><trkpt lat="59.1029906273" lon="29.9967956543"><time>2026-04-22T09:58:15Z</time></trkpt><trkpt lat="59.1030120850" lon="29.9968171120"><time>2026-04-22T09:58:18Z</time></trkpt><trkpt lat="59.1030550003" lon="29.9968385696"><time>2026-04-22T09:58:20Z</time></trkpt><trkpt lat="59.1030764580" lon="29.9968600273"><time>2026-04-22T09:58:23Z</time></trkpt><trkpt lat="59.1031193733" lon="29.9968814850"><time>2026-04-22T09:58:25Z</time></trkpt><trkpt lat="59.1031408310" lon="29.9968814850"><time>2026-04-22T09:58:28Z</time></trkpt><trkpt lat="59.1031837463" lon="29.9969029427"><time>2026-04-22T09:58:30Z</time></trkpt><trkpt lat="59.1031837463" lon="29.9968814850"><time>2026-04-22T09:58:33Z</time></trkpt><trkpt lat="59.1032266617" lon="29.9969029427"><time>2026-04-22T09:58:35Z</time></trkpt><trkpt lat="59.1032266617" lon="29.9969458580"><time>2026-04-22T09:58:38Z</time></trkpt><trkpt lat="59.1032695770" lon="29.9969458580"><time>2026-04-22T09:58:40Z</time></trkpt><trkpt lat="59.1032695770" lon="29.9969458580"><time>2026-04-22T09:58:43Z</time></trkpt><trkpt lat="59.1032695770" lon="29.9969673157"><time>2026-04-22T09:58:45Z</time></trkpt><trkpt lat="59.1032695770" lon="29.9969673157"><time>2026-04-22T09:58:48Z</time></trkpt><trkpt lat="59.1032910347" lon="29.9969887733"><time>2026-04-22T09:58:50Z</time></trkpt><trkpt lat="59.1032910347" lon="29.9969887733"><time>2026-04-22T09:58:53Z</time></trkpt><trkpt lat="59.1032910347" lon="29.9970102310"><time>2026-04-22T09:58:55Z</time></trkpt><trkpt lat="59.1032910347" lon="29.9970102310"><time>2026-04-22T09:58:58Z</time></trkpt><trkpt lat="59.1032910347" lon="29.9970102310"><time>2026-04-22T09:59:00Z</time></trkpt><trkpt lat="59.1032910347" lon="29.9970102310"><time>2026-04-22T09:59:03Z</time></trkpt><trkpt lat="59.1032910347" lon="29.9970102310"><time>2026-04-22T09:59:05Z</time></trkpt><trkpt lat="59.1032910347" lon="29.9970102310"><time>2026-04-22T09:59:08Z</time></trkpt><trkpt lat="59.1032910347" lon="29.9970102310"><time>2026-04-22T09:59:10Z</time></trkpt><trkpt lat="59.1032910347" lon="29.9970102310"><time>2026-04-22T09:59:13Z</time></trkpt><trkpt lat="59.1032910347" lon="29.9970102310"><time>2026-04-22T09:59:15Z</time></trkpt><trkpt lat="59.1033124924" lon="29.9969673157"><time>2026-04-22T09:59:18Z</time></trkpt><trkpt lat="59.1033768654" lon="29.9969029427"><time>2026-04-22T09:59:20Z</time></trkpt><trkpt lat="59.1033768654" lon="29.9968814850"><time>2026-04-22T09:59:23Z</time></trkpt><trkpt lat="59.1034412384" lon="29.9968385696"><time>2026-04-22T09:59:25Z</time></trkpt><trkpt lat="59.1034197807" lon="29.9967956543"><time>2026-04-22T09:59:28Z</time></trkpt><trkpt lat="59.1034197807" lon="29.9967741966"><time>2026-04-22T09:59:30Z</time></trkpt><trkpt lat="59.1034412384" lon="29.9967956543"><time>2026-04-22T09:59:33Z</time></trkpt><trkpt lat="59.1034626961" lon="29.9968171120"><time>2026-04-22T09:59:35Z</time></trkpt><trkpt lat="59.1034626961" lon="29.9968171120"><time>2026-04-22T09:59:38Z</time></trkpt><trkpt lat="59.1034626961" lon="29.9967312813"><time>2026-04-22T09:59:40Z</time></trkpt><trkpt lat="59.1034412384" lon="29.9966669083"><time>2026-04-22T09:59:43Z</time></trkpt><trkpt lat="59.1034412384" lon="29.9966025352"><time>2026-04-22T09:59:45Z</time></trkpt><trkpt lat="59.1034412384" lon="29.9965810776"><time>2026-04-22T09:59:48Z</time></trkpt><trkpt lat="59.1034626961" lon="29.9965167046"><time>2026-04-22T09:59:50Z</time></trkpt><trkpt lat="59.1034841537" lon="29.9965596199"><time>2026-04-22T09:59:53Z</time></trkpt><trkpt lat="59.1035485268" lon="29.9966025352"><time>2026-04-22T09:59:55Z</time></trkpt><trkpt lat="59.1035699844" lon="29.9966239929"><time>2026-04-22T09:59:58Z</time></trkpt><trkpt lat="59.1036128998" lon="29.9966239929"><time>2026-04-22T10:00:00Z</time></trkpt><trkpt lat="59.1036343575" lon="29.9966239929"><time>2026-04-22T10:00:03Z</time></trkpt><trkpt lat="59.1036558151" lon="29.9966239929"><time>2026-04-22T10:00:05Z</time></trkpt><trkpt lat="59.1036558151" lon="29.9966239929"><time>2026-04-22T10:00:08Z</time></trkpt><trkpt lat="59.1036343575" lon="29.9966669083"><time>2026-04-22T10:00:10Z</time></trkpt><trkpt lat="59.1036128998" lon="29.9967098236"><time>2026-04-22T10:00:13Z</time></trkpt><trkpt lat="59.1036558151" lon="29.9967312813"><time>2026-04-22T10:00:15Z</time></trkpt><trkpt lat="59.1036772728" lon="29.9967312813"><time>2026-04-22T10:00:18Z</time></trkpt><trkpt lat="59.1036987305" lon="29.9967098236"><time>2026-04-22T10:00:20Z</time></trkpt><trkpt lat="59.1037416458" lon="29.9967098236"><time>2026-04-22T10:00:23Z</time></trkpt><trkpt lat="59.1037416458" lon="29.9967098236"><time>2026-04-22T10:00:25Z</time></trkpt><trkpt lat="59.1037416458" lon="29.9967312813"><time>2026-04-22T10:00:28Z</time></trkpt><trkpt lat="59.1037845612" lon="29.9967312813"><time>2026-04-22T10:00:30Z</time></trkpt><trkpt lat="59.1038060188" lon="29.9967098236"><time>2026-04-22T10:00:33Z</time></trkpt><trkpt lat="59.1038489342" lon="29.9966883659"><time>2026-04-22T10:00:35Z</time></trkpt><trkpt lat="59.1038703918" lon="29.9966883659"><time>2026-04-22T10:00:38Z</time></trkpt><trkpt lat="59.1038918495" lon="29.9966669083"><time>2026-04-22T10:00:40Z</time></trkpt><trkpt lat="59.1039347649" lon="29.9966454506"><time>2026-04-22T10:00:43Z</time></trkpt><trkpt lat="59.1039562225" lon="29.9966454506"><time>2026-04-22T10:00:45Z</time></trkpt><trkpt lat="59.1039562225" lon="29.9966454506"><time>2026-04-22T10:00:48Z</time></trkpt><trkpt lat="59.1039991379" lon="29.9966883659"><time>2026-04-22T10:00:50Z</time></trkpt><trkpt lat="59.1039991379" lon="29.9966669083"><time>2026-04-22T10:00:53Z</time></trkpt><trkpt lat="59.1039991379" lon="29.9966669083"><time>2026-04-22T10:00:55Z</time></trkpt><trkpt lat="59.1040205956" lon="29.9966239929"><time>2026-04-22T10:00:58Z</time></trkpt><trkpt lat="59.1040420532" lon="29.9965596199"><time>2026-04-22T10:01:00Z</time></trkpt><trkpt lat="59.1040635109" lon="29.9965381622"><time>2026-04-22T10:01:03Z</time></trkpt><trkpt lat="59.1040849686" lon="29.9965596199"><time>2026-04-22T10:01:05Z</time></trkpt><trkpt lat="59.1040849686" lon="29.9965596199"><time>2026-04-22T10:01:08Z</time></trkpt><trkpt lat="59.1041064262" lon="29.9965596199"><time>2026-04-22T10:01:10Z</time></trkpt><trkpt lat="59.1041278839" lon="29.9965810776"><time>2026-04-22T10:01:13Z</time></trkpt><trkpt lat="59.1041922569" lon="29.9966239929"><time>2026-04-22T10:01:15Z</time></trkpt><trkpt lat="59.1042137146" lon="29.9966669083"><time>2026-04-22T10:01:18Z</time></trkpt><trkpt lat="59.1042566299" lon="29.9966454506"><time>2026-04-22T10:01:20Z</time></trkpt><trkpt lat="59.1042780876" lon="29.9966025352"><time>2026-04-22T10:01:23Z</time></trkpt><trkpt lat="59.1042780876" lon="29.9966025352"><time>2026-04-22T10:01:25Z</time></trkpt><trkpt lat="59.1042780876" lon="29.9965810776"><time>2026-04-22T10:01:28Z</time></trkpt><trkpt lat="59.1042995453" lon="29.9964952469"><time>2026-04-22T10:01:30Z</time></trkpt><trkpt lat="59.1042995453" lon="29.9964523315"><time>2026-04-22T10:01:33Z</time></trkpt><trkpt lat="59.1043210030" lon="29.9962592125"><time>2026-04-22T10:01:35Z</time></trkpt><trkpt lat="59.1043210030" lon="29.9961733818"><time>2026-04-22T10:01:38Z</time></trkpt><trkpt lat="59.1042995453" lon="29.9962806702"><time>2026-04-22T10:01:40Z</time></trkpt><trkpt lat="59.1043210030" lon="29.9962806702"><time>2026-04-22T10:01:43Z</time></trkpt><trkpt lat="59.1043424606" lon="29.9961948395"><time>2026-04-22T10:01:45Z</time></trkpt><trkpt lat="59.1043424606" lon="29.9962377548"><time>2026-04-22T10:01:48Z</time></trkpt><trkpt lat="59.1042995453" lon="29.9963235855"><time>2026-04-22T10:01:50Z</time></trkpt><trkpt lat="59.1042995453" lon="29.9963235855"><time>2026-04-22T10:01:53Z</time></trkpt><trkpt lat="59.1042995453" lon="29.9963235855"><time>2026-04-22T10:01:55Z</time></trkpt><trkpt lat="59.1042995453" lon="29.9963235855"><time>2026-04-22T10:01:58Z</time></trkpt><trkpt lat="59.1042995453" lon="29.9963235855"><time>2026-04-22T10:02:00Z</time></trkpt><trkpt lat="59.1042995453" lon="29.9963021278"><time>2026-04-22T10:02:03Z</time></trkpt><trkpt lat="59.1043424606" lon="29.9961519241"><time>2026-04-22T10:02:05Z</time></trkpt><trkpt lat="59.1043639183" lon="29.9960660934"><time>2026-04-22T10:02:08Z</time></trkpt><trkpt lat="59.1043853760" lon="29.9961304665"><time>2026-04-22T10:02:10Z</time></trkpt><trkpt lat="59.1043853760" lon="29.9961519241"><time>2026-04-22T10:02:13Z</time></trkpt><trkpt lat="59.1044068336" lon="29.9961948395"><time>2026-04-22T10:02:15Z</time></trkpt><trkpt lat="59.1043853760" lon="29.9962162971"><time>2026-04-22T10:02:18Z</time></trkpt><trkpt lat="59.1044068336" lon="29.9963021278"><time>2026-04-22T10:02:20Z</time></trkpt><trkpt lat="59.1044282913" lon="29.9963879585"><time>2026-04-22T10:02:23Z</time></trkpt><trkpt lat="59.1044497490" lon="29.9963665009"><time>2026-04-22T10:02:25Z</time></trkpt><trkpt lat="59.1044497490" lon="29.9962592125"><time>2026-04-22T10:02:28Z</time></trkpt><trkpt lat="59.1044068336" lon="29.9961519241"><time>2026-04-22T10:02:30Z</time></trkpt><trkpt lat="59.1043853760" lon="29.9960446358"><time>2026-04-22T10:02:33Z</time></trkpt><trkpt lat="59.1043424606" lon="29.9960446358"><time>2026-04-22T10:02:35Z</time></trkpt><trkpt lat="59.1043853760" lon="29.9961090088"><time>2026-04-22T10:02:38Z</time></trkpt><trkpt lat="59.1044497490" lon="29.9960231781"><time>2026-04-22T10:02:40Z</time></trkpt><trkpt lat="59.1045141220" lon="29.9960231781"><time>2026-04-22T10:02:43Z</time></trkpt><trkpt lat="59.1045570374" lon="29.9961304665"><time>2026-04-22T10:02:45Z</time></trkpt><trkpt lat="59.1045570374" lon="29.9962377548"><time>2026-04-22T10:02:48Z</time></trkpt><trkpt lat="59.1045784950" lon="29.9963450432"><time>2026-04-22T10:02:50Z</time></trkpt><trkpt lat="59.1046214104" lon="29.9963450432"><time>2026-04-22T10:02:53Z</time></trkpt><trkpt lat="59.1046643257" lon="29.9963235855"><time>2026-04-22T10:02:55Z</time></trkpt><trkpt lat="59.1046857834" lon="29.9963021278"><time>2026-04-22T10:02:58Z</time></trkpt><trkpt lat="59.1047072411" lon="29.9962162971"><time>2026-04-22T10:03:00Z</time></trkpt><trkpt lat="59.1047286987" lon="29.9961519241"><time>2026-04-22T10:03:03Z</time></trkpt><trkpt lat="59.1047930717" lon="29.9960446358"><time>2026-04-22T10:03:05Z</time></trkpt><trkpt lat="59.1047930717" lon="29.9960017204"><time>2026-04-22T10:03:08Z</time></trkpt><trkpt lat="59.1047930717" lon="29.9960017204"><time>2026-04-22T10:03:10Z</time></trkpt><trkpt lat="59.1047930717" lon="29.9960017204"><time>2026-04-22T10:03:13Z</time></trkpt><trkpt lat="59.1047930717" lon="29.9960017204"><time>2026-04-22T10:03:18Z</time></trkpt><trkpt lat="59.1047930717" lon="29.9960017204"><time>2026-04-22T10:03:20Z</time></trkpt><trkpt lat="59.1048145294" lon="29.9959802628"><time>2026-04-22T10:03:23Z</time></trkpt><trkpt lat="59.1048359871" lon="29.9958515167"><time>2026-04-22T10:03:25Z</time></trkpt><trkpt lat="59.1048359871" lon="29.9957442284"><time>2026-04-22T10:03:28Z</time></trkpt><trkpt lat="59.1048789024" lon="29.9955940247"><time>2026-04-22T10:03:30Z</time></trkpt><trkpt lat="59.1048789024" lon="29.9955940247"><time>2026-04-22T10:03:33Z</time></trkpt><trkpt lat="59.1049003601" lon="29.9955511093"><time>2026-04-22T10:03:35Z</time></trkpt><trkpt lat="59.1049218178" lon="29.9955725670"><time>2026-04-22T10:03:38Z</time></trkpt><trkpt lat="59.1049647331" lon="29.9956583977"><time>2026-04-22T10:03:40Z</time></trkpt><trkpt lat="59.1049647331" lon="29.9957227707"><time>2026-04-22T10:03:43Z</time></trkpt><trkpt lat="59.1049861908" lon="29.9958086014"><time>2026-04-22T10:03:45Z</time></trkpt><trkpt lat="59.1049861908" lon="29.9958729744"><time>2026-04-22T10:03:48Z</time></trkpt><trkpt lat="59.1049647331" lon="29.9959158897"><time>2026-04-22T10:03:50Z</time></trkpt><trkpt lat="59.1049432755" lon="29.9959802628"><time>2026-04-22T10:03:53Z</time></trkpt><trkpt lat="59.1049861908" lon="29.9960446358"><time>2026-04-22T10:03:55Z</time></trkpt><trkpt lat="59.1050076485" lon="29.9960875511"><time>2026-04-22T10:03:58Z</time></trkpt><trkpt lat="59.1050291061" lon="29.9961090088"><time>2026-04-22T10:04:00Z</time></trkpt><trkpt lat="59.1050505638" lon="29.9961304665"><time>2026-04-22T10:04:03Z</time></trkpt><trkpt lat="59.1050934792" lon="29.9961304665"><time>2026-04-22T10:04:05Z</time></trkpt><trkpt lat="59.1051363945" lon="29.9961304665"><time>2026-04-22T10:04:08Z</time></trkpt><trkpt lat="59.1051578522" lon="29.9961519241"><time>2026-04-22T10:04:10Z</time></trkpt><trkpt lat="59.1051578522" lon="29.9961519241"><time>2026-04-22T10:04:13Z</time></trkpt><trkpt lat="59.1051578522" lon="29.9961304665"><time>2026-04-22T10:04:15Z</time></trkpt><trkpt lat="59.1051363945" lon="29.9961304665"><time>2026-04-22T10:04:18Z</time></trkpt><trkpt lat="59.1051363945" lon="29.9961304665"><time>2026-04-22T10:04:20Z</time></trkpt><trkpt lat="59.1051578522" lon="29.9961090088"><time>2026-04-22T10:04:23Z</time></trkpt><trkpt lat="59.1051578522" lon="29.9960875511"><time>2026-04-22T10:04:25Z</time></trkpt><trkpt lat="59.1051578522" lon="29.9960875511"><time>2026-04-22T10:04:28Z</time></trkpt><trkpt lat="59.1051578522" lon="29.9961090088"><time>2026-04-22T10:04:30Z</time></trkpt><trkpt lat="59.1051578522" lon="29.9961304665"><time>2026-04-22T10:04:33Z</time></trkpt><trkpt lat="59.1051363945" lon="29.9961304665"><time>2026-04-22T10:04:35Z</time></trkpt><trkpt lat="59.1051363945" lon="29.9961304665"><time>2026-04-22T10:04:38Z</time></trkpt><trkpt lat="59.1051363945" lon="29.9961304665"><time>2026-04-22T10:04:40Z</time></trkpt><trkpt lat="59.1051363945" lon="29.9961304665"><time>2026-04-22T10:04:43Z</time></trkpt><trkpt lat="59.1051363945" lon="29.9961304665"><time>2026-04-22T10:04:45Z</time></trkpt><trkpt lat="59.1051363945" lon="29.9961304665"><time>2026-04-22T10:04:48Z</time></trkpt><trkpt lat="59.1051363945" lon="29.9961304665"><time>2026-04-22T10:04:50Z</time></trkpt><trkpt lat="59.1051363945" lon="29.9961304665"><time>2026-04-22T10:04:53Z</time></trkpt><trkpt lat="59.1051363945" lon="29.9961304665"><time>2026-04-22T10:04:55Z</time></trkpt><trkpt lat="59.1051363945" lon="29.9961304665"><time>2026-04-22T10:04:58Z</time></trkpt><trkpt lat="59.1051363945" lon="29.9961304665"><time>2026-04-22T10:05:00Z</time></trkpt><trkpt lat="59.1051363945" lon="29.9961304665"><time>2026-04-22T10:05:03Z</time></trkpt><trkpt lat="59.1051363945" lon="29.9961304665"><time>2026-04-22T10:05:05Z</time></trkpt><trkpt lat="59.1051363945" lon="29.9961304665"><time>2026-04-22T10:05:08Z</time></trkpt><trkpt lat="59.1051363945" lon="29.9961304665"><time>2026-04-22T10:05:10Z</time></trkpt><trkpt lat="59.1051363945" lon="29.9961304665"><time>2026-04-22T10:05:13Z</time></trkpt><trkpt lat="59.1051578522" lon="29.9961304665"><time>2026-04-22T10:05:15Z</time></trkpt><trkpt lat="59.1051578522" lon="29.9961304665"><time>2026-04-22T10:05:18Z</time></trkpt><trkpt lat="59.1051578522" lon="29.9961304665"><time>2026-04-22T10:05:20Z</time></trkpt><trkpt lat="59.1051578522" lon="29.9961304665"><time>2026-04-22T10:05:23Z</time></trkpt><trkpt lat="59.1051578522" lon="29.9961304665"><time>2026-04-22T10:05:25Z</time></trkpt><trkpt lat="59.1051578522" lon="29.9961304665"><time>2026-04-22T10:05:28Z</time></trkpt><trkpt lat="59.1051578522" lon="29.9961304665"><time>2026-04-22T10:05:30Z</time></trkpt><trkpt lat="59.1051578522" lon="29.9961304665"><time>2026-04-22T10:05:33Z</time></trkpt><trkpt lat="59.1051578522" lon="29.9961304665"><time>2026-04-22T10:05:35Z</time></trkpt><trkpt lat="59.1051578522" lon="29.9961304665"><time>2026-04-22T10:05:38Z</time></trkpt><trkpt lat="59.1051363945" lon="29.9961304665"><time>2026-04-22T10:05:40Z</time></trkpt><trkpt lat="59.1051578522" lon="29.9961090088"><time>2026-04-22T10:05:43Z</time></trkpt><trkpt lat="59.1051578522" lon="29.9960446358"><time>2026-04-22T10:05:45Z</time></trkpt><trkpt lat="59.1051793098" lon="29.9959373474"><time>2026-04-22T10:05:48Z</time></trkpt><trkpt lat="59.1051793098" lon="29.9958944321"><time>2026-04-22T10:05:50Z</time></trkpt><trkpt lat="59.1052007675" lon="29.9958729744"><time>2026-04-22T10:05:53Z</time></trkpt><trkpt lat="59.1051793098" lon="29.9958729744"><time>2026-04-22T10:05:55Z</time></trkpt><trkpt lat="59.1051793098" lon="29.9958729744"><time>2026-04-22T10:05:58Z</time></trkpt><trkpt lat="59.1051793098" lon="29.9958729744"><time>2026-04-22T10:06:00Z</time></trkpt><trkpt lat="59.1051793098" lon="29.9958729744"><time>2026-04-22T10:06:03Z</time></trkpt><trkpt lat="59.1051793098" lon="29.9958729744"><time>2026-04-22T10:06:05Z</time></trkpt><trkpt lat="59.1052007675" lon="29.9958086014"><time>2026-04-22T10:06:08Z</time></trkpt><trkpt lat="59.1052436829" lon="29.9957442284"><time>2026-04-22T10:06:10Z</time></trkpt><trkpt lat="59.1052436829" lon="29.9957227707"><time>2026-04-22T10:06:13Z</time></trkpt><trkpt lat="59.1052436829" lon="29.9957227707"><time>2026-04-22T10:06:15Z</time></trkpt><trkpt lat="59.1052436829" lon="29.9957227707"><time>2026-04-22T10:06:18Z</time></trkpt><trkpt lat="59.1052436829" lon="29.9957227707"><time>2026-04-22T10:06:20Z</time></trkpt><trkpt lat="59.1052651405" lon="29.9957227707"><time>2026-04-22T10:06:23Z</time></trkpt><trkpt lat="59.1052651405" lon="29.9956369400"><time>2026-04-22T10:06:25Z</time></trkpt><trkpt lat="59.1052865982" lon="29.9955725670"><time>2026-04-22T10:06:28Z</time></trkpt><trkpt lat="59.1052865982" lon="29.9954652786"><time>2026-04-22T10:06:30Z</time></trkpt><trkpt lat="59.1053080559" lon="29.9953794479"><time>2026-04-22T10:06:33Z</time></trkpt><trkpt lat="59.1053080559" lon="29.9952936172"><time>2026-04-22T10:06:35Z</time></trkpt><trkpt lat="59.1053080559" lon="29.9952721596"><time>2026-04-22T10:06:38Z</time></trkpt><trkpt lat="59.1053080559" lon="29.9952721596"><time>2026-04-22T10:06:40Z</time></trkpt><trkpt lat="59.1053080559" lon="29.9952721596"><time>2026-04-22T10:06:43Z</time></trkpt><trkpt lat="59.1053080559" lon="29.9952721596"><time>2026-04-22T10:06:45Z</time></trkpt><trkpt lat="59.1053080559" lon="29.9952721596"><time>2026-04-22T10:06:48Z</time></trkpt><trkpt lat="59.1053080559" lon="29.9952721596"><time>2026-04-22T10:06:50Z</time></trkpt><trkpt lat="59.1053080559" lon="29.9952721596"><time>2026-04-22T10:06:53Z</time></trkpt><trkpt lat="59.1052651405" lon="29.9952936172"><time>2026-04-22T10:06:55Z</time></trkpt><trkpt lat="59.1052865982" lon="29.9952721596"><time>2026-04-22T10:06:58Z</time></trkpt><trkpt lat="59.1052865982" lon="29.9952721596"><time>2026-04-22T10:07:00Z</time></trkpt><trkpt lat="59.1052865982" lon="29.9952721596"><time>2026-04-22T10:07:03Z</time></trkpt><trkpt lat="59.1052865982" lon="29.9952721596"><time>2026-04-22T10:07:05Z</time></trkpt><trkpt lat="59.1052865982" lon="29.9952507019"><time>2026-04-22T10:07:08Z</time></trkpt><trkpt lat="59.1052436829" lon="29.9952292442"><time>2026-04-22T10:07:10Z</time></trkpt><trkpt lat="59.1052222252" lon="29.9951863289"><time>2026-04-22T10:07:13Z</time></trkpt><trkpt lat="59.1052007675" lon="29.9951648712"><time>2026-04-22T10:07:15Z</time></trkpt><trkpt lat="59.1051793098" lon="29.9951434135"><time>2026-04-22T10:07:18Z</time></trkpt><trkpt lat="59.1051578522" lon="29.9950790405"><time>2026-04-22T10:07:20Z</time></trkpt><trkpt lat="59.1052007675" lon="29.9951004982"><time>2026-04-22T10:07:23Z</time></trkpt><trkpt lat="59.1052651405" lon="29.9950790405"><time>2026-04-22T10:07:25Z</time></trkpt><trkpt lat="59.1052865982" lon="29.9950361252"><time>2026-04-22T10:07:28Z</time></trkpt><trkpt lat="59.1052865982" lon="29.9950146675"><time>2026-04-22T10:07:30Z</time></trkpt><trkpt lat="59.1052865982" lon="29.9950146675"><time>2026-04-22T10:07:33Z</time></trkpt><trkpt lat="59.1053080559" lon="29.9949288368"><time>2026-04-22T10:07:35Z</time></trkpt><trkpt lat="59.1053295135" lon="29.9948859215"><time>2026-04-22T10:07:38Z</time></trkpt><trkpt lat="59.1053509712" lon="29.9948000908"><time>2026-04-22T10:07:40Z</time></trkpt><trkpt lat="59.1053295135" lon="29.9947571754"><time>2026-04-22T10:07:43Z</time></trkpt><trkpt lat="59.1053080559" lon="29.9947786331"><time>2026-04-22T10:07:45Z</time></trkpt><trkpt lat="59.1052865982" lon="29.9947786331"><time>2026-04-22T10:07:48Z</time></trkpt><trkpt lat="59.1052865982" lon="29.9948430061"><time>2026-04-22T10:07:50Z</time></trkpt><trkpt lat="59.1052865982" lon="29.9948644638"><time>2026-04-22T10:07:53Z</time></trkpt><trkpt lat="59.1052865982" lon="29.9948644638"><time>2026-04-22T10:07:55Z</time></trkpt><trkpt lat="59.1052865982" lon="29.9948644638"><time>2026-04-22T10:07:58Z</time></trkpt><trkpt lat="59.1052865982" lon="29.9948644638"><time>2026-04-22T10:08:00Z</time></trkpt><trkpt lat="59.1053080559" lon="29.9948644638"><time>2026-04-22T10:08:03Z</time></trkpt><trkpt lat="59.1053080559" lon="29.9948644638"><time>2026-04-22T10:08:05Z</time></trkpt><trkpt lat="59.1053080559" lon="29.9948644638"><time>2026-04-22T10:08:08Z</time></trkpt><trkpt lat="59.1053080559" lon="29.9948644638"><time>2026-04-22T10:08:10Z</time></trkpt><trkpt lat="59.1053080559" lon="29.9948644638"><time>2026-04-22T10:08:13Z</time></trkpt><trkpt lat="59.1053080559" lon="29.9948644638"><time>2026-04-22T10:08:15Z</time></trkpt><trkpt lat="59.1053080559" lon="29.9948644638"><time>2026-04-22T10:08:18Z</time></trkpt><trkpt lat="59.1053080559" lon="29.9948644638"><time>2026-04-22T10:08:20Z</time></trkpt><trkpt lat="59.1053080559" lon="29.9948644638"><time>2026-04-22T10:08:23Z</time></trkpt><trkpt lat="59.1053080559" lon="29.9948644638"><time>2026-04-22T10:08:25Z</time></trkpt><trkpt lat="59.1053080559" lon="29.9948644638"><time>2026-04-22T10:08:28Z</time></trkpt><trkpt lat="59.1053080559" lon="29.9948644638"><time>2026-04-22T10:08:30Z</time></trkpt><trkpt lat="59.1053080559" lon="29.9948644638"><time>2026-04-22T10:08:33Z</time></trkpt><trkpt lat="59.1053080559" lon="29.9948644638"><time>2026-04-22T10:08:35Z</time></trkpt><trkpt lat="59.1053080559" lon="29.9948644638"><time>2026-04-22T10:08:38Z</time></trkpt><trkpt lat="59.1053080559" lon="29.9948644638"><time>2026-04-22T10:08:40Z</time></trkpt><trkpt lat="59.1053080559" lon="29.9948644638"><time>2026-04-22T10:08:43Z</time></trkpt><trkpt lat="59.1053080559" lon="29.9948644638"><time>2026-04-22T10:08:45Z</time></trkpt><trkpt lat="59.1053080559" lon="29.9948644638"><time>2026-04-22T10:08:48Z</time></trkpt><trkpt lat="59.1053080559" lon="29.9948644638"><time>2026-04-22T10:08:50Z</time></trkpt><trkpt lat="59.1053080559" lon="29.9948644638"><time>2026-04-22T10:08:53Z</time></trkpt><trkpt lat="59.1053080559" lon="29.9948644638"><time>2026-04-22T10:08:55Z</time></trkpt><trkpt lat="59.1053080559" lon="29.9948644638"><time>2026-04-22T10:08:58Z</time></trkpt><trkpt lat="59.1053080559" lon="29.9948644638"><time>2026-04-22T10:09:00Z</time></trkpt><trkpt lat="59.1053080559" lon="29.9948644638"><time>2026-04-22T10:09:03Z</time></trkpt><trkpt lat="59.1053080559" lon="29.9948644638"><time>2026-04-22T10:09:05Z</time></trkpt><trkpt lat="59.1053080559" lon="29.9948644638"><time>2026-04-22T10:09:08Z</time></trkpt><trkpt lat="59.1053080559" lon="29.9948644638"><time>2026-04-22T10:09:10Z</time></trkpt><trkpt lat="59.1053080559" lon="29.9948644638"><time>2026-04-22T10:09:13Z</time></trkpt><trkpt lat="59.1053080559" lon="29.9948644638"><time>2026-04-22T10:09:15Z</time></trkpt><trkpt lat="59.1053080559" lon="29.9948644638"><time>2026-04-22T10:09:18Z</time></trkpt><trkpt lat="59.1053080559" lon="29.9948644638"><time>2026-04-22T10:09:20Z</time></trkpt><trkpt lat="59.1053080559" lon="29.9948859215"><time>2026-04-22T10:09:23Z</time></trkpt><trkpt lat="59.1053080559" lon="29.9948859215"><time>2026-04-22T10:09:28Z</time></trkpt><trkpt lat="59.1053080559" lon="29.9948859215"><time>2026-04-22T10:09:30Z</time></trkpt><trkpt lat="59.1053080559" lon="29.9948859215"><time>2026-04-22T10:09:33Z</time></trkpt><trkpt lat="59.1053080559" lon="29.9948859215"><time>2026-04-22T10:09:35Z</time></trkpt><trkpt lat="59.1053080559" lon="29.9948859215"><time>2026-04-22T10:09:38Z</time></trkpt><trkpt lat="59.1053080559" lon="29.9948859215"><time>2026-04-22T10:09:40Z</time></trkpt><trkpt lat="59.1053080559" lon="29.9948859215"><time>2026-04-22T10:09:43Z</time></trkpt><trkpt lat="59.1053080559" lon="29.9948859215"><time>2026-04-22T10:09:45Z</time></trkpt><trkpt lat="59.1053080559" lon="29.9948859215"><time>2026-04-22T10:09:48Z</time></trkpt><trkpt lat="59.1053080559" lon="29.9948859215"><time>2026-04-22T10:09:50Z</time></trkpt><trkpt lat="59.1053080559" lon="29.9948859215"><time>2026-04-22T10:09:53Z</time></trkpt><trkpt lat="59.1053080559" lon="29.9948859215"><time>2026-04-22T10:09:55Z</time></trkpt><trkpt lat="59.1053080559" lon="29.9948859215"><time>2026-04-22T10:09:58Z</time></trkpt><trkpt lat="59.1053080559" lon="29.9948859215"><time>2026-04-22T10:10:00Z</time></trkpt><trkpt lat="59.1053080559" lon="29.9948644638"><time>2026-04-22T10:10:03Z</time></trkpt><trkpt lat="59.1053080559" lon="29.9948644638"><time>2026-04-22T10:10:05Z</time></trkpt><trkpt lat="59.1053080559" lon="29.9948644638"><time>2026-04-22T10:10:08Z</time></trkpt><trkpt lat="59.1053080559" lon="29.9948644638"><time>2026-04-22T10:10:10Z</time></trkpt><trkpt lat="59.1053080559" lon="29.9948644638"><time>2026-04-22T10:10:13Z</time></trkpt><trkpt lat="59.1053080559" lon="29.9948644638"><time>2026-04-22T10:10:15Z</time></trkpt><trkpt lat="59.1053080559" lon="29.9948644638"><time>2026-04-22T10:10:18Z</time></trkpt><trkpt lat="59.1053080559" lon="29.9948644638"><time>2026-04-22T10:10:20Z</time></trkpt><trkpt lat="59.1053080559" lon="29.9948644638"><time>2026-04-22T10:10:23Z</time></trkpt><trkpt lat="59.1053080559" lon="29.9948644638"><time>2026-04-22T10:10:25Z</time></trkpt><trkpt lat="59.1053080559" lon="29.9948644638"><time>2026-04-22T10:10:28Z</time></trkpt><trkpt lat="59.1053080559" lon="29.9948644638"><time>2026-04-22T10:10:30Z</time></trkpt><trkpt lat="59.1053080559" lon="29.9948644638"><time>2026-04-22T10:10:33Z</time></trkpt><trkpt lat="59.1053080559" lon="29.9948644638"><time>2026-04-22T10:10:38Z</time></trkpt><trkpt lat="59.1053080559" lon="29.9948859215"><time>2026-04-22T10:10:40Z</time></trkpt><trkpt lat="59.1053080559" lon="29.9948859215"><time>2026-04-22T10:10:43Z</time></trkpt><trkpt lat="59.1053080559" lon="29.9948859215"><time>2026-04-22T10:10:45Z</time></trkpt><trkpt lat="59.1053080559" lon="29.9948859215"><time>2026-04-22T10:10:48Z</time></trkpt><trkpt lat="59.1053080559" lon="29.9948859215"><time>2026-04-22T10:10:50Z</time></trkpt><trkpt lat="59.1053080559" lon="29.9948859215"><time>2026-04-22T10:10:53Z</time></trkpt><trkpt lat="59.1053080559" lon="29.9948859215"><time>2026-04-22T10:10:55Z</time></trkpt><trkpt lat="59.1053080559" lon="29.9948859215"><time>2026-04-22T10:10:58Z</time></trkpt><trkpt lat="59.1053080559" lon="29.9948859215"><time>2026-04-22T10:11:00Z</time></trkpt><trkpt lat="59.1053080559" lon="29.9948859215"><time>2026-04-22T10:11:03Z</time></trkpt><trkpt lat="59.1053080559" lon="29.9948859215"><time>2026-04-22T10:11:05Z</time></trkpt><trkpt lat="59.1052865982" lon="29.9948859215"><time>2026-04-22T10:11:08Z</time></trkpt><trkpt lat="59.1052651405" lon="29.9948859215"><time>2026-04-22T10:11:10Z</time></trkpt><trkpt lat="59.1052222252" lon="29.9948859215"><time>2026-04-22T10:11:13Z</time></trkpt><trkpt lat="59.1052007675" lon="29.9949073792"><time>2026-04-22T10:11:15Z</time></trkpt><trkpt lat="59.1051578522" lon="29.9949502945"><time>2026-04-22T10:11:18Z</time></trkpt><trkpt lat="59.1051363945" lon="29.9949502945"><time>2026-04-22T10:11:20Z</time></trkpt><trkpt lat="59.1051149368" lon="29.9949932098"><time>2026-04-22T10:11:23Z</time></trkpt><trkpt lat="59.1051149368" lon="29.9950146675"><time>2026-04-22T10:11:25Z</time></trkpt><trkpt lat="59.1050934792" lon="29.9950146675"><time>2026-04-22T10:11:28Z</time></trkpt><trkpt lat="59.1050934792" lon="29.9949932098"><time>2026-04-22T10:11:30Z</time></trkpt><trkpt lat="59.1050720215" lon="29.9949502945"><time>2026-04-22T10:11:33Z</time></trkpt><trkpt lat="59.1050720215" lon="29.9949502945"><time>2026-04-22T10:11:35Z</time></trkpt><trkpt lat="59.1050934792" lon="29.9949288368"><time>2026-04-22T10:11:38Z</time></trkpt><trkpt lat="59.1050934792" lon="29.9949288368"><time>2026-04-22T10:11:40Z</time></trkpt><trkpt lat="59.1051363945" lon="29.9949288368"><time>2026-04-22T10:11:43Z</time></trkpt><trkpt lat="59.1051363945" lon="29.9949288368"><time>2026-04-22T10:11:45Z</time></trkpt><trkpt lat="59.1051363945" lon="29.9949288368"><time>2026-04-22T10:11:48Z</time></trkpt><trkpt lat="59.1051149368" lon="29.9950146675"><time>2026-04-22T10:11:53Z</time></trkpt><trkpt lat="59.1051149368" lon="29.9950575829"><time>2026-04-22T10:11:55Z</time></trkpt><trkpt lat="59.1051363945" lon="29.9951434135"><time>2026-04-22T10:11:58Z</time></trkpt><trkpt lat="59.1051149368" lon="29.9951219559"><time>2026-04-22T10:12:00Z</time></trkpt><trkpt lat="59.1050934792" lon="29.9950575829"><time>2026-04-22T10:12:03Z</time></trkpt><trkpt lat="59.1050934792" lon="29.9949717522"><time>2026-04-22T10:12:05Z</time></trkpt><trkpt lat="59.1050720215" lon="29.9949288368"><time>2026-04-22T10:12:08Z</time></trkpt><trkpt lat="59.1050291061" lon="29.9949073792"><time>2026-04-22T10:12:10Z</time></trkpt><trkpt lat="59.1050076485" lon="29.9949073792"><time>2026-04-22T10:12:13Z</time></trkpt><trkpt lat="59.1049647331" lon="29.9949502945"><time>2026-04-22T10:12:15Z</time></trkpt><trkpt lat="59.1049432755" lon="29.9949502945"><time>2026-04-22T10:12:18Z</time></trkpt><trkpt lat="59.1049003601" lon="29.9949288368"><time>2026-04-22T10:12:20Z</time></trkpt><trkpt lat="59.1048789024" lon="29.9948859215"><time>2026-04-22T10:12:23Z</time></trkpt><trkpt lat="59.1048789024" lon="29.9948430061"><time>2026-04-22T10:12:25Z</time></trkpt><trkpt lat="59.1048574448" lon="29.9948000908"><time>2026-04-22T10:12:28Z</time></trkpt><trkpt lat="59.1048359871" lon="29.9947571754"><time>2026-04-22T10:12:30Z</time></trkpt><trkpt lat="59.1048145294" lon="29.9947142601"><time>2026-04-22T10:12:33Z</time></trkpt><trkpt lat="59.1048145294" lon="29.9946928024"><time>2026-04-22T10:12:35Z</time></trkpt><trkpt lat="59.1048145294" lon="29.9946928024"><time>2026-04-22T10:12:38Z</time></trkpt><trkpt lat="59.1048145294" lon="29.9946928024"><time>2026-04-22T10:12:40Z</time></trkpt><trkpt lat="59.1048145294" lon="29.9946928024"><time>2026-04-22T10:12:43Z</time></trkpt><trkpt lat="59.1048145294" lon="29.9946928024"><time>2026-04-22T10:12:45Z</time></trkpt><trkpt lat="59.1048145294" lon="29.9946928024"><time>2026-04-22T10:12:48Z</time></trkpt><trkpt lat="59.1048145294" lon="29.9946928024"><time>2026-04-22T10:12:50Z</time></trkpt><trkpt lat="59.1048145294" lon="29.9946928024"><time>2026-04-22T10:12:53Z</time></trkpt><trkpt lat="59.1048145294" lon="29.9946928024"><time>2026-04-22T10:12:55Z</time></trkpt><trkpt lat="59.1048145294" lon="29.9947357178"><time>2026-04-22T10:12:58Z</time></trkpt><trkpt lat="59.1048145294" lon="29.9947357178"><time>2026-04-22T10:13:00Z</time></trkpt><trkpt lat="59.1048145294" lon="29.9947357178"><time>2026-04-22T10:13:03Z</time></trkpt><trkpt lat="59.1047930717" lon="29.9947357178"><time>2026-04-22T10:13:05Z</time></trkpt><trkpt lat="59.1047930717" lon="29.9947357178"><time>2026-04-22T10:13:08Z</time></trkpt><trkpt lat="59.1047930717" lon="29.9947357178"><time>2026-04-22T10:13:10Z</time></trkpt><trkpt lat="59.1047930717" lon="29.9947571754"><time>2026-04-22T10:13:13Z</time></trkpt><trkpt lat="59.1047930717" lon="29.9947571754"><time>2026-04-22T10:13:18Z</time></trkpt><trkpt lat="59.1047930717" lon="29.9947357178"><time>2026-04-22T10:13:20Z</time></trkpt><trkpt lat="59.1047930717" lon="29.9947357178"><time>2026-04-22T10:13:23Z</time></trkpt><trkpt lat="59.1047930717" lon="29.9947142601"><time>2026-04-22T10:13:25Z</time></trkpt><trkpt lat="59.1047716141" lon="29.9947142601"><time>2026-04-22T10:13:28Z</time></trkpt><trkpt lat="59.1047716141" lon="29.9947357178"><time>2026-04-22T10:13:30Z</time></trkpt><trkpt lat="59.1047716141" lon="29.9947357178"><time>2026-04-22T10:13:33Z</time></trkpt><trkpt lat="59.1047501564" lon="29.9946928024"><time>2026-04-22T10:13:35Z</time></trkpt><trkpt lat="59.1047501564" lon="29.9946928024"><time>2026-04-22T10:13:38Z</time></trkpt><trkpt lat="59.1047501564" lon="29.9946928024"><time>2026-04-22T10:13:40Z</time></trkpt><trkpt lat="59.1047501564" lon="29.9946928024"><time>2026-04-22T10:13:43Z</time></trkpt><trkpt lat="59.1047501564" lon="29.9947142601"><time>2026-04-22T10:13:45Z</time></trkpt><trkpt lat="59.1047501564" lon="29.9947357178"><time>2026-04-22T10:13:48Z</time></trkpt><trkpt lat="59.1047286987" lon="29.9947142601"><time>2026-04-22T10:13:50Z</time></trkpt><trkpt lat="59.1047072411" lon="29.9947142601"><time>2026-04-22T10:13:53Z</time></trkpt><trkpt lat="59.1047072411" lon="29.9947142601"><time>2026-04-22T10:13:55Z</time></trkpt><trkpt lat="59.1047072411" lon="29.9947142601"><time>2026-04-22T10:13:58Z</time></trkpt><trkpt lat="59.1047072411" lon="29.9947142601"><time>2026-04-22T10:14:00Z</time></trkpt><trkpt lat="59.1047072411" lon="29.9947142601"><time>2026-04-22T10:14:03Z</time></trkpt><trkpt lat="59.1047286987" lon="29.9947357178"><time>2026-04-22T10:14:05Z</time></trkpt><trkpt lat="59.1047286987" lon="29.9947357178"><time>2026-04-22T10:14:08Z</time></trkpt><trkpt lat="59.1047286987" lon="29.9947357178"><time>2026-04-22T10:14:10Z</time></trkpt><trkpt lat="59.1047072411" lon="29.9947142601"><time>2026-04-22T10:14:13Z</time></trkpt><trkpt lat="59.1046857834" lon="29.9947357178"><time>2026-04-22T10:14:15Z</time></trkpt><trkpt lat="59.1046857834" lon="29.9947357178"><time>2026-04-22T10:14:18Z</time></trkpt><trkpt lat="59.1046857834" lon="29.9947357178"><time>2026-04-22T10:14:20Z</time></trkpt><trkpt lat="59.1046857834" lon="29.9947357178"><time>2026-04-22T10:14:23Z</time></trkpt><trkpt lat="59.1046643257" lon="29.9947571754"><time>2026-04-22T10:14:25Z</time></trkpt><trkpt lat="59.1046214104" lon="29.9947786331"><time>2026-04-22T10:14:28Z</time></trkpt><trkpt lat="59.1045999527" lon="29.9947786331"><time>2026-04-22T10:14:30Z</time></trkpt><trkpt lat="59.1045784950" lon="29.9947571754"><time>2026-04-22T10:14:33Z</time></trkpt><trkpt lat="59.1045784950" lon="29.9947357178"><time>2026-04-22T10:14:35Z</time></trkpt><trkpt lat="59.1045784950" lon="29.9947357178"><time>2026-04-22T10:14:38Z</time></trkpt><trkpt lat="59.1045784950" lon="29.9947571754"><time>2026-04-22T10:14:40Z</time></trkpt><trkpt lat="59.1045784950" lon="29.9947571754"><time>2026-04-22T10:14:43Z</time></trkpt><trkpt lat="59.1045784950" lon="29.9947571754"><time>2026-04-22T10:14:45Z</time></trkpt><trkpt lat="59.1045784950" lon="29.9947786331"><time>2026-04-22T10:14:48Z</time></trkpt><trkpt lat="59.1045570374" lon="29.9948215485"><time>2026-04-22T10:14:50Z</time></trkpt><trkpt lat="59.1045570374" lon="29.9948430061"><time>2026-04-22T10:14:53Z</time></trkpt><trkpt lat="59.1045570374" lon="29.9949073792"><time>2026-04-22T10:14:55Z</time></trkpt><trkpt lat="59.1045570374" lon="29.9949288368"><time>2026-04-22T10:14:58Z</time></trkpt><trkpt lat="59.1045355797" lon="29.9949932098"><time>2026-04-22T10:15:00Z</time></trkpt><trkpt lat="59.1045141220" lon="29.9949932098"><time>2026-04-22T10:15:03Z</time></trkpt><trkpt lat="59.1044712067" lon="29.9949717522"><time>2026-04-22T10:15:05Z</time></trkpt><trkpt lat="59.1044497490" lon="29.9949502945"><time>2026-04-22T10:15:08Z</time></trkpt><trkpt lat="59.1044282913" lon="29.9949073792"><time>2026-04-22T10:15:10Z</time></trkpt><trkpt lat="59.1044068336" lon="29.9948859215"><time>2026-04-22T10:15:13Z</time></trkpt><trkpt lat="59.1044282913" lon="29.9949073792"><time>2026-04-22T10:15:15Z</time></trkpt><trkpt lat="59.1044282913" lon="29.9949288368"><time>2026-04-22T10:15:18Z</time></trkpt><trkpt lat="59.1044282913" lon="29.9949288368"><time>2026-04-22T10:15:20Z</time></trkpt><trkpt lat="59.1044282913" lon="29.9949288368"><time>2026-04-22T10:15:23Z</time></trkpt><trkpt lat="59.1044282913" lon="29.9949288368"><time>2026-04-22T10:15:25Z</time></trkpt><trkpt lat="59.1044282913" lon="29.9949288368"><time>2026-04-22T10:15:28Z</time></trkpt><trkpt lat="59.1044282913" lon="29.9949502945"><time>2026-04-22T10:15:30Z</time></trkpt><trkpt lat="59.1044282913" lon="29.9949502945"><time>2026-04-22T10:15:33Z</time></trkpt><trkpt lat="59.1044282913" lon="29.9949717522"><time>2026-04-22T10:15:35Z</time></trkpt><trkpt lat="59.1044282913" lon="29.9949717522"><time>2026-04-22T10:15:38Z</time></trkpt><trkpt lat="59.1044282913" lon="29.9949717522"><time>2026-04-22T10:15:40Z</time></trkpt><trkpt lat="59.1044068336" lon="29.9949717522"><time>2026-04-22T10:15:43Z</time></trkpt><trkpt lat="59.1043853760" lon="29.9950146675"><time>2026-04-22T10:15:45Z</time></trkpt><trkpt lat="59.1043639183" lon="29.9950361252"><time>2026-04-22T10:15:48Z</time></trkpt><trkpt lat="59.1043210030" lon="29.9950146675"><time>2026-04-22T10:15:50Z</time></trkpt><trkpt lat="59.1043210030" lon="29.9950146675"><time>2026-04-22T10:15:53Z</time></trkpt><trkpt lat="59.1042780876" lon="29.9950146675"><time>2026-04-22T10:15:55Z</time></trkpt><trkpt lat="59.1042566299" lon="29.9950361252"><time>2026-04-22T10:15:58Z</time></trkpt><trkpt lat="59.1042566299" lon="29.9950790405"><time>2026-04-22T10:16:00Z</time></trkpt><trkpt lat="59.1042780876" lon="29.9951219559"><time>2026-04-22T10:16:03Z</time></trkpt><trkpt lat="59.1042780876" lon="29.9951219559"><time>2026-04-22T10:16:05Z</time></trkpt><trkpt lat="59.1042780876" lon="29.9951219559"><time>2026-04-22T10:16:08Z</time></trkpt><trkpt lat="59.1042780876" lon="29.9951219559"><time>2026-04-22T10:16:13Z</time></trkpt><trkpt lat="59.1042780876" lon="29.9951219559"><time>2026-04-22T10:16:15Z</time></trkpt><trkpt lat="59.1042780876" lon="29.9951434135"><time>2026-04-22T10:16:18Z</time></trkpt><trkpt lat="59.1042780876" lon="29.9951863289"><time>2026-04-22T10:16:20Z</time></trkpt><trkpt lat="59.1042780876" lon="29.9951863289"><time>2026-04-22T10:16:23Z</time></trkpt><trkpt lat="59.1042351723" lon="29.9952077866"><time>2026-04-22T10:16:25Z</time></trkpt><trkpt lat="59.1042137146" lon="29.9952292442"><time>2026-04-22T10:16:28Z</time></trkpt><trkpt lat="59.1041707993" lon="29.9952507019"><time>2026-04-22T10:16:30Z</time></trkpt><trkpt lat="59.1041493416" lon="29.9952077866"><time>2026-04-22T10:16:33Z</time></trkpt><trkpt lat="59.1041064262" lon="29.9951434135"><time>2026-04-22T10:16:35Z</time></trkpt><trkpt lat="59.1040849686" lon="29.9951004982"><time>2026-04-22T10:16:38Z</time></trkpt><trkpt lat="59.1040420532" lon="29.9950575829"><time>2026-04-22T10:16:40Z</time></trkpt><trkpt lat="59.1040420532" lon="29.9950790405"><time>2026-04-22T10:16:43Z</time></trkpt><trkpt lat="59.1040420532" lon="29.9951434135"><time>2026-04-22T10:16:45Z</time></trkpt><trkpt lat="59.1040420532" lon="29.9951863289"><time>2026-04-22T10:16:48Z</time></trkpt><trkpt lat="59.1040420532" lon="29.9952507019"><time>2026-04-22T10:16:50Z</time></trkpt><trkpt lat="59.1040420532" lon="29.9952936172"><time>2026-04-22T10:16:53Z</time></trkpt><trkpt lat="59.1040420532" lon="29.9953365326"><time>2026-04-22T10:16:55Z</time></trkpt><trkpt lat="59.1040420532" lon="29.9953365326"><time>2026-04-22T10:16:58Z</time></trkpt><trkpt lat="59.1040420532" lon="29.9953794479"><time>2026-04-22T10:17:00Z</time></trkpt><trkpt lat="59.1040420532" lon="29.9954009056"><time>2026-04-22T10:17:03Z</time></trkpt><trkpt lat="59.1040205956" lon="29.9954009056"><time>2026-04-22T10:17:05Z</time></trkpt><trkpt lat="59.1039991379" lon="29.9954438210"><time>2026-04-22T10:17:08Z</time></trkpt><trkpt lat="59.1039991379" lon="29.9954438210"><time>2026-04-22T10:17:10Z</time></trkpt><trkpt lat="59.1039991379" lon="29.9954223633"><time>2026-04-22T10:17:13Z</time></trkpt><trkpt lat="59.1039991379" lon="29.9954223633"><time>2026-04-22T10:17:15Z</time></trkpt><trkpt lat="59.1039991379" lon="29.9954009056"><time>2026-04-22T10:17:18Z</time></trkpt><trkpt lat="59.1039991379" lon="29.9953794479"><time>2026-04-22T10:17:20Z</time></trkpt><trkpt lat="59.1039776802" lon="29.9953579903"><time>2026-04-22T10:17:23Z</time></trkpt><trkpt lat="59.1039776802" lon="29.9953579903"><time>2026-04-22T10:17:25Z</time></trkpt><trkpt lat="59.1039776802" lon="29.9953579903"><time>2026-04-22T10:17:28Z</time></trkpt><trkpt lat="59.1039562225" lon="29.9953579903"><time>2026-04-22T10:17:30Z</time></trkpt><trkpt lat="59.1039347649" lon="29.9953579903"><time>2026-04-22T10:17:33Z</time></trkpt><trkpt lat="59.1038918495" lon="29.9953794479"><time>2026-04-22T10:17:35Z</time></trkpt><trkpt lat="59.1038703918" lon="29.9954223633"><time>2026-04-22T10:17:38Z</time></trkpt><trkpt lat="59.1038489342" lon="29.9954223633"><time>2026-04-22T10:17:40Z</time></trkpt><trkpt lat="59.1038489342" lon="29.9954223633"><time>2026-04-22T10:17:43Z</time></trkpt><trkpt lat="59.1038489342" lon="29.9954223633"><time>2026-04-22T10:17:45Z</time></trkpt><trkpt lat="59.1038489342" lon="29.9954223633"><time>2026-04-22T10:17:48Z</time></trkpt><trkpt lat="59.1038489342" lon="29.9954223633"><time>2026-04-22T10:17:50Z</time></trkpt><trkpt lat="59.1038489342" lon="29.9954223633"><time>2026-04-22T10:17:53Z</time></trkpt><trkpt lat="59.1038489342" lon="29.9954223633"><time>2026-04-22T10:17:55Z</time></trkpt><trkpt lat="59.1038489342" lon="29.9954223633"><time>2026-04-22T10:17:58Z</time></trkpt><trkpt lat="59.1038489342" lon="29.9954223633"><time>2026-04-22T10:18:00Z</time></trkpt><trkpt lat="59.1038489342" lon="29.9954223633"><time>2026-04-22T10:18:03Z</time></trkpt><trkpt lat="59.1038489342" lon="29.9954223633"><time>2026-04-22T10:18:05Z</time></trkpt><trkpt lat="59.1038489342" lon="29.9954009056"><time>2026-04-22T10:18:08Z</time></trkpt><trkpt lat="59.1037845612" lon="29.9953365326"><time>2026-04-22T10:18:13Z</time></trkpt><trkpt lat="59.1037631035" lon="29.9952936172"><time>2026-04-22T10:18:15Z</time></trkpt><trkpt lat="59.1037631035" lon="29.9952936172"><time>2026-04-22T10:18:18Z</time></trkpt><trkpt lat="59.1037631035" lon="29.9952936172"><time>2026-04-22T10:18:20Z</time></trkpt><trkpt lat="59.1037201881" lon="29.9952721596"><time>2026-04-22T10:18:23Z</time></trkpt><trkpt lat="59.1036772728" lon="29.9952077866"><time>2026-04-22T10:18:25Z</time></trkpt><trkpt lat="59.1036343575" lon="29.9951648712"><time>2026-04-22T10:18:28Z</time></trkpt><trkpt lat="59.1035699844" lon="29.9950790405"><time>2026-04-22T10:18:30Z</time></trkpt><trkpt lat="59.1035699844" lon="29.9950790405"><time>2026-04-22T10:18:33Z</time></trkpt><trkpt lat="59.1035485268" lon="29.9950790405"><time>2026-04-22T10:18:35Z</time></trkpt><trkpt lat="59.1035270691" lon="29.9951434135"><time>2026-04-22T10:18:38Z</time></trkpt><trkpt lat="59.1035270691" lon="29.9952077866"><time>2026-04-22T10:18:40Z</time></trkpt><trkpt lat="59.1035056114" lon="29.9952292442"><time>2026-04-22T10:18:43Z</time></trkpt><trkpt lat="59.1034626961" lon="29.9952721596"><time>2026-04-22T10:18:45Z</time></trkpt><trkpt lat="59.1034412384" lon="29.9952721596"><time>2026-04-22T10:18:48Z</time></trkpt><trkpt lat="59.1033768654" lon="29.9952936172"><time>2026-04-22T10:18:50Z</time></trkpt><trkpt lat="59.1033768654" lon="29.9952936172"><time>2026-04-22T10:18:53Z</time></trkpt><trkpt lat="59.1033983231" lon="29.9952936172"><time>2026-04-22T10:18:55Z</time></trkpt><trkpt lat="59.1033983231" lon="29.9952936172"><time>2026-04-22T10:18:58Z</time></trkpt><trkpt lat="59.1034197807" lon="29.9953150749"><time>2026-04-22T10:19:00Z</time></trkpt><trkpt lat="59.1034197807" lon="29.9953150749"><time>2026-04-22T10:19:03Z</time></trkpt><trkpt lat="59.1034412384" lon="29.9953150749"><time>2026-04-22T10:19:05Z</time></trkpt><trkpt lat="59.1034412384" lon="29.9953794479"><time>2026-04-22T10:19:08Z</time></trkpt><trkpt lat="59.1034412384" lon="29.9954009056"><time>2026-04-22T10:19:10Z</time></trkpt><trkpt lat="59.1034412384" lon="29.9954223633"><time>2026-04-22T10:19:13Z</time></trkpt><trkpt lat="59.1034197807" lon="29.9954009056"><time>2026-04-22T10:19:15Z</time></trkpt><trkpt lat="59.1033983231" lon="29.9954438210"><time>2026-04-22T10:19:18Z</time></trkpt><trkpt lat="59.1033339500" lon="29.9954438210"><time>2026-04-22T10:19:20Z</time></trkpt><trkpt lat="59.1033339500" lon="29.9954438210"><time>2026-04-22T10:19:23Z</time></trkpt><trkpt lat="59.1033339500" lon="29.9954438210"><time>2026-04-22T10:19:25Z</time></trkpt><trkpt lat="59.1033339500" lon="29.9954652786"><time>2026-04-22T10:19:28Z</time></trkpt><trkpt lat="59.1033339500" lon="29.9954438210"><time>2026-04-22T10:19:30Z</time></trkpt><trkpt lat="59.1033339500" lon="29.9954438210"><time>2026-04-22T10:19:33Z</time></trkpt><trkpt lat="59.1033339500" lon="29.9954438210"><time>2026-04-22T10:19:35Z</time></trkpt><trkpt lat="59.1033124924" lon="29.9954652786"><time>2026-04-22T10:19:38Z</time></trkpt><trkpt lat="59.1033124924" lon="29.9954652786"><time>2026-04-22T10:19:40Z</time></trkpt><trkpt lat="59.1033124924" lon="29.9954652786"><time>2026-04-22T10:19:43Z</time></trkpt><trkpt lat="59.1032695770" lon="29.9956369400"><time>2026-04-22T10:19:48Z</time></trkpt><trkpt lat="59.1032695770" lon="29.9956583977"><time>2026-04-22T10:19:50Z</time></trkpt><trkpt lat="59.1032695770" lon="29.9956583977"><time>2026-04-22T10:19:53Z</time></trkpt><trkpt lat="59.1032481194" lon="29.9956583977"><time>2026-04-22T10:19:55Z</time></trkpt><trkpt lat="59.1032052040" lon="29.9956369400"><time>2026-04-22T10:19:58Z</time></trkpt><trkpt lat="59.1031622887" lon="29.9956798553"><time>2026-04-22T10:20:00Z</time></trkpt><trkpt lat="59.1031408310" lon="29.9957013130"><time>2026-04-22T10:20:03Z</time></trkpt><trkpt lat="59.1030979156" lon="29.9957227707"><time>2026-04-22T10:20:05Z</time></trkpt><trkpt lat="59.1030979156" lon="29.9957227707"><time>2026-04-22T10:20:08Z</time></trkpt><trkpt lat="59.1030764580" lon="29.9957013130"><time>2026-04-22T10:20:10Z</time></trkpt><trkpt lat="59.1030550003" lon="29.9956583977"><time>2026-04-22T10:20:13Z</time></trkpt><trkpt lat="59.1030120850" lon="29.9956798553"><time>2026-04-22T10:20:15Z</time></trkpt><trkpt lat="59.1029691696" lon="29.9956798553"><time>2026-04-22T10:20:18Z</time></trkpt><trkpt lat="59.1029477119" lon="29.9957013130"><time>2026-04-22T10:20:20Z</time></trkpt><trkpt lat="59.1029262543" lon="29.9957013130"><time>2026-04-22T10:20:23Z</time></trkpt><trkpt lat="59.1029047966" lon="29.9957013130"><time>2026-04-22T10:20:25Z</time></trkpt><trkpt lat="59.1028833389" lon="29.9957227707"><time>2026-04-22T10:20:28Z</time></trkpt><trkpt lat="59.1028618813" lon="29.9957227707"><time>2026-04-22T10:20:30Z</time></trkpt><trkpt lat="59.1028618813" lon="29.9957013130"><time>2026-04-22T10:20:33Z</time></trkpt><trkpt lat="59.1028618813" lon="29.9957013130"><time>2026-04-22T10:20:35Z</time></trkpt><trkpt lat="59.1028618813" lon="29.9957013130"><time>2026-04-22T10:20:38Z</time></trkpt><trkpt lat="59.1028618813" lon="29.9957013130"><time>2026-04-22T10:20:40Z</time></trkpt><trkpt lat="59.1029047966" lon="29.9957013130"><time>2026-04-22T10:20:43Z</time></trkpt><trkpt lat="59.1029047966" lon="29.9956798553"><time>2026-04-22T10:20:45Z</time></trkpt><trkpt lat="59.1029047966" lon="29.9956798553"><time>2026-04-22T10:20:48Z</time></trkpt><trkpt lat="59.1029047966" lon="29.9956798553"><time>2026-04-22T10:20:50Z</time></trkpt><trkpt lat="59.1029047966" lon="29.9956798553"><time>2026-04-22T10:20:53Z</time></trkpt><trkpt lat="59.1029047966" lon="29.9956798553"><time>2026-04-22T10:20:55Z</time></trkpt><trkpt lat="59.1029047966" lon="29.9956798553"><time>2026-04-22T10:20:58Z</time></trkpt><trkpt lat="59.1029047966" lon="29.9956798553"><time>2026-04-22T10:21:00Z</time></trkpt><trkpt lat="59.1029047966" lon="29.9956798553"><time>2026-04-22T10:21:03Z</time></trkpt><trkpt lat="59.1028618813" lon="29.9956583977"><time>2026-04-22T10:21:05Z</time></trkpt><trkpt lat="59.1028404236" lon="29.9956583977"><time>2026-04-22T10:21:08Z</time></trkpt><trkpt lat="59.1028189659" lon="29.9956798553"><time>2026-04-22T10:21:10Z</time></trkpt><trkpt lat="59.1027975082" lon="29.9956798553"><time>2026-04-22T10:21:13Z</time></trkpt><trkpt lat="59.1027975082" lon="29.9956798553"><time>2026-04-22T10:21:15Z</time></trkpt><trkpt lat="59.1027975082" lon="29.9956798553"><time>2026-04-22T10:21:18Z</time></trkpt><trkpt lat="59.1027975082" lon="29.9957013130"><time>2026-04-22T10:21:20Z</time></trkpt><trkpt lat="59.1027975082" lon="29.9956798553"><time>2026-04-22T10:21:23Z</time></trkpt><trkpt lat="59.1027760506" lon="29.9956369400"><time>2026-04-22T10:21:25Z</time></trkpt><trkpt lat="59.1027545929" lon="29.9956154823"><time>2026-04-22T10:21:28Z</time></trkpt><trkpt lat="59.1027545929" lon="29.9956154823"><time>2026-04-22T10:21:30Z</time></trkpt><trkpt lat="59.1027545929" lon="29.9956154823"><time>2026-04-22T10:21:33Z</time></trkpt><trkpt lat="59.1027331352" lon="29.9956369400"><time>2026-04-22T10:21:35Z</time></trkpt><trkpt lat="59.1027116776" lon="29.9956583977"><time>2026-04-22T10:21:38Z</time></trkpt><trkpt lat="59.1026902199" lon="29.9956154823"><time>2026-04-22T10:21:40Z</time></trkpt><trkpt lat="59.1026902199" lon="29.9956369400"><time>2026-04-22T10:21:43Z</time></trkpt><trkpt lat="59.1026902199" lon="29.9956798553"><time>2026-04-22T10:21:45Z</time></trkpt><trkpt lat="59.1026687622" lon="29.9956798553"><time>2026-04-22T10:21:48Z</time></trkpt><trkpt lat="59.1026473045" lon="29.9957442284"><time>2026-04-22T10:21:50Z</time></trkpt><trkpt lat="59.1026258469" lon="29.9957442284"><time>2026-04-22T10:21:53Z</time></trkpt><trkpt lat="59.1026043892" lon="29.9957442284"><time>2026-04-22T10:21:55Z</time></trkpt><trkpt lat="59.1026043892" lon="29.9957656860"><time>2026-04-22T10:21:58Z</time></trkpt><trkpt lat="59.1025829315" lon="29.9958086014"><time>2026-04-22T10:22:00Z</time></trkpt><trkpt lat="59.1025614738" lon="29.9958086014"><time>2026-04-22T10:22:03Z</time></trkpt><trkpt lat="59.1025185585" lon="29.9958300591"><time>2026-04-22T10:22:05Z</time></trkpt><trkpt lat="59.1024971008" lon="29.9958515167"><time>2026-04-22T10:22:08Z</time></trkpt><trkpt lat="59.1024756432" lon="29.9959158897"><time>2026-04-22T10:22:10Z</time></trkpt><trkpt lat="59.1024327278" lon="29.9959588051"><time>2026-04-22T10:22:13Z</time></trkpt><trkpt lat="59.1023898125" lon="29.9959802628"><time>2026-04-22T10:22:15Z</time></trkpt><trkpt lat="59.1023898125" lon="29.9959588051"><time>2026-04-22T10:22:18Z</time></trkpt><trkpt lat="59.1023898125" lon="29.9959158897"><time>2026-04-22T10:22:20Z</time></trkpt><trkpt lat="59.1024112701" lon="29.9959158897"><time>2026-04-22T10:22:23Z</time></trkpt><trkpt lat="59.1024327278" lon="29.9958944321"><time>2026-04-22T10:22:25Z</time></trkpt><trkpt lat="59.1024327278" lon="29.9958944321"><time>2026-04-22T10:22:28Z</time></trkpt><trkpt lat="59.1023898125" lon="29.9959158897"><time>2026-04-22T10:22:30Z</time></trkpt><trkpt lat="59.1023468971" lon="29.9959373474"><time>2026-04-22T10:22:33Z</time></trkpt><trkpt lat="59.1023254395" lon="29.9960017204"><time>2026-04-22T10:22:35Z</time></trkpt><trkpt lat="59.1023254395" lon="29.9960231781"><time>2026-04-22T10:22:38Z</time></trkpt><trkpt lat="59.1023039818" lon="29.9960231781"><time>2026-04-22T10:22:40Z</time></trkpt><trkpt lat="59.1023039818" lon="29.9960231781"><time>2026-04-22T10:22:43Z</time></trkpt><trkpt lat="59.1023039818" lon="29.9960231781"><time>2026-04-22T10:22:45Z</time></trkpt><trkpt lat="59.1023039818" lon="29.9960231781"><time>2026-04-22T10:22:48Z</time></trkpt><trkpt lat="59.1023039818" lon="29.9960231781"><time>2026-04-22T10:22:50Z</time></trkpt><trkpt lat="59.1023039818" lon="29.9960231781"><time>2026-04-22T10:22:53Z</time></trkpt><trkpt lat="59.1023039818" lon="29.9960017204"><time>2026-04-22T10:22:55Z</time></trkpt><trkpt lat="59.1023039818" lon="29.9960017204"><time>2026-04-22T10:22:58Z</time></trkpt><trkpt lat="59.1023039818" lon="29.9959802628"><time>2026-04-22T10:23:00Z</time></trkpt><trkpt lat="59.1023039818" lon="29.9959802628"><time>2026-04-22T10:23:03Z</time></trkpt><trkpt lat="59.1022825241" lon="29.9959802628"><time>2026-04-22T10:23:05Z</time></trkpt><trkpt lat="59.1022610664" lon="29.9959802628"><time>2026-04-22T10:23:08Z</time></trkpt><trkpt lat="59.1022610664" lon="29.9960231781"><time>2026-04-22T10:23:10Z</time></trkpt><trkpt lat="59.1022610664" lon="29.9960231781"><time>2026-04-22T10:23:13Z</time></trkpt><trkpt lat="59.1022610664" lon="29.9960231781"><time>2026-04-22T10:23:15Z</time></trkpt><trkpt lat="59.1022610664" lon="29.9960231781"><time>2026-04-22T10:23:18Z</time></trkpt><trkpt lat="59.1022610664" lon="29.9960231781"><time>2026-04-22T10:23:20Z</time></trkpt><trkpt lat="59.1022610664" lon="29.9960231781"><time>2026-04-22T10:23:23Z</time></trkpt><trkpt lat="59.1022396088" lon="29.9960660934"><time>2026-04-22T10:23:25Z</time></trkpt><trkpt lat="59.1022181511" lon="29.9960660934"><time>2026-04-22T10:23:28Z</time></trkpt><trkpt lat="59.1021966934" lon="29.9961090088"><time>2026-04-22T10:23:30Z</time></trkpt><trkpt lat="59.1021752357" lon="29.9961304665"><time>2026-04-22T10:23:33Z</time></trkpt><trkpt lat="59.1021752357" lon="29.9961090088"><time>2026-04-22T10:23:35Z</time></trkpt><trkpt lat="59.1021752357" lon="29.9961090088"><time>2026-04-22T10:23:38Z</time></trkpt><trkpt lat="59.1021752357" lon="29.9961090088"><time>2026-04-22T10:23:40Z</time></trkpt><trkpt lat="59.1021752357" lon="29.9961090088"><time>2026-04-22T10:23:43Z</time></trkpt><trkpt lat="59.1021752357" lon="29.9961090088"><time>2026-04-22T10:23:45Z</time></trkpt><trkpt lat="59.1021752357" lon="29.9961090088"><time>2026-04-22T10:23:48Z</time></trkpt><trkpt lat="59.1021752357" lon="29.9961090088"><time>2026-04-22T10:23:50Z</time></trkpt><trkpt lat="59.1021752357" lon="29.9961090088"><time>2026-04-22T10:23:53Z</time></trkpt><trkpt lat="59.1021752357" lon="29.9961090088"><time>2026-04-22T10:23:55Z</time></trkpt><trkpt lat="59.1021752357" lon="29.9961090088"><time>2026-04-22T10:23:58Z</time></trkpt><trkpt lat="59.1021752357" lon="29.9961090088"><time>2026-04-22T10:24:00Z</time></trkpt><trkpt lat="59.1021752357" lon="29.9961090088"><time>2026-04-22T10:24:03Z</time></trkpt><trkpt lat="59.1021752357" lon="29.9961090088"><time>2026-04-22T10:24:05Z</time></trkpt><trkpt lat="59.1021752357" lon="29.9961090088"><time>2026-04-22T10:24:08Z</time></trkpt><trkpt lat="59.1021323204" lon="29.9961304665"><time>2026-04-22T10:24:10Z</time></trkpt><trkpt lat="59.1021108627" lon="29.9961304665"><time>2026-04-22T10:24:13Z</time></trkpt><trkpt lat="59.1020679474" lon="29.9961090088"><time>2026-04-22T10:24:15Z</time></trkpt><trkpt lat="59.1020464897" lon="29.9961304665"><time>2026-04-22T10:24:18Z</time></trkpt><trkpt lat="59.1020464897" lon="29.9961304665"><time>2026-04-22T10:24:20Z</time></trkpt><trkpt lat="59.1020464897" lon="29.9961304665"><time>2026-04-22T10:24:23Z</time></trkpt><trkpt lat="59.1020464897" lon="29.9961304665"><time>2026-04-22T10:24:25Z</time></trkpt><trkpt lat="59.1020464897" lon="29.9961304665"><time>2026-04-22T10:24:28Z</time></trkpt><trkpt lat="59.1020250320" lon="29.9961733818"><time>2026-04-22T10:24:30Z</time></trkpt><trkpt lat="59.1020035744" lon="29.9961948395"><time>2026-04-22T10:24:33Z</time></trkpt><trkpt lat="59.1020035744" lon="29.9962162971"><time>2026-04-22T10:24:35Z</time></trkpt><trkpt lat="59.1019821167" lon="29.9961733818"><time>2026-04-22T10:24:38Z</time></trkpt><trkpt lat="59.1019606590" lon="29.9961090088"><time>2026-04-22T10:24:40Z</time></trkpt><trkpt lat="59.1019392014" lon="29.9960660934"><time>2026-04-22T10:24:43Z</time></trkpt><trkpt lat="59.1019392014" lon="29.9960660934"><time>2026-04-22T10:24:45Z</time></trkpt><trkpt lat="59.1019392014" lon="29.9960660934"><time>2026-04-22T10:24:48Z</time></trkpt><trkpt lat="59.1019392014" lon="29.9961090088"><time>2026-04-22T10:24:50Z</time></trkpt><trkpt lat="59.1019392014" lon="29.9961090088"><time>2026-04-22T10:24:53Z</time></trkpt><trkpt lat="59.1019392014" lon="29.9961519241"><time>2026-04-22T10:24:58Z</time></trkpt><trkpt lat="59.1019392014" lon="29.9961519241"><time>2026-04-22T10:25:00Z</time></trkpt><trkpt lat="59.1019392014" lon="29.9961519241"><time>2026-04-22T10:25:03Z</time></trkpt><trkpt lat="59.1019392014" lon="29.9961519241"><time>2026-04-22T10:25:05Z</time></trkpt><trkpt lat="59.1019392014" lon="29.9961519241"><time>2026-04-22T10:25:08Z</time></trkpt><trkpt lat="59.1019392014" lon="29.9961733818"><time>2026-04-22T10:25:10Z</time></trkpt><trkpt lat="59.1019177437" lon="29.9962162971"><time>2026-04-22T10:25:13Z</time></trkpt><trkpt lat="59.1019177437" lon="29.9963021278"><time>2026-04-22T10:25:15Z</time></trkpt><trkpt lat="59.1019177437" lon="29.9963021278"><time>2026-04-22T10:25:18Z</time></trkpt><trkpt lat="59.1019392014" lon="29.9963021278"><time>2026-04-22T10:25:20Z</time></trkpt><trkpt lat="59.1019392014" lon="29.9962592125"><time>2026-04-22T10:25:23Z</time></trkpt><trkpt lat="59.1018748283" lon="29.9961948395"><time>2026-04-22T10:25:25Z</time></trkpt><trkpt lat="59.1018533707" lon="29.9962162971"><time>2026-04-22T10:25:28Z</time></trkpt><trkpt lat="59.1018319130" lon="29.9962592125"><time>2026-04-22T10:25:30Z</time></trkpt><trkpt lat="59.1018104553" lon="29.9962377548"><time>2026-04-22T10:25:33Z</time></trkpt><trkpt lat="59.1018104553" lon="29.9962162971"><time>2026-04-22T10:25:35Z</time></trkpt><trkpt lat="59.1018104553" lon="29.9962377548"><time>2026-04-22T10:25:38Z</time></trkpt><trkpt lat="59.1017889977" lon="29.9962806702"><time>2026-04-22T10:25:40Z</time></trkpt><trkpt lat="59.1017889977" lon="29.9963021278"><time>2026-04-22T10:25:43Z</time></trkpt><trkpt lat="59.1017675400" lon="29.9963021278"><time>2026-04-22T10:25:45Z</time></trkpt><trkpt lat="59.1017460823" lon="29.9963235855"><time>2026-04-22T10:25:48Z</time></trkpt><trkpt lat="59.1017246246" lon="29.9963665009"><time>2026-04-22T10:25:50Z</time></trkpt><trkpt lat="59.1017031670" lon="29.9963665009"><time>2026-04-22T10:25:53Z</time></trkpt><trkpt lat="59.1016602516" lon="29.9963665009"><time>2026-04-22T10:25:55Z</time></trkpt><trkpt lat="59.1016173363" lon="29.9963450432"><time>2026-04-22T10:25:58Z</time></trkpt><trkpt lat="59.1015958786" lon="29.9963235855"><time>2026-04-22T10:26:00Z</time></trkpt><trkpt lat="59.1015958786" lon="29.9963235855"><time>2026-04-22T10:26:03Z</time></trkpt><trkpt lat="59.1015958786" lon="29.9963235855"><time>2026-04-22T10:26:05Z</time></trkpt><trkpt lat="59.1016387939" lon="29.9963235855"><time>2026-04-22T10:26:08Z</time></trkpt><trkpt lat="59.1017031670" lon="29.9963235855"><time>2026-04-22T10:26:10Z</time></trkpt><trkpt lat="59.1017031670" lon="29.9963021278"><time>2026-04-22T10:26:13Z</time></trkpt><trkpt lat="59.1016817093" lon="29.9963021278"><time>2026-04-22T10:26:15Z</time></trkpt><trkpt lat="59.1016817093" lon="29.9963021278"><time>2026-04-22T10:26:18Z</time></trkpt><trkpt lat="59.1016817093" lon="29.9963235855"><time>2026-04-22T10:26:20Z</time></trkpt><trkpt lat="59.1016817093" lon="29.9963665009"><time>2026-04-22T10:26:23Z</time></trkpt><trkpt lat="59.1016602516" lon="29.9963879585"><time>2026-04-22T10:26:25Z</time></trkpt><trkpt lat="59.1016817093" lon="29.9963879585"><time>2026-04-22T10:26:28Z</time></trkpt><trkpt lat="59.1016817093" lon="29.9964094162"><time>2026-04-22T10:26:30Z</time></trkpt><trkpt lat="59.1016817093" lon="29.9964308739"><time>2026-04-22T10:26:33Z</time></trkpt><trkpt lat="59.1016817093" lon="29.9964523315"><time>2026-04-22T10:26:35Z</time></trkpt><trkpt lat="59.1016817093" lon="29.9964523315"><time>2026-04-22T10:26:38Z</time></trkpt><trkpt lat="59.1016817093" lon="29.9964523315"><time>2026-04-22T10:26:40Z</time></trkpt><trkpt lat="59.1016817093" lon="29.9964523315"><time>2026-04-22T10:26:43Z</time></trkpt><trkpt lat="59.1016817093" lon="29.9964523315"><time>2026-04-22T10:26:45Z</time></trkpt><trkpt lat="59.1016817093" lon="29.9964523315"><time>2026-04-22T10:26:48Z</time></trkpt><trkpt lat="59.1016817093" lon="29.9964523315"><time>2026-04-22T10:26:50Z</time></trkpt><trkpt lat="59.1016602516" lon="29.9964523315"><time>2026-04-22T10:26:53Z</time></trkpt><trkpt lat="59.1016173363" lon="29.9964737892"><time>2026-04-22T10:26:55Z</time></trkpt><trkpt lat="59.1015958786" lon="29.9964737892"><time>2026-04-22T10:26:58Z</time></trkpt><trkpt lat="59.1015744209" lon="29.9964737892"><time>2026-04-22T10:27:00Z</time></trkpt><trkpt lat="59.1015315056" lon="29.9964952469"><time>2026-04-22T10:27:03Z</time></trkpt><trkpt lat="59.1015315056" lon="29.9965167046"><time>2026-04-22T10:27:05Z</time></trkpt><trkpt lat="59.1014885902" lon="29.9965167046"><time>2026-04-22T10:27:08Z</time></trkpt><trkpt lat="59.1014885902" lon="29.9965381622"><time>2026-04-22T10:27:10Z</time></trkpt><trkpt lat="59.1014885902" lon="29.9965596199"><time>2026-04-22T10:27:13Z</time></trkpt><trkpt lat="59.1014885902" lon="29.9965596199"><time>2026-04-22T10:27:15Z</time></trkpt><trkpt lat="59.1014885902" lon="29.9965596199"><time>2026-04-22T10:27:18Z</time></trkpt><trkpt lat="59.1014885902" lon="29.9965596199"><time>2026-04-22T10:27:20Z</time></trkpt><trkpt lat="59.1015100479" lon="29.9964952469"><time>2026-04-22T10:27:23Z</time></trkpt><trkpt lat="59.1015315056" lon="29.9964952469"><time>2026-04-22T10:27:25Z</time></trkpt><trkpt lat="59.1015315056" lon="29.9964737892"><time>2026-04-22T10:27:28Z</time></trkpt><trkpt lat="59.1015100479" lon="29.9964523315"><time>2026-04-22T10:27:30Z</time></trkpt><trkpt lat="59.1015100479" lon="29.9964523315"><time>2026-04-22T10:27:33Z</time></trkpt><trkpt lat="59.1014885902" lon="29.9964737892"><time>2026-04-22T10:27:35Z</time></trkpt><trkpt lat="59.1014671326" lon="29.9965167046"><time>2026-04-22T10:27:38Z</time></trkpt><trkpt lat="59.1014242172" lon="29.9965810776"><time>2026-04-22T10:27:40Z</time></trkpt><trkpt lat="59.1013813019" lon="29.9966239929"><time>2026-04-22T10:27:43Z</time></trkpt><trkpt lat="59.1013598442" lon="29.9966883659"><time>2026-04-22T10:27:45Z</time></trkpt><trkpt lat="59.1013813019" lon="29.9966669083"><time>2026-04-22T10:27:48Z</time></trkpt><trkpt lat="59.1014027596" lon="29.9966454506"><time>2026-04-22T10:27:50Z</time></trkpt><trkpt lat="59.1014242172" lon="29.9966454506"><time>2026-04-22T10:27:53Z</time></trkpt><trkpt lat="59.1014242172" lon="29.9966025352"><time>2026-04-22T10:27:55Z</time></trkpt><trkpt lat="59.1014671326" lon="29.9965596199"><time>2026-04-22T10:27:58Z</time></trkpt><trkpt lat="59.1014671326" lon="29.9965596199"><time>2026-04-22T10:28:00Z</time></trkpt><trkpt lat="59.1014671326" lon="29.9965596199"><time>2026-04-22T10:28:03Z</time></trkpt><trkpt lat="59.1014671326" lon="29.9965596199"><time>2026-04-22T10:28:05Z</time></trkpt><trkpt lat="59.1014671326" lon="29.9966025352"><time>2026-04-22T10:28:08Z</time></trkpt><trkpt lat="59.1014456749" lon="29.9966239929"><time>2026-04-22T10:28:10Z</time></trkpt><trkpt lat="59.1014456749" lon="29.9966239929"><time>2026-04-22T10:28:13Z</time></trkpt><trkpt lat="59.1014456749" lon="29.9966239929"><time>2026-04-22T10:28:15Z</time></trkpt><trkpt lat="59.1014456749" lon="29.9966239929"><time>2026-04-22T10:28:18Z</time></trkpt><trkpt lat="59.1014456749" lon="29.9966239929"><time>2026-04-22T10:28:20Z</time></trkpt><trkpt lat="59.1014242172" lon="29.9966239929"><time>2026-04-22T10:28:23Z</time></trkpt><trkpt lat="59.1014027596" lon="29.9966239929"><time>2026-04-22T10:28:25Z</time></trkpt><trkpt lat="59.1014027596" lon="29.9966454506"><time>2026-04-22T10:28:28Z</time></trkpt><trkpt lat="59.1014027596" lon="29.9967098236"><time>2026-04-22T10:28:30Z</time></trkpt><trkpt lat="59.1013813019" lon="29.9967741966"><time>2026-04-22T10:28:33Z</time></trkpt><trkpt lat="59.1013813019" lon="29.9967956543"><time>2026-04-22T10:28:35Z</time></trkpt><trkpt lat="59.1013598442" lon="29.9967956543"><time>2026-04-22T10:28:38Z</time></trkpt><trkpt lat="59.1013598442" lon="29.9967956543"><time>2026-04-22T10:28:40Z</time></trkpt><trkpt lat="59.1013383865" lon="29.9968171120"><time>2026-04-22T10:28:43Z</time></trkpt><trkpt lat="59.1013169289" lon="29.9968814850"><time>2026-04-22T10:28:45Z</time></trkpt><trkpt lat="59.1013169289" lon="29.9969458580"><time>2026-04-22T10:28:48Z</time></trkpt><trkpt lat="59.1013169289" lon="29.9970102310"><time>2026-04-22T10:28:50Z</time></trkpt><trkpt lat="59.1013169289" lon="29.9970316887"><time>2026-04-22T10:28:53Z</time></trkpt><trkpt lat="59.1013169289" lon="29.9970746040"><time>2026-04-22T10:28:55Z</time></trkpt><trkpt lat="59.1012954712" lon="29.9970746040"><time>2026-04-22T10:28:58Z</time></trkpt><trkpt lat="59.1012954712" lon="29.9970746040"><time>2026-04-22T10:29:00Z</time></trkpt><trkpt lat="59.1012954712" lon="29.9970746040"><time>2026-04-22T10:29:03Z</time></trkpt><trkpt lat="59.1012954712" lon="29.9970746040"><time>2026-04-22T10:29:05Z</time></trkpt><trkpt lat="59.1012954712" lon="29.9970746040"><time>2026-04-22T10:29:08Z</time></trkpt><trkpt lat="59.1012954712" lon="29.9970746040"><time>2026-04-22T10:29:10Z</time></trkpt><trkpt lat="59.1012954712" lon="29.9970102310"><time>2026-04-22T10:29:13Z</time></trkpt><trkpt lat="59.1012740135" lon="29.9969029427"><time>2026-04-22T10:29:15Z</time></trkpt><trkpt lat="59.1012525558" lon="29.9968600273"><time>2026-04-22T10:29:18Z</time></trkpt><trkpt lat="59.1012310982" lon="29.9968600273"><time>2026-04-22T10:29:20Z</time></trkpt><trkpt lat="59.1012096405" lon="29.9968814850"><time>2026-04-22T10:29:23Z</time></trkpt><trkpt lat="59.1011667252" lon="29.9968600273"><time>2026-04-22T10:29:25Z</time></trkpt><trkpt lat="59.1011238098" lon="29.9968600273"><time>2026-04-22T10:29:28Z</time></trkpt><trkpt lat="59.1010808945" lon="29.9968600273"><time>2026-04-22T10:29:30Z</time></trkpt><trkpt lat="59.1010808945" lon="29.9968385696"><time>2026-04-22T10:29:33Z</time></trkpt><trkpt lat="59.1010594368" lon="29.9967956543"><time>2026-04-22T10:29:35Z</time></trkpt><trkpt lat="59.1010808945" lon="29.9967956543"><time>2026-04-22T10:29:38Z</time></trkpt><trkpt lat="59.1011023521" lon="29.9967956543"><time>2026-04-22T10:29:40Z</time></trkpt><trkpt lat="59.1011023521" lon="29.9967956543"><time>2026-04-22T10:29:43Z</time></trkpt><trkpt lat="59.1011023521" lon="29.9967956543"><time>2026-04-22T10:29:45Z</time></trkpt><trkpt lat="59.1011023521" lon="29.9967956543"><time>2026-04-22T10:29:48Z</time></trkpt><trkpt lat="59.1011023521" lon="29.9968171120"><time>2026-04-22T10:29:50Z</time></trkpt><trkpt lat="59.1011023521" lon="29.9968385696"><time>2026-04-22T10:29:53Z</time></trkpt><trkpt lat="59.1011023521" lon="29.9968171120"><time>2026-04-22T10:29:55Z</time></trkpt><trkpt lat="59.1010808945" lon="29.9967956543"><time>2026-04-22T10:29:58Z</time></trkpt><trkpt lat="59.1010808945" lon="29.9967741966"><time>2026-04-22T10:30:00Z</time></trkpt><trkpt lat="59.1010594368" lon="29.9967741966"><time>2026-04-22T10:30:03Z</time></trkpt><trkpt lat="59.1010594368" lon="29.9967741966"><time>2026-04-22T10:30:05Z</time></trkpt><trkpt lat="59.1010379791" lon="29.9967741966"><time>2026-04-22T10:30:08Z</time></trkpt><trkpt lat="59.1010165215" lon="29.9967741966"><time>2026-04-22T10:30:10Z</time></trkpt><trkpt lat="59.1010165215" lon="29.9967741966"><time>2026-04-22T10:30:13Z</time></trkpt><trkpt lat="59.1010165215" lon="29.9967741966"><time>2026-04-22T10:30:15Z</time></trkpt><trkpt lat="59.1010165215" lon="29.9967741966"><time>2026-04-22T10:30:18Z</time></trkpt><trkpt lat="59.1010379791" lon="29.9967741966"><time>2026-04-22T10:30:20Z</time></trkpt><trkpt lat="59.1010379791" lon="29.9967741966"><time>2026-04-22T10:30:23Z</time></trkpt><trkpt lat="59.1010379791" lon="29.9967741966"><time>2026-04-22T10:30:25Z</time></trkpt><trkpt lat="59.1010379791" lon="29.9967741966"><time>2026-04-22T10:30:28Z</time></trkpt><trkpt lat="59.1010379791" lon="29.9967741966"><time>2026-04-22T10:30:30Z</time></trkpt><trkpt lat="59.1010379791" lon="29.9967741966"><time>2026-04-22T10:30:33Z</time></trkpt><trkpt lat="59.1010379791" lon="29.9967741966"><time>2026-04-22T10:30:35Z</time></trkpt><trkpt lat="59.1010379791" lon="29.9967741966"><time>2026-04-22T10:30:38Z</time></trkpt><trkpt lat="59.1010165215" lon="29.9967741966"><time>2026-04-22T10:30:40Z</time></trkpt><trkpt lat="59.1010165215" lon="29.9967527390"><time>2026-04-22T10:30:43Z</time></trkpt><trkpt lat="59.1009950638" lon="29.9967312813"><time>2026-04-22T10:30:45Z</time></trkpt><trkpt lat="59.1009950638" lon="29.9967312813"><time>2026-04-22T10:30:48Z</time></trkpt><trkpt lat="59.1009736061" lon="29.9967741966"><time>2026-04-22T10:30:50Z</time></trkpt><trkpt lat="59.1009521484" lon="29.9967956543"><time>2026-04-22T10:30:53Z</time></trkpt><trkpt lat="59.1009306908" lon="29.9968600273"><time>2026-04-22T10:30:55Z</time></trkpt><trkpt lat="59.1009306908" lon="29.9968600273"><time>2026-04-22T10:30:58Z</time></trkpt><trkpt lat="59.1009306908" lon="29.9968600273"><time>2026-04-22T10:31:00Z</time></trkpt><trkpt lat="59.1009306908" lon="29.9968600273"><time>2026-04-22T10:31:03Z</time></trkpt><trkpt lat="59.1009521484" lon="29.9967956543"><time>2026-04-22T10:31:05Z</time></trkpt><trkpt lat="59.1009521484" lon="29.9967956543"><time>2026-04-22T10:31:08Z</time></trkpt><trkpt lat="59.1009306908" lon="29.9967956543"><time>2026-04-22T10:31:10Z</time></trkpt><trkpt lat="59.1008877754" lon="29.9967956543"><time>2026-04-22T10:31:13Z</time></trkpt><trkpt lat="59.1008663177" lon="29.9967956543"><time>2026-04-22T10:31:15Z</time></trkpt><trkpt lat="59.1008448601" lon="29.9968171120"><time>2026-04-22T10:31:18Z</time></trkpt><trkpt lat="59.1008234024" lon="29.9968814850"><time>2026-04-22T10:31:20Z</time></trkpt><trkpt lat="59.1008234024" lon="29.9968814850"><time>2026-04-22T10:31:23Z</time></trkpt><trkpt lat="59.1008234024" lon="29.9968600273"><time>2026-04-22T10:31:25Z</time></trkpt><trkpt lat="59.1008234024" lon="29.9968814850"><time>2026-04-22T10:31:28Z</time></trkpt><trkpt lat="59.1008234024" lon="29.9968814850"><time>2026-04-22T10:31:30Z</time></trkpt><trkpt lat="59.1008234024" lon="29.9968814850"><time>2026-04-22T10:31:33Z</time></trkpt><trkpt lat="59.1008234024" lon="29.9969029427"><time>2026-04-22T10:31:35Z</time></trkpt><trkpt lat="59.1008448601" lon="29.9969029427"><time>2026-04-22T10:31:38Z</time></trkpt><trkpt lat="59.1008234024" lon="29.9969244003"><time>2026-04-22T10:31:40Z</time></trkpt><trkpt lat="59.1008234024" lon="29.9969244003"><time>2026-04-22T10:31:43Z</time></trkpt><trkpt lat="59.1008448601" lon="29.9969029427"><time>2026-04-22T10:31:45Z</time></trkpt><trkpt lat="59.1008448601" lon="29.9969244003"><time>2026-04-22T10:31:48Z</time></trkpt><trkpt lat="59.1008234024" lon="29.9969029427"><time>2026-04-22T10:31:50Z</time></trkpt><trkpt lat="59.1008234024" lon="29.9969029427"><time>2026-04-22T10:31:53Z</time></trkpt><trkpt lat="59.1008234024" lon="29.9969029427"><time>2026-04-22T10:31:55Z</time></trkpt><trkpt lat="59.1008234024" lon="29.9969029427"><time>2026-04-22T10:31:58Z</time></trkpt><trkpt lat="59.1008234024" lon="29.9969029427"><time>2026-04-22T10:32:00Z</time></trkpt><trkpt lat="59.1008234024" lon="29.9969029427"><time>2026-04-22T10:32:03Z</time></trkpt><trkpt lat="59.1008234024" lon="29.9969029427"><time>2026-04-22T10:32:05Z</time></trkpt><trkpt lat="59.1008234024" lon="29.9969029427"><time>2026-04-22T10:32:08Z</time></trkpt><trkpt lat="59.1008234024" lon="29.9969029427"><time>2026-04-22T10:32:10Z</time></trkpt><trkpt lat="59.1008234024" lon="29.9969029427"><time>2026-04-22T10:32:13Z</time></trkpt><trkpt lat="59.1008234024" lon="29.9969029427"><time>2026-04-22T10:32:15Z</time></trkpt><trkpt lat="59.1008234024" lon="29.9969029427"><time>2026-04-22T10:32:18Z</time></trkpt><trkpt lat="59.1008234024" lon="29.9969029427"><time>2026-04-22T10:32:20Z</time></trkpt><trkpt lat="59.1008234024" lon="29.9969029427"><time>2026-04-22T10:32:23Z</time></trkpt><trkpt lat="59.1008234024" lon="29.9969029427"><time>2026-04-22T10:32:25Z</time></trkpt><trkpt lat="59.1008234024" lon="29.9969029427"><time>2026-04-22T10:32:28Z</time></trkpt><trkpt lat="59.1008234024" lon="29.9969029427"><time>2026-04-22T10:32:30Z</time></trkpt><trkpt lat="59.1008234024" lon="29.9969029427"><time>2026-04-22T10:32:33Z</time></trkpt><trkpt lat="59.1008234024" lon="29.9969029427"><time>2026-04-22T10:32:35Z</time></trkpt><trkpt lat="59.1008234024" lon="29.9969029427"><time>2026-04-22T10:32:38Z</time></trkpt><trkpt lat="59.1008234024" lon="29.9969029427"><time>2026-04-22T10:32:40Z</time></trkpt><trkpt lat="59.1008234024" lon="29.9969029427"><time>2026-04-22T10:32:43Z</time></trkpt><trkpt lat="59.1008234024" lon="29.9969029427"><time>2026-04-22T10:32:45Z</time></trkpt><trkpt lat="59.1008234024" lon="29.9969029427"><time>2026-04-22T10:32:48Z</time></trkpt><trkpt lat="59.1008234024" lon="29.9969029427"><time>2026-04-22T10:32:53Z</time></trkpt><trkpt lat="59.1008234024" lon="29.9969029427"><time>2026-04-22T10:32:55Z</time></trkpt><trkpt lat="59.1008234024" lon="29.9969029427"><time>2026-04-22T10:32:58Z</time></trkpt><trkpt lat="59.1008234024" lon="29.9969029427"><time>2026-04-22T10:33:00Z</time></trkpt><trkpt lat="59.1008234024" lon="29.9969029427"><time>2026-04-22T10:33:03Z</time></trkpt><trkpt lat="59.1008234024" lon="29.9969029427"><time>2026-04-22T10:33:05Z</time></trkpt><trkpt lat="59.1008234024" lon="29.9969244003"><time>2026-04-22T10:33:08Z</time></trkpt><trkpt lat="59.1007804871" lon="29.9969244003"><time>2026-04-22T10:33:10Z</time></trkpt><trkpt lat="59.1007375717" lon="29.9969244003"><time>2026-04-22T10:33:13Z</time></trkpt><trkpt lat="59.1006517410" lon="29.9969887733"><time>2026-04-22T10:33:15Z</time></trkpt><trkpt lat="59.1006302834" lon="29.9970102310"><time>2026-04-22T10:33:18Z</time></trkpt><trkpt lat="59.1006302834" lon="29.9970102310"><time>2026-04-22T10:33:20Z</time></trkpt><trkpt lat="59.1006302834" lon="29.9970102310"><time>2026-04-22T10:33:23Z</time></trkpt><trkpt lat="59.1006302834" lon="29.9970102310"><time>2026-04-22T10:33:25Z</time></trkpt><trkpt lat="59.1006088257" lon="29.9970102310"><time>2026-04-22T10:33:28Z</time></trkpt><trkpt lat="59.1006088257" lon="29.9970102310"><time>2026-04-22T10:33:30Z</time></trkpt><trkpt lat="59.1006088257" lon="29.9970102310"><time>2026-04-22T10:33:33Z</time></trkpt><trkpt lat="59.1006088257" lon="29.9970102310"><time>2026-04-22T10:33:35Z</time></trkpt><trkpt lat="59.1006088257" lon="29.9970102310"><time>2026-04-22T10:33:38Z</time></trkpt><trkpt lat="59.1006088257" lon="29.9970102310"><time>2026-04-22T10:33:40Z</time></trkpt><trkpt lat="59.1006088257" lon="29.9970102310"><time>2026-04-22T10:33:43Z</time></trkpt><trkpt lat="59.1006088257" lon="29.9970102310"><time>2026-04-22T10:33:45Z</time></trkpt><trkpt lat="59.1006088257" lon="29.9970102310"><time>2026-04-22T10:33:48Z</time></trkpt><trkpt lat="59.1006088257" lon="29.9970102310"><time>2026-04-22T10:33:50Z</time></trkpt><trkpt lat="59.1006088257" lon="29.9970102310"><time>2026-04-22T10:33:53Z</time></trkpt><trkpt lat="59.1006088257" lon="29.9970102310"><time>2026-04-22T10:33:55Z</time></trkpt><trkpt lat="59.1006088257" lon="29.9970102310"><time>2026-04-22T10:33:58Z</time></trkpt><trkpt lat="59.1006088257" lon="29.9970102310"><time>2026-04-22T10:34:00Z</time></trkpt><trkpt lat="59.1006088257" lon="29.9970102310"><time>2026-04-22T10:34:03Z</time></trkpt><trkpt lat="59.1006088257" lon="29.9970102310"><time>2026-04-22T10:34:05Z</time></trkpt><trkpt lat="59.1006088257" lon="29.9970102310"><time>2026-04-22T10:34:08Z</time></trkpt><trkpt lat="59.1006088257" lon="29.9970102310"><time>2026-04-22T10:34:10Z</time></trkpt><trkpt lat="59.1006088257" lon="29.9970102310"><time>2026-04-22T10:34:13Z</time></trkpt><trkpt lat="59.1006088257" lon="29.9970102310"><time>2026-04-22T10:34:15Z</time></trkpt><trkpt lat="59.1006088257" lon="29.9970102310"><time>2026-04-22T10:34:18Z</time></trkpt><trkpt lat="59.1006088257" lon="29.9970102310"><time>2026-04-22T10:34:20Z</time></trkpt><trkpt lat="59.1006088257" lon="29.9970102310"><time>2026-04-22T10:34:23Z</time></trkpt><trkpt lat="59.1006088257" lon="29.9970102310"><time>2026-04-22T10:34:25Z</time></trkpt><trkpt lat="59.1006088257" lon="29.9970102310"><time>2026-04-22T10:34:28Z</time></trkpt><trkpt lat="59.1006088257" lon="29.9970102310"><time>2026-04-22T10:34:30Z</time></trkpt><trkpt lat="59.1006088257" lon="29.9970102310"><time>2026-04-22T10:34:33Z</time></trkpt><trkpt lat="59.1006088257" lon="29.9970102310"><time>2026-04-22T10:34:35Z</time></trkpt><trkpt lat="59.1005873680" lon="29.9969887733"><time>2026-04-22T10:34:38Z</time></trkpt><trkpt lat="59.1005873680" lon="29.9969887733"><time>2026-04-22T10:34:40Z</time></trkpt><trkpt lat="59.1005873680" lon="29.9969887733"><time>2026-04-22T10:34:43Z</time></trkpt><trkpt lat="59.1005873680" lon="29.9969887733"><time>2026-04-22T10:34:45Z</time></trkpt><trkpt lat="59.1005873680" lon="29.9969887733"><time>2026-04-22T10:34:48Z</time></trkpt><trkpt lat="59.1005873680" lon="29.9969887733"><time>2026-04-22T10:34:50Z</time></trkpt><trkpt lat="59.1005873680" lon="29.9970102310"><time>2026-04-22T10:34:53Z</time></trkpt><trkpt lat="59.1005873680" lon="29.9970102310"><time>2026-04-22T10:34:55Z</time></trkpt><trkpt lat="59.1005659103" lon="29.9970102310"><time>2026-04-22T10:34:58Z</time></trkpt><trkpt lat="59.1005659103" lon="29.9969673157"><time>2026-04-22T10:35:00Z</time></trkpt><trkpt lat="59.1005659103" lon="29.9969673157"><time>2026-04-22T10:35:03Z</time></trkpt><trkpt lat="59.1005659103" lon="29.9969673157"><time>2026-04-22T10:35:05Z</time></trkpt><trkpt lat="59.1005659103" lon="29.9970102310"><time>2026-04-22T10:35:10Z</time></trkpt><trkpt lat="59.1005659103" lon="29.9970102310"><time>2026-04-22T10:35:13Z</time></trkpt><trkpt lat="59.1005444527" lon="29.9970102310"><time>2026-04-22T10:35:15Z</time></trkpt><trkpt lat="59.1005444527" lon="29.9970102310"><time>2026-04-22T10:35:18Z</time></trkpt><trkpt lat="59.1005444527" lon="29.9970102310"><time>2026-04-22T10:35:20Z</time></trkpt><trkpt lat="59.1005444527" lon="29.9970102310"><time>2026-04-22T10:35:23Z</time></trkpt><trkpt lat="59.1005444527" lon="29.9970102310"><time>2026-04-22T10:35:25Z</time></trkpt><trkpt lat="59.1005444527" lon="29.9970102310"><time>2026-04-22T10:35:28Z</time></trkpt><trkpt lat="59.1005444527" lon="29.9969887733"><time>2026-04-22T10:35:30Z</time></trkpt><trkpt lat="59.1005229950" lon="29.9969887733"><time>2026-04-22T10:35:33Z</time></trkpt><trkpt lat="59.1005229950" lon="29.9969887733"><time>2026-04-22T10:35:35Z</time></trkpt><trkpt lat="59.1005229950" lon="29.9969887733"><time>2026-04-22T10:35:38Z</time></trkpt><trkpt lat="59.1005229950" lon="29.9969887733"><time>2026-04-22T10:35:40Z</time></trkpt><trkpt lat="59.1005229950" lon="29.9969887733"><time>2026-04-22T10:35:43Z</time></trkpt><trkpt lat="59.1005229950" lon="29.9969887733"><time>2026-04-22T10:35:45Z</time></trkpt><trkpt lat="59.1005229950" lon="29.9969887733"><time>2026-04-22T10:35:48Z</time></trkpt><trkpt lat="59.1005229950" lon="29.9969887733"><time>2026-04-22T10:35:50Z</time></trkpt><trkpt lat="59.1005229950" lon="29.9969887733"><time>2026-04-22T10:35:53Z</time></trkpt><trkpt lat="59.1005444527" lon="29.9969673157"><time>2026-04-22T10:35:55Z</time></trkpt><trkpt lat="59.1005229950" lon="29.9969673157"><time>2026-04-22T10:35:58Z</time></trkpt><trkpt lat="59.1005444527" lon="29.9969887733"><time>2026-04-22T10:36:00Z</time></trkpt><trkpt lat="59.1005444527" lon="29.9969887733"><time>2026-04-22T10:36:03Z</time></trkpt><trkpt lat="59.1005444527" lon="29.9969887733"><time>2026-04-22T10:36:05Z</time></trkpt><trkpt lat="59.1005229950" lon="29.9969887733"><time>2026-04-22T10:36:08Z</time></trkpt><trkpt lat="59.1005229950" lon="29.9969887733"><time>2026-04-22T10:36:10Z</time></trkpt><trkpt lat="59.1005229950" lon="29.9969887733"><time>2026-04-22T10:36:13Z</time></trkpt><trkpt lat="59.1005229950" lon="29.9970316887"><time>2026-04-22T10:36:15Z</time></trkpt><trkpt lat="59.1005229950" lon="29.9970316887"><time>2026-04-22T10:36:18Z</time></trkpt><trkpt lat="59.1005229950" lon="29.9970316887"><time>2026-04-22T10:36:20Z</time></trkpt><trkpt lat="59.1005444527" lon="29.9970102310"><time>2026-04-22T10:36:23Z</time></trkpt><trkpt lat="59.1005444527" lon="29.9969887733"><time>2026-04-22T10:36:25Z</time></trkpt><trkpt lat="59.1005444527" lon="29.9969887733"><time>2026-04-22T10:36:28Z</time></trkpt><trkpt lat="59.1005659103" lon="29.9969458580"><time>2026-04-22T10:36:30Z</time></trkpt><trkpt lat="59.1005659103" lon="29.9969458580"><time>2026-04-22T10:36:33Z</time></trkpt><trkpt lat="59.1005659103" lon="29.9969458580"><time>2026-04-22T10:36:35Z</time></trkpt><trkpt lat="59.1005659103" lon="29.9969673157"><time>2026-04-22T10:36:38Z</time></trkpt><trkpt lat="59.1005444527" lon="29.9969673157"><time>2026-04-22T10:36:40Z</time></trkpt><trkpt lat="59.1005444527" lon="29.9969673157"><time>2026-04-22T10:36:43Z</time></trkpt><trkpt lat="59.1005444527" lon="29.9969673157"><time>2026-04-22T10:36:45Z</time></trkpt><trkpt lat="59.1005444527" lon="29.9969673157"><time>2026-04-22T10:36:48Z</time></trkpt><trkpt lat="59.1005444527" lon="29.9969673157"><time>2026-04-22T10:36:50Z</time></trkpt><trkpt lat="59.1005444527" lon="29.9969673157"><time>2026-04-22T10:36:53Z</time></trkpt><trkpt lat="59.1005444527" lon="29.9969673157"><time>2026-04-22T10:36:55Z</time></trkpt><trkpt lat="59.1005444527" lon="29.9969673157"><time>2026-04-22T10:36:58Z</time></trkpt><trkpt lat="59.1005444527" lon="29.9969673157"><time>2026-04-22T10:37:00Z</time></trkpt><trkpt lat="59.1005444527" lon="29.9969673157"><time>2026-04-22T10:37:03Z</time></trkpt><trkpt lat="59.1005444527" lon="29.9969673157"><time>2026-04-22T10:37:05Z</time></trkpt><trkpt lat="59.1005444527" lon="29.9969673157"><time>2026-04-22T10:37:08Z</time></trkpt><trkpt lat="59.1005444527" lon="29.9969673157"><time>2026-04-22T10:37:10Z</time></trkpt><trkpt lat="59.1005444527" lon="29.9969673157"><time>2026-04-22T10:37:13Z</time></trkpt><trkpt lat="59.1005444527" lon="29.9969673157"><time>2026-04-22T10:37:15Z</time></trkpt><trkpt lat="59.1005444527" lon="29.9969673157"><time>2026-04-22T10:37:18Z</time></trkpt><trkpt lat="59.1005444527" lon="29.9969887733"><time>2026-04-22T10:37:20Z</time></trkpt><trkpt lat="59.1005444527" lon="29.9969887733"><time>2026-04-22T10:37:23Z</time></trkpt><trkpt lat="59.1005659103" lon="29.9970102310"><time>2026-04-22T10:37:25Z</time></trkpt><trkpt lat="59.1005659103" lon="29.9970102310"><time>2026-04-22T10:37:28Z</time></trkpt><trkpt lat="59.1005659103" lon="29.9970102310"><time>2026-04-22T10:37:30Z</time></trkpt><trkpt lat="59.1005659103" lon="29.9970102310"><time>2026-04-22T10:37:33Z</time></trkpt><trkpt lat="59.1005659103" lon="29.9970102310"><time>2026-04-22T10:37:35Z</time></trkpt><trkpt lat="59.1005659103" lon="29.9970102310"><time>2026-04-22T10:37:38Z</time></trkpt><trkpt lat="59.1005659103" lon="29.9970102310"><time>2026-04-22T10:37:40Z</time></trkpt><trkpt lat="59.1005659103" lon="29.9970102310"><time>2026-04-22T10:37:43Z</time></trkpt><trkpt lat="59.1005659103" lon="29.9970102310"><time>2026-04-22T10:37:45Z</time></trkpt><trkpt lat="59.1005659103" lon="29.9970102310"><time>2026-04-22T10:37:48Z</time></trkpt><trkpt lat="59.1005659103" lon="29.9970102310"><time>2026-04-22T10:37:50Z</time></trkpt><trkpt lat="59.1005659103" lon="29.9970102310"><time>2026-04-22T10:37:53Z</time></trkpt><trkpt lat="59.1005659103" lon="29.9970102310"><time>2026-04-22T10:37:55Z</time></trkpt><trkpt lat="59.1005659103" lon="29.9970102310"><time>2026-04-22T10:37:58Z</time></trkpt><trkpt lat="59.1005659103" lon="29.9970102310"><time>2026-04-22T10:38:00Z</time></trkpt><trkpt lat="59.1005659103" lon="29.9970102310"><time>2026-04-22T10:38:03Z</time></trkpt><trkpt lat="59.1005659103" lon="29.9970102310"><time>2026-04-22T10:38:05Z</time></trkpt><trkpt lat="59.1005659103" lon="29.9970102310"><time>2026-04-22T10:38:08Z</time></trkpt><trkpt lat="59.1005659103" lon="29.9970102310"><time>2026-04-22T10:38:10Z</time></trkpt><trkpt lat="59.1005659103" lon="29.9970102310"><time>2026-04-22T10:38:13Z</time></trkpt><trkpt lat="59.1005659103" lon="29.9970102310"><time>2026-04-22T10:38:15Z</time></trkpt><trkpt lat="59.1005659103" lon="29.9970102310"><time>2026-04-22T10:38:18Z</time></trkpt><trkpt lat="59.1005659103" lon="29.9970102310"><time>2026-04-22T10:38:20Z</time></trkpt><trkpt lat="59.1005659103" lon="29.9970102310"><time>2026-04-22T10:38:23Z</time></trkpt><trkpt lat="59.1005659103" lon="29.9970102310"><time>2026-04-22T10:38:25Z</time></trkpt><trkpt lat="59.1005659103" lon="29.9970102310"><time>2026-04-22T10:38:28Z</time></trkpt><trkpt lat="59.1005444527" lon="29.9970102310"><time>2026-04-22T10:38:30Z</time></trkpt><trkpt lat="59.1005444527" lon="29.9970102310"><time>2026-04-22T10:38:33Z</time></trkpt><trkpt lat="59.1005444527" lon="29.9970102310"><time>2026-04-22T10:38:35Z</time></trkpt><trkpt lat="59.1005444527" lon="29.9970102310"><time>2026-04-22T10:38:38Z</time></trkpt><trkpt lat="59.1005444527" lon="29.9970102310"><time>2026-04-22T10:38:40Z</time></trkpt><trkpt lat="59.1005444527" lon="29.9970102310"><time>2026-04-22T10:38:43Z</time></trkpt><trkpt lat="59.1005444527" lon="29.9970102310"><time>2026-04-22T10:38:45Z</time></trkpt><trkpt lat="59.1005444527" lon="29.9970102310"><time>2026-04-22T10:38:48Z</time></trkpt><trkpt lat="59.1005444527" lon="29.9970102310"><time>2026-04-22T10:38:50Z</time></trkpt><trkpt lat="59.1005444527" lon="29.9970102310"><time>2026-04-22T10:38:53Z</time></trkpt><trkpt lat="59.1005444527" lon="29.9970102310"><time>2026-04-22T10:38:55Z</time></trkpt><trkpt lat="59.1005444527" lon="29.9970102310"><time>2026-04-22T10:38:58Z</time></trkpt><trkpt lat="59.1005444527" lon="29.9970102310"><time>2026-04-22T10:39:00Z</time></trkpt><trkpt lat="59.1005444527" lon="29.9970102310"><time>2026-04-22T10:39:03Z</time></trkpt><trkpt lat="59.1005444527" lon="29.9970102310"><time>2026-04-22T10:39:05Z</time></trkpt><trkpt lat="59.1005444527" lon="29.9970102310"><time>2026-04-22T10:39:08Z</time></trkpt><trkpt lat="59.1005444527" lon="29.9970102310"><time>2026-04-22T10:39:10Z</time></trkpt><trkpt lat="59.1005444527" lon="29.9970102310"><time>2026-04-22T10:39:13Z</time></trkpt><trkpt lat="59.1005444527" lon="29.9970102310"><time>2026-04-22T10:39:15Z</time></trkpt><trkpt lat="59.1005444527" lon="29.9970102310"><time>2026-04-22T10:39:18Z</time></trkpt><trkpt lat="59.1005444527" lon="29.9970102310"><time>2026-04-22T10:39:20Z</time></trkpt><trkpt lat="59.1005444527" lon="29.9970102310"><time>2026-04-22T10:39:23Z</time></trkpt><trkpt lat="59.1005444527" lon="29.9970102310"><time>2026-04-22T10:39:25Z</time></trkpt><trkpt lat="59.1005444527" lon="29.9970102310"><time>2026-04-22T10:39:28Z</time></trkpt><trkpt lat="59.1005444527" lon="29.9970102310"><time>2026-04-22T10:39:30Z</time></trkpt><trkpt lat="59.1005444527" lon="29.9970102310"><time>2026-04-22T10:39:33Z</time></trkpt><trkpt lat="59.1005444527" lon="29.9970102310"><time>2026-04-22T10:39:38Z</time></trkpt><trkpt lat="59.1005659103" lon="29.9970102310"><time>2026-04-22T10:39:40Z</time></trkpt><trkpt lat="59.1005659103" lon="29.9970102310"><time>2026-04-22T10:39:43Z</time></trkpt><trkpt lat="59.1005659103" lon="29.9970102310"><time>2026-04-22T10:39:45Z</time></trkpt><trkpt lat="59.1005659103" lon="29.9970102310"><time>2026-04-22T10:39:48Z</time></trkpt><trkpt lat="59.1005659103" lon="29.9970102310"><time>2026-04-22T10:39:50Z</time></trkpt><trkpt lat="59.1005444527" lon="29.9970102310"><time>2026-04-22T10:39:53Z</time></trkpt><trkpt lat="59.1005444527" lon="29.9970102310"><time>2026-04-22T10:39:55Z</time></trkpt><trkpt lat="59.1005444527" lon="29.9970102310"><time>2026-04-22T10:39:58Z</time></trkpt><trkpt lat="59.1005444527" lon="29.9970102310"><time>2026-04-22T10:40:00Z</time></trkpt><trkpt lat="59.1005444527" lon="29.9970102310"><time>2026-04-22T10:40:03Z</time></trkpt><trkpt lat="59.1005444527" lon="29.9970102310"><time>2026-04-22T10:40:05Z</time></trkpt><trkpt lat="59.1005444527" lon="29.9970102310"><time>2026-04-22T10:40:08Z</time></trkpt><trkpt lat="59.1005444527" lon="29.9970102310"><time>2026-04-22T10:40:10Z</time></trkpt><trkpt lat="59.1005444527" lon="29.9970102310"><time>2026-04-22T10:40:13Z</time></trkpt><trkpt lat="59.1005444527" lon="29.9970102310"><time>2026-04-22T10:40:15Z</time></trkpt><trkpt lat="59.1005444527" lon="29.9970102310"><time>2026-04-22T10:40:18Z</time></trkpt><trkpt lat="59.1005444527" lon="29.9970102310"><time>2026-04-22T10:40:20Z</time></trkpt><trkpt lat="59.1005444527" lon="29.9970102310"><time>2026-04-22T10:40:23Z</time></trkpt><trkpt lat="59.1005444527" lon="29.9970102310"><time>2026-04-22T10:40:25Z</time></trkpt><trkpt lat="59.1005444527" lon="29.9970102310"><time>2026-04-22T10:40:28Z</time></trkpt><trkpt lat="59.1005444527" lon="29.9970102310"><time>2026-04-22T10:40:30Z</time></trkpt><trkpt lat="59.1005444527" lon="29.9970102310"><time>2026-04-22T10:40:33Z</time></trkpt><trkpt lat="59.1005444527" lon="29.9970102310"><time>2026-04-22T10:40:35Z</time></trkpt><trkpt lat="59.1005444527" lon="29.9970102310"><time>2026-04-22T10:40:38Z</time></trkpt><trkpt lat="59.1005444527" lon="29.9970102310"><time>2026-04-22T10:40:40Z</time></trkpt><trkpt lat="59.1005444527" lon="29.9970102310"><time>2026-04-22T10:40:43Z</time></trkpt><trkpt lat="59.1005444527" lon="29.9970102310"><time>2026-04-22T10:40:45Z</time></trkpt><trkpt lat="59.1005444527" lon="29.9970102310"><time>2026-04-22T10:40:48Z</time></trkpt><trkpt lat="59.1005444527" lon="29.9970102310"><time>2026-04-22T10:40:50Z</time></trkpt><trkpt lat="59.1005444527" lon="29.9970102310"><time>2026-04-22T10:40:53Z</time></trkpt><trkpt lat="59.1005444527" lon="29.9970102310"><time>2026-04-22T10:40:55Z</time></trkpt><trkpt lat="59.1005444527" lon="29.9970102310"><time>2026-04-22T10:40:58Z</time></trkpt><trkpt lat="59.1005444527" lon="29.9970102310"><time>2026-04-22T10:41:00Z</time></trkpt><trkpt lat="59.1005444527" lon="29.9970102310"><time>2026-04-22T10:41:03Z</time></trkpt><trkpt lat="59.1005444527" lon="29.9970102310"><time>2026-04-22T10:41:05Z</time></trkpt><trkpt lat="59.1005444527" lon="29.9970102310"><time>2026-04-22T10:41:08Z</time></trkpt><trkpt lat="59.1005444527" lon="29.9970102310"><time>2026-04-22T10:41:10Z</time></trkpt><trkpt lat="59.1005659103" lon="29.9970102310"><time>2026-04-22T10:41:13Z</time></trkpt><trkpt lat="59.1005659103" lon="29.9970102310"><time>2026-04-22T10:41:15Z</time></trkpt><trkpt lat="59.1005659103" lon="29.9970102310"><time>2026-04-22T10:41:18Z</time></trkpt><trkpt lat="59.1005659103" lon="29.9970102310"><time>2026-04-22T10:41:20Z</time></trkpt><trkpt lat="59.1005659103" lon="29.9970102310"><time>2026-04-22T10:41:23Z</time></trkpt><trkpt lat="59.1005659103" lon="29.9970102310"><time>2026-04-22T10:41:25Z</time></trkpt><trkpt lat="59.1005659103" lon="29.9970102310"><time>2026-04-22T10:41:28Z</time></trkpt><trkpt lat="59.1005659103" lon="29.9970102310"><time>2026-04-22T10:41:30Z</time></trkpt><trkpt lat="59.1005659103" lon="29.9970102310"><time>2026-04-22T10:41:33Z</time></trkpt><trkpt lat="59.1005659103" lon="29.9970102310"><time>2026-04-22T10:41:35Z</time></trkpt><trkpt lat="59.1005659103" lon="29.9970102310"><time>2026-04-22T10:41:38Z</time></trkpt><trkpt lat="59.1005444527" lon="29.9970316887"><time>2026-04-22T10:41:40Z</time></trkpt><trkpt lat="59.1005444527" lon="29.9970531464"><time>2026-04-22T10:41:43Z</time></trkpt><trkpt lat="59.1005444527" lon="29.9970531464"><time>2026-04-22T10:41:45Z</time></trkpt><trkpt lat="59.1005444527" lon="29.9970531464"><time>2026-04-22T10:41:48Z</time></trkpt><trkpt lat="59.1005444527" lon="29.9970531464"><time>2026-04-22T10:41:50Z</time></trkpt><trkpt lat="59.1005444527" lon="29.9970531464"><time>2026-04-22T10:41:53Z</time></trkpt><trkpt lat="59.1005444527" lon="29.9970531464"><time>2026-04-22T10:41:55Z</time></trkpt><trkpt lat="59.1005444527" lon="29.9970531464"><time>2026-04-22T10:41:58Z</time></trkpt><trkpt lat="59.1005444527" lon="29.9970531464"><time>2026-04-22T10:42:00Z</time></trkpt><trkpt lat="59.1005444527" lon="29.9970531464"><time>2026-04-22T10:42:03Z</time></trkpt><trkpt lat="59.1005444527" lon="29.9970531464"><time>2026-04-22T10:42:05Z</time></trkpt><trkpt lat="59.1005444527" lon="29.9970531464"><time>2026-04-22T10:42:08Z</time></trkpt><trkpt lat="59.1005444527" lon="29.9970531464"><time>2026-04-22T10:42:10Z</time></trkpt><trkpt lat="59.1005444527" lon="29.9970531464"><time>2026-04-22T10:42:13Z</time></trkpt><trkpt lat="59.1005444527" lon="29.9970531464"><time>2026-04-22T10:42:15Z</time></trkpt><trkpt lat="59.1005444527" lon="29.9970531464"><time>2026-04-22T10:42:18Z</time></trkpt><trkpt lat="59.1005444527" lon="29.9970531464"><time>2026-04-22T10:42:20Z</time></trkpt><trkpt lat="59.1005444527" lon="29.9970531464"><time>2026-04-22T10:42:23Z</time></trkpt><trkpt lat="59.1004800797" lon="29.9970531464"><time>2026-04-22T10:42:28Z</time></trkpt><trkpt lat="59.1004800797" lon="29.9970531464"><time>2026-04-22T10:42:30Z</time></trkpt><trkpt lat="59.1004800797" lon="29.9970531464"><time>2026-04-22T10:42:33Z</time></trkpt><trkpt lat="59.1004586220" lon="29.9970316887"><time>2026-04-22T10:42:35Z</time></trkpt><trkpt lat="59.1004586220" lon="29.9970316887"><time>2026-04-22T10:42:38Z</time></trkpt><trkpt lat="59.1004157066" lon="29.9970316887"><time>2026-04-22T10:42:40Z</time></trkpt><trkpt lat="59.1003942490" lon="29.9969887733"><time>2026-04-22T10:42:43Z</time></trkpt><trkpt lat="59.1003727913" lon="29.9969887733"><time>2026-04-22T10:42:45Z</time></trkpt><trkpt lat="59.1003727913" lon="29.9969887733"><time>2026-04-22T10:42:48Z</time></trkpt><trkpt lat="59.1003513336" lon="29.9970102310"><time>2026-04-22T10:42:50Z</time></trkpt><trkpt lat="59.1003513336" lon="29.9970102310"><time>2026-04-22T10:42:53Z</time></trkpt><trkpt lat="59.1003298759" lon="29.9969673157"><time>2026-04-22T10:42:55Z</time></trkpt><trkpt lat="59.1002869606" lon="29.9969458580"><time>2026-04-22T10:42:58Z</time></trkpt><trkpt lat="59.1002440453" lon="29.9968814850"><time>2026-04-22T10:43:03Z</time></trkpt><trkpt lat="59.1002225876" lon="29.9969244003"><time>2026-04-22T10:43:05Z</time></trkpt><trkpt lat="59.1002011299" lon="29.9969458580"><time>2026-04-22T10:43:08Z</time></trkpt><trkpt lat="59.1001796722" lon="29.9969458580"><time>2026-04-22T10:43:10Z</time></trkpt><trkpt lat="59.1001796722" lon="29.9969458580"><time>2026-04-22T10:43:13Z</time></trkpt><trkpt lat="59.1001796722" lon="29.9969458580"><time>2026-04-22T10:43:15Z</time></trkpt><trkpt lat="59.1001582146" lon="29.9969458580"><time>2026-04-22T10:43:18Z</time></trkpt><trkpt lat="59.1001367569" lon="29.9969458580"><time>2026-04-22T10:43:20Z</time></trkpt><trkpt lat="59.1000938416" lon="29.9969458580"><time>2026-04-22T10:43:23Z</time></trkpt><trkpt lat="59.1000938416" lon="29.9969244003"><time>2026-04-22T10:43:25Z</time></trkpt><trkpt lat="59.1000723839" lon="29.9969458580"><time>2026-04-22T10:43:28Z</time></trkpt><trkpt lat="59.1000723839" lon="29.9969458580"><time>2026-04-22T10:43:30Z</time></trkpt><trkpt lat="59.1000723839" lon="29.9969458580"><time>2026-04-22T10:43:33Z</time></trkpt><trkpt lat="59.1000723839" lon="29.9969458580"><time>2026-04-22T10:43:38Z</time></trkpt><trkpt lat="59.1000723839" lon="29.9969458580"><time>2026-04-22T10:43:40Z</time></trkpt><trkpt lat="59.1000723839" lon="29.9969458580"><time>2026-04-22T10:43:43Z</time></trkpt><trkpt lat="59.1000723839" lon="29.9969458580"><time>2026-04-22T10:43:45Z</time></trkpt><trkpt lat="59.1000723839" lon="29.9969458580"><time>2026-04-22T10:43:48Z</time></trkpt><trkpt lat="59.1000723839" lon="29.9969458580"><time>2026-04-22T10:43:50Z</time></trkpt><trkpt lat="59.1000723839" lon="29.9969458580"><time>2026-04-22T10:43:53Z</time></trkpt><trkpt lat="59.1000723839" lon="29.9969458580"><time>2026-04-22T10:43:58Z</time></trkpt><trkpt lat="59.1000723839" lon="29.9969458580"><time>2026-04-22T10:44:00Z</time></trkpt><trkpt lat="59.1000294685" lon="29.9969458580"><time>2026-04-22T10:44:03Z</time></trkpt><trkpt lat="59.1000080109" lon="29.9969458580"><time>2026-04-22T10:44:05Z</time></trkpt><trkpt lat="59.1000080109" lon="29.9969673157"><time>2026-04-22T10:44:08Z</time></trkpt><trkpt lat="59.1000080109" lon="29.9969673157"><time>2026-04-22T10:44:10Z</time></trkpt><trkpt lat="59.1000080109" lon="29.9969673157"><time>2026-04-22T10:44:13Z</time></trkpt><trkpt lat="59.0999865532" lon="29.9969887733"><time>2026-04-22T10:44:15Z</time></trkpt><trkpt lat="59.0999436378" lon="29.9970102310"><time>2026-04-22T10:44:18Z</time></trkpt><trkpt lat="59.0999007225" lon="29.9970316887"><time>2026-04-22T10:44:20Z</time></trkpt><trkpt lat="59.0999007225" lon="29.9970316887"><time>2026-04-22T10:44:23Z</time></trkpt><trkpt lat="59.0999007225" lon="29.9970316887"><time>2026-04-22T10:44:25Z</time></trkpt><trkpt lat="59.0999007225" lon="29.9970316887"><time>2026-04-22T10:44:28Z</time></trkpt><trkpt lat="59.0999007225" lon="29.9970316887"><time>2026-04-22T10:44:30Z</time></trkpt><trkpt lat="59.0999007225" lon="29.9970316887"><time>2026-04-22T10:44:33Z</time></trkpt><trkpt lat="59.0999007225" lon="29.9970316887"><time>2026-04-22T10:44:35Z</time></trkpt><trkpt lat="59.0999007225" lon="29.9970316887"><time>2026-04-22T10:44:38Z</time></trkpt><trkpt lat="59.0999007225" lon="29.9970316887"><time>2026-04-22T10:44:40Z</time></trkpt><trkpt lat="59.0999007225" lon="29.9970316887"><time>2026-04-22T10:44:43Z</time></trkpt><trkpt lat="59.0999007225" lon="29.9970316887"><time>2026-04-22T10:44:45Z</time></trkpt><trkpt lat="59.0999007225" lon="29.9970316887"><time>2026-04-22T10:44:48Z</time></trkpt><trkpt lat="59.0999007225" lon="29.9970316887"><time>2026-04-22T10:44:50Z</time></trkpt><trkpt lat="59.0998792648" lon="29.9970316887"><time>2026-04-22T10:44:53Z</time></trkpt><trkpt lat="59.0998148918" lon="29.9970102310"><time>2026-04-22T10:44:55Z</time></trkpt><trkpt lat="59.0997934341" lon="29.9969887733"><time>2026-04-22T10:44:58Z</time></trkpt><trkpt lat="59.0997719765" lon="29.9969673157"><time>2026-04-22T10:45:00Z</time></trkpt><trkpt lat="59.0997719765" lon="29.9969673157"><time>2026-04-22T10:45:03Z</time></trkpt><trkpt lat="59.0997505188" lon="29.9969244003"><time>2026-04-22T10:45:05Z</time></trkpt><trkpt lat="59.0997290611" lon="29.9969029427"><time>2026-04-22T10:45:08Z</time></trkpt><trkpt lat="59.0996861458" lon="29.9968600273"><time>2026-04-22T10:45:10Z</time></trkpt><trkpt lat="59.0996861458" lon="29.9968385696"><time>2026-04-22T10:45:13Z</time></trkpt><trkpt lat="59.0996646881" lon="29.9968600273"><time>2026-04-22T10:45:15Z</time></trkpt><trkpt lat="59.0996646881" lon="29.9968385696"><time>2026-04-22T10:45:18Z</time></trkpt><trkpt lat="59.0996646881" lon="29.9968385696"><time>2026-04-22T10:45:20Z</time></trkpt><trkpt lat="59.0996646881" lon="29.9968385696"><time>2026-04-22T10:45:23Z</time></trkpt><trkpt lat="59.0996646881" lon="29.9968385696"><time>2026-04-22T10:45:25Z</time></trkpt><trkpt lat="59.0996432304" lon="29.9968385696"><time>2026-04-22T10:45:28Z</time></trkpt><trkpt lat="59.0996003151" lon="29.9968385696"><time>2026-04-22T10:45:30Z</time></trkpt><trkpt lat="59.0996003151" lon="29.9968385696"><time>2026-04-22T10:45:33Z</time></trkpt><trkpt lat="59.0996003151" lon="29.9968385696"><time>2026-04-22T10:45:35Z</time></trkpt><trkpt lat="59.0996003151" lon="29.9967741966"><time>2026-04-22T10:45:38Z</time></trkpt><trkpt lat="59.0996003151" lon="29.9966883659"><time>2026-04-22T10:45:40Z</time></trkpt><trkpt lat="59.0996003151" lon="29.9966883659"><time>2026-04-22T10:45:43Z</time></trkpt><trkpt lat="59.0996003151" lon="29.9966883659"><time>2026-04-22T10:45:45Z</time></trkpt><trkpt lat="59.0996003151" lon="29.9966883659"><time>2026-04-22T10:45:48Z</time></trkpt><trkpt lat="59.0996003151" lon="29.9966883659"><time>2026-04-22T10:45:50Z</time></trkpt><trkpt lat="59.0996003151" lon="29.9966883659"><time>2026-04-22T10:45:53Z</time></trkpt><trkpt lat="59.0996003151" lon="29.9967098236"><time>2026-04-22T10:45:55Z</time></trkpt><trkpt lat="59.0996003151" lon="29.9967312813"><time>2026-04-22T10:45:58Z</time></trkpt><trkpt lat="59.0996432304" lon="29.9967956543"><time>2026-04-22T10:46:00Z</time></trkpt><trkpt lat="59.0996432304" lon="29.9967956543"><time>2026-04-22T10:46:03Z</time></trkpt><trkpt lat="59.0996646881" lon="29.9968600273"><time>2026-04-22T10:46:05Z</time></trkpt><trkpt lat="59.0996646881" lon="29.9968814850"><time>2026-04-22T10:46:08Z</time></trkpt><trkpt lat="59.0996646881" lon="29.9969244003"><time>2026-04-22T10:46:10Z</time></trkpt><trkpt lat="59.0996646881" lon="29.9969244003"><time>2026-04-22T10:46:13Z</time></trkpt><trkpt lat="59.0996646881" lon="29.9969244003"><time>2026-04-22T10:46:15Z</time></trkpt><trkpt lat="59.0996646881" lon="29.9969244003"><time>2026-04-22T10:46:18Z</time></trkpt><trkpt lat="59.0996646881" lon="29.9969244003"><time>2026-04-22T10:46:20Z</time></trkpt><trkpt lat="59.0996217728" lon="29.9969458580"><time>2026-04-22T10:46:23Z</time></trkpt><trkpt lat="59.0996003151" lon="29.9969887733"><time>2026-04-22T10:46:25Z</time></trkpt><trkpt lat="59.0996003151" lon="29.9969887733"><time>2026-04-22T10:46:28Z</time></trkpt><trkpt lat="59.0995573997" lon="29.9970316887"><time>2026-04-22T10:46:30Z</time></trkpt><trkpt lat="59.0995359421" lon="29.9970531464"><time>2026-04-22T10:46:33Z</time></trkpt><trkpt lat="59.0995144844" lon="29.9970531464"><time>2026-04-22T10:46:35Z</time></trkpt><trkpt lat="59.0995144844" lon="29.9970531464"><time>2026-04-22T10:46:38Z</time></trkpt><trkpt lat="59.0994930267" lon="29.9970960617"><time>2026-04-22T10:46:40Z</time></trkpt><trkpt lat="59.0994715691" lon="29.9971389771"><time>2026-04-22T10:46:43Z</time></trkpt><trkpt lat="59.0994501114" lon="29.9972033501"><time>2026-04-22T10:46:45Z</time></trkpt><trkpt lat="59.0994501114" lon="29.9972248077"><time>2026-04-22T10:46:48Z</time></trkpt><trkpt lat="59.0994501114" lon="29.9972248077"><time>2026-04-22T10:46:50Z</time></trkpt><trkpt lat="59.0994501114" lon="29.9972462654"><time>2026-04-22T10:46:53Z</time></trkpt><trkpt lat="59.0994071960" lon="29.9972677231"><time>2026-04-22T10:46:55Z</time></trkpt><trkpt lat="59.0994071960" lon="29.9972677231"><time>2026-04-22T10:46:58Z</time></trkpt><trkpt lat="59.0994071960" lon="29.9972677231"><time>2026-04-22T10:47:00Z</time></trkpt><trkpt lat="59.0994071960" lon="29.9972677231"><time>2026-04-22T10:47:03Z</time></trkpt><trkpt lat="59.0994071960" lon="29.9972677231"><time>2026-04-22T10:47:05Z</time></trkpt><trkpt lat="59.0993857384" lon="29.9972891808"><time>2026-04-22T10:47:08Z</time></trkpt><trkpt lat="59.0993428230" lon="29.9973320961"><time>2026-04-22T10:47:10Z</time></trkpt><trkpt lat="59.0993213654" lon="29.9973535538"><time>2026-04-22T10:47:13Z</time></trkpt><trkpt lat="59.0992784500" lon="29.9973535538"><time>2026-04-22T10:47:15Z</time></trkpt><trkpt lat="59.0992784500" lon="29.9973964691"><time>2026-04-22T10:47:18Z</time></trkpt><trkpt lat="59.0992569923" lon="29.9974179268"><time>2026-04-22T10:47:20Z</time></trkpt><trkpt lat="59.0992569923" lon="29.9974608421"><time>2026-04-22T10:47:23Z</time></trkpt><trkpt lat="59.0992569923" lon="29.9974608421"><time>2026-04-22T10:47:25Z</time></trkpt><trkpt lat="59.0992569923" lon="29.9974608421"><time>2026-04-22T10:47:28Z</time></trkpt><trkpt lat="59.0992569923" lon="29.9974608421"><time>2026-04-22T10:47:30Z</time></trkpt><trkpt lat="59.0992569923" lon="29.9974822998"><time>2026-04-22T10:47:33Z</time></trkpt><trkpt lat="59.0992355347" lon="29.9975037575"><time>2026-04-22T10:47:35Z</time></trkpt><trkpt lat="59.0992140770" lon="29.9975252151"><time>2026-04-22T10:47:38Z</time></trkpt><trkpt lat="59.0991711617" lon="29.9976110458"><time>2026-04-22T10:47:40Z</time></trkpt><trkpt lat="59.0991497040" lon="29.9976754189"><time>2026-04-22T10:47:43Z</time></trkpt><trkpt lat="59.0991497040" lon="29.9976968765"><time>2026-04-22T10:47:45Z</time></trkpt><trkpt lat="59.0991497040" lon="29.9976968765"><time>2026-04-22T10:47:48Z</time></trkpt><trkpt lat="59.0991497040" lon="29.9976968765"><time>2026-04-22T10:47:50Z</time></trkpt><trkpt lat="59.0991497040" lon="29.9976968765"><time>2026-04-22T10:47:53Z</time></trkpt><trkpt lat="59.0991282463" lon="29.9977827072"><time>2026-04-22T10:47:55Z</time></trkpt><trkpt lat="59.0991282463" lon="29.9977827072"><time>2026-04-22T10:47:58Z</time></trkpt><trkpt lat="59.0991497040" lon="29.9976968765"><time>2026-04-22T10:48:00Z</time></trkpt><trkpt lat="59.0991497040" lon="29.9976110458"><time>2026-04-22T10:48:03Z</time></trkpt><trkpt lat="59.0991497040" lon="29.9976110458"><time>2026-04-22T10:48:05Z</time></trkpt><trkpt lat="59.0991497040" lon="29.9976110458"><time>2026-04-22T10:48:08Z</time></trkpt><trkpt lat="59.0991282463" lon="29.9976539612"><time>2026-04-22T10:48:10Z</time></trkpt><trkpt lat="59.0991282463" lon="29.9976539612"><time>2026-04-22T10:48:13Z</time></trkpt><trkpt lat="59.0991067886" lon="29.9976110458"><time>2026-04-22T10:48:15Z</time></trkpt><trkpt lat="59.0990853310" lon="29.9975895882"><time>2026-04-22T10:48:18Z</time></trkpt><trkpt lat="59.0990638733" lon="29.9975466728"><time>2026-04-22T10:48:20Z</time></trkpt><trkpt lat="59.0990209579" lon="29.9975466728"><time>2026-04-22T10:48:23Z</time></trkpt><trkpt lat="59.0989780426" lon="29.9975037575"><time>2026-04-22T10:48:25Z</time></trkpt><trkpt lat="59.0989565849" lon="29.9974608421"><time>2026-04-22T10:48:28Z</time></trkpt><trkpt lat="59.0989565849" lon="29.9974608421"><time>2026-04-22T10:48:33Z</time></trkpt><trkpt lat="59.0989780426" lon="29.9974608421"><time>2026-04-22T10:48:35Z</time></trkpt><trkpt lat="59.0989780426" lon="29.9974608421"><time>2026-04-22T10:48:38Z</time></trkpt><trkpt lat="59.0989565849" lon="29.9974393845"><time>2026-04-22T10:48:40Z</time></trkpt><trkpt lat="59.0989565849" lon="29.9973750114"><time>2026-04-22T10:48:43Z</time></trkpt><trkpt lat="59.0989351273" lon="29.9973320961"><time>2026-04-22T10:48:45Z</time></trkpt><trkpt lat="59.0988922119" lon="29.9973320961"><time>2026-04-22T10:48:48Z</time></trkpt><trkpt lat="59.0988707542" lon="29.9973750114"><time>2026-04-22T10:48:50Z</time></trkpt><trkpt lat="59.0988492966" lon="29.9974179268"><time>2026-04-22T10:48:53Z</time></trkpt><trkpt lat="59.0988063812" lon="29.9975466728"><time>2026-04-22T10:48:55Z</time></trkpt><trkpt lat="59.0988063812" lon="29.9976539612"><time>2026-04-22T10:48:58Z</time></trkpt><trkpt lat="59.0987849236" lon="29.9976968765"><time>2026-04-22T10:49:00Z</time></trkpt><trkpt lat="59.0987849236" lon="29.9976968765"><time>2026-04-22T10:49:03Z</time></trkpt><trkpt lat="59.0987634659" lon="29.9977827072"><time>2026-04-22T10:49:05Z</time></trkpt><trkpt lat="59.0987634659" lon="29.9978470802"><time>2026-04-22T10:49:08Z</time></trkpt><trkpt lat="59.0987205505" lon="29.9978685379"><time>2026-04-22T10:49:10Z</time></trkpt><trkpt lat="59.0987205505" lon="29.9978685379"><time>2026-04-22T10:49:13Z</time></trkpt><trkpt lat="59.0986776352" lon="29.9979543686"><time>2026-04-22T10:49:15Z</time></trkpt><trkpt lat="59.0986561775" lon="29.9979972839"><time>2026-04-22T10:49:18Z</time></trkpt><trkpt lat="59.0986561775" lon="29.9980831146"><time>2026-04-22T10:49:20Z</time></trkpt><trkpt lat="59.0986561775" lon="29.9980831146"><time>2026-04-22T10:49:23Z</time></trkpt><trkpt lat="59.0986776352" lon="29.9980401993"><time>2026-04-22T10:49:25Z</time></trkpt><trkpt lat="59.0986561775" lon="29.9979972839"><time>2026-04-22T10:49:28Z</time></trkpt><trkpt lat="59.0986132622" lon="29.9979329109"><time>2026-04-22T10:49:30Z</time></trkpt><trkpt lat="59.0986132622" lon="29.9978685379"><time>2026-04-22T10:49:33Z</time></trkpt><trkpt lat="59.0985918045" lon="29.9977827072"><time>2026-04-22T10:49:35Z</time></trkpt><trkpt lat="59.0985703468" lon="29.9978041649"><time>2026-04-22T10:49:38Z</time></trkpt><trkpt lat="59.0985703468" lon="29.9977827072"><time>2026-04-22T10:49:40Z</time></trkpt><trkpt lat="59.0985703468" lon="29.9977612495"><time>2026-04-22T10:49:43Z</time></trkpt><trkpt lat="59.0985703468" lon="29.9977612495"><time>2026-04-22T10:49:45Z</time></trkpt><trkpt lat="59.0985703468" lon="29.9977612495"><time>2026-04-22T10:49:48Z</time></trkpt><trkpt lat="59.0985703468" lon="29.9977612495"><time>2026-04-22T10:49:50Z</time></trkpt><trkpt lat="59.0985703468" lon="29.9977612495"><time>2026-04-22T10:49:53Z</time></trkpt><trkpt lat="59.0985703468" lon="29.9977612495"><time>2026-04-22T10:49:55Z</time></trkpt><trkpt lat="59.0985703468" lon="29.9977612495"><time>2026-04-22T10:49:58Z</time></trkpt><trkpt lat="59.0985059738" lon="29.9977827072"><time>2026-04-22T10:50:00Z</time></trkpt><trkpt lat="59.0984845161" lon="29.9978041649"><time>2026-04-22T10:50:03Z</time></trkpt><trkpt lat="59.0984630585" lon="29.9978685379"><time>2026-04-22T10:50:05Z</time></trkpt><trkpt lat="59.0984416008" lon="29.9978899956"><time>2026-04-22T10:50:08Z</time></trkpt><trkpt lat="59.0984201431" lon="29.9979114532"><time>2026-04-22T10:50:10Z</time></trkpt><trkpt lat="59.0983986855" lon="29.9979329109"><time>2026-04-22T10:50:13Z</time></trkpt><trkpt lat="59.0983986855" lon="29.9979329109"><time>2026-04-22T10:50:15Z</time></trkpt><trkpt lat="59.0983772278" lon="29.9979543686"><time>2026-04-22T10:50:18Z</time></trkpt><trkpt lat="59.0983343124" lon="29.9979758263"><time>2026-04-22T10:50:23Z</time></trkpt><trkpt lat="59.0983343124" lon="29.9979758263"><time>2026-04-22T10:50:25Z</time></trkpt><trkpt lat="59.0983343124" lon="29.9979758263"><time>2026-04-22T10:50:28Z</time></trkpt><trkpt lat="59.0983343124" lon="29.9979758263"><time>2026-04-22T10:50:30Z</time></trkpt><trkpt lat="59.0983343124" lon="29.9979758263"><time>2026-04-22T10:50:33Z</time></trkpt><trkpt lat="59.0982699394" lon="29.9979758263"><time>2026-04-22T10:50:35Z</time></trkpt><trkpt lat="59.0982699394" lon="29.9979972839"><time>2026-04-22T10:50:38Z</time></trkpt><trkpt lat="59.0982699394" lon="29.9979972839"><time>2026-04-22T10:50:40Z</time></trkpt><trkpt lat="59.0982699394" lon="29.9979972839"><time>2026-04-22T10:50:43Z</time></trkpt><trkpt lat="59.0982699394" lon="29.9979972839"><time>2026-04-22T10:50:45Z</time></trkpt><trkpt lat="59.0982484818" lon="29.9979758263"><time>2026-04-22T10:50:48Z</time></trkpt><trkpt lat="59.0982055664" lon="29.9979758263"><time>2026-04-22T10:50:50Z</time></trkpt><trkpt lat="59.0981841087" lon="29.9979972839"><time>2026-04-22T10:50:53Z</time></trkpt><trkpt lat="59.0981411934" lon="29.9980401993"><time>2026-04-22T10:50:55Z</time></trkpt><trkpt lat="59.0980982780" lon="29.9980401993"><time>2026-04-22T10:50:58Z</time></trkpt><trkpt lat="59.0980982780" lon="29.9980616570"><time>2026-04-22T10:51:00Z</time></trkpt><trkpt lat="59.0980982780" lon="29.9980616570"><time>2026-04-22T10:51:03Z</time></trkpt><trkpt lat="59.0980768204" lon="29.9980187416"><time>2026-04-22T10:51:05Z</time></trkpt><trkpt lat="59.0980768204" lon="29.9980187416"><time>2026-04-22T10:51:08Z</time></trkpt><trkpt lat="59.0980339050" lon="29.9979972839"><time>2026-04-22T10:51:10Z</time></trkpt><trkpt lat="59.0980124474" lon="29.9979543686"><time>2026-04-22T10:51:13Z</time></trkpt><trkpt lat="59.0979480743" lon="29.9979329109"><time>2026-04-22T10:51:15Z</time></trkpt><trkpt lat="59.0979266167" lon="29.9979543686"><time>2026-04-22T10:51:18Z</time></trkpt><trkpt lat="59.0979051590" lon="29.9980187416"><time>2026-04-22T10:51:20Z</time></trkpt><trkpt lat="59.0978837013" lon="29.9980187416"><time>2026-04-22T10:51:23Z</time></trkpt><trkpt lat="59.0978407860" lon="29.9979972839"><time>2026-04-22T10:51:25Z</time></trkpt><trkpt lat="59.0978193283" lon="29.9979758263"><time>2026-04-22T10:51:28Z</time></trkpt><trkpt lat="59.0977764130" lon="29.9979972839"><time>2026-04-22T10:51:30Z</time></trkpt><trkpt lat="59.0977764130" lon="29.9980187416"><time>2026-04-22T10:51:33Z</time></trkpt><trkpt lat="59.0977764130" lon="29.9980187416"><time>2026-04-22T10:51:35Z</time></trkpt><trkpt lat="59.0977549553" lon="29.9980401993"><time>2026-04-22T10:51:38Z</time></trkpt><trkpt lat="59.0977120399" lon="29.9980187416"><time>2026-04-22T10:51:40Z</time></trkpt><trkpt lat="59.0976905823" lon="29.9979972839"><time>2026-04-22T10:51:43Z</time></trkpt><trkpt lat="59.0976476669" lon="29.9979329109"><time>2026-04-22T10:51:45Z</time></trkpt><trkpt lat="59.0976262093" lon="29.9978899956"><time>2026-04-22T10:51:48Z</time></trkpt><trkpt lat="59.0976047516" lon="29.9978685379"><time>2026-04-22T10:51:50Z</time></trkpt><trkpt lat="59.0976262093" lon="29.9978685379"><time>2026-04-22T10:51:53Z</time></trkpt><trkpt lat="59.0976476669" lon="29.9978685379"><time>2026-04-22T10:51:55Z</time></trkpt><trkpt lat="59.0976691246" lon="29.9978685379"><time>2026-04-22T10:51:58Z</time></trkpt><trkpt lat="59.0976691246" lon="29.9978899956"><time>2026-04-22T10:52:00Z</time></trkpt><trkpt lat="59.0976691246" lon="29.9978899956"><time>2026-04-22T10:52:03Z</time></trkpt><trkpt lat="59.0976691246" lon="29.9978899956"><time>2026-04-22T10:52:05Z</time></trkpt><trkpt lat="59.0976691246" lon="29.9979329109"><time>2026-04-22T10:52:08Z</time></trkpt><trkpt lat="59.0976905823" lon="29.9980187416"><time>2026-04-22T10:52:10Z</time></trkpt><trkpt lat="59.0976691246" lon="29.9980616570"><time>2026-04-22T10:52:13Z</time></trkpt><trkpt lat="59.0976691246" lon="29.9981045723"><time>2026-04-22T10:52:15Z</time></trkpt><trkpt lat="59.0976476669" lon="29.9981045723"><time>2026-04-22T10:52:18Z</time></trkpt><trkpt lat="59.0976476669" lon="29.9981260300"><time>2026-04-22T10:52:20Z</time></trkpt><trkpt lat="59.0976476669" lon="29.9981260300"><time>2026-04-22T10:52:23Z</time></trkpt><trkpt lat="59.0976476669" lon="29.9981260300"><time>2026-04-22T10:52:25Z</time></trkpt><trkpt lat="59.0976476669" lon="29.9981260300"><time>2026-04-22T10:52:28Z</time></trkpt><trkpt lat="59.0976476669" lon="29.9981260300"><time>2026-04-22T10:52:30Z</time></trkpt><trkpt lat="59.0976476669" lon="29.9981260300"><time>2026-04-22T10:52:33Z</time></trkpt><trkpt lat="59.0976476669" lon="29.9981260300"><time>2026-04-22T10:52:35Z</time></trkpt><trkpt lat="59.0976476669" lon="29.9981260300"><time>2026-04-22T10:52:38Z</time></trkpt><trkpt lat="59.0976476669" lon="29.9981260300"><time>2026-04-22T10:52:40Z</time></trkpt><trkpt lat="59.0976476669" lon="29.9981260300"><time>2026-04-22T10:52:43Z</time></trkpt><trkpt lat="59.0976476669" lon="29.9981260300"><time>2026-04-22T10:52:45Z</time></trkpt><trkpt lat="59.0976476669" lon="29.9981260300"><time>2026-04-22T10:52:48Z</time></trkpt><trkpt lat="59.0976476669" lon="29.9981260300"><time>2026-04-22T10:52:50Z</time></trkpt><trkpt lat="59.0976476669" lon="29.9981260300"><time>2026-04-22T10:52:53Z</time></trkpt><trkpt lat="59.0976047516" lon="29.9981689453"><time>2026-04-22T10:52:55Z</time></trkpt><trkpt lat="59.0976047516" lon="29.9982118607"><time>2026-04-22T10:52:58Z</time></trkpt><trkpt lat="59.0976047516" lon="29.9982118607"><time>2026-04-22T10:53:00Z</time></trkpt><trkpt lat="59.0976047516" lon="29.9982118607"><time>2026-04-22T10:53:03Z</time></trkpt><trkpt lat="59.0976047516" lon="29.9982118607"><time>2026-04-22T10:53:05Z</time></trkpt><trkpt lat="59.0976047516" lon="29.9982118607"><time>2026-04-22T10:53:08Z</time></trkpt><trkpt lat="59.0976047516" lon="29.9981904030"><time>2026-04-22T10:53:10Z</time></trkpt><trkpt lat="59.0976047516" lon="29.9981904030"><time>2026-04-22T10:53:13Z</time></trkpt><trkpt lat="59.0976047516" lon="29.9981904030"><time>2026-04-22T10:53:15Z</time></trkpt><trkpt lat="59.0976047516" lon="29.9981904030"><time>2026-04-22T10:53:18Z</time></trkpt><trkpt lat="59.0976047516" lon="29.9981904030"><time>2026-04-22T10:53:20Z</time></trkpt><trkpt lat="59.0976047516" lon="29.9981904030"><time>2026-04-22T10:53:23Z</time></trkpt><trkpt lat="59.0976047516" lon="29.9981904030"><time>2026-04-22T10:53:25Z</time></trkpt><trkpt lat="59.0976047516" lon="29.9981904030"><time>2026-04-22T10:53:28Z</time></trkpt><trkpt lat="59.0976047516" lon="29.9981904030"><time>2026-04-22T10:53:30Z</time></trkpt><trkpt lat="59.0976047516" lon="29.9981904030"><time>2026-04-22T10:53:33Z</time></trkpt><trkpt lat="59.0976047516" lon="29.9981904030"><time>2026-04-22T10:53:35Z</time></trkpt><trkpt lat="59.0976047516" lon="29.9981904030"><time>2026-04-22T10:53:38Z</time></trkpt><trkpt lat="59.0976047516" lon="29.9981904030"><time>2026-04-22T10:53:40Z</time></trkpt><trkpt lat="59.0976047516" lon="29.9981904030"><time>2026-04-22T10:53:43Z</time></trkpt><trkpt lat="59.0976047516" lon="29.9981904030"><time>2026-04-22T10:53:45Z</time></trkpt><trkpt lat="59.0976047516" lon="29.9981904030"><time>2026-04-22T10:53:48Z</time></trkpt><trkpt lat="59.0976047516" lon="29.9981904030"><time>2026-04-22T10:53:50Z</time></trkpt><trkpt lat="59.0976047516" lon="29.9981904030"><time>2026-04-22T10:53:53Z</time></trkpt><trkpt lat="59.0976047516" lon="29.9981904030"><time>2026-04-22T10:53:55Z</time></trkpt><trkpt lat="59.0976047516" lon="29.9981689453"><time>2026-04-22T10:53:58Z</time></trkpt><trkpt lat="59.0976047516" lon="29.9981689453"><time>2026-04-22T10:54:00Z</time></trkpt><trkpt lat="59.0976047516" lon="29.9981474876"><time>2026-04-22T10:54:03Z</time></trkpt><trkpt lat="59.0976047516" lon="29.9981689453"><time>2026-04-22T10:54:05Z</time></trkpt><trkpt lat="59.0976047516" lon="29.9981689453"><time>2026-04-22T10:54:08Z</time></trkpt><trkpt lat="59.0976047516" lon="29.9981689453"><time>2026-04-22T10:54:10Z</time></trkpt><trkpt lat="59.0976047516" lon="29.9981689453"><time>2026-04-22T10:54:13Z</time></trkpt><trkpt lat="59.0976047516" lon="29.9981689453"><time>2026-04-22T10:54:15Z</time></trkpt><trkpt lat="59.0976047516" lon="29.9981689453"><time>2026-04-22T10:54:18Z</time></trkpt><trkpt lat="59.0976047516" lon="29.9981689453"><time>2026-04-22T10:54:20Z</time></trkpt><trkpt lat="59.0976047516" lon="29.9981689453"><time>2026-04-22T10:54:23Z</time></trkpt><trkpt lat="59.0976047516" lon="29.9981689453"><time>2026-04-22T10:54:25Z</time></trkpt><trkpt lat="59.0976047516" lon="29.9981689453"><time>2026-04-22T10:54:28Z</time></trkpt><trkpt lat="59.0976047516" lon="29.9981689453"><time>2026-04-22T10:54:30Z</time></trkpt><trkpt lat="59.0976047516" lon="29.9981689453"><time>2026-04-22T10:54:33Z</time></trkpt><trkpt lat="59.0975832939" lon="29.9981904030"><time>2026-04-22T10:54:35Z</time></trkpt><trkpt lat="59.0975832939" lon="29.9981904030"><time>2026-04-22T10:54:38Z</time></trkpt><trkpt lat="59.0975832939" lon="29.9981904030"><time>2026-04-22T10:54:40Z</time></trkpt><trkpt lat="59.0975832939" lon="29.9981904030"><time>2026-04-22T10:54:43Z</time></trkpt><trkpt lat="59.0975832939" lon="29.9981904030"><time>2026-04-22T10:54:45Z</time></trkpt><trkpt lat="59.0975832939" lon="29.9981904030"><time>2026-04-22T10:54:48Z</time></trkpt><trkpt lat="59.0975832939" lon="29.9981904030"><time>2026-04-22T10:54:50Z</time></trkpt><trkpt lat="59.0975832939" lon="29.9981904030"><time>2026-04-22T10:54:53Z</time></trkpt><trkpt lat="59.0975832939" lon="29.9981904030"><time>2026-04-22T10:54:58Z</time></trkpt><trkpt lat="59.0975832939" lon="29.9981904030"><time>2026-04-22T10:55:00Z</time></trkpt><trkpt lat="59.0975832939" lon="29.9981904030"><time>2026-04-22T10:55:03Z</time></trkpt><trkpt lat="59.0975832939" lon="29.9981904030"><time>2026-04-22T10:55:05Z</time></trkpt><trkpt lat="59.0975832939" lon="29.9981904030"><time>2026-04-22T10:55:08Z</time></trkpt><trkpt lat="59.0975832939" lon="29.9981904030"><time>2026-04-22T10:55:10Z</time></trkpt><trkpt lat="59.0975832939" lon="29.9981904030"><time>2026-04-22T10:55:13Z</time></trkpt><trkpt lat="59.0975832939" lon="29.9981904030"><time>2026-04-22T10:55:15Z</time></trkpt><trkpt lat="59.0975832939" lon="29.9981904030"><time>2026-04-22T10:55:18Z</time></trkpt><trkpt lat="59.0975832939" lon="29.9981689453"><time>2026-04-22T10:55:20Z</time></trkpt><trkpt lat="59.0975832939" lon="29.9981689453"><time>2026-04-22T10:55:23Z</time></trkpt><trkpt lat="59.0975832939" lon="29.9981689453"><time>2026-04-22T10:55:25Z</time></trkpt><trkpt lat="59.0975832939" lon="29.9981689453"><time>2026-04-22T10:55:28Z</time></trkpt><trkpt lat="59.0975832939" lon="29.9981689453"><time>2026-04-22T10:55:30Z</time></trkpt><trkpt lat="59.0975832939" lon="29.9981689453"><time>2026-04-22T10:55:33Z</time></trkpt><trkpt lat="59.0975832939" lon="29.9981689453"><time>2026-04-22T10:55:35Z</time></trkpt><trkpt lat="59.0975832939" lon="29.9981689453"><time>2026-04-22T10:55:38Z</time></trkpt><trkpt lat="59.0975832939" lon="29.9981689453"><time>2026-04-22T10:55:40Z</time></trkpt><trkpt lat="59.0975832939" lon="29.9981689453"><time>2026-04-22T10:55:43Z</time></trkpt><trkpt lat="59.0975832939" lon="29.9981689453"><time>2026-04-22T10:55:45Z</time></trkpt><trkpt lat="59.0975832939" lon="29.9981689453"><time>2026-04-22T10:55:48Z</time></trkpt><trkpt lat="59.0975832939" lon="29.9981689453"><time>2026-04-22T10:55:50Z</time></trkpt><trkpt lat="59.0975832939" lon="29.9981689453"><time>2026-04-22T10:55:53Z</time></trkpt><trkpt lat="59.0975832939" lon="29.9981689453"><time>2026-04-22T10:55:55Z</time></trkpt><trkpt lat="59.0975832939" lon="29.9981689453"><time>2026-04-22T10:55:58Z</time></trkpt><trkpt lat="59.0975832939" lon="29.9981689453"><time>2026-04-22T10:56:00Z</time></trkpt><trkpt lat="59.0975832939" lon="29.9981689453"><time>2026-04-22T10:56:03Z</time></trkpt><trkpt lat="59.0975832939" lon="29.9981689453"><time>2026-04-22T10:56:05Z</time></trkpt><trkpt lat="59.0975832939" lon="29.9981689453"><time>2026-04-22T10:56:08Z</time></trkpt><trkpt lat="59.0975832939" lon="29.9981689453"><time>2026-04-22T10:56:10Z</time></trkpt><trkpt lat="59.0975832939" lon="29.9981689453"><time>2026-04-22T10:56:13Z</time></trkpt><trkpt lat="59.0975832939" lon="29.9981689453"><time>2026-04-22T10:56:15Z</time></trkpt><trkpt lat="59.0975832939" lon="29.9981689453"><time>2026-04-22T10:56:18Z</time></trkpt><trkpt lat="59.0975832939" lon="29.9981689453"><time>2026-04-22T10:56:20Z</time></trkpt><trkpt lat="59.0975832939" lon="29.9981689453"><time>2026-04-22T10:56:23Z</time></trkpt><trkpt lat="59.0975832939" lon="29.9981689453"><time>2026-04-22T10:56:25Z</time></trkpt><trkpt lat="59.0975832939" lon="29.9981689453"><time>2026-04-22T10:56:28Z</time></trkpt><trkpt lat="59.0975832939" lon="29.9981689453"><time>2026-04-22T10:56:30Z</time></trkpt><trkpt lat="59.0975832939" lon="29.9981689453"><time>2026-04-22T10:56:33Z</time></trkpt><trkpt lat="59.0975832939" lon="29.9981689453"><time>2026-04-22T10:56:35Z</time></trkpt><trkpt lat="59.0975832939" lon="29.9981689453"><time>2026-04-22T10:56:38Z</time></trkpt><trkpt lat="59.0975832939" lon="29.9981689453"><time>2026-04-22T10:56:40Z</time></trkpt><trkpt lat="59.0975832939" lon="29.9981689453"><time>2026-04-22T10:56:43Z</time></trkpt><trkpt lat="59.0975832939" lon="29.9981689453"><time>2026-04-22T10:56:45Z</time></trkpt><trkpt lat="59.0975832939" lon="29.9981689453"><time>2026-04-22T10:56:48Z</time></trkpt><trkpt lat="59.0975832939" lon="29.9981689453"><time>2026-04-22T10:56:50Z</time></trkpt><trkpt lat="59.0975832939" lon="29.9981689453"><time>2026-04-22T10:56:53Z</time></trkpt><trkpt lat="59.0975832939" lon="29.9981689453"><time>2026-04-22T10:56:55Z</time></trkpt><trkpt lat="59.0975832939" lon="29.9981689453"><time>2026-04-22T10:56:58Z</time></trkpt><trkpt lat="59.0975832939" lon="29.9981689453"><time>2026-04-22T10:57:00Z</time></trkpt><trkpt lat="59.0975832939" lon="29.9981904030"><time>2026-04-22T10:57:03Z</time></trkpt><trkpt lat="59.0975832939" lon="29.9982118607"><time>2026-04-22T10:57:05Z</time></trkpt><trkpt lat="59.0975832939" lon="29.9981904030"><time>2026-04-22T10:57:08Z</time></trkpt><trkpt lat="59.0975832939" lon="29.9981689453"><time>2026-04-22T10:57:10Z</time></trkpt><trkpt lat="59.0975832939" lon="29.9981689453"><time>2026-04-22T10:57:13Z</time></trkpt><trkpt lat="59.0975832939" lon="29.9981689453"><time>2026-04-22T10:57:15Z</time></trkpt><trkpt lat="59.0975832939" lon="29.9981474876"><time>2026-04-22T10:57:18Z</time></trkpt><trkpt lat="59.0975832939" lon="29.9981474876"><time>2026-04-22T10:57:20Z</time></trkpt><trkpt lat="59.0975832939" lon="29.9981474876"><time>2026-04-22T10:57:23Z</time></trkpt><trkpt lat="59.0975832939" lon="29.9981904030"><time>2026-04-22T10:57:25Z</time></trkpt><trkpt lat="59.0975832939" lon="29.9982118607"><time>2026-04-22T10:57:28Z</time></trkpt><trkpt lat="59.0975618362" lon="29.9982333183"><time>2026-04-22T10:57:30Z</time></trkpt><trkpt lat="59.0975618362" lon="29.9982547760"><time>2026-04-22T10:57:33Z</time></trkpt><trkpt lat="59.0975618362" lon="29.9982762337"><time>2026-04-22T10:57:35Z</time></trkpt><trkpt lat="59.0975618362" lon="29.9982762337"><time>2026-04-22T10:57:38Z</time></trkpt><trkpt lat="59.0975618362" lon="29.9982762337"><time>2026-04-22T10:57:40Z</time></trkpt><trkpt lat="59.0975403786" lon="29.9982762337"><time>2026-04-22T10:57:43Z</time></trkpt><trkpt lat="59.0975189209" lon="29.9982976913"><time>2026-04-22T10:57:45Z</time></trkpt><trkpt lat="59.0975403786" lon="29.9983191490"><time>2026-04-22T10:57:48Z</time></trkpt><trkpt lat="59.0975189209" lon="29.9983406067"><time>2026-04-22T10:57:50Z</time></trkpt><trkpt lat="59.0975403786" lon="29.9983620644"><time>2026-04-22T10:57:53Z</time></trkpt><trkpt lat="59.0975403786" lon="29.9983406067"><time>2026-04-22T10:57:55Z</time></trkpt><trkpt lat="59.0975403786" lon="29.9983406067"><time>2026-04-22T10:57:58Z</time></trkpt><trkpt lat="59.0975403786" lon="29.9983406067"><time>2026-04-22T10:58:00Z</time></trkpt><trkpt lat="59.0975403786" lon="29.9983620644"><time>2026-04-22T10:58:03Z</time></trkpt><trkpt lat="59.0975618362" lon="29.9983406067"><time>2026-04-22T10:58:05Z</time></trkpt><trkpt lat="59.0975618362" lon="29.9983406067"><time>2026-04-22T10:58:08Z</time></trkpt><trkpt lat="59.0975618362" lon="29.9983406067"><time>2026-04-22T10:58:10Z</time></trkpt><trkpt lat="59.0975618362" lon="29.9983406067"><time>2026-04-22T10:58:13Z</time></trkpt><trkpt lat="59.0975403786" lon="29.9983620644"><time>2026-04-22T10:58:15Z</time></trkpt><trkpt lat="59.0975189209" lon="29.9983620644"><time>2026-04-22T10:58:18Z</time></trkpt><trkpt lat="59.0975189209" lon="29.9983620644"><time>2026-04-22T10:58:20Z</time></trkpt><trkpt lat="59.0975189209" lon="29.9983620644"><time>2026-04-22T10:58:23Z</time></trkpt><trkpt lat="59.0975403786" lon="29.9983191490"><time>2026-04-22T10:58:25Z</time></trkpt><trkpt lat="59.0975403786" lon="29.9983191490"><time>2026-04-22T10:58:28Z</time></trkpt><trkpt lat="59.0975189209" lon="29.9983406067"><time>2026-04-22T10:58:30Z</time></trkpt><trkpt lat="59.0975189209" lon="29.9983406067"><time>2026-04-22T10:58:33Z</time></trkpt><trkpt lat="59.0975189209" lon="29.9983406067"><time>2026-04-22T10:58:35Z</time></trkpt><trkpt lat="59.0975189209" lon="29.9983406067"><time>2026-04-22T10:58:38Z</time></trkpt><trkpt lat="59.0975189209" lon="29.9983406067"><time>2026-04-22T10:58:40Z</time></trkpt><trkpt lat="59.0975189209" lon="29.9983406067"><time>2026-04-22T10:58:43Z</time></trkpt><trkpt lat="59.0975189209" lon="29.9983406067"><time>2026-04-22T10:58:45Z</time></trkpt><trkpt lat="59.0975189209" lon="29.9983406067"><time>2026-04-22T10:58:48Z</time></trkpt><trkpt lat="59.0975189209" lon="29.9983191490"><time>2026-04-22T10:58:50Z</time></trkpt><trkpt lat="59.0975189209" lon="29.9983191490"><time>2026-04-22T10:58:53Z</time></trkpt><trkpt lat="59.0975189209" lon="29.9983191490"><time>2026-04-22T10:58:55Z</time></trkpt><trkpt lat="59.0975189209" lon="29.9983191490"><time>2026-04-22T10:58:58Z</time></trkpt><trkpt lat="59.0975189209" lon="29.9983191490"><time>2026-04-22T10:59:00Z</time></trkpt><trkpt lat="59.0975189209" lon="29.9983406067"><time>2026-04-22T10:59:03Z</time></trkpt><trkpt lat="59.0974760056" lon="29.9983191490"><time>2026-04-22T10:59:05Z</time></trkpt><trkpt lat="59.0974545479" lon="29.9983191490"><time>2026-04-22T10:59:08Z</time></trkpt><trkpt lat="59.0974330902" lon="29.9983406067"><time>2026-04-22T10:59:10Z</time></trkpt><trkpt lat="59.0974116325" lon="29.9984049797"><time>2026-04-22T10:59:13Z</time></trkpt><trkpt lat="59.0974116325" lon="29.9984264374"><time>2026-04-22T10:59:15Z</time></trkpt><trkpt lat="59.0974116325" lon="29.9984264374"><time>2026-04-22T10:59:18Z</time></trkpt><trkpt lat="59.0974116325" lon="29.9984264374"><time>2026-04-22T10:59:20Z</time></trkpt><trkpt lat="59.0974116325" lon="29.9984049797"><time>2026-04-22T10:59:23Z</time></trkpt><trkpt lat="59.0974116325" lon="29.9983620644"><time>2026-04-22T10:59:25Z</time></trkpt><trkpt lat="59.0973901749" lon="29.9983406067"><time>2026-04-22T10:59:28Z</time></trkpt><trkpt lat="59.0973901749" lon="29.9983406067"><time>2026-04-22T10:59:30Z</time></trkpt><trkpt lat="59.0973687172" lon="29.9983620644"><time>2026-04-22T10:59:33Z</time></trkpt><trkpt lat="59.0973258018" lon="29.9984264374"><time>2026-04-22T10:59:35Z</time></trkpt><trkpt lat="59.0973258018" lon="29.9984478951"><time>2026-04-22T10:59:38Z</time></trkpt><trkpt lat="59.0973258018" lon="29.9984478951"><time>2026-04-22T10:59:40Z</time></trkpt><trkpt lat="59.0972828865" lon="29.9984478951"><time>2026-04-22T10:59:43Z</time></trkpt><trkpt lat="59.0972614288" lon="29.9984693527"><time>2026-04-22T10:59:45Z</time></trkpt><trkpt lat="59.0972399712" lon="29.9984693527"><time>2026-04-22T10:59:48Z</time></trkpt><trkpt lat="59.0972185135" lon="29.9984693527"><time>2026-04-22T10:59:50Z</time></trkpt><trkpt lat="59.0971970558" lon="29.9984478951"><time>2026-04-22T10:59:53Z</time></trkpt><trkpt lat="59.0971755981" lon="29.9984478951"><time>2026-04-22T10:59:58Z</time></trkpt><trkpt lat="59.0971541405" lon="29.9985122681"><time>2026-04-22T11:00:00Z</time></trkpt><trkpt lat="59.0971112251" lon="29.9985766411"><time>2026-04-22T11:00:03Z</time></trkpt><trkpt lat="59.0970897675" lon="29.9986195564"><time>2026-04-22T11:00:05Z</time></trkpt><trkpt lat="59.0970683098" lon="29.9986410141"><time>2026-04-22T11:00:08Z</time></trkpt><trkpt lat="59.0970683098" lon="29.9986410141"><time>2026-04-22T11:00:10Z</time></trkpt><trkpt lat="59.0970683098" lon="29.9986410141"><time>2026-04-22T11:00:13Z</time></trkpt><trkpt lat="59.0970683098" lon="29.9986410141"><time>2026-04-22T11:00:15Z</time></trkpt><trkpt lat="59.0970683098" lon="29.9986839294"><time>2026-04-22T11:00:18Z</time></trkpt><trkpt lat="59.0970683098" lon="29.9986839294"><time>2026-04-22T11:00:20Z</time></trkpt><trkpt lat="59.0970683098" lon="29.9987697601"><time>2026-04-22T11:00:23Z</time></trkpt><trkpt lat="59.0970683098" lon="29.9988341331"><time>2026-04-22T11:00:25Z</time></trkpt><trkpt lat="59.0970468521" lon="29.9989199638"><time>2026-04-22T11:00:28Z</time></trkpt><trkpt lat="59.0970897675" lon="29.9988985062"><time>2026-04-22T11:00:30Z</time></trkpt><trkpt lat="59.0971112251" lon="29.9988555908"><time>2026-04-22T11:00:33Z</time></trkpt><trkpt lat="59.0971112251" lon="29.9988555908"><time>2026-04-22T11:00:35Z</time></trkpt><trkpt lat="59.0971112251" lon="29.9988770485"><time>2026-04-22T11:00:38Z</time></trkpt><trkpt lat="59.0970897675" lon="29.9988985062"><time>2026-04-22T11:00:40Z</time></trkpt><trkpt lat="59.0971112251" lon="29.9989199638"><time>2026-04-22T11:00:43Z</time></trkpt><trkpt lat="59.0970897675" lon="29.9988985062"><time>2026-04-22T11:00:45Z</time></trkpt><trkpt lat="59.0970897675" lon="29.9988985062"><time>2026-04-22T11:00:48Z</time></trkpt><trkpt lat="59.0970253944" lon="29.9989199638"><time>2026-04-22T11:00:50Z</time></trkpt><trkpt lat="59.0969824791" lon="29.9989414215"><time>2026-04-22T11:00:53Z</time></trkpt><trkpt lat="59.0969181061" lon="29.9989199638"><time>2026-04-22T11:00:55Z</time></trkpt><trkpt lat="59.0968751907" lon="29.9989414215"><time>2026-04-22T11:00:58Z</time></trkpt><trkpt lat="59.0968322754" lon="29.9989628792"><time>2026-04-22T11:01:00Z</time></trkpt><trkpt lat="59.0968108177" lon="29.9989843369"><time>2026-04-22T11:01:03Z</time></trkpt><trkpt lat="59.0967893600" lon="29.9990487099"><time>2026-04-22T11:01:05Z</time></trkpt><trkpt lat="59.0967893600" lon="29.9991130829"><time>2026-04-22T11:01:08Z</time></trkpt><trkpt lat="59.0967893600" lon="29.9990916252"><time>2026-04-22T11:01:10Z</time></trkpt><trkpt lat="59.0967893600" lon="29.9990916252"><time>2026-04-22T11:01:13Z</time></trkpt><trkpt lat="59.0967893600" lon="29.9990916252"><time>2026-04-22T11:01:15Z</time></trkpt><trkpt lat="59.0967679024" lon="29.9990916252"><time>2026-04-22T11:01:18Z</time></trkpt><trkpt lat="59.0967679024" lon="29.9990916252"><time>2026-04-22T11:01:20Z</time></trkpt><trkpt lat="59.0967679024" lon="29.9990916252"><time>2026-04-22T11:01:23Z</time></trkpt><trkpt lat="59.0967679024" lon="29.9991345406"><time>2026-04-22T11:01:25Z</time></trkpt><trkpt lat="59.0967679024" lon="29.9991345406"><time>2026-04-22T11:01:28Z</time></trkpt><trkpt lat="59.0967679024" lon="29.9990916252"><time>2026-04-22T11:01:30Z</time></trkpt><trkpt lat="59.0967679024" lon="29.9990701675"><time>2026-04-22T11:01:33Z</time></trkpt><trkpt lat="59.0967464447" lon="29.9991130829"><time>2026-04-22T11:01:35Z</time></trkpt><trkpt lat="59.0967249870" lon="29.9991345406"><time>2026-04-22T11:01:38Z</time></trkpt><trkpt lat="59.0966820717" lon="29.9991774559"><time>2026-04-22T11:01:40Z</time></trkpt><trkpt lat="59.0966606140" lon="29.9992203712"><time>2026-04-22T11:01:43Z</time></trkpt><trkpt lat="59.0965962410" lon="29.9992203712"><time>2026-04-22T11:01:45Z</time></trkpt><trkpt lat="59.0965747833" lon="29.9992203712"><time>2026-04-22T11:01:48Z</time></trkpt><trkpt lat="59.0965747833" lon="29.9992203712"><time>2026-04-22T11:01:50Z</time></trkpt><trkpt lat="59.0965747833" lon="29.9992203712"><time>2026-04-22T11:01:53Z</time></trkpt><trkpt lat="59.0965747833" lon="29.9992418289"><time>2026-04-22T11:01:55Z</time></trkpt><trkpt lat="59.0966176987" lon="29.9992847443"><time>2026-04-22T11:01:58Z</time></trkpt><trkpt lat="59.0966176987" lon="29.9993920326"><time>2026-04-22T11:02:00Z</time></trkpt><trkpt lat="59.0966176987" lon="29.9994349480"><time>2026-04-22T11:02:03Z</time></trkpt><trkpt lat="59.0966176987" lon="29.9994778633"><time>2026-04-22T11:02:05Z</time></trkpt><trkpt lat="59.0965962410" lon="29.9995207787"><time>2026-04-22T11:02:08Z</time></trkpt><trkpt lat="59.0965747833" lon="29.9995636940"><time>2026-04-22T11:02:10Z</time></trkpt><trkpt lat="59.0965747833" lon="29.9995636940"><time>2026-04-22T11:02:13Z</time></trkpt><trkpt lat="59.0965747833" lon="29.9995636940"><time>2026-04-22T11:02:15Z</time></trkpt><trkpt lat="59.0965747833" lon="29.9995636940"><time>2026-04-22T11:02:18Z</time></trkpt><trkpt lat="59.0965747833" lon="29.9995636940"><time>2026-04-22T11:02:20Z</time></trkpt><trkpt lat="59.0965747833" lon="29.9995636940"><time>2026-04-22T11:02:23Z</time></trkpt><trkpt lat="59.0965533257" lon="29.9995207787"><time>2026-04-22T11:02:25Z</time></trkpt><trkpt lat="59.0965533257" lon="29.9995207787"><time>2026-04-22T11:02:28Z</time></trkpt><trkpt lat="59.0965533257" lon="29.9995207787"><time>2026-04-22T11:02:30Z</time></trkpt><trkpt lat="59.0965533257" lon="29.9995207787"><time>2026-04-22T11:02:33Z</time></trkpt><trkpt lat="59.0965533257" lon="29.9995207787"><time>2026-04-22T11:02:35Z</time></trkpt><trkpt lat="59.0965533257" lon="29.9995207787"><time>2026-04-22T11:02:38Z</time></trkpt><trkpt lat="59.0965533257" lon="29.9995422363"><time>2026-04-22T11:02:40Z</time></trkpt><trkpt lat="59.0965318680" lon="29.9995636940"><time>2026-04-22T11:02:43Z</time></trkpt><trkpt lat="59.0965318680" lon="29.9995636940"><time>2026-04-22T11:02:45Z</time></trkpt><trkpt lat="59.0965318680" lon="29.9995636940"><time>2026-04-22T11:02:48Z</time></trkpt><trkpt lat="59.0965318680" lon="29.9995636940"><time>2026-04-22T11:02:50Z</time></trkpt><trkpt lat="59.0965104103" lon="29.9995851517"><time>2026-04-22T11:02:53Z</time></trkpt><trkpt lat="59.0964889526" lon="29.9996066093"><time>2026-04-22T11:02:55Z</time></trkpt><trkpt lat="59.0964674950" lon="29.9995851517"><time>2026-04-22T11:02:58Z</time></trkpt><trkpt lat="59.0964245796" lon="29.9995851517"><time>2026-04-22T11:03:00Z</time></trkpt><trkpt lat="59.0964245796" lon="29.9995851517"><time>2026-04-22T11:03:03Z</time></trkpt><trkpt lat="59.0964031219" lon="29.9995207787"><time>2026-04-22T11:03:05Z</time></trkpt><trkpt lat="59.0964031219" lon="29.9995207787"><time>2026-04-22T11:03:08Z</time></trkpt><trkpt lat="59.0963816643" lon="29.9995207787"><time>2026-04-22T11:03:10Z</time></trkpt><trkpt lat="59.0963602066" lon="29.9995207787"><time>2026-04-22T11:03:13Z</time></trkpt><trkpt lat="59.0963387489" lon="29.9994778633"><time>2026-04-22T11:03:15Z</time></trkpt><trkpt lat="59.0962958336" lon="29.9994349480"><time>2026-04-22T11:03:18Z</time></trkpt><trkpt lat="59.0962958336" lon="29.9994134903"><time>2026-04-22T11:03:20Z</time></trkpt><trkpt lat="59.0962958336" lon="29.9994134903"><time>2026-04-22T11:03:23Z</time></trkpt><trkpt lat="59.0962743759" lon="29.9994134903"><time>2026-04-22T11:03:25Z</time></trkpt><trkpt lat="59.0962743759" lon="29.9994564056"><time>2026-04-22T11:03:28Z</time></trkpt><trkpt lat="59.0962529182" lon="29.9994778633"><time>2026-04-22T11:03:30Z</time></trkpt><trkpt lat="59.0962314606" lon="29.9994993210"><time>2026-04-22T11:03:33Z</time></trkpt><trkpt lat="59.0961885452" lon="29.9994993210"><time>2026-04-22T11:03:35Z</time></trkpt><trkpt lat="59.0961456299" lon="29.9994993210"><time>2026-04-22T11:03:38Z</time></trkpt><trkpt lat="59.0961241722" lon="29.9995422363"><time>2026-04-22T11:03:40Z</time></trkpt><trkpt lat="59.0961027145" lon="29.9995636940"><time>2026-04-22T11:03:43Z</time></trkpt><trkpt lat="59.0960812569" lon="29.9995851517"><time>2026-04-22T11:03:45Z</time></trkpt><trkpt lat="59.0960812569" lon="29.9995851517"><time>2026-04-22T11:03:48Z</time></trkpt><trkpt lat="59.0960812569" lon="29.9995422363"><time>2026-04-22T11:03:50Z</time></trkpt><trkpt lat="59.0960597992" lon="29.9995207787"><time>2026-04-22T11:03:53Z</time></trkpt><trkpt lat="59.0960597992" lon="29.9994778633"><time>2026-04-22T11:03:55Z</time></trkpt><trkpt lat="59.0960383415" lon="29.9994349480"><time>2026-04-22T11:03:58Z</time></trkpt><trkpt lat="59.0959954262" lon="29.9994134903"><time>2026-04-22T11:04:00Z</time></trkpt><trkpt lat="59.0959954262" lon="29.9994134903"><time>2026-04-22T11:04:03Z</time></trkpt><trkpt lat="59.0959954262" lon="29.9994134903"><time>2026-04-22T11:04:05Z</time></trkpt><trkpt lat="59.0959954262" lon="29.9994134903"><time>2026-04-22T11:04:08Z</time></trkpt><trkpt lat="59.0959739685" lon="29.9994134903"><time>2026-04-22T11:04:10Z</time></trkpt><trkpt lat="59.0959525108" lon="29.9993920326"><time>2026-04-22T11:04:13Z</time></trkpt><trkpt lat="59.0959095955" lon="29.9993491173"><time>2026-04-22T11:04:15Z</time></trkpt><trkpt lat="59.0958666801" lon="29.9993276596"><time>2026-04-22T11:04:18Z</time></trkpt><trkpt lat="59.0958237648" lon="29.9993062019"><time>2026-04-22T11:04:20Z</time></trkpt><trkpt lat="59.0958023071" lon="29.9992847443"><time>2026-04-22T11:04:23Z</time></trkpt><trkpt lat="59.0957593918" lon="29.9992203712"><time>2026-04-22T11:04:25Z</time></trkpt><trkpt lat="59.0957379341" lon="29.9991559982"><time>2026-04-22T11:04:28Z</time></trkpt><trkpt lat="59.0957379341" lon="29.9991559982"><time>2026-04-22T11:04:30Z</time></trkpt><trkpt lat="59.0957164764" lon="29.9991559982"><time>2026-04-22T11:04:33Z</time></trkpt><trkpt lat="59.0957164764" lon="29.9991559982"><time>2026-04-22T11:04:35Z</time></trkpt><trkpt lat="59.0957164764" lon="29.9991559982"><time>2026-04-22T11:04:38Z</time></trkpt><trkpt lat="59.0957164764" lon="29.9991559982"><time>2026-04-22T11:04:40Z</time></trkpt><trkpt lat="59.0957164764" lon="29.9991559982"><time>2026-04-22T11:04:43Z</time></trkpt><trkpt lat="59.0957164764" lon="29.9991559982"><time>2026-04-22T11:04:45Z</time></trkpt><trkpt lat="59.0957164764" lon="29.9991559982"><time>2026-04-22T11:04:48Z</time></trkpt><trkpt lat="59.0957164764" lon="29.9991559982"><time>2026-04-22T11:04:50Z</time></trkpt><trkpt lat="59.0957164764" lon="29.9991559982"><time>2026-04-22T11:04:53Z</time></trkpt><trkpt lat="59.0957164764" lon="29.9991559982"><time>2026-04-22T11:04:55Z</time></trkpt><trkpt lat="59.0957164764" lon="29.9991559982"><time>2026-04-22T11:04:58Z</time></trkpt><trkpt lat="59.0957164764" lon="29.9991559982"><time>2026-04-22T11:05:00Z</time></trkpt><trkpt lat="59.0957164764" lon="29.9991559982"><time>2026-04-22T11:05:03Z</time></trkpt><trkpt lat="59.0956950188" lon="29.9991345406"><time>2026-04-22T11:05:05Z</time></trkpt><trkpt lat="59.0956521034" lon="29.9991774559"><time>2026-04-22T11:05:08Z</time></trkpt><trkpt lat="59.0956521034" lon="29.9992418289"><time>2026-04-22T11:05:10Z</time></trkpt><trkpt lat="59.0956735611" lon="29.9992632866"><time>2026-04-22T11:05:13Z</time></trkpt><trkpt lat="59.0956521034" lon="29.9993705750"><time>2026-04-22T11:05:15Z</time></trkpt><trkpt lat="59.0956521034" lon="29.9994349480"><time>2026-04-22T11:05:18Z</time></trkpt><trkpt lat="59.0956521034" lon="29.9996280670"><time>2026-04-22T11:05:20Z</time></trkpt><trkpt lat="59.0956521034" lon="29.9997353554"><time>2026-04-22T11:05:23Z</time></trkpt><trkpt lat="59.0956735611" lon="29.9997997284"><time>2026-04-22T11:05:25Z</time></trkpt><trkpt lat="59.0956950188" lon="29.9997997284"><time>2026-04-22T11:05:28Z</time></trkpt><trkpt lat="59.0956950188" lon="29.9997997284"><time>2026-04-22T11:05:30Z</time></trkpt><trkpt lat="59.0956950188" lon="29.9997997284"><time>2026-04-22T11:05:33Z</time></trkpt><trkpt lat="59.0956950188" lon="29.9997997284"><time>2026-04-22T11:05:38Z</time></trkpt><trkpt lat="59.0956735611" lon="29.9998641014"><time>2026-04-22T11:05:40Z</time></trkpt><trkpt lat="59.0956521034" lon="29.9999070168"><time>2026-04-22T11:05:43Z</time></trkpt><trkpt lat="59.0956735611" lon="29.9999284744"><time>2026-04-22T11:05:45Z</time></trkpt><trkpt lat="59.0956521034" lon="29.9999713898"><time>2026-04-22T11:05:48Z</time></trkpt><trkpt lat="59.0956091881" lon="30.0000786781"><time>2026-04-22T11:05:50Z</time></trkpt><trkpt lat="59.0956091881" lon="30.0001430511"><time>2026-04-22T11:05:53Z</time></trkpt><trkpt lat="59.0955877304" lon="30.0001859665"><time>2026-04-22T11:05:55Z</time></trkpt><trkpt lat="59.0955877304" lon="30.0002503395"><time>2026-04-22T11:05:58Z</time></trkpt><trkpt lat="59.0955662727" lon="30.0003361702"><time>2026-04-22T11:06:00Z</time></trkpt><trkpt lat="59.0955233574" lon="30.0003790855"><time>2026-04-22T11:06:03Z</time></trkpt><trkpt lat="59.0955018997" lon="30.0003790855"><time>2026-04-22T11:06:05Z</time></trkpt><trkpt lat="59.0954804420" lon="30.0003576279"><time>2026-04-22T11:06:08Z</time></trkpt><trkpt lat="59.0954375267" lon="30.0003576279"><time>2026-04-22T11:06:10Z</time></trkpt><trkpt lat="59.0953946114" lon="30.0003790855"><time>2026-04-22T11:06:13Z</time></trkpt><trkpt lat="59.0954160690" lon="30.0004005432"><time>2026-04-22T11:06:15Z</time></trkpt><trkpt lat="59.0954160690" lon="30.0004005432"><time>2026-04-22T11:06:18Z</time></trkpt><trkpt lat="59.0954160690" lon="30.0004863739"><time>2026-04-22T11:06:20Z</time></trkpt><trkpt lat="59.0954160690" lon="30.0005292892"><time>2026-04-22T11:06:23Z</time></trkpt><trkpt lat="59.0954375267" lon="30.0005936623"><time>2026-04-22T11:06:25Z</time></trkpt><trkpt lat="59.0954589844" lon="30.0006365776"><time>2026-04-22T11:06:28Z</time></trkpt><trkpt lat="59.0954804420" lon="30.0006580353"><time>2026-04-22T11:06:30Z</time></trkpt><trkpt lat="59.0955018997" lon="30.0006365776"><time>2026-04-22T11:06:33Z</time></trkpt><trkpt lat="59.0954804420" lon="30.0005722046"><time>2026-04-22T11:06:35Z</time></trkpt><trkpt lat="59.0954804420" lon="30.0005078316"><time>2026-04-22T11:06:38Z</time></trkpt><trkpt lat="59.0954375267" lon="30.0004220009"><time>2026-04-22T11:06:40Z</time></trkpt><trkpt lat="59.0953946114" lon="30.0003790855"><time>2026-04-22T11:06:43Z</time></trkpt><trkpt lat="59.0953516960" lon="30.0003576279"><time>2026-04-22T11:06:45Z</time></trkpt><trkpt lat="59.0953302383" lon="30.0003147125"><time>2026-04-22T11:06:48Z</time></trkpt><trkpt lat="59.0952658653" lon="30.0002717972"><time>2026-04-22T11:06:50Z</time></trkpt><trkpt lat="59.0952444077" lon="30.0002932549"><time>2026-04-22T11:06:53Z</time></trkpt><trkpt lat="59.0952014923" lon="30.0003576279"><time>2026-04-22T11:06:55Z</time></trkpt><trkpt lat="59.0951800346" lon="30.0004005432"><time>2026-04-22T11:06:58Z</time></trkpt><trkpt lat="59.0951585770" lon="30.0004005432"><time>2026-04-22T11:07:00Z</time></trkpt><trkpt lat="59.0951585770" lon="30.0004005432"><time>2026-04-22T11:07:03Z</time></trkpt><trkpt lat="59.0951585770" lon="30.0004005432"><time>2026-04-22T11:07:05Z</time></trkpt><trkpt lat="59.0951585770" lon="30.0004005432"><time>2026-04-22T11:07:08Z</time></trkpt><trkpt lat="59.0951585770" lon="30.0004220009"><time>2026-04-22T11:07:10Z</time></trkpt><trkpt lat="59.0951585770" lon="30.0004220009"><time>2026-04-22T11:07:13Z</time></trkpt><trkpt lat="59.0951585770" lon="30.0004220009"><time>2026-04-22T11:07:15Z</time></trkpt><trkpt lat="59.0951585770" lon="30.0004220009"><time>2026-04-22T11:07:18Z</time></trkpt><trkpt lat="59.0951585770" lon="30.0004220009"><time>2026-04-22T11:07:20Z</time></trkpt><trkpt lat="59.0951585770" lon="30.0004220009"><time>2026-04-22T11:07:23Z</time></trkpt><trkpt lat="59.0951585770" lon="30.0004220009"><time>2026-04-22T11:07:25Z</time></trkpt><trkpt lat="59.0951585770" lon="30.0004220009"><time>2026-04-22T11:07:28Z</time></trkpt><trkpt lat="59.0951585770" lon="30.0004220009"><time>2026-04-22T11:07:30Z</time></trkpt><trkpt lat="59.0951585770" lon="30.0003790855"><time>2026-04-22T11:07:33Z</time></trkpt><trkpt lat="59.0951800346" lon="30.0003361702"><time>2026-04-22T11:07:35Z</time></trkpt><trkpt lat="59.0951800346" lon="30.0003361702"><time>2026-04-22T11:07:38Z</time></trkpt><trkpt lat="59.0952014923" lon="30.0003147125"><time>2026-04-22T11:07:40Z</time></trkpt><trkpt lat="59.0952229500" lon="30.0002503395"><time>2026-04-22T11:07:43Z</time></trkpt><trkpt lat="59.0952229500" lon="30.0002503395"><time>2026-04-22T11:07:45Z</time></trkpt><trkpt lat="59.0952229500" lon="30.0002503395"><time>2026-04-22T11:07:48Z</time></trkpt><trkpt lat="59.0952229500" lon="30.0002503395"><time>2026-04-22T11:07:50Z</time></trkpt><trkpt lat="59.0952229500" lon="30.0002503395"><time>2026-04-22T11:07:53Z</time></trkpt><trkpt lat="59.0952229500" lon="30.0002503395"><time>2026-04-22T11:07:55Z</time></trkpt><trkpt lat="59.0952229500" lon="30.0002503395"><time>2026-04-22T11:07:58Z</time></trkpt><trkpt lat="59.0952229500" lon="30.0002503395"><time>2026-04-22T11:08:00Z</time></trkpt><trkpt lat="59.0952229500" lon="30.0002503395"><time>2026-04-22T11:08:03Z</time></trkpt><trkpt lat="59.0952229500" lon="30.0002503395"><time>2026-04-22T11:08:05Z</time></trkpt><trkpt lat="59.0952229500" lon="30.0002503395"><time>2026-04-22T11:08:08Z</time></trkpt><trkpt lat="59.0952229500" lon="30.0002503395"><time>2026-04-22T11:08:10Z</time></trkpt><trkpt lat="59.0952229500" lon="30.0002503395"><time>2026-04-22T11:08:13Z</time></trkpt><trkpt lat="59.0952229500" lon="30.0002503395"><time>2026-04-22T11:08:15Z</time></trkpt><trkpt lat="59.0952229500" lon="30.0002503395"><time>2026-04-22T11:08:18Z</time></trkpt><trkpt lat="59.0952229500" lon="30.0002503395"><time>2026-04-22T11:08:20Z</time></trkpt><trkpt lat="59.0952229500" lon="30.0002503395"><time>2026-04-22T11:08:23Z</time></trkpt><trkpt lat="59.0952229500" lon="30.0002503395"><time>2026-04-22T11:08:25Z</time></trkpt><trkpt lat="59.0952229500" lon="30.0002503395"><time>2026-04-22T11:08:28Z</time></trkpt><trkpt lat="59.0952229500" lon="30.0002503395"><time>2026-04-22T11:08:30Z</time></trkpt><trkpt lat="59.0952229500" lon="30.0002503395"><time>2026-04-22T11:08:33Z</time></trkpt><trkpt lat="59.0952229500" lon="30.0002074242"><time>2026-04-22T11:08:35Z</time></trkpt><trkpt lat="59.0952229500" lon="30.0002074242"><time>2026-04-22T11:08:38Z</time></trkpt><trkpt lat="59.0952229500" lon="30.0002074242"><time>2026-04-22T11:08:40Z</time></trkpt><trkpt lat="59.0952229500" lon="30.0002074242"><time>2026-04-22T11:08:43Z</time></trkpt><trkpt lat="59.0952229500" lon="30.0002074242"><time>2026-04-22T11:08:45Z</time></trkpt><trkpt lat="59.0952229500" lon="30.0002074242"><time>2026-04-22T11:08:48Z</time></trkpt><trkpt lat="59.0952658653" lon="30.0001215935"><time>2026-04-22T11:08:50Z</time></trkpt><trkpt lat="59.0953087807" lon="30.0000572205"><time>2026-04-22T11:08:53Z</time></trkpt><trkpt lat="59.0953087807" lon="30.0000357628"><time>2026-04-22T11:08:55Z</time></trkpt><trkpt lat="59.0953087807" lon="30.0000357628"><time>2026-04-22T11:08:58Z</time></trkpt><trkpt lat="59.0952658653" lon="29.9999928474"><time>2026-04-22T11:09:00Z</time></trkpt><trkpt lat="59.0952014923" lon="29.9999284744"><time>2026-04-22T11:09:03Z</time></trkpt><trkpt lat="59.0951800346" lon="29.9998641014"><time>2026-04-22T11:09:05Z</time></trkpt><trkpt lat="59.0951585770" lon="29.9998641014"><time>2026-04-22T11:09:08Z</time></trkpt><trkpt lat="59.0951371193" lon="29.9999070168"><time>2026-04-22T11:09:10Z</time></trkpt><trkpt lat="59.0951371193" lon="29.9999070168"><time>2026-04-22T11:09:13Z</time></trkpt><trkpt lat="59.0951156616" lon="29.9998855591"><time>2026-04-22T11:09:15Z</time></trkpt><trkpt lat="59.0951156616" lon="29.9997997284"><time>2026-04-22T11:09:18Z</time></trkpt><trkpt lat="59.0951156616" lon="29.9996495247"><time>2026-04-22T11:09:20Z</time></trkpt><trkpt lat="59.0951371193" lon="29.9995422363"><time>2026-04-22T11:09:23Z</time></trkpt><trkpt lat="59.0951156616" lon="29.9994564056"><time>2026-04-22T11:09:25Z</time></trkpt><trkpt lat="59.0950942039" lon="29.9994564056"><time>2026-04-22T11:09:28Z</time></trkpt><trkpt lat="59.0950727463" lon="29.9994349480"><time>2026-04-22T11:09:30Z</time></trkpt><trkpt lat="59.0950512886" lon="29.9994134903"><time>2026-04-22T11:09:33Z</time></trkpt><trkpt lat="59.0950083733" lon="29.9993491173"><time>2026-04-22T11:09:35Z</time></trkpt><trkpt lat="59.0949869156" lon="29.9993491173"><time>2026-04-22T11:09:38Z</time></trkpt><trkpt lat="59.0949869156" lon="29.9993491173"><time>2026-04-22T11:09:40Z</time></trkpt><trkpt lat="59.0950083733" lon="29.9993920326"><time>2026-04-22T11:09:43Z</time></trkpt><trkpt lat="59.0950512886" lon="29.9994349480"><time>2026-04-22T11:09:45Z</time></trkpt><trkpt lat="59.0950512886" lon="29.9994349480"><time>2026-04-22T11:09:48Z</time></trkpt><trkpt lat="59.0950512886" lon="29.9994349480"><time>2026-04-22T11:09:50Z</time></trkpt><trkpt lat="59.0950512886" lon="29.9994349480"><time>2026-04-22T11:09:53Z</time></trkpt><trkpt lat="59.0950512886" lon="29.9994349480"><time>2026-04-22T11:09:55Z</time></trkpt><trkpt lat="59.0950512886" lon="29.9994349480"><time>2026-04-22T11:09:58Z</time></trkpt><trkpt lat="59.0950512886" lon="29.9994349480"><time>2026-04-22T11:10:00Z</time></trkpt><trkpt lat="59.0950512886" lon="29.9994349480"><time>2026-04-22T11:10:03Z</time></trkpt><trkpt lat="59.0950512886" lon="29.9994349480"><time>2026-04-22T11:10:05Z</time></trkpt><trkpt lat="59.0950512886" lon="29.9994349480"><time>2026-04-22T11:10:08Z</time></trkpt><trkpt lat="59.0950512886" lon="29.9994349480"><time>2026-04-22T11:10:10Z</time></trkpt><trkpt lat="59.0950512886" lon="29.9994349480"><time>2026-04-22T11:10:13Z</time></trkpt><trkpt lat="59.0950512886" lon="29.9993062019"><time>2026-04-22T11:10:15Z</time></trkpt><trkpt lat="59.0950298309" lon="29.9992632866"><time>2026-04-22T11:10:18Z</time></trkpt><trkpt lat="59.0950298309" lon="29.9991989136"><time>2026-04-22T11:10:20Z</time></trkpt><trkpt lat="59.0950298309" lon="29.9991345406"><time>2026-04-22T11:10:23Z</time></trkpt><trkpt lat="59.0949654579" lon="29.9990916252"><time>2026-04-22T11:10:25Z</time></trkpt><trkpt lat="59.0949654579" lon="29.9991345406"><time>2026-04-22T11:10:28Z</time></trkpt><trkpt lat="59.0949225426" lon="29.9991989136"><time>2026-04-22T11:10:30Z</time></trkpt><trkpt lat="59.0948796272" lon="29.9992203712"><time>2026-04-22T11:10:33Z</time></trkpt><trkpt lat="59.0948367119" lon="29.9992418289"><time>2026-04-22T11:10:35Z</time></trkpt><trkpt lat="59.0948152542" lon="29.9992203712"><time>2026-04-22T11:10:38Z</time></trkpt><trkpt lat="59.0948152542" lon="29.9991989136"><time>2026-04-22T11:10:40Z</time></trkpt><trkpt lat="59.0948367119" lon="29.9991989136"><time>2026-04-22T11:10:43Z</time></trkpt><trkpt lat="59.0948796272" lon="29.9992632866"><time>2026-04-22T11:10:45Z</time></trkpt><trkpt lat="59.0949010849" lon="29.9992847443"><time>2026-04-22T11:10:48Z</time></trkpt><trkpt lat="59.0949225426" lon="29.9992632866"><time>2026-04-22T11:10:50Z</time></trkpt><trkpt lat="59.0949225426" lon="29.9992632866"><time>2026-04-22T11:10:53Z</time></trkpt><trkpt lat="59.0949225426" lon="29.9992632866"><time>2026-04-22T11:10:55Z</time></trkpt><trkpt lat="59.0949225426" lon="29.9992632866"><time>2026-04-22T11:10:58Z</time></trkpt><trkpt lat="59.0949225426" lon="29.9992847443"><time>2026-04-22T11:11:00Z</time></trkpt><trkpt lat="59.0949225426" lon="29.9992847443"><time>2026-04-22T11:11:03Z</time></trkpt><trkpt lat="59.0949225426" lon="29.9992847443"><time>2026-04-22T11:11:05Z</time></trkpt><trkpt lat="59.0949440002" lon="29.9992632866"><time>2026-04-22T11:11:08Z</time></trkpt><trkpt lat="59.0949654579" lon="29.9992632866"><time>2026-04-22T11:11:10Z</time></trkpt><trkpt lat="59.0950083733" lon="29.9992418289"><time>2026-04-22T11:11:13Z</time></trkpt><trkpt lat="59.0950298309" lon="29.9991559982"><time>2026-04-22T11:11:15Z</time></trkpt><trkpt lat="59.0950512886" lon="29.9991130829"><time>2026-04-22T11:11:18Z</time></trkpt><trkpt lat="59.0950942039" lon="29.9990487099"><time>2026-04-22T11:11:20Z</time></trkpt><trkpt lat="59.0951156616" lon="29.9990057945"><time>2026-04-22T11:11:23Z</time></trkpt><trkpt lat="59.0951585770" lon="29.9989199638"><time>2026-04-22T11:11:25Z</time></trkpt><trkpt lat="59.0951800346" lon="29.9988985062"><time>2026-04-22T11:11:28Z</time></trkpt><trkpt lat="59.0952229500" lon="29.9988126755"><time>2026-04-22T11:11:30Z</time></trkpt><trkpt lat="59.0952229500" lon="29.9987268448"><time>2026-04-22T11:11:33Z</time></trkpt><trkpt lat="59.0952658653" lon="29.9987053871"><time>2026-04-22T11:11:35Z</time></trkpt><trkpt lat="59.0953087807" lon="29.9986624718"><time>2026-04-22T11:11:38Z</time></trkpt><trkpt lat="59.0953946114" lon="29.9985337257"><time>2026-04-22T11:11:40Z</time></trkpt><trkpt lat="59.0954375267" lon="29.9984693527"><time>2026-04-22T11:11:43Z</time></trkpt><trkpt lat="59.0954804420" lon="29.9984049797"><time>2026-04-22T11:11:45Z</time></trkpt><trkpt lat="59.0955018997" lon="29.9983835220"><time>2026-04-22T11:11:48Z</time></trkpt><trkpt lat="59.0955018997" lon="29.9983835220"><time>2026-04-22T11:11:50Z</time></trkpt><trkpt lat="59.0955018997" lon="29.9983835220"><time>2026-04-22T11:11:53Z</time></trkpt><trkpt lat="59.0955018997" lon="29.9983835220"><time>2026-04-22T11:11:55Z</time></trkpt><trkpt lat="59.0955018997" lon="29.9983835220"><time>2026-04-22T11:11:58Z</time></trkpt><trkpt lat="59.0955018997" lon="29.9983835220"><time>2026-04-22T11:12:00Z</time></trkpt><trkpt lat="59.0955018997" lon="29.9983835220"><time>2026-04-22T11:12:03Z</time></trkpt><trkpt lat="59.0955018997" lon="29.9983835220"><time>2026-04-22T11:12:05Z</time></trkpt><trkpt lat="59.0955233574" lon="29.9983835220"><time>2026-04-22T11:12:08Z</time></trkpt><trkpt lat="59.0955448151" lon="29.9983406067"><time>2026-04-22T11:12:10Z</time></trkpt><trkpt lat="59.0955448151" lon="29.9983191490"><time>2026-04-22T11:12:13Z</time></trkpt><trkpt lat="59.0955448151" lon="29.9983191490"><time>2026-04-22T11:12:15Z</time></trkpt><trkpt lat="59.0955448151" lon="29.9982762337"><time>2026-04-22T11:12:18Z</time></trkpt><trkpt lat="59.0955018997" lon="29.9982118607"><time>2026-04-22T11:12:20Z</time></trkpt><trkpt lat="59.0955233574" lon="29.9981904030"><time>2026-04-22T11:12:23Z</time></trkpt><trkpt lat="59.0955448151" lon="29.9982333183"><time>2026-04-22T11:12:25Z</time></trkpt><trkpt lat="59.0955448151" lon="29.9982762337"><time>2026-04-22T11:12:28Z</time></trkpt><trkpt lat="59.0955662727" lon="29.9982976913"><time>2026-04-22T11:12:30Z</time></trkpt><trkpt lat="59.0956091881" lon="29.9982976913"><time>2026-04-22T11:12:33Z</time></trkpt><trkpt lat="59.0956306458" lon="29.9982976913"><time>2026-04-22T11:12:35Z</time></trkpt><trkpt lat="59.0956306458" lon="29.9982976913"><time>2026-04-22T11:12:38Z</time></trkpt><trkpt lat="59.0956306458" lon="29.9982976913"><time>2026-04-22T11:12:40Z</time></trkpt><trkpt lat="59.0956521034" lon="29.9983406067"><time>2026-04-22T11:12:43Z</time></trkpt><trkpt lat="59.0956735611" lon="29.9983620644"><time>2026-04-22T11:12:45Z</time></trkpt><trkpt lat="59.0956950188" lon="29.9984049797"><time>2026-04-22T11:12:48Z</time></trkpt><trkpt lat="59.0957379341" lon="29.9984264374"><time>2026-04-22T11:12:50Z</time></trkpt><trkpt lat="59.0957593918" lon="29.9983835220"><time>2026-04-22T11:12:53Z</time></trkpt><trkpt lat="59.0958023071" lon="29.9983191490"><time>2026-04-22T11:12:55Z</time></trkpt><trkpt lat="59.0958023071" lon="29.9982976913"><time>2026-04-22T11:12:58Z</time></trkpt><trkpt lat="59.0958023071" lon="29.9982976913"><time>2026-04-22T11:13:00Z</time></trkpt><trkpt lat="59.0958023071" lon="29.9982976913"><time>2026-04-22T11:13:03Z</time></trkpt><trkpt lat="59.0958237648" lon="29.9981904030"><time>2026-04-22T11:13:05Z</time></trkpt><trkpt lat="59.0958452225" lon="29.9981474876"><time>2026-04-22T11:13:08Z</time></trkpt><trkpt lat="59.0958881378" lon="29.9981045723"><time>2026-04-22T11:13:10Z</time></trkpt><trkpt lat="59.0959095955" lon="29.9981045723"><time>2026-04-22T11:13:13Z</time></trkpt><trkpt lat="59.0959095955" lon="29.9980616570"><time>2026-04-22T11:13:15Z</time></trkpt><trkpt lat="59.0959095955" lon="29.9980616570"><time>2026-04-22T11:13:18Z</time></trkpt><trkpt lat="59.0959095955" lon="29.9980616570"><time>2026-04-22T11:13:20Z</time></trkpt><trkpt lat="59.0959095955" lon="29.9980616570"><time>2026-04-22T11:13:23Z</time></trkpt><trkpt lat="59.0959095955" lon="29.9980616570"><time>2026-04-22T11:13:25Z</time></trkpt><trkpt lat="59.0959095955" lon="29.9980616570"><time>2026-04-22T11:13:28Z</time></trkpt><trkpt lat="59.0959095955" lon="29.9980616570"><time>2026-04-22T11:13:30Z</time></trkpt><trkpt lat="59.0959095955" lon="29.9980616570"><time>2026-04-22T11:13:33Z</time></trkpt><trkpt lat="59.0959095955" lon="29.9980616570"><time>2026-04-22T11:13:35Z</time></trkpt><trkpt lat="59.0959095955" lon="29.9980616570"><time>2026-04-22T11:13:38Z</time></trkpt><trkpt lat="59.0959095955" lon="29.9980616570"><time>2026-04-22T11:13:40Z</time></trkpt><trkpt lat="59.0959310532" lon="29.9979972839"><time>2026-04-22T11:13:43Z</time></trkpt><trkpt lat="59.0959310532" lon="29.9979114532"><time>2026-04-22T11:13:45Z</time></trkpt><trkpt lat="59.0959310532" lon="29.9978470802"><time>2026-04-22T11:13:48Z</time></trkpt><trkpt lat="59.0959310532" lon="29.9977612495"><time>2026-04-22T11:13:50Z</time></trkpt><trkpt lat="59.0959310532" lon="29.9977612495"><time>2026-04-22T11:13:53Z</time></trkpt><trkpt lat="59.0959310532" lon="29.9977612495"><time>2026-04-22T11:13:55Z</time></trkpt><trkpt lat="59.0959525108" lon="29.9977397919"><time>2026-04-22T11:13:58Z</time></trkpt><trkpt lat="59.0959739685" lon="29.9975681305"><time>2026-04-22T11:14:00Z</time></trkpt><trkpt lat="59.0959739685" lon="29.9974822998"><time>2026-04-22T11:14:03Z</time></trkpt><trkpt lat="59.0959954262" lon="29.9974608421"><time>2026-04-22T11:14:05Z</time></trkpt><trkpt lat="59.0959954262" lon="29.9974608421"><time>2026-04-22T11:14:08Z</time></trkpt><trkpt lat="59.0959954262" lon="29.9974608421"><time>2026-04-22T11:14:10Z</time></trkpt><trkpt lat="59.0959954262" lon="29.9974608421"><time>2026-04-22T11:14:13Z</time></trkpt><trkpt lat="59.0959525108" lon="29.9974608421"><time>2026-04-22T11:14:15Z</time></trkpt><trkpt lat="59.0959525108" lon="29.9974822998"><time>2026-04-22T11:14:18Z</time></trkpt><trkpt lat="59.0959525108" lon="29.9974822998"><time>2026-04-22T11:14:20Z</time></trkpt><trkpt lat="59.0959310532" lon="29.9974822998"><time>2026-04-22T11:14:23Z</time></trkpt><trkpt lat="59.0959310532" lon="29.9975037575"><time>2026-04-22T11:14:25Z</time></trkpt><trkpt lat="59.0959739685" lon="29.9975252151"><time>2026-04-22T11:14:28Z</time></trkpt><trkpt lat="59.0960168839" lon="29.9975681305"><time>2026-04-22T11:14:30Z</time></trkpt><trkpt lat="59.0960168839" lon="29.9975681305"><time>2026-04-22T11:14:33Z</time></trkpt><trkpt lat="59.0960168839" lon="29.9975681305"><time>2026-04-22T11:14:35Z</time></trkpt><trkpt lat="59.0960168839" lon="29.9975681305"><time>2026-04-22T11:14:38Z</time></trkpt><trkpt lat="59.0960597992" lon="29.9976325035"><time>2026-04-22T11:14:40Z</time></trkpt><trkpt lat="59.0961027145" lon="29.9976754189"><time>2026-04-22T11:14:43Z</time></trkpt><trkpt lat="59.0961241722" lon="29.9977183342"><time>2026-04-22T11:14:45Z</time></trkpt><trkpt lat="59.0961241722" lon="29.9976968765"><time>2026-04-22T11:14:48Z</time></trkpt><trkpt lat="59.0961241722" lon="29.9977612495"><time>2026-04-22T11:14:50Z</time></trkpt><trkpt lat="59.0961241722" lon="29.9978256226"><time>2026-04-22T11:14:53Z</time></trkpt><trkpt lat="59.0961670876" lon="29.9978470802"><time>2026-04-22T11:14:55Z</time></trkpt><trkpt lat="59.0962100029" lon="29.9978685379"><time>2026-04-22T11:14:58Z</time></trkpt><trkpt lat="59.0962314606" lon="29.9979114532"><time>2026-04-22T11:15:00Z</time></trkpt><trkpt lat="59.0962743759" lon="29.9979329109"><time>2026-04-22T11:15:03Z</time></trkpt><trkpt lat="59.0963172913" lon="29.9979758263"><time>2026-04-22T11:15:05Z</time></trkpt><trkpt lat="59.0963387489" lon="29.9979972839"><time>2026-04-22T11:15:08Z</time></trkpt><trkpt lat="59.0963387489" lon="29.9979972839"><time>2026-04-22T11:15:10Z</time></trkpt><trkpt lat="59.0963602066" lon="29.9979972839"><time>2026-04-22T11:15:13Z</time></trkpt><trkpt lat="59.0963387489" lon="29.9979114532"><time>2026-04-22T11:15:15Z</time></trkpt><trkpt lat="59.0963387489" lon="29.9978685379"><time>2026-04-22T11:15:18Z</time></trkpt><trkpt lat="59.0963172913" lon="29.9978470802"><time>2026-04-22T11:15:20Z</time></trkpt><trkpt lat="59.0963172913" lon="29.9978041649"><time>2026-04-22T11:15:23Z</time></trkpt><trkpt lat="59.0963387489" lon="29.9977397919"><time>2026-04-22T11:15:25Z</time></trkpt><trkpt lat="59.0963816643" lon="29.9976968765"><time>2026-04-22T11:15:28Z</time></trkpt><trkpt lat="59.0964031219" lon="29.9977183342"><time>2026-04-22T11:15:30Z</time></trkpt><trkpt lat="59.0964460373" lon="29.9976754189"><time>2026-04-22T11:15:33Z</time></trkpt><trkpt lat="59.0964889526" lon="29.9976110458"><time>2026-04-22T11:15:35Z</time></trkpt><trkpt lat="59.0965318680" lon="29.9975466728"><time>2026-04-22T11:15:38Z</time></trkpt><trkpt lat="59.0965533257" lon="29.9975037575"><time>2026-04-22T11:15:40Z</time></trkpt><trkpt lat="59.0965962410" lon="29.9974393845"><time>2026-04-22T11:15:43Z</time></trkpt><trkpt lat="59.0966176987" lon="29.9973750114"><time>2026-04-22T11:15:45Z</time></trkpt><trkpt lat="59.0966176987" lon="29.9973750114"><time>2026-04-22T11:15:48Z</time></trkpt><trkpt lat="59.0966176987" lon="29.9973750114"><time>2026-04-22T11:15:50Z</time></trkpt><trkpt lat="59.0966176987" lon="29.9973750114"><time>2026-04-22T11:15:53Z</time></trkpt><trkpt lat="59.0966176987" lon="29.9973964691"><time>2026-04-22T11:15:55Z</time></trkpt><trkpt lat="59.0966391563" lon="29.9974393845"><time>2026-04-22T11:15:58Z</time></trkpt><trkpt lat="59.0966820717" lon="29.9974179268"><time>2026-04-22T11:16:00Z</time></trkpt><trkpt lat="59.0967464447" lon="29.9973750114"><time>2026-04-22T11:16:03Z</time></trkpt><trkpt lat="59.0967679024" lon="29.9973750114"><time>2026-04-22T11:16:05Z</time></trkpt><trkpt lat="59.0967679024" lon="29.9973750114"><time>2026-04-22T11:16:08Z</time></trkpt><trkpt lat="59.0967679024" lon="29.9973750114"><time>2026-04-22T11:16:10Z</time></trkpt><trkpt lat="59.0967893600" lon="29.9973750114"><time>2026-04-22T11:16:13Z</time></trkpt><trkpt lat="59.0968108177" lon="29.9973964691"><time>2026-04-22T11:16:15Z</time></trkpt><trkpt lat="59.0968537331" lon="29.9973964691"><time>2026-04-22T11:16:18Z</time></trkpt><trkpt lat="59.0968966484" lon="29.9973964691"><time>2026-04-22T11:16:20Z</time></trkpt><trkpt lat="59.0969395638" lon="29.9973535538"><time>2026-04-22T11:16:23Z</time></trkpt><trkpt lat="59.0969395638" lon="29.9973320961"><time>2026-04-22T11:16:25Z</time></trkpt><trkpt lat="59.0969395638" lon="29.9973106384"><time>2026-04-22T11:16:28Z</time></trkpt><trkpt lat="59.0969395638" lon="29.9973106384"><time>2026-04-22T11:16:30Z</time></trkpt><trkpt lat="59.0969395638" lon="29.9973106384"><time>2026-04-22T11:16:33Z</time></trkpt><trkpt lat="59.0969395638" lon="29.9973106384"><time>2026-04-22T11:16:35Z</time></trkpt><trkpt lat="59.0969395638" lon="29.9973106384"><time>2026-04-22T11:16:38Z</time></trkpt><trkpt lat="59.0969610214" lon="29.9973106384"><time>2026-04-22T11:16:40Z</time></trkpt><trkpt lat="59.0969824791" lon="29.9973535538"><time>2026-04-22T11:16:43Z</time></trkpt><trkpt lat="59.0970253944" lon="29.9973964691"><time>2026-04-22T11:16:45Z</time></trkpt><trkpt lat="59.0970897675" lon="29.9973750114"><time>2026-04-22T11:16:48Z</time></trkpt><trkpt lat="59.0971541405" lon="29.9973320961"><time>2026-04-22T11:16:50Z</time></trkpt><trkpt lat="59.0971541405" lon="29.9973106384"><time>2026-04-22T11:16:53Z</time></trkpt><trkpt lat="59.0971326828" lon="29.9972891808"><time>2026-04-22T11:16:55Z</time></trkpt><trkpt lat="59.0971326828" lon="29.9972462654"><time>2026-04-22T11:16:58Z</time></trkpt><trkpt lat="59.0971541405" lon="29.9971818924"><time>2026-04-22T11:17:00Z</time></trkpt><trkpt lat="59.0971541405" lon="29.9971818924"><time>2026-04-22T11:17:03Z</time></trkpt><trkpt lat="59.0971326828" lon="29.9972033501"><time>2026-04-22T11:17:05Z</time></trkpt><trkpt lat="59.0971326828" lon="29.9972033501"><time>2026-04-22T11:17:08Z</time></trkpt><trkpt lat="59.0971326828" lon="29.9972033501"><time>2026-04-22T11:17:10Z</time></trkpt><trkpt lat="59.0971326828" lon="29.9972033501"><time>2026-04-22T11:17:13Z</time></trkpt><trkpt lat="59.0971326828" lon="29.9972033501"><time>2026-04-22T11:17:15Z</time></trkpt><trkpt lat="59.0971326828" lon="29.9971818924"><time>2026-04-22T11:17:18Z</time></trkpt><trkpt lat="59.0971755981" lon="29.9971175194"><time>2026-04-22T11:17:20Z</time></trkpt><trkpt lat="59.0971755981" lon="29.9970746040"><time>2026-04-22T11:17:23Z</time></trkpt><trkpt lat="59.0971755981" lon="29.9970746040"><time>2026-04-22T11:17:25Z</time></trkpt><trkpt lat="59.0971970558" lon="29.9970531464"><time>2026-04-22T11:17:28Z</time></trkpt><trkpt lat="59.0972399712" lon="29.9969887733"><time>2026-04-22T11:17:30Z</time></trkpt><trkpt lat="59.0972614288" lon="29.9969244003"><time>2026-04-22T11:17:33Z</time></trkpt><trkpt lat="59.0973258018" lon="29.9968814850"><time>2026-04-22T11:17:35Z</time></trkpt><trkpt lat="59.0973687172" lon="29.9968385696"><time>2026-04-22T11:17:38Z</time></trkpt><trkpt lat="59.0974116325" lon="29.9967741966"><time>2026-04-22T11:17:40Z</time></trkpt><trkpt lat="59.0974330902" lon="29.9967312813"><time>2026-04-22T11:17:43Z</time></trkpt><trkpt lat="59.0974330902" lon="29.9967098236"><time>2026-04-22T11:17:45Z</time></trkpt><trkpt lat="59.0974330902" lon="29.9967098236"><time>2026-04-22T11:17:48Z</time></trkpt><trkpt lat="59.0974330902" lon="29.9967312813"><time>2026-04-22T11:17:50Z</time></trkpt><trkpt lat="59.0974116325" lon="29.9967527390"><time>2026-04-22T11:17:53Z</time></trkpt><trkpt lat="59.0973687172" lon="29.9968171120"><time>2026-04-22T11:17:55Z</time></trkpt><trkpt lat="59.0973472595" lon="29.9968600273"><time>2026-04-22T11:17:58Z</time></trkpt><trkpt lat="59.0972828865" lon="29.9968814850"><time>2026-04-22T11:18:00Z</time></trkpt><trkpt lat="59.0972828865" lon="29.9968814850"><time>2026-04-22T11:18:03Z</time></trkpt><trkpt lat="59.0972828865" lon="29.9968814850"><time>2026-04-22T11:18:05Z</time></trkpt><trkpt lat="59.0972614288" lon="29.9968814850"><time>2026-04-22T11:18:08Z</time></trkpt><trkpt lat="59.0971970558" lon="29.9968171120"><time>2026-04-22T11:18:10Z</time></trkpt><trkpt lat="59.0971755981" lon="29.9967956543"><time>2026-04-22T11:18:13Z</time></trkpt><trkpt lat="59.0971112251" lon="29.9967098236"><time>2026-04-22T11:18:15Z</time></trkpt><trkpt lat="59.0970897675" lon="29.9966669083"><time>2026-04-22T11:18:18Z</time></trkpt><trkpt lat="59.0970897675" lon="29.9966454506"><time>2026-04-22T11:18:20Z</time></trkpt><trkpt lat="59.0970897675" lon="29.9965596199"><time>2026-04-22T11:18:23Z</time></trkpt><trkpt lat="59.0970897675" lon="29.9964523315"><time>2026-04-22T11:18:25Z</time></trkpt><trkpt lat="59.0970897675" lon="29.9964094162"><time>2026-04-22T11:18:28Z</time></trkpt><trkpt lat="59.0970468521" lon="29.9963450432"><time>2026-04-22T11:18:30Z</time></trkpt><trkpt lat="59.0970253944" lon="29.9963235855"><time>2026-04-22T11:18:33Z</time></trkpt><trkpt lat="59.0970039368" lon="29.9962592125"><time>2026-04-22T11:18:35Z</time></trkpt><trkpt lat="59.0970039368" lon="29.9962806702"><time>2026-04-22T11:18:38Z</time></trkpt><trkpt lat="59.0970039368" lon="29.9962377548"><time>2026-04-22T11:18:40Z</time></trkpt><trkpt lat="59.0970039368" lon="29.9962377548"><time>2026-04-22T11:18:43Z</time></trkpt><trkpt lat="59.0970468521" lon="29.9962592125"><time>2026-04-22T11:18:45Z</time></trkpt><trkpt lat="59.0970897675" lon="29.9962162971"><time>2026-04-22T11:18:48Z</time></trkpt><trkpt lat="59.0971112251" lon="29.9961733818"><time>2026-04-22T11:18:50Z</time></trkpt><trkpt lat="59.0971112251" lon="29.9961733818"><time>2026-04-22T11:18:53Z</time></trkpt><trkpt lat="59.0971112251" lon="29.9961733818"><time>2026-04-22T11:18:55Z</time></trkpt><trkpt lat="59.0971326828" lon="29.9961304665"><time>2026-04-22T11:18:58Z</time></trkpt><trkpt lat="59.0971326828" lon="29.9960875511"><time>2026-04-22T11:19:00Z</time></trkpt><trkpt lat="59.0971755981" lon="29.9960446358"><time>2026-04-22T11:19:03Z</time></trkpt><trkpt lat="59.0971970558" lon="29.9959802628"><time>2026-04-22T11:19:05Z</time></trkpt><trkpt lat="59.0971970558" lon="29.9959158897"><time>2026-04-22T11:19:08Z</time></trkpt><trkpt lat="59.0971970558" lon="29.9958944321"><time>2026-04-22T11:19:10Z</time></trkpt><trkpt lat="59.0971970558" lon="29.9958944321"><time>2026-04-22T11:19:13Z</time></trkpt><trkpt lat="59.0971970558" lon="29.9958944321"><time>2026-04-22T11:19:15Z</time></trkpt><trkpt lat="59.0971970558" lon="29.9958944321"><time>2026-04-22T11:19:18Z</time></trkpt><trkpt lat="59.0971970558" lon="29.9958944321"><time>2026-04-22T11:19:20Z</time></trkpt><trkpt lat="59.0971970558" lon="29.9958944321"><time>2026-04-22T11:19:23Z</time></trkpt><trkpt lat="59.0971970558" lon="29.9958944321"><time>2026-04-22T11:19:25Z</time></trkpt><trkpt lat="59.0971970558" lon="29.9958944321"><time>2026-04-22T11:19:28Z</time></trkpt><trkpt lat="59.0971970558" lon="29.9958944321"><time>2026-04-22T11:19:30Z</time></trkpt><trkpt lat="59.0971970558" lon="29.9958944321"><time>2026-04-22T11:19:33Z</time></trkpt><trkpt lat="59.0971970558" lon="29.9958944321"><time>2026-04-22T11:19:35Z</time></trkpt><trkpt lat="59.0971970558" lon="29.9958944321"><time>2026-04-22T11:19:38Z</time></trkpt><trkpt lat="59.0971970558" lon="29.9958944321"><time>2026-04-22T11:19:40Z</time></trkpt><trkpt lat="59.0971970558" lon="29.9958944321"><time>2026-04-22T11:19:43Z</time></trkpt><trkpt lat="59.0971970558" lon="29.9958944321"><time>2026-04-22T11:19:45Z</time></trkpt><trkpt lat="59.0971970558" lon="29.9958944321"><time>2026-04-22T11:19:48Z</time></trkpt><trkpt lat="59.0971970558" lon="29.9958944321"><time>2026-04-22T11:19:50Z</time></trkpt><trkpt lat="59.0971970558" lon="29.9958944321"><time>2026-04-22T11:19:53Z</time></trkpt><trkpt lat="59.0971970558" lon="29.9958944321"><time>2026-04-22T11:19:55Z</time></trkpt><trkpt lat="59.0971970558" lon="29.9958944321"><time>2026-04-22T11:19:58Z</time></trkpt><trkpt lat="59.0971970558" lon="29.9958944321"><time>2026-04-22T11:20:00Z</time></trkpt><trkpt lat="59.0971970558" lon="29.9958944321"><time>2026-04-22T11:20:03Z</time></trkpt><trkpt lat="59.0971970558" lon="29.9958944321"><time>2026-04-22T11:20:05Z</time></trkpt><trkpt lat="59.0971970558" lon="29.9958944321"><time>2026-04-22T11:20:08Z</time></trkpt><trkpt lat="59.0971970558" lon="29.9958944321"><time>2026-04-22T11:20:10Z</time></trkpt><trkpt lat="59.0971970558" lon="29.9958944321"><time>2026-04-22T11:20:13Z</time></trkpt><trkpt lat="59.0972185135" lon="29.9958944321"><time>2026-04-22T11:20:15Z</time></trkpt><trkpt lat="59.0972185135" lon="29.9958944321"><time>2026-04-22T11:20:18Z</time></trkpt><trkpt lat="59.0972185135" lon="29.9958944321"><time>2026-04-22T11:20:20Z</time></trkpt><trkpt lat="59.0972185135" lon="29.9958944321"><time>2026-04-22T11:20:23Z</time></trkpt><trkpt lat="59.0972185135" lon="29.9958944321"><time>2026-04-22T11:20:25Z</time></trkpt><trkpt lat="59.0972185135" lon="29.9958944321"><time>2026-04-22T11:20:28Z</time></trkpt><trkpt lat="59.0972185135" lon="29.9958944321"><time>2026-04-22T11:20:30Z</time></trkpt><trkpt lat="59.0972185135" lon="29.9958944321"><time>2026-04-22T11:20:33Z</time></trkpt><trkpt lat="59.0972185135" lon="29.9958944321"><time>2026-04-22T11:20:35Z</time></trkpt><trkpt lat="59.0972185135" lon="29.9958944321"><time>2026-04-22T11:20:38Z</time></trkpt><trkpt lat="59.0972185135" lon="29.9958944321"><time>2026-04-22T11:20:40Z</time></trkpt><trkpt lat="59.0972185135" lon="29.9958944321"><time>2026-04-22T11:20:43Z</time></trkpt><trkpt lat="59.0972185135" lon="29.9958944321"><time>2026-04-22T11:20:45Z</time></trkpt><trkpt lat="59.0972185135" lon="29.9958944321"><time>2026-04-22T11:20:48Z</time></trkpt><trkpt lat="59.0972185135" lon="29.9958944321"><time>2026-04-22T11:20:50Z</time></trkpt><trkpt lat="59.0972185135" lon="29.9958944321"><time>2026-04-22T11:20:53Z</time></trkpt><trkpt lat="59.0971970558" lon="29.9958944321"><time>2026-04-22T11:20:55Z</time></trkpt><trkpt lat="59.0971970558" lon="29.9958944321"><time>2026-04-22T11:20:58Z</time></trkpt><trkpt lat="59.0971970558" lon="29.9958944321"><time>2026-04-22T11:21:00Z</time></trkpt><trkpt lat="59.0971970558" lon="29.9958944321"><time>2026-04-22T11:21:03Z</time></trkpt><trkpt lat="59.0971970558" lon="29.9958944321"><time>2026-04-22T11:21:05Z</time></trkpt><trkpt lat="59.0971970558" lon="29.9958944321"><time>2026-04-22T11:21:08Z</time></trkpt><trkpt lat="59.0971970558" lon="29.9958944321"><time>2026-04-22T11:21:10Z</time></trkpt><trkpt lat="59.0971970558" lon="29.9958944321"><time>2026-04-22T11:21:13Z</time></trkpt><trkpt lat="59.0971970558" lon="29.9958944321"><time>2026-04-22T11:21:15Z</time></trkpt><trkpt lat="59.0971970558" lon="29.9958944321"><time>2026-04-22T11:21:18Z</time></trkpt><trkpt lat="59.0971970558" lon="29.9958944321"><time>2026-04-22T11:21:20Z</time></trkpt><trkpt lat="59.0971970558" lon="29.9958944321"><time>2026-04-22T11:21:23Z</time></trkpt><trkpt lat="59.0971970558" lon="29.9958944321"><time>2026-04-22T11:21:25Z</time></trkpt><trkpt lat="59.0971970558" lon="29.9958944321"><time>2026-04-22T11:21:28Z</time></trkpt><trkpt lat="59.0971970558" lon="29.9958944321"><time>2026-04-22T11:21:30Z</time></trkpt><trkpt lat="59.0971970558" lon="29.9958944321"><time>2026-04-22T11:21:33Z</time></trkpt><trkpt lat="59.0971970558" lon="29.9958944321"><time>2026-04-22T11:21:35Z</time></trkpt><trkpt lat="59.0971970558" lon="29.9958944321"><time>2026-04-22T11:21:38Z</time></trkpt><trkpt lat="59.0971970558" lon="29.9958944321"><time>2026-04-22T11:21:40Z</time></trkpt><trkpt lat="59.0971970558" lon="29.9958944321"><time>2026-04-22T11:21:43Z</time></trkpt><trkpt lat="59.0971970558" lon="29.9958944321"><time>2026-04-22T11:21:45Z</time></trkpt><trkpt lat="59.0971970558" lon="29.9958944321"><time>2026-04-22T11:21:48Z</time></trkpt><trkpt lat="59.0971970558" lon="29.9958944321"><time>2026-04-22T11:21:50Z</time></trkpt><trkpt lat="59.0971970558" lon="29.9958944321"><time>2026-04-22T11:21:53Z</time></trkpt><trkpt lat="59.0971970558" lon="29.9958944321"><time>2026-04-22T11:21:55Z</time></trkpt><trkpt lat="59.0971970558" lon="29.9958944321"><time>2026-04-22T11:21:58Z</time></trkpt><trkpt lat="59.0971970558" lon="29.9958729744"><time>2026-04-22T11:22:03Z</time></trkpt><trkpt lat="59.0971970558" lon="29.9958729744"><time>2026-04-22T11:22:05Z</time></trkpt><trkpt lat="59.0971970558" lon="29.9958729744"><time>2026-04-22T11:22:08Z</time></trkpt><trkpt lat="59.0971970558" lon="29.9958729744"><time>2026-04-22T11:22:10Z</time></trkpt><trkpt lat="59.0971970558" lon="29.9958729744"><time>2026-04-22T11:22:13Z</time></trkpt><trkpt lat="59.0971970558" lon="29.9958729744"><time>2026-04-22T11:22:15Z</time></trkpt><trkpt lat="59.0971970558" lon="29.9958729744"><time>2026-04-22T11:22:18Z</time></trkpt><trkpt lat="59.0971970558" lon="29.9958729744"><time>2026-04-22T11:22:20Z</time></trkpt><trkpt lat="59.0971970558" lon="29.9958729744"><time>2026-04-22T11:22:23Z</time></trkpt><trkpt lat="59.0971970558" lon="29.9958729744"><time>2026-04-22T11:22:25Z</time></trkpt><trkpt lat="59.0971970558" lon="29.9958729744"><time>2026-04-22T11:22:28Z</time></trkpt><trkpt lat="59.0971970558" lon="29.9958729744"><time>2026-04-22T11:22:30Z</time></trkpt><trkpt lat="59.0971970558" lon="29.9958729744"><time>2026-04-22T11:22:33Z</time></trkpt><trkpt lat="59.0971970558" lon="29.9958729744"><time>2026-04-22T11:22:35Z</time></trkpt><trkpt lat="59.0971970558" lon="29.9958729744"><time>2026-04-22T11:22:38Z</time></trkpt><trkpt lat="59.0971970558" lon="29.9958729744"><time>2026-04-22T11:22:40Z</time></trkpt><trkpt lat="59.0971970558" lon="29.9958729744"><time>2026-04-22T11:22:43Z</time></trkpt><trkpt lat="59.0971970558" lon="29.9958729744"><time>2026-04-22T11:22:45Z</time></trkpt><trkpt lat="59.0971970558" lon="29.9958729744"><time>2026-04-22T11:22:48Z</time></trkpt><trkpt lat="59.0971970558" lon="29.9958729744"><time>2026-04-22T11:22:50Z</time></trkpt><trkpt lat="59.0971970558" lon="29.9958729744"><time>2026-04-22T11:22:53Z</time></trkpt><trkpt lat="59.0971970558" lon="29.9958729744"><time>2026-04-22T11:22:55Z</time></trkpt><trkpt lat="59.0971970558" lon="29.9958729744"><time>2026-04-22T11:22:58Z</time></trkpt><trkpt lat="59.0971970558" lon="29.9958729744"><time>2026-04-22T11:23:00Z</time></trkpt><trkpt lat="59.0971755981" lon="29.9958515167"><time>2026-04-22T11:23:03Z</time></trkpt><trkpt lat="59.0971541405" lon="29.9957871437"><time>2026-04-22T11:23:08Z</time></trkpt><trkpt lat="59.0971541405" lon="29.9957656860"><time>2026-04-22T11:23:10Z</time></trkpt><trkpt lat="59.0971541405" lon="29.9957442284"><time>2026-04-22T11:23:13Z</time></trkpt><trkpt lat="59.0971326828" lon="29.9956798553"><time>2026-04-22T11:23:15Z</time></trkpt><trkpt lat="59.0971112251" lon="29.9956583977"><time>2026-04-22T11:23:18Z</time></trkpt><trkpt lat="59.0971112251" lon="29.9956583977"><time>2026-04-22T11:23:20Z</time></trkpt><trkpt lat="59.0970897675" lon="29.9956369400"><time>2026-04-22T11:23:23Z</time></trkpt><trkpt lat="59.0970897675" lon="29.9956369400"><time>2026-04-22T11:23:25Z</time></trkpt><trkpt lat="59.0970683098" lon="29.9957013130"><time>2026-04-22T11:23:28Z</time></trkpt><trkpt lat="59.0970039368" lon="29.9957656860"><time>2026-04-22T11:23:30Z</time></trkpt><trkpt lat="59.0969610214" lon="29.9957442284"><time>2026-04-22T11:23:33Z</time></trkpt><trkpt lat="59.0969181061" lon="29.9957013130"><time>2026-04-22T11:23:35Z</time></trkpt><trkpt lat="59.0968966484" lon="29.9957227707"><time>2026-04-22T11:23:38Z</time></trkpt><trkpt lat="59.0968751907" lon="29.9957656860"><time>2026-04-22T11:23:40Z</time></trkpt><trkpt lat="59.0968751907" lon="29.9957656860"><time>2026-04-22T11:23:43Z</time></trkpt><trkpt lat="59.0968537331" lon="29.9957656860"><time>2026-04-22T11:23:45Z</time></trkpt><trkpt lat="59.0968537331" lon="29.9957656860"><time>2026-04-22T11:23:48Z</time></trkpt><trkpt lat="59.0968537331" lon="29.9958086014"><time>2026-04-22T11:23:50Z</time></trkpt><trkpt lat="59.0968322754" lon="29.9958300591"><time>2026-04-22T11:23:53Z</time></trkpt><trkpt lat="59.0968108177" lon="29.9959158897"><time>2026-04-22T11:23:55Z</time></trkpt><trkpt lat="59.0967893600" lon="29.9959802628"><time>2026-04-22T11:23:58Z</time></trkpt><trkpt lat="59.0967464447" lon="29.9960875511"><time>2026-04-22T11:24:00Z</time></trkpt><trkpt lat="59.0967249870" lon="29.9961090088"><time>2026-04-22T11:24:03Z</time></trkpt><trkpt lat="59.0967249870" lon="29.9961090088"><time>2026-04-22T11:24:05Z</time></trkpt><trkpt lat="59.0967249870" lon="29.9961304665"><time>2026-04-22T11:24:08Z</time></trkpt><trkpt lat="59.0966820717" lon="29.9961733818"><time>2026-04-22T11:24:10Z</time></trkpt><trkpt lat="59.0966606140" lon="29.9962377548"><time>2026-04-22T11:24:13Z</time></trkpt><trkpt lat="59.0966391563" lon="29.9963235855"><time>2026-04-22T11:24:15Z</time></trkpt><trkpt lat="59.0966176987" lon="29.9963235855"><time>2026-04-22T11:24:18Z</time></trkpt><trkpt lat="59.0966176987" lon="29.9963235855"><time>2026-04-22T11:24:20Z</time></trkpt><trkpt lat="59.0965962410" lon="29.9962806702"><time>2026-04-22T11:24:23Z</time></trkpt><trkpt lat="59.0966176987" lon="29.9962377548"><time>2026-04-22T11:24:25Z</time></trkpt><trkpt lat="59.0966176987" lon="29.9962377548"><time>2026-04-22T11:24:28Z</time></trkpt><trkpt lat="59.0965962410" lon="29.9962377548"><time>2026-04-22T11:24:30Z</time></trkpt><trkpt lat="59.0965747833" lon="29.9962377548"><time>2026-04-22T11:24:33Z</time></trkpt><trkpt lat="59.0965533257" lon="29.9963235855"><time>2026-04-22T11:24:35Z</time></trkpt><trkpt lat="59.0965533257" lon="29.9963450432"><time>2026-04-22T11:24:38Z</time></trkpt><trkpt lat="59.0965104103" lon="29.9964308739"><time>2026-04-22T11:24:40Z</time></trkpt><trkpt lat="59.0964889526" lon="29.9964737892"><time>2026-04-22T11:24:43Z</time></trkpt><trkpt lat="59.0964889526" lon="29.9965167046"><time>2026-04-22T11:24:45Z</time></trkpt><trkpt lat="59.0964889526" lon="29.9965167046"><time>2026-04-22T11:24:48Z</time></trkpt><trkpt lat="59.0964889526" lon="29.9965167046"><time>2026-04-22T11:24:50Z</time></trkpt><trkpt lat="59.0964460373" lon="29.9965381622"><time>2026-04-22T11:24:53Z</time></trkpt><trkpt lat="59.0964460373" lon="29.9965596199"><time>2026-04-22T11:24:55Z</time></trkpt><trkpt lat="59.0964245796" lon="29.9965596199"><time>2026-04-22T11:24:58Z</time></trkpt><trkpt lat="59.0963816643" lon="29.9966025352"><time>2026-04-22T11:25:00Z</time></trkpt><trkpt lat="59.0963602066" lon="29.9965810776"><time>2026-04-22T11:25:03Z</time></trkpt><trkpt lat="59.0963387489" lon="29.9965810776"><time>2026-04-22T11:25:05Z</time></trkpt><trkpt lat="59.0963387489" lon="29.9965810776"><time>2026-04-22T11:25:08Z</time></trkpt><trkpt lat="59.0963387489" lon="29.9965810776"><time>2026-04-22T11:25:10Z</time></trkpt><trkpt lat="59.0963387489" lon="29.9965810776"><time>2026-04-22T11:25:13Z</time></trkpt><trkpt lat="59.0963387489" lon="29.9965810776"><time>2026-04-22T11:25:15Z</time></trkpt><trkpt lat="59.0963387489" lon="29.9965596199"><time>2026-04-22T11:25:18Z</time></trkpt><trkpt lat="59.0962743759" lon="29.9965596199"><time>2026-04-22T11:25:20Z</time></trkpt><trkpt lat="59.0962529182" lon="29.9965596199"><time>2026-04-22T11:25:23Z</time></trkpt><trkpt lat="59.0962314606" lon="29.9966025352"><time>2026-04-22T11:25:25Z</time></trkpt><trkpt lat="59.0961885452" lon="29.9966454506"><time>2026-04-22T11:25:28Z</time></trkpt><trkpt lat="59.0961670876" lon="29.9966669083"><time>2026-04-22T11:25:30Z</time></trkpt><trkpt lat="59.0961456299" lon="29.9966883659"><time>2026-04-22T11:25:33Z</time></trkpt><trkpt lat="59.0961241722" lon="29.9967098236"><time>2026-04-22T11:25:35Z</time></trkpt><trkpt lat="59.0961241722" lon="29.9967098236"><time>2026-04-22T11:25:38Z</time></trkpt><trkpt lat="59.0961241722" lon="29.9967098236"><time>2026-04-22T11:25:40Z</time></trkpt><trkpt lat="59.0961241722" lon="29.9967098236"><time>2026-04-22T11:25:43Z</time></trkpt><trkpt lat="59.0961241722" lon="29.9967098236"><time>2026-04-22T11:25:45Z</time></trkpt><trkpt lat="59.0961241722" lon="29.9967098236"><time>2026-04-22T11:25:48Z</time></trkpt><trkpt lat="59.0961241722" lon="29.9967098236"><time>2026-04-22T11:25:50Z</time></trkpt><trkpt lat="59.0961241722" lon="29.9967098236"><time>2026-04-22T11:25:53Z</time></trkpt><trkpt lat="59.0961241722" lon="29.9967098236"><time>2026-04-22T11:25:55Z</time></trkpt><trkpt lat="59.0961241722" lon="29.9967098236"><time>2026-04-22T11:25:58Z</time></trkpt><trkpt lat="59.0961241722" lon="29.9966883659"><time>2026-04-22T11:26:00Z</time></trkpt><trkpt lat="59.0961241722" lon="29.9966883659"><time>2026-04-22T11:26:03Z</time></trkpt><trkpt lat="59.0961241722" lon="29.9966883659"><time>2026-04-22T11:26:05Z</time></trkpt><trkpt lat="59.0961241722" lon="29.9966883659"><time>2026-04-22T11:26:08Z</time></trkpt><trkpt lat="59.0960597992" lon="29.9967527390"><time>2026-04-22T11:26:10Z</time></trkpt><trkpt lat="59.0960383415" lon="29.9967741966"><time>2026-04-22T11:26:13Z</time></trkpt><trkpt lat="59.0959739685" lon="29.9968171120"><time>2026-04-22T11:26:15Z</time></trkpt><trkpt lat="59.0959310532" lon="29.9968600273"><time>2026-04-22T11:26:18Z</time></trkpt><trkpt lat="59.0959095955" lon="29.9968600273"><time>2026-04-22T11:26:20Z</time></trkpt><trkpt lat="59.0958666801" lon="29.9968814850"><time>2026-04-22T11:26:23Z</time></trkpt><trkpt lat="59.0958237648" lon="29.9969029427"><time>2026-04-22T11:26:25Z</time></trkpt><trkpt lat="59.0957808495" lon="29.9969244003"><time>2026-04-22T11:26:28Z</time></trkpt><trkpt lat="59.0957379341" lon="29.9969458580"><time>2026-04-22T11:26:30Z</time></trkpt><trkpt lat="59.0956950188" lon="29.9969673157"><time>2026-04-22T11:26:33Z</time></trkpt><trkpt lat="59.0956306458" lon="29.9969887733"><time>2026-04-22T11:26:38Z</time></trkpt><trkpt lat="59.0956306458" lon="29.9969887733"><time>2026-04-22T11:26:40Z</time></trkpt><trkpt lat="59.0956521034" lon="29.9969887733"><time>2026-04-22T11:26:43Z</time></trkpt><trkpt lat="59.0956735611" lon="29.9969244003"><time>2026-04-22T11:26:45Z</time></trkpt><trkpt lat="59.0956521034" lon="29.9969244003"><time>2026-04-22T11:26:48Z</time></trkpt><trkpt lat="59.0956735611" lon="29.9969029427"><time>2026-04-22T11:26:50Z</time></trkpt><trkpt lat="59.0956735611" lon="29.9969029427"><time>2026-04-22T11:26:53Z</time></trkpt><trkpt lat="59.0956735611" lon="29.9969029427"><time>2026-04-22T11:26:55Z</time></trkpt><trkpt lat="59.0956735611" lon="29.9969029427"><time>2026-04-22T11:26:58Z</time></trkpt><trkpt lat="59.0956735611" lon="29.9969029427"><time>2026-04-22T11:27:00Z</time></trkpt><trkpt lat="59.0956521034" lon="29.9969458580"><time>2026-04-22T11:27:03Z</time></trkpt><trkpt lat="59.0956306458" lon="29.9969887733"><time>2026-04-22T11:27:05Z</time></trkpt><trkpt lat="59.0956306458" lon="29.9970102310"><time>2026-04-22T11:27:08Z</time></trkpt><trkpt lat="59.0956091881" lon="29.9970316887"><time>2026-04-22T11:27:10Z</time></trkpt><trkpt lat="59.0956091881" lon="29.9969887733"><time>2026-04-22T11:27:13Z</time></trkpt><trkpt lat="59.0955877304" lon="29.9969673157"><time>2026-04-22T11:27:15Z</time></trkpt><trkpt lat="59.0955877304" lon="29.9969673157"><time>2026-04-22T11:27:18Z</time></trkpt><trkpt lat="59.0955877304" lon="29.9969673157"><time>2026-04-22T11:27:20Z</time></trkpt><trkpt lat="59.0955877304" lon="29.9969673157"><time>2026-04-22T11:27:23Z</time></trkpt><trkpt lat="59.0955662727" lon="29.9968814850"><time>2026-04-22T11:27:28Z</time></trkpt><trkpt lat="59.0955448151" lon="29.9968600273"><time>2026-04-22T11:27:30Z</time></trkpt><trkpt lat="59.0955448151" lon="29.9968600273"><time>2026-04-22T11:27:33Z</time></trkpt><trkpt lat="59.0955233574" lon="29.9968600273"><time>2026-04-22T11:27:35Z</time></trkpt><trkpt lat="59.0955233574" lon="29.9968600273"><time>2026-04-22T11:27:38Z</time></trkpt><trkpt lat="59.0955018997" lon="29.9968814850"><time>2026-04-22T11:27:40Z</time></trkpt><trkpt lat="59.0955018997" lon="29.9969029427"><time>2026-04-22T11:27:43Z</time></trkpt><trkpt lat="59.0955018997" lon="29.9969029427"><time>2026-04-22T11:27:45Z</time></trkpt><trkpt lat="59.0955018997" lon="29.9969029427"><time>2026-04-22T11:27:48Z</time></trkpt><trkpt lat="59.0955233574" lon="29.9969029427"><time>2026-04-22T11:27:50Z</time></trkpt><trkpt lat="59.0955233574" lon="29.9969029427"><time>2026-04-22T11:27:53Z</time></trkpt><trkpt lat="59.0955233574" lon="29.9969029427"><time>2026-04-22T11:27:55Z</time></trkpt><trkpt lat="59.0955233574" lon="29.9969029427"><time>2026-04-22T11:27:58Z</time></trkpt><trkpt lat="59.0955233574" lon="29.9969029427"><time>2026-04-22T11:28:00Z</time></trkpt><trkpt lat="59.0955233574" lon="29.9969029427"><time>2026-04-22T11:28:03Z</time></trkpt><trkpt lat="59.0955233574" lon="29.9969029427"><time>2026-04-22T11:28:05Z</time></trkpt><trkpt lat="59.0955233574" lon="29.9969029427"><time>2026-04-22T11:28:08Z</time></trkpt><trkpt lat="59.0955233574" lon="29.9969029427"><time>2026-04-22T11:28:10Z</time></trkpt><trkpt lat="59.0955233574" lon="29.9969029427"><time>2026-04-22T11:28:13Z</time></trkpt><trkpt lat="59.0955233574" lon="29.9969029427"><time>2026-04-22T11:28:15Z</time></trkpt><trkpt lat="59.0955233574" lon="29.9969029427"><time>2026-04-22T11:28:18Z</time></trkpt><trkpt lat="59.0955233574" lon="29.9969029427"><time>2026-04-22T11:28:20Z</time></trkpt><trkpt lat="59.0955233574" lon="29.9969029427"><time>2026-04-22T11:28:23Z</time></trkpt><trkpt lat="59.0955233574" lon="29.9969029427"><time>2026-04-22T11:28:25Z</time></trkpt><trkpt lat="59.0955233574" lon="29.9969029427"><time>2026-04-22T11:28:28Z</time></trkpt><trkpt lat="59.0955233574" lon="29.9969029427"><time>2026-04-22T11:28:30Z</time></trkpt><trkpt lat="59.0955233574" lon="29.9969029427"><time>2026-04-22T11:28:33Z</time></trkpt><trkpt lat="59.0955233574" lon="29.9969029427"><time>2026-04-22T11:28:35Z</time></trkpt><trkpt lat="59.0955233574" lon="29.9969029427"><time>2026-04-22T11:28:38Z</time></trkpt><trkpt lat="59.0955233574" lon="29.9969029427"><time>2026-04-22T11:28:40Z</time></trkpt><trkpt lat="59.0955233574" lon="29.9969029427"><time>2026-04-22T11:28:43Z</time></trkpt><trkpt lat="59.0955233574" lon="29.9969029427"><time>2026-04-22T11:28:45Z</time></trkpt><trkpt lat="59.0955233574" lon="29.9969029427"><time>2026-04-22T11:28:48Z</time></trkpt><trkpt lat="59.0955233574" lon="29.9969029427"><time>2026-04-22T11:28:50Z</time></trkpt><trkpt lat="59.0955233574" lon="29.9969029427"><time>2026-04-22T11:28:53Z</time></trkpt><trkpt lat="59.0955233574" lon="29.9969029427"><time>2026-04-22T11:28:55Z</time></trkpt><trkpt lat="59.0955233574" lon="29.9969029427"><time>2026-04-22T11:28:58Z</time></trkpt><trkpt lat="59.0955233574" lon="29.9969029427"><time>2026-04-22T11:29:00Z</time></trkpt><trkpt lat="59.0955233574" lon="29.9969029427"><time>2026-04-22T11:29:03Z</time></trkpt><trkpt lat="59.0955233574" lon="29.9969029427"><time>2026-04-22T11:29:05Z</time></trkpt><trkpt lat="59.0955233574" lon="29.9969029427"><time>2026-04-22T11:29:08Z</time></trkpt><trkpt lat="59.0955233574" lon="29.9969244003"><time>2026-04-22T11:29:10Z</time></trkpt><trkpt lat="59.0955233574" lon="29.9969244003"><time>2026-04-22T11:29:13Z</time></trkpt><trkpt lat="59.0955233574" lon="29.9969244003"><time>2026-04-22T11:29:15Z</time></trkpt><trkpt lat="59.0955233574" lon="29.9969244003"><time>2026-04-22T11:29:18Z</time></trkpt><trkpt lat="59.0955233574" lon="29.9969244003"><time>2026-04-22T11:29:20Z</time></trkpt><trkpt lat="59.0955233574" lon="29.9969244003"><time>2026-04-22T11:29:23Z</time></trkpt><trkpt lat="59.0955233574" lon="29.9969244003"><time>2026-04-22T11:29:25Z</time></trkpt><trkpt lat="59.0955233574" lon="29.9969244003"><time>2026-04-22T11:29:28Z</time></trkpt><trkpt lat="59.0955233574" lon="29.9969244003"><time>2026-04-22T11:29:30Z</time></trkpt><trkpt lat="59.0955233574" lon="29.9969244003"><time>2026-04-22T11:29:33Z</time></trkpt><trkpt lat="59.0955233574" lon="29.9969244003"><time>2026-04-22T11:29:35Z</time></trkpt><trkpt lat="59.0955233574" lon="29.9969244003"><time>2026-04-22T11:29:38Z</time></trkpt><trkpt lat="59.0955233574" lon="29.9969244003"><time>2026-04-22T11:29:40Z</time></trkpt><trkpt lat="59.0955233574" lon="29.9969244003"><time>2026-04-22T11:29:43Z</time></trkpt><trkpt lat="59.0955233574" lon="29.9969244003"><time>2026-04-22T11:29:45Z</time></trkpt><trkpt lat="59.0955233574" lon="29.9969244003"><time>2026-04-22T11:29:48Z</time></trkpt><trkpt lat="59.0955233574" lon="29.9969244003"><time>2026-04-22T11:29:50Z</time></trkpt><trkpt lat="59.0955233574" lon="29.9969244003"><time>2026-04-22T11:29:53Z</time></trkpt><trkpt lat="59.0955233574" lon="29.9969244003"><time>2026-04-22T11:29:55Z</time></trkpt><trkpt lat="59.0955233574" lon="29.9969244003"><time>2026-04-22T11:29:58Z</time></trkpt><trkpt lat="59.0955233574" lon="29.9969244003"><time>2026-04-22T11:30:00Z</time></trkpt><trkpt lat="59.0955233574" lon="29.9969244003"><time>2026-04-22T11:30:03Z</time></trkpt><trkpt lat="59.0955233574" lon="29.9969244003"><time>2026-04-22T11:30:05Z</time></trkpt><trkpt lat="59.0955233574" lon="29.9969244003"><time>2026-04-22T11:30:08Z</time></trkpt><trkpt lat="59.0955233574" lon="29.9969244003"><time>2026-04-22T11:30:10Z</time></trkpt><trkpt lat="59.0955233574" lon="29.9969244003"><time>2026-04-22T11:30:13Z</time></trkpt><trkpt lat="59.0955233574" lon="29.9969244003"><time>2026-04-22T11:30:15Z</time></trkpt><trkpt lat="59.0955233574" lon="29.9969244003"><time>2026-04-22T11:30:18Z</time></trkpt><trkpt lat="59.0955233574" lon="29.9969244003"><time>2026-04-22T11:30:20Z</time></trkpt><trkpt lat="59.0955233574" lon="29.9969244003"><time>2026-04-22T11:30:23Z</time></trkpt><trkpt lat="59.0955233574" lon="29.9969244003"><time>2026-04-22T11:30:25Z</time></trkpt><trkpt lat="59.0955233574" lon="29.9969244003"><time>2026-04-22T11:30:28Z</time></trkpt><trkpt lat="59.0955233574" lon="29.9969029427"><time>2026-04-22T11:30:30Z</time></trkpt><trkpt lat="59.0955233574" lon="29.9969029427"><time>2026-04-22T11:30:33Z</time></trkpt><trkpt lat="59.0955233574" lon="29.9969029427"><time>2026-04-22T11:30:35Z</time></trkpt><trkpt lat="59.0955233574" lon="29.9969029427"><time>2026-04-22T11:30:38Z</time></trkpt><trkpt lat="59.0955233574" lon="29.9969029427"><time>2026-04-22T11:30:40Z</time></trkpt><trkpt lat="59.0955233574" lon="29.9969029427"><time>2026-04-22T11:30:43Z</time></trkpt><trkpt lat="59.0955233574" lon="29.9969029427"><time>2026-04-22T11:30:45Z</time></trkpt><trkpt lat="59.0955233574" lon="29.9969029427"><time>2026-04-22T11:30:48Z</time></trkpt><trkpt lat="59.0955233574" lon="29.9969029427"><time>2026-04-22T11:30:50Z</time></trkpt><trkpt lat="59.0955233574" lon="29.9969029427"><time>2026-04-22T11:30:53Z</time></trkpt><trkpt lat="59.0955233574" lon="29.9969029427"><time>2026-04-22T11:30:55Z</time></trkpt><trkpt lat="59.0955233574" lon="29.9969029427"><time>2026-04-22T11:30:58Z</time></trkpt><trkpt lat="59.0955233574" lon="29.9969029427"><time>2026-04-22T11:31:00Z</time></trkpt><trkpt lat="59.0955233574" lon="29.9969029427"><time>2026-04-22T11:31:03Z</time></trkpt><trkpt lat="59.0955233574" lon="29.9969029427"><time>2026-04-22T11:31:05Z</time></trkpt><trkpt lat="59.0955233574" lon="29.9969029427"><time>2026-04-22T11:31:08Z</time></trkpt><trkpt lat="59.0955448151" lon="29.9969029427"><time>2026-04-22T11:31:10Z</time></trkpt><trkpt lat="59.0955448151" lon="29.9969029427"><time>2026-04-22T11:31:13Z</time></trkpt><trkpt lat="59.0955448151" lon="29.9969029427"><time>2026-04-22T11:31:15Z</time></trkpt><trkpt lat="59.0955448151" lon="29.9969029427"><time>2026-04-22T11:31:18Z</time></trkpt><trkpt lat="59.0955448151" lon="29.9969029427"><time>2026-04-22T11:31:20Z</time></trkpt><trkpt lat="59.0955448151" lon="29.9969029427"><time>2026-04-22T11:31:23Z</time></trkpt><trkpt lat="59.0955448151" lon="29.9969029427"><time>2026-04-22T11:31:25Z</time></trkpt><trkpt lat="59.0955448151" lon="29.9969029427"><time>2026-04-22T11:31:28Z</time></trkpt><trkpt lat="59.0955448151" lon="29.9969029427"><time>2026-04-22T11:31:30Z</time></trkpt><trkpt lat="59.0955448151" lon="29.9969029427"><time>2026-04-22T11:31:33Z</time></trkpt><trkpt lat="59.0955448151" lon="29.9969029427"><time>2026-04-22T11:31:35Z</time></trkpt><trkpt lat="59.0955448151" lon="29.9969029427"><time>2026-04-22T11:31:38Z</time></trkpt><trkpt lat="59.0955448151" lon="29.9969029427"><time>2026-04-22T11:31:40Z</time></trkpt><trkpt lat="59.0955448151" lon="29.9969029427"><time>2026-04-22T11:31:43Z</time></trkpt><trkpt lat="59.0955448151" lon="29.9969029427"><time>2026-04-22T11:31:45Z</time></trkpt><trkpt lat="59.0955448151" lon="29.9969029427"><time>2026-04-22T11:31:48Z</time></trkpt><trkpt lat="59.0955448151" lon="29.9969029427"><time>2026-04-22T11:31:50Z</time></trkpt><trkpt lat="59.0955448151" lon="29.9969244003"><time>2026-04-22T11:31:53Z</time></trkpt><trkpt lat="59.0955448151" lon="29.9969244003"><time>2026-04-22T11:31:55Z</time></trkpt><trkpt lat="59.0955448151" lon="29.9969244003"><time>2026-04-22T11:31:58Z</time></trkpt><trkpt lat="59.0955448151" lon="29.9969244003"><time>2026-04-22T11:32:00Z</time></trkpt><trkpt lat="59.0955448151" lon="29.9969244003"><time>2026-04-22T11:32:03Z</time></trkpt><trkpt lat="59.0955448151" lon="29.9969244003"><time>2026-04-22T11:32:05Z</time></trkpt><trkpt lat="59.0955448151" lon="29.9969673157"><time>2026-04-22T11:32:08Z</time></trkpt><trkpt lat="59.0955018997" lon="29.9969887733"><time>2026-04-22T11:32:13Z</time></trkpt><trkpt lat="59.0954804420" lon="29.9970316887"><time>2026-04-22T11:32:15Z</time></trkpt><trkpt lat="59.0954375267" lon="29.9971175194"><time>2026-04-22T11:32:18Z</time></trkpt><trkpt lat="59.0954375267" lon="29.9971818924"><time>2026-04-22T11:32:20Z</time></trkpt><trkpt lat="59.0954375267" lon="29.9972248077"><time>2026-04-22T11:32:23Z</time></trkpt><trkpt lat="59.0954375267" lon="29.9972677231"><time>2026-04-22T11:32:28Z</time></trkpt><trkpt lat="59.0954375267" lon="29.9972677231"><time>2026-04-22T11:32:30Z</time></trkpt><trkpt lat="59.0954375267" lon="29.9973106384"><time>2026-04-22T11:32:33Z</time></trkpt><trkpt lat="59.0954160690" lon="29.9973750114"><time>2026-04-22T11:32:35Z</time></trkpt><trkpt lat="59.0954160690" lon="29.9974608421"><time>2026-04-22T11:32:38Z</time></trkpt><trkpt lat="59.0953946114" lon="29.9975037575"><time>2026-04-22T11:32:40Z</time></trkpt><trkpt lat="59.0953946114" lon="29.9975037575"><time>2026-04-22T11:32:43Z</time></trkpt><trkpt lat="59.0953731537" lon="29.9975252151"><time>2026-04-22T11:32:45Z</time></trkpt><trkpt lat="59.0953731537" lon="29.9975252151"><time>2026-04-22T11:32:48Z</time></trkpt><trkpt lat="59.0953516960" lon="29.9975037575"><time>2026-04-22T11:32:50Z</time></trkpt><trkpt lat="59.0953516960" lon="29.9975037575"><time>2026-04-22T11:32:53Z</time></trkpt><trkpt lat="59.0953302383" lon="29.9975681305"><time>2026-04-22T11:32:55Z</time></trkpt><trkpt lat="59.0953302383" lon="29.9976325035"><time>2026-04-22T11:32:58Z</time></trkpt><trkpt lat="59.0953516960" lon="29.9976325035"><time>2026-04-22T11:33:00Z</time></trkpt><trkpt lat="59.0953516960" lon="29.9976110458"><time>2026-04-22T11:33:03Z</time></trkpt><trkpt lat="59.0953087807" lon="29.9977397919"><time>2026-04-22T11:33:08Z</time></trkpt><trkpt lat="59.0952658653" lon="29.9978470802"><time>2026-04-22T11:33:10Z</time></trkpt><trkpt lat="59.0952229500" lon="29.9979114532"><time>2026-04-22T11:33:13Z</time></trkpt><trkpt lat="59.0951800346" lon="29.9979758263"><time>2026-04-22T11:33:15Z</time></trkpt><trkpt lat="59.0951371193" lon="29.9980187416"><time>2026-04-22T11:33:18Z</time></trkpt><trkpt lat="59.0951156616" lon="29.9980401993"><time>2026-04-22T11:33:20Z</time></trkpt><trkpt lat="59.0951156616" lon="29.9980401993"><time>2026-04-22T11:33:23Z</time></trkpt><trkpt lat="59.0951156616" lon="29.9979114532"><time>2026-04-22T11:33:25Z</time></trkpt><trkpt lat="59.0951371193" lon="29.9978685379"><time>2026-04-22T11:33:28Z</time></trkpt><trkpt lat="59.0951585770" lon="29.9978041649"><time>2026-04-22T11:33:30Z</time></trkpt><trkpt lat="59.0951371193" lon="29.9978041649"><time>2026-04-22T11:33:33Z</time></trkpt><trkpt lat="59.0951156616" lon="29.9978041649"><time>2026-04-22T11:33:35Z</time></trkpt><trkpt lat="59.0950942039" lon="29.9978256226"><time>2026-04-22T11:33:38Z</time></trkpt><trkpt lat="59.0950727463" lon="29.9978470802"><time>2026-04-22T11:33:40Z</time></trkpt><trkpt lat="59.0950512886" lon="29.9978470802"><time>2026-04-22T11:33:43Z</time></trkpt><trkpt lat="59.0949654579" lon="29.9978470802"><time>2026-04-22T11:33:45Z</time></trkpt><trkpt lat="59.0949225426" lon="29.9978470802"><time>2026-04-22T11:33:48Z</time></trkpt><trkpt lat="59.0948796272" lon="29.9978470802"><time>2026-04-22T11:33:50Z</time></trkpt><trkpt lat="59.0948367119" lon="29.9978470802"><time>2026-04-22T11:33:53Z</time></trkpt><trkpt lat="59.0948367119" lon="29.9978470802"><time>2026-04-22T11:33:55Z</time></trkpt><trkpt lat="59.0948367119" lon="29.9978470802"><time>2026-04-22T11:33:58Z</time></trkpt><trkpt lat="59.0948367119" lon="29.9978470802"><time>2026-04-22T11:34:00Z</time></trkpt><trkpt lat="59.0948367119" lon="29.9978470802"><time>2026-04-22T11:34:03Z</time></trkpt><trkpt lat="59.0948367119" lon="29.9978685379"><time>2026-04-22T11:34:05Z</time></trkpt><trkpt lat="59.0948581696" lon="29.9978899956"><time>2026-04-22T11:34:08Z</time></trkpt><trkpt lat="59.0948581696" lon="29.9978899956"><time>2026-04-22T11:34:10Z</time></trkpt><trkpt lat="59.0948581696" lon="29.9978899956"><time>2026-04-22T11:34:13Z</time></trkpt><trkpt lat="59.0948581696" lon="29.9978899956"><time>2026-04-22T11:34:15Z</time></trkpt><trkpt lat="59.0948581696" lon="29.9978899956"><time>2026-04-22T11:34:18Z</time></trkpt><trkpt lat="59.0948581696" lon="29.9978899956"><time>2026-04-22T11:34:20Z</time></trkpt><trkpt lat="59.0948581696" lon="29.9978899956"><time>2026-04-22T11:34:23Z</time></trkpt><trkpt lat="59.0948581696" lon="29.9978899956"><time>2026-04-22T11:34:25Z</time></trkpt><trkpt lat="59.0948581696" lon="29.9978899956"><time>2026-04-22T11:34:28Z</time></trkpt><trkpt lat="59.0948581696" lon="29.9978899956"><time>2026-04-22T11:34:30Z</time></trkpt><trkpt lat="59.0948581696" lon="29.9978899956"><time>2026-04-22T11:34:33Z</time></trkpt><trkpt lat="59.0948581696" lon="29.9978899956"><time>2026-04-22T11:34:35Z</time></trkpt><trkpt lat="59.0948581696" lon="29.9978899956"><time>2026-04-22T11:34:38Z</time></trkpt><trkpt lat="59.0948581696" lon="29.9978899956"><time>2026-04-22T11:34:40Z</time></trkpt><trkpt lat="59.0948581696" lon="29.9978899956"><time>2026-04-22T11:34:43Z</time></trkpt><trkpt lat="59.0948581696" lon="29.9978899956"><time>2026-04-22T11:34:45Z</time></trkpt><trkpt lat="59.0948581696" lon="29.9978899956"><time>2026-04-22T11:34:48Z</time></trkpt><trkpt lat="59.0948581696" lon="29.9978899956"><time>2026-04-22T11:34:50Z</time></trkpt><trkpt lat="59.0948581696" lon="29.9978899956"><time>2026-04-22T11:34:53Z</time></trkpt><trkpt lat="59.0948581696" lon="29.9978899956"><time>2026-04-22T11:34:55Z</time></trkpt><trkpt lat="59.0948581696" lon="29.9978899956"><time>2026-04-22T11:34:58Z</time></trkpt><trkpt lat="59.0948581696" lon="29.9978899956"><time>2026-04-22T11:35:00Z</time></trkpt><trkpt lat="59.0948367119" lon="29.9979114532"><time>2026-04-22T11:35:03Z</time></trkpt><trkpt lat="59.0948152542" lon="29.9979329109"><time>2026-04-22T11:35:05Z</time></trkpt><trkpt lat="59.0948152542" lon="29.9979758263"><time>2026-04-22T11:35:08Z</time></trkpt><trkpt lat="59.0947937965" lon="29.9979972839"><time>2026-04-22T11:35:10Z</time></trkpt><trkpt lat="59.0947723389" lon="29.9980187416"><time>2026-04-22T11:35:13Z</time></trkpt><trkpt lat="59.0947294235" lon="29.9980831146"><time>2026-04-22T11:35:15Z</time></trkpt><trkpt lat="59.0947294235" lon="29.9981045723"><time>2026-04-22T11:35:18Z</time></trkpt><trkpt lat="59.0946650505" lon="29.9981260300"><time>2026-04-22T11:35:20Z</time></trkpt><trkpt lat="59.0946650505" lon="29.9981689453"><time>2026-04-22T11:35:23Z</time></trkpt><trkpt lat="59.0946435928" lon="29.9981689453"><time>2026-04-22T11:35:25Z</time></trkpt><trkpt lat="59.0946435928" lon="29.9981689453"><time>2026-04-22T11:35:28Z</time></trkpt><trkpt lat="59.0946435928" lon="29.9981689453"><time>2026-04-22T11:35:30Z</time></trkpt><trkpt lat="59.0946435928" lon="29.9981689453"><time>2026-04-22T11:35:33Z</time></trkpt><trkpt lat="59.0946435928" lon="29.9981474876"><time>2026-04-22T11:35:35Z</time></trkpt><trkpt lat="59.0946435928" lon="29.9981045723"><time>2026-04-22T11:35:38Z</time></trkpt><trkpt lat="59.0946221352" lon="29.9980616570"><time>2026-04-22T11:35:40Z</time></trkpt><trkpt lat="59.0946221352" lon="29.9980187416"><time>2026-04-22T11:35:43Z</time></trkpt><trkpt lat="59.0946650505" lon="29.9979329109"><time>2026-04-22T11:35:45Z</time></trkpt><trkpt lat="59.0946650505" lon="29.9979329109"><time>2026-04-22T11:35:48Z</time></trkpt><trkpt lat="59.0946650505" lon="29.9979114532"><time>2026-04-22T11:35:50Z</time></trkpt><trkpt lat="59.0946221352" lon="29.9978470802"><time>2026-04-22T11:35:53Z</time></trkpt><trkpt lat="59.0945792198" lon="29.9976968765"><time>2026-04-22T11:35:55Z</time></trkpt><trkpt lat="59.0945363045" lon="29.9976325035"><time>2026-04-22T11:35:58Z</time></trkpt><trkpt lat="59.0945148468" lon="29.9975895882"><time>2026-04-22T11:36:00Z</time></trkpt><trkpt lat="59.0945148468" lon="29.9975037575"><time>2026-04-22T11:36:03Z</time></trkpt><trkpt lat="59.0945363045" lon="29.9973750114"><time>2026-04-22T11:36:05Z</time></trkpt><trkpt lat="59.0945577621" lon="29.9973106384"><time>2026-04-22T11:36:08Z</time></trkpt><trkpt lat="59.0945577621" lon="29.9972891808"><time>2026-04-22T11:36:10Z</time></trkpt><trkpt lat="59.0945363045" lon="29.9972891808"><time>2026-04-22T11:36:13Z</time></trkpt><trkpt lat="59.0944933891" lon="29.9972677231"><time>2026-04-22T11:36:15Z</time></trkpt><trkpt lat="59.0944719315" lon="29.9972248077"><time>2026-04-22T11:36:18Z</time></trkpt><trkpt lat="59.0944719315" lon="29.9971389771"><time>2026-04-22T11:36:20Z</time></trkpt><trkpt lat="59.0944933891" lon="29.9971175194"><time>2026-04-22T11:36:23Z</time></trkpt><trkpt lat="59.0945148468" lon="29.9971175194"><time>2026-04-22T11:36:28Z</time></trkpt><trkpt lat="59.0945148468" lon="29.9971175194"><time>2026-04-22T11:36:30Z</time></trkpt><trkpt lat="59.0945148468" lon="29.9971175194"><time>2026-04-22T11:36:33Z</time></trkpt><trkpt lat="59.0945148468" lon="29.9971175194"><time>2026-04-22T11:36:35Z</time></trkpt><trkpt lat="59.0945148468" lon="29.9971175194"><time>2026-04-22T11:36:38Z</time></trkpt><trkpt lat="59.0945148468" lon="29.9971175194"><time>2026-04-22T11:36:40Z</time></trkpt><trkpt lat="59.0945148468" lon="29.9971175194"><time>2026-04-22T11:36:43Z</time></trkpt><trkpt lat="59.0945148468" lon="29.9971175194"><time>2026-04-22T11:36:45Z</time></trkpt><trkpt lat="59.0945148468" lon="29.9971175194"><time>2026-04-22T11:36:48Z</time></trkpt><trkpt lat="59.0945148468" lon="29.9971175194"><time>2026-04-22T11:36:50Z</time></trkpt><trkpt lat="59.0945148468" lon="29.9971175194"><time>2026-04-22T11:36:53Z</time></trkpt><trkpt lat="59.0945363045" lon="29.9970531464"><time>2026-04-22T11:36:55Z</time></trkpt><trkpt lat="59.0945363045" lon="29.9970531464"><time>2026-04-22T11:36:58Z</time></trkpt><trkpt lat="59.0946221352" lon="29.9970531464"><time>2026-04-22T11:37:00Z</time></trkpt><trkpt lat="59.0946650505" lon="29.9970531464"><time>2026-04-22T11:37:03Z</time></trkpt><trkpt lat="59.0947079659" lon="29.9970531464"><time>2026-04-22T11:37:05Z</time></trkpt><trkpt lat="59.0947294235" lon="29.9970531464"><time>2026-04-22T11:37:08Z</time></trkpt><trkpt lat="59.0947723389" lon="29.9969887733"><time>2026-04-22T11:37:10Z</time></trkpt><trkpt lat="59.0947937965" lon="29.9969244003"><time>2026-04-22T11:37:13Z</time></trkpt><trkpt lat="59.0948152542" lon="29.9968385696"><time>2026-04-22T11:37:15Z</time></trkpt><trkpt lat="59.0948367119" lon="29.9967956543"><time>2026-04-22T11:37:18Z</time></trkpt><trkpt lat="59.0948152542" lon="29.9967741966"><time>2026-04-22T11:37:20Z</time></trkpt><trkpt lat="59.0948367119" lon="29.9967312813"><time>2026-04-22T11:37:23Z</time></trkpt><trkpt lat="59.0948152542" lon="29.9967312813"><time>2026-04-22T11:37:25Z</time></trkpt><trkpt lat="59.0948152542" lon="29.9967312813"><time>2026-04-22T11:37:28Z</time></trkpt><trkpt lat="59.0948152542" lon="29.9966883659"><time>2026-04-22T11:37:30Z</time></trkpt><trkpt lat="59.0947937965" lon="29.9966454506"><time>2026-04-22T11:37:33Z</time></trkpt><trkpt lat="59.0947723389" lon="29.9965810776"><time>2026-04-22T11:37:35Z</time></trkpt><trkpt lat="59.0947723389" lon="29.9965167046"><time>2026-04-22T11:37:38Z</time></trkpt><trkpt lat="59.0947508812" lon="29.9964523315"><time>2026-04-22T11:37:40Z</time></trkpt><trkpt lat="59.0947508812" lon="29.9964523315"><time>2026-04-22T11:37:43Z</time></trkpt><trkpt lat="59.0947508812" lon="29.9964523315"><time>2026-04-22T11:37:45Z</time></trkpt><trkpt lat="59.0947294235" lon="29.9964308739"><time>2026-04-22T11:37:48Z</time></trkpt><trkpt lat="59.0947508812" lon="29.9964308739"><time>2026-04-22T11:37:50Z</time></trkpt><trkpt lat="59.0947937965" lon="29.9964523315"><time>2026-04-22T11:37:53Z</time></trkpt><trkpt lat="59.0948367119" lon="29.9964308739"><time>2026-04-22T11:37:55Z</time></trkpt><trkpt lat="59.0948796272" lon="29.9964737892"><time>2026-04-22T11:37:58Z</time></trkpt><trkpt lat="59.0949440002" lon="29.9964952469"><time>2026-04-22T11:38:00Z</time></trkpt><trkpt lat="59.0949654579" lon="29.9964523315"><time>2026-04-22T11:38:03Z</time></trkpt><trkpt lat="59.0950083733" lon="29.9963879585"><time>2026-04-22T11:38:05Z</time></trkpt><trkpt lat="59.0950298309" lon="29.9963450432"><time>2026-04-22T11:38:08Z</time></trkpt><trkpt lat="59.0950512886" lon="29.9962806702"><time>2026-04-22T11:38:10Z</time></trkpt><trkpt lat="59.0950512886" lon="29.9962377548"><time>2026-04-22T11:38:13Z</time></trkpt><trkpt lat="59.0950512886" lon="29.9962377548"><time>2026-04-22T11:38:15Z</time></trkpt><trkpt lat="59.0950512886" lon="29.9962377548"><time>2026-04-22T11:38:18Z</time></trkpt><trkpt lat="59.0950727463" lon="29.9962162971"><time>2026-04-22T11:38:20Z</time></trkpt><trkpt lat="59.0950727463" lon="29.9962162971"><time>2026-04-22T11:38:23Z</time></trkpt><trkpt lat="59.0950942039" lon="29.9961733818"><time>2026-04-22T11:38:25Z</time></trkpt><trkpt lat="59.0951156616" lon="29.9961304665"><time>2026-04-22T11:38:28Z</time></trkpt><trkpt lat="59.0950942039" lon="29.9961519241"><time>2026-04-22T11:38:30Z</time></trkpt><trkpt lat="59.0950942039" lon="29.9961304665"><time>2026-04-22T11:38:33Z</time></trkpt><trkpt lat="59.0950942039" lon="29.9960660934"><time>2026-04-22T11:38:35Z</time></trkpt><trkpt lat="59.0951156616" lon="29.9960446358"><time>2026-04-22T11:38:38Z</time></trkpt><trkpt lat="59.0951156616" lon="29.9960446358"><time>2026-04-22T11:38:40Z</time></trkpt><trkpt lat="59.0951156616" lon="29.9960231781"><time>2026-04-22T11:38:43Z</time></trkpt><trkpt lat="59.0951156616" lon="29.9960017204"><time>2026-04-22T11:38:45Z</time></trkpt><trkpt lat="59.0951371193" lon="29.9960017204"><time>2026-04-22T11:38:48Z</time></trkpt><trkpt lat="59.0951371193" lon="29.9960017204"><time>2026-04-22T11:38:50Z</time></trkpt><trkpt lat="59.0951585770" lon="29.9960017204"><time>2026-04-22T11:38:53Z</time></trkpt><trkpt lat="59.0952014923" lon="29.9959588051"><time>2026-04-22T11:38:55Z</time></trkpt><trkpt lat="59.0952229500" lon="29.9959373474"><time>2026-04-22T11:38:58Z</time></trkpt><trkpt lat="59.0952658653" lon="29.9959158897"><time>2026-04-22T11:39:00Z</time></trkpt><trkpt lat="59.0952873230" lon="29.9959373474"><time>2026-04-22T11:39:03Z</time></trkpt><trkpt lat="59.0952873230" lon="29.9959373474"><time>2026-04-22T11:39:05Z</time></trkpt><trkpt lat="59.0952873230" lon="29.9959373474"><time>2026-04-22T11:39:08Z</time></trkpt><trkpt lat="59.0952658653" lon="29.9959588051"><time>2026-04-22T11:39:10Z</time></trkpt><trkpt lat="59.0952444077" lon="29.9960231781"><time>2026-04-22T11:39:13Z</time></trkpt><trkpt lat="59.0952444077" lon="29.9960660934"><time>2026-04-22T11:39:15Z</time></trkpt><trkpt lat="59.0952444077" lon="29.9960660934"><time>2026-04-22T11:39:18Z</time></trkpt><trkpt lat="59.0952444077" lon="29.9960660934"><time>2026-04-22T11:39:23Z</time></trkpt><trkpt lat="59.0952444077" lon="29.9960660934"><time>2026-04-22T11:39:25Z</time></trkpt><trkpt lat="59.0952444077" lon="29.9960660934"><time>2026-04-22T11:39:28Z</time></trkpt><trkpt lat="59.0952444077" lon="29.9960660934"><time>2026-04-22T11:39:30Z</time></trkpt><trkpt lat="59.0952444077" lon="29.9960660934"><time>2026-04-22T11:39:33Z</time></trkpt><trkpt lat="59.0952444077" lon="29.9960660934"><time>2026-04-22T11:39:35Z</time></trkpt><trkpt lat="59.0952229500" lon="29.9960660934"><time>2026-04-22T11:39:38Z</time></trkpt><trkpt lat="59.0952229500" lon="29.9960660934"><time>2026-04-22T11:39:40Z</time></trkpt><trkpt lat="59.0952444077" lon="29.9960446358"><time>2026-04-22T11:39:43Z</time></trkpt><trkpt lat="59.0952444077" lon="29.9960660934"><time>2026-04-22T11:39:45Z</time></trkpt><trkpt lat="59.0952444077" lon="29.9960660934"><time>2026-04-22T11:39:48Z</time></trkpt><trkpt lat="59.0952444077" lon="29.9960660934"><time>2026-04-22T11:39:50Z</time></trkpt><trkpt lat="59.0952444077" lon="29.9960660934"><time>2026-04-22T11:39:53Z</time></trkpt><trkpt lat="59.0952444077" lon="29.9960660934"><time>2026-04-22T11:39:55Z</time></trkpt><trkpt lat="59.0952444077" lon="29.9960660934"><time>2026-04-22T11:39:58Z</time></trkpt><trkpt lat="59.0952444077" lon="29.9960660934"><time>2026-04-22T11:40:00Z</time></trkpt><trkpt lat="59.0952444077" lon="29.9960660934"><time>2026-04-22T11:40:03Z</time></trkpt><trkpt lat="59.0952444077" lon="29.9960660934"><time>2026-04-22T11:40:05Z</time></trkpt><trkpt lat="59.0952444077" lon="29.9960660934"><time>2026-04-22T11:40:08Z</time></trkpt><trkpt lat="59.0952229500" lon="29.9960446358"><time>2026-04-22T11:40:10Z</time></trkpt><trkpt lat="59.0952229500" lon="29.9960446358"><time>2026-04-22T11:40:13Z</time></trkpt><trkpt lat="59.0952229500" lon="29.9960446358"><time>2026-04-22T11:40:15Z</time></trkpt><trkpt lat="59.0952444077" lon="29.9960446358"><time>2026-04-22T11:40:18Z</time></trkpt><trkpt lat="59.0952444077" lon="29.9960446358"><time>2026-04-22T11:40:20Z</time></trkpt><trkpt lat="59.0952444077" lon="29.9960446358"><time>2026-04-22T11:40:23Z</time></trkpt><trkpt lat="59.0952444077" lon="29.9960446358"><time>2026-04-22T11:40:25Z</time></trkpt><trkpt lat="59.0952444077" lon="29.9960446358"><time>2026-04-22T11:40:28Z</time></trkpt><trkpt lat="59.0952444077" lon="29.9960446358"><time>2026-04-22T11:40:30Z</time></trkpt><trkpt lat="59.0952444077" lon="29.9960446358"><time>2026-04-22T11:40:33Z</time></trkpt><trkpt lat="59.0952444077" lon="29.9960446358"><time>2026-04-22T11:40:35Z</time></trkpt><trkpt lat="59.0952658653" lon="29.9960446358"><time>2026-04-22T11:40:38Z</time></trkpt><trkpt lat="59.0952658653" lon="29.9960446358"><time>2026-04-22T11:40:40Z</time></trkpt><trkpt lat="59.0952658653" lon="29.9960446358"><time>2026-04-22T11:40:43Z</time></trkpt><trkpt lat="59.0952658653" lon="29.9960446358"><time>2026-04-22T11:40:45Z</time></trkpt><trkpt lat="59.0952658653" lon="29.9960446358"><time>2026-04-22T11:40:48Z</time></trkpt><trkpt lat="59.0952658653" lon="29.9960446358"><time>2026-04-22T11:40:50Z</time></trkpt><trkpt lat="59.0952658653" lon="29.9960446358"><time>2026-04-22T11:40:53Z</time></trkpt><trkpt lat="59.0952658653" lon="29.9960446358"><time>2026-04-22T11:40:55Z</time></trkpt><trkpt lat="59.0952658653" lon="29.9960446358"><time>2026-04-22T11:40:58Z</time></trkpt><trkpt lat="59.0952658653" lon="29.9960446358"><time>2026-04-22T11:41:00Z</time></trkpt><trkpt lat="59.0952658653" lon="29.9960446358"><time>2026-04-22T11:41:03Z</time></trkpt><trkpt lat="59.0952658653" lon="29.9960446358"><time>2026-04-22T11:41:05Z</time></trkpt><trkpt lat="59.0952658653" lon="29.9960446358"><time>2026-04-22T11:41:08Z</time></trkpt><trkpt lat="59.0952658653" lon="29.9960660934"><time>2026-04-22T11:41:10Z</time></trkpt><trkpt lat="59.0952658653" lon="29.9960660934"><time>2026-04-22T11:41:13Z</time></trkpt><trkpt lat="59.0952658653" lon="29.9960660934"><time>2026-04-22T11:41:15Z</time></trkpt><trkpt lat="59.0952658653" lon="29.9960660934"><time>2026-04-22T11:41:18Z</time></trkpt><trkpt lat="59.0952658653" lon="29.9960660934"><time>2026-04-22T11:41:20Z</time></trkpt><trkpt lat="59.0952658653" lon="29.9960660934"><time>2026-04-22T11:41:23Z</time></trkpt><trkpt lat="59.0952658653" lon="29.9960660934"><time>2026-04-22T11:41:25Z</time></trkpt><trkpt lat="59.0952444077" lon="29.9960660934"><time>2026-04-22T11:41:28Z</time></trkpt><trkpt lat="59.0952444077" lon="29.9960660934"><time>2026-04-22T11:41:30Z</time></trkpt><trkpt lat="59.0952444077" lon="29.9960660934"><time>2026-04-22T11:41:33Z</time></trkpt><trkpt lat="59.0952444077" lon="29.9960660934"><time>2026-04-22T11:41:35Z</time></trkpt><trkpt lat="59.0952444077" lon="29.9960660934"><time>2026-04-22T11:41:38Z</time></trkpt><trkpt lat="59.0952444077" lon="29.9960660934"><time>2026-04-22T11:41:40Z</time></trkpt><trkpt lat="59.0952444077" lon="29.9960660934"><time>2026-04-22T11:41:43Z</time></trkpt><trkpt lat="59.0952444077" lon="29.9960660934"><time>2026-04-22T11:41:45Z</time></trkpt><trkpt lat="59.0952444077" lon="29.9960660934"><time>2026-04-22T11:41:48Z</time></trkpt><trkpt lat="59.0952444077" lon="29.9960660934"><time>2026-04-22T11:41:50Z</time></trkpt><trkpt lat="59.0952444077" lon="29.9960660934"><time>2026-04-22T11:41:55Z</time></trkpt><trkpt lat="59.0952444077" lon="29.9960660934"><time>2026-04-22T11:41:58Z</time></trkpt><trkpt lat="59.0952444077" lon="29.9960660934"><time>2026-04-22T11:42:00Z</time></trkpt><trkpt lat="59.0952444077" lon="29.9960660934"><time>2026-04-22T11:42:03Z</time></trkpt><trkpt lat="59.0952444077" lon="29.9960660934"><time>2026-04-22T11:42:05Z</time></trkpt><trkpt lat="59.0952444077" lon="29.9960660934"><time>2026-04-22T11:42:08Z</time></trkpt><trkpt lat="59.0952444077" lon="29.9960660934"><time>2026-04-22T11:42:10Z</time></trkpt><trkpt lat="59.0952444077" lon="29.9960660934"><time>2026-04-22T11:42:13Z</time></trkpt><trkpt lat="59.0952229500" lon="29.9960660934"><time>2026-04-22T11:42:15Z</time></trkpt><trkpt lat="59.0952229500" lon="29.9960875511"><time>2026-04-22T11:42:18Z</time></trkpt><trkpt lat="59.0952229500" lon="29.9961090088"><time>2026-04-22T11:42:20Z</time></trkpt><trkpt lat="59.0952014923" lon="29.9961304665"><time>2026-04-22T11:42:23Z</time></trkpt><trkpt lat="59.0952014923" lon="29.9961090088"><time>2026-04-22T11:42:28Z</time></trkpt><trkpt lat="59.0952014923" lon="29.9961090088"><time>2026-04-22T11:42:30Z</time></trkpt><trkpt lat="59.0952014923" lon="29.9961090088"><time>2026-04-22T11:42:33Z</time></trkpt><trkpt lat="59.0952229500" lon="29.9960875511"><time>2026-04-22T11:42:35Z</time></trkpt><trkpt lat="59.0952229500" lon="29.9960660934"><time>2026-04-22T11:42:38Z</time></trkpt><trkpt lat="59.0952229500" lon="29.9960875511"><time>2026-04-22T11:42:40Z</time></trkpt><trkpt lat="59.0952229500" lon="29.9960875511"><time>2026-04-22T11:42:43Z</time></trkpt><trkpt lat="59.0952229500" lon="29.9960875511"><time>2026-04-22T11:42:45Z</time></trkpt><trkpt lat="59.0952229500" lon="29.9960875511"><time>2026-04-22T11:42:48Z</time></trkpt><trkpt lat="59.0952229500" lon="29.9960875511"><time>2026-04-22T11:42:50Z</time></trkpt><trkpt lat="59.0952229500" lon="29.9960875511"><time>2026-04-22T11:42:53Z</time></trkpt><trkpt lat="59.0952229500" lon="29.9960875511"><time>2026-04-22T11:42:55Z</time></trkpt><trkpt lat="59.0952229500" lon="29.9960875511"><time>2026-04-22T11:42:58Z</time></trkpt><trkpt lat="59.0952229500" lon="29.9960875511"><time>2026-04-22T11:43:00Z</time></trkpt><trkpt lat="59.0952229500" lon="29.9960875511"><time>2026-04-22T11:43:03Z</time></trkpt><trkpt lat="59.0952229500" lon="29.9960875511"><time>2026-04-22T11:43:05Z</time></trkpt><trkpt lat="59.0952229500" lon="29.9960875511"><time>2026-04-22T11:43:08Z</time></trkpt><trkpt lat="59.0952014923" lon="29.9961090088"><time>2026-04-22T11:43:10Z</time></trkpt><trkpt lat="59.0952014923" lon="29.9961090088"><time>2026-04-22T11:43:13Z</time></trkpt><trkpt lat="59.0952014923" lon="29.9961090088"><time>2026-04-22T11:43:15Z</time></trkpt><trkpt lat="59.0952014923" lon="29.9961090088"><time>2026-04-22T11:43:18Z</time></trkpt><trkpt lat="59.0952014923" lon="29.9961090088"><time>2026-04-22T11:43:20Z</time></trkpt><trkpt lat="59.0952014923" lon="29.9961090088"><time>2026-04-22T11:43:23Z</time></trkpt><trkpt lat="59.0952229500" lon="29.9961090088"><time>2026-04-22T11:43:25Z</time></trkpt><trkpt lat="59.0952229500" lon="29.9961090088"><time>2026-04-22T11:43:28Z</time></trkpt><trkpt lat="59.0952229500" lon="29.9961090088"><time>2026-04-22T11:43:30Z</time></trkpt><trkpt lat="59.0952229500" lon="29.9961090088"><time>2026-04-22T11:43:33Z</time></trkpt><trkpt lat="59.0952229500" lon="29.9961090088"><time>2026-04-22T11:43:35Z</time></trkpt><trkpt lat="59.0952229500" lon="29.9961090088"><time>2026-04-22T11:43:38Z</time></trkpt><trkpt lat="59.0952229500" lon="29.9961090088"><time>2026-04-22T11:43:40Z</time></trkpt><trkpt lat="59.0952229500" lon="29.9961090088"><time>2026-04-22T11:43:43Z</time></trkpt><trkpt lat="59.0952229500" lon="29.9961090088"><time>2026-04-22T11:43:45Z</time></trkpt><trkpt lat="59.0952229500" lon="29.9961090088"><time>2026-04-22T11:43:48Z</time></trkpt><trkpt lat="59.0952229500" lon="29.9961090088"><time>2026-04-22T11:43:50Z</time></trkpt><trkpt lat="59.0952229500" lon="29.9961090088"><time>2026-04-22T11:43:53Z</time></trkpt><trkpt lat="59.0952229500" lon="29.9961090088"><time>2026-04-22T11:43:55Z</time></trkpt><trkpt lat="59.0952229500" lon="29.9961090088"><time>2026-04-22T11:43:58Z</time></trkpt><trkpt lat="59.0952229500" lon="29.9961090088"><time>2026-04-22T11:44:00Z</time></trkpt><trkpt lat="59.0952229500" lon="29.9961090088"><time>2026-04-22T11:44:03Z</time></trkpt><trkpt lat="59.0952229500" lon="29.9961090088"><time>2026-04-22T11:44:05Z</time></trkpt><trkpt lat="59.0952229500" lon="29.9961090088"><time>2026-04-22T11:44:08Z</time></trkpt><trkpt lat="59.0952229500" lon="29.9961090088"><time>2026-04-22T11:44:10Z</time></trkpt><trkpt lat="59.0952229500" lon="29.9961090088"><time>2026-04-22T11:44:13Z</time></trkpt><trkpt lat="59.0952229500" lon="29.9961090088"><time>2026-04-22T11:44:15Z</time></trkpt><trkpt lat="59.0952229500" lon="29.9961090088"><time>2026-04-22T11:44:18Z</time></trkpt><trkpt lat="59.0952229500" lon="29.9961090088"><time>2026-04-22T11:44:20Z</time></trkpt><trkpt lat="59.0952229500" lon="29.9961090088"><time>2026-04-22T11:44:23Z</time></trkpt><trkpt lat="59.0952229500" lon="29.9961090088"><time>2026-04-22T11:44:25Z</time></trkpt><trkpt lat="59.0952229500" lon="29.9961090088"><time>2026-04-22T11:44:28Z</time></trkpt><trkpt lat="59.0952229500" lon="29.9961090088"><time>2026-04-22T11:44:30Z</time></trkpt><trkpt lat="59.0952229500" lon="29.9961090088"><time>2026-04-22T11:44:33Z</time></trkpt><trkpt lat="59.0952229500" lon="29.9961090088"><time>2026-04-22T11:44:35Z</time></trkpt><trkpt lat="59.0952229500" lon="29.9961090088"><time>2026-04-22T11:44:38Z</time></trkpt><trkpt lat="59.0952229500" lon="29.9961090088"><time>2026-04-22T11:44:40Z</time></trkpt><trkpt lat="59.0952229500" lon="29.9961090088"><time>2026-04-22T11:44:43Z</time></trkpt><trkpt lat="59.0952229500" lon="29.9961090088"><time>2026-04-22T11:44:45Z</time></trkpt><trkpt lat="59.0952229500" lon="29.9961090088"><time>2026-04-22T11:44:48Z</time></trkpt><trkpt lat="59.0952229500" lon="29.9961090088"><time>2026-04-22T11:44:50Z</time></trkpt><trkpt lat="59.0952229500" lon="29.9961090088"><time>2026-04-22T11:44:53Z</time></trkpt><trkpt lat="59.0952229500" lon="29.9961090088"><time>2026-04-22T11:44:55Z</time></trkpt><trkpt lat="59.0952229500" lon="29.9961090088"><time>2026-04-22T11:44:58Z</time></trkpt><trkpt lat="59.0952229500" lon="29.9961090088"><time>2026-04-22T11:45:00Z</time></trkpt><trkpt lat="59.0952229500" lon="29.9961090088"><time>2026-04-22T11:45:03Z</time></trkpt><trkpt lat="59.0952229500" lon="29.9961090088"><time>2026-04-22T11:45:05Z</time></trkpt><trkpt lat="59.0952229500" lon="29.9961090088"><time>2026-04-22T11:45:08Z</time></trkpt><trkpt lat="59.0952229500" lon="29.9961090088"><time>2026-04-22T11:45:10Z</time></trkpt><trkpt lat="59.0952229500" lon="29.9961090088"><time>2026-04-22T11:45:13Z</time></trkpt><trkpt lat="59.0952229500" lon="29.9961090088"><time>2026-04-22T11:45:15Z</time></trkpt><trkpt lat="59.0952229500" lon="29.9961090088"><time>2026-04-22T11:45:18Z</time></trkpt><trkpt lat="59.0952229500" lon="29.9961090088"><time>2026-04-22T11:45:20Z</time></trkpt><trkpt lat="59.0952229500" lon="29.9961090088"><time>2026-04-22T11:45:23Z</time></trkpt><trkpt lat="59.0952229500" lon="29.9961090088"><time>2026-04-22T11:45:25Z</time></trkpt><trkpt lat="59.0952229500" lon="29.9961090088"><time>2026-04-22T11:45:28Z</time></trkpt><trkpt lat="59.0952229500" lon="29.9961090088"><time>2026-04-22T11:45:30Z</time></trkpt><trkpt lat="59.0952229500" lon="29.9961090088"><time>2026-04-22T11:45:33Z</time></trkpt><trkpt lat="59.0952229500" lon="29.9961090088"><time>2026-04-22T11:45:35Z</time></trkpt><trkpt lat="59.0952229500" lon="29.9961304665"><time>2026-04-22T11:45:38Z</time></trkpt><trkpt lat="59.0952229500" lon="29.9961304665"><time>2026-04-22T11:45:40Z</time></trkpt><trkpt lat="59.0952229500" lon="29.9961304665"><time>2026-04-22T11:45:43Z</time></trkpt><trkpt lat="59.0952229500" lon="29.9961304665"><time>2026-04-22T11:45:45Z</time></trkpt><trkpt lat="59.0952229500" lon="29.9961304665"><time>2026-04-22T11:45:48Z</time></trkpt><trkpt lat="59.0952229500" lon="29.9961304665"><time>2026-04-22T11:45:50Z</time></trkpt><trkpt lat="59.0952229500" lon="29.9961304665"><time>2026-04-22T11:45:53Z</time></trkpt><trkpt lat="59.0952229500" lon="29.9961304665"><time>2026-04-22T11:45:55Z</time></trkpt><trkpt lat="59.0952229500" lon="29.9961304665"><time>2026-04-22T11:45:58Z</time></trkpt><trkpt lat="59.0952229500" lon="29.9961090088"><time>2026-04-22T11:46:00Z</time></trkpt><trkpt lat="59.0952229500" lon="29.9961090088"><time>2026-04-22T11:46:03Z</time></trkpt><trkpt lat="59.0952014923" lon="29.9961090088"><time>2026-04-22T11:46:05Z</time></trkpt><trkpt lat="59.0952014923" lon="29.9961090088"><time>2026-04-22T11:46:08Z</time></trkpt><trkpt lat="59.0952014923" lon="29.9961090088"><time>2026-04-22T11:46:13Z</time></trkpt><trkpt lat="59.0952014923" lon="29.9961090088"><time>2026-04-22T11:46:15Z</time></trkpt><trkpt lat="59.0952014923" lon="29.9961090088"><time>2026-04-22T11:46:18Z</time></trkpt><trkpt lat="59.0952014923" lon="29.9961090088"><time>2026-04-22T11:46:20Z</time></trkpt><trkpt lat="59.0952014923" lon="29.9961090088"><time>2026-04-22T11:46:23Z</time></trkpt><trkpt lat="59.0952014923" lon="29.9961090088"><time>2026-04-22T11:46:25Z</time></trkpt><trkpt lat="59.0952014923" lon="29.9961090088"><time>2026-04-22T11:46:28Z</time></trkpt><trkpt lat="59.0952014923" lon="29.9961090088"><time>2026-04-22T11:46:30Z</time></trkpt><trkpt lat="59.0952014923" lon="29.9961090088"><time>2026-04-22T11:46:33Z</time></trkpt><trkpt lat="59.0952014923" lon="29.9961090088"><time>2026-04-22T11:46:35Z</time></trkpt><trkpt lat="59.0952014923" lon="29.9961090088"><time>2026-04-22T11:46:38Z</time></trkpt><trkpt lat="59.0952014923" lon="29.9961090088"><time>2026-04-22T11:46:40Z</time></trkpt><trkpt lat="59.0952014923" lon="29.9961090088"><time>2026-04-22T11:46:43Z</time></trkpt><trkpt lat="59.0952014923" lon="29.9961090088"><time>2026-04-22T11:46:45Z</time></trkpt><trkpt lat="59.0952014923" lon="29.9961090088"><time>2026-04-22T11:46:48Z</time></trkpt><trkpt lat="59.0952014923" lon="29.9961090088"><time>2026-04-22T11:46:50Z</time></trkpt><trkpt lat="59.0952014923" lon="29.9961090088"><time>2026-04-22T11:46:53Z</time></trkpt><trkpt lat="59.0952014923" lon="29.9961090088"><time>2026-04-22T11:46:55Z</time></trkpt><trkpt lat="59.0952229500" lon="29.9961090088"><time>2026-04-22T11:46:58Z</time></trkpt><trkpt lat="59.0952229500" lon="29.9961090088"><time>2026-04-22T11:47:00Z</time></trkpt><trkpt lat="59.0952229500" lon="29.9961090088"><time>2026-04-22T11:47:03Z</time></trkpt><trkpt lat="59.0952229500" lon="29.9961090088"><time>2026-04-22T11:47:05Z</time></trkpt><trkpt lat="59.0952229500" lon="29.9961090088"><time>2026-04-22T11:47:08Z</time></trkpt><trkpt lat="59.0952229500" lon="29.9961090088"><time>2026-04-22T11:47:10Z</time></trkpt><trkpt lat="59.0952229500" lon="29.9961090088"><time>2026-04-22T11:47:13Z</time></trkpt><trkpt lat="59.0952229500" lon="29.9961090088"><time>2026-04-22T11:47:15Z</time></trkpt><trkpt lat="59.0952229500" lon="29.9961090088"><time>2026-04-22T11:47:18Z</time></trkpt><trkpt lat="59.0952229500" lon="29.9961090088"><time>2026-04-22T11:47:20Z</time></trkpt><trkpt lat="59.0952229500" lon="29.9961090088"><time>2026-04-22T11:47:23Z</time></trkpt><trkpt lat="59.0952229500" lon="29.9961090088"><time>2026-04-22T11:47:25Z</time></trkpt><trkpt lat="59.0952229500" lon="29.9961090088"><time>2026-04-22T11:47:28Z</time></trkpt><trkpt lat="59.0952229500" lon="29.9961090088"><time>2026-04-22T11:47:30Z</time></trkpt><trkpt lat="59.0952229500" lon="29.9961090088"><time>2026-04-22T11:47:33Z</time></trkpt><trkpt lat="59.0952229500" lon="29.9961090088"><time>2026-04-22T11:47:35Z</time></trkpt><trkpt lat="59.0952229500" lon="29.9961090088"><time>2026-04-22T11:47:38Z</time></trkpt><trkpt lat="59.0952229500" lon="29.9961090088"><time>2026-04-22T11:47:40Z</time></trkpt><trkpt lat="59.0952229500" lon="29.9961090088"><time>2026-04-22T11:47:43Z</time></trkpt><trkpt lat="59.0952229500" lon="29.9961090088"><time>2026-04-22T11:47:45Z</time></trkpt><trkpt lat="59.0952229500" lon="29.9961090088"><time>2026-04-22T11:47:48Z</time></trkpt><trkpt lat="59.0952229500" lon="29.9961090088"><time>2026-04-22T11:47:50Z</time></trkpt><trkpt lat="59.0952229500" lon="29.9961090088"><time>2026-04-22T11:47:53Z</time></trkpt><trkpt lat="59.0952229500" lon="29.9961090088"><time>2026-04-22T11:47:55Z</time></trkpt><trkpt lat="59.0952229500" lon="29.9961090088"><time>2026-04-22T11:47:58Z</time></trkpt><trkpt lat="59.0952229500" lon="29.9961090088"><time>2026-04-22T11:48:00Z</time></trkpt><trkpt lat="59.0952229500" lon="29.9961090088"><time>2026-04-22T11:48:03Z</time></trkpt><trkpt lat="59.0952229500" lon="29.9961090088"><time>2026-04-22T11:48:05Z</time></trkpt><trkpt lat="59.0952229500" lon="29.9961090088"><time>2026-04-22T11:48:08Z</time></trkpt><trkpt lat="59.0952229500" lon="29.9961090088"><time>2026-04-22T11:48:10Z</time></trkpt><trkpt lat="59.0952229500" lon="29.9961090088"><time>2026-04-22T11:48:13Z</time></trkpt><trkpt lat="59.0952229500" lon="29.9961090088"><time>2026-04-22T11:48:15Z</time></trkpt><trkpt lat="59.0952229500" lon="29.9961090088"><time>2026-04-22T11:48:18Z</time></trkpt><trkpt lat="59.0952229500" lon="29.9961090088"><time>2026-04-22T11:48:20Z</time></trkpt><trkpt lat="59.0952229500" lon="29.9961090088"><time>2026-04-22T11:48:23Z</time></trkpt><trkpt lat="59.0952229500" lon="29.9961090088"><time>2026-04-22T11:48:25Z</time></trkpt><trkpt lat="59.0952229500" lon="29.9961090088"><time>2026-04-22T11:48:28Z</time></trkpt><trkpt lat="59.0952229500" lon="29.9961090088"><time>2026-04-22T11:48:30Z</time></trkpt><trkpt lat="59.0952229500" lon="29.9961090088"><time>2026-04-22T11:48:33Z</time></trkpt><trkpt lat="59.0952229500" lon="29.9961090088"><time>2026-04-22T11:48:35Z</time></trkpt><trkpt lat="59.0952229500" lon="29.9961090088"><time>2026-04-22T11:48:38Z</time></trkpt><trkpt lat="59.0952229500" lon="29.9961090088"><time>2026-04-22T11:48:40Z</time></trkpt><trkpt lat="59.0952229500" lon="29.9961090088"><time>2026-04-22T11:48:43Z</time></trkpt><trkpt lat="59.0952229500" lon="29.9961090088"><time>2026-04-22T11:48:45Z</time></trkpt><trkpt lat="59.0952229500" lon="29.9961090088"><time>2026-04-22T11:48:48Z</time></trkpt><trkpt lat="59.0952229500" lon="29.9961090088"><time>2026-04-22T11:48:50Z</time></trkpt><trkpt lat="59.0952229500" lon="29.9961090088"><time>2026-04-22T11:48:53Z</time></trkpt><trkpt lat="59.0952229500" lon="29.9961090088"><time>2026-04-22T11:48:58Z</time></trkpt><trkpt lat="59.0952229500" lon="29.9961090088"><time>2026-04-22T11:49:00Z</time></trkpt><trkpt lat="59.0952229500" lon="29.9961090088"><time>2026-04-22T11:49:03Z</time></trkpt><trkpt lat="59.0952229500" lon="29.9961090088"><time>2026-04-22T11:49:05Z</time></trkpt><trkpt lat="59.0952229500" lon="29.9961090088"><time>2026-04-22T11:49:08Z</time></trkpt><trkpt lat="59.0952229500" lon="29.9961090088"><time>2026-04-22T11:49:10Z</time></trkpt><trkpt lat="59.0952229500" lon="29.9961090088"><time>2026-04-22T11:49:13Z</time></trkpt><trkpt lat="59.0952229500" lon="29.9961090088"><time>2026-04-22T11:49:15Z</time></trkpt><trkpt lat="59.0952229500" lon="29.9961090088"><time>2026-04-22T11:49:18Z</time></trkpt><trkpt lat="59.0952229500" lon="29.9961090088"><time>2026-04-22T11:49:20Z</time></trkpt><trkpt lat="59.0952229500" lon="29.9961090088"><time>2026-04-22T11:49:23Z</time></trkpt><trkpt lat="59.0952229500" lon="29.9961090088"><time>2026-04-22T11:49:25Z</time></trkpt><trkpt lat="59.0952229500" lon="29.9961090088"><time>2026-04-22T11:49:28Z</time></trkpt><trkpt lat="59.0952229500" lon="29.9961090088"><time>2026-04-22T11:49:30Z</time></trkpt><trkpt lat="59.0952229500" lon="29.9961090088"><time>2026-04-22T11:49:33Z</time></trkpt><trkpt lat="59.0952229500" lon="29.9961090088"><time>2026-04-22T11:49:35Z</time></trkpt><trkpt lat="59.0952229500" lon="29.9961090088"><time>2026-04-22T11:49:38Z</time></trkpt><trkpt lat="59.0952444077" lon="29.9960875511"><time>2026-04-22T11:49:40Z</time></trkpt><trkpt lat="59.0952229500" lon="29.9960875511"><time>2026-04-22T11:49:43Z</time></trkpt><trkpt lat="59.0952229500" lon="29.9960875511"><time>2026-04-22T11:49:45Z</time></trkpt><trkpt lat="59.0952444077" lon="29.9961090088"><time>2026-04-22T11:49:48Z</time></trkpt><trkpt lat="59.0952444077" lon="29.9961090088"><time>2026-04-22T11:49:50Z</time></trkpt><trkpt lat="59.0952444077" lon="29.9961090088"><time>2026-04-22T11:49:53Z</time></trkpt><trkpt lat="59.0952444077" lon="29.9961090088"><time>2026-04-22T11:49:55Z</time></trkpt><trkpt lat="59.0952444077" lon="29.9961090088"><time>2026-04-22T11:49:58Z</time></trkpt><trkpt lat="59.0952444077" lon="29.9961090088"><time>2026-04-22T11:50:00Z</time></trkpt><trkpt lat="59.0952444077" lon="29.9960875511"><time>2026-04-22T11:50:03Z</time></trkpt><trkpt lat="59.0952658653" lon="29.9960875511"><time>2026-04-22T11:50:05Z</time></trkpt><trkpt lat="59.0952658653" lon="29.9961090088"><time>2026-04-22T11:50:08Z</time></trkpt><trkpt lat="59.0952658653" lon="29.9961090088"><time>2026-04-22T11:50:10Z</time></trkpt><trkpt lat="59.0952658653" lon="29.9961090088"><time>2026-04-22T11:50:13Z</time></trkpt><trkpt lat="59.0952873230" lon="29.9960660934"><time>2026-04-22T11:50:15Z</time></trkpt><trkpt lat="59.0953302383" lon="29.9960017204"><time>2026-04-22T11:50:18Z</time></trkpt><trkpt lat="59.0953731537" lon="29.9959588051"><time>2026-04-22T11:50:20Z</time></trkpt><trkpt lat="59.0953731537" lon="29.9959373474"><time>2026-04-22T11:50:23Z</time></trkpt><trkpt lat="59.0953731537" lon="29.9958944321"><time>2026-04-22T11:50:25Z</time></trkpt><trkpt lat="59.0953946114" lon="29.9958515167"><time>2026-04-22T11:50:28Z</time></trkpt><trkpt lat="59.0954160690" lon="29.9958086014"><time>2026-04-22T11:50:30Z</time></trkpt><trkpt lat="59.0954160690" lon="29.9957656860"><time>2026-04-22T11:50:33Z</time></trkpt><trkpt lat="59.0954160690" lon="29.9957227707"><time>2026-04-22T11:50:35Z</time></trkpt><trkpt lat="59.0954160690" lon="29.9957013130"><time>2026-04-22T11:50:38Z</time></trkpt><trkpt lat="59.0954375267" lon="29.9956583977"><time>2026-04-22T11:50:40Z</time></trkpt><trkpt lat="59.0954589844" lon="29.9956583977"><time>2026-04-22T11:50:43Z</time></trkpt><trkpt lat="59.0954589844" lon="29.9956369400"><time>2026-04-22T11:50:45Z</time></trkpt><trkpt lat="59.0954589844" lon="29.9956369400"><time>2026-04-22T11:50:48Z</time></trkpt><trkpt lat="59.0954589844" lon="29.9956154823"><time>2026-04-22T11:50:50Z</time></trkpt><trkpt lat="59.0954589844" lon="29.9956154823"><time>2026-04-22T11:50:53Z</time></trkpt><trkpt lat="59.0954804420" lon="29.9956154823"><time>2026-04-22T11:50:55Z</time></trkpt><trkpt lat="59.0955018997" lon="29.9955940247"><time>2026-04-22T11:50:58Z</time></trkpt><trkpt lat="59.0955233574" lon="29.9955940247"><time>2026-04-22T11:51:00Z</time></trkpt><trkpt lat="59.0955233574" lon="29.9955940247"><time>2026-04-22T11:51:03Z</time></trkpt><trkpt lat="59.0955877304" lon="29.9955511093"><time>2026-04-22T11:51:05Z</time></trkpt><trkpt lat="59.0955877304" lon="29.9955296516"><time>2026-04-22T11:51:08Z</time></trkpt><trkpt lat="59.0956091881" lon="29.9955081940"><time>2026-04-22T11:51:10Z</time></trkpt><trkpt lat="59.0956306458" lon="29.9954867363"><time>2026-04-22T11:51:13Z</time></trkpt><trkpt lat="59.0956306458" lon="29.9954867363"><time>2026-04-22T11:51:15Z</time></trkpt><trkpt lat="59.0956306458" lon="29.9954867363"><time>2026-04-22T11:51:18Z</time></trkpt><trkpt lat="59.0956306458" lon="29.9954867363"><time>2026-04-22T11:51:20Z</time></trkpt><trkpt lat="59.0956306458" lon="29.9954867363"><time>2026-04-22T11:51:23Z</time></trkpt><trkpt lat="59.0956521034" lon="29.9954223633"><time>2026-04-22T11:51:25Z</time></trkpt><trkpt lat="59.0956735611" lon="29.9953794479"><time>2026-04-22T11:51:28Z</time></trkpt><trkpt lat="59.0956521034" lon="29.9953794479"><time>2026-04-22T11:51:30Z</time></trkpt><trkpt lat="59.0956735611" lon="29.9953794479"><time>2026-04-22T11:51:33Z</time></trkpt><trkpt lat="59.0957164764" lon="29.9953365326"><time>2026-04-22T11:51:35Z</time></trkpt><trkpt lat="59.0957164764" lon="29.9953365326"><time>2026-04-22T11:51:38Z</time></trkpt><trkpt lat="59.0957379341" lon="29.9953150749"><time>2026-04-22T11:51:40Z</time></trkpt><trkpt lat="59.0957379341" lon="29.9953150749"><time>2026-04-22T11:51:43Z</time></trkpt><trkpt lat="59.0957379341" lon="29.9953365326"><time>2026-04-22T11:51:45Z</time></trkpt><trkpt lat="59.0957379341" lon="29.9953365326"><time>2026-04-22T11:51:48Z</time></trkpt><trkpt lat="59.0957379341" lon="29.9953794479"><time>2026-04-22T11:51:50Z</time></trkpt><trkpt lat="59.0957593918" lon="29.9954223633"><time>2026-04-22T11:51:53Z</time></trkpt><trkpt lat="59.0957808495" lon="29.9954652786"><time>2026-04-22T11:51:55Z</time></trkpt><trkpt lat="59.0957808495" lon="29.9954652786"><time>2026-04-22T11:51:58Z</time></trkpt><trkpt lat="59.0957808495" lon="29.9954652786"><time>2026-04-22T11:52:00Z</time></trkpt><trkpt lat="59.0957808495" lon="29.9954652786"><time>2026-04-22T11:52:03Z</time></trkpt><trkpt lat="59.0957808495" lon="29.9954652786"><time>2026-04-22T11:52:05Z</time></trkpt><trkpt lat="59.0957808495" lon="29.9954652786"><time>2026-04-22T11:52:08Z</time></trkpt><trkpt lat="59.0958023071" lon="29.9954652786"><time>2026-04-22T11:52:10Z</time></trkpt><trkpt lat="59.0958023071" lon="29.9954438210"><time>2026-04-22T11:52:13Z</time></trkpt><trkpt lat="59.0958452225" lon="29.9954438210"><time>2026-04-22T11:52:15Z</time></trkpt><trkpt lat="59.0958452225" lon="29.9954438210"><time>2026-04-22T11:52:18Z</time></trkpt><trkpt lat="59.0958881378" lon="29.9954438210"><time>2026-04-22T11:52:20Z</time></trkpt><trkpt lat="59.0958881378" lon="29.9954438210"><time>2026-04-22T11:52:23Z</time></trkpt><trkpt lat="59.0958881378" lon="29.9954438210"><time>2026-04-22T11:52:25Z</time></trkpt><trkpt lat="59.0959095955" lon="29.9954652786"><time>2026-04-22T11:52:28Z</time></trkpt><trkpt lat="59.0959525108" lon="29.9954438210"><time>2026-04-22T11:52:30Z</time></trkpt><trkpt lat="59.0959739685" lon="29.9954223633"><time>2026-04-22T11:52:33Z</time></trkpt><trkpt lat="59.0959739685" lon="29.9954223633"><time>2026-04-22T11:52:35Z</time></trkpt><trkpt lat="59.0959739685" lon="29.9954223633"><time>2026-04-22T11:52:38Z</time></trkpt><trkpt lat="59.0959739685" lon="29.9954438210"><time>2026-04-22T11:52:40Z</time></trkpt><trkpt lat="59.0959954262" lon="29.9954652786"><time>2026-04-22T11:52:43Z</time></trkpt><trkpt lat="59.0959739685" lon="29.9954652786"><time>2026-04-22T11:52:45Z</time></trkpt><trkpt lat="59.0959954262" lon="29.9954652786"><time>2026-04-22T11:52:48Z</time></trkpt><trkpt lat="59.0960168839" lon="29.9954009056"><time>2026-04-22T11:52:50Z</time></trkpt><trkpt lat="59.0959954262" lon="29.9953365326"><time>2026-04-22T11:52:55Z</time></trkpt><trkpt lat="59.0959954262" lon="29.9953365326"><time>2026-04-22T11:52:58Z</time></trkpt><trkpt lat="59.0960168839" lon="29.9953150749"><time>2026-04-22T11:53:00Z</time></trkpt><trkpt lat="59.0960168839" lon="29.9952936172"><time>2026-04-22T11:53:03Z</time></trkpt><trkpt lat="59.0960168839" lon="29.9952936172"><time>2026-04-22T11:53:05Z</time></trkpt><trkpt lat="59.0960383415" lon="29.9952721596"><time>2026-04-22T11:53:08Z</time></trkpt><trkpt lat="59.0960812569" lon="29.9952507019"><time>2026-04-22T11:53:10Z</time></trkpt><trkpt lat="59.0961241722" lon="29.9952292442"><time>2026-04-22T11:53:13Z</time></trkpt><trkpt lat="59.0961670876" lon="29.9952507019"><time>2026-04-22T11:53:15Z</time></trkpt><trkpt lat="59.0961670876" lon="29.9952721596"><time>2026-04-22T11:53:18Z</time></trkpt><trkpt lat="59.0961670876" lon="29.9952721596"><time>2026-04-22T11:53:20Z</time></trkpt><trkpt lat="59.0961456299" lon="29.9952721596"><time>2026-04-22T11:53:23Z</time></trkpt><trkpt lat="59.0960383415" lon="29.9953365326"><time>2026-04-22T11:53:25Z</time></trkpt><trkpt lat="59.0960383415" lon="29.9954223633"><time>2026-04-22T11:53:28Z</time></trkpt><trkpt lat="59.0960168839" lon="29.9954223633"><time>2026-04-22T11:53:30Z</time></trkpt><trkpt lat="59.0960168839" lon="29.9954009056"><time>2026-04-22T11:53:33Z</time></trkpt><trkpt lat="59.0961027145" lon="29.9952936172"><time>2026-04-22T11:53:35Z</time></trkpt><trkpt lat="59.0961027145" lon="29.9952721596"><time>2026-04-22T11:53:38Z</time></trkpt><trkpt lat="59.0960597992" lon="29.9954009056"><time>2026-04-22T11:53:40Z</time></trkpt><trkpt lat="59.0960383415" lon="29.9954652786"><time>2026-04-22T11:53:43Z</time></trkpt><trkpt lat="59.0960383415" lon="29.9954652786"><time>2026-04-22T11:53:45Z</time></trkpt><trkpt lat="59.0960383415" lon="29.9954652786"><time>2026-04-22T11:53:48Z</time></trkpt><trkpt lat="59.0960812569" lon="29.9953579903"><time>2026-04-22T11:53:50Z</time></trkpt><trkpt lat="59.0961241722" lon="29.9952721596"><time>2026-04-22T11:53:53Z</time></trkpt><trkpt lat="59.0961885452" lon="29.9952077866"><time>2026-04-22T11:53:55Z</time></trkpt><trkpt lat="59.0961885452" lon="29.9952077866"><time>2026-04-22T11:53:58Z</time></trkpt><trkpt lat="59.0961885452" lon="29.9952077866"><time>2026-04-22T11:54:00Z</time></trkpt><trkpt lat="59.0961885452" lon="29.9952077866"><time>2026-04-22T11:54:03Z</time></trkpt><trkpt lat="59.0961456299" lon="29.9952936172"><time>2026-04-22T11:54:05Z</time></trkpt><trkpt lat="59.0961456299" lon="29.9952936172"><time>2026-04-22T11:54:08Z</time></trkpt><trkpt lat="59.0961885452" lon="29.9952507019"><time>2026-04-22T11:54:10Z</time></trkpt><trkpt lat="59.0962314606" lon="29.9951863289"><time>2026-04-22T11:54:13Z</time></trkpt><trkpt lat="59.0962743759" lon="29.9950790405"><time>2026-04-22T11:54:15Z</time></trkpt><trkpt lat="59.0962958336" lon="29.9950146675"><time>2026-04-22T11:54:18Z</time></trkpt><trkpt lat="59.0963172913" lon="29.9949932098"><time>2026-04-22T11:54:20Z</time></trkpt><trkpt lat="59.0963387489" lon="29.9949717522"><time>2026-04-22T11:54:23Z</time></trkpt><trkpt lat="59.0963387489" lon="29.9949717522"><time>2026-04-22T11:54:25Z</time></trkpt><trkpt lat="59.0963387489" lon="29.9949502945"><time>2026-04-22T11:54:28Z</time></trkpt><trkpt lat="59.0963602066" lon="29.9948644638"><time>2026-04-22T11:54:30Z</time></trkpt><trkpt lat="59.0963816643" lon="29.9948215485"><time>2026-04-22T11:54:33Z</time></trkpt><trkpt lat="59.0964031219" lon="29.9948430061"><time>2026-04-22T11:54:35Z</time></trkpt><trkpt lat="59.0964245796" lon="29.9948644638"><time>2026-04-22T11:54:38Z</time></trkpt><trkpt lat="59.0964674950" lon="29.9948430061"><time>2026-04-22T11:54:40Z</time></trkpt><trkpt lat="59.0964889526" lon="29.9948000908"><time>2026-04-22T11:54:43Z</time></trkpt><trkpt lat="59.0965533257" lon="29.9947142601"><time>2026-04-22T11:54:45Z</time></trkpt><trkpt lat="59.0965533257" lon="29.9946928024"><time>2026-04-22T11:54:48Z</time></trkpt><trkpt lat="59.0965533257" lon="29.9946928024"><time>2026-04-22T11:54:50Z</time></trkpt><trkpt lat="59.0965533257" lon="29.9946928024"><time>2026-04-22T11:54:53Z</time></trkpt><trkpt lat="59.0965533257" lon="29.9946928024"><time>2026-04-22T11:54:55Z</time></trkpt><trkpt lat="59.0965533257" lon="29.9946928024"><time>2026-04-22T11:54:58Z</time></trkpt><trkpt lat="59.0965318680" lon="29.9947142601"><time>2026-04-22T11:55:00Z</time></trkpt><trkpt lat="59.0965318680" lon="29.9947357178"><time>2026-04-22T11:55:03Z</time></trkpt><trkpt lat="59.0965318680" lon="29.9947786331"><time>2026-04-22T11:55:05Z</time></trkpt><trkpt lat="59.0965533257" lon="29.9947571754"><time>2026-04-22T11:55:08Z</time></trkpt><trkpt lat="59.0965747833" lon="29.9947786331"><time>2026-04-22T11:55:10Z</time></trkpt><trkpt lat="59.0965962410" lon="29.9948000908"><time>2026-04-22T11:55:13Z</time></trkpt><trkpt lat="59.0965962410" lon="29.9948000908"><time>2026-04-22T11:55:15Z</time></trkpt><trkpt lat="59.0965962410" lon="29.9948000908"><time>2026-04-22T11:55:18Z</time></trkpt><trkpt lat="59.0966176987" lon="29.9948430061"><time>2026-04-22T11:55:20Z</time></trkpt><trkpt lat="59.0966176987" lon="29.9948430061"><time>2026-04-22T11:55:23Z</time></trkpt><trkpt lat="59.0966176987" lon="29.9948430061"><time>2026-04-22T11:55:25Z</time></trkpt><trkpt lat="59.0966176987" lon="29.9948430061"><time>2026-04-22T11:55:28Z</time></trkpt><trkpt lat="59.0966176987" lon="29.9948430061"><time>2026-04-22T11:55:30Z</time></trkpt><trkpt lat="59.0966391563" lon="29.9948430061"><time>2026-04-22T11:55:33Z</time></trkpt><trkpt lat="59.0966820717" lon="29.9948215485"><time>2026-04-22T11:55:35Z</time></trkpt><trkpt lat="59.0967035294" lon="29.9948215485"><time>2026-04-22T11:55:38Z</time></trkpt><trkpt lat="59.0967249870" lon="29.9948215485"><time>2026-04-22T11:55:40Z</time></trkpt><trkpt lat="59.0967679024" lon="29.9948430061"><time>2026-04-22T11:55:43Z</time></trkpt><trkpt lat="59.0967679024" lon="29.9948644638"><time>2026-04-22T11:55:45Z</time></trkpt><trkpt lat="59.0967679024" lon="29.9948859215"><time>2026-04-22T11:55:48Z</time></trkpt><trkpt lat="59.0967679024" lon="29.9948859215"><time>2026-04-22T11:55:50Z</time></trkpt><trkpt lat="59.0967893600" lon="29.9948859215"><time>2026-04-22T11:55:53Z</time></trkpt><trkpt lat="59.0968322754" lon="29.9948644638"><time>2026-04-22T11:55:55Z</time></trkpt><trkpt lat="59.0968537331" lon="29.9948430061"><time>2026-04-22T11:55:58Z</time></trkpt><trkpt lat="59.0968751907" lon="29.9948215485"><time>2026-04-22T11:56:00Z</time></trkpt><trkpt lat="59.0968966484" lon="29.9948215485"><time>2026-04-22T11:56:03Z</time></trkpt><trkpt lat="59.0968966484" lon="29.9948215485"><time>2026-04-22T11:56:05Z</time></trkpt><trkpt lat="59.0969181061" lon="29.9948000908"><time>2026-04-22T11:56:08Z</time></trkpt><trkpt lat="59.0969824791" lon="29.9948000908"><time>2026-04-22T11:56:10Z</time></trkpt><trkpt lat="59.0970253944" lon="29.9948215485"><time>2026-04-22T11:56:13Z</time></trkpt><trkpt lat="59.0970683098" lon="29.9948215485"><time>2026-04-22T11:56:15Z</time></trkpt><trkpt lat="59.0970683098" lon="29.9948215485"><time>2026-04-22T11:56:18Z</time></trkpt><trkpt lat="59.0970683098" lon="29.9948215485"><time>2026-04-22T11:56:20Z</time></trkpt><trkpt lat="59.0970683098" lon="29.9948215485"><time>2026-04-22T11:56:23Z</time></trkpt><trkpt lat="59.0970683098" lon="29.9948430061"><time>2026-04-22T11:56:25Z</time></trkpt><trkpt lat="59.0971112251" lon="29.9948644638"><time>2026-04-22T11:56:28Z</time></trkpt><trkpt lat="59.0971541405" lon="29.9948859215"><time>2026-04-22T11:56:30Z</time></trkpt><trkpt lat="59.0971755981" lon="29.9948859215"><time>2026-04-22T11:56:33Z</time></trkpt><trkpt lat="59.0971755981" lon="29.9948859215"><time>2026-04-22T11:56:35Z</time></trkpt><trkpt lat="59.0971970558" lon="29.9948859215"><time>2026-04-22T11:56:38Z</time></trkpt><trkpt lat="59.0972185135" lon="29.9948430061"><time>2026-04-22T11:56:40Z</time></trkpt><trkpt lat="59.0972399712" lon="29.9948430061"><time>2026-04-22T11:56:43Z</time></trkpt><trkpt lat="59.0972828865" lon="29.9948215485"><time>2026-04-22T11:56:45Z</time></trkpt><trkpt lat="59.0973043442" lon="29.9948000908"><time>2026-04-22T11:56:48Z</time></trkpt><trkpt lat="59.0973472595" lon="29.9947786331"><time>2026-04-22T11:56:50Z</time></trkpt><trkpt lat="59.0973472595" lon="29.9947786331"><time>2026-04-22T11:56:53Z</time></trkpt><trkpt lat="59.0973687172" lon="29.9947357178"><time>2026-04-22T11:56:55Z</time></trkpt><trkpt lat="59.0973901749" lon="29.9947142601"><time>2026-04-22T11:56:58Z</time></trkpt><trkpt lat="59.0973901749" lon="29.9947142601"><time>2026-04-22T11:57:00Z</time></trkpt><trkpt lat="59.0973901749" lon="29.9946928024"><time>2026-04-22T11:57:03Z</time></trkpt><trkpt lat="59.0973901749" lon="29.9946713448"><time>2026-04-22T11:57:05Z</time></trkpt><trkpt lat="59.0973901749" lon="29.9946498871"><time>2026-04-22T11:57:08Z</time></trkpt><trkpt lat="59.0973901749" lon="29.9946498871"><time>2026-04-22T11:57:10Z</time></trkpt><trkpt lat="59.0973901749" lon="29.9946498871"><time>2026-04-22T11:57:13Z</time></trkpt><trkpt lat="59.0973901749" lon="29.9946498871"><time>2026-04-22T11:57:15Z</time></trkpt><trkpt lat="59.0973901749" lon="29.9946498871"><time>2026-04-22T11:57:18Z</time></trkpt><trkpt lat="59.0973901749" lon="29.9946498871"><time>2026-04-22T11:57:20Z</time></trkpt><trkpt lat="59.0973901749" lon="29.9946498871"><time>2026-04-22T11:57:23Z</time></trkpt><trkpt lat="59.0974116325" lon="29.9946284294"><time>2026-04-22T11:57:25Z</time></trkpt><trkpt lat="59.0974330902" lon="29.9946069717"><time>2026-04-22T11:57:28Z</time></trkpt><trkpt lat="59.0974330902" lon="29.9946069717"><time>2026-04-22T11:57:30Z</time></trkpt><trkpt lat="59.0974330902" lon="29.9946069717"><time>2026-04-22T11:57:33Z</time></trkpt><trkpt lat="59.0974330902" lon="29.9946069717"><time>2026-04-22T11:57:35Z</time></trkpt><trkpt lat="59.0974330902" lon="29.9946284294"><time>2026-04-22T11:57:38Z</time></trkpt><trkpt lat="59.0974330902" lon="29.9946284294"><time>2026-04-22T11:57:40Z</time></trkpt><trkpt lat="59.0974330902" lon="29.9946284294"><time>2026-04-22T11:57:43Z</time></trkpt><trkpt lat="59.0974545479" lon="29.9946713448"><time>2026-04-22T11:57:45Z</time></trkpt><trkpt lat="59.0974760056" lon="29.9946713448"><time>2026-04-22T11:57:48Z</time></trkpt><trkpt lat="59.0974760056" lon="29.9946713448"><time>2026-04-22T11:57:50Z</time></trkpt><trkpt lat="59.0974760056" lon="29.9946713448"><time>2026-04-22T11:57:53Z</time></trkpt><trkpt lat="59.0974974632" lon="29.9946928024"><time>2026-04-22T11:57:55Z</time></trkpt><trkpt lat="59.0974974632" lon="29.9947357178"><time>2026-04-22T11:57:58Z</time></trkpt><trkpt lat="59.0974974632" lon="29.9948215485"><time>2026-04-22T11:58:00Z</time></trkpt><trkpt lat="59.0974974632" lon="29.9948859215"><time>2026-04-22T11:58:03Z</time></trkpt><trkpt lat="59.0975189209" lon="29.9949717522"><time>2026-04-22T11:58:05Z</time></trkpt><trkpt lat="59.0975403786" lon="29.9950146675"><time>2026-04-22T11:58:08Z</time></trkpt><trkpt lat="59.0975403786" lon="29.9950790405"><time>2026-04-22T11:58:10Z</time></trkpt><trkpt lat="59.0975403786" lon="29.9951004982"><time>2026-04-22T11:58:13Z</time></trkpt><trkpt lat="59.0975403786" lon="29.9951004982"><time>2026-04-22T11:58:15Z</time></trkpt><trkpt lat="59.0975618362" lon="29.9951219559"><time>2026-04-22T11:58:18Z</time></trkpt><trkpt lat="59.0975618362" lon="29.9951219559"><time>2026-04-22T11:58:20Z</time></trkpt><trkpt lat="59.0975618362" lon="29.9951219559"><time>2026-04-22T11:58:23Z</time></trkpt><trkpt lat="59.0975832939" lon="29.9952292442"><time>2026-04-22T11:58:25Z</time></trkpt><trkpt lat="59.0975832939" lon="29.9952936172"><time>2026-04-22T11:58:28Z</time></trkpt><trkpt lat="59.0975832939" lon="29.9953794479"><time>2026-04-22T11:58:30Z</time></trkpt><trkpt lat="59.0975832939" lon="29.9954438210"><time>2026-04-22T11:58:33Z</time></trkpt><trkpt lat="59.0976047516" lon="29.9955081940"><time>2026-04-22T11:58:35Z</time></trkpt><trkpt lat="59.0976262093" lon="29.9955296516"><time>2026-04-22T11:58:38Z</time></trkpt><trkpt lat="59.0976262093" lon="29.9955511093"><time>2026-04-22T11:58:40Z</time></trkpt><trkpt lat="59.0976047516" lon="29.9956154823"><time>2026-04-22T11:58:43Z</time></trkpt><trkpt lat="59.0975618362" lon="29.9957442284"><time>2026-04-22T11:58:45Z</time></trkpt><trkpt lat="59.0975403786" lon="29.9958086014"><time>2026-04-22T11:58:48Z</time></trkpt><trkpt lat="59.0975618362" lon="29.9959158897"><time>2026-04-22T11:58:50Z</time></trkpt><trkpt lat="59.0975832939" lon="29.9959373474"><time>2026-04-22T11:58:53Z</time></trkpt><trkpt lat="59.0975832939" lon="29.9960017204"><time>2026-04-22T11:58:55Z</time></trkpt><trkpt lat="59.0975832939" lon="29.9960660934"><time>2026-04-22T11:58:58Z</time></trkpt><trkpt lat="59.0975618362" lon="29.9961090088"><time>2026-04-22T11:59:00Z</time></trkpt><trkpt lat="59.0975618362" lon="29.9961304665"><time>2026-04-22T11:59:03Z</time></trkpt><trkpt lat="59.0975403786" lon="29.9962377548"><time>2026-04-22T11:59:05Z</time></trkpt><trkpt lat="59.0975618362" lon="29.9962377548"><time>2026-04-22T11:59:08Z</time></trkpt><trkpt lat="59.0975832939" lon="29.9962162971"><time>2026-04-22T11:59:10Z</time></trkpt><trkpt lat="59.0976047516" lon="29.9962162971"><time>2026-04-22T11:59:13Z</time></trkpt><trkpt lat="59.0976047516" lon="29.9962162971"><time>2026-04-22T11:59:15Z</time></trkpt><trkpt lat="59.0976047516" lon="29.9962162971"><time>2026-04-22T11:59:18Z</time></trkpt><trkpt lat="59.0976047516" lon="29.9962162971"><time>2026-04-22T11:59:20Z</time></trkpt><trkpt lat="59.0976047516" lon="29.9962162971"><time>2026-04-22T11:59:23Z</time></trkpt><trkpt lat="59.0976047516" lon="29.9962162971"><time>2026-04-22T11:59:25Z</time></trkpt><trkpt lat="59.0976047516" lon="29.9962162971"><time>2026-04-22T11:59:28Z</time></trkpt><trkpt lat="59.0976047516" lon="29.9962162971"><time>2026-04-22T11:59:30Z</time></trkpt><trkpt lat="59.0976047516" lon="29.9962806702"><time>2026-04-22T11:59:33Z</time></trkpt><trkpt lat="59.0976476669" lon="29.9963235855"><time>2026-04-22T11:59:35Z</time></trkpt><trkpt lat="59.0976691246" lon="29.9963665009"><time>2026-04-22T11:59:38Z</time></trkpt><trkpt lat="59.0976691246" lon="29.9964523315"><time>2026-04-22T11:59:40Z</time></trkpt><trkpt lat="59.0976476669" lon="29.9965167046"><time>2026-04-22T11:59:43Z</time></trkpt><trkpt lat="59.0976047516" lon="29.9965381622"><time>2026-04-22T11:59:45Z</time></trkpt><trkpt lat="59.0975832939" lon="29.9964952469"><time>2026-04-22T11:59:48Z</time></trkpt><trkpt lat="59.0975403786" lon="29.9964737892"><time>2026-04-22T11:59:50Z</time></trkpt><trkpt lat="59.0975189209" lon="29.9964523315"><time>2026-04-22T11:59:53Z</time></trkpt><trkpt lat="59.0974760056" lon="29.9964308739"><time>2026-04-22T11:59:55Z</time></trkpt><trkpt lat="59.0974330902" lon="29.9964737892"><time>2026-04-22T11:59:58Z</time></trkpt><trkpt lat="59.0974330902" lon="29.9965596199"><time>2026-04-22T12:00:00Z</time></trkpt><trkpt lat="59.0974330902" lon="29.9966239929"><time>2026-04-22T12:00:03Z</time></trkpt><trkpt lat="59.0974545479" lon="29.9966454506"><time>2026-04-22T12:00:05Z</time></trkpt><trkpt lat="59.0974760056" lon="29.9966454506"><time>2026-04-22T12:00:08Z</time></trkpt><trkpt lat="59.0974974632" lon="29.9966883659"><time>2026-04-22T12:00:10Z</time></trkpt><trkpt lat="59.0975189209" lon="29.9967312813"><time>2026-04-22T12:00:13Z</time></trkpt><trkpt lat="59.0975403786" lon="29.9967741966"><time>2026-04-22T12:00:15Z</time></trkpt><trkpt lat="59.0975403786" lon="29.9967741966"><time>2026-04-22T12:00:18Z</time></trkpt><trkpt lat="59.0975403786" lon="29.9967741966"><time>2026-04-22T12:00:20Z</time></trkpt><trkpt lat="59.0975403786" lon="29.9967741966"><time>2026-04-22T12:00:23Z</time></trkpt><trkpt lat="59.0975403786" lon="29.9967956543"><time>2026-04-22T12:00:25Z</time></trkpt><trkpt lat="59.0975618362" lon="29.9968385696"><time>2026-04-22T12:00:28Z</time></trkpt><trkpt lat="59.0975618362" lon="29.9968385696"><time>2026-04-22T12:00:30Z</time></trkpt><trkpt lat="59.0975618362" lon="29.9968171120"><time>2026-04-22T12:00:33Z</time></trkpt><trkpt lat="59.0975403786" lon="29.9968171120"><time>2026-04-22T12:00:35Z</time></trkpt><trkpt lat="59.0975403786" lon="29.9968171120"><time>2026-04-22T12:00:38Z</time></trkpt><trkpt lat="59.0975403786" lon="29.9968600273"><time>2026-04-22T12:00:40Z</time></trkpt><trkpt lat="59.0975403786" lon="29.9968814850"><time>2026-04-22T12:00:43Z</time></trkpt><trkpt lat="59.0975403786" lon="29.9968814850"><time>2026-04-22T12:00:45Z</time></trkpt><trkpt lat="59.0975403786" lon="29.9968814850"><time>2026-04-22T12:00:48Z</time></trkpt><trkpt lat="59.0975403786" lon="29.9968814850"><time>2026-04-22T12:00:50Z</time></trkpt><trkpt lat="59.0975403786" lon="29.9968814850"><time>2026-04-22T12:00:53Z</time></trkpt><trkpt lat="59.0975403786" lon="29.9968814850"><time>2026-04-22T12:00:55Z</time></trkpt><trkpt lat="59.0975618362" lon="29.9968385696"><time>2026-04-22T12:00:58Z</time></trkpt><trkpt lat="59.0976047516" lon="29.9967741966"><time>2026-04-22T12:01:00Z</time></trkpt><trkpt lat="59.0976047516" lon="29.9967312813"><time>2026-04-22T12:01:03Z</time></trkpt><trkpt lat="59.0976047516" lon="29.9967098236"><time>2026-04-22T12:01:05Z</time></trkpt><trkpt lat="59.0976047516" lon="29.9966883659"><time>2026-04-22T12:01:08Z</time></trkpt><trkpt lat="59.0975832939" lon="29.9966883659"><time>2026-04-22T12:01:10Z</time></trkpt><trkpt lat="59.0975832939" lon="29.9966883659"><time>2026-04-22T12:01:13Z</time></trkpt><trkpt lat="59.0975832939" lon="29.9966883659"><time>2026-04-22T12:01:15Z</time></trkpt><trkpt lat="59.0975832939" lon="29.9966883659"><time>2026-04-22T12:01:18Z</time></trkpt><trkpt lat="59.0976262093" lon="29.9967312813"><time>2026-04-22T12:01:20Z</time></trkpt><trkpt lat="59.0976262093" lon="29.9967312813"><time>2026-04-22T12:01:23Z</time></trkpt><trkpt lat="59.0976476669" lon="29.9967527390"><time>2026-04-22T12:01:25Z</time></trkpt><trkpt lat="59.0976691246" lon="29.9967527390"><time>2026-04-22T12:01:28Z</time></trkpt><trkpt lat="59.0976691246" lon="29.9967741966"><time>2026-04-22T12:01:30Z</time></trkpt><trkpt lat="59.0976905823" lon="29.9967741966"><time>2026-04-22T12:01:33Z</time></trkpt><trkpt lat="59.0977120399" lon="29.9968171120"><time>2026-04-22T12:01:35Z</time></trkpt><trkpt lat="59.0977334976" lon="29.9968171120"><time>2026-04-22T12:01:38Z</time></trkpt><trkpt lat="59.0977120399" lon="29.9968171120"><time>2026-04-22T12:01:40Z</time></trkpt><trkpt lat="59.0976905823" lon="29.9967956543"><time>2026-04-22T12:01:43Z</time></trkpt><trkpt lat="59.0976905823" lon="29.9967741966"><time>2026-04-22T12:01:45Z</time></trkpt><trkpt lat="59.0976905823" lon="29.9967741966"><time>2026-04-22T12:01:48Z</time></trkpt><trkpt lat="59.0976905823" lon="29.9967956543"><time>2026-04-22T12:01:50Z</time></trkpt><trkpt lat="59.0977120399" lon="29.9967956543"><time>2026-04-22T12:01:53Z</time></trkpt><trkpt lat="59.0977334976" lon="29.9968171120"><time>2026-04-22T12:01:55Z</time></trkpt><trkpt lat="59.0977549553" lon="29.9968171120"><time>2026-04-22T12:01:58Z</time></trkpt><trkpt lat="59.0977549553" lon="29.9968171120"><time>2026-04-22T12:02:00Z</time></trkpt><trkpt lat="59.0977549553" lon="29.9968171120"><time>2026-04-22T12:02:03Z</time></trkpt><trkpt lat="59.0977549553" lon="29.9968171120"><time>2026-04-22T12:02:05Z</time></trkpt><trkpt lat="59.0977549553" lon="29.9968171120"><time>2026-04-22T12:02:08Z</time></trkpt><trkpt lat="59.0977764130" lon="29.9967956543"><time>2026-04-22T12:02:10Z</time></trkpt><trkpt lat="59.0977764130" lon="29.9967956543"><time>2026-04-22T12:02:13Z</time></trkpt><trkpt lat="59.0977549553" lon="29.9968171120"><time>2026-04-22T12:02:15Z</time></trkpt><trkpt lat="59.0977334976" lon="29.9968385696"><time>2026-04-22T12:02:18Z</time></trkpt><trkpt lat="59.0977334976" lon="29.9968600273"><time>2026-04-22T12:02:20Z</time></trkpt><trkpt lat="59.0977334976" lon="29.9969029427"><time>2026-04-22T12:02:23Z</time></trkpt><trkpt lat="59.0977334976" lon="29.9969458580"><time>2026-04-22T12:02:25Z</time></trkpt><trkpt lat="59.0977334976" lon="29.9969458580"><time>2026-04-22T12:02:28Z</time></trkpt><trkpt lat="59.0977549553" lon="29.9969458580"><time>2026-04-22T12:02:30Z</time></trkpt><trkpt lat="59.0977549553" lon="29.9969458580"><time>2026-04-22T12:02:33Z</time></trkpt><trkpt lat="59.0977764130" lon="29.9969458580"><time>2026-04-22T12:02:35Z</time></trkpt><trkpt lat="59.0977978706" lon="29.9969029427"><time>2026-04-22T12:02:38Z</time></trkpt><trkpt lat="59.0978193283" lon="29.9969029427"><time>2026-04-22T12:02:40Z</time></trkpt><trkpt lat="59.0978407860" lon="29.9969029427"><time>2026-04-22T12:02:43Z</time></trkpt><trkpt lat="59.0978407860" lon="29.9969029427"><time>2026-04-22T12:02:45Z</time></trkpt><trkpt lat="59.0978407860" lon="29.9969029427"><time>2026-04-22T12:02:48Z</time></trkpt><trkpt lat="59.0978622437" lon="29.9968814850"><time>2026-04-22T12:02:50Z</time></trkpt><trkpt lat="59.0978622437" lon="29.9968814850"><time>2026-04-22T12:02:53Z</time></trkpt><trkpt lat="59.0978622437" lon="29.9968600273"><time>2026-04-22T12:02:55Z</time></trkpt><trkpt lat="59.0978837013" lon="29.9968385696"><time>2026-04-22T12:02:58Z</time></trkpt><trkpt lat="59.0979051590" lon="29.9968171120"><time>2026-04-22T12:03:00Z</time></trkpt><trkpt lat="59.0979051590" lon="29.9968385696"><time>2026-04-22T12:03:03Z</time></trkpt><trkpt lat="59.0979266167" lon="29.9968600273"><time>2026-04-22T12:03:05Z</time></trkpt><trkpt lat="59.0979480743" lon="29.9969029427"><time>2026-04-22T12:03:08Z</time></trkpt><trkpt lat="59.0979480743" lon="29.9969887733"><time>2026-04-22T12:03:10Z</time></trkpt><trkpt lat="59.0979480743" lon="29.9970531464"><time>2026-04-22T12:03:13Z</time></trkpt><trkpt lat="59.0979909897" lon="29.9970960617"><time>2026-04-22T12:03:15Z</time></trkpt><trkpt lat="59.0980339050" lon="29.9970960617"><time>2026-04-22T12:03:18Z</time></trkpt><trkpt lat="59.0980553627" lon="29.9971604347"><time>2026-04-22T12:03:20Z</time></trkpt><trkpt lat="59.0980768204" lon="29.9972033501"><time>2026-04-22T12:03:23Z</time></trkpt><trkpt lat="59.0980768204" lon="29.9972677231"><time>2026-04-22T12:03:25Z</time></trkpt><trkpt lat="59.0980768204" lon="29.9973320961"><time>2026-04-22T12:03:28Z</time></trkpt><trkpt lat="59.0980768204" lon="29.9973964691"><time>2026-04-22T12:03:30Z</time></trkpt><trkpt lat="59.0980982780" lon="29.9973750114"><time>2026-04-22T12:03:33Z</time></trkpt><trkpt lat="59.0980982780" lon="29.9972677231"><time>2026-04-22T12:03:35Z</time></trkpt><trkpt lat="59.0980982780" lon="29.9971389771"><time>2026-04-22T12:03:38Z</time></trkpt><trkpt lat="59.0980982780" lon="29.9969673157"><time>2026-04-22T12:03:40Z</time></trkpt><trkpt lat="59.0980768204" lon="29.9969029427"><time>2026-04-22T12:03:43Z</time></trkpt><trkpt lat="59.0980553627" lon="29.9968385696"><time>2026-04-22T12:03:45Z</time></trkpt><trkpt lat="59.0980339050" lon="29.9967741966"><time>2026-04-22T12:03:48Z</time></trkpt><trkpt lat="59.0980339050" lon="29.9967098236"><time>2026-04-22T12:03:50Z</time></trkpt><trkpt lat="59.0980339050" lon="29.9967098236"><time>2026-04-22T12:03:53Z</time></trkpt><trkpt lat="59.0980339050" lon="29.9967098236"><time>2026-04-22T12:03:55Z</time></trkpt><trkpt lat="59.0980339050" lon="29.9967098236"><time>2026-04-22T12:03:58Z</time></trkpt><trkpt lat="59.0980339050" lon="29.9967098236"><time>2026-04-22T12:04:00Z</time></trkpt><trkpt lat="59.0980339050" lon="29.9967098236"><time>2026-04-22T12:04:03Z</time></trkpt><trkpt lat="59.0980339050" lon="29.9967527390"><time>2026-04-22T12:04:05Z</time></trkpt><trkpt lat="59.0980553627" lon="29.9967527390"><time>2026-04-22T12:04:08Z</time></trkpt><trkpt lat="59.0980553627" lon="29.9967527390"><time>2026-04-22T12:04:10Z</time></trkpt><trkpt lat="59.0980553627" lon="29.9967527390"><time>2026-04-22T12:04:13Z</time></trkpt><trkpt lat="59.0980553627" lon="29.9967098236"><time>2026-04-22T12:04:15Z</time></trkpt><trkpt lat="59.0980553627" lon="29.9966669083"><time>2026-04-22T12:04:18Z</time></trkpt><trkpt lat="59.0980553627" lon="29.9966454506"><time>2026-04-22T12:04:20Z</time></trkpt><trkpt lat="59.0980553627" lon="29.9966239929"><time>2026-04-22T12:04:23Z</time></trkpt><trkpt lat="59.0980339050" lon="29.9966025352"><time>2026-04-22T12:04:25Z</time></trkpt><trkpt lat="59.0980553627" lon="29.9965596199"><time>2026-04-22T12:04:28Z</time></trkpt><trkpt lat="59.0980768204" lon="29.9965596199"><time>2026-04-22T12:04:30Z</time></trkpt><trkpt lat="59.0980768204" lon="29.9965596199"><time>2026-04-22T12:04:33Z</time></trkpt><trkpt lat="59.0980768204" lon="29.9965596199"><time>2026-04-22T12:04:35Z</time></trkpt><trkpt lat="59.0980982780" lon="29.9965596199"><time>2026-04-22T12:04:38Z</time></trkpt><trkpt lat="59.0980982780" lon="29.9964952469"><time>2026-04-22T12:04:40Z</time></trkpt><trkpt lat="59.0981197357" lon="29.9964308739"><time>2026-04-22T12:04:43Z</time></trkpt><trkpt lat="59.0981411934" lon="29.9963879585"><time>2026-04-22T12:04:45Z</time></trkpt><trkpt lat="59.0981841087" lon="29.9963450432"><time>2026-04-22T12:04:48Z</time></trkpt><trkpt lat="59.0982055664" lon="29.9963450432"><time>2026-04-22T12:04:50Z</time></trkpt><trkpt lat="59.0982270241" lon="29.9963450432"><time>2026-04-22T12:04:53Z</time></trkpt><trkpt lat="59.0982484818" lon="29.9963665009"><time>2026-04-22T12:04:55Z</time></trkpt><trkpt lat="59.0982699394" lon="29.9963879585"><time>2026-04-22T12:04:58Z</time></trkpt><trkpt lat="59.0982699394" lon="29.9964094162"><time>2026-04-22T12:05:00Z</time></trkpt><trkpt lat="59.0982699394" lon="29.9964952469"><time>2026-04-22T12:05:03Z</time></trkpt><trkpt lat="59.0982699394" lon="29.9966025352"><time>2026-04-22T12:05:05Z</time></trkpt><trkpt lat="59.0982484818" lon="29.9966454506"><time>2026-04-22T12:05:08Z</time></trkpt><trkpt lat="59.0982484818" lon="29.9967098236"><time>2026-04-22T12:05:10Z</time></trkpt><trkpt lat="59.0982484818" lon="29.9967312813"><time>2026-04-22T12:05:13Z</time></trkpt><trkpt lat="59.0982270241" lon="29.9967741966"><time>2026-04-22T12:05:15Z</time></trkpt><trkpt lat="59.0982055664" lon="29.9968171120"><time>2026-04-22T12:05:18Z</time></trkpt><trkpt lat="59.0982055664" lon="29.9968385696"><time>2026-04-22T12:05:20Z</time></trkpt><trkpt lat="59.0982055664" lon="29.9968385696"><time>2026-04-22T12:05:23Z</time></trkpt><trkpt lat="59.0982484818" lon="29.9968600273"><time>2026-04-22T12:05:25Z</time></trkpt><trkpt lat="59.0982699394" lon="29.9968600273"><time>2026-04-22T12:05:28Z</time></trkpt><trkpt lat="59.0982913971" lon="29.9968600273"><time>2026-04-22T12:05:30Z</time></trkpt><trkpt lat="59.0982913971" lon="29.9969029427"><time>2026-04-22T12:05:33Z</time></trkpt><trkpt lat="59.0983343124" lon="29.9969887733"><time>2026-04-22T12:05:35Z</time></trkpt><trkpt lat="59.0983343124" lon="29.9970316887"><time>2026-04-22T12:05:38Z</time></trkpt><trkpt lat="59.0983557701" lon="29.9970531464"><time>2026-04-22T12:05:40Z</time></trkpt><trkpt lat="59.0983343124" lon="29.9970531464"><time>2026-04-22T12:05:43Z</time></trkpt><trkpt lat="59.0983128548" lon="29.9971604347"><time>2026-04-22T12:05:45Z</time></trkpt><trkpt lat="59.0982913971" lon="29.9971818924"><time>2026-04-22T12:05:48Z</time></trkpt><trkpt lat="59.0982913971" lon="29.9972891808"><time>2026-04-22T12:05:50Z</time></trkpt><trkpt lat="59.0982484818" lon="29.9973535538"><time>2026-04-22T12:05:53Z</time></trkpt><trkpt lat="59.0981841087" lon="29.9974393845"><time>2026-04-22T12:05:55Z</time></trkpt><trkpt lat="59.0981411934" lon="29.9974608421"><time>2026-04-22T12:05:58Z</time></trkpt><trkpt lat="59.0980768204" lon="29.9974179268"><time>2026-04-22T12:06:00Z</time></trkpt><trkpt lat="59.0980339050" lon="29.9974393845"><time>2026-04-22T12:06:03Z</time></trkpt><trkpt lat="59.0979695320" lon="29.9974393845"><time>2026-04-22T12:06:05Z</time></trkpt><trkpt lat="59.0979266167" lon="29.9974393845"><time>2026-04-22T12:06:08Z</time></trkpt><trkpt lat="59.0978837013" lon="29.9973750114"><time>2026-04-22T12:06:10Z</time></trkpt><trkpt lat="59.0978407860" lon="29.9973535538"><time>2026-04-22T12:06:13Z</time></trkpt><trkpt lat="59.0978193283" lon="29.9973750114"><time>2026-04-22T12:06:15Z</time></trkpt><trkpt lat="59.0978193283" lon="29.9973964691"><time>2026-04-22T12:06:18Z</time></trkpt><trkpt lat="59.0978193283" lon="29.9974608421"><time>2026-04-22T12:06:20Z</time></trkpt><trkpt lat="59.0978193283" lon="29.9975037575"><time>2026-04-22T12:06:23Z</time></trkpt><trkpt lat="59.0978193283" lon="29.9975895882"><time>2026-04-22T12:06:25Z</time></trkpt><trkpt lat="59.0978407860" lon="29.9976325035"><time>2026-04-22T12:06:28Z</time></trkpt><trkpt lat="59.0978622437" lon="29.9976754189"><time>2026-04-22T12:06:30Z</time></trkpt><trkpt lat="59.0978622437" lon="29.9976754189"><time>2026-04-22T12:06:33Z</time></trkpt><trkpt lat="59.0978622437" lon="29.9976754189"><time>2026-04-22T12:06:35Z</time></trkpt><trkpt lat="59.0978622437" lon="29.9976754189"><time>2026-04-22T12:06:38Z</time></trkpt><trkpt lat="59.0978622437" lon="29.9976754189"><time>2026-04-22T12:06:40Z</time></trkpt><trkpt lat="59.0978837013" lon="29.9975895882"><time>2026-04-22T12:06:43Z</time></trkpt><trkpt lat="59.0979695320" lon="29.9973964691"><time>2026-04-22T12:06:45Z</time></trkpt><trkpt lat="59.0979909897" lon="29.9972677231"><time>2026-04-22T12:06:48Z</time></trkpt><trkpt lat="59.0980339050" lon="29.9970960617"><time>2026-04-22T12:06:50Z</time></trkpt><trkpt lat="59.0980982780" lon="29.9970102310"><time>2026-04-22T12:06:53Z</time></trkpt><trkpt lat="59.0981411934" lon="29.9969458580"><time>2026-04-22T12:06:55Z</time></trkpt><trkpt lat="59.0981411934" lon="29.9968814850"><time>2026-04-22T12:06:58Z</time></trkpt><trkpt lat="59.0981197357" lon="29.9968171120"><time>2026-04-22T12:07:00Z</time></trkpt><trkpt lat="59.0981197357" lon="29.9968385696"><time>2026-04-22T12:07:03Z</time></trkpt><trkpt lat="59.0981411934" lon="29.9968385696"><time>2026-04-22T12:07:05Z</time></trkpt><trkpt lat="59.0981626511" lon="29.9967741966"><time>2026-04-22T12:07:08Z</time></trkpt><trkpt lat="59.0981626511" lon="29.9967527390"><time>2026-04-22T12:07:10Z</time></trkpt><trkpt lat="59.0981841087" lon="29.9967956543"><time>2026-04-22T12:07:13Z</time></trkpt><trkpt lat="59.0982270241" lon="29.9968600273"><time>2026-04-22T12:07:15Z</time></trkpt><trkpt lat="59.0982699394" lon="29.9968385696"><time>2026-04-22T12:07:18Z</time></trkpt><trkpt lat="59.0982699394" lon="29.9968600273"><time>2026-04-22T12:07:20Z</time></trkpt><trkpt lat="59.0982699394" lon="29.9968600273"><time>2026-04-22T12:07:23Z</time></trkpt><trkpt lat="59.0983128548" lon="29.9968600273"><time>2026-04-22T12:07:25Z</time></trkpt><trkpt lat="59.0983557701" lon="29.9968385696"><time>2026-04-22T12:07:28Z</time></trkpt><trkpt lat="59.0983986855" lon="29.9968600273"><time>2026-04-22T12:07:30Z</time></trkpt><trkpt lat="59.0984201431" lon="29.9968385696"><time>2026-04-22T12:07:33Z</time></trkpt><trkpt lat="59.0984201431" lon="29.9968385696"><time>2026-04-22T12:07:35Z</time></trkpt><trkpt lat="59.0984201431" lon="29.9968385696"><time>2026-04-22T12:07:38Z</time></trkpt><trkpt lat="59.0984201431" lon="29.9968385696"><time>2026-04-22T12:07:40Z</time></trkpt><trkpt lat="59.0984201431" lon="29.9968385696"><time>2026-04-22T12:07:43Z</time></trkpt><trkpt lat="59.0984201431" lon="29.9968171120"><time>2026-04-22T12:07:45Z</time></trkpt><trkpt lat="59.0984201431" lon="29.9968171120"><time>2026-04-22T12:07:48Z</time></trkpt><trkpt lat="59.0984845161" lon="29.9968171120"><time>2026-04-22T12:07:50Z</time></trkpt><trkpt lat="59.0985059738" lon="29.9967956543"><time>2026-04-22T12:07:53Z</time></trkpt><trkpt lat="59.0985059738" lon="29.9967956543"><time>2026-04-22T12:07:55Z</time></trkpt><trkpt lat="59.0985059738" lon="29.9967956543"><time>2026-04-22T12:07:58Z</time></trkpt><trkpt lat="59.0985059738" lon="29.9967956543"><time>2026-04-22T12:08:00Z</time></trkpt><trkpt lat="59.0985059738" lon="29.9967956543"><time>2026-04-22T12:08:03Z</time></trkpt><trkpt lat="59.0985059738" lon="29.9967527390"><time>2026-04-22T12:08:05Z</time></trkpt><trkpt lat="59.0985274315" lon="29.9966669083"><time>2026-04-22T12:08:08Z</time></trkpt><trkpt lat="59.0985703468" lon="29.9965810776"><time>2026-04-22T12:08:10Z</time></trkpt><trkpt lat="59.0985918045" lon="29.9964952469"><time>2026-04-22T12:08:13Z</time></trkpt><trkpt lat="59.0986347198" lon="29.9964094162"><time>2026-04-22T12:08:15Z</time></trkpt><trkpt lat="59.0986561775" lon="29.9963879585"><time>2026-04-22T12:08:18Z</time></trkpt><trkpt lat="59.0986776352" lon="29.9964308739"><time>2026-04-22T12:08:20Z</time></trkpt><trkpt lat="59.0986776352" lon="29.9964523315"><time>2026-04-22T12:08:23Z</time></trkpt><trkpt lat="59.0986990929" lon="29.9964523315"><time>2026-04-22T12:08:25Z</time></trkpt><trkpt lat="59.0987205505" lon="29.9964523315"><time>2026-04-22T12:08:28Z</time></trkpt><trkpt lat="59.0987205505" lon="29.9964523315"><time>2026-04-22T12:08:30Z</time></trkpt><trkpt lat="59.0987205505" lon="29.9964523315"><time>2026-04-22T12:08:33Z</time></trkpt><trkpt lat="59.0987205505" lon="29.9964523315"><time>2026-04-22T12:08:35Z</time></trkpt><trkpt lat="59.0987205505" lon="29.9964523315"><time>2026-04-22T12:08:38Z</time></trkpt><trkpt lat="59.0986990929" lon="29.9964523315"><time>2026-04-22T12:08:40Z</time></trkpt><trkpt lat="59.0986990929" lon="29.9964523315"><time>2026-04-22T12:08:43Z</time></trkpt><trkpt lat="59.0987205505" lon="29.9964737892"><time>2026-04-22T12:08:45Z</time></trkpt><trkpt lat="59.0987205505" lon="29.9964952469"><time>2026-04-22T12:08:48Z</time></trkpt><trkpt lat="59.0987849236" lon="29.9964737892"><time>2026-04-22T12:08:50Z</time></trkpt><trkpt lat="59.0988063812" lon="29.9964952469"><time>2026-04-22T12:08:53Z</time></trkpt><trkpt lat="59.0988492966" lon="29.9965167046"><time>2026-04-22T12:08:55Z</time></trkpt><trkpt lat="59.0988707542" lon="29.9965381622"><time>2026-04-22T12:08:58Z</time></trkpt><trkpt lat="59.0988922119" lon="29.9965381622"><time>2026-04-22T12:09:00Z</time></trkpt><trkpt lat="59.0989351273" lon="29.9966025352"><time>2026-04-22T12:09:03Z</time></trkpt><trkpt lat="59.0989995003" lon="29.9966669083"><time>2026-04-22T12:09:05Z</time></trkpt><trkpt lat="59.0990424156" lon="29.9966454506"><time>2026-04-22T12:09:08Z</time></trkpt><trkpt lat="59.0990209579" lon="29.9966239929"><time>2026-04-22T12:09:10Z</time></trkpt><trkpt lat="59.0990209579" lon="29.9966239929"><time>2026-04-22T12:09:13Z</time></trkpt><trkpt lat="59.0990209579" lon="29.9966239929"><time>2026-04-22T12:09:15Z</time></trkpt><trkpt lat="59.0990209579" lon="29.9966239929"><time>2026-04-22T12:09:18Z</time></trkpt><trkpt lat="59.0990638733" lon="29.9965810776"><time>2026-04-22T12:09:20Z</time></trkpt><trkpt lat="59.0990853310" lon="29.9965381622"><time>2026-04-22T12:09:23Z</time></trkpt><trkpt lat="59.0991282463" lon="29.9964308739"><time>2026-04-22T12:09:25Z</time></trkpt><trkpt lat="59.0991711617" lon="29.9963665009"><time>2026-04-22T12:09:28Z</time></trkpt><trkpt lat="59.0991926193" lon="29.9963235855"><time>2026-04-22T12:09:30Z</time></trkpt><trkpt lat="59.0991926193" lon="29.9963235855"><time>2026-04-22T12:09:33Z</time></trkpt><trkpt lat="59.0992140770" lon="29.9962806702"><time>2026-04-22T12:09:35Z</time></trkpt><trkpt lat="59.0992569923" lon="29.9962162971"><time>2026-04-22T12:09:38Z</time></trkpt><trkpt lat="59.0992569923" lon="29.9961948395"><time>2026-04-22T12:09:40Z</time></trkpt><trkpt lat="59.0992569923" lon="29.9961948395"><time>2026-04-22T12:09:43Z</time></trkpt><trkpt lat="59.0992569923" lon="29.9961948395"><time>2026-04-22T12:09:45Z</time></trkpt><trkpt lat="59.0992784500" lon="29.9961733818"><time>2026-04-22T12:09:48Z</time></trkpt><trkpt lat="59.0992784500" lon="29.9961519241"><time>2026-04-22T12:09:50Z</time></trkpt><trkpt lat="59.0992784500" lon="29.9961519241"><time>2026-04-22T12:09:53Z</time></trkpt><trkpt lat="59.0992999077" lon="29.9961304665"><time>2026-04-22T12:09:55Z</time></trkpt><trkpt lat="59.0993213654" lon="29.9960875511"><time>2026-04-22T12:09:58Z</time></trkpt><trkpt lat="59.0993428230" lon="29.9961304665"><time>2026-04-22T12:10:00Z</time></trkpt><trkpt lat="59.0993428230" lon="29.9961519241"><time>2026-04-22T12:10:03Z</time></trkpt><trkpt lat="59.0993213654" lon="29.9961304665"><time>2026-04-22T12:10:05Z</time></trkpt><trkpt lat="59.0993213654" lon="29.9961304665"><time>2026-04-22T12:10:08Z</time></trkpt><trkpt lat="59.0993213654" lon="29.9961304665"><time>2026-04-22T12:10:10Z</time></trkpt><trkpt lat="59.0993213654" lon="29.9960875511"><time>2026-04-22T12:10:13Z</time></trkpt><trkpt lat="59.0993428230" lon="29.9960446358"><time>2026-04-22T12:10:15Z</time></trkpt><trkpt lat="59.0993428230" lon="29.9960446358"><time>2026-04-22T12:10:18Z</time></trkpt><trkpt lat="59.0993857384" lon="29.9960660934"><time>2026-04-22T12:10:20Z</time></trkpt><trkpt lat="59.0994286537" lon="29.9960875511"><time>2026-04-22T12:10:23Z</time></trkpt><trkpt lat="59.0995144844" lon="29.9961733818"><time>2026-04-22T12:10:25Z</time></trkpt><trkpt lat="59.0995573997" lon="29.9961733818"><time>2026-04-22T12:10:28Z</time></trkpt><trkpt lat="59.0996003151" lon="29.9961519241"><time>2026-04-22T12:10:30Z</time></trkpt><trkpt lat="59.0996003151" lon="29.9961519241"><time>2026-04-22T12:10:33Z</time></trkpt><trkpt lat="59.0996646881" lon="29.9962162971"><time>2026-04-22T12:10:35Z</time></trkpt><trkpt lat="59.0996861458" lon="29.9962377548"><time>2026-04-22T12:10:38Z</time></trkpt><trkpt lat="59.0997505188" lon="29.9962806702"><time>2026-04-22T12:10:40Z</time></trkpt><trkpt lat="59.0997505188" lon="29.9963021278"><time>2026-04-22T12:10:43Z</time></trkpt><trkpt lat="59.0997934341" lon="29.9964523315"><time>2026-04-22T12:10:45Z</time></trkpt><trkpt lat="59.0997934341" lon="29.9965167046"><time>2026-04-22T12:10:48Z</time></trkpt><trkpt lat="59.0998363495" lon="29.9965810776"><time>2026-04-22T12:10:50Z</time></trkpt><trkpt lat="59.0998578072" lon="29.9965596199"><time>2026-04-22T12:10:53Z</time></trkpt><trkpt lat="59.0998363495" lon="29.9964737892"><time>2026-04-22T12:10:55Z</time></trkpt><trkpt lat="59.0998363495" lon="29.9964308739"><time>2026-04-22T12:10:58Z</time></trkpt><trkpt lat="59.0998578072" lon="29.9963235855"><time>2026-04-22T12:11:00Z</time></trkpt><trkpt lat="59.0998792648" lon="29.9962592125"><time>2026-04-22T12:11:03Z</time></trkpt><trkpt lat="59.0998578072" lon="29.9961948395"><time>2026-04-22T12:11:05Z</time></trkpt><trkpt lat="59.0998578072" lon="29.9961733818"><time>2026-04-22T12:11:08Z</time></trkpt><trkpt lat="59.0998363495" lon="29.9961304665"><time>2026-04-22T12:11:10Z</time></trkpt><trkpt lat="59.0998148918" lon="29.9960875511"><time>2026-04-22T12:11:13Z</time></trkpt><trkpt lat="59.0998148918" lon="29.9960446358"><time>2026-04-22T12:11:15Z</time></trkpt><trkpt lat="59.0998363495" lon="29.9960231781"><time>2026-04-22T12:11:18Z</time></trkpt><trkpt lat="59.0998578072" lon="29.9960017204"><time>2026-04-22T12:11:20Z</time></trkpt><trkpt lat="59.0998578072" lon="29.9960017204"><time>2026-04-22T12:11:23Z</time></trkpt><trkpt lat="59.0998578072" lon="29.9960017204"><time>2026-04-22T12:11:25Z</time></trkpt><trkpt lat="59.0998792648" lon="29.9959802628"><time>2026-04-22T12:11:28Z</time></trkpt><trkpt lat="59.0999221802" lon="29.9959588051"><time>2026-04-22T12:11:30Z</time></trkpt><trkpt lat="59.0999221802" lon="29.9959588051"><time>2026-04-22T12:11:33Z</time></trkpt><trkpt lat="59.0999221802" lon="29.9959588051"><time>2026-04-22T12:11:35Z</time></trkpt><trkpt lat="59.0999221802" lon="29.9959588051"><time>2026-04-22T12:11:38Z</time></trkpt><trkpt lat="59.0999221802" lon="29.9959588051"><time>2026-04-22T12:11:40Z</time></trkpt><trkpt lat="59.0999221802" lon="29.9959588051"><time>2026-04-22T12:11:43Z</time></trkpt><trkpt lat="59.0999650955" lon="29.9958944321"><time>2026-04-22T12:11:45Z</time></trkpt><trkpt lat="59.0999650955" lon="29.9958944321"><time>2026-04-22T12:11:48Z</time></trkpt><trkpt lat="59.0999650955" lon="29.9958515167"><time>2026-04-22T12:11:50Z</time></trkpt><trkpt lat="59.0999865532" lon="29.9958086014"><time>2026-04-22T12:11:53Z</time></trkpt><trkpt lat="59.1000294685" lon="29.9957871437"><time>2026-04-22T12:11:55Z</time></trkpt><trkpt lat="59.1000509262" lon="29.9957442284"><time>2026-04-22T12:11:58Z</time></trkpt><trkpt lat="59.1000509262" lon="29.9957442284"><time>2026-04-22T12:12:00Z</time></trkpt><trkpt lat="59.1000509262" lon="29.9957442284"><time>2026-04-22T12:12:03Z</time></trkpt><trkpt lat="59.1000509262" lon="29.9957442284"><time>2026-04-22T12:12:05Z</time></trkpt><trkpt lat="59.1000938416" lon="29.9957227707"><time>2026-04-22T12:12:08Z</time></trkpt><trkpt lat="59.1001582146" lon="29.9957227707"><time>2026-04-22T12:12:10Z</time></trkpt><trkpt lat="59.1001796722" lon="29.9957227707"><time>2026-04-22T12:12:13Z</time></trkpt><trkpt lat="59.1002225876" lon="29.9957227707"><time>2026-04-22T12:12:15Z</time></trkpt><trkpt lat="59.1002440453" lon="29.9957013130"><time>2026-04-22T12:12:18Z</time></trkpt><trkpt lat="59.1002440453" lon="29.9957013130"><time>2026-04-22T12:12:20Z</time></trkpt><trkpt lat="59.1002440453" lon="29.9957013130"><time>2026-04-22T12:12:23Z</time></trkpt><trkpt lat="59.1002440453" lon="29.9957013130"><time>2026-04-22T12:12:25Z</time></trkpt><trkpt lat="59.1002440453" lon="29.9957227707"><time>2026-04-22T12:12:28Z</time></trkpt><trkpt lat="59.1002869606" lon="29.9957013130"><time>2026-04-22T12:12:30Z</time></trkpt><trkpt lat="59.1003298759" lon="29.9956583977"><time>2026-04-22T12:12:33Z</time></trkpt><trkpt lat="59.1003727913" lon="29.9956369400"><time>2026-04-22T12:12:35Z</time></trkpt><trkpt lat="59.1004157066" lon="29.9956583977"><time>2026-04-22T12:12:38Z</time></trkpt><trkpt lat="59.1004586220" lon="29.9956583977"><time>2026-04-22T12:12:40Z</time></trkpt><trkpt lat="59.1005015373" lon="29.9956369400"><time>2026-04-22T12:12:43Z</time></trkpt><trkpt lat="59.1005229950" lon="29.9956369400"><time>2026-04-22T12:12:45Z</time></trkpt><trkpt lat="59.1005229950" lon="29.9956369400"><time>2026-04-22T12:12:48Z</time></trkpt><trkpt lat="59.1005229950" lon="29.9956369400"><time>2026-04-22T12:12:50Z</time></trkpt><trkpt lat="59.1005229950" lon="29.9956369400"><time>2026-04-22T12:12:53Z</time></trkpt><trkpt lat="59.1005229950" lon="29.9956369400"><time>2026-04-22T12:12:55Z</time></trkpt><trkpt lat="59.1005229950" lon="29.9956369400"><time>2026-04-22T12:12:58Z</time></trkpt><trkpt lat="59.1005444527" lon="29.9956583977"><time>2026-04-22T12:13:00Z</time></trkpt><trkpt lat="59.1005659103" lon="29.9956798553"><time>2026-04-22T12:13:03Z</time></trkpt><trkpt lat="59.1006088257" lon="29.9956583977"><time>2026-04-22T12:13:05Z</time></trkpt><trkpt lat="59.1006088257" lon="29.9956583977"><time>2026-04-22T12:13:08Z</time></trkpt><trkpt lat="59.1006088257" lon="29.9956583977"><time>2026-04-22T12:13:10Z</time></trkpt><trkpt lat="59.1006088257" lon="29.9956583977"><time>2026-04-22T12:13:13Z</time></trkpt><trkpt lat="59.1006088257" lon="29.9956798553"><time>2026-04-22T12:13:15Z</time></trkpt><trkpt lat="59.1006088257" lon="29.9956798553"><time>2026-04-22T12:13:18Z</time></trkpt><trkpt lat="59.1006088257" lon="29.9956798553"><time>2026-04-22T12:13:20Z</time></trkpt><trkpt lat="59.1006088257" lon="29.9956798553"><time>2026-04-22T12:13:23Z</time></trkpt><trkpt lat="59.1006302834" lon="29.9956583977"><time>2026-04-22T12:13:25Z</time></trkpt><trkpt lat="59.1006302834" lon="29.9956798553"><time>2026-04-22T12:13:28Z</time></trkpt><trkpt lat="59.1006517410" lon="29.9956798553"><time>2026-04-22T12:13:30Z</time></trkpt><trkpt lat="59.1006302834" lon="29.9957013130"><time>2026-04-22T12:13:33Z</time></trkpt><trkpt lat="59.1006302834" lon="29.9957013130"><time>2026-04-22T12:13:35Z</time></trkpt><trkpt lat="59.1006302834" lon="29.9957013130"><time>2026-04-22T12:13:38Z</time></trkpt><trkpt lat="59.1006517410" lon="29.9957013130"><time>2026-04-22T12:13:40Z</time></trkpt><trkpt lat="59.1006517410" lon="29.9957013130"><time>2026-04-22T12:13:43Z</time></trkpt><trkpt lat="59.1007161140" lon="29.9957442284"><time>2026-04-22T12:13:45Z</time></trkpt><trkpt lat="59.1007375717" lon="29.9957227707"><time>2026-04-22T12:13:48Z</time></trkpt><trkpt lat="59.1007590294" lon="29.9957442284"><time>2026-04-22T12:13:50Z</time></trkpt><trkpt lat="59.1007590294" lon="29.9957656860"><time>2026-04-22T12:13:53Z</time></trkpt><trkpt lat="59.1007804871" lon="29.9958300591"><time>2026-04-22T12:13:55Z</time></trkpt><trkpt lat="59.1008019447" lon="29.9957871437"><time>2026-04-22T12:13:58Z</time></trkpt><trkpt lat="59.1008663177" lon="29.9958729744"><time>2026-04-22T12:14:00Z</time></trkpt><trkpt lat="59.1009092331" lon="29.9959373474"><time>2026-04-22T12:14:03Z</time></trkpt><trkpt lat="59.1009521484" lon="29.9959802628"><time>2026-04-22T12:14:05Z</time></trkpt><trkpt lat="59.1009521484" lon="29.9960017204"><time>2026-04-22T12:14:08Z</time></trkpt><trkpt lat="59.1009521484" lon="29.9960017204"><time>2026-04-22T12:14:10Z</time></trkpt><trkpt lat="59.1009736061" lon="29.9959802628"><time>2026-04-22T12:14:13Z</time></trkpt><trkpt lat="59.1010165215" lon="29.9958729744"><time>2026-04-22T12:14:15Z</time></trkpt><trkpt lat="59.1010165215" lon="29.9958086014"><time>2026-04-22T12:14:18Z</time></trkpt><trkpt lat="59.1010379791" lon="29.9957656860"><time>2026-04-22T12:14:20Z</time></trkpt><trkpt lat="59.1010165215" lon="29.9957442284"><time>2026-04-22T12:14:23Z</time></trkpt><trkpt lat="59.1010165215" lon="29.9956583977"><time>2026-04-22T12:14:25Z</time></trkpt><trkpt lat="59.1010165215" lon="29.9956583977"><time>2026-04-22T12:14:28Z</time></trkpt><trkpt lat="59.1009736061" lon="29.9956154823"><time>2026-04-22T12:14:30Z</time></trkpt><trkpt lat="59.1009950638" lon="29.9955725670"><time>2026-04-22T12:14:33Z</time></trkpt><trkpt lat="59.1010379791" lon="29.9955511093"><time>2026-04-22T12:14:35Z</time></trkpt><trkpt lat="59.1010379791" lon="29.9955296516"><time>2026-04-22T12:14:38Z</time></trkpt><trkpt lat="59.1010379791" lon="29.9955296516"><time>2026-04-22T12:14:40Z</time></trkpt><trkpt lat="59.1010379791" lon="29.9955296516"><time>2026-04-22T12:14:43Z</time></trkpt><trkpt lat="59.1010379791" lon="29.9955296516"><time>2026-04-22T12:14:45Z</time></trkpt><trkpt lat="59.1010379791" lon="29.9955296516"><time>2026-04-22T12:14:48Z</time></trkpt><trkpt lat="59.1010165215" lon="29.9955511093"><time>2026-04-22T12:14:50Z</time></trkpt><trkpt lat="59.1010165215" lon="29.9955511093"><time>2026-04-22T12:14:53Z</time></trkpt><trkpt lat="59.1010379791" lon="29.9955081940"><time>2026-04-22T12:14:55Z</time></trkpt><trkpt lat="59.1010808945" lon="29.9955081940"><time>2026-04-22T12:14:58Z</time></trkpt><trkpt lat="59.1011238098" lon="29.9955081940"><time>2026-04-22T12:15:00Z</time></trkpt><trkpt lat="59.1011452675" lon="29.9955081940"><time>2026-04-22T12:15:03Z</time></trkpt><trkpt lat="59.1011452675" lon="29.9955081940"><time>2026-04-22T12:15:05Z</time></trkpt><trkpt lat="59.1011452675" lon="29.9955081940"><time>2026-04-22T12:15:08Z</time></trkpt><trkpt lat="59.1011452675" lon="29.9955081940"><time>2026-04-22T12:15:10Z</time></trkpt><trkpt lat="59.1011452675" lon="29.9955081940"><time>2026-04-22T12:15:13Z</time></trkpt><trkpt lat="59.1011667252" lon="29.9954867363"><time>2026-04-22T12:15:15Z</time></trkpt><trkpt lat="59.1011881828" lon="29.9955081940"><time>2026-04-22T12:15:18Z</time></trkpt><trkpt lat="59.1011881828" lon="29.9955081940"><time>2026-04-22T12:15:20Z</time></trkpt><trkpt lat="59.1011881828" lon="29.9955296516"><time>2026-04-22T12:15:23Z</time></trkpt><trkpt lat="59.1011667252" lon="29.9955081940"><time>2026-04-22T12:15:25Z</time></trkpt><trkpt lat="59.1011667252" lon="29.9955081940"><time>2026-04-22T12:15:28Z</time></trkpt><trkpt lat="59.1011667252" lon="29.9955081940"><time>2026-04-22T12:15:30Z</time></trkpt><trkpt lat="59.1011667252" lon="29.9955081940"><time>2026-04-22T12:15:33Z</time></trkpt><trkpt lat="59.1011667252" lon="29.9955081940"><time>2026-04-22T12:15:35Z</time></trkpt><trkpt lat="59.1011667252" lon="29.9955081940"><time>2026-04-22T12:15:38Z</time></trkpt><trkpt lat="59.1011667252" lon="29.9955081940"><time>2026-04-22T12:15:40Z</time></trkpt><trkpt lat="59.1011667252" lon="29.9955081940"><time>2026-04-22T12:15:43Z</time></trkpt><trkpt lat="59.1011667252" lon="29.9955081940"><time>2026-04-22T12:15:45Z</time></trkpt><trkpt lat="59.1011667252" lon="29.9955081940"><time>2026-04-22T12:15:48Z</time></trkpt><trkpt lat="59.1011881828" lon="29.9955081940"><time>2026-04-22T12:15:50Z</time></trkpt><trkpt lat="59.1012096405" lon="29.9955296516"><time>2026-04-22T12:15:53Z</time></trkpt><trkpt lat="59.1012096405" lon="29.9955296516"><time>2026-04-22T12:15:55Z</time></trkpt><trkpt lat="59.1012096405" lon="29.9955296516"><time>2026-04-22T12:15:58Z</time></trkpt><trkpt lat="59.1012096405" lon="29.9955296516"><time>2026-04-22T12:16:00Z</time></trkpt><trkpt lat="59.1012096405" lon="29.9955296516"><time>2026-04-22T12:16:03Z</time></trkpt><trkpt lat="59.1012096405" lon="29.9955296516"><time>2026-04-22T12:16:05Z</time></trkpt><trkpt lat="59.1012096405" lon="29.9955296516"><time>2026-04-22T12:16:08Z</time></trkpt><trkpt lat="59.1012096405" lon="29.9955296516"><time>2026-04-22T12:16:10Z</time></trkpt><trkpt lat="59.1012096405" lon="29.9955296516"><time>2026-04-22T12:16:13Z</time></trkpt><trkpt lat="59.1012096405" lon="29.9955296516"><time>2026-04-22T12:16:15Z</time></trkpt><trkpt lat="59.1012096405" lon="29.9955296516"><time>2026-04-22T12:16:18Z</time></trkpt><trkpt lat="59.1012096405" lon="29.9955296516"><time>2026-04-22T12:16:20Z</time></trkpt><trkpt lat="59.1012096405" lon="29.9955296516"><time>2026-04-22T12:16:23Z</time></trkpt><trkpt lat="59.1012096405" lon="29.9955296516"><time>2026-04-22T12:16:25Z</time></trkpt><trkpt lat="59.1012096405" lon="29.9955296516"><time>2026-04-22T12:16:28Z</time></trkpt><trkpt lat="59.1012096405" lon="29.9955296516"><time>2026-04-22T12:16:30Z</time></trkpt><trkpt lat="59.1012310982" lon="29.9954867363"><time>2026-04-22T12:16:33Z</time></trkpt><trkpt lat="59.1012096405" lon="29.9954867363"><time>2026-04-22T12:16:35Z</time></trkpt><trkpt lat="59.1012310982" lon="29.9954652786"><time>2026-04-22T12:16:38Z</time></trkpt><trkpt lat="59.1012525558" lon="29.9954438210"><time>2026-04-22T12:16:40Z</time></trkpt><trkpt lat="59.1012525558" lon="29.9954223633"><time>2026-04-22T12:16:43Z</time></trkpt><trkpt lat="59.1012525558" lon="29.9953794479"><time>2026-04-22T12:16:45Z</time></trkpt><trkpt lat="59.1012525558" lon="29.9953794479"><time>2026-04-22T12:16:48Z</time></trkpt><trkpt lat="59.1012740135" lon="29.9954009056"><time>2026-04-22T12:16:50Z</time></trkpt><trkpt lat="59.1012954712" lon="29.9954009056"><time>2026-04-22T12:16:53Z</time></trkpt><trkpt lat="59.1012954712" lon="29.9953794479"><time>2026-04-22T12:16:55Z</time></trkpt><trkpt lat="59.1012954712" lon="29.9953579903"><time>2026-04-22T12:16:58Z</time></trkpt><trkpt lat="59.1012954712" lon="29.9953365326"><time>2026-04-22T12:17:00Z</time></trkpt><trkpt lat="59.1012954712" lon="29.9953150749"><time>2026-04-22T12:17:03Z</time></trkpt><trkpt lat="59.1013383865" lon="29.9952936172"><time>2026-04-22T12:17:05Z</time></trkpt><trkpt lat="59.1013598442" lon="29.9952936172"><time>2026-04-22T12:17:08Z</time></trkpt><trkpt lat="59.1013813019" lon="29.9952936172"><time>2026-04-22T12:17:10Z</time></trkpt><trkpt lat="59.1013813019" lon="29.9952936172"><time>2026-04-22T12:17:13Z</time></trkpt><trkpt lat="59.1013813019" lon="29.9952507019"><time>2026-04-22T12:17:15Z</time></trkpt><trkpt lat="59.1014027596" lon="29.9952077866"><time>2026-04-22T12:17:18Z</time></trkpt><trkpt lat="59.1014242172" lon="29.9951434135"><time>2026-04-22T12:17:20Z</time></trkpt><trkpt lat="59.1014456749" lon="29.9951434135"><time>2026-04-22T12:17:23Z</time></trkpt><trkpt lat="59.1014456749" lon="29.9951434135"><time>2026-04-22T12:17:25Z</time></trkpt><trkpt lat="59.1014671326" lon="29.9951863289"><time>2026-04-22T12:17:28Z</time></trkpt><trkpt lat="59.1014671326" lon="29.9951863289"><time>2026-04-22T12:17:30Z</time></trkpt><trkpt lat="59.1014671326" lon="29.9951863289"><time>2026-04-22T12:17:33Z</time></trkpt><trkpt lat="59.1014456749" lon="29.9951648712"><time>2026-04-22T12:17:35Z</time></trkpt><trkpt lat="59.1014456749" lon="29.9951434135"><time>2026-04-22T12:17:38Z</time></trkpt><trkpt lat="59.1014456749" lon="29.9951434135"><time>2026-04-22T12:17:40Z</time></trkpt><trkpt lat="59.1014456749" lon="29.9951219559"><time>2026-04-22T12:17:43Z</time></trkpt><trkpt lat="59.1014456749" lon="29.9951004982"><time>2026-04-22T12:17:45Z</time></trkpt><trkpt lat="59.1014456749" lon="29.9950575829"><time>2026-04-22T12:17:48Z</time></trkpt><trkpt lat="59.1014456749" lon="29.9950575829"><time>2026-04-22T12:17:50Z</time></trkpt><trkpt lat="59.1014456749" lon="29.9950575829"><time>2026-04-22T12:17:53Z</time></trkpt><trkpt lat="59.1014671326" lon="29.9950575829"><time>2026-04-22T12:17:55Z</time></trkpt><trkpt lat="59.1014885902" lon="29.9951004982"><time>2026-04-22T12:17:58Z</time></trkpt><trkpt lat="59.1014885902" lon="29.9951004982"><time>2026-04-22T12:18:00Z</time></trkpt><trkpt lat="59.1014885902" lon="29.9951004982"><time>2026-04-22T12:18:03Z</time></trkpt><trkpt lat="59.1015100479" lon="29.9950790405"><time>2026-04-22T12:18:05Z</time></trkpt><trkpt lat="59.1015100479" lon="29.9950575829"><time>2026-04-22T12:18:08Z</time></trkpt><trkpt lat="59.1015315056" lon="29.9950575829"><time>2026-04-22T12:18:10Z</time></trkpt><trkpt lat="59.1015100479" lon="29.9950790405"><time>2026-04-22T12:18:13Z</time></trkpt><trkpt lat="59.1015529633" lon="29.9950575829"><time>2026-04-22T12:18:18Z</time></trkpt><trkpt lat="59.1015958786" lon="29.9950146675"><time>2026-04-22T12:18:20Z</time></trkpt><trkpt lat="59.1016173363" lon="29.9950146675"><time>2026-04-22T12:18:23Z</time></trkpt><trkpt lat="59.1016173363" lon="29.9950146675"><time>2026-04-22T12:18:25Z</time></trkpt><trkpt lat="59.1016173363" lon="29.9950146675"><time>2026-04-22T12:18:28Z</time></trkpt><trkpt lat="59.1016173363" lon="29.9950146675"><time>2026-04-22T12:18:30Z</time></trkpt><trkpt lat="59.1016387939" lon="29.9949932098"><time>2026-04-22T12:18:33Z</time></trkpt><trkpt lat="59.1016602516" lon="29.9949288368"><time>2026-04-22T12:18:35Z</time></trkpt><trkpt lat="59.1016817093" lon="29.9949288368"><time>2026-04-22T12:18:38Z</time></trkpt><trkpt lat="59.1016817093" lon="29.9949502945"><time>2026-04-22T12:18:40Z</time></trkpt><trkpt lat="59.1017031670" lon="29.9949502945"><time>2026-04-22T12:18:43Z</time></trkpt><trkpt lat="59.1017246246" lon="29.9949932098"><time>2026-04-22T12:18:45Z</time></trkpt><trkpt lat="59.1017246246" lon="29.9949717522"><time>2026-04-22T12:18:48Z</time></trkpt><trkpt lat="59.1017675400" lon="29.9949502945"><time>2026-04-22T12:18:50Z</time></trkpt><trkpt lat="59.1017889977" lon="29.9949502945"><time>2026-04-22T12:18:53Z</time></trkpt><trkpt lat="59.1018319130" lon="29.9948859215"><time>2026-04-22T12:18:58Z</time></trkpt><trkpt lat="59.1018533707" lon="29.9948644638"><time>2026-04-22T12:19:00Z</time></trkpt><trkpt lat="59.1018748283" lon="29.9948644638"><time>2026-04-22T12:19:03Z</time></trkpt><trkpt lat="59.1018748283" lon="29.9948430061"><time>2026-04-22T12:19:05Z</time></trkpt><trkpt lat="59.1018748283" lon="29.9948430061"><time>2026-04-22T12:19:08Z</time></trkpt><trkpt lat="59.1018962860" lon="29.9948430061"><time>2026-04-22T12:19:10Z</time></trkpt><trkpt lat="59.1019177437" lon="29.9948000908"><time>2026-04-22T12:19:13Z</time></trkpt><trkpt lat="59.1019177437" lon="29.9947571754"><time>2026-04-22T12:19:15Z</time></trkpt><trkpt lat="59.1019177437" lon="29.9947357178"><time>2026-04-22T12:19:18Z</time></trkpt><trkpt lat="59.1019177437" lon="29.9947142601"><time>2026-04-22T12:19:20Z</time></trkpt><trkpt lat="59.1019392014" lon="29.9946928024"><time>2026-04-22T12:19:23Z</time></trkpt><trkpt lat="59.1019606590" lon="29.9946713448"><time>2026-04-22T12:19:25Z</time></trkpt><trkpt lat="59.1019606590" lon="29.9946498871"><time>2026-04-22T12:19:28Z</time></trkpt><trkpt lat="59.1019606590" lon="29.9946498871"><time>2026-04-22T12:19:30Z</time></trkpt><trkpt lat="59.1019392014" lon="29.9946713448"><time>2026-04-22T12:19:33Z</time></trkpt><trkpt lat="59.1019606590" lon="29.9947142601"><time>2026-04-22T12:19:35Z</time></trkpt><trkpt lat="59.1019606590" lon="29.9946928024"><time>2026-04-22T12:19:38Z</time></trkpt><trkpt lat="59.1019821167" lon="29.9946713448"><time>2026-04-22T12:19:40Z</time></trkpt><trkpt lat="59.1019821167" lon="29.9946713448"><time>2026-04-22T12:19:43Z</time></trkpt><trkpt lat="59.1019821167" lon="29.9946928024"><time>2026-04-22T12:19:45Z</time></trkpt><trkpt lat="59.1019821167" lon="29.9946928024"><time>2026-04-22T12:19:48Z</time></trkpt><trkpt lat="59.1019821167" lon="29.9946284294"><time>2026-04-22T12:19:50Z</time></trkpt><trkpt lat="59.1020035744" lon="29.9945855141"><time>2026-04-22T12:19:53Z</time></trkpt><trkpt lat="59.1020035744" lon="29.9946069717"><time>2026-04-22T12:19:55Z</time></trkpt><trkpt lat="59.1020250320" lon="29.9945855141"><time>2026-04-22T12:19:58Z</time></trkpt><trkpt lat="59.1020464897" lon="29.9945855141"><time>2026-04-22T12:20:00Z</time></trkpt><trkpt lat="59.1020464897" lon="29.9946069717"><time>2026-04-22T12:20:03Z</time></trkpt><trkpt lat="59.1020464897" lon="29.9946069717"><time>2026-04-22T12:20:05Z</time></trkpt><trkpt lat="59.1020679474" lon="29.9946498871"><time>2026-04-22T12:20:08Z</time></trkpt><trkpt lat="59.1020679474" lon="29.9946498871"><time>2026-04-22T12:20:10Z</time></trkpt><trkpt lat="59.1021108627" lon="29.9946069717"><time>2026-04-22T12:20:13Z</time></trkpt><trkpt lat="59.1021323204" lon="29.9946069717"><time>2026-04-22T12:20:15Z</time></trkpt><trkpt lat="59.1021966934" lon="29.9946069717"><time>2026-04-22T12:20:18Z</time></trkpt><trkpt lat="59.1022181511" lon="29.9946284294"><time>2026-04-22T12:20:20Z</time></trkpt><trkpt lat="59.1022610664" lon="29.9946284294"><time>2026-04-22T12:20:23Z</time></trkpt><trkpt lat="59.1023039818" lon="29.9946284294"><time>2026-04-22T12:20:25Z</time></trkpt><trkpt lat="59.1023683548" lon="29.9946069717"><time>2026-04-22T12:20:28Z</time></trkpt><trkpt lat="59.1023898125" lon="29.9945640564"><time>2026-04-22T12:20:30Z</time></trkpt><trkpt lat="59.1024112701" lon="29.9944782257"><time>2026-04-22T12:20:33Z</time></trkpt><trkpt lat="59.1024327278" lon="29.9944567680"><time>2026-04-22T12:20:35Z</time></trkpt><trkpt lat="59.1024541855" lon="29.9944353104"><time>2026-04-22T12:20:38Z</time></trkpt><trkpt lat="59.1024541855" lon="29.9944353104"><time>2026-04-22T12:20:40Z</time></trkpt><trkpt lat="59.1024541855" lon="29.9944353104"><time>2026-04-22T12:20:43Z</time></trkpt><trkpt lat="59.1024541855" lon="29.9944353104"><time>2026-04-22T12:20:45Z</time></trkpt><trkpt lat="59.1024756432" lon="29.9943923950"><time>2026-04-22T12:20:48Z</time></trkpt><trkpt lat="59.1024756432" lon="29.9943494797"><time>2026-04-22T12:20:50Z</time></trkpt><trkpt lat="59.1024541855" lon="29.9942636490"><time>2026-04-22T12:20:53Z</time></trkpt><trkpt lat="59.1024756432" lon="29.9942207336"><time>2026-04-22T12:20:55Z</time></trkpt><trkpt lat="59.1024541855" lon="29.9941563606"><time>2026-04-22T12:20:58Z</time></trkpt><trkpt lat="59.1024541855" lon="29.9941563606"><time>2026-04-22T12:21:00Z</time></trkpt><trkpt lat="59.1024541855" lon="29.9941992760"><time>2026-04-22T12:21:03Z</time></trkpt><trkpt lat="59.1024112701" lon="29.9941778183"><time>2026-04-22T12:21:05Z</time></trkpt><trkpt lat="59.1023898125" lon="29.9941563606"><time>2026-04-22T12:21:08Z</time></trkpt><trkpt lat="59.1023468971" lon="29.9943065643"><time>2026-04-22T12:21:10Z</time></trkpt><trkpt lat="59.1023039818" lon="29.9943709373"><time>2026-04-22T12:21:13Z</time></trkpt><trkpt lat="59.1022825241" lon="29.9944782257"><time>2026-04-22T12:21:15Z</time></trkpt><trkpt lat="59.1022825241" lon="29.9944782257"><time>2026-04-22T12:21:18Z</time></trkpt><trkpt lat="59.1023039818" lon="29.9944138527"><time>2026-04-22T12:21:20Z</time></trkpt><trkpt lat="59.1022825241" lon="29.9943923950"><time>2026-04-22T12:21:23Z</time></trkpt><trkpt lat="59.1023039818" lon="29.9943065643"><time>2026-04-22T12:21:25Z</time></trkpt><trkpt lat="59.1023039818" lon="29.9942421913"><time>2026-04-22T12:21:28Z</time></trkpt><trkpt lat="59.1023039818" lon="29.9942421913"><time>2026-04-22T12:21:30Z</time></trkpt><trkpt lat="59.1023039818" lon="29.9942207336"><time>2026-04-22T12:21:33Z</time></trkpt><trkpt lat="59.1023254395" lon="29.9941134453"><time>2026-04-22T12:21:35Z</time></trkpt><trkpt lat="59.1023254395" lon="29.9940919876"><time>2026-04-22T12:21:38Z</time></trkpt><trkpt lat="59.1023254395" lon="29.9940919876"><time>2026-04-22T12:21:40Z</time></trkpt><trkpt lat="59.1023254395" lon="29.9940919876"><time>2026-04-22T12:21:43Z</time></trkpt><trkpt lat="59.1023254395" lon="29.9940490723"><time>2026-04-22T12:21:45Z</time></trkpt><trkpt lat="59.1023254395" lon="29.9939846992"><time>2026-04-22T12:21:48Z</time></trkpt><trkpt lat="59.1023254395" lon="29.9939203262"><time>2026-04-22T12:21:50Z</time></trkpt><trkpt lat="59.1023254395" lon="29.9938988686"><time>2026-04-22T12:21:53Z</time></trkpt><trkpt lat="59.1023254395" lon="29.9938988686"><time>2026-04-22T12:21:55Z</time></trkpt><trkpt lat="59.1023039818" lon="29.9938774109"><time>2026-04-22T12:21:58Z</time></trkpt><trkpt lat="59.1022825241" lon="29.9938344955"><time>2026-04-22T12:22:00Z</time></trkpt><trkpt lat="59.1022610664" lon="29.9938344955"><time>2026-04-22T12:22:03Z</time></trkpt><trkpt lat="59.1022825241" lon="29.9938774109"><time>2026-04-22T12:22:05Z</time></trkpt><trkpt lat="59.1023039818" lon="29.9938988686"><time>2026-04-22T12:22:08Z</time></trkpt><trkpt lat="59.1023254395" lon="29.9939846992"><time>2026-04-22T12:22:10Z</time></trkpt><trkpt lat="59.1023039818" lon="29.9940490723"><time>2026-04-22T12:22:13Z</time></trkpt><trkpt lat="59.1022610664" lon="29.9941349030"><time>2026-04-22T12:22:15Z</time></trkpt><trkpt lat="59.1022610664" lon="29.9941778183"><time>2026-04-22T12:22:18Z</time></trkpt><trkpt lat="59.1022396088" lon="29.9941349030"><time>2026-04-22T12:22:20Z</time></trkpt><trkpt lat="59.1022396088" lon="29.9941349030"><time>2026-04-22T12:22:23Z</time></trkpt><trkpt lat="59.1022181511" lon="29.9940705299"><time>2026-04-22T12:22:25Z</time></trkpt><trkpt lat="59.1022181511" lon="29.9940705299"><time>2026-04-22T12:22:28Z</time></trkpt><trkpt lat="59.1022181511" lon="29.9940705299"><time>2026-04-22T12:22:30Z</time></trkpt><trkpt lat="59.1022181511" lon="29.9940705299"><time>2026-04-22T12:22:33Z</time></trkpt><trkpt lat="59.1022181511" lon="29.9940705299"><time>2026-04-22T12:22:35Z</time></trkpt><trkpt lat="59.1021966934" lon="29.9940919876"><time>2026-04-22T12:22:38Z</time></trkpt><trkpt lat="59.1022181511" lon="29.9940919876"><time>2026-04-22T12:22:43Z</time></trkpt><trkpt lat="59.1022396088" lon="29.9940490723"><time>2026-04-22T12:22:45Z</time></trkpt><trkpt lat="59.1022181511" lon="29.9940276146"><time>2026-04-22T12:22:48Z</time></trkpt><trkpt lat="59.1022181511" lon="29.9940276146"><time>2026-04-22T12:22:50Z</time></trkpt><trkpt lat="59.1022181511" lon="29.9940276146"><time>2026-04-22T12:22:53Z</time></trkpt><trkpt lat="59.1022396088" lon="29.9940919876"><time>2026-04-22T12:22:55Z</time></trkpt><trkpt lat="59.1022825241" lon="29.9941134453"><time>2026-04-22T12:22:58Z</time></trkpt><trkpt lat="59.1022825241" lon="29.9941563606"><time>2026-04-22T12:23:00Z</time></trkpt><trkpt lat="59.1022825241" lon="29.9941992760"><time>2026-04-22T12:23:03Z</time></trkpt><trkpt lat="59.1023254395" lon="29.9942636490"><time>2026-04-22T12:23:05Z</time></trkpt><trkpt lat="59.1023254395" lon="29.9942636490"><time>2026-04-22T12:23:08Z</time></trkpt><trkpt lat="59.1023039818" lon="29.9943065643"><time>2026-04-22T12:23:10Z</time></trkpt><trkpt lat="59.1023039818" lon="29.9943280220"><time>2026-04-22T12:23:13Z</time></trkpt><trkpt lat="59.1023039818" lon="29.9943923950"><time>2026-04-22T12:23:15Z</time></trkpt><trkpt lat="59.1023039818" lon="29.9944138527"><time>2026-04-22T12:23:18Z</time></trkpt><trkpt lat="59.1023254395" lon="29.9944782257"><time>2026-04-22T12:23:20Z</time></trkpt><trkpt lat="59.1023254395" lon="29.9944996834"><time>2026-04-22T12:23:23Z</time></trkpt><trkpt lat="59.1023468971" lon="29.9945640564"><time>2026-04-22T12:23:25Z</time></trkpt><trkpt lat="59.1023468971" lon="29.9945640564"><time>2026-04-22T12:23:28Z</time></trkpt><trkpt lat="59.1023254395" lon="29.9945640564"><time>2026-04-22T12:23:30Z</time></trkpt><trkpt lat="59.1023254395" lon="29.9945425987"><time>2026-04-22T12:23:33Z</time></trkpt><trkpt lat="59.1023254395" lon="29.9945425987"><time>2026-04-22T12:23:35Z</time></trkpt><trkpt lat="59.1023468971" lon="29.9945425987"><time>2026-04-22T12:23:38Z</time></trkpt><trkpt lat="59.1023468971" lon="29.9945855141"><time>2026-04-22T12:23:40Z</time></trkpt><trkpt lat="59.1023468971" lon="29.9945855141"><time>2026-04-22T12:23:43Z</time></trkpt><trkpt lat="59.1023468971" lon="29.9945855141"><time>2026-04-22T12:23:45Z</time></trkpt><trkpt lat="59.1023468971" lon="29.9946284294"><time>2026-04-22T12:23:48Z</time></trkpt><trkpt lat="59.1023254395" lon="29.9946713448"><time>2026-04-22T12:23:50Z</time></trkpt><trkpt lat="59.1023254395" lon="29.9946713448"><time>2026-04-22T12:23:53Z</time></trkpt><trkpt lat="59.1023254395" lon="29.9946713448"><time>2026-04-22T12:23:55Z</time></trkpt><trkpt lat="59.1023254395" lon="29.9946713448"><time>2026-04-22T12:23:58Z</time></trkpt><trkpt lat="59.1023254395" lon="29.9946713448"><time>2026-04-22T12:24:00Z</time></trkpt><trkpt lat="59.1023254395" lon="29.9946713448"><time>2026-04-22T12:24:03Z</time></trkpt><trkpt lat="59.1022825241" lon="29.9946928024"><time>2026-04-22T12:24:08Z</time></trkpt><trkpt lat="59.1022825241" lon="29.9946928024"><time>2026-04-22T12:24:10Z</time></trkpt><trkpt lat="59.1022825241" lon="29.9946928024"><time>2026-04-22T12:24:13Z</time></trkpt><trkpt lat="59.1022825241" lon="29.9946928024"><time>2026-04-22T12:24:15Z</time></trkpt><trkpt lat="59.1022825241" lon="29.9946928024"><time>2026-04-22T12:24:18Z</time></trkpt><trkpt lat="59.1022825241" lon="29.9946928024"><time>2026-04-22T12:24:20Z</time></trkpt><trkpt lat="59.1022825241" lon="29.9946928024"><time>2026-04-22T12:24:23Z</time></trkpt><trkpt lat="59.1022825241" lon="29.9946928024"><time>2026-04-22T12:24:25Z</time></trkpt><trkpt lat="59.1022825241" lon="29.9946928024"><time>2026-04-22T12:24:28Z</time></trkpt><trkpt lat="59.1022825241" lon="29.9946928024"><time>2026-04-22T12:24:30Z</time></trkpt><trkpt lat="59.1022825241" lon="29.9946928024"><time>2026-04-22T12:24:33Z</time></trkpt><trkpt lat="59.1022825241" lon="29.9946928024"><time>2026-04-22T12:24:35Z</time></trkpt><trkpt lat="59.1022825241" lon="29.9946928024"><time>2026-04-22T12:24:38Z</time></trkpt><trkpt lat="59.1022825241" lon="29.9946928024"><time>2026-04-22T12:24:40Z</time></trkpt><trkpt lat="59.1022825241" lon="29.9946928024"><time>2026-04-22T12:24:43Z</time></trkpt><trkpt lat="59.1023039818" lon="29.9946284294"><time>2026-04-22T12:24:45Z</time></trkpt><trkpt lat="59.1023254395" lon="29.9946498871"><time>2026-04-22T12:24:48Z</time></trkpt><trkpt lat="59.1023898125" lon="29.9946928024"><time>2026-04-22T12:24:50Z</time></trkpt><trkpt lat="59.1024112701" lon="29.9947142601"><time>2026-04-22T12:24:53Z</time></trkpt><trkpt lat="59.1024112701" lon="29.9947357178"><time>2026-04-22T12:24:55Z</time></trkpt><trkpt lat="59.1024112701" lon="29.9947357178"><time>2026-04-22T12:24:58Z</time></trkpt><trkpt lat="59.1024112701" lon="29.9947357178"><time>2026-04-22T12:25:00Z</time></trkpt><trkpt lat="59.1024327278" lon="29.9947142601"><time>2026-04-22T12:25:03Z</time></trkpt><trkpt lat="59.1024756432" lon="29.9946928024"><time>2026-04-22T12:25:05Z</time></trkpt><trkpt lat="59.1024971008" lon="29.9946928024"><time>2026-04-22T12:25:08Z</time></trkpt><trkpt lat="59.1024971008" lon="29.9946713448"><time>2026-04-22T12:25:10Z</time></trkpt><trkpt lat="59.1024971008" lon="29.9946713448"><time>2026-04-22T12:25:13Z</time></trkpt><trkpt lat="59.1024971008" lon="29.9946928024"><time>2026-04-22T12:25:15Z</time></trkpt><trkpt lat="59.1025185585" lon="29.9947142601"><time>2026-04-22T12:25:18Z</time></trkpt><trkpt lat="59.1025400162" lon="29.9947142601"><time>2026-04-22T12:25:20Z</time></trkpt><trkpt lat="59.1025400162" lon="29.9947142601"><time>2026-04-22T12:25:23Z</time></trkpt><trkpt lat="59.1025400162" lon="29.9947142601"><time>2026-04-22T12:25:25Z</time></trkpt><trkpt lat="59.1025400162" lon="29.9947357178"><time>2026-04-22T12:25:28Z</time></trkpt><trkpt lat="59.1025829315" lon="29.9947571754"><time>2026-04-22T12:25:30Z</time></trkpt><trkpt lat="59.1026043892" lon="29.9947357178"><time>2026-04-22T12:25:33Z</time></trkpt><trkpt lat="59.1026043892" lon="29.9947357178"><time>2026-04-22T12:25:35Z</time></trkpt><trkpt lat="59.1026043892" lon="29.9947142601"><time>2026-04-22T12:25:38Z</time></trkpt><trkpt lat="59.1026258469" lon="29.9947142601"><time>2026-04-22T12:25:40Z</time></trkpt><trkpt lat="59.1026258469" lon="29.9946928024"><time>2026-04-22T12:25:43Z</time></trkpt><trkpt lat="59.1026258469" lon="29.9947142601"><time>2026-04-22T12:25:45Z</time></trkpt><trkpt lat="59.1026473045" lon="29.9947142601"><time>2026-04-22T12:25:48Z</time></trkpt><trkpt lat="59.1026473045" lon="29.9947142601"><time>2026-04-22T12:25:50Z</time></trkpt><trkpt lat="59.1026473045" lon="29.9947142601"><time>2026-04-22T12:25:53Z</time></trkpt><trkpt lat="59.1026902199" lon="29.9947142601"><time>2026-04-22T12:25:55Z</time></trkpt><trkpt lat="59.1026902199" lon="29.9947142601"><time>2026-04-22T12:25:58Z</time></trkpt><trkpt lat="59.1027116776" lon="29.9946928024"><time>2026-04-22T12:26:00Z</time></trkpt><trkpt lat="59.1026902199" lon="29.9946928024"><time>2026-04-22T12:26:03Z</time></trkpt><trkpt lat="59.1026902199" lon="29.9946069717"><time>2026-04-22T12:26:05Z</time></trkpt><trkpt lat="59.1027116776" lon="29.9945425987"><time>2026-04-22T12:26:08Z</time></trkpt><trkpt lat="59.1027116776" lon="29.9945425987"><time>2026-04-22T12:26:10Z</time></trkpt><trkpt lat="59.1027116776" lon="29.9945425987"><time>2026-04-22T12:26:13Z</time></trkpt><trkpt lat="59.1027116776" lon="29.9946069717"><time>2026-04-22T12:26:15Z</time></trkpt><trkpt lat="59.1027116776" lon="29.9946069717"><time>2026-04-22T12:26:18Z</time></trkpt><trkpt lat="59.1027331352" lon="29.9945855141"><time>2026-04-22T12:26:20Z</time></trkpt><trkpt lat="59.1027331352" lon="29.9945640564"><time>2026-04-22T12:26:23Z</time></trkpt><trkpt lat="59.1027545929" lon="29.9944996834"><time>2026-04-22T12:26:25Z</time></trkpt><trkpt lat="59.1027545929" lon="29.9944567680"><time>2026-04-22T12:26:28Z</time></trkpt><trkpt lat="59.1027545929" lon="29.9944353104"><time>2026-04-22T12:26:30Z</time></trkpt><trkpt lat="59.1027331352" lon="29.9944138527"><time>2026-04-22T12:26:33Z</time></trkpt><trkpt lat="59.1027331352" lon="29.9944353104"><time>2026-04-22T12:26:35Z</time></trkpt><trkpt lat="59.1027331352" lon="29.9944353104"><time>2026-04-22T12:26:38Z</time></trkpt><trkpt lat="59.1027545929" lon="29.9944567680"><time>2026-04-22T12:26:40Z</time></trkpt><trkpt lat="59.1027545929" lon="29.9944353104"><time>2026-04-22T12:26:43Z</time></trkpt><trkpt lat="59.1027545929" lon="29.9944353104"><time>2026-04-22T12:26:45Z</time></trkpt><trkpt lat="59.1027545929" lon="29.9944782257"><time>2026-04-22T12:26:48Z</time></trkpt><trkpt lat="59.1027760506" lon="29.9944782257"><time>2026-04-22T12:26:50Z</time></trkpt><trkpt lat="59.1027975082" lon="29.9944567680"><time>2026-04-22T12:26:53Z</time></trkpt><trkpt lat="59.1028404236" lon="29.9944353104"><time>2026-04-22T12:26:55Z</time></trkpt><trkpt lat="59.1028404236" lon="29.9944138527"><time>2026-04-22T12:26:58Z</time></trkpt><trkpt lat="59.1028404236" lon="29.9944138527"><time>2026-04-22T12:27:00Z</time></trkpt><trkpt lat="59.1028404236" lon="29.9944138527"><time>2026-04-22T12:27:03Z</time></trkpt><trkpt lat="59.1028833389" lon="29.9943923950"><time>2026-04-22T12:27:05Z</time></trkpt><trkpt lat="59.1029047966" lon="29.9943923950"><time>2026-04-22T12:27:08Z</time></trkpt><trkpt lat="59.1029262543" lon="29.9943709373"><time>2026-04-22T12:27:10Z</time></trkpt><trkpt lat="59.1029477119" lon="29.9943923950"><time>2026-04-22T12:27:13Z</time></trkpt><trkpt lat="59.1029691696" lon="29.9943923950"><time>2026-04-22T12:27:15Z</time></trkpt><trkpt lat="59.1029691696" lon="29.9943923950"><time>2026-04-22T12:27:18Z</time></trkpt><trkpt lat="59.1029906273" lon="29.9943709373"><time>2026-04-22T12:27:20Z</time></trkpt><trkpt lat="59.1030335426" lon="29.9943494797"><time>2026-04-22T12:27:23Z</time></trkpt><trkpt lat="59.1030550003" lon="29.9943280220"><time>2026-04-22T12:27:25Z</time></trkpt><trkpt lat="59.1030764580" lon="29.9943065643"><time>2026-04-22T12:27:28Z</time></trkpt><trkpt lat="59.1030979156" lon="29.9943280220"><time>2026-04-22T12:27:30Z</time></trkpt><trkpt lat="59.1031193733" lon="29.9943709373"><time>2026-04-22T12:27:33Z</time></trkpt><trkpt lat="59.1031622887" lon="29.9943923950"><time>2026-04-22T12:27:35Z</time></trkpt><trkpt lat="59.1031837463" lon="29.9944138527"><time>2026-04-22T12:27:38Z</time></trkpt><trkpt lat="59.1032052040" lon="29.9943923950"><time>2026-04-22T12:27:40Z</time></trkpt><trkpt lat="59.1032052040" lon="29.9943923950"><time>2026-04-22T12:27:43Z</time></trkpt><trkpt lat="59.1032266617" lon="29.9943494797"><time>2026-04-22T12:27:45Z</time></trkpt><trkpt lat="59.1032481194" lon="29.9943065643"><time>2026-04-22T12:27:48Z</time></trkpt><trkpt lat="59.1032481194" lon="29.9943065643"><time>2026-04-22T12:27:50Z</time></trkpt><trkpt lat="59.1032481194" lon="29.9943065643"><time>2026-04-22T12:27:53Z</time></trkpt><trkpt lat="59.1032481194" lon="29.9943065643"><time>2026-04-22T12:27:55Z</time></trkpt><trkpt lat="59.1032481194" lon="29.9943065643"><time>2026-04-22T12:27:58Z</time></trkpt><trkpt lat="59.1032481194" lon="29.9943065643"><time>2026-04-22T12:28:00Z</time></trkpt><trkpt lat="59.1032481194" lon="29.9943065643"><time>2026-04-22T12:28:03Z</time></trkpt><trkpt lat="59.1032481194" lon="29.9943065643"><time>2026-04-22T12:28:05Z</time></trkpt><trkpt lat="59.1032481194" lon="29.9943065643"><time>2026-04-22T12:28:08Z</time></trkpt><trkpt lat="59.1032481194" lon="29.9943065643"><time>2026-04-22T12:28:10Z</time></trkpt><trkpt lat="59.1032481194" lon="29.9943065643"><time>2026-04-22T12:28:13Z</time></trkpt><trkpt lat="59.1032481194" lon="29.9943065643"><time>2026-04-22T12:28:15Z</time></trkpt><trkpt lat="59.1032481194" lon="29.9943065643"><time>2026-04-22T12:28:18Z</time></trkpt><trkpt lat="59.1032481194" lon="29.9943065643"><time>2026-04-22T12:28:20Z</time></trkpt><trkpt lat="59.1032481194" lon="29.9943065643"><time>2026-04-22T12:28:23Z</time></trkpt><trkpt lat="59.1032695770" lon="29.9943065643"><time>2026-04-22T12:28:25Z</time></trkpt><trkpt lat="59.1032910347" lon="29.9942207336"><time>2026-04-22T12:28:28Z</time></trkpt><trkpt lat="59.1032910347" lon="29.9941778183"><time>2026-04-22T12:28:30Z</time></trkpt><trkpt lat="59.1032910347" lon="29.9941778183"><time>2026-04-22T12:28:33Z</time></trkpt><trkpt lat="59.1032695770" lon="29.9942636490"><time>2026-04-22T12:28:35Z</time></trkpt><trkpt lat="59.1032695770" lon="29.9943065643"><time>2026-04-22T12:28:38Z</time></trkpt><trkpt lat="59.1032695770" lon="29.9943280220"><time>2026-04-22T12:28:40Z</time></trkpt><trkpt lat="59.1032695770" lon="29.9943280220"><time>2026-04-22T12:28:43Z</time></trkpt><trkpt lat="59.1032910347" lon="29.9943494797"><time>2026-04-22T12:28:45Z</time></trkpt><trkpt lat="59.1033124924" lon="29.9944138527"><time>2026-04-22T12:28:48Z</time></trkpt><trkpt lat="59.1033124924" lon="29.9944353104"><time>2026-04-22T12:28:50Z</time></trkpt><trkpt lat="59.1033124924" lon="29.9944138527"><time>2026-04-22T12:28:53Z</time></trkpt><trkpt lat="59.1033339500" lon="29.9943280220"><time>2026-04-22T12:28:55Z</time></trkpt><trkpt lat="59.1033768654" lon="29.9943494797"><time>2026-04-22T12:28:58Z</time></trkpt><trkpt lat="59.1033983231" lon="29.9944138527"><time>2026-04-22T12:29:00Z</time></trkpt><trkpt lat="59.1033983231" lon="29.9944138527"><time>2026-04-22T12:29:03Z</time></trkpt><trkpt lat="59.1033983231" lon="29.9943923950"><time>2026-04-22T12:29:05Z</time></trkpt><trkpt lat="59.1034197807" lon="29.9943923950"><time>2026-04-22T12:29:08Z</time></trkpt><trkpt lat="59.1034412384" lon="29.9944353104"><time>2026-04-22T12:29:10Z</time></trkpt><trkpt lat="59.1034412384" lon="29.9944353104"><time>2026-04-22T12:29:13Z</time></trkpt><trkpt lat="59.1034412384" lon="29.9944353104"><time>2026-04-22T12:29:15Z</time></trkpt><trkpt lat="59.1034412384" lon="29.9944567680"><time>2026-04-22T12:29:18Z</time></trkpt><trkpt lat="59.1034197807" lon="29.9944996834"><time>2026-04-22T12:29:20Z</time></trkpt><trkpt lat="59.1034197807" lon="29.9944996834"><time>2026-04-22T12:29:23Z</time></trkpt><trkpt lat="59.1034626961" lon="29.9945425987"><time>2026-04-22T12:29:25Z</time></trkpt><trkpt lat="59.1034841537" lon="29.9945640564"><time>2026-04-22T12:29:28Z</time></trkpt><trkpt lat="59.1034841537" lon="29.9945640564"><time>2026-04-22T12:29:30Z</time></trkpt><trkpt lat="59.1034841537" lon="29.9945855141"><time>2026-04-22T12:29:33Z</time></trkpt><trkpt lat="59.1035056114" lon="29.9944996834"><time>2026-04-22T12:29:35Z</time></trkpt><trkpt lat="59.1035056114" lon="29.9944353104"><time>2026-04-22T12:29:38Z</time></trkpt><trkpt lat="59.1035270691" lon="29.9943494797"><time>2026-04-22T12:29:40Z</time></trkpt><trkpt lat="59.1035270691" lon="29.9943494797"><time>2026-04-22T12:29:43Z</time></trkpt><trkpt lat="59.1035485268" lon="29.9943280220"><time>2026-04-22T12:29:45Z</time></trkpt><trkpt lat="59.1035485268" lon="29.9943065643"><time>2026-04-22T12:29:48Z</time></trkpt><trkpt lat="59.1035699844" lon="29.9942851067"><time>2026-04-22T12:29:50Z</time></trkpt><trkpt lat="59.1035485268" lon="29.9942636490"><time>2026-04-22T12:29:53Z</time></trkpt><trkpt lat="59.1035485268" lon="29.9942636490"><time>2026-04-22T12:29:55Z</time></trkpt><trkpt lat="59.1035699844" lon="29.9941992760"><time>2026-04-22T12:29:58Z</time></trkpt><trkpt lat="59.1036128998" lon="29.9941778183"><time>2026-04-22T12:30:00Z</time></trkpt><trkpt lat="59.1036343575" lon="29.9941349030"><time>2026-04-22T12:30:03Z</time></trkpt><trkpt lat="59.1036558151" lon="29.9941349030"><time>2026-04-22T12:30:05Z</time></trkpt><trkpt lat="59.1036558151" lon="29.9941349030"><time>2026-04-22T12:30:08Z</time></trkpt><trkpt lat="59.1036558151" lon="29.9941349030"><time>2026-04-22T12:30:10Z</time></trkpt><trkpt lat="59.1036558151" lon="29.9941349030"><time>2026-04-22T12:30:13Z</time></trkpt><trkpt lat="59.1036772728" lon="29.9941134453"><time>2026-04-22T12:30:15Z</time></trkpt><trkpt lat="59.1036772728" lon="29.9940919876"><time>2026-04-22T12:30:18Z</time></trkpt><trkpt lat="59.1036772728" lon="29.9940490723"><time>2026-04-22T12:30:20Z</time></trkpt><trkpt lat="59.1036558151" lon="29.9940705299"><time>2026-04-22T12:30:23Z</time></trkpt><trkpt lat="59.1036343575" lon="29.9941349030"><time>2026-04-22T12:30:25Z</time></trkpt><trkpt lat="59.1036128998" lon="29.9941563606"><time>2026-04-22T12:30:28Z</time></trkpt><trkpt lat="59.1036128998" lon="29.9941563606"><time>2026-04-22T12:30:30Z</time></trkpt><trkpt lat="59.1036128998" lon="29.9941563606"><time>2026-04-22T12:30:33Z</time></trkpt><trkpt lat="59.1036128998" lon="29.9941563606"><time>2026-04-22T12:30:35Z</time></trkpt><trkpt lat="59.1036128998" lon="29.9941349030"><time>2026-04-22T12:30:38Z</time></trkpt><trkpt lat="59.1036128998" lon="29.9941349030"><time>2026-04-22T12:30:40Z</time></trkpt><trkpt lat="59.1036128998" lon="29.9941349030"><time>2026-04-22T12:30:43Z</time></trkpt><trkpt lat="59.1036128998" lon="29.9941349030"><time>2026-04-22T12:30:45Z</time></trkpt><trkpt lat="59.1036128998" lon="29.9941349030"><time>2026-04-22T12:30:48Z</time></trkpt><trkpt lat="59.1036128998" lon="29.9941349030"><time>2026-04-22T12:30:50Z</time></trkpt><trkpt lat="59.1036128998" lon="29.9941349030"><time>2026-04-22T12:30:53Z</time></trkpt><trkpt lat="59.1036128998" lon="29.9940919876"><time>2026-04-22T12:30:55Z</time></trkpt><trkpt lat="59.1036343575" lon="29.9941134453"><time>2026-04-22T12:30:58Z</time></trkpt><trkpt lat="59.1036772728" lon="29.9940490723"><time>2026-04-22T12:31:03Z</time></trkpt><trkpt lat="59.1036772728" lon="29.9940490723"><time>2026-04-22T12:31:05Z</time></trkpt><trkpt lat="59.1036987305" lon="29.9940705299"><time>2026-04-22T12:31:08Z</time></trkpt><trkpt lat="59.1037416458" lon="29.9941134453"><time>2026-04-22T12:31:10Z</time></trkpt><trkpt lat="59.1037845612" lon="29.9941349030"><time>2026-04-22T12:31:13Z</time></trkpt><trkpt lat="59.1038060188" lon="29.9941563606"><time>2026-04-22T12:31:15Z</time></trkpt><trkpt lat="59.1038060188" lon="29.9941563606"><time>2026-04-22T12:31:18Z</time></trkpt><trkpt lat="59.1038274765" lon="29.9941778183"><time>2026-04-22T12:31:20Z</time></trkpt><trkpt lat="59.1038274765" lon="29.9942207336"><time>2026-04-22T12:31:23Z</time></trkpt><trkpt lat="59.1038274765" lon="29.9943065643"><time>2026-04-22T12:31:25Z</time></trkpt><trkpt lat="59.1038274765" lon="29.9943494797"><time>2026-04-22T12:31:28Z</time></trkpt><trkpt lat="59.1038274765" lon="29.9943923950"><time>2026-04-22T12:31:30Z</time></trkpt><trkpt lat="59.1038274765" lon="29.9943923950"><time>2026-04-22T12:31:33Z</time></trkpt><trkpt lat="59.1038489342" lon="29.9943923950"><time>2026-04-22T12:31:35Z</time></trkpt><trkpt lat="59.1038489342" lon="29.9944138527"><time>2026-04-22T12:31:38Z</time></trkpt><trkpt lat="59.1038918495" lon="29.9944138527"><time>2026-04-22T12:31:40Z</time></trkpt><trkpt lat="59.1038918495" lon="29.9944138527"><time>2026-04-22T12:31:43Z</time></trkpt><trkpt lat="59.1038918495" lon="29.9944138527"><time>2026-04-22T12:31:45Z</time></trkpt><trkpt lat="59.1038918495" lon="29.9944138527"><time>2026-04-22T12:31:48Z</time></trkpt><trkpt lat="59.1038918495" lon="29.9944138527"><time>2026-04-22T12:31:50Z</time></trkpt><trkpt lat="59.1038918495" lon="29.9944138527"><time>2026-04-22T12:31:53Z</time></trkpt><trkpt lat="59.1038918495" lon="29.9944138527"><time>2026-04-22T12:31:55Z</time></trkpt><trkpt lat="59.1038918495" lon="29.9944138527"><time>2026-04-22T12:31:58Z</time></trkpt><trkpt lat="59.1039133072" lon="29.9944138527"><time>2026-04-22T12:32:00Z</time></trkpt><trkpt lat="59.1039347649" lon="29.9943923950"><time>2026-04-22T12:32:03Z</time></trkpt><trkpt lat="59.1039776802" lon="29.9943494797"><time>2026-04-22T12:32:05Z</time></trkpt><trkpt lat="59.1039991379" lon="29.9943709373"><time>2026-04-22T12:32:08Z</time></trkpt><trkpt lat="59.1040205956" lon="29.9943923950"><time>2026-04-22T12:32:10Z</time></trkpt><trkpt lat="59.1040420532" lon="29.9943494797"><time>2026-04-22T12:32:13Z</time></trkpt><trkpt lat="59.1040635109" lon="29.9943065643"><time>2026-04-22T12:32:15Z</time></trkpt><trkpt lat="59.1040635109" lon="29.9943065643"><time>2026-04-22T12:32:18Z</time></trkpt><trkpt lat="59.1040635109" lon="29.9943065643"><time>2026-04-22T12:32:20Z</time></trkpt><trkpt lat="59.1040635109" lon="29.9943065643"><time>2026-04-22T12:32:23Z</time></trkpt><trkpt lat="59.1040420532" lon="29.9943280220"><time>2026-04-22T12:32:25Z</time></trkpt><trkpt lat="59.1040420532" lon="29.9943280220"><time>2026-04-22T12:32:28Z</time></trkpt><trkpt lat="59.1040849686" lon="29.9943494797"><time>2026-04-22T12:32:30Z</time></trkpt><trkpt lat="59.1041278839" lon="29.9943709373"><time>2026-04-22T12:32:33Z</time></trkpt><trkpt lat="59.1041493416" lon="29.9943923950"><time>2026-04-22T12:32:35Z</time></trkpt><trkpt lat="59.1041493416" lon="29.9943923950"><time>2026-04-22T12:32:38Z</time></trkpt><trkpt lat="59.1041922569" lon="29.9943923950"><time>2026-04-22T12:32:40Z</time></trkpt><trkpt lat="59.1042137146" lon="29.9944138527"><time>2026-04-22T12:32:43Z</time></trkpt><trkpt lat="59.1042137146" lon="29.9944138527"><time>2026-04-22T12:32:45Z</time></trkpt><trkpt lat="59.1042137146" lon="29.9944138527"><time>2026-04-22T12:32:48Z</time></trkpt><trkpt lat="59.1041922569" lon="29.9943280220"><time>2026-04-22T12:32:50Z</time></trkpt><trkpt lat="59.1042137146" lon="29.9942851067"><time>2026-04-22T12:32:53Z</time></trkpt><trkpt lat="59.1042137146" lon="29.9942851067"><time>2026-04-22T12:32:55Z</time></trkpt><trkpt lat="59.1042137146" lon="29.9942851067"><time>2026-04-22T12:32:58Z</time></trkpt><trkpt lat="59.1042351723" lon="29.9942207336"><time>2026-04-22T12:33:00Z</time></trkpt><trkpt lat="59.1042566299" lon="29.9941778183"><time>2026-04-22T12:33:03Z</time></trkpt><trkpt lat="59.1042566299" lon="29.9940919876"><time>2026-04-22T12:33:05Z</time></trkpt><trkpt lat="59.1042566299" lon="29.9940919876"><time>2026-04-22T12:33:08Z</time></trkpt><trkpt lat="59.1042995453" lon="29.9940919876"><time>2026-04-22T12:33:10Z</time></trkpt><trkpt lat="59.1043210030" lon="29.9940705299"><time>2026-04-22T12:33:13Z</time></trkpt><trkpt lat="59.1043424606" lon="29.9940919876"><time>2026-04-22T12:33:15Z</time></trkpt><trkpt lat="59.1043424606" lon="29.9941134453"><time>2026-04-22T12:33:18Z</time></trkpt><trkpt lat="59.1043639183" lon="29.9941778183"><time>2026-04-22T12:33:20Z</time></trkpt><trkpt lat="59.1043853760" lon="29.9941992760"><time>2026-04-22T12:33:23Z</time></trkpt><trkpt lat="59.1044068336" lon="29.9942207336"><time>2026-04-22T12:33:25Z</time></trkpt><trkpt lat="59.1044068336" lon="29.9942421913"><time>2026-04-22T12:33:28Z</time></trkpt><trkpt lat="59.1044712067" lon="29.9942851067"><time>2026-04-22T12:33:30Z</time></trkpt><trkpt lat="59.1044926643" lon="29.9943065643"><time>2026-04-22T12:33:33Z</time></trkpt><trkpt lat="59.1045141220" lon="29.9943065643"><time>2026-04-22T12:33:35Z</time></trkpt><trkpt lat="59.1045141220" lon="29.9943280220"><time>2026-04-22T12:33:38Z</time></trkpt><trkpt lat="59.1045355797" lon="29.9943280220"><time>2026-04-22T12:33:40Z</time></trkpt><trkpt lat="59.1045355797" lon="29.9943280220"><time>2026-04-22T12:33:43Z</time></trkpt><trkpt lat="59.1045355797" lon="29.9943280220"><time>2026-04-22T12:33:45Z</time></trkpt><trkpt lat="59.1045570374" lon="29.9942636490"><time>2026-04-22T12:33:48Z</time></trkpt><trkpt lat="59.1045570374" lon="29.9942421913"><time>2026-04-22T12:33:50Z</time></trkpt><trkpt lat="59.1045355797" lon="29.9942207336"><time>2026-04-22T12:33:53Z</time></trkpt><trkpt lat="59.1045355797" lon="29.9941992760"><time>2026-04-22T12:33:55Z</time></trkpt><trkpt lat="59.1045355797" lon="29.9941992760"><time>2026-04-22T12:33:58Z</time></trkpt><trkpt lat="59.1045355797" lon="29.9941992760"><time>2026-04-22T12:34:00Z</time></trkpt><trkpt lat="59.1045355797" lon="29.9941992760"><time>2026-04-22T12:34:03Z</time></trkpt><trkpt lat="59.1045355797" lon="29.9941563606"><time>2026-04-22T12:34:05Z</time></trkpt><trkpt lat="59.1045570374" lon="29.9940919876"><time>2026-04-22T12:34:08Z</time></trkpt><trkpt lat="59.1045570374" lon="29.9940061569"><time>2026-04-22T12:34:10Z</time></trkpt><trkpt lat="59.1045355797" lon="29.9939417839"><time>2026-04-22T12:34:13Z</time></trkpt><trkpt lat="59.1045784950" lon="29.9938988686"><time>2026-04-22T12:34:15Z</time></trkpt><trkpt lat="59.1045784950" lon="29.9938774109"><time>2026-04-22T12:34:18Z</time></trkpt><trkpt lat="59.1046214104" lon="29.9938344955"><time>2026-04-22T12:34:20Z</time></trkpt><trkpt lat="59.1046214104" lon="29.9938130379"><time>2026-04-22T12:34:23Z</time></trkpt><trkpt lat="59.1046428680" lon="29.9937915802"><time>2026-04-22T12:34:25Z</time></trkpt><trkpt lat="59.1046428680" lon="29.9937915802"><time>2026-04-22T12:34:28Z</time></trkpt><trkpt lat="59.1046857834" lon="29.9937915802"><time>2026-04-22T12:34:30Z</time></trkpt><trkpt lat="59.1046857834" lon="29.9938130379"><time>2026-04-22T12:34:33Z</time></trkpt><trkpt lat="59.1047286987" lon="29.9938774109"><time>2026-04-22T12:34:35Z</time></trkpt><trkpt lat="59.1047286987" lon="29.9938988686"><time>2026-04-22T12:34:38Z</time></trkpt><trkpt lat="59.1047930717" lon="29.9938988686"><time>2026-04-22T12:34:43Z</time></trkpt><trkpt lat="59.1047930717" lon="29.9938988686"><time>2026-04-22T12:34:45Z</time></trkpt><trkpt lat="59.1048145294" lon="29.9938774109"><time>2026-04-22T12:34:48Z</time></trkpt><trkpt lat="59.1048359871" lon="29.9938988686"><time>2026-04-22T12:34:50Z</time></trkpt><trkpt lat="59.1048359871" lon="29.9938988686"><time>2026-04-22T12:34:53Z</time></trkpt><trkpt lat="59.1048574448" lon="29.9939417839"><time>2026-04-22T12:34:55Z</time></trkpt><trkpt lat="59.1048574448" lon="29.9939632416"><time>2026-04-22T12:34:58Z</time></trkpt><trkpt lat="59.1048574448" lon="29.9939632416"><time>2026-04-22T12:35:00Z</time></trkpt><trkpt lat="59.1048574448" lon="29.9939632416"><time>2026-04-22T12:35:03Z</time></trkpt><trkpt lat="59.1048789024" lon="29.9940276146"><time>2026-04-22T12:35:05Z</time></trkpt><trkpt lat="59.1048789024" lon="29.9940276146"><time>2026-04-22T12:35:08Z</time></trkpt><trkpt lat="59.1049003601" lon="29.9940919876"><time>2026-04-22T12:35:10Z</time></trkpt><trkpt lat="59.1049003601" lon="29.9941134453"><time>2026-04-22T12:35:13Z</time></trkpt><trkpt lat="59.1049003601" lon="29.9941134453"><time>2026-04-22T12:35:15Z</time></trkpt><trkpt lat="59.1049003601" lon="29.9941134453"><time>2026-04-22T12:35:18Z</time></trkpt><trkpt lat="59.1049003601" lon="29.9941134453"><time>2026-04-22T12:35:20Z</time></trkpt><trkpt lat="59.1049003601" lon="29.9941134453"><time>2026-04-22T12:35:23Z</time></trkpt><trkpt lat="59.1049003601" lon="29.9941134453"><time>2026-04-22T12:35:25Z</time></trkpt><trkpt lat="59.1049003601" lon="29.9941134453"><time>2026-04-22T12:35:28Z</time></trkpt><trkpt lat="59.1049003601" lon="29.9941134453"><time>2026-04-22T12:35:30Z</time></trkpt><trkpt lat="59.1049003601" lon="29.9941134453"><time>2026-04-22T12:35:33Z</time></trkpt><trkpt lat="59.1049003601" lon="29.9941134453"><time>2026-04-22T12:35:35Z</time></trkpt><trkpt lat="59.1049003601" lon="29.9941134453"><time>2026-04-22T12:35:38Z</time></trkpt><trkpt lat="59.1049003601" lon="29.9941134453"><time>2026-04-22T12:35:40Z</time></trkpt><trkpt lat="59.1049003601" lon="29.9941134453"><time>2026-04-22T12:35:43Z</time></trkpt><trkpt lat="59.1049003601" lon="29.9941134453"><time>2026-04-22T12:35:45Z</time></trkpt><trkpt lat="59.1049003601" lon="29.9941134453"><time>2026-04-22T12:35:48Z</time></trkpt><trkpt lat="59.1049003601" lon="29.9941134453"><time>2026-04-22T12:35:50Z</time></trkpt><trkpt lat="59.1049003601" lon="29.9941134453"><time>2026-04-22T12:35:53Z</time></trkpt><trkpt lat="59.1049003601" lon="29.9941134453"><time>2026-04-22T12:35:55Z</time></trkpt><trkpt lat="59.1049003601" lon="29.9941134453"><time>2026-04-22T12:35:58Z</time></trkpt><trkpt lat="59.1049003601" lon="29.9941134453"><time>2026-04-22T12:36:00Z</time></trkpt><trkpt lat="59.1048789024" lon="29.9940919876"><time>2026-04-22T12:36:03Z</time></trkpt><trkpt lat="59.1048789024" lon="29.9940919876"><time>2026-04-22T12:36:05Z</time></trkpt><trkpt lat="59.1048789024" lon="29.9940919876"><time>2026-04-22T12:36:08Z</time></trkpt><trkpt lat="59.1048789024" lon="29.9940919876"><time>2026-04-22T12:36:10Z</time></trkpt><trkpt lat="59.1048789024" lon="29.9940919876"><time>2026-04-22T12:36:13Z</time></trkpt><trkpt lat="59.1048789024" lon="29.9940919876"><time>2026-04-22T12:36:15Z</time></trkpt><trkpt lat="59.1048789024" lon="29.9940919876"><time>2026-04-22T12:36:18Z</time></trkpt><trkpt lat="59.1048789024" lon="29.9940919876"><time>2026-04-22T12:36:20Z</time></trkpt><trkpt lat="59.1049003601" lon="29.9940919876"><time>2026-04-22T12:36:23Z</time></trkpt><trkpt lat="59.1049003601" lon="29.9940919876"><time>2026-04-22T12:36:25Z</time></trkpt><trkpt lat="59.1049003601" lon="29.9940919876"><time>2026-04-22T12:36:28Z</time></trkpt><trkpt lat="59.1048789024" lon="29.9940919876"><time>2026-04-22T12:36:30Z</time></trkpt><trkpt lat="59.1048789024" lon="29.9940919876"><time>2026-04-22T12:36:33Z</time></trkpt><trkpt lat="59.1048789024" lon="29.9940919876"><time>2026-04-22T12:36:35Z</time></trkpt><trkpt lat="59.1048789024" lon="29.9940919876"><time>2026-04-22T12:36:38Z</time></trkpt><trkpt lat="59.1048789024" lon="29.9940919876"><time>2026-04-22T12:36:40Z</time></trkpt><trkpt lat="59.1048789024" lon="29.9940919876"><time>2026-04-22T12:36:43Z</time></trkpt><trkpt lat="59.1048789024" lon="29.9940919876"><time>2026-04-22T12:36:45Z</time></trkpt><trkpt lat="59.1048789024" lon="29.9940919876"><time>2026-04-22T12:36:48Z</time></trkpt><trkpt lat="59.1048789024" lon="29.9941134453"><time>2026-04-22T12:36:50Z</time></trkpt><trkpt lat="59.1048789024" lon="29.9941134453"><time>2026-04-22T12:36:53Z</time></trkpt><trkpt lat="59.1048789024" lon="29.9940705299"><time>2026-04-22T12:36:55Z</time></trkpt><trkpt lat="59.1048789024" lon="29.9940705299"><time>2026-04-22T12:36:58Z</time></trkpt><trkpt lat="59.1048789024" lon="29.9940705299"><time>2026-04-22T12:37:00Z</time></trkpt><trkpt lat="59.1048789024" lon="29.9940705299"><time>2026-04-22T12:37:03Z</time></trkpt><trkpt lat="59.1048789024" lon="29.9940705299"><time>2026-04-22T12:37:05Z</time></trkpt><trkpt lat="59.1048789024" lon="29.9940705299"><time>2026-04-22T12:37:08Z</time></trkpt><trkpt lat="59.1048789024" lon="29.9940705299"><time>2026-04-22T12:37:10Z</time></trkpt><trkpt lat="59.1048789024" lon="29.9940705299"><time>2026-04-22T12:37:13Z</time></trkpt><trkpt lat="59.1048789024" lon="29.9940490723"><time>2026-04-22T12:37:15Z</time></trkpt><trkpt lat="59.1048574448" lon="29.9940490723"><time>2026-04-22T12:37:18Z</time></trkpt><trkpt lat="59.1048574448" lon="29.9940490723"><time>2026-04-22T12:37:20Z</time></trkpt><trkpt lat="59.1048789024" lon="29.9940705299"><time>2026-04-22T12:37:23Z</time></trkpt><trkpt lat="59.1049218178" lon="29.9941134453"><time>2026-04-22T12:37:25Z</time></trkpt><trkpt lat="59.1049647331" lon="29.9940919876"><time>2026-04-22T12:37:28Z</time></trkpt><trkpt lat="59.1049861908" lon="29.9940276146"><time>2026-04-22T12:37:30Z</time></trkpt><trkpt lat="59.1049861908" lon="29.9940061569"><time>2026-04-22T12:37:33Z</time></trkpt><trkpt lat="59.1050076485" lon="29.9939632416"><time>2026-04-22T12:37:35Z</time></trkpt><trkpt lat="59.1049861908" lon="29.9939632416"><time>2026-04-22T12:37:38Z</time></trkpt><trkpt lat="59.1050076485" lon="29.9940276146"><time>2026-04-22T12:37:40Z</time></trkpt><trkpt lat="59.1050291061" lon="29.9940276146"><time>2026-04-22T12:37:43Z</time></trkpt><trkpt lat="59.1050720215" lon="29.9940490723"><time>2026-04-22T12:37:45Z</time></trkpt><trkpt lat="59.1050720215" lon="29.9941134453"><time>2026-04-22T12:37:48Z</time></trkpt><trkpt lat="59.1050934792" lon="29.9941134453"><time>2026-04-22T12:37:50Z</time></trkpt><trkpt lat="59.1050934792" lon="29.9940490723"><time>2026-04-22T12:37:53Z</time></trkpt><trkpt lat="59.1051363945" lon="29.9939632416"><time>2026-04-22T12:37:55Z</time></trkpt><trkpt lat="59.1051793098" lon="29.9939203262"><time>2026-04-22T12:37:58Z</time></trkpt><trkpt lat="59.1052007675" lon="29.9938988686"><time>2026-04-22T12:38:00Z</time></trkpt><trkpt lat="59.1052007675" lon="29.9939203262"><time>2026-04-22T12:38:03Z</time></trkpt><trkpt lat="59.1052007675" lon="29.9939417839"><time>2026-04-22T12:38:05Z</time></trkpt><trkpt lat="59.1052436829" lon="29.9940061569"><time>2026-04-22T12:38:08Z</time></trkpt><trkpt lat="59.1052651405" lon="29.9940490723"><time>2026-04-22T12:38:10Z</time></trkpt><trkpt lat="59.1053080559" lon="29.9940276146"><time>2026-04-22T12:38:13Z</time></trkpt><trkpt lat="59.1053295135" lon="29.9940061569"><time>2026-04-22T12:38:15Z</time></trkpt><trkpt lat="59.1053509712" lon="29.9938988686"><time>2026-04-22T12:38:20Z</time></trkpt><trkpt lat="59.1053509712" lon="29.9938774109"><time>2026-04-22T12:38:23Z</time></trkpt><trkpt lat="59.1053724289" lon="29.9938774109"><time>2026-04-22T12:38:25Z</time></trkpt><trkpt lat="59.1053724289" lon="29.9938774109"><time>2026-04-22T12:38:28Z</time></trkpt><trkpt lat="59.1053938866" lon="29.9938988686"><time>2026-04-22T12:38:30Z</time></trkpt><trkpt lat="59.1053938866" lon="29.9938988686"><time>2026-04-22T12:38:33Z</time></trkpt><trkpt lat="59.1054153442" lon="29.9939203262"><time>2026-04-22T12:38:35Z</time></trkpt><trkpt lat="59.1054153442" lon="29.9938988686"><time>2026-04-22T12:38:38Z</time></trkpt><trkpt lat="59.1054153442" lon="29.9938774109"><time>2026-04-22T12:38:40Z</time></trkpt><trkpt lat="59.1054153442" lon="29.9938774109"><time>2026-04-22T12:38:43Z</time></trkpt><trkpt lat="59.1054153442" lon="29.9938774109"><time>2026-04-22T12:38:45Z</time></trkpt><trkpt lat="59.1054153442" lon="29.9938774109"><time>2026-04-22T12:38:48Z</time></trkpt><trkpt lat="59.1054153442" lon="29.9938774109"><time>2026-04-22T12:38:50Z</time></trkpt><trkpt lat="59.1054153442" lon="29.9938774109"><time>2026-04-22T12:38:53Z</time></trkpt><trkpt lat="59.1053509712" lon="29.9939203262"><time>2026-04-22T12:38:55Z</time></trkpt><trkpt lat="59.1053080559" lon="29.9939632416"><time>2026-04-22T12:38:58Z</time></trkpt><trkpt lat="59.1052865982" lon="29.9939632416"><time>2026-04-22T12:39:00Z</time></trkpt><trkpt lat="59.1052865982" lon="29.9939632416"><time>2026-04-22T12:39:03Z</time></trkpt><trkpt lat="59.1052865982" lon="29.9939632416"><time>2026-04-22T12:39:05Z</time></trkpt><trkpt lat="59.1052865982" lon="29.9939632416"><time>2026-04-22T12:39:08Z</time></trkpt><trkpt lat="59.1052865982" lon="29.9939632416"><time>2026-04-22T12:39:10Z</time></trkpt><trkpt lat="59.1052865982" lon="29.9939632416"><time>2026-04-22T12:39:13Z</time></trkpt><trkpt lat="59.1052865982" lon="29.9939632416"><time>2026-04-22T12:39:15Z</time></trkpt><trkpt lat="59.1052865982" lon="29.9939632416"><time>2026-04-22T12:39:18Z</time></trkpt><trkpt lat="59.1052865982" lon="29.9939632416"><time>2026-04-22T12:39:20Z</time></trkpt><trkpt lat="59.1052865982" lon="29.9939632416"><time>2026-04-22T12:39:23Z</time></trkpt><trkpt lat="59.1052865982" lon="29.9939632416"><time>2026-04-22T12:39:25Z</time></trkpt><trkpt lat="59.1052865982" lon="29.9939632416"><time>2026-04-22T12:39:28Z</time></trkpt><trkpt lat="59.1052865982" lon="29.9939632416"><time>2026-04-22T12:39:30Z</time></trkpt><trkpt lat="59.1052865982" lon="29.9939632416"><time>2026-04-22T12:39:33Z</time></trkpt><trkpt lat="59.1052865982" lon="29.9939632416"><time>2026-04-22T12:39:35Z</time></trkpt><trkpt lat="59.1053080559" lon="29.9939417839"><time>2026-04-22T12:39:38Z</time></trkpt><trkpt lat="59.1053295135" lon="29.9939203262"><time>2026-04-22T12:39:40Z</time></trkpt><trkpt lat="59.1053080559" lon="29.9938988686"><time>2026-04-22T12:39:43Z</time></trkpt><trkpt lat="59.1053080559" lon="29.9938559532"><time>2026-04-22T12:39:45Z</time></trkpt><trkpt lat="59.1053080559" lon="29.9938344955"><time>2026-04-22T12:39:48Z</time></trkpt><trkpt lat="59.1053080559" lon="29.9938344955"><time>2026-04-22T12:39:50Z</time></trkpt><trkpt lat="59.1053295135" lon="29.9938344955"><time>2026-04-22T12:39:53Z</time></trkpt><trkpt lat="59.1053509712" lon="29.9937701225"><time>2026-04-22T12:39:55Z</time></trkpt><trkpt lat="59.1053509712" lon="29.9937701225"><time>2026-04-22T12:39:58Z</time></trkpt><trkpt lat="59.1053724289" lon="29.9937701225"><time>2026-04-22T12:40:00Z</time></trkpt><trkpt lat="59.1053938866" lon="29.9937486649"><time>2026-04-22T12:40:03Z</time></trkpt><trkpt lat="59.1053724289" lon="29.9937486649"><time>2026-04-22T12:40:05Z</time></trkpt><trkpt lat="59.1053724289" lon="29.9937057495"><time>2026-04-22T12:40:08Z</time></trkpt><trkpt lat="59.1053724289" lon="29.9936413765"><time>2026-04-22T12:40:10Z</time></trkpt><trkpt lat="59.1053724289" lon="29.9936413765"><time>2026-04-22T12:40:13Z</time></trkpt><trkpt lat="59.1053724289" lon="29.9936199188"><time>2026-04-22T12:40:15Z</time></trkpt><trkpt lat="59.1053724289" lon="29.9936199188"><time>2026-04-22T12:40:18Z</time></trkpt><trkpt lat="59.1054153442" lon="29.9935555458"><time>2026-04-22T12:40:20Z</time></trkpt><trkpt lat="59.1054153442" lon="29.9934911728"><time>2026-04-22T12:40:23Z</time></trkpt><trkpt lat="59.1054153442" lon="29.9934911728"><time>2026-04-22T12:40:25Z</time></trkpt><trkpt lat="59.1054153442" lon="29.9934911728"><time>2026-04-22T12:40:28Z</time></trkpt><trkpt lat="59.1053724289" lon="29.9934482574"><time>2026-04-22T12:40:30Z</time></trkpt><trkpt lat="59.1053938866" lon="29.9933838844"><time>2026-04-22T12:40:33Z</time></trkpt><trkpt lat="59.1053938866" lon="29.9932980537"><time>2026-04-22T12:40:35Z</time></trkpt><trkpt lat="59.1053938866" lon="29.9932551384"><time>2026-04-22T12:40:38Z</time></trkpt><trkpt lat="59.1053724289" lon="29.9931907654"><time>2026-04-22T12:40:40Z</time></trkpt><trkpt lat="59.1053938866" lon="29.9931478500"><time>2026-04-22T12:40:43Z</time></trkpt><trkpt lat="59.1054153442" lon="29.9930834770"><time>2026-04-22T12:40:45Z</time></trkpt><trkpt lat="59.1054153442" lon="29.9930620193"><time>2026-04-22T12:40:48Z</time></trkpt><trkpt lat="59.1053938866" lon="29.9930834770"><time>2026-04-22T12:40:50Z</time></trkpt><trkpt lat="59.1053938866" lon="29.9931263924"><time>2026-04-22T12:40:53Z</time></trkpt><trkpt lat="59.1054153442" lon="29.9932336807"><time>2026-04-22T12:40:55Z</time></trkpt><trkpt lat="59.1054153442" lon="29.9932551384"><time>2026-04-22T12:40:58Z</time></trkpt><trkpt lat="59.1054153442" lon="29.9932551384"><time>2026-04-22T12:41:00Z</time></trkpt><trkpt lat="59.1054153442" lon="29.9932551384"><time>2026-04-22T12:41:03Z</time></trkpt><trkpt lat="59.1054153442" lon="29.9932551384"><time>2026-04-22T12:41:05Z</time></trkpt><trkpt lat="59.1054153442" lon="29.9932551384"><time>2026-04-22T12:41:08Z</time></trkpt><trkpt lat="59.1053938866" lon="29.9932765961"><time>2026-04-22T12:41:10Z</time></trkpt><trkpt lat="59.1053724289" lon="29.9932765961"><time>2026-04-22T12:41:13Z</time></trkpt><trkpt lat="59.1053295135" lon="29.9932765961"><time>2026-04-22T12:41:15Z</time></trkpt><trkpt lat="59.1053080559" lon="29.9932765961"><time>2026-04-22T12:41:18Z</time></trkpt><trkpt lat="59.1052651405" lon="29.9932980537"><time>2026-04-22T12:41:20Z</time></trkpt><trkpt lat="59.1052651405" lon="29.9932980537"><time>2026-04-22T12:41:23Z</time></trkpt><trkpt lat="59.1052651405" lon="29.9932980537"><time>2026-04-22T12:41:25Z</time></trkpt><trkpt lat="59.1052651405" lon="29.9932765961"><time>2026-04-22T12:41:28Z</time></trkpt><trkpt lat="59.1052436829" lon="29.9932551384"><time>2026-04-22T12:41:30Z</time></trkpt><trkpt lat="59.1052222252" lon="29.9932551384"><time>2026-04-22T12:41:33Z</time></trkpt><trkpt lat="59.1051793098" lon="29.9932765961"><time>2026-04-22T12:41:35Z</time></trkpt><trkpt lat="59.1051578522" lon="29.9932980537"><time>2026-04-22T12:41:38Z</time></trkpt><trkpt lat="59.1051578522" lon="29.9932980537"><time>2026-04-22T12:41:40Z</time></trkpt><trkpt lat="59.1051578522" lon="29.9932980537"><time>2026-04-22T12:41:43Z</time></trkpt><trkpt lat="59.1051578522" lon="29.9932980537"><time>2026-04-22T12:41:45Z</time></trkpt><trkpt lat="59.1051363945" lon="29.9932765961"><time>2026-04-22T12:41:48Z</time></trkpt><trkpt lat="59.1050934792" lon="29.9932980537"><time>2026-04-22T12:41:50Z</time></trkpt><trkpt lat="59.1050720215" lon="29.9932980537"><time>2026-04-22T12:41:53Z</time></trkpt><trkpt lat="59.1050505638" lon="29.9933624268"><time>2026-04-22T12:41:55Z</time></trkpt><trkpt lat="59.1050505638" lon="29.9933624268"><time>2026-04-22T12:41:58Z</time></trkpt><trkpt lat="59.1050505638" lon="29.9933624268"><time>2026-04-22T12:42:00Z</time></trkpt><trkpt lat="59.1050291061" lon="29.9933624268"><time>2026-04-22T12:42:03Z</time></trkpt><trkpt lat="59.1049861908" lon="29.9933624268"><time>2026-04-22T12:42:05Z</time></trkpt><trkpt lat="59.1049432755" lon="29.9933624268"><time>2026-04-22T12:42:08Z</time></trkpt><trkpt lat="59.1049218178" lon="29.9933838844"><time>2026-04-22T12:42:10Z</time></trkpt><trkpt lat="59.1049218178" lon="29.9933838844"><time>2026-04-22T12:42:13Z</time></trkpt><trkpt lat="59.1049218178" lon="29.9934053421"><time>2026-04-22T12:42:15Z</time></trkpt><trkpt lat="59.1049218178" lon="29.9934053421"><time>2026-04-22T12:42:18Z</time></trkpt><trkpt lat="59.1049218178" lon="29.9934053421"><time>2026-04-22T12:42:20Z</time></trkpt><trkpt lat="59.1049218178" lon="29.9934053421"><time>2026-04-22T12:42:23Z</time></trkpt><trkpt lat="59.1049218178" lon="29.9934053421"><time>2026-04-22T12:42:25Z</time></trkpt><trkpt lat="59.1049218178" lon="29.9934267998"><time>2026-04-22T12:42:28Z</time></trkpt><trkpt lat="59.1049218178" lon="29.9934482574"><time>2026-04-22T12:42:30Z</time></trkpt><trkpt lat="59.1049218178" lon="29.9934697151"><time>2026-04-22T12:42:33Z</time></trkpt><trkpt lat="59.1049218178" lon="29.9934697151"><time>2026-04-22T12:42:35Z</time></trkpt><trkpt lat="59.1049218178" lon="29.9934911728"><time>2026-04-22T12:42:38Z</time></trkpt><trkpt lat="59.1049003601" lon="29.9934482574"><time>2026-04-22T12:42:40Z</time></trkpt><trkpt lat="59.1049003601" lon="29.9934482574"><time>2026-04-22T12:42:43Z</time></trkpt><trkpt lat="59.1048789024" lon="29.9934697151"><time>2026-04-22T12:42:45Z</time></trkpt><trkpt lat="59.1048574448" lon="29.9934911728"><time>2026-04-22T12:42:48Z</time></trkpt><trkpt lat="59.1048145294" lon="29.9934697151"><time>2026-04-22T12:42:50Z</time></trkpt><trkpt lat="59.1048145294" lon="29.9935126305"><time>2026-04-22T12:42:53Z</time></trkpt><trkpt lat="59.1047716141" lon="29.9935340881"><time>2026-04-22T12:42:55Z</time></trkpt><trkpt lat="59.1047501564" lon="29.9935126305"><time>2026-04-22T12:42:58Z</time></trkpt><trkpt lat="59.1047286987" lon="29.9934911728"><time>2026-04-22T12:43:00Z</time></trkpt><trkpt lat="59.1046857834" lon="29.9934697151"><time>2026-04-22T12:43:03Z</time></trkpt><trkpt lat="59.1046428680" lon="29.9934697151"><time>2026-04-22T12:43:05Z</time></trkpt><trkpt lat="59.1046428680" lon="29.9934697151"><time>2026-04-22T12:43:08Z</time></trkpt><trkpt lat="59.1046428680" lon="29.9934697151"><time>2026-04-22T12:43:10Z</time></trkpt><trkpt lat="59.1045999527" lon="29.9934482574"><time>2026-04-22T12:43:13Z</time></trkpt><trkpt lat="59.1045570374" lon="29.9934482574"><time>2026-04-22T12:43:15Z</time></trkpt><trkpt lat="59.1045355797" lon="29.9934482574"><time>2026-04-22T12:43:18Z</time></trkpt><trkpt lat="59.1045141220" lon="29.9934482574"><time>2026-04-22T12:43:20Z</time></trkpt><trkpt lat="59.1045355797" lon="29.9934267998"><time>2026-04-22T12:43:23Z</time></trkpt><trkpt lat="59.1045355797" lon="29.9934267998"><time>2026-04-22T12:43:25Z</time></trkpt><trkpt lat="59.1045141220" lon="29.9934482574"><time>2026-04-22T12:43:28Z</time></trkpt><trkpt lat="59.1044712067" lon="29.9934267998"><time>2026-04-22T12:43:30Z</time></trkpt><trkpt lat="59.1044712067" lon="29.9934267998"><time>2026-04-22T12:43:33Z</time></trkpt><trkpt lat="59.1044712067" lon="29.9934267998"><time>2026-04-22T12:43:35Z</time></trkpt><trkpt lat="59.1044712067" lon="29.9934267998"><time>2026-04-22T12:43:38Z</time></trkpt><trkpt lat="59.1044712067" lon="29.9934267998"><time>2026-04-22T12:43:40Z</time></trkpt><trkpt lat="59.1044926643" lon="29.9934267998"><time>2026-04-22T12:43:43Z</time></trkpt><trkpt lat="59.1045355797" lon="29.9934267998"><time>2026-04-22T12:43:45Z</time></trkpt><trkpt lat="59.1045355797" lon="29.9934053421"><time>2026-04-22T12:43:48Z</time></trkpt><trkpt lat="59.1045355797" lon="29.9934053421"><time>2026-04-22T12:43:50Z</time></trkpt><trkpt lat="59.1045355797" lon="29.9933624268"><time>2026-04-22T12:43:53Z</time></trkpt><trkpt lat="59.1045355797" lon="29.9933195114"><time>2026-04-22T12:43:55Z</time></trkpt><trkpt lat="59.1045355797" lon="29.9933195114"><time>2026-04-22T12:43:58Z</time></trkpt><trkpt lat="59.1045141220" lon="29.9932980537"><time>2026-04-22T12:44:00Z</time></trkpt><trkpt lat="59.1045141220" lon="29.9932980537"><time>2026-04-22T12:44:03Z</time></trkpt><trkpt lat="59.1045141220" lon="29.9932980537"><time>2026-04-22T12:44:05Z</time></trkpt><trkpt lat="59.1045141220" lon="29.9933195114"><time>2026-04-22T12:44:08Z</time></trkpt><trkpt lat="59.1044926643" lon="29.9932980537"><time>2026-04-22T12:44:10Z</time></trkpt><trkpt lat="59.1044712067" lon="29.9932551384"><time>2026-04-22T12:44:13Z</time></trkpt><trkpt lat="59.1044282913" lon="29.9931907654"><time>2026-04-22T12:44:15Z</time></trkpt><trkpt lat="59.1044282913" lon="29.9931263924"><time>2026-04-22T12:44:18Z</time></trkpt><trkpt lat="59.1043853760" lon="29.9931263924"><time>2026-04-22T12:44:20Z</time></trkpt><trkpt lat="59.1043639183" lon="29.9931263924"><time>2026-04-22T12:44:23Z</time></trkpt><trkpt lat="59.1043210030" lon="29.9930834770"><time>2026-04-22T12:44:25Z</time></trkpt><trkpt lat="59.1042995453" lon="29.9930405617"><time>2026-04-22T12:44:28Z</time></trkpt><trkpt lat="59.1042995453" lon="29.9930405617"><time>2026-04-22T12:44:30Z</time></trkpt><trkpt lat="59.1042995453" lon="29.9930405617"><time>2026-04-22T12:44:33Z</time></trkpt><trkpt lat="59.1042780876" lon="29.9929976463"><time>2026-04-22T12:44:35Z</time></trkpt><trkpt lat="59.1042566299" lon="29.9929118156"><time>2026-04-22T12:44:38Z</time></trkpt><trkpt lat="59.1042566299" lon="29.9928045273"><time>2026-04-22T12:44:40Z</time></trkpt><trkpt lat="59.1042780876" lon="29.9928045273"><time>2026-04-22T12:44:43Z</time></trkpt><trkpt lat="59.1042780876" lon="29.9928045273"><time>2026-04-22T12:44:45Z</time></trkpt><trkpt lat="59.1042780876" lon="29.9928045273"><time>2026-04-22T12:44:48Z</time></trkpt><trkpt lat="59.1042780876" lon="29.9929332733"><time>2026-04-22T12:44:50Z</time></trkpt><trkpt lat="59.1042995453" lon="29.9929976463"><time>2026-04-22T12:44:53Z</time></trkpt><trkpt lat="59.1042995453" lon="29.9930834770"><time>2026-04-22T12:44:55Z</time></trkpt><trkpt lat="59.1042995453" lon="29.9930834770"><time>2026-04-22T12:44:58Z</time></trkpt><trkpt lat="59.1042780876" lon="29.9931263924"><time>2026-04-22T12:45:00Z</time></trkpt><trkpt lat="59.1042780876" lon="29.9931907654"><time>2026-04-22T12:45:03Z</time></trkpt><trkpt lat="59.1042566299" lon="29.9932122231"><time>2026-04-22T12:45:05Z</time></trkpt><trkpt lat="59.1042566299" lon="29.9932122231"><time>2026-04-22T12:45:08Z</time></trkpt><trkpt lat="59.1042566299" lon="29.9932122231"><time>2026-04-22T12:45:10Z</time></trkpt><trkpt lat="59.1042566299" lon="29.9932122231"><time>2026-04-22T12:45:13Z</time></trkpt><trkpt lat="59.1042566299" lon="29.9932122231"><time>2026-04-22T12:45:15Z</time></trkpt><trkpt lat="59.1042780876" lon="29.9931693077"><time>2026-04-22T12:45:18Z</time></trkpt><trkpt lat="59.1042780876" lon="29.9931478500"><time>2026-04-22T12:45:20Z</time></trkpt><trkpt lat="59.1042780876" lon="29.9931478500"><time>2026-04-22T12:45:23Z</time></trkpt><trkpt lat="59.1042780876" lon="29.9931478500"><time>2026-04-22T12:45:25Z</time></trkpt><trkpt lat="59.1042780876" lon="29.9931693077"><time>2026-04-22T12:45:28Z</time></trkpt><trkpt lat="59.1042780876" lon="29.9931693077"><time>2026-04-22T12:45:30Z</time></trkpt><trkpt lat="59.1042780876" lon="29.9931693077"><time>2026-04-22T12:45:33Z</time></trkpt><trkpt lat="59.1042351723" lon="29.9931907654"><time>2026-04-22T12:45:38Z</time></trkpt><trkpt lat="59.1042137146" lon="29.9932336807"><time>2026-04-22T12:45:40Z</time></trkpt><trkpt lat="59.1042137146" lon="29.9932765961"><time>2026-04-22T12:45:43Z</time></trkpt><trkpt lat="59.1041493416" lon="29.9933195114"><time>2026-04-22T12:45:45Z</time></trkpt><trkpt lat="59.1041278839" lon="29.9933195114"><time>2026-04-22T12:45:48Z</time></trkpt><trkpt lat="59.1041064262" lon="29.9933195114"><time>2026-04-22T12:45:50Z</time></trkpt><trkpt lat="59.1041064262" lon="29.9933409691"><time>2026-04-22T12:45:53Z</time></trkpt><trkpt lat="59.1041064262" lon="29.9933624268"><time>2026-04-22T12:45:55Z</time></trkpt><trkpt lat="59.1041064262" lon="29.9933195114"><time>2026-04-22T12:45:58Z</time></trkpt><trkpt lat="59.1040849686" lon="29.9932551384"><time>2026-04-22T12:46:00Z</time></trkpt><trkpt lat="59.1040849686" lon="29.9932551384"><time>2026-04-22T12:46:03Z</time></trkpt><trkpt lat="59.1040635109" lon="29.9932551384"><time>2026-04-22T12:46:05Z</time></trkpt><trkpt lat="59.1040420532" lon="29.9932336807"><time>2026-04-22T12:46:08Z</time></trkpt><trkpt lat="59.1039991379" lon="29.9932122231"><time>2026-04-22T12:46:10Z</time></trkpt><trkpt lat="59.1039991379" lon="29.9931478500"><time>2026-04-22T12:46:13Z</time></trkpt><trkpt lat="59.1039562225" lon="29.9930620193"><time>2026-04-22T12:46:15Z</time></trkpt><trkpt lat="59.1039133072" lon="29.9930620193"><time>2026-04-22T12:46:18Z</time></trkpt><trkpt lat="59.1038489342" lon="29.9929976463"><time>2026-04-22T12:46:20Z</time></trkpt><trkpt lat="59.1038489342" lon="29.9929118156"><time>2026-04-22T12:46:23Z</time></trkpt><trkpt lat="59.1038060188" lon="29.9928689003"><time>2026-04-22T12:46:25Z</time></trkpt><trkpt lat="59.1038060188" lon="29.9929118156"><time>2026-04-22T12:46:28Z</time></trkpt><trkpt lat="59.1037845612" lon="29.9929547310"><time>2026-04-22T12:46:30Z</time></trkpt><trkpt lat="59.1037631035" lon="29.9929976463"><time>2026-04-22T12:46:33Z</time></trkpt><trkpt lat="59.1037845612" lon="29.9930620193"><time>2026-04-22T12:46:35Z</time></trkpt><trkpt lat="59.1038060188" lon="29.9931263924"><time>2026-04-22T12:46:38Z</time></trkpt><trkpt lat="59.1038489342" lon="29.9931263924"><time>2026-04-22T12:46:40Z</time></trkpt><trkpt lat="59.1038703918" lon="29.9931478500"><time>2026-04-22T12:46:43Z</time></trkpt><trkpt lat="59.1039133072" lon="29.9931478500"><time>2026-04-22T12:46:45Z</time></trkpt><trkpt lat="59.1039347649" lon="29.9931478500"><time>2026-04-22T12:46:48Z</time></trkpt><trkpt lat="59.1039347649" lon="29.9931478500"><time>2026-04-22T12:46:50Z</time></trkpt><trkpt lat="59.1039347649" lon="29.9931478500"><time>2026-04-22T12:46:53Z</time></trkpt><trkpt lat="59.1039776802" lon="29.9930405617"><time>2026-04-22T12:46:55Z</time></trkpt><trkpt lat="59.1039991379" lon="29.9929976463"><time>2026-04-22T12:46:58Z</time></trkpt><trkpt lat="59.1040420532" lon="29.9929332733"><time>2026-04-22T12:47:00Z</time></trkpt><trkpt lat="59.1039991379" lon="29.9928045273"><time>2026-04-22T12:47:05Z</time></trkpt><trkpt lat="59.1039776802" lon="29.9927401543"><time>2026-04-22T12:47:08Z</time></trkpt><trkpt lat="59.1039562225" lon="29.9926972389"><time>2026-04-22T12:47:10Z</time></trkpt><trkpt lat="59.1039562225" lon="29.9926972389"><time>2026-04-22T12:47:13Z</time></trkpt><trkpt lat="59.1039562225" lon="29.9926757813"><time>2026-04-22T12:47:15Z</time></trkpt><trkpt lat="59.1039133072" lon="29.9926328659"><time>2026-04-22T12:47:18Z</time></trkpt><trkpt lat="59.1038703918" lon="29.9926114082"><time>2026-04-22T12:47:20Z</time></trkpt><trkpt lat="59.1038274765" lon="29.9926328659"><time>2026-04-22T12:47:23Z</time></trkpt><trkpt lat="59.1038489342" lon="29.9926328659"><time>2026-04-22T12:47:25Z</time></trkpt><trkpt lat="59.1038489342" lon="29.9926328659"><time>2026-04-22T12:47:28Z</time></trkpt><trkpt lat="59.1037845612" lon="29.9926972389"><time>2026-04-22T12:47:30Z</time></trkpt><trkpt lat="59.1037631035" lon="29.9927401543"><time>2026-04-22T12:47:33Z</time></trkpt><trkpt lat="59.1037631035" lon="29.9927616119"><time>2026-04-22T12:47:35Z</time></trkpt><trkpt lat="59.1037416458" lon="29.9927616119"><time>2026-04-22T12:47:38Z</time></trkpt><trkpt lat="59.1037416458" lon="29.9927616119"><time>2026-04-22T12:47:43Z</time></trkpt><trkpt lat="59.1037201881" lon="29.9928474426"><time>2026-04-22T12:47:45Z</time></trkpt><trkpt lat="59.1037201881" lon="29.9929118156"><time>2026-04-22T12:47:48Z</time></trkpt><trkpt lat="59.1037201881" lon="29.9930191040"><time>2026-04-22T12:47:50Z</time></trkpt><trkpt lat="59.1037201881" lon="29.9930405617"><time>2026-04-22T12:47:53Z</time></trkpt><trkpt lat="59.1037416458" lon="29.9929761887"><time>2026-04-22T12:47:55Z</time></trkpt><trkpt lat="59.1037201881" lon="29.9929332733"><time>2026-04-22T12:47:58Z</time></trkpt><trkpt lat="59.1036987305" lon="29.9928474426"><time>2026-04-22T12:48:00Z</time></trkpt><trkpt lat="59.1036987305" lon="29.9928045273"><time>2026-04-22T12:48:03Z</time></trkpt><trkpt lat="59.1036987305" lon="29.9928045273"><time>2026-04-22T12:48:05Z</time></trkpt><trkpt lat="59.1037201881" lon="29.9926972389"><time>2026-04-22T12:48:08Z</time></trkpt><trkpt lat="59.1037201881" lon="29.9926114082"><time>2026-04-22T12:48:10Z</time></trkpt><trkpt lat="59.1037201881" lon="29.9925684929"><time>2026-04-22T12:48:13Z</time></trkpt><trkpt lat="59.1037416458" lon="29.9925255775"><time>2026-04-22T12:48:15Z</time></trkpt><trkpt lat="59.1037845612" lon="29.9924397469"><time>2026-04-22T12:48:18Z</time></trkpt><trkpt lat="59.1038489342" lon="29.9923324585"><time>2026-04-22T12:48:20Z</time></trkpt><trkpt lat="59.1038274765" lon="29.9923539162"><time>2026-04-22T12:48:23Z</time></trkpt><trkpt lat="59.1038060188" lon="29.9922466278"><time>2026-04-22T12:48:25Z</time></trkpt><trkpt lat="59.1037631035" lon="29.9922251701"><time>2026-04-22T12:48:28Z</time></trkpt><trkpt lat="59.1037201881" lon="29.9922037125"><time>2026-04-22T12:48:30Z</time></trkpt><trkpt lat="59.1036987305" lon="29.9921607971"><time>2026-04-22T12:48:33Z</time></trkpt><trkpt lat="59.1036558151" lon="29.9922037125"><time>2026-04-22T12:48:35Z</time></trkpt><trkpt lat="59.1036558151" lon="29.9922466278"><time>2026-04-22T12:48:38Z</time></trkpt><trkpt lat="59.1036987305" lon="29.9922895432"><time>2026-04-22T12:48:40Z</time></trkpt><trkpt lat="59.1036772728" lon="29.9923539162"><time>2026-04-22T12:48:43Z</time></trkpt><trkpt lat="59.1036987305" lon="29.9924397469"><time>2026-04-22T12:48:45Z</time></trkpt><trkpt lat="59.1037201881" lon="29.9925255775"><time>2026-04-22T12:48:48Z</time></trkpt><trkpt lat="59.1037416458" lon="29.9926543236"><time>2026-04-22T12:48:50Z</time></trkpt><trkpt lat="59.1036987305" lon="29.9928045273"><time>2026-04-22T12:48:53Z</time></trkpt><trkpt lat="59.1036772728" lon="29.9928689003"><time>2026-04-22T12:48:55Z</time></trkpt><trkpt lat="59.1036772728" lon="29.9928689003"><time>2026-04-22T12:48:58Z</time></trkpt><trkpt lat="59.1036772728" lon="29.9928689003"><time>2026-04-22T12:49:00Z</time></trkpt><trkpt lat="59.1036772728" lon="29.9928474426"><time>2026-04-22T12:49:03Z</time></trkpt><trkpt lat="59.1036772728" lon="29.9927401543"><time>2026-04-22T12:49:08Z</time></trkpt><trkpt lat="59.1037201881" lon="29.9927401543"><time>2026-04-22T12:49:10Z</time></trkpt><trkpt lat="59.1037201881" lon="29.9926972389"><time>2026-04-22T12:49:13Z</time></trkpt><trkpt lat="59.1037416458" lon="29.9926328659"><time>2026-04-22T12:49:15Z</time></trkpt><trkpt lat="59.1037416458" lon="29.9926328659"><time>2026-04-22T12:49:18Z</time></trkpt><trkpt lat="59.1037416458" lon="29.9926328659"><time>2026-04-22T12:49:20Z</time></trkpt><trkpt lat="59.1037416458" lon="29.9926328659"><time>2026-04-22T12:49:23Z</time></trkpt><trkpt lat="59.1037631035" lon="29.9926328659"><time>2026-04-22T12:49:25Z</time></trkpt><trkpt lat="59.1037631035" lon="29.9926114082"><time>2026-04-22T12:49:28Z</time></trkpt><trkpt lat="59.1037416458" lon="29.9926114082"><time>2026-04-22T12:49:30Z</time></trkpt><trkpt lat="59.1037416458" lon="29.9925899506"><time>2026-04-22T12:49:33Z</time></trkpt><trkpt lat="59.1037416458" lon="29.9925899506"><time>2026-04-22T12:49:35Z</time></trkpt><trkpt lat="59.1037416458" lon="29.9926114082"><time>2026-04-22T12:49:38Z</time></trkpt><trkpt lat="59.1037201881" lon="29.9926114082"><time>2026-04-22T12:49:40Z</time></trkpt><trkpt lat="59.1037201881" lon="29.9926114082"><time>2026-04-22T12:49:43Z</time></trkpt><trkpt lat="59.1037416458" lon="29.9925684929"><time>2026-04-22T12:49:45Z</time></trkpt><trkpt lat="59.1037631035" lon="29.9925470352"><time>2026-04-22T12:49:48Z</time></trkpt><trkpt lat="59.1037631035" lon="29.9924612045"><time>2026-04-22T12:49:50Z</time></trkpt><trkpt lat="59.1037845612" lon="29.9924182892"><time>2026-04-22T12:49:53Z</time></trkpt><trkpt lat="59.1038060188" lon="29.9923753738"><time>2026-04-22T12:49:55Z</time></trkpt><trkpt lat="59.1038274765" lon="29.9923324585"><time>2026-04-22T12:49:58Z</time></trkpt><trkpt lat="59.1038489342" lon="29.9922680855"><time>2026-04-22T12:50:00Z</time></trkpt><trkpt lat="59.1038703918" lon="29.9922037125"><time>2026-04-22T12:50:03Z</time></trkpt><trkpt lat="59.1038918495" lon="29.9921393394"><time>2026-04-22T12:50:05Z</time></trkpt><trkpt lat="59.1039133072" lon="29.9921393394"><time>2026-04-22T12:50:08Z</time></trkpt><trkpt lat="59.1039133072" lon="29.9921393394"><time>2026-04-22T12:50:10Z</time></trkpt><trkpt lat="59.1039133072" lon="29.9921393394"><time>2026-04-22T12:50:13Z</time></trkpt><trkpt lat="59.1039133072" lon="29.9921607971"><time>2026-04-22T12:50:15Z</time></trkpt><trkpt lat="59.1038918495" lon="29.9921607971"><time>2026-04-22T12:50:18Z</time></trkpt><trkpt lat="59.1038918495" lon="29.9921607971"><time>2026-04-22T12:50:20Z</time></trkpt><trkpt lat="59.1039133072" lon="29.9921178818"><time>2026-04-22T12:50:23Z</time></trkpt><trkpt lat="59.1039562225" lon="29.9920964241"><time>2026-04-22T12:50:25Z</time></trkpt><trkpt lat="59.1039776802" lon="29.9920964241"><time>2026-04-22T12:50:28Z</time></trkpt><trkpt lat="59.1039562225" lon="29.9920320511"><time>2026-04-22T12:50:30Z</time></trkpt><trkpt lat="59.1039347649" lon="29.9919676781"><time>2026-04-22T12:50:33Z</time></trkpt><trkpt lat="59.1039347649" lon="29.9919033051"><time>2026-04-22T12:50:35Z</time></trkpt><trkpt lat="59.1039347649" lon="29.9919033051"><time>2026-04-22T12:50:38Z</time></trkpt><trkpt lat="59.1039562225" lon="29.9920320511"><time>2026-04-22T12:50:40Z</time></trkpt><trkpt lat="59.1039347649" lon="29.9921178818"><time>2026-04-22T12:50:43Z</time></trkpt><trkpt lat="59.1038918495" lon="29.9922251701"><time>2026-04-22T12:50:45Z</time></trkpt><trkpt lat="59.1038918495" lon="29.9922466278"><time>2026-04-22T12:50:48Z</time></trkpt><trkpt lat="59.1038703918" lon="29.9922466278"><time>2026-04-22T12:50:50Z</time></trkpt><trkpt lat="59.1038489342" lon="29.9922251701"><time>2026-04-22T12:50:53Z</time></trkpt><trkpt lat="59.1038489342" lon="29.9922680855"><time>2026-04-22T12:50:55Z</time></trkpt><trkpt lat="59.1038489342" lon="29.9923324585"><time>2026-04-22T12:50:58Z</time></trkpt><trkpt lat="59.1038274765" lon="29.9924182892"><time>2026-04-22T12:51:00Z</time></trkpt><trkpt lat="59.1038274765" lon="29.9924397469"><time>2026-04-22T12:51:03Z</time></trkpt><trkpt lat="59.1038060188" lon="29.9924826622"><time>2026-04-22T12:51:05Z</time></trkpt><trkpt lat="59.1038060188" lon="29.9925470352"><time>2026-04-22T12:51:08Z</time></trkpt><trkpt lat="59.1037845612" lon="29.9925470352"><time>2026-04-22T12:51:10Z</time></trkpt><trkpt lat="59.1037631035" lon="29.9926114082"><time>2026-04-22T12:51:13Z</time></trkpt><trkpt lat="59.1037631035" lon="29.9926543236"><time>2026-04-22T12:51:15Z</time></trkpt><trkpt lat="59.1037631035" lon="29.9926543236"><time>2026-04-22T12:51:18Z</time></trkpt><trkpt lat="59.1037416458" lon="29.9926972389"><time>2026-04-22T12:51:20Z</time></trkpt><trkpt lat="59.1037201881" lon="29.9927616119"><time>2026-04-22T12:51:23Z</time></trkpt><trkpt lat="59.1037416458" lon="29.9927830696"><time>2026-04-22T12:51:25Z</time></trkpt><trkpt lat="59.1037416458" lon="29.9927830696"><time>2026-04-22T12:51:28Z</time></trkpt><trkpt lat="59.1037201881" lon="29.9928474426"><time>2026-04-22T12:51:30Z</time></trkpt><trkpt lat="59.1037201881" lon="29.9928689003"><time>2026-04-22T12:51:33Z</time></trkpt><trkpt lat="59.1036772728" lon="29.9929118156"><time>2026-04-22T12:51:35Z</time></trkpt><trkpt lat="59.1036772728" lon="29.9929761887"><time>2026-04-22T12:51:38Z</time></trkpt><trkpt lat="59.1036772728" lon="29.9930620193"><time>2026-04-22T12:51:40Z</time></trkpt><trkpt lat="59.1036772728" lon="29.9930834770"><time>2026-04-22T12:51:43Z</time></trkpt><trkpt lat="59.1036772728" lon="29.9930834770"><time>2026-04-22T12:51:45Z</time></trkpt><trkpt lat="59.1036558151" lon="29.9931049347"><time>2026-04-22T12:51:48Z</time></trkpt><trkpt lat="59.1036128998" lon="29.9931693077"><time>2026-04-22T12:51:50Z</time></trkpt><trkpt lat="59.1036128998" lon="29.9931907654"><time>2026-04-22T12:51:53Z</time></trkpt><trkpt lat="59.1036128998" lon="29.9932122231"><time>2026-04-22T12:51:55Z</time></trkpt><trkpt lat="59.1036128998" lon="29.9932336807"><time>2026-04-22T12:51:58Z</time></trkpt><trkpt lat="59.1036128998" lon="29.9932336807"><time>2026-04-22T12:52:00Z</time></trkpt><trkpt lat="59.1036128998" lon="29.9932336807"><time>2026-04-22T12:52:03Z</time></trkpt><trkpt lat="59.1036128998" lon="29.9932336807"><time>2026-04-22T12:52:05Z</time></trkpt><trkpt lat="59.1036128998" lon="29.9931693077"><time>2026-04-22T12:52:08Z</time></trkpt><trkpt lat="59.1036128998" lon="29.9931693077"><time>2026-04-22T12:52:10Z</time></trkpt><trkpt lat="59.1036343575" lon="29.9931049347"><time>2026-04-22T12:52:13Z</time></trkpt><trkpt lat="59.1036343575" lon="29.9930834770"><time>2026-04-22T12:52:15Z</time></trkpt><trkpt lat="59.1036343575" lon="29.9930405617"><time>2026-04-22T12:52:18Z</time></trkpt><trkpt lat="59.1036558151" lon="29.9929976463"><time>2026-04-22T12:52:20Z</time></trkpt><trkpt lat="59.1036558151" lon="29.9929332733"><time>2026-04-22T12:52:23Z</time></trkpt><trkpt lat="59.1036558151" lon="29.9929118156"><time>2026-04-22T12:52:25Z</time></trkpt><trkpt lat="59.1036987305" lon="29.9928259850"><time>2026-04-22T12:52:28Z</time></trkpt><trkpt lat="59.1036987305" lon="29.9928045273"><time>2026-04-22T12:52:30Z</time></trkpt><trkpt lat="59.1037201881" lon="29.9927401543"><time>2026-04-22T12:52:33Z</time></trkpt><trkpt lat="59.1037201881" lon="29.9927186966"><time>2026-04-22T12:52:35Z</time></trkpt><trkpt lat="59.1037416458" lon="29.9926757813"><time>2026-04-22T12:52:38Z</time></trkpt><trkpt lat="59.1037631035" lon="29.9926328659"><time>2026-04-22T12:52:40Z</time></trkpt><trkpt lat="59.1037631035" lon="29.9926328659"><time>2026-04-22T12:52:43Z</time></trkpt><trkpt lat="59.1037416458" lon="29.9926328659"><time>2026-04-22T12:52:45Z</time></trkpt><trkpt lat="59.1037416458" lon="29.9926328659"><time>2026-04-22T12:52:48Z</time></trkpt><trkpt lat="59.1037631035" lon="29.9926328659"><time>2026-04-22T12:52:50Z</time></trkpt><trkpt lat="59.1038060188" lon="29.9926543236"><time>2026-04-22T12:52:53Z</time></trkpt><trkpt lat="59.1038274765" lon="29.9926328659"><time>2026-04-22T12:52:55Z</time></trkpt><trkpt lat="59.1038703918" lon="29.9926328659"><time>2026-04-22T12:52:58Z</time></trkpt><trkpt lat="59.1038918495" lon="29.9926543236"><time>2026-04-22T12:53:00Z</time></trkpt><trkpt lat="59.1038918495" lon="29.9926543236"><time>2026-04-22T12:53:03Z</time></trkpt><trkpt lat="59.1039133072" lon="29.9926757813"><time>2026-04-22T12:53:05Z</time></trkpt><trkpt lat="59.1039347649" lon="29.9927830696"><time>2026-04-22T12:53:08Z</time></trkpt><trkpt lat="59.1039562225" lon="29.9928259850"><time>2026-04-22T12:53:10Z</time></trkpt><trkpt lat="59.1039133072" lon="29.9928259850"><time>2026-04-22T12:53:13Z</time></trkpt><trkpt lat="59.1038918495" lon="29.9928689003"><time>2026-04-22T12:53:15Z</time></trkpt><trkpt lat="59.1039133072" lon="29.9928474426"><time>2026-04-22T12:53:18Z</time></trkpt><trkpt lat="59.1039347649" lon="29.9928903580"><time>2026-04-22T12:53:20Z</time></trkpt><trkpt lat="59.1039562225" lon="29.9929118156"><time>2026-04-22T12:53:23Z</time></trkpt><trkpt lat="59.1039347649" lon="29.9929332733"><time>2026-04-22T12:53:25Z</time></trkpt><trkpt lat="59.1039347649" lon="29.9929761887"><time>2026-04-22T12:53:28Z</time></trkpt><trkpt lat="59.1039562225" lon="29.9929547310"><time>2026-04-22T12:53:30Z</time></trkpt><trkpt lat="59.1039562225" lon="29.9929118156"><time>2026-04-22T12:53:33Z</time></trkpt><trkpt lat="59.1039562225" lon="29.9929118156"><time>2026-04-22T12:53:35Z</time></trkpt><trkpt lat="59.1039562225" lon="29.9929332733"><time>2026-04-22T12:53:38Z</time></trkpt><trkpt lat="59.1039347649" lon="29.9929547310"><time>2026-04-22T12:53:40Z</time></trkpt><trkpt lat="59.1039347649" lon="29.9929547310"><time>2026-04-22T12:53:43Z</time></trkpt><trkpt lat="59.1039133072" lon="29.9929118156"><time>2026-04-22T12:53:45Z</time></trkpt><trkpt lat="59.1038918495" lon="29.9928903580"><time>2026-04-22T12:53:48Z</time></trkpt><trkpt lat="59.1038489342" lon="29.9928689003"><time>2026-04-22T12:53:50Z</time></trkpt><trkpt lat="59.1038489342" lon="29.9928474426"><time>2026-04-22T12:53:53Z</time></trkpt><trkpt lat="59.1038274765" lon="29.9928474426"><time>2026-04-22T12:53:55Z</time></trkpt><trkpt lat="59.1038274765" lon="29.9928045273"><time>2026-04-22T12:53:58Z</time></trkpt><trkpt lat="59.1038060188" lon="29.9927616119"><time>2026-04-22T12:54:00Z</time></trkpt><trkpt lat="59.1038060188" lon="29.9927616119"><time>2026-04-22T12:54:03Z</time></trkpt><trkpt lat="59.1038060188" lon="29.9927616119"><time>2026-04-22T12:54:05Z</time></trkpt><trkpt lat="59.1038060188" lon="29.9927616119"><time>2026-04-22T12:54:08Z</time></trkpt><trkpt lat="59.1038060188" lon="29.9927616119"><time>2026-04-22T12:54:10Z</time></trkpt><trkpt lat="59.1038060188" lon="29.9927830696"><time>2026-04-22T12:54:13Z</time></trkpt><trkpt lat="59.1037845612" lon="29.9928259850"><time>2026-04-22T12:54:15Z</time></trkpt><trkpt lat="59.1037631035" lon="29.9928474426"><time>2026-04-22T12:54:18Z</time></trkpt><trkpt lat="59.1037631035" lon="29.9928474426"><time>2026-04-22T12:54:20Z</time></trkpt><trkpt lat="59.1037416458" lon="29.9928474426"><time>2026-04-22T12:54:23Z</time></trkpt><trkpt lat="59.1037201881" lon="29.9928903580"><time>2026-04-22T12:54:25Z</time></trkpt><trkpt lat="59.1036987305" lon="29.9929332733"><time>2026-04-22T12:54:28Z</time></trkpt><trkpt lat="59.1036987305" lon="29.9929332733"><time>2026-04-22T12:54:30Z</time></trkpt><trkpt lat="59.1036987305" lon="29.9929332733"><time>2026-04-22T12:54:33Z</time></trkpt><trkpt lat="59.1036987305" lon="29.9929332733"><time>2026-04-22T12:54:35Z</time></trkpt><trkpt lat="59.1036772728" lon="29.9929976463"><time>2026-04-22T12:54:38Z</time></trkpt><trkpt lat="59.1036772728" lon="29.9930405617"><time>2026-04-22T12:54:40Z</time></trkpt><trkpt lat="59.1036772728" lon="29.9930405617"><time>2026-04-22T12:54:43Z</time></trkpt><trkpt lat="59.1036558151" lon="29.9931049347"><time>2026-04-22T12:54:45Z</time></trkpt><trkpt lat="59.1036343575" lon="29.9931693077"><time>2026-04-22T12:54:48Z</time></trkpt><trkpt lat="59.1036128998" lon="29.9931907654"><time>2026-04-22T12:54:50Z</time></trkpt><trkpt lat="59.1035914421" lon="29.9931693077"><time>2026-04-22T12:54:53Z</time></trkpt><trkpt lat="59.1035914421" lon="29.9931478500"><time>2026-04-22T12:54:55Z</time></trkpt><trkpt lat="59.1035914421" lon="29.9931478500"><time>2026-04-22T12:54:58Z</time></trkpt><trkpt lat="59.1035914421" lon="29.9931478500"><time>2026-04-22T12:55:00Z</time></trkpt><trkpt lat="59.1036128998" lon="29.9931478500"><time>2026-04-22T12:55:03Z</time></trkpt><trkpt lat="59.1036128998" lon="29.9931478500"><time>2026-04-22T12:55:05Z</time></trkpt><trkpt lat="59.1036128998" lon="29.9931478500"><time>2026-04-22T12:55:08Z</time></trkpt><trkpt lat="59.1036128998" lon="29.9931478500"><time>2026-04-22T12:55:10Z</time></trkpt><trkpt lat="59.1036128998" lon="29.9931478500"><time>2026-04-22T12:55:13Z</time></trkpt><trkpt lat="59.1036128998" lon="29.9931478500"><time>2026-04-22T12:55:15Z</time></trkpt><trkpt lat="59.1035914421" lon="29.9931478500"><time>2026-04-22T12:55:18Z</time></trkpt><trkpt lat="59.1035914421" lon="29.9931478500"><time>2026-04-22T12:55:20Z</time></trkpt><trkpt lat="59.1035914421" lon="29.9931478500"><time>2026-04-22T12:55:23Z</time></trkpt><trkpt lat="59.1035914421" lon="29.9931478500"><time>2026-04-22T12:55:25Z</time></trkpt><trkpt lat="59.1035914421" lon="29.9931478500"><time>2026-04-22T12:55:28Z</time></trkpt><trkpt lat="59.1035914421" lon="29.9931478500"><time>2026-04-22T12:55:30Z</time></trkpt><trkpt lat="59.1035914421" lon="29.9931478500"><time>2026-04-22T12:55:33Z</time></trkpt><trkpt lat="59.1035699844" lon="29.9930834770"><time>2026-04-22T12:55:35Z</time></trkpt><trkpt lat="59.1035699844" lon="29.9930405617"><time>2026-04-22T12:55:38Z</time></trkpt><trkpt lat="59.1035485268" lon="29.9929976463"><time>2026-04-22T12:55:40Z</time></trkpt><trkpt lat="59.1035270691" lon="29.9930191040"><time>2026-04-22T12:55:43Z</time></trkpt><trkpt lat="59.1035270691" lon="29.9929976463"><time>2026-04-22T12:55:45Z</time></trkpt><trkpt lat="59.1035270691" lon="29.9929761887"><time>2026-04-22T12:55:48Z</time></trkpt><trkpt lat="59.1035056114" lon="29.9929547310"><time>2026-04-22T12:55:50Z</time></trkpt><trkpt lat="59.1035056114" lon="29.9929547310"><time>2026-04-22T12:55:53Z</time></trkpt><trkpt lat="59.1035270691" lon="29.9929761887"><time>2026-04-22T12:55:55Z</time></trkpt><trkpt lat="59.1035270691" lon="29.9929761887"><time>2026-04-22T12:55:58Z</time></trkpt><trkpt lat="59.1035270691" lon="29.9929976463"><time>2026-04-22T12:56:00Z</time></trkpt><trkpt lat="59.1035056114" lon="29.9930620193"><time>2026-04-22T12:56:03Z</time></trkpt><trkpt lat="59.1034841537" lon="29.9931049347"><time>2026-04-22T12:56:05Z</time></trkpt><trkpt lat="59.1034626961" lon="29.9931478500"><time>2026-04-22T12:56:08Z</time></trkpt><trkpt lat="59.1034412384" lon="29.9931478500"><time>2026-04-22T12:56:10Z</time></trkpt><trkpt lat="59.1034412384" lon="29.9931478500"><time>2026-04-22T12:56:13Z</time></trkpt><trkpt lat="59.1034197807" lon="29.9931049347"><time>2026-04-22T12:56:15Z</time></trkpt><trkpt lat="59.1033983231" lon="29.9930834770"><time>2026-04-22T12:56:18Z</time></trkpt><trkpt lat="59.1033768654" lon="29.9930405617"><time>2026-04-22T12:56:20Z</time></trkpt><trkpt lat="59.1033768654" lon="29.9930405617"><time>2026-04-22T12:56:23Z</time></trkpt><trkpt lat="59.1033768654" lon="29.9930191040"><time>2026-04-22T12:56:28Z</time></trkpt><trkpt lat="59.1033768654" lon="29.9930191040"><time>2026-04-22T12:56:30Z</time></trkpt><trkpt lat="59.1033768654" lon="29.9930620193"><time>2026-04-22T12:56:33Z</time></trkpt><trkpt lat="59.1033554077" lon="29.9931049347"><time>2026-04-22T12:56:35Z</time></trkpt><trkpt lat="59.1033554077" lon="29.9931049347"><time>2026-04-22T12:56:38Z</time></trkpt><trkpt lat="59.1033339500" lon="29.9931049347"><time>2026-04-22T12:56:40Z</time></trkpt><trkpt lat="59.1033339500" lon="29.9931263924"><time>2026-04-22T12:56:43Z</time></trkpt><trkpt lat="59.1032910347" lon="29.9931478500"><time>2026-04-22T12:56:45Z</time></trkpt><trkpt lat="59.1032910347" lon="29.9931907654"><time>2026-04-22T12:56:48Z</time></trkpt><trkpt lat="59.1032910347" lon="29.9931907654"><time>2026-04-22T12:56:50Z</time></trkpt><trkpt lat="59.1032910347" lon="29.9931907654"><time>2026-04-22T12:56:53Z</time></trkpt><trkpt lat="59.1032910347" lon="29.9931907654"><time>2026-04-22T12:56:55Z</time></trkpt><trkpt lat="59.1032910347" lon="29.9931907654"><time>2026-04-22T12:56:58Z</time></trkpt><trkpt lat="59.1032910347" lon="29.9931907654"><time>2026-04-22T12:57:00Z</time></trkpt><trkpt lat="59.1032695770" lon="29.9932122231"><time>2026-04-22T12:57:03Z</time></trkpt><trkpt lat="59.1032481194" lon="29.9931907654"><time>2026-04-22T12:57:05Z</time></trkpt><trkpt lat="59.1032481194" lon="29.9931907654"><time>2026-04-22T12:57:08Z</time></trkpt><trkpt lat="59.1032481194" lon="29.9931907654"><time>2026-04-22T12:57:10Z</time></trkpt><trkpt lat="59.1032481194" lon="29.9931907654"><time>2026-04-22T12:57:13Z</time></trkpt><trkpt lat="59.1032481194" lon="29.9931907654"><time>2026-04-22T12:57:15Z</time></trkpt><trkpt lat="59.1032481194" lon="29.9931907654"><time>2026-04-22T12:57:18Z</time></trkpt><trkpt lat="59.1032052040" lon="29.9931478500"><time>2026-04-22T12:57:20Z</time></trkpt><trkpt lat="59.1031837463" lon="29.9931478500"><time>2026-04-22T12:57:23Z</time></trkpt><trkpt lat="59.1031622887" lon="29.9931907654"><time>2026-04-22T12:57:25Z</time></trkpt><trkpt lat="59.1031408310" lon="29.9931693077"><time>2026-04-22T12:57:28Z</time></trkpt><trkpt lat="59.1031193733" lon="29.9931478500"><time>2026-04-22T12:57:30Z</time></trkpt><trkpt lat="59.1031193733" lon="29.9931263924"><time>2026-04-22T12:57:33Z</time></trkpt><trkpt lat="59.1031193733" lon="29.9931263924"><time>2026-04-22T12:57:35Z</time></trkpt><trkpt lat="59.1031193733" lon="29.9931263924"><time>2026-04-22T12:57:38Z</time></trkpt><trkpt lat="59.1031193733" lon="29.9931263924"><time>2026-04-22T12:57:40Z</time></trkpt><trkpt lat="59.1031193733" lon="29.9931263924"><time>2026-04-22T12:57:43Z</time></trkpt><trkpt lat="59.1031193733" lon="29.9931263924"><time>2026-04-22T12:57:45Z</time></trkpt><trkpt lat="59.1031408310" lon="29.9931263924"><time>2026-04-22T12:57:48Z</time></trkpt><trkpt lat="59.1031408310" lon="29.9931263924"><time>2026-04-22T12:57:50Z</time></trkpt><trkpt lat="59.1031408310" lon="29.9931263924"><time>2026-04-22T12:57:53Z</time></trkpt><trkpt lat="59.1031408310" lon="29.9931263924"><time>2026-04-22T12:57:55Z</time></trkpt><trkpt lat="59.1031193733" lon="29.9931263924"><time>2026-04-22T12:57:58Z</time></trkpt><trkpt lat="59.1030979156" lon="29.9931049347"><time>2026-04-22T12:58:00Z</time></trkpt><trkpt lat="59.1030764580" lon="29.9931049347"><time>2026-04-22T12:58:03Z</time></trkpt><trkpt lat="59.1030550003" lon="29.9931049347"><time>2026-04-22T12:58:05Z</time></trkpt><trkpt lat="59.1030550003" lon="29.9931049347"><time>2026-04-22T12:58:08Z</time></trkpt><trkpt lat="59.1030335426" lon="29.9931049347"><time>2026-04-22T12:58:10Z</time></trkpt><trkpt lat="59.1030335426" lon="29.9930834770"><time>2026-04-22T12:58:13Z</time></trkpt><trkpt lat="59.1029691696" lon="29.9930620193"><time>2026-04-22T12:58:15Z</time></trkpt><trkpt lat="59.1029477119" lon="29.9930620193"><time>2026-04-22T12:58:18Z</time></trkpt><trkpt lat="59.1029262543" lon="29.9930620193"><time>2026-04-22T12:58:20Z</time></trkpt><trkpt lat="59.1029262543" lon="29.9930405617"><time>2026-04-22T12:58:23Z</time></trkpt><trkpt lat="59.1028833389" lon="29.9930191040"><time>2026-04-22T12:58:25Z</time></trkpt><trkpt lat="59.1028618813" lon="29.9929761887"><time>2026-04-22T12:58:28Z</time></trkpt><trkpt lat="59.1028404236" lon="29.9928689003"><time>2026-04-22T12:58:30Z</time></trkpt><trkpt lat="59.1027975082" lon="29.9928474426"><time>2026-04-22T12:58:33Z</time></trkpt><trkpt lat="59.1027975082" lon="29.9928903580"><time>2026-04-22T12:58:35Z</time></trkpt><trkpt lat="59.1027975082" lon="29.9928903580"><time>2026-04-22T12:58:38Z</time></trkpt><trkpt lat="59.1027975082" lon="29.9928903580"><time>2026-04-22T12:58:40Z</time></trkpt><trkpt lat="59.1027760506" lon="29.9929332733"><time>2026-04-22T12:58:43Z</time></trkpt><trkpt lat="59.1027975082" lon="29.9929761887"><time>2026-04-22T12:58:45Z</time></trkpt><trkpt lat="59.1027975082" lon="29.9929976463"><time>2026-04-22T12:58:48Z</time></trkpt><trkpt lat="59.1027975082" lon="29.9929976463"><time>2026-04-22T12:58:50Z</time></trkpt><trkpt lat="59.1027975082" lon="29.9929976463"><time>2026-04-22T12:58:53Z</time></trkpt><trkpt lat="59.1027975082" lon="29.9929976463"><time>2026-04-22T12:58:55Z</time></trkpt><trkpt lat="59.1027975082" lon="29.9929976463"><time>2026-04-22T12:58:58Z</time></trkpt><trkpt lat="59.1027975082" lon="29.9930405617"><time>2026-04-22T12:59:00Z</time></trkpt><trkpt lat="59.1028189659" lon="29.9930620193"><time>2026-04-22T12:59:03Z</time></trkpt><trkpt lat="59.1028189659" lon="29.9931478500"><time>2026-04-22T12:59:05Z</time></trkpt><trkpt lat="59.1028404236" lon="29.9931693077"><time>2026-04-22T12:59:08Z</time></trkpt><trkpt lat="59.1028618813" lon="29.9932122231"><time>2026-04-22T12:59:10Z</time></trkpt><trkpt lat="59.1028618813" lon="29.9932122231"><time>2026-04-22T12:59:13Z</time></trkpt><trkpt lat="59.1028618813" lon="29.9932122231"><time>2026-04-22T12:59:15Z</time></trkpt><trkpt lat="59.1028618813" lon="29.9932122231"><time>2026-04-22T12:59:18Z</time></trkpt><trkpt lat="59.1028618813" lon="29.9932122231"><time>2026-04-22T12:59:20Z</time></trkpt><trkpt lat="59.1028618813" lon="29.9932122231"><time>2026-04-22T12:59:23Z</time></trkpt><trkpt lat="59.1028618813" lon="29.9932122231"><time>2026-04-22T12:59:25Z</time></trkpt><trkpt lat="59.1028618813" lon="29.9931907654"><time>2026-04-22T12:59:28Z</time></trkpt><trkpt lat="59.1028618813" lon="29.9931693077"><time>2026-04-22T12:59:30Z</time></trkpt><trkpt lat="59.1028618813" lon="29.9931693077"><time>2026-04-22T12:59:33Z</time></trkpt><trkpt lat="59.1028618813" lon="29.9931693077"><time>2026-04-22T12:59:35Z</time></trkpt><trkpt lat="59.1028618813" lon="29.9931693077"><time>2026-04-22T12:59:38Z</time></trkpt><trkpt lat="59.1028618813" lon="29.9931693077"><time>2026-04-22T12:59:40Z</time></trkpt><trkpt lat="59.1028618813" lon="29.9931693077"><time>2026-04-22T12:59:43Z</time></trkpt><trkpt lat="59.1028404236" lon="29.9931693077"><time>2026-04-22T12:59:45Z</time></trkpt><trkpt lat="59.1027760506" lon="29.9931478500"><time>2026-04-22T12:59:48Z</time></trkpt><trkpt lat="59.1027545929" lon="29.9931907654"><time>2026-04-22T12:59:50Z</time></trkpt><trkpt lat="59.1027116776" lon="29.9932336807"><time>2026-04-22T12:59:53Z</time></trkpt><trkpt lat="59.1026902199" lon="29.9932980537"><time>2026-04-22T12:59:55Z</time></trkpt><trkpt lat="59.1026902199" lon="29.9932980537"><time>2026-04-22T12:59:58Z</time></trkpt><trkpt lat="59.1026902199" lon="29.9933195114"><time>2026-04-22T13:00:00Z</time></trkpt><trkpt lat="59.1026902199" lon="29.9933624268"><time>2026-04-22T13:00:03Z</time></trkpt><trkpt lat="59.1026687622" lon="29.9934053421"><time>2026-04-22T13:00:05Z</time></trkpt><trkpt lat="59.1026687622" lon="29.9934053421"><time>2026-04-22T13:00:08Z</time></trkpt><trkpt lat="59.1026687622" lon="29.9933195114"><time>2026-04-22T13:00:10Z</time></trkpt><trkpt lat="59.1026473045" lon="29.9933195114"><time>2026-04-22T13:00:13Z</time></trkpt><trkpt lat="59.1026258469" lon="29.9933195114"><time>2026-04-22T13:00:15Z</time></trkpt><trkpt lat="59.1026043892" lon="29.9933195114"><time>2026-04-22T13:00:18Z</time></trkpt><trkpt lat="59.1025614738" lon="29.9933409691"><time>2026-04-22T13:00:20Z</time></trkpt><trkpt lat="59.1025400162" lon="29.9933838844"><time>2026-04-22T13:00:23Z</time></trkpt><trkpt lat="59.1025185585" lon="29.9933838844"><time>2026-04-22T13:00:25Z</time></trkpt><trkpt lat="59.1025185585" lon="29.9933838844"><time>2026-04-22T13:00:28Z</time></trkpt><trkpt lat="59.1025185585" lon="29.9934267998"><time>2026-04-22T13:00:30Z</time></trkpt><trkpt lat="59.1025185585" lon="29.9934911728"><time>2026-04-22T13:00:33Z</time></trkpt><trkpt lat="59.1024971008" lon="29.9935555458"><time>2026-04-22T13:00:35Z</time></trkpt><trkpt lat="59.1024756432" lon="29.9935984612"><time>2026-04-22T13:00:38Z</time></trkpt><trkpt lat="59.1024541855" lon="29.9936413765"><time>2026-04-22T13:00:40Z</time></trkpt><trkpt lat="59.1024327278" lon="29.9936628342"><time>2026-04-22T13:00:43Z</time></trkpt><trkpt lat="59.1023898125" lon="29.9936842918"><time>2026-04-22T13:00:45Z</time></trkpt><trkpt lat="59.1023683548" lon="29.9936628342"><time>2026-04-22T13:00:48Z</time></trkpt><trkpt lat="59.1023468971" lon="29.9936413765"><time>2026-04-22T13:00:50Z</time></trkpt><trkpt lat="59.1023468971" lon="29.9936413765"><time>2026-04-22T13:00:53Z</time></trkpt><trkpt lat="59.1023468971" lon="29.9936628342"><time>2026-04-22T13:00:55Z</time></trkpt><trkpt lat="59.1024112701" lon="29.9936842918"><time>2026-04-22T13:00:58Z</time></trkpt><trkpt lat="59.1024327278" lon="29.9935555458"><time>2026-04-22T13:01:00Z</time></trkpt><trkpt lat="59.1024112701" lon="29.9935126305"><time>2026-04-22T13:01:03Z</time></trkpt><trkpt lat="59.1023898125" lon="29.9934482574"><time>2026-04-22T13:01:05Z</time></trkpt><trkpt lat="59.1023683548" lon="29.9934267998"><time>2026-04-22T13:01:08Z</time></trkpt><trkpt lat="59.1023468971" lon="29.9934053421"><time>2026-04-22T13:01:10Z</time></trkpt><trkpt lat="59.1023468971" lon="29.9934053421"><time>2026-04-22T13:01:13Z</time></trkpt><trkpt lat="59.1023468971" lon="29.9933838844"><time>2026-04-22T13:01:15Z</time></trkpt><trkpt lat="59.1023468971" lon="29.9933838844"><time>2026-04-22T13:01:18Z</time></trkpt><trkpt lat="59.1023468971" lon="29.9934053421"><time>2026-04-22T13:01:20Z</time></trkpt><trkpt lat="59.1023254395" lon="29.9934053421"><time>2026-04-22T13:01:23Z</time></trkpt><trkpt lat="59.1023039818" lon="29.9934053421"><time>2026-04-22T13:01:25Z</time></trkpt><trkpt lat="59.1022825241" lon="29.9934053421"><time>2026-04-22T13:01:28Z</time></trkpt><trkpt lat="59.1022610664" lon="29.9934053421"><time>2026-04-22T13:01:30Z</time></trkpt><trkpt lat="59.1022396088" lon="29.9934053421"><time>2026-04-22T13:01:33Z</time></trkpt><trkpt lat="59.1022396088" lon="29.9934053421"><time>2026-04-22T13:01:35Z</time></trkpt><trkpt lat="59.1022610664" lon="29.9933838844"><time>2026-04-22T13:01:38Z</time></trkpt><trkpt lat="59.1022825241" lon="29.9933624268"><time>2026-04-22T13:01:40Z</time></trkpt><trkpt lat="59.1022825241" lon="29.9933624268"><time>2026-04-22T13:01:43Z</time></trkpt><trkpt lat="59.1022825241" lon="29.9933838844"><time>2026-04-22T13:01:45Z</time></trkpt><trkpt lat="59.1022825241" lon="29.9933838844"><time>2026-04-22T13:01:48Z</time></trkpt><trkpt lat="59.1022825241" lon="29.9934482574"><time>2026-04-22T13:01:50Z</time></trkpt><trkpt lat="59.1022825241" lon="29.9934697151"><time>2026-04-22T13:01:53Z</time></trkpt><trkpt lat="59.1022825241" lon="29.9934911728"><time>2026-04-22T13:01:55Z</time></trkpt><trkpt lat="59.1022825241" lon="29.9934911728"><time>2026-04-22T13:01:58Z</time></trkpt><trkpt lat="59.1022825241" lon="29.9935126305"><time>2026-04-22T13:02:00Z</time></trkpt><trkpt lat="59.1022825241" lon="29.9935340881"><time>2026-04-22T13:02:03Z</time></trkpt><trkpt lat="59.1022396088" lon="29.9935770035"><time>2026-04-22T13:02:05Z</time></trkpt><trkpt lat="59.1022181511" lon="29.9935984612"><time>2026-04-22T13:02:08Z</time></trkpt><trkpt lat="59.1021966934" lon="29.9935984612"><time>2026-04-22T13:02:10Z</time></trkpt><trkpt lat="59.1021966934" lon="29.9936199188"><time>2026-04-22T13:02:13Z</time></trkpt><trkpt lat="59.1021966934" lon="29.9936199188"><time>2026-04-22T13:02:15Z</time></trkpt><trkpt lat="59.1021752357" lon="29.9936413765"><time>2026-04-22T13:02:18Z</time></trkpt><trkpt lat="59.1021323204" lon="29.9936842918"><time>2026-04-22T13:02:20Z</time></trkpt><trkpt lat="59.1021108627" lon="29.9936628342"><time>2026-04-22T13:02:23Z</time></trkpt><trkpt lat="59.1021108627" lon="29.9936628342"><time>2026-04-22T13:02:25Z</time></trkpt><trkpt lat="59.1021108627" lon="29.9936628342"><time>2026-04-22T13:02:28Z</time></trkpt><trkpt lat="59.1021108627" lon="29.9936628342"><time>2026-04-22T13:02:30Z</time></trkpt><trkpt lat="59.1021108627" lon="29.9936628342"><time>2026-04-22T13:02:33Z</time></trkpt><trkpt lat="59.1021108627" lon="29.9936628342"><time>2026-04-22T13:02:35Z</time></trkpt><trkpt lat="59.1021108627" lon="29.9936628342"><time>2026-04-22T13:02:38Z</time></trkpt><trkpt lat="59.1021323204" lon="29.9937272072"><time>2026-04-22T13:02:40Z</time></trkpt><trkpt lat="59.1021323204" lon="29.9937057495"><time>2026-04-22T13:02:43Z</time></trkpt><trkpt lat="59.1021108627" lon="29.9936628342"><time>2026-04-22T13:02:45Z</time></trkpt><trkpt lat="59.1021108627" lon="29.9936628342"><time>2026-04-22T13:02:48Z</time></trkpt><trkpt lat="59.1020894051" lon="29.9936628342"><time>2026-04-22T13:02:50Z</time></trkpt><trkpt lat="59.1020679474" lon="29.9936628342"><time>2026-04-22T13:02:53Z</time></trkpt><trkpt lat="59.1020464897" lon="29.9936628342"><time>2026-04-22T13:02:55Z</time></trkpt><trkpt lat="59.1020464897" lon="29.9936628342"><time>2026-04-22T13:02:58Z</time></trkpt><trkpt lat="59.1020464897" lon="29.9936628342"><time>2026-04-22T13:03:00Z</time></trkpt><trkpt lat="59.1020250320" lon="29.9936842918"><time>2026-04-22T13:03:03Z</time></trkpt><trkpt lat="59.1019821167" lon="29.9936842918"><time>2026-04-22T13:03:05Z</time></trkpt><trkpt lat="59.1019821167" lon="29.9937057495"><time>2026-04-22T13:03:08Z</time></trkpt><trkpt lat="59.1019392014" lon="29.9936842918"><time>2026-04-22T13:03:10Z</time></trkpt><trkpt lat="59.1019392014" lon="29.9936842918"><time>2026-04-22T13:03:13Z</time></trkpt><trkpt lat="59.1019392014" lon="29.9936842918"><time>2026-04-22T13:03:15Z</time></trkpt><trkpt lat="59.1019177437" lon="29.9936842918"><time>2026-04-22T13:03:18Z</time></trkpt><trkpt lat="59.1018962860" lon="29.9936842918"><time>2026-04-22T13:03:20Z</time></trkpt><trkpt lat="59.1018962860" lon="29.9936842918"><time>2026-04-22T13:03:23Z</time></trkpt><trkpt lat="59.1018748283" lon="29.9937272072"><time>2026-04-22T13:03:25Z</time></trkpt><trkpt lat="59.1018748283" lon="29.9937701225"><time>2026-04-22T13:03:28Z</time></trkpt><trkpt lat="59.1018748283" lon="29.9937701225"><time>2026-04-22T13:03:30Z</time></trkpt><trkpt lat="59.1018533707" lon="29.9938130379"><time>2026-04-22T13:03:33Z</time></trkpt><trkpt lat="59.1018533707" lon="29.9938774109"><time>2026-04-22T13:03:35Z</time></trkpt><trkpt lat="59.1018319130" lon="29.9938988686"><time>2026-04-22T13:03:38Z</time></trkpt><trkpt lat="59.1018104553" lon="29.9938988686"><time>2026-04-22T13:03:40Z</time></trkpt><trkpt lat="59.1018104553" lon="29.9938988686"><time>2026-04-22T13:03:43Z</time></trkpt><trkpt lat="59.1018104553" lon="29.9938988686"><time>2026-04-22T13:03:45Z</time></trkpt><trkpt lat="59.1018104553" lon="29.9938988686"><time>2026-04-22T13:03:48Z</time></trkpt><trkpt lat="59.1018104553" lon="29.9938988686"><time>2026-04-22T13:03:50Z</time></trkpt><trkpt lat="59.1018104553" lon="29.9938988686"><time>2026-04-22T13:03:53Z</time></trkpt><trkpt lat="59.1018104553" lon="29.9938988686"><time>2026-04-22T13:03:55Z</time></trkpt><trkpt lat="59.1018104553" lon="29.9938988686"><time>2026-04-22T13:03:58Z</time></trkpt><trkpt lat="59.1018104553" lon="29.9939203262"><time>2026-04-22T13:04:00Z</time></trkpt><trkpt lat="59.1017889977" lon="29.9939632416"><time>2026-04-22T13:04:03Z</time></trkpt><trkpt lat="59.1017889977" lon="29.9939846992"><time>2026-04-22T13:04:05Z</time></trkpt><trkpt lat="59.1017889977" lon="29.9939846992"><time>2026-04-22T13:04:08Z</time></trkpt><trkpt lat="59.1017889977" lon="29.9939846992"><time>2026-04-22T13:04:10Z</time></trkpt><trkpt lat="59.1017889977" lon="29.9939846992"><time>2026-04-22T13:04:13Z</time></trkpt><trkpt lat="59.1017889977" lon="29.9939846992"><time>2026-04-22T13:04:15Z</time></trkpt><trkpt lat="59.1017889977" lon="29.9939846992"><time>2026-04-22T13:04:18Z</time></trkpt><trkpt lat="59.1017889977" lon="29.9939846992"><time>2026-04-22T13:04:20Z</time></trkpt><trkpt lat="59.1017889977" lon="29.9939846992"><time>2026-04-22T13:04:23Z</time></trkpt><trkpt lat="59.1017675400" lon="29.9940061569"><time>2026-04-22T13:04:25Z</time></trkpt><trkpt lat="59.1017460823" lon="29.9940276146"><time>2026-04-22T13:04:28Z</time></trkpt><trkpt lat="59.1017460823" lon="29.9940705299"><time>2026-04-22T13:04:30Z</time></trkpt><trkpt lat="59.1017460823" lon="29.9940705299"><time>2026-04-22T13:04:33Z</time></trkpt><trkpt lat="59.1017246246" lon="29.9940705299"><time>2026-04-22T13:04:35Z</time></trkpt><trkpt lat="59.1017031670" lon="29.9940490723"><time>2026-04-22T13:04:38Z</time></trkpt><trkpt lat="59.1016602516" lon="29.9940061569"><time>2026-04-22T13:04:40Z</time></trkpt><trkpt lat="59.1016387939" lon="29.9939846992"><time>2026-04-22T13:04:43Z</time></trkpt><trkpt lat="59.1016387939" lon="29.9939632416"><time>2026-04-22T13:04:45Z</time></trkpt><trkpt lat="59.1016173363" lon="29.9939203262"><time>2026-04-22T13:04:48Z</time></trkpt><trkpt lat="59.1016173363" lon="29.9938988686"><time>2026-04-22T13:04:50Z</time></trkpt><trkpt lat="59.1016173363" lon="29.9938988686"><time>2026-04-22T13:04:53Z</time></trkpt><trkpt lat="59.1015958786" lon="29.9938774109"><time>2026-04-22T13:04:55Z</time></trkpt><trkpt lat="59.1015744209" lon="29.9938988686"><time>2026-04-22T13:04:58Z</time></trkpt><trkpt lat="59.1015529633" lon="29.9938774109"><time>2026-04-22T13:05:00Z</time></trkpt><trkpt lat="59.1015315056" lon="29.9938774109"><time>2026-04-22T13:05:03Z</time></trkpt><trkpt lat="59.1015100479" lon="29.9938774109"><time>2026-04-22T13:05:05Z</time></trkpt><trkpt lat="59.1015100479" lon="29.9938774109"><time>2026-04-22T13:05:08Z</time></trkpt><trkpt lat="59.1015100479" lon="29.9938774109"><time>2026-04-22T13:05:10Z</time></trkpt><trkpt lat="59.1015100479" lon="29.9938774109"><time>2026-04-22T13:05:13Z</time></trkpt><trkpt lat="59.1014885902" lon="29.9938774109"><time>2026-04-22T13:05:15Z</time></trkpt><trkpt lat="59.1014456749" lon="29.9938559532"><time>2026-04-22T13:05:18Z</time></trkpt><trkpt lat="59.1014242172" lon="29.9938559532"><time>2026-04-22T13:05:20Z</time></trkpt><trkpt lat="59.1014027596" lon="29.9938344955"><time>2026-04-22T13:05:23Z</time></trkpt><trkpt lat="59.1014027596" lon="29.9938344955"><time>2026-04-22T13:05:25Z</time></trkpt><trkpt lat="59.1014027596" lon="29.9938559532"><time>2026-04-22T13:05:28Z</time></trkpt><trkpt lat="59.1013813019" lon="29.9939203262"><time>2026-04-22T13:05:30Z</time></trkpt><trkpt lat="59.1013813019" lon="29.9939203262"><time>2026-04-22T13:05:33Z</time></trkpt><trkpt lat="59.1013813019" lon="29.9939417839"><time>2026-04-22T13:05:35Z</time></trkpt><trkpt lat="59.1013598442" lon="29.9939632416"><time>2026-04-22T13:05:38Z</time></trkpt><trkpt lat="59.1013383865" lon="29.9939846992"><time>2026-04-22T13:05:40Z</time></trkpt><trkpt lat="59.1013169289" lon="29.9940061569"><time>2026-04-22T13:05:43Z</time></trkpt><trkpt lat="59.1013169289" lon="29.9940276146"><time>2026-04-22T13:05:45Z</time></trkpt><trkpt lat="59.1013169289" lon="29.9940276146"><time>2026-04-22T13:05:48Z</time></trkpt><trkpt lat="59.1013169289" lon="29.9940276146"><time>2026-04-22T13:05:50Z</time></trkpt><trkpt lat="59.1013169289" lon="29.9940276146"><time>2026-04-22T13:05:53Z</time></trkpt><trkpt lat="59.1013169289" lon="29.9940276146"><time>2026-04-22T13:05:55Z</time></trkpt><trkpt lat="59.1013169289" lon="29.9940276146"><time>2026-04-22T13:05:58Z</time></trkpt><trkpt lat="59.1012954712" lon="29.9940276146"><time>2026-04-22T13:06:00Z</time></trkpt><trkpt lat="59.1012740135" lon="29.9940705299"><time>2026-04-22T13:06:03Z</time></trkpt><trkpt lat="59.1012525558" lon="29.9941134453"><time>2026-04-22T13:06:05Z</time></trkpt><trkpt lat="59.1012310982" lon="29.9941563606"><time>2026-04-22T13:06:08Z</time></trkpt><trkpt lat="59.1011881828" lon="29.9941778183"><time>2026-04-22T13:06:10Z</time></trkpt><trkpt lat="59.1011881828" lon="29.9941778183"><time>2026-04-22T13:06:13Z</time></trkpt><trkpt lat="59.1011881828" lon="29.9941778183"><time>2026-04-22T13:06:15Z</time></trkpt><trkpt lat="59.1011881828" lon="29.9941778183"><time>2026-04-22T13:06:18Z</time></trkpt><trkpt lat="59.1011881828" lon="29.9941778183"><time>2026-04-22T13:06:20Z</time></trkpt><trkpt lat="59.1011881828" lon="29.9941778183"><time>2026-04-22T13:06:23Z</time></trkpt><trkpt lat="59.1011881828" lon="29.9941778183"><time>2026-04-22T13:06:25Z</time></trkpt><trkpt lat="59.1011881828" lon="29.9941778183"><time>2026-04-22T13:06:28Z</time></trkpt><trkpt lat="59.1011667252" lon="29.9941778183"><time>2026-04-22T13:06:30Z</time></trkpt><trkpt lat="59.1011667252" lon="29.9941563606"><time>2026-04-22T13:06:33Z</time></trkpt><trkpt lat="59.1011667252" lon="29.9940919876"><time>2026-04-22T13:06:35Z</time></trkpt><trkpt lat="59.1011667252" lon="29.9940490723"><time>2026-04-22T13:06:38Z</time></trkpt><trkpt lat="59.1011667252" lon="29.9940919876"><time>2026-04-22T13:06:40Z</time></trkpt><trkpt lat="59.1011238098" lon="29.9940919876"><time>2026-04-22T13:06:43Z</time></trkpt><trkpt lat="59.1010808945" lon="29.9940919876"><time>2026-04-22T13:06:45Z</time></trkpt><trkpt lat="59.1010594368" lon="29.9941134453"><time>2026-04-22T13:06:48Z</time></trkpt><trkpt lat="59.1010594368" lon="29.9941349030"><time>2026-04-22T13:06:50Z</time></trkpt><trkpt lat="59.1010165215" lon="29.9941563606"><time>2026-04-22T13:06:53Z</time></trkpt><trkpt lat="59.1009950638" lon="29.9941992760"><time>2026-04-22T13:06:55Z</time></trkpt><trkpt lat="59.1009950638" lon="29.9941992760"><time>2026-04-22T13:06:58Z</time></trkpt><trkpt lat="59.1009521484" lon="29.9942207336"><time>2026-04-22T13:07:00Z</time></trkpt><trkpt lat="59.1009306908" lon="29.9942207336"><time>2026-04-22T13:07:03Z</time></trkpt><trkpt lat="59.1009092331" lon="29.9942421913"><time>2026-04-22T13:07:05Z</time></trkpt><trkpt lat="59.1009092331" lon="29.9942851067"><time>2026-04-22T13:07:08Z</time></trkpt><trkpt lat="59.1009092331" lon="29.9942851067"><time>2026-04-22T13:07:10Z</time></trkpt><trkpt lat="59.1008877754" lon="29.9943065643"><time>2026-04-22T13:07:13Z</time></trkpt><trkpt lat="59.1008877754" lon="29.9944138527"><time>2026-04-22T13:07:15Z</time></trkpt><trkpt lat="59.1008877754" lon="29.9944567680"><time>2026-04-22T13:07:18Z</time></trkpt><trkpt lat="59.1008877754" lon="29.9944567680"><time>2026-04-22T13:07:20Z</time></trkpt><trkpt lat="59.1008877754" lon="29.9944567680"><time>2026-04-22T13:07:23Z</time></trkpt><trkpt lat="59.1008877754" lon="29.9944567680"><time>2026-04-22T13:07:25Z</time></trkpt><trkpt lat="59.1008877754" lon="29.9944567680"><time>2026-04-22T13:07:28Z</time></trkpt><trkpt lat="59.1008877754" lon="29.9944567680"><time>2026-04-22T13:07:30Z</time></trkpt><trkpt lat="59.1008663177" lon="29.9944353104"><time>2026-04-22T13:07:33Z</time></trkpt><trkpt lat="59.1008448601" lon="29.9944353104"><time>2026-04-22T13:07:35Z</time></trkpt><trkpt lat="59.1008019447" lon="29.9944138527"><time>2026-04-22T13:07:38Z</time></trkpt><trkpt lat="59.1008019447" lon="29.9944138527"><time>2026-04-22T13:07:40Z</time></trkpt><trkpt lat="59.1007804871" lon="29.9944353104"><time>2026-04-22T13:07:43Z</time></trkpt><trkpt lat="59.1007590294" lon="29.9944353104"><time>2026-04-22T13:07:45Z</time></trkpt><trkpt lat="59.1007375717" lon="29.9944353104"><time>2026-04-22T13:07:48Z</time></trkpt><trkpt lat="59.1007161140" lon="29.9944353104"><time>2026-04-22T13:07:50Z</time></trkpt><trkpt lat="59.1007161140" lon="29.9944353104"><time>2026-04-22T13:07:53Z</time></trkpt><trkpt lat="59.1007161140" lon="29.9944567680"><time>2026-04-22T13:07:55Z</time></trkpt><trkpt lat="59.1006946564" lon="29.9944782257"><time>2026-04-22T13:07:58Z</time></trkpt><trkpt lat="59.1006731987" lon="29.9944996834"><time>2026-04-22T13:08:00Z</time></trkpt><trkpt lat="59.1006517410" lon="29.9944782257"><time>2026-04-22T13:08:03Z</time></trkpt><trkpt lat="59.1006517410" lon="29.9944782257"><time>2026-04-22T13:08:05Z</time></trkpt><trkpt lat="59.1006517410" lon="29.9944782257"><time>2026-04-22T13:08:08Z</time></trkpt><trkpt lat="59.1006517410" lon="29.9944782257"><time>2026-04-22T13:08:10Z</time></trkpt><trkpt lat="59.1006517410" lon="29.9944782257"><time>2026-04-22T13:08:13Z</time></trkpt><trkpt lat="59.1006517410" lon="29.9944782257"><time>2026-04-22T13:08:15Z</time></trkpt><trkpt lat="59.1006517410" lon="29.9944782257"><time>2026-04-22T13:08:18Z</time></trkpt><trkpt lat="59.1006517410" lon="29.9944782257"><time>2026-04-22T13:08:20Z</time></trkpt><trkpt lat="59.1006517410" lon="29.9944782257"><time>2026-04-22T13:08:23Z</time></trkpt><trkpt lat="59.1006517410" lon="29.9944782257"><time>2026-04-22T13:08:25Z</time></trkpt><trkpt lat="59.1006517410" lon="29.9944996834"><time>2026-04-22T13:08:28Z</time></trkpt><trkpt lat="59.1006517410" lon="29.9944996834"><time>2026-04-22T13:08:30Z</time></trkpt><trkpt lat="59.1006517410" lon="29.9944996834"><time>2026-04-22T13:08:33Z</time></trkpt><trkpt lat="59.1006517410" lon="29.9944996834"><time>2026-04-22T13:08:35Z</time></trkpt><trkpt lat="59.1006517410" lon="29.9944996834"><time>2026-04-22T13:08:38Z</time></trkpt><trkpt lat="59.1006517410" lon="29.9944996834"><time>2026-04-22T13:08:40Z</time></trkpt><trkpt lat="59.1006517410" lon="29.9944996834"><time>2026-04-22T13:08:43Z</time></trkpt><trkpt lat="59.1006517410" lon="29.9944996834"><time>2026-04-22T13:08:45Z</time></trkpt><trkpt lat="59.1006517410" lon="29.9944996834"><time>2026-04-22T13:08:48Z</time></trkpt><trkpt lat="59.1006517410" lon="29.9944996834"><time>2026-04-22T13:08:50Z</time></trkpt><trkpt lat="59.1006517410" lon="29.9944996834"><time>2026-04-22T13:08:53Z</time></trkpt><trkpt lat="59.1006517410" lon="29.9944996834"><time>2026-04-22T13:08:55Z</time></trkpt><trkpt lat="59.1006517410" lon="29.9944996834"><time>2026-04-22T13:08:58Z</time></trkpt><trkpt lat="59.1006517410" lon="29.9944996834"><time>2026-04-22T13:09:00Z</time></trkpt><trkpt lat="59.1006517410" lon="29.9944996834"><time>2026-04-22T13:09:03Z</time></trkpt><trkpt lat="59.1006517410" lon="29.9944996834"><time>2026-04-22T13:09:05Z</time></trkpt><trkpt lat="59.1006517410" lon="29.9944996834"><time>2026-04-22T13:09:08Z</time></trkpt><trkpt lat="59.1006517410" lon="29.9945211411"><time>2026-04-22T13:09:10Z</time></trkpt><trkpt lat="59.1006517410" lon="29.9945211411"><time>2026-04-22T13:09:13Z</time></trkpt><trkpt lat="59.1006517410" lon="29.9945211411"><time>2026-04-22T13:09:15Z</time></trkpt><trkpt lat="59.1006517410" lon="29.9945211411"><time>2026-04-22T13:09:18Z</time></trkpt><trkpt lat="59.1006517410" lon="29.9945211411"><time>2026-04-22T13:09:20Z</time></trkpt><trkpt lat="59.1006517410" lon="29.9945211411"><time>2026-04-22T13:09:23Z</time></trkpt><trkpt lat="59.1006517410" lon="29.9945211411"><time>2026-04-22T13:09:25Z</time></trkpt><trkpt lat="59.1006517410" lon="29.9945211411"><time>2026-04-22T13:09:28Z</time></trkpt><trkpt lat="59.1006517410" lon="29.9945211411"><time>2026-04-22T13:09:30Z</time></trkpt><trkpt lat="59.1006517410" lon="29.9945211411"><time>2026-04-22T13:09:33Z</time></trkpt><trkpt lat="59.1006517410" lon="29.9945211411"><time>2026-04-22T13:09:35Z</time></trkpt><trkpt lat="59.1006517410" lon="29.9945211411"><time>2026-04-22T13:09:38Z</time></trkpt><trkpt lat="59.1006302834" lon="29.9945425987"><time>2026-04-22T13:09:40Z</time></trkpt><trkpt lat="59.1005873680" lon="29.9945211411"><time>2026-04-22T13:09:43Z</time></trkpt><trkpt lat="59.1005659103" lon="29.9945425987"><time>2026-04-22T13:09:45Z</time></trkpt><trkpt lat="59.1005659103" lon="29.9945425987"><time>2026-04-22T13:09:48Z</time></trkpt><trkpt lat="59.1005659103" lon="29.9945425987"><time>2026-04-22T13:09:50Z</time></trkpt><trkpt lat="59.1005444527" lon="29.9945211411"><time>2026-04-22T13:09:53Z</time></trkpt><trkpt lat="59.1005015373" lon="29.9945425987"><time>2026-04-22T13:09:55Z</time></trkpt><trkpt lat="59.1004800797" lon="29.9945640564"><time>2026-04-22T13:09:58Z</time></trkpt><trkpt lat="59.1004586220" lon="29.9945855141"><time>2026-04-22T13:10:00Z</time></trkpt><trkpt lat="59.1004371643" lon="29.9945855141"><time>2026-04-22T13:10:03Z</time></trkpt><trkpt lat="59.1004371643" lon="29.9945855141"><time>2026-04-22T13:10:05Z</time></trkpt><trkpt lat="59.1004371643" lon="29.9945855141"><time>2026-04-22T13:10:08Z</time></trkpt><trkpt lat="59.1004371643" lon="29.9945855141"><time>2026-04-22T13:10:10Z</time></trkpt><trkpt lat="59.1004371643" lon="29.9945855141"><time>2026-04-22T13:10:13Z</time></trkpt><trkpt lat="59.1004371643" lon="29.9945855141"><time>2026-04-22T13:10:15Z</time></trkpt><trkpt lat="59.1004157066" lon="29.9945855141"><time>2026-04-22T13:10:18Z</time></trkpt><trkpt lat="59.1003942490" lon="29.9945855141"><time>2026-04-22T13:10:20Z</time></trkpt><trkpt lat="59.1003727913" lon="29.9945855141"><time>2026-04-22T13:10:23Z</time></trkpt><trkpt lat="59.1003298759" lon="29.9945855141"><time>2026-04-22T13:10:25Z</time></trkpt><trkpt lat="59.1002869606" lon="29.9945855141"><time>2026-04-22T13:10:28Z</time></trkpt><trkpt lat="59.1002655029" lon="29.9945855141"><time>2026-04-22T13:10:30Z</time></trkpt><trkpt lat="59.1002655029" lon="29.9945855141"><time>2026-04-22T13:10:33Z</time></trkpt><trkpt lat="59.1002655029" lon="29.9945855141"><time>2026-04-22T13:10:35Z</time></trkpt><trkpt lat="59.1002655029" lon="29.9945855141"><time>2026-04-22T13:10:38Z</time></trkpt><trkpt lat="59.1002655029" lon="29.9945855141"><time>2026-04-22T13:10:40Z</time></trkpt><trkpt lat="59.1002655029" lon="29.9945855141"><time>2026-04-22T13:10:43Z</time></trkpt><trkpt lat="59.1002440453" lon="29.9946069717"><time>2026-04-22T13:10:45Z</time></trkpt><trkpt lat="59.1002225876" lon="29.9946498871"><time>2026-04-22T13:10:48Z</time></trkpt><trkpt lat="59.1001796722" lon="29.9946498871"><time>2026-04-22T13:10:50Z</time></trkpt><trkpt lat="59.1001582146" lon="29.9946498871"><time>2026-04-22T13:10:53Z</time></trkpt><trkpt lat="59.1001152992" lon="29.9946713448"><time>2026-04-22T13:10:55Z</time></trkpt><trkpt lat="59.1000938416" lon="29.9946928024"><time>2026-04-22T13:10:58Z</time></trkpt><trkpt lat="59.1000723839" lon="29.9946928024"><time>2026-04-22T13:11:00Z</time></trkpt><trkpt lat="59.1000723839" lon="29.9946928024"><time>2026-04-22T13:11:03Z</time></trkpt><trkpt lat="59.1000723839" lon="29.9946928024"><time>2026-04-22T13:11:05Z</time></trkpt><trkpt lat="59.1000723839" lon="29.9946928024"><time>2026-04-22T13:11:08Z</time></trkpt><trkpt lat="59.1000723839" lon="29.9946928024"><time>2026-04-22T13:11:10Z</time></trkpt><trkpt lat="59.1000723839" lon="29.9946928024"><time>2026-04-22T13:11:13Z</time></trkpt><trkpt lat="59.1000723839" lon="29.9946928024"><time>2026-04-22T13:11:15Z</time></trkpt><trkpt lat="59.1000723839" lon="29.9946928024"><time>2026-04-22T13:11:18Z</time></trkpt><trkpt lat="59.1000509262" lon="29.9946928024"><time>2026-04-22T13:11:20Z</time></trkpt><trkpt lat="59.1000294685" lon="29.9946928024"><time>2026-04-22T13:11:23Z</time></trkpt><trkpt lat="59.1000080109" lon="29.9946928024"><time>2026-04-22T13:11:25Z</time></trkpt><trkpt lat="59.1000080109" lon="29.9946928024"><time>2026-04-22T13:11:28Z</time></trkpt><trkpt lat="59.1000080109" lon="29.9946928024"><time>2026-04-22T13:11:30Z</time></trkpt><trkpt lat="59.0999650955" lon="29.9946928024"><time>2026-04-22T13:11:33Z</time></trkpt><trkpt lat="59.0999007225" lon="29.9946713448"><time>2026-04-22T13:11:35Z</time></trkpt><trkpt lat="59.0998578072" lon="29.9946498871"><time>2026-04-22T13:11:38Z</time></trkpt><trkpt lat="59.0997934341" lon="29.9946284294"><time>2026-04-22T13:11:40Z</time></trkpt><trkpt lat="59.0997934341" lon="29.9946284294"><time>2026-04-22T13:11:43Z</time></trkpt><trkpt lat="59.0997934341" lon="29.9946284294"><time>2026-04-22T13:11:45Z</time></trkpt><trkpt lat="59.0997719765" lon="29.9946713448"><time>2026-04-22T13:11:48Z</time></trkpt><trkpt lat="59.0997505188" lon="29.9946928024"><time>2026-04-22T13:11:50Z</time></trkpt><trkpt lat="59.0997290611" lon="29.9947142601"><time>2026-04-22T13:11:53Z</time></trkpt><trkpt lat="59.0997290611" lon="29.9947142601"><time>2026-04-22T13:11:55Z</time></trkpt><trkpt lat="59.0996861458" lon="29.9947357178"><time>2026-04-22T13:11:58Z</time></trkpt><trkpt lat="59.0996646881" lon="29.9947571754"><time>2026-04-22T13:12:00Z</time></trkpt><trkpt lat="59.0996432304" lon="29.9947571754"><time>2026-04-22T13:12:03Z</time></trkpt><trkpt lat="59.0996217728" lon="29.9947571754"><time>2026-04-22T13:12:05Z</time></trkpt><trkpt lat="59.0996217728" lon="29.9947571754"><time>2026-04-22T13:12:08Z</time></trkpt><trkpt lat="59.0996217728" lon="29.9947571754"><time>2026-04-22T13:12:10Z</time></trkpt><trkpt lat="59.0996217728" lon="29.9947571754"><time>2026-04-22T13:12:13Z</time></trkpt><trkpt lat="59.0996003151" lon="29.9947571754"><time>2026-04-22T13:12:15Z</time></trkpt><trkpt lat="59.0995788574" lon="29.9947571754"><time>2026-04-22T13:12:18Z</time></trkpt><trkpt lat="59.0995359421" lon="29.9947357178"><time>2026-04-22T13:12:20Z</time></trkpt><trkpt lat="59.0995359421" lon="29.9947142601"><time>2026-04-22T13:12:23Z</time></trkpt><trkpt lat="59.0995144844" lon="29.9947142601"><time>2026-04-22T13:12:25Z</time></trkpt><trkpt lat="59.0995144844" lon="29.9947142601"><time>2026-04-22T13:12:28Z</time></trkpt><trkpt lat="59.0994715691" lon="29.9947786331"><time>2026-04-22T13:12:30Z</time></trkpt><trkpt lat="59.0994501114" lon="29.9948215485"><time>2026-04-22T13:12:33Z</time></trkpt><trkpt lat="59.0994501114" lon="29.9948215485"><time>2026-04-22T13:12:35Z</time></trkpt><trkpt lat="59.0994501114" lon="29.9948215485"><time>2026-04-22T13:12:38Z</time></trkpt><trkpt lat="59.0994071960" lon="29.9948644638"><time>2026-04-22T13:12:40Z</time></trkpt><trkpt lat="59.0993642807" lon="29.9948859215"><time>2026-04-22T13:12:43Z</time></trkpt><trkpt lat="59.0993213654" lon="29.9948859215"><time>2026-04-22T13:12:45Z</time></trkpt><trkpt lat="59.0992784500" lon="29.9948644638"><time>2026-04-22T13:12:48Z</time></trkpt><trkpt lat="59.0992569923" lon="29.9949073792"><time>2026-04-22T13:12:50Z</time></trkpt><trkpt lat="59.0992569923" lon="29.9949288368"><time>2026-04-22T13:12:53Z</time></trkpt><trkpt lat="59.0992140770" lon="29.9949502945"><time>2026-04-22T13:12:55Z</time></trkpt><trkpt lat="59.0992140770" lon="29.9949717522"><time>2026-04-22T13:12:58Z</time></trkpt><trkpt lat="59.0991926193" lon="29.9950146675"><time>2026-04-22T13:13:00Z</time></trkpt><trkpt lat="59.0991926193" lon="29.9950361252"><time>2026-04-22T13:13:03Z</time></trkpt><trkpt lat="59.0991926193" lon="29.9951004982"><time>2026-04-22T13:13:05Z</time></trkpt><trkpt lat="59.0991711617" lon="29.9951648712"><time>2026-04-22T13:13:08Z</time></trkpt><trkpt lat="59.0991497040" lon="29.9952292442"><time>2026-04-22T13:13:10Z</time></trkpt><trkpt lat="59.0991282463" lon="29.9952507019"><time>2026-04-22T13:13:13Z</time></trkpt><trkpt lat="59.0991067886" lon="29.9952936172"><time>2026-04-22T13:13:15Z</time></trkpt><trkpt lat="59.0991067886" lon="29.9952936172"><time>2026-04-22T13:13:18Z</time></trkpt><trkpt lat="59.0991067886" lon="29.9952936172"><time>2026-04-22T13:13:20Z</time></trkpt><trkpt lat="59.0991067886" lon="29.9952936172"><time>2026-04-22T13:13:23Z</time></trkpt><trkpt lat="59.0991067886" lon="29.9952936172"><time>2026-04-22T13:13:25Z</time></trkpt><trkpt lat="59.0990853310" lon="29.9953150749"><time>2026-04-22T13:13:28Z</time></trkpt><trkpt lat="59.0990853310" lon="29.9953579903"><time>2026-04-22T13:13:30Z</time></trkpt><trkpt lat="59.0990853310" lon="29.9953579903"><time>2026-04-22T13:13:33Z</time></trkpt><trkpt lat="59.0990853310" lon="29.9953579903"><time>2026-04-22T13:13:35Z</time></trkpt><trkpt lat="59.0990853310" lon="29.9953579903"><time>2026-04-22T13:13:38Z</time></trkpt><trkpt lat="59.0990853310" lon="29.9953579903"><time>2026-04-22T13:13:40Z</time></trkpt><trkpt lat="59.0990853310" lon="29.9953579903"><time>2026-04-22T13:13:43Z</time></trkpt><trkpt lat="59.0990853310" lon="29.9953579903"><time>2026-04-22T13:13:45Z</time></trkpt><trkpt lat="59.0990853310" lon="29.9953579903"><time>2026-04-22T13:13:48Z</time></trkpt><trkpt lat="59.0990638733" lon="29.9954223633"><time>2026-04-22T13:13:50Z</time></trkpt><trkpt lat="59.0990638733" lon="29.9954223633"><time>2026-04-22T13:13:53Z</time></trkpt><trkpt lat="59.0990638733" lon="29.9954223633"><time>2026-04-22T13:13:55Z</time></trkpt><trkpt lat="59.0990638733" lon="29.9954009056"><time>2026-04-22T13:14:00Z</time></trkpt><trkpt lat="59.0990638733" lon="29.9954009056"><time>2026-04-22T13:14:03Z</time></trkpt><trkpt lat="59.0990638733" lon="29.9953794479"><time>2026-04-22T13:14:05Z</time></trkpt><trkpt lat="59.0990424156" lon="29.9953365326"><time>2026-04-22T13:14:08Z</time></trkpt><trkpt lat="59.0990638733" lon="29.9952936172"><time>2026-04-22T13:14:10Z</time></trkpt><trkpt lat="59.0990638733" lon="29.9952721596"><time>2026-04-22T13:14:13Z</time></trkpt><trkpt lat="59.0990638733" lon="29.9952077866"><time>2026-04-22T13:14:15Z</time></trkpt><trkpt lat="59.0990638733" lon="29.9951648712"><time>2026-04-22T13:14:18Z</time></trkpt><trkpt lat="59.0990638733" lon="29.9951648712"><time>2026-04-22T13:14:20Z</time></trkpt><trkpt lat="59.0990853310" lon="29.9951434135"><time>2026-04-22T13:14:23Z</time></trkpt><trkpt lat="59.0990853310" lon="29.9951219559"><time>2026-04-22T13:14:25Z</time></trkpt><trkpt lat="59.0990853310" lon="29.9951004982"><time>2026-04-22T13:14:28Z</time></trkpt><trkpt lat="59.0990853310" lon="29.9951004982"><time>2026-04-22T13:14:30Z</time></trkpt><trkpt lat="59.0990638733" lon="29.9950790405"><time>2026-04-22T13:14:33Z</time></trkpt><trkpt lat="59.0990638733" lon="29.9950361252"><time>2026-04-22T13:14:35Z</time></trkpt><trkpt lat="59.0990638733" lon="29.9950146675"><time>2026-04-22T13:14:38Z</time></trkpt><trkpt lat="59.0990638733" lon="29.9950146675"><time>2026-04-22T13:14:40Z</time></trkpt><trkpt lat="59.0990638733" lon="29.9950146675"><time>2026-04-22T13:14:43Z</time></trkpt><trkpt lat="59.0990638733" lon="29.9950146675"><time>2026-04-22T13:14:45Z</time></trkpt><trkpt lat="59.0990638733" lon="29.9950146675"><time>2026-04-22T13:14:48Z</time></trkpt><trkpt lat="59.0990638733" lon="29.9950146675"><time>2026-04-22T13:14:50Z</time></trkpt><trkpt lat="59.0990638733" lon="29.9950146675"><time>2026-04-22T13:14:53Z</time></trkpt><trkpt lat="59.0990638733" lon="29.9950146675"><time>2026-04-22T13:14:55Z</time></trkpt><trkpt lat="59.0990638733" lon="29.9950146675"><time>2026-04-22T13:14:58Z</time></trkpt><trkpt lat="59.0990638733" lon="29.9950146675"><time>2026-04-22T13:15:00Z</time></trkpt><trkpt lat="59.0990638733" lon="29.9950146675"><time>2026-04-22T13:15:03Z</time></trkpt><trkpt lat="59.0990638733" lon="29.9950146675"><time>2026-04-22T13:15:05Z</time></trkpt><trkpt lat="59.0990638733" lon="29.9950146675"><time>2026-04-22T13:15:08Z</time></trkpt><trkpt lat="59.0990424156" lon="29.9949502945"><time>2026-04-22T13:15:10Z</time></trkpt><trkpt lat="59.0990424156" lon="29.9949502945"><time>2026-04-22T13:15:13Z</time></trkpt><trkpt lat="59.0990424156" lon="29.9949288368"><time>2026-04-22T13:15:15Z</time></trkpt><trkpt lat="59.0990209579" lon="29.9948859215"><time>2026-04-22T13:15:18Z</time></trkpt><trkpt lat="59.0990209579" lon="29.9948859215"><time>2026-04-22T13:15:20Z</time></trkpt><trkpt lat="59.0990209579" lon="29.9948859215"><time>2026-04-22T13:15:23Z</time></trkpt><trkpt lat="59.0990209579" lon="29.9948215485"><time>2026-04-22T13:15:25Z</time></trkpt><trkpt lat="59.0990209579" lon="29.9948000908"><time>2026-04-22T13:15:28Z</time></trkpt><trkpt lat="59.0990209579" lon="29.9948000908"><time>2026-04-22T13:15:30Z</time></trkpt><trkpt lat="59.0989995003" lon="29.9948000908"><time>2026-04-22T13:15:33Z</time></trkpt><trkpt lat="59.0989780426" lon="29.9948000908"><time>2026-04-22T13:15:35Z</time></trkpt><trkpt lat="59.0989351273" lon="29.9948000908"><time>2026-04-22T13:15:38Z</time></trkpt><trkpt lat="59.0989136696" lon="29.9948000908"><time>2026-04-22T13:15:40Z</time></trkpt><trkpt lat="59.0989136696" lon="29.9948000908"><time>2026-04-22T13:15:43Z</time></trkpt><trkpt lat="59.0989136696" lon="29.9948000908"><time>2026-04-22T13:15:45Z</time></trkpt><trkpt lat="59.0989136696" lon="29.9948000908"><time>2026-04-22T13:15:48Z</time></trkpt><trkpt lat="59.0989136696" lon="29.9948000908"><time>2026-04-22T13:15:50Z</time></trkpt><trkpt lat="59.0988922119" lon="29.9948000908"><time>2026-04-22T13:15:53Z</time></trkpt><trkpt lat="59.0988922119" lon="29.9948000908"><time>2026-04-22T13:15:55Z</time></trkpt><trkpt lat="59.0988922119" lon="29.9948000908"><time>2026-04-22T13:15:58Z</time></trkpt><trkpt lat="59.0988922119" lon="29.9948000908"><time>2026-04-22T13:16:00Z</time></trkpt><trkpt lat="59.0988922119" lon="29.9948000908"><time>2026-04-22T13:16:03Z</time></trkpt><trkpt lat="59.0988922119" lon="29.9948000908"><time>2026-04-22T13:16:05Z</time></trkpt><trkpt lat="59.0988922119" lon="29.9948000908"><time>2026-04-22T13:16:08Z</time></trkpt><trkpt lat="59.0988922119" lon="29.9948000908"><time>2026-04-22T13:16:10Z</time></trkpt><trkpt lat="59.0988922119" lon="29.9948000908"><time>2026-04-22T13:16:13Z</time></trkpt><trkpt lat="59.0988922119" lon="29.9948000908"><time>2026-04-22T13:16:15Z</time></trkpt><trkpt lat="59.0988707542" lon="29.9948215485"><time>2026-04-22T13:16:18Z</time></trkpt><trkpt lat="59.0988278389" lon="29.9948430061"><time>2026-04-22T13:16:20Z</time></trkpt><trkpt lat="59.0988278389" lon="29.9948430061"><time>2026-04-22T13:16:23Z</time></trkpt><trkpt lat="59.0988278389" lon="29.9948430061"><time>2026-04-22T13:16:25Z</time></trkpt><trkpt lat="59.0988278389" lon="29.9948430061"><time>2026-04-22T13:16:28Z</time></trkpt><trkpt lat="59.0988278389" lon="29.9948430061"><time>2026-04-22T13:16:30Z</time></trkpt><trkpt lat="59.0988278389" lon="29.9948430061"><time>2026-04-22T13:16:33Z</time></trkpt><trkpt lat="59.0988278389" lon="29.9948430061"><time>2026-04-22T13:16:35Z</time></trkpt><trkpt lat="59.0988278389" lon="29.9948430061"><time>2026-04-22T13:16:38Z</time></trkpt><trkpt lat="59.0988063812" lon="29.9948644638"><time>2026-04-22T13:16:40Z</time></trkpt><trkpt lat="59.0987849236" lon="29.9948859215"><time>2026-04-22T13:16:43Z</time></trkpt><trkpt lat="59.0987634659" lon="29.9949073792"><time>2026-04-22T13:16:45Z</time></trkpt><trkpt lat="59.0987420082" lon="29.9949288368"><time>2026-04-22T13:16:48Z</time></trkpt><trkpt lat="59.0987420082" lon="29.9949717522"><time>2026-04-22T13:16:50Z</time></trkpt><trkpt lat="59.0987205505" lon="29.9949932098"><time>2026-04-22T13:16:53Z</time></trkpt><trkpt lat="59.0986990929" lon="29.9950146675"><time>2026-04-22T13:16:55Z</time></trkpt><trkpt lat="59.0986990929" lon="29.9950146675"><time>2026-04-22T13:16:58Z</time></trkpt><trkpt lat="59.0986990929" lon="29.9950146675"><time>2026-04-22T13:17:00Z</time></trkpt><trkpt lat="59.0986990929" lon="29.9950146675"><time>2026-04-22T13:17:03Z</time></trkpt><trkpt lat="59.0987205505" lon="29.9950146675"><time>2026-04-22T13:17:05Z</time></trkpt><trkpt lat="59.0987205505" lon="29.9950146675"><time>2026-04-22T13:17:08Z</time></trkpt><trkpt lat="59.0987205505" lon="29.9950146675"><time>2026-04-22T13:17:10Z</time></trkpt><trkpt lat="59.0987205505" lon="29.9950146675"><time>2026-04-22T13:17:13Z</time></trkpt><trkpt lat="59.0987205505" lon="29.9950146675"><time>2026-04-22T13:17:15Z</time></trkpt><trkpt lat="59.0987205505" lon="29.9950146675"><time>2026-04-22T13:17:18Z</time></trkpt><trkpt lat="59.0987205505" lon="29.9950146675"><time>2026-04-22T13:17:20Z</time></trkpt><trkpt lat="59.0987205505" lon="29.9950146675"><time>2026-04-22T13:17:23Z</time></trkpt><trkpt lat="59.0987205505" lon="29.9950146675"><time>2026-04-22T13:17:25Z</time></trkpt><trkpt lat="59.0987205505" lon="29.9950146675"><time>2026-04-22T13:17:28Z</time></trkpt><trkpt lat="59.0987205505" lon="29.9950146675"><time>2026-04-22T13:17:30Z</time></trkpt><trkpt lat="59.0987205505" lon="29.9950146675"><time>2026-04-22T13:17:33Z</time></trkpt><trkpt lat="59.0987205505" lon="29.9950146675"><time>2026-04-22T13:17:35Z</time></trkpt><trkpt lat="59.0987205505" lon="29.9950146675"><time>2026-04-22T13:17:38Z</time></trkpt><trkpt lat="59.0987205505" lon="29.9950146675"><time>2026-04-22T13:17:40Z</time></trkpt><trkpt lat="59.0987205505" lon="29.9950146675"><time>2026-04-22T13:17:43Z</time></trkpt><trkpt lat="59.0986990929" lon="29.9950361252"><time>2026-04-22T13:17:45Z</time></trkpt><trkpt lat="59.0986990929" lon="29.9950361252"><time>2026-04-22T13:17:48Z</time></trkpt><trkpt lat="59.0986990929" lon="29.9950361252"><time>2026-04-22T13:17:50Z</time></trkpt><trkpt lat="59.0986990929" lon="29.9950361252"><time>2026-04-22T13:17:53Z</time></trkpt><trkpt lat="59.0986990929" lon="29.9950361252"><time>2026-04-22T13:17:55Z</time></trkpt><trkpt lat="59.0986990929" lon="29.9950361252"><time>2026-04-22T13:17:58Z</time></trkpt><trkpt lat="59.0986990929" lon="29.9950361252"><time>2026-04-22T13:18:00Z</time></trkpt><trkpt lat="59.0986990929" lon="29.9950361252"><time>2026-04-22T13:18:03Z</time></trkpt><trkpt lat="59.0986776352" lon="29.9950575829"><time>2026-04-22T13:18:05Z</time></trkpt><trkpt lat="59.0986561775" lon="29.9951004982"><time>2026-04-22T13:18:08Z</time></trkpt><trkpt lat="59.0986132622" lon="29.9951434135"><time>2026-04-22T13:18:10Z</time></trkpt><trkpt lat="59.0985918045" lon="29.9951219559"><time>2026-04-22T13:18:13Z</time></trkpt><trkpt lat="59.0985703468" lon="29.9951219559"><time>2026-04-22T13:18:15Z</time></trkpt><trkpt lat="59.0985488892" lon="29.9951219559"><time>2026-04-22T13:18:18Z</time></trkpt><trkpt lat="59.0985488892" lon="29.9951434135"><time>2026-04-22T13:18:20Z</time></trkpt><trkpt lat="59.0985274315" lon="29.9951219559"><time>2026-04-22T13:18:23Z</time></trkpt><trkpt lat="59.0985059738" lon="29.9951004982"><time>2026-04-22T13:18:25Z</time></trkpt><trkpt lat="59.0984845161" lon="29.9951004982"><time>2026-04-22T13:18:28Z</time></trkpt><trkpt lat="59.0984630585" lon="29.9950790405"><time>2026-04-22T13:18:30Z</time></trkpt><trkpt lat="59.0984630585" lon="29.9950790405"><time>2026-04-22T13:18:33Z</time></trkpt><trkpt lat="59.0984630585" lon="29.9950790405"><time>2026-04-22T13:18:35Z</time></trkpt><trkpt lat="59.0984201431" lon="29.9950790405"><time>2026-04-22T13:18:38Z</time></trkpt><trkpt lat="59.0983772278" lon="29.9950575829"><time>2026-04-22T13:18:40Z</time></trkpt><trkpt lat="59.0983557701" lon="29.9950575829"><time>2026-04-22T13:18:43Z</time></trkpt><trkpt lat="59.0983557701" lon="29.9950575829"><time>2026-04-22T13:18:45Z</time></trkpt><trkpt lat="59.0983557701" lon="29.9950575829"><time>2026-04-22T13:18:48Z</time></trkpt><trkpt lat="59.0983557701" lon="29.9950575829"><time>2026-04-22T13:18:50Z</time></trkpt><trkpt lat="59.0983557701" lon="29.9950575829"><time>2026-04-22T13:18:53Z</time></trkpt><trkpt lat="59.0983557701" lon="29.9950575829"><time>2026-04-22T13:18:55Z</time></trkpt><trkpt lat="59.0983557701" lon="29.9950575829"><time>2026-04-22T13:18:58Z</time></trkpt><trkpt lat="59.0983557701" lon="29.9950575829"><time>2026-04-22T13:19:00Z</time></trkpt><trkpt lat="59.0983343124" lon="29.9950146675"><time>2026-04-22T13:19:03Z</time></trkpt><trkpt lat="59.0983343124" lon="29.9950146675"><time>2026-04-22T13:19:05Z</time></trkpt><trkpt lat="59.0983343124" lon="29.9949932098"><time>2026-04-22T13:19:08Z</time></trkpt><trkpt lat="59.0983343124" lon="29.9949932098"><time>2026-04-22T13:19:10Z</time></trkpt><trkpt lat="59.0983343124" lon="29.9949932098"><time>2026-04-22T13:19:13Z</time></trkpt><trkpt lat="59.0983343124" lon="29.9949932098"><time>2026-04-22T13:19:15Z</time></trkpt><trkpt lat="59.0982913971" lon="29.9950146675"><time>2026-04-22T13:19:18Z</time></trkpt><trkpt lat="59.0982913971" lon="29.9949932098"><time>2026-04-22T13:19:20Z</time></trkpt><trkpt lat="59.0982913971" lon="29.9949932098"><time>2026-04-22T13:19:23Z</time></trkpt><trkpt lat="59.0982913971" lon="29.9949932098"><time>2026-04-22T13:19:25Z</time></trkpt><trkpt lat="59.0982913971" lon="29.9950146675"><time>2026-04-22T13:19:28Z</time></trkpt><trkpt lat="59.0982699394" lon="29.9951434135"><time>2026-04-22T13:19:30Z</time></trkpt><trkpt lat="59.0982699394" lon="29.9952077866"><time>2026-04-22T13:19:33Z</time></trkpt><trkpt lat="59.0982055664" lon="29.9952292442"><time>2026-04-22T13:19:35Z</time></trkpt><trkpt lat="59.0982055664" lon="29.9951863289"><time>2026-04-22T13:19:38Z</time></trkpt><trkpt lat="59.0981626511" lon="29.9951648712"><time>2026-04-22T13:19:40Z</time></trkpt><trkpt lat="59.0981626511" lon="29.9951648712"><time>2026-04-22T13:19:43Z</time></trkpt><trkpt lat="59.0981626511" lon="29.9951648712"><time>2026-04-22T13:19:45Z</time></trkpt><trkpt lat="59.0981626511" lon="29.9951648712"><time>2026-04-22T13:19:48Z</time></trkpt><trkpt lat="59.0981626511" lon="29.9951648712"><time>2026-04-22T13:19:50Z</time></trkpt><trkpt lat="59.0981411934" lon="29.9951863289"><time>2026-04-22T13:19:53Z</time></trkpt><trkpt lat="59.0981411934" lon="29.9952292442"><time>2026-04-22T13:19:58Z</time></trkpt><trkpt lat="59.0981411934" lon="29.9952292442"><time>2026-04-22T13:20:00Z</time></trkpt><trkpt lat="59.0981411934" lon="29.9952292442"><time>2026-04-22T13:20:03Z</time></trkpt><trkpt lat="59.0981411934" lon="29.9952292442"><time>2026-04-22T13:20:05Z</time></trkpt><trkpt lat="59.0981411934" lon="29.9952292442"><time>2026-04-22T13:20:08Z</time></trkpt><trkpt lat="59.0981197357" lon="29.9952292442"><time>2026-04-22T13:20:10Z</time></trkpt><trkpt lat="59.0980768204" lon="29.9952292442"><time>2026-04-22T13:20:13Z</time></trkpt><trkpt lat="59.0980339050" lon="29.9952292442"><time>2026-04-22T13:20:15Z</time></trkpt><trkpt lat="59.0979909897" lon="29.9952292442"><time>2026-04-22T13:20:18Z</time></trkpt><trkpt lat="59.0979480743" lon="29.9952077866"><time>2026-04-22T13:20:20Z</time></trkpt><trkpt lat="59.0979266167" lon="29.9951863289"><time>2026-04-22T13:20:23Z</time></trkpt><trkpt lat="59.0979266167" lon="29.9951219559"><time>2026-04-22T13:20:25Z</time></trkpt><trkpt lat="59.0979266167" lon="29.9950790405"><time>2026-04-22T13:20:28Z</time></trkpt><trkpt lat="59.0979051590" lon="29.9950146675"><time>2026-04-22T13:20:30Z</time></trkpt><trkpt lat="59.0978837013" lon="29.9950361252"><time>2026-04-22T13:20:33Z</time></trkpt><trkpt lat="59.0978622437" lon="29.9951004982"><time>2026-04-22T13:20:35Z</time></trkpt><trkpt lat="59.0978193283" lon="29.9951219559"><time>2026-04-22T13:20:38Z</time></trkpt><trkpt lat="59.0977764130" lon="29.9951648712"><time>2026-04-22T13:20:40Z</time></trkpt><trkpt lat="59.0977549553" lon="29.9952077866"><time>2026-04-22T13:20:43Z</time></trkpt><trkpt lat="59.0976905823" lon="29.9952292442"><time>2026-04-22T13:20:45Z</time></trkpt><trkpt lat="59.0976691246" lon="29.9952721596"><time>2026-04-22T13:20:48Z</time></trkpt><trkpt lat="59.0976476669" lon="29.9953579903"><time>2026-04-22T13:20:50Z</time></trkpt><trkpt lat="59.0976476669" lon="29.9954009056"><time>2026-04-22T13:20:53Z</time></trkpt><trkpt lat="59.0976476669" lon="29.9954652786"><time>2026-04-22T13:20:55Z</time></trkpt><trkpt lat="59.0976691246" lon="29.9955081940"><time>2026-04-22T13:20:58Z</time></trkpt><trkpt lat="59.0976691246" lon="29.9955296516"><time>2026-04-22T13:21:00Z</time></trkpt><trkpt lat="59.0976691246" lon="29.9955296516"><time>2026-04-22T13:21:03Z</time></trkpt><trkpt lat="59.0976691246" lon="29.9955296516"><time>2026-04-22T13:21:05Z</time></trkpt><trkpt lat="59.0976691246" lon="29.9955296516"><time>2026-04-22T13:21:08Z</time></trkpt><trkpt lat="59.0976691246" lon="29.9955296516"><time>2026-04-22T13:21:10Z</time></trkpt><trkpt lat="59.0976691246" lon="29.9955296516"><time>2026-04-22T13:21:13Z</time></trkpt><trkpt lat="59.0976691246" lon="29.9956154823"><time>2026-04-22T13:21:15Z</time></trkpt><trkpt lat="59.0976262093" lon="29.9957013130"><time>2026-04-22T13:21:18Z</time></trkpt><trkpt lat="59.0976047516" lon="29.9957656860"><time>2026-04-22T13:21:20Z</time></trkpt><trkpt lat="59.0976047516" lon="29.9957656860"><time>2026-04-22T13:21:23Z</time></trkpt><trkpt lat="59.0976047516" lon="29.9957656860"><time>2026-04-22T13:21:25Z</time></trkpt><trkpt lat="59.0976047516" lon="29.9957656860"><time>2026-04-22T13:21:28Z</time></trkpt><trkpt lat="59.0975618362" lon="29.9958300591"><time>2026-04-22T13:21:30Z</time></trkpt><trkpt lat="59.0975189209" lon="29.9958729744"><time>2026-04-22T13:21:33Z</time></trkpt><trkpt lat="59.0974760056" lon="29.9959588051"><time>2026-04-22T13:21:35Z</time></trkpt><trkpt lat="59.0974760056" lon="29.9960017204"><time>2026-04-22T13:21:38Z</time></trkpt><trkpt lat="59.0974330902" lon="29.9960875511"><time>2026-04-22T13:21:40Z</time></trkpt><trkpt lat="59.0974116325" lon="29.9960875511"><time>2026-04-22T13:21:43Z</time></trkpt><trkpt lat="59.0974116325" lon="29.9960875511"><time>2026-04-22T13:21:45Z</time></trkpt><trkpt lat="59.0973901749" lon="29.9961304665"><time>2026-04-22T13:21:48Z</time></trkpt><trkpt lat="59.0973687172" lon="29.9961304665"><time>2026-04-22T13:21:50Z</time></trkpt><trkpt lat="59.0973472595" lon="29.9961304665"><time>2026-04-22T13:21:53Z</time></trkpt><trkpt lat="59.0973472595" lon="29.9961304665"><time>2026-04-22T13:21:55Z</time></trkpt><trkpt lat="59.0973472595" lon="29.9961304665"><time>2026-04-22T13:21:58Z</time></trkpt><trkpt lat="59.0973472595" lon="29.9961304665"><time>2026-04-22T13:22:00Z</time></trkpt><trkpt lat="59.0973043442" lon="29.9961304665"><time>2026-04-22T13:22:03Z</time></trkpt><trkpt lat="59.0972399712" lon="29.9961090088"><time>2026-04-22T13:22:05Z</time></trkpt><trkpt lat="59.0971970558" lon="29.9960875511"><time>2026-04-22T13:22:08Z</time></trkpt><trkpt lat="59.0971541405" lon="29.9960660934"><time>2026-04-22T13:22:10Z</time></trkpt><trkpt lat="59.0971541405" lon="29.9960660934"><time>2026-04-22T13:22:13Z</time></trkpt><trkpt lat="59.0971541405" lon="29.9960660934"><time>2026-04-22T13:22:15Z</time></trkpt><trkpt lat="59.0971112251" lon="29.9960231781"><time>2026-04-22T13:22:18Z</time></trkpt><trkpt lat="59.0970897675" lon="29.9959158897"><time>2026-04-22T13:22:20Z</time></trkpt><trkpt lat="59.0970897675" lon="29.9959158897"><time>2026-04-22T13:22:23Z</time></trkpt><trkpt lat="59.0970683098" lon="29.9959373474"><time>2026-04-22T13:22:25Z</time></trkpt><trkpt lat="59.0970683098" lon="29.9959373474"><time>2026-04-22T13:22:28Z</time></trkpt><trkpt lat="59.0970683098" lon="29.9959373474"><time>2026-04-22T13:22:30Z</time></trkpt><trkpt lat="59.0970683098" lon="29.9959373474"><time>2026-04-22T13:22:33Z</time></trkpt><trkpt lat="59.0970683098" lon="29.9959373474"><time>2026-04-22T13:22:35Z</time></trkpt><trkpt lat="59.0970897675" lon="29.9959802628"><time>2026-04-22T13:22:38Z</time></trkpt><trkpt lat="59.0970897675" lon="29.9960446358"><time>2026-04-22T13:22:40Z</time></trkpt><trkpt lat="59.0971112251" lon="29.9960875511"><time>2026-04-22T13:22:43Z</time></trkpt><trkpt lat="59.0971112251" lon="29.9961733818"><time>2026-04-22T13:22:45Z</time></trkpt><trkpt lat="59.0971112251" lon="29.9962377548"><time>2026-04-22T13:22:48Z</time></trkpt><trkpt lat="59.0970897675" lon="29.9963021278"><time>2026-04-22T13:22:50Z</time></trkpt><trkpt lat="59.0970683098" lon="29.9963450432"><time>2026-04-22T13:22:53Z</time></trkpt><trkpt lat="59.0970683098" lon="29.9963450432"><time>2026-04-22T13:22:55Z</time></trkpt><trkpt lat="59.0970683098" lon="29.9963665009"><time>2026-04-22T13:22:58Z</time></trkpt><trkpt lat="59.0970683098" lon="29.9964523315"><time>2026-04-22T13:23:00Z</time></trkpt><trkpt lat="59.0970683098" lon="29.9965167046"><time>2026-04-22T13:23:03Z</time></trkpt><trkpt lat="59.0970253944" lon="29.9965810776"><time>2026-04-22T13:23:05Z</time></trkpt><trkpt lat="59.0970039368" lon="29.9966454506"><time>2026-04-22T13:23:08Z</time></trkpt><trkpt lat="59.0970039368" lon="29.9966883659"><time>2026-04-22T13:23:10Z</time></trkpt><trkpt lat="59.0970039368" lon="29.9966883659"><time>2026-04-22T13:23:13Z</time></trkpt><trkpt lat="59.0969610214" lon="29.9967098236"><time>2026-04-22T13:23:15Z</time></trkpt><trkpt lat="59.0969395638" lon="29.9967312813"><time>2026-04-22T13:23:18Z</time></trkpt><trkpt lat="59.0968966484" lon="29.9967312813"><time>2026-04-22T13:23:20Z</time></trkpt><trkpt lat="59.0968751907" lon="29.9967312813"><time>2026-04-22T13:23:23Z</time></trkpt><trkpt lat="59.0968108177" lon="29.9967527390"><time>2026-04-22T13:23:25Z</time></trkpt><trkpt lat="59.0967893600" lon="29.9967527390"><time>2026-04-22T13:23:28Z</time></trkpt><trkpt lat="59.0967893600" lon="29.9967527390"><time>2026-04-22T13:23:30Z</time></trkpt><trkpt lat="59.0967893600" lon="29.9967741966"><time>2026-04-22T13:23:33Z</time></trkpt><trkpt lat="59.0967893600" lon="29.9968600273"><time>2026-04-22T13:23:35Z</time></trkpt><trkpt lat="59.0967893600" lon="29.9969029427"><time>2026-04-22T13:23:38Z</time></trkpt><trkpt lat="59.0967464447" lon="29.9969673157"><time>2026-04-22T13:23:40Z</time></trkpt><trkpt lat="59.0967249870" lon="29.9969887733"><time>2026-04-22T13:23:43Z</time></trkpt><trkpt lat="59.0967249870" lon="29.9970316887"><time>2026-04-22T13:23:45Z</time></trkpt><trkpt lat="59.0967035294" lon="29.9970960617"><time>2026-04-22T13:23:48Z</time></trkpt><trkpt lat="59.0966606140" lon="29.9971175194"><time>2026-04-22T13:23:50Z</time></trkpt><trkpt lat="59.0966606140" lon="29.9971175194"><time>2026-04-22T13:23:53Z</time></trkpt><trkpt lat="59.0966606140" lon="29.9971175194"><time>2026-04-22T13:23:55Z</time></trkpt><trkpt lat="59.0966606140" lon="29.9971175194"><time>2026-04-22T13:23:58Z</time></trkpt><trkpt lat="59.0966606140" lon="29.9971175194"><time>2026-04-22T13:24:00Z</time></trkpt><trkpt lat="59.0966606140" lon="29.9971604347"><time>2026-04-22T13:24:03Z</time></trkpt><trkpt lat="59.0966391563" lon="29.9972462654"><time>2026-04-22T13:24:05Z</time></trkpt><trkpt lat="59.0966176987" lon="29.9972891808"><time>2026-04-22T13:24:08Z</time></trkpt><trkpt lat="59.0965747833" lon="29.9973106384"><time>2026-04-22T13:24:10Z</time></trkpt><trkpt lat="59.0965533257" lon="29.9973320961"><time>2026-04-22T13:24:13Z</time></trkpt><trkpt lat="59.0965533257" lon="29.9973535538"><time>2026-04-22T13:24:15Z</time></trkpt><trkpt lat="59.0965533257" lon="29.9973535538"><time>2026-04-22T13:24:18Z</time></trkpt><trkpt lat="59.0965533257" lon="29.9973535538"><time>2026-04-22T13:24:20Z</time></trkpt><trkpt lat="59.0965533257" lon="29.9973535538"><time>2026-04-22T13:24:23Z</time></trkpt><trkpt lat="59.0965533257" lon="29.9973535538"><time>2026-04-22T13:24:25Z</time></trkpt><trkpt lat="59.0965533257" lon="29.9973535538"><time>2026-04-22T13:24:28Z</time></trkpt><trkpt lat="59.0965533257" lon="29.9973535538"><time>2026-04-22T13:24:30Z</time></trkpt><trkpt lat="59.0965533257" lon="29.9973535538"><time>2026-04-22T13:24:33Z</time></trkpt><trkpt lat="59.0965533257" lon="29.9973535538"><time>2026-04-22T13:24:35Z</time></trkpt><trkpt lat="59.0965533257" lon="29.9973535538"><time>2026-04-22T13:24:38Z</time></trkpt><trkpt lat="59.0965533257" lon="29.9973535538"><time>2026-04-22T13:24:40Z</time></trkpt><trkpt lat="59.0965104103" lon="29.9974393845"><time>2026-04-22T13:24:43Z</time></trkpt><trkpt lat="59.0964889526" lon="29.9974608421"><time>2026-04-22T13:24:45Z</time></trkpt><trkpt lat="59.0964889526" lon="29.9974608421"><time>2026-04-22T13:24:48Z</time></trkpt><trkpt lat="59.0964889526" lon="29.9974608421"><time>2026-04-22T13:24:50Z</time></trkpt><trkpt lat="59.0964889526" lon="29.9974608421"><time>2026-04-22T13:24:53Z</time></trkpt><trkpt lat="59.0964889526" lon="29.9974608421"><time>2026-04-22T13:24:55Z</time></trkpt><trkpt lat="59.0964889526" lon="29.9974822998"><time>2026-04-22T13:24:58Z</time></trkpt><trkpt lat="59.0964674950" lon="29.9975252151"><time>2026-04-22T13:25:00Z</time></trkpt><trkpt lat="59.0964245796" lon="29.9975252151"><time>2026-04-22T13:25:03Z</time></trkpt><trkpt lat="59.0964031219" lon="29.9975681305"><time>2026-04-22T13:25:05Z</time></trkpt><trkpt lat="59.0963602066" lon="29.9976539612"><time>2026-04-22T13:25:08Z</time></trkpt><trkpt lat="59.0963602066" lon="29.9976754189"><time>2026-04-22T13:25:10Z</time></trkpt><trkpt lat="59.0963387489" lon="29.9976325035"><time>2026-04-22T13:25:13Z</time></trkpt><trkpt lat="59.0962958336" lon="29.9976110458"><time>2026-04-22T13:25:15Z</time></trkpt><trkpt lat="59.0962529182" lon="29.9976325035"><time>2026-04-22T13:25:18Z</time></trkpt><trkpt lat="59.0962314606" lon="29.9976325035"><time>2026-04-22T13:25:20Z</time></trkpt><trkpt lat="59.0962100029" lon="29.9976325035"><time>2026-04-22T13:25:23Z</time></trkpt><trkpt lat="59.0962100029" lon="29.9976325035"><time>2026-04-22T13:25:25Z</time></trkpt><trkpt lat="59.0961885452" lon="29.9976754189"><time>2026-04-22T13:25:28Z</time></trkpt><trkpt lat="59.0961670876" lon="29.9976968765"><time>2026-04-22T13:25:30Z</time></trkpt><trkpt lat="59.0961670876" lon="29.9977183342"><time>2026-04-22T13:25:33Z</time></trkpt><trkpt lat="59.0961241722" lon="29.9976968765"><time>2026-04-22T13:25:35Z</time></trkpt><trkpt lat="59.0961241722" lon="29.9976968765"><time>2026-04-22T13:25:38Z</time></trkpt><trkpt lat="59.0961241722" lon="29.9976968765"><time>2026-04-22T13:25:40Z</time></trkpt><trkpt lat="59.0961241722" lon="29.9976968765"><time>2026-04-22T13:25:43Z</time></trkpt><trkpt lat="59.0961027145" lon="29.9976754189"><time>2026-04-22T13:25:45Z</time></trkpt><trkpt lat="59.0961027145" lon="29.9976539612"><time>2026-04-22T13:25:48Z</time></trkpt><trkpt lat="59.0960812569" lon="29.9976325035"><time>2026-04-22T13:25:50Z</time></trkpt><trkpt lat="59.0960812569" lon="29.9976325035"><time>2026-04-22T13:25:53Z</time></trkpt><trkpt lat="59.0960812569" lon="29.9976325035"><time>2026-04-22T13:25:55Z</time></trkpt><trkpt lat="59.0960812569" lon="29.9976325035"><time>2026-04-22T13:25:58Z</time></trkpt><trkpt lat="59.0960597992" lon="29.9975895882"><time>2026-04-22T13:26:00Z</time></trkpt><trkpt lat="59.0960383415" lon="29.9975895882"><time>2026-04-22T13:26:03Z</time></trkpt><trkpt lat="59.0959954262" lon="29.9975252151"><time>2026-04-22T13:26:05Z</time></trkpt><trkpt lat="59.0959739685" lon="29.9974822998"><time>2026-04-22T13:26:08Z</time></trkpt><trkpt lat="59.0959310532" lon="29.9974608421"><time>2026-04-22T13:26:10Z</time></trkpt><trkpt lat="59.0959095955" lon="29.9974608421"><time>2026-04-22T13:26:13Z</time></trkpt><trkpt lat="59.0958881378" lon="29.9974608421"><time>2026-04-22T13:26:15Z</time></trkpt><trkpt lat="59.0958881378" lon="29.9974608421"><time>2026-04-22T13:26:18Z</time></trkpt><trkpt lat="59.0958881378" lon="29.9974608421"><time>2026-04-22T13:26:20Z</time></trkpt><trkpt lat="59.0958881378" lon="29.9974608421"><time>2026-04-22T13:26:23Z</time></trkpt><trkpt lat="59.0958881378" lon="29.9974608421"><time>2026-04-22T13:26:25Z</time></trkpt><trkpt lat="59.0958881378" lon="29.9974608421"><time>2026-04-22T13:26:28Z</time></trkpt><trkpt lat="59.0958666801" lon="29.9975037575"><time>2026-04-22T13:26:30Z</time></trkpt><trkpt lat="59.0958452225" lon="29.9975252151"><time>2026-04-22T13:26:33Z</time></trkpt><trkpt lat="59.0958237648" lon="29.9976325035"><time>2026-04-22T13:26:35Z</time></trkpt><trkpt lat="59.0958023071" lon="29.9976754189"><time>2026-04-22T13:26:38Z</time></trkpt><trkpt lat="59.0958023071" lon="29.9977397919"><time>2026-04-22T13:26:40Z</time></trkpt><trkpt lat="59.0957808495" lon="29.9977827072"><time>2026-04-22T13:26:43Z</time></trkpt><trkpt lat="59.0957808495" lon="29.9978470802"><time>2026-04-22T13:26:45Z</time></trkpt><trkpt lat="59.0957808495" lon="29.9978685379"><time>2026-04-22T13:26:48Z</time></trkpt><trkpt lat="59.0957808495" lon="29.9978685379"><time>2026-04-22T13:26:50Z</time></trkpt><trkpt lat="59.0957808495" lon="29.9979114532"><time>2026-04-22T13:26:53Z</time></trkpt><trkpt lat="59.0958023071" lon="29.9979329109"><time>2026-04-22T13:26:55Z</time></trkpt><trkpt lat="59.0958023071" lon="29.9979329109"><time>2026-04-22T13:26:58Z</time></trkpt><trkpt lat="59.0958023071" lon="29.9979329109"><time>2026-04-22T13:27:00Z</time></trkpt><trkpt lat="59.0957808495" lon="29.9979543686"><time>2026-04-22T13:27:03Z</time></trkpt><trkpt lat="59.0957808495" lon="29.9980401993"><time>2026-04-22T13:27:05Z</time></trkpt><trkpt lat="59.0957593918" lon="29.9981260300"><time>2026-04-22T13:27:08Z</time></trkpt><trkpt lat="59.0957593918" lon="29.9981474876"><time>2026-04-22T13:27:10Z</time></trkpt><trkpt lat="59.0957808495" lon="29.9981689453"><time>2026-04-22T13:27:13Z</time></trkpt><trkpt lat="59.0957808495" lon="29.9981904030"><time>2026-04-22T13:27:15Z</time></trkpt><trkpt lat="59.0957808495" lon="29.9981904030"><time>2026-04-22T13:27:18Z</time></trkpt><trkpt lat="59.0957808495" lon="29.9982976913"><time>2026-04-22T13:27:20Z</time></trkpt><trkpt lat="59.0957808495" lon="29.9983835220"><time>2026-04-22T13:27:23Z</time></trkpt><trkpt lat="59.0957593918" lon="29.9984908104"><time>2026-04-22T13:27:25Z</time></trkpt><trkpt lat="59.0957593918" lon="29.9985337257"><time>2026-04-22T13:27:28Z</time></trkpt><trkpt lat="59.0957379341" lon="29.9986195564"><time>2026-04-22T13:27:30Z</time></trkpt><trkpt lat="59.0957164764" lon="29.9986410141"><time>2026-04-22T13:27:33Z</time></trkpt><trkpt lat="59.0956950188" lon="29.9985980988"><time>2026-04-22T13:27:35Z</time></trkpt><trkpt lat="59.0956950188" lon="29.9985980988"><time>2026-04-22T13:27:38Z</time></trkpt><trkpt lat="59.0956950188" lon="29.9985980988"><time>2026-04-22T13:27:40Z</time></trkpt><trkpt lat="59.0956950188" lon="29.9985980988"><time>2026-04-22T13:27:43Z</time></trkpt><trkpt lat="59.0956950188" lon="29.9985980988"><time>2026-04-22T13:27:45Z</time></trkpt><trkpt lat="59.0956950188" lon="29.9985980988"><time>2026-04-22T13:27:48Z</time></trkpt><trkpt lat="59.0956950188" lon="29.9985980988"><time>2026-04-22T13:27:50Z</time></trkpt><trkpt lat="59.0956735611" lon="29.9986624718"><time>2026-04-22T13:27:53Z</time></trkpt><trkpt lat="59.0956306458" lon="29.9987697601"><time>2026-04-22T13:27:55Z</time></trkpt><trkpt lat="59.0956091881" lon="29.9987912178"><time>2026-04-22T13:27:58Z</time></trkpt><trkpt lat="59.0955877304" lon="29.9988126755"><time>2026-04-22T13:28:00Z</time></trkpt><trkpt lat="59.0955877304" lon="29.9988126755"><time>2026-04-22T13:28:03Z</time></trkpt><trkpt lat="59.0956091881" lon="29.9988985062"><time>2026-04-22T13:28:05Z</time></trkpt><trkpt lat="59.0956091881" lon="29.9989628792"><time>2026-04-22T13:28:08Z</time></trkpt><trkpt lat="59.0956091881" lon="29.9990272522"><time>2026-04-22T13:28:10Z</time></trkpt><trkpt lat="59.0956091881" lon="29.9990701675"><time>2026-04-22T13:28:13Z</time></trkpt><trkpt lat="59.0956091881" lon="29.9990701675"><time>2026-04-22T13:28:15Z</time></trkpt><trkpt lat="59.0956091881" lon="29.9990701675"><time>2026-04-22T13:28:18Z</time></trkpt><trkpt lat="59.0956091881" lon="29.9990701675"><time>2026-04-22T13:28:20Z</time></trkpt><trkpt lat="59.0956091881" lon="29.9990701675"><time>2026-04-22T13:28:23Z</time></trkpt><trkpt lat="59.0956091881" lon="29.9990701675"><time>2026-04-22T13:28:25Z</time></trkpt><trkpt lat="59.0956091881" lon="29.9990701675"><time>2026-04-22T13:28:28Z</time></trkpt><trkpt lat="59.0956091881" lon="29.9990701675"><time>2026-04-22T13:28:30Z</time></trkpt><trkpt lat="59.0956091881" lon="29.9990701675"><time>2026-04-22T13:28:33Z</time></trkpt><trkpt lat="59.0956091881" lon="29.9990487099"><time>2026-04-22T13:28:35Z</time></trkpt><trkpt lat="59.0956091881" lon="29.9990701675"><time>2026-04-22T13:28:38Z</time></trkpt><trkpt lat="59.0956091881" lon="29.9990701675"><time>2026-04-22T13:28:40Z</time></trkpt><trkpt lat="59.0956091881" lon="29.9990701675"><time>2026-04-22T13:28:43Z</time></trkpt><trkpt lat="59.0956091881" lon="29.9990701675"><time>2026-04-22T13:28:45Z</time></trkpt><trkpt lat="59.0956091881" lon="29.9990701675"><time>2026-04-22T13:28:48Z</time></trkpt><trkpt lat="59.0956091881" lon="29.9990701675"><time>2026-04-22T13:28:50Z</time></trkpt><trkpt lat="59.0955877304" lon="29.9990701675"><time>2026-04-22T13:28:53Z</time></trkpt><trkpt lat="59.0955877304" lon="29.9990701675"><time>2026-04-22T13:28:55Z</time></trkpt><trkpt lat="59.0955877304" lon="29.9990701675"><time>2026-04-22T13:28:58Z</time></trkpt><trkpt lat="59.0955877304" lon="29.9990701675"><time>2026-04-22T13:29:00Z</time></trkpt><trkpt lat="59.0955877304" lon="29.9990701675"><time>2026-04-22T13:29:03Z</time></trkpt><trkpt lat="59.0955877304" lon="29.9990701675"><time>2026-04-22T13:29:05Z</time></trkpt><trkpt lat="59.0955877304" lon="29.9990701675"><time>2026-04-22T13:29:08Z</time></trkpt><trkpt lat="59.0955877304" lon="29.9990701675"><time>2026-04-22T13:29:10Z</time></trkpt><trkpt lat="59.0955877304" lon="29.9990701675"><time>2026-04-22T13:29:13Z</time></trkpt><trkpt lat="59.0955877304" lon="29.9990701675"><time>2026-04-22T13:29:15Z</time></trkpt><trkpt lat="59.0955877304" lon="29.9990701675"><time>2026-04-22T13:29:18Z</time></trkpt><trkpt lat="59.0955877304" lon="29.9990701675"><time>2026-04-22T13:29:20Z</time></trkpt><trkpt lat="59.0955877304" lon="29.9990701675"><time>2026-04-22T13:29:23Z</time></trkpt><trkpt lat="59.0955877304" lon="29.9990701675"><time>2026-04-22T13:29:25Z</time></trkpt><trkpt lat="59.0955877304" lon="29.9990701675"><time>2026-04-22T13:29:28Z</time></trkpt><trkpt lat="59.0955877304" lon="29.9990701675"><time>2026-04-22T13:29:30Z</time></trkpt><trkpt lat="59.0955877304" lon="29.9990701675"><time>2026-04-22T13:29:33Z</time></trkpt><trkpt lat="59.0955877304" lon="29.9990701675"><time>2026-04-22T13:29:35Z</time></trkpt><trkpt lat="59.0955877304" lon="29.9990701675"><time>2026-04-22T13:29:38Z</time></trkpt><trkpt lat="59.0955877304" lon="29.9990701675"><time>2026-04-22T13:29:40Z</time></trkpt><trkpt lat="59.0955877304" lon="29.9990701675"><time>2026-04-22T13:29:43Z</time></trkpt><trkpt lat="59.0955877304" lon="29.9990701675"><time>2026-04-22T13:29:45Z</time></trkpt><trkpt lat="59.0955877304" lon="29.9990701675"><time>2026-04-22T13:29:48Z</time></trkpt><trkpt lat="59.0955877304" lon="29.9990701675"><time>2026-04-22T13:29:50Z</time></trkpt><trkpt lat="59.0955877304" lon="29.9990701675"><time>2026-04-22T13:29:53Z</time></trkpt><trkpt lat="59.0955877304" lon="29.9990701675"><time>2026-04-22T13:29:55Z</time></trkpt><trkpt lat="59.0955877304" lon="29.9990701675"><time>2026-04-22T13:29:58Z</time></trkpt><trkpt lat="59.0955877304" lon="29.9990701675"><time>2026-04-22T13:30:00Z</time></trkpt><trkpt lat="59.0955877304" lon="29.9990701675"><time>2026-04-22T13:30:03Z</time></trkpt><trkpt lat="59.0955877304" lon="29.9990701675"><time>2026-04-22T13:30:05Z</time></trkpt><trkpt lat="59.0955877304" lon="29.9990701675"><time>2026-04-22T13:30:08Z</time></trkpt><trkpt lat="59.0955877304" lon="29.9990701675"><time>2026-04-22T13:30:10Z</time></trkpt><trkpt lat="59.0955877304" lon="29.9990916252"><time>2026-04-22T13:30:13Z</time></trkpt><trkpt lat="59.0955877304" lon="29.9990916252"><time>2026-04-22T13:30:15Z</time></trkpt><trkpt lat="59.0955877304" lon="29.9990916252"><time>2026-04-22T13:30:18Z</time></trkpt><trkpt lat="59.0955877304" lon="29.9990916252"><time>2026-04-22T13:30:20Z</time></trkpt><trkpt lat="59.0955877304" lon="29.9990916252"><time>2026-04-22T13:30:23Z</time></trkpt><trkpt lat="59.0955877304" lon="29.9990916252"><time>2026-04-22T13:30:25Z</time></trkpt><trkpt lat="59.0955877304" lon="29.9990916252"><time>2026-04-22T13:30:28Z</time></trkpt><trkpt lat="59.0955877304" lon="29.9990916252"><time>2026-04-22T13:30:30Z</time></trkpt><trkpt lat="59.0955877304" lon="29.9990916252"><time>2026-04-22T13:30:33Z</time></trkpt><trkpt lat="59.0955877304" lon="29.9990916252"><time>2026-04-22T13:30:35Z</time></trkpt><trkpt lat="59.0955877304" lon="29.9990916252"><time>2026-04-22T13:30:38Z</time></trkpt><trkpt lat="59.0955877304" lon="29.9990916252"><time>2026-04-22T13:30:40Z</time></trkpt><trkpt lat="59.0955877304" lon="29.9990916252"><time>2026-04-22T13:30:43Z</time></trkpt><trkpt lat="59.0955877304" lon="29.9990916252"><time>2026-04-22T13:30:45Z</time></trkpt><trkpt lat="59.0955877304" lon="29.9990916252"><time>2026-04-22T13:30:48Z</time></trkpt><trkpt lat="59.0955877304" lon="29.9990916252"><time>2026-04-22T13:30:50Z</time></trkpt><trkpt lat="59.0955662727" lon="29.9990916252"><time>2026-04-22T13:30:53Z</time></trkpt><trkpt lat="59.0955662727" lon="29.9990916252"><time>2026-04-22T13:30:55Z</time></trkpt><trkpt lat="59.0955662727" lon="29.9990916252"><time>2026-04-22T13:30:58Z</time></trkpt><trkpt lat="59.0955662727" lon="29.9990916252"><time>2026-04-22T13:31:00Z</time></trkpt><trkpt lat="59.0955662727" lon="29.9990916252"><time>2026-04-22T13:31:03Z</time></trkpt><trkpt lat="59.0955662727" lon="29.9990916252"><time>2026-04-22T13:31:05Z</time></trkpt><trkpt lat="59.0955662727" lon="29.9990916252"><time>2026-04-22T13:31:08Z</time></trkpt><trkpt lat="59.0955662727" lon="29.9990916252"><time>2026-04-22T13:31:10Z</time></trkpt><trkpt lat="59.0955662727" lon="29.9990916252"><time>2026-04-22T13:31:13Z</time></trkpt><trkpt lat="59.0955662727" lon="29.9990916252"><time>2026-04-22T13:31:15Z</time></trkpt><trkpt lat="59.0955662727" lon="29.9990916252"><time>2026-04-22T13:31:18Z</time></trkpt><trkpt lat="59.0955662727" lon="29.9990916252"><time>2026-04-22T13:31:20Z</time></trkpt><trkpt lat="59.0955662727" lon="29.9990916252"><time>2026-04-22T13:31:23Z</time></trkpt><trkpt lat="59.0955662727" lon="29.9990916252"><time>2026-04-22T13:31:25Z</time></trkpt><trkpt lat="59.0955662727" lon="29.9990916252"><time>2026-04-22T13:31:28Z</time></trkpt><trkpt lat="59.0955662727" lon="29.9990916252"><time>2026-04-22T13:31:30Z</time></trkpt><trkpt lat="59.0955877304" lon="29.9990916252"><time>2026-04-22T13:31:33Z</time></trkpt><trkpt lat="59.0955877304" lon="29.9990916252"><time>2026-04-22T13:31:35Z</time></trkpt><trkpt lat="59.0955877304" lon="29.9990916252"><time>2026-04-22T13:31:38Z</time></trkpt><trkpt lat="59.0955877304" lon="29.9990916252"><time>2026-04-22T13:31:40Z</time></trkpt><trkpt lat="59.0955877304" lon="29.9990916252"><time>2026-04-22T13:31:43Z</time></trkpt><trkpt lat="59.0955877304" lon="29.9990916252"><time>2026-04-22T13:31:45Z</time></trkpt><trkpt lat="59.0955877304" lon="29.9990916252"><time>2026-04-22T13:31:48Z</time></trkpt><trkpt lat="59.0955877304" lon="29.9990916252"><time>2026-04-22T13:31:50Z</time></trkpt><trkpt lat="59.0955877304" lon="29.9990916252"><time>2026-04-22T13:31:53Z</time></trkpt><trkpt lat="59.0955877304" lon="29.9990916252"><time>2026-04-22T13:31:55Z</time></trkpt><trkpt lat="59.0955877304" lon="29.9990916252"><time>2026-04-22T13:31:58Z</time></trkpt><trkpt lat="59.0955877304" lon="29.9990916252"><time>2026-04-22T13:32:00Z</time></trkpt><trkpt lat="59.0955877304" lon="29.9990916252"><time>2026-04-22T13:32:03Z</time></trkpt><trkpt lat="59.0955877304" lon="29.9990916252"><time>2026-04-22T13:32:05Z</time></trkpt><trkpt lat="59.0955877304" lon="29.9990916252"><time>2026-04-22T13:32:08Z</time></trkpt><trkpt lat="59.0955877304" lon="29.9990916252"><time>2026-04-22T13:32:10Z</time></trkpt><trkpt lat="59.0955662727" lon="29.9990916252"><time>2026-04-22T13:32:13Z</time></trkpt><trkpt lat="59.0955662727" lon="29.9990916252"><time>2026-04-22T13:32:15Z</time></trkpt><trkpt lat="59.0955662727" lon="29.9990916252"><time>2026-04-22T13:32:18Z</time></trkpt><trkpt lat="59.0955662727" lon="29.9990916252"><time>2026-04-22T13:32:20Z</time></trkpt><trkpt lat="59.0955662727" lon="29.9990916252"><time>2026-04-22T13:32:23Z</time></trkpt><trkpt lat="59.0955662727" lon="29.9990916252"><time>2026-04-22T13:32:25Z</time></trkpt><trkpt lat="59.0955662727" lon="29.9990916252"><time>2026-04-22T13:32:28Z</time></trkpt><trkpt lat="59.0955662727" lon="29.9990916252"><time>2026-04-22T13:32:30Z</time></trkpt><trkpt lat="59.0955662727" lon="29.9990916252"><time>2026-04-22T13:32:33Z</time></trkpt><trkpt lat="59.0955662727" lon="29.9990916252"><time>2026-04-22T13:32:35Z</time></trkpt><trkpt lat="59.0955662727" lon="29.9990916252"><time>2026-04-22T13:32:38Z</time></trkpt><trkpt lat="59.0955662727" lon="29.9990916252"><time>2026-04-22T13:32:40Z</time></trkpt><trkpt lat="59.0955662727" lon="29.9990916252"><time>2026-04-22T13:32:43Z</time></trkpt><trkpt lat="59.0955662727" lon="29.9990916252"><time>2026-04-22T13:32:45Z</time></trkpt><trkpt lat="59.0955662727" lon="29.9990916252"><time>2026-04-22T13:32:48Z</time></trkpt><trkpt lat="59.0955662727" lon="29.9990916252"><time>2026-04-22T13:32:50Z</time></trkpt><trkpt lat="59.0955662727" lon="29.9991130829"><time>2026-04-22T13:32:53Z</time></trkpt><trkpt lat="59.0955662727" lon="29.9991130829"><time>2026-04-22T13:32:55Z</time></trkpt><trkpt lat="59.0955662727" lon="29.9991130829"><time>2026-04-22T13:32:58Z</time></trkpt><trkpt lat="59.0955662727" lon="29.9991130829"><time>2026-04-22T13:33:00Z</time></trkpt><trkpt lat="59.0955662727" lon="29.9991130829"><time>2026-04-22T13:33:03Z</time></trkpt><trkpt lat="59.0955662727" lon="29.9991130829"><time>2026-04-22T13:33:05Z</time></trkpt><trkpt lat="59.0955662727" lon="29.9991130829"><time>2026-04-22T13:33:08Z</time></trkpt><trkpt lat="59.0955662727" lon="29.9991130829"><time>2026-04-22T13:33:10Z</time></trkpt><trkpt lat="59.0955662727" lon="29.9991130829"><time>2026-04-22T13:33:13Z</time></trkpt><trkpt lat="59.0955662727" lon="29.9991130829"><time>2026-04-22T13:33:15Z</time></trkpt><trkpt lat="59.0955662727" lon="29.9991130829"><time>2026-04-22T13:33:18Z</time></trkpt><trkpt lat="59.0955662727" lon="29.9991130829"><time>2026-04-22T13:33:20Z</time></trkpt><trkpt lat="59.0955662727" lon="29.9991130829"><time>2026-04-22T13:33:23Z</time></trkpt><trkpt lat="59.0955662727" lon="29.9991130829"><time>2026-04-22T13:33:25Z</time></trkpt><trkpt lat="59.0955662727" lon="29.9991130829"><time>2026-04-22T13:33:28Z</time></trkpt><trkpt lat="59.0955662727" lon="29.9991130829"><time>2026-04-22T13:33:30Z</time></trkpt><trkpt lat="59.0955662727" lon="29.9991130829"><time>2026-04-22T13:33:33Z</time></trkpt><trkpt lat="59.0955662727" lon="29.9991130829"><time>2026-04-22T13:33:35Z</time></trkpt><trkpt lat="59.0955662727" lon="29.9991130829"><time>2026-04-22T13:33:38Z</time></trkpt><trkpt lat="59.0955662727" lon="29.9991130829"><time>2026-04-22T13:33:40Z</time></trkpt><trkpt lat="59.0955662727" lon="29.9991130829"><time>2026-04-22T13:33:43Z</time></trkpt><trkpt lat="59.0955662727" lon="29.9991130829"><time>2026-04-22T13:33:45Z</time></trkpt><trkpt lat="59.0955662727" lon="29.9991130829"><time>2026-04-22T13:33:48Z</time></trkpt><trkpt lat="59.0955662727" lon="29.9991130829"><time>2026-04-22T13:33:50Z</time></trkpt><trkpt lat="59.0955662727" lon="29.9991130829"><time>2026-04-22T13:33:53Z</time></trkpt><trkpt lat="59.0955662727" lon="29.9991130829"><time>2026-04-22T13:33:55Z</time></trkpt><trkpt lat="59.0955662727" lon="29.9991130829"><time>2026-04-22T13:33:58Z</time></trkpt><trkpt lat="59.0955662727" lon="29.9991130829"><time>2026-04-22T13:34:00Z</time></trkpt><trkpt lat="59.0955662727" lon="29.9991130829"><time>2026-04-22T13:34:03Z</time></trkpt><trkpt lat="59.0955662727" lon="29.9991130829"><time>2026-04-22T13:34:05Z</time></trkpt><trkpt lat="59.0955662727" lon="29.9991130829"><time>2026-04-22T13:34:08Z</time></trkpt><trkpt lat="59.0955662727" lon="29.9991130829"><time>2026-04-22T13:34:10Z</time></trkpt><trkpt lat="59.0955662727" lon="29.9991130829"><time>2026-04-22T13:34:13Z</time></trkpt><trkpt lat="59.0955662727" lon="29.9991130829"><time>2026-04-22T13:34:15Z</time></trkpt><trkpt lat="59.0955662727" lon="29.9991130829"><time>2026-04-22T13:34:18Z</time></trkpt><trkpt lat="59.0955662727" lon="29.9991130829"><time>2026-04-22T13:34:20Z</time></trkpt><trkpt lat="59.0955662727" lon="29.9991130829"><time>2026-04-22T13:34:23Z</time></trkpt><trkpt lat="59.0955662727" lon="29.9991130829"><time>2026-04-22T13:34:25Z</time></trkpt><trkpt lat="59.0955662727" lon="29.9991130829"><time>2026-04-22T13:34:28Z</time></trkpt><trkpt lat="59.0955662727" lon="29.9991130829"><time>2026-04-22T13:34:30Z</time></trkpt><trkpt lat="59.0955662727" lon="29.9991130829"><time>2026-04-22T13:34:33Z</time></trkpt><trkpt lat="59.0955662727" lon="29.9991130829"><time>2026-04-22T13:34:35Z</time></trkpt><trkpt lat="59.0955662727" lon="29.9991130829"><time>2026-04-22T13:34:38Z</time></trkpt><trkpt lat="59.0955662727" lon="29.9991130829"><time>2026-04-22T13:34:40Z</time></trkpt><trkpt lat="59.0955662727" lon="29.9991130829"><time>2026-04-22T13:34:43Z</time></trkpt><trkpt lat="59.0955662727" lon="29.9991130829"><time>2026-04-22T13:34:45Z</time></trkpt><trkpt lat="59.0955662727" lon="29.9991130829"><time>2026-04-22T13:34:48Z</time></trkpt><trkpt lat="59.0955662727" lon="29.9991130829"><time>2026-04-22T13:34:50Z</time></trkpt><trkpt lat="59.0955662727" lon="29.9991130829"><time>2026-04-22T13:34:53Z</time></trkpt><trkpt lat="59.0955662727" lon="29.9991130829"><time>2026-04-22T13:34:55Z</time></trkpt><trkpt lat="59.0955662727" lon="29.9991130829"><time>2026-04-22T13:34:58Z</time></trkpt><trkpt lat="59.0955662727" lon="29.9991130829"><time>2026-04-22T13:35:00Z</time></trkpt><trkpt lat="59.0955662727" lon="29.9991130829"><time>2026-04-22T13:35:03Z</time></trkpt><trkpt lat="59.0955662727" lon="29.9991130829"><time>2026-04-22T13:35:05Z</time></trkpt><trkpt lat="59.0955662727" lon="29.9991130829"><time>2026-04-22T13:35:08Z</time></trkpt><trkpt lat="59.0955448151" lon="29.9990916252"><time>2026-04-22T13:35:10Z</time></trkpt><trkpt lat="59.0955448151" lon="29.9990916252"><time>2026-04-22T13:35:13Z</time></trkpt><trkpt lat="59.0955448151" lon="29.9990916252"><time>2026-04-22T13:35:15Z</time></trkpt><trkpt lat="59.0955448151" lon="29.9990916252"><time>2026-04-22T13:35:18Z</time></trkpt><trkpt lat="59.0955448151" lon="29.9990916252"><time>2026-04-22T13:35:20Z</time></trkpt><trkpt lat="59.0955448151" lon="29.9990916252"><time>2026-04-22T13:35:23Z</time></trkpt><trkpt lat="59.0955448151" lon="29.9990916252"><time>2026-04-22T13:35:25Z</time></trkpt><trkpt lat="59.0955448151" lon="29.9990916252"><time>2026-04-22T13:35:28Z</time></trkpt><trkpt lat="59.0955448151" lon="29.9990916252"><time>2026-04-22T13:35:30Z</time></trkpt><trkpt lat="59.0955448151" lon="29.9990916252"><time>2026-04-22T13:35:33Z</time></trkpt><trkpt lat="59.0955662727" lon="29.9990916252"><time>2026-04-22T13:35:35Z</time></trkpt><trkpt lat="59.0955662727" lon="29.9990916252"><time>2026-04-22T13:35:38Z</time></trkpt><trkpt lat="59.0955662727" lon="29.9990916252"><time>2026-04-22T13:35:40Z</time></trkpt><trkpt lat="59.0955662727" lon="29.9991345406"><time>2026-04-22T13:35:43Z</time></trkpt><trkpt lat="59.0955662727" lon="29.9991345406"><time>2026-04-22T13:35:45Z</time></trkpt><trkpt lat="59.0955662727" lon="29.9991345406"><time>2026-04-22T13:35:48Z</time></trkpt><trkpt lat="59.0955662727" lon="29.9991345406"><time>2026-04-22T13:35:50Z</time></trkpt><trkpt lat="59.0955662727" lon="29.9991345406"><time>2026-04-22T13:35:53Z</time></trkpt><trkpt lat="59.0955662727" lon="29.9991559982"><time>2026-04-22T13:35:55Z</time></trkpt><trkpt lat="59.0955662727" lon="29.9991559982"><time>2026-04-22T13:35:58Z</time></trkpt><trkpt lat="59.0955662727" lon="29.9991559982"><time>2026-04-22T13:36:00Z</time></trkpt><trkpt lat="59.0955662727" lon="29.9991559982"><time>2026-04-22T13:36:03Z</time></trkpt><trkpt lat="59.0955662727" lon="29.9991559982"><time>2026-04-22T13:36:05Z</time></trkpt><trkpt lat="59.0955662727" lon="29.9991559982"><time>2026-04-22T13:36:08Z</time></trkpt><trkpt lat="59.0955662727" lon="29.9991559982"><time>2026-04-22T13:36:10Z</time></trkpt><trkpt lat="59.0955662727" lon="29.9991559982"><time>2026-04-22T13:36:13Z</time></trkpt><trkpt lat="59.0955662727" lon="29.9991559982"><time>2026-04-22T13:36:15Z</time></trkpt><trkpt lat="59.0955662727" lon="29.9991559982"><time>2026-04-22T13:36:18Z</time></trkpt><trkpt lat="59.0955662727" lon="29.9991559982"><time>2026-04-22T13:36:20Z</time></trkpt><trkpt lat="59.0955662727" lon="29.9991559982"><time>2026-04-22T13:36:23Z</time></trkpt><trkpt lat="59.0955662727" lon="29.9991559982"><time>2026-04-22T13:36:25Z</time></trkpt><trkpt lat="59.0955662727" lon="29.9991559982"><time>2026-04-22T13:36:28Z</time></trkpt><trkpt lat="59.0955662727" lon="29.9991559982"><time>2026-04-22T13:36:30Z</time></trkpt><trkpt lat="59.0955662727" lon="29.9991559982"><time>2026-04-22T13:36:33Z</time></trkpt><trkpt lat="59.0955662727" lon="29.9991559982"><time>2026-04-22T13:36:35Z</time></trkpt><trkpt lat="59.0955662727" lon="29.9991559982"><time>2026-04-22T13:36:38Z</time></trkpt><trkpt lat="59.0955662727" lon="29.9991559982"><time>2026-04-22T13:36:40Z</time></trkpt><trkpt lat="59.0955662727" lon="29.9991559982"><time>2026-04-22T13:36:43Z</time></trkpt><trkpt lat="59.0955662727" lon="29.9991559982"><time>2026-04-22T13:36:45Z</time></trkpt><trkpt lat="59.0955662727" lon="29.9991559982"><time>2026-04-22T13:36:48Z</time></trkpt><trkpt lat="59.0955662727" lon="29.9991559982"><time>2026-04-22T13:36:50Z</time></trkpt><trkpt lat="59.0955662727" lon="29.9991559982"><time>2026-04-22T13:36:53Z</time></trkpt><trkpt lat="59.0955662727" lon="29.9991559982"><time>2026-04-22T13:36:55Z</time></trkpt><trkpt lat="59.0955662727" lon="29.9991559982"><time>2026-04-22T13:36:58Z</time></trkpt><trkpt lat="59.0955662727" lon="29.9991559982"><time>2026-04-22T13:37:00Z</time></trkpt><trkpt lat="59.0955662727" lon="29.9991559982"><time>2026-04-22T13:37:03Z</time></trkpt><trkpt lat="59.0955662727" lon="29.9991559982"><time>2026-04-22T13:37:05Z</time></trkpt><trkpt lat="59.0955662727" lon="29.9991559982"><time>2026-04-22T13:37:08Z</time></trkpt><trkpt lat="59.0955662727" lon="29.9991559982"><time>2026-04-22T13:37:10Z</time></trkpt><trkpt lat="59.0955662727" lon="29.9991559982"><time>2026-04-22T13:37:13Z</time></trkpt><trkpt lat="59.0955662727" lon="29.9991559982"><time>2026-04-22T13:37:15Z</time></trkpt><trkpt lat="59.0955662727" lon="29.9991559982"><time>2026-04-22T13:37:18Z</time></trkpt><trkpt lat="59.0955662727" lon="29.9991559982"><time>2026-04-22T13:37:20Z</time></trkpt><trkpt lat="59.0955662727" lon="29.9991559982"><time>2026-04-22T13:37:23Z</time></trkpt><trkpt lat="59.0955662727" lon="29.9991559982"><time>2026-04-22T13:37:25Z</time></trkpt><trkpt lat="59.0955662727" lon="29.9991774559"><time>2026-04-22T13:37:28Z</time></trkpt><trkpt lat="59.0955662727" lon="29.9991774559"><time>2026-04-22T13:37:30Z</time></trkpt><trkpt lat="59.0955662727" lon="29.9991774559"><time>2026-04-22T13:37:33Z</time></trkpt><trkpt lat="59.0955662727" lon="29.9991774559"><time>2026-04-22T13:37:35Z</time></trkpt><trkpt lat="59.0955662727" lon="29.9991774559"><time>2026-04-22T13:37:38Z</time></trkpt><trkpt lat="59.0955662727" lon="29.9991774559"><time>2026-04-22T13:37:40Z</time></trkpt><trkpt lat="59.0955662727" lon="29.9991774559"><time>2026-04-22T13:37:43Z</time></trkpt><trkpt lat="59.0955662727" lon="29.9991774559"><time>2026-04-22T13:37:45Z</time></trkpt><trkpt lat="59.0955662727" lon="29.9991774559"><time>2026-04-22T13:37:48Z</time></trkpt><trkpt lat="59.0955662727" lon="29.9991774559"><time>2026-04-22T13:37:50Z</time></trkpt><trkpt lat="59.0955662727" lon="29.9991774559"><time>2026-04-22T13:37:53Z</time></trkpt><trkpt lat="59.0955662727" lon="29.9991774559"><time>2026-04-22T13:37:55Z</time></trkpt><trkpt lat="59.0955662727" lon="29.9991774559"><time>2026-04-22T13:37:58Z</time></trkpt><trkpt lat="59.0955662727" lon="29.9991774559"><time>2026-04-22T13:38:00Z</time></trkpt><trkpt lat="59.0955662727" lon="29.9991774559"><time>2026-04-22T13:38:03Z</time></trkpt><trkpt lat="59.0955662727" lon="29.9991774559"><time>2026-04-22T13:38:05Z</time></trkpt><trkpt lat="59.0955662727" lon="29.9991559982"><time>2026-04-22T13:38:08Z</time></trkpt><trkpt lat="59.0955662727" lon="29.9991559982"><time>2026-04-22T13:38:10Z</time></trkpt><trkpt lat="59.0955662727" lon="29.9991559982"><time>2026-04-22T13:38:13Z</time></trkpt><trkpt lat="59.0955662727" lon="29.9991559982"><time>2026-04-22T13:38:15Z</time></trkpt><trkpt lat="59.0955662727" lon="29.9991559982"><time>2026-04-22T13:38:18Z</time></trkpt><trkpt lat="59.0955662727" lon="29.9991559982"><time>2026-04-22T13:38:20Z</time></trkpt><trkpt lat="59.0955662727" lon="29.9991559982"><time>2026-04-22T13:38:23Z</time></trkpt><trkpt lat="59.0955662727" lon="29.9991559982"><time>2026-04-22T13:38:25Z</time></trkpt><trkpt lat="59.0955662727" lon="29.9991559982"><time>2026-04-22T13:38:28Z</time></trkpt><trkpt lat="59.0955662727" lon="29.9991559982"><time>2026-04-22T13:38:30Z</time></trkpt><trkpt lat="59.0955662727" lon="29.9991559982"><time>2026-04-22T13:38:33Z</time></trkpt><trkpt lat="59.0955662727" lon="29.9991559982"><time>2026-04-22T13:38:35Z</time></trkpt><trkpt lat="59.0955662727" lon="29.9991559982"><time>2026-04-22T13:38:38Z</time></trkpt><trkpt lat="59.0955662727" lon="29.9991559982"><time>2026-04-22T13:38:40Z</time></trkpt><trkpt lat="59.0955662727" lon="29.9991559982"><time>2026-04-22T13:38:43Z</time></trkpt><trkpt lat="59.0955662727" lon="29.9991559982"><time>2026-04-22T13:38:45Z</time></trkpt><trkpt lat="59.0955662727" lon="29.9991774559"><time>2026-04-22T13:38:48Z</time></trkpt><trkpt lat="59.0955662727" lon="29.9991774559"><time>2026-04-22T13:38:50Z</time></trkpt><trkpt lat="59.0955662727" lon="29.9991774559"><time>2026-04-22T13:38:53Z</time></trkpt><trkpt lat="59.0955662727" lon="29.9991774559"><time>2026-04-22T13:38:55Z</time></trkpt><trkpt lat="59.0955662727" lon="29.9991774559"><time>2026-04-22T13:38:58Z</time></trkpt><trkpt lat="59.0955662727" lon="29.9991774559"><time>2026-04-22T13:39:00Z</time></trkpt><trkpt lat="59.0955662727" lon="29.9991774559"><time>2026-04-22T13:39:03Z</time></trkpt><trkpt lat="59.0955662727" lon="29.9991774559"><time>2026-04-22T13:39:05Z</time></trkpt><trkpt lat="59.0955662727" lon="29.9991774559"><time>2026-04-22T13:39:08Z</time></trkpt><trkpt lat="59.0955662727" lon="29.9991774559"><time>2026-04-22T13:39:10Z</time></trkpt><trkpt lat="59.0955662727" lon="29.9991774559"><time>2026-04-22T13:39:13Z</time></trkpt><trkpt lat="59.0955662727" lon="29.9991774559"><time>2026-04-22T13:39:15Z</time></trkpt><trkpt lat="59.0955662727" lon="29.9991774559"><time>2026-04-22T13:39:18Z</time></trkpt><trkpt lat="59.0955662727" lon="29.9991774559"><time>2026-04-22T13:39:20Z</time></trkpt><trkpt lat="59.0955662727" lon="29.9991774559"><time>2026-04-22T13:39:23Z</time></trkpt><trkpt lat="59.0955662727" lon="29.9991774559"><time>2026-04-22T13:39:25Z</time></trkpt><trkpt lat="59.0955662727" lon="29.9991774559"><time>2026-04-22T13:39:28Z</time></trkpt><trkpt lat="59.0955662727" lon="29.9991774559"><time>2026-04-22T13:39:30Z</time></trkpt><trkpt lat="59.0955662727" lon="29.9991774559"><time>2026-04-22T13:39:33Z</time></trkpt><trkpt lat="59.0955662727" lon="29.9991774559"><time>2026-04-22T13:39:35Z</time></trkpt><trkpt lat="59.0955662727" lon="29.9991774559"><time>2026-04-22T13:39:38Z</time></trkpt><trkpt lat="59.0955662727" lon="29.9991774559"><time>2026-04-22T13:39:40Z</time></trkpt><trkpt lat="59.0955662727" lon="29.9991774559"><time>2026-04-22T13:39:43Z</time></trkpt><trkpt lat="59.0955662727" lon="29.9991774559"><time>2026-04-22T13:39:45Z</time></trkpt><trkpt lat="59.0955662727" lon="29.9991774559"><time>2026-04-22T13:39:48Z</time></trkpt><trkpt lat="59.0955448151" lon="29.9991774559"><time>2026-04-22T13:39:50Z</time></trkpt><trkpt lat="59.0955233574" lon="29.9992203712"><time>2026-04-22T13:39:53Z</time></trkpt><trkpt lat="59.0954804420" lon="29.9992632866"><time>2026-04-22T13:39:55Z</time></trkpt><trkpt lat="59.0954589844" lon="29.9992632866"><time>2026-04-22T13:39:58Z</time></trkpt><trkpt lat="59.0954589844" lon="29.9992632866"><time>2026-04-22T13:40:00Z</time></trkpt><trkpt lat="59.0954589844" lon="29.9992847443"><time>2026-04-22T13:40:03Z</time></trkpt><trkpt lat="59.0954375267" lon="29.9992632866"><time>2026-04-22T13:40:05Z</time></trkpt><trkpt lat="59.0954160690" lon="29.9992632866"><time>2026-04-22T13:40:08Z</time></trkpt><trkpt lat="59.0954160690" lon="29.9992632866"><time>2026-04-22T13:40:10Z</time></trkpt><trkpt lat="59.0954160690" lon="29.9992632866"><time>2026-04-22T13:40:13Z</time></trkpt><trkpt lat="59.0953946114" lon="29.9993062019"><time>2026-04-22T13:40:15Z</time></trkpt><trkpt lat="59.0953731537" lon="29.9993705750"><time>2026-04-22T13:40:18Z</time></trkpt><trkpt lat="59.0953087807" lon="29.9994564056"><time>2026-04-22T13:40:20Z</time></trkpt><trkpt lat="59.0952873230" lon="29.9994564056"><time>2026-04-22T13:40:23Z</time></trkpt><trkpt lat="59.0952658653" lon="29.9994778633"><time>2026-04-22T13:40:25Z</time></trkpt><trkpt lat="59.0952444077" lon="29.9994993210"><time>2026-04-22T13:40:28Z</time></trkpt><trkpt lat="59.0952229500" lon="29.9994993210"><time>2026-04-22T13:40:30Z</time></trkpt><trkpt lat="59.0952014923" lon="29.9995207787"><time>2026-04-22T13:40:33Z</time></trkpt><trkpt lat="59.0952014923" lon="29.9995207787"><time>2026-04-22T13:40:35Z</time></trkpt><trkpt lat="59.0952014923" lon="29.9995207787"><time>2026-04-22T13:40:38Z</time></trkpt><trkpt lat="59.0951800346" lon="29.9995422363"><time>2026-04-22T13:40:40Z</time></trkpt><trkpt lat="59.0951585770" lon="29.9995636940"><time>2026-04-22T13:40:43Z</time></trkpt><trkpt lat="59.0951585770" lon="29.9996066093"><time>2026-04-22T13:40:45Z</time></trkpt><trkpt lat="59.0951371193" lon="29.9996709824"><time>2026-04-22T13:40:48Z</time></trkpt><trkpt lat="59.0951156616" lon="29.9997353554"><time>2026-04-22T13:40:50Z</time></trkpt><trkpt lat="59.0950727463" lon="29.9997568130"><time>2026-04-22T13:40:53Z</time></trkpt><trkpt lat="59.0950727463" lon="29.9997568130"><time>2026-04-22T13:40:55Z</time></trkpt><trkpt lat="59.0950512886" lon="29.9998426437"><time>2026-04-22T13:40:58Z</time></trkpt><trkpt lat="59.0950298309" lon="29.9999070168"><time>2026-04-22T13:41:00Z</time></trkpt><trkpt lat="59.0950083733" lon="29.9999499321"><time>2026-04-22T13:41:03Z</time></trkpt><trkpt lat="59.0949869156" lon="29.9999928474"><time>2026-04-22T13:41:05Z</time></trkpt><trkpt lat="59.0949654579" lon="30.0000357628"><time>2026-04-22T13:41:08Z</time></trkpt><trkpt lat="59.0949654579" lon="30.0000357628"><time>2026-04-22T13:41:10Z</time></trkpt><trkpt lat="59.0949654579" lon="30.0000357628"><time>2026-04-22T13:41:13Z</time></trkpt><trkpt lat="59.0949654579" lon="30.0000357628"><time>2026-04-22T13:41:15Z</time></trkpt><trkpt lat="59.0949654579" lon="29.9999713898"><time>2026-04-22T13:41:18Z</time></trkpt><trkpt lat="59.0949869156" lon="29.9999499321"><time>2026-04-22T13:41:20Z</time></trkpt><trkpt lat="59.0949869156" lon="29.9999499321"><time>2026-04-22T13:41:23Z</time></trkpt><trkpt lat="59.0949869156" lon="29.9999499321"><time>2026-04-22T13:41:25Z</time></trkpt><trkpt lat="59.0949869156" lon="29.9999499321"><time>2026-04-22T13:41:28Z</time></trkpt><trkpt lat="59.0949869156" lon="29.9999499321"><time>2026-04-22T13:41:30Z</time></trkpt><trkpt lat="59.0949869156" lon="29.9999499321"><time>2026-04-22T13:41:33Z</time></trkpt><trkpt lat="59.0949869156" lon="29.9999499321"><time>2026-04-22T13:41:35Z</time></trkpt><trkpt lat="59.0949869156" lon="29.9999499321"><time>2026-04-22T13:41:38Z</time></trkpt><trkpt lat="59.0949869156" lon="29.9999499321"><time>2026-04-22T13:41:40Z</time></trkpt><trkpt lat="59.0949869156" lon="29.9999499321"><time>2026-04-22T13:41:43Z</time></trkpt><trkpt lat="59.0949869156" lon="29.9999499321"><time>2026-04-22T13:41:45Z</time></trkpt><trkpt lat="59.0949869156" lon="29.9999499321"><time>2026-04-22T13:41:48Z</time></trkpt><trkpt lat="59.0949869156" lon="29.9999499321"><time>2026-04-22T13:41:50Z</time></trkpt><trkpt lat="59.0949869156" lon="29.9999499321"><time>2026-04-22T13:41:53Z</time></trkpt><trkpt lat="59.0949869156" lon="29.9999499321"><time>2026-04-22T13:41:55Z</time></trkpt><trkpt lat="59.0949869156" lon="29.9999499321"><time>2026-04-22T13:41:58Z</time></trkpt><trkpt lat="59.0949869156" lon="29.9999713898"><time>2026-04-22T13:42:00Z</time></trkpt><trkpt lat="59.0949869156" lon="29.9999928474"><time>2026-04-22T13:42:03Z</time></trkpt><trkpt lat="59.0949654579" lon="30.0000357628"><time>2026-04-22T13:42:05Z</time></trkpt><trkpt lat="59.0949869156" lon="30.0001215935"><time>2026-04-22T13:42:08Z</time></trkpt><trkpt lat="59.0949440002" lon="30.0001645088"><time>2026-04-22T13:42:10Z</time></trkpt><trkpt lat="59.0949225426" lon="30.0002074242"><time>2026-04-22T13:42:13Z</time></trkpt><trkpt lat="59.0949225426" lon="30.0002503395"><time>2026-04-22T13:42:15Z</time></trkpt><trkpt lat="59.0949010849" lon="30.0002503395"><time>2026-04-22T13:42:18Z</time></trkpt><trkpt lat="59.0949010849" lon="30.0002932549"><time>2026-04-22T13:42:20Z</time></trkpt><trkpt lat="59.0949010849" lon="30.0003361702"><time>2026-04-22T13:42:23Z</time></trkpt><trkpt lat="59.0948581696" lon="30.0004005432"><time>2026-04-22T13:42:25Z</time></trkpt><trkpt lat="59.0948367119" lon="30.0004220009"><time>2026-04-22T13:42:28Z</time></trkpt><trkpt lat="59.0948152542" lon="30.0004005432"><time>2026-04-22T13:42:30Z</time></trkpt><trkpt lat="59.0947937965" lon="30.0004005432"><time>2026-04-22T13:42:33Z</time></trkpt><trkpt lat="59.0947508812" lon="30.0004434586"><time>2026-04-22T13:42:35Z</time></trkpt><trkpt lat="59.0947294235" lon="30.0004434586"><time>2026-04-22T13:42:38Z</time></trkpt><trkpt lat="59.0947294235" lon="30.0004434586"><time>2026-04-22T13:42:40Z</time></trkpt><trkpt lat="59.0947294235" lon="30.0004434586"><time>2026-04-22T13:42:43Z</time></trkpt><trkpt lat="59.0947294235" lon="30.0004434586"><time>2026-04-22T13:42:45Z</time></trkpt><trkpt lat="59.0947294235" lon="30.0004434586"><time>2026-04-22T13:42:48Z</time></trkpt><trkpt lat="59.0947294235" lon="30.0004863739"><time>2026-04-22T13:42:50Z</time></trkpt><trkpt lat="59.0947079659" lon="30.0005292892"><time>2026-04-22T13:42:53Z</time></trkpt><trkpt lat="59.0947079659" lon="30.0005292892"><time>2026-04-22T13:42:55Z</time></trkpt><trkpt lat="59.0947079659" lon="30.0005292892"><time>2026-04-22T13:42:58Z</time></trkpt><trkpt lat="59.0946865082" lon="30.0005722046"><time>2026-04-22T13:43:00Z</time></trkpt><trkpt lat="59.0946865082" lon="30.0005936623"><time>2026-04-22T13:43:03Z</time></trkpt><trkpt lat="59.0946650505" lon="30.0006151199"><time>2026-04-22T13:43:05Z</time></trkpt><trkpt lat="59.0946435928" lon="30.0006794930"><time>2026-04-22T13:43:08Z</time></trkpt><trkpt lat="59.0946006775" lon="30.0007224083"><time>2026-04-22T13:43:10Z</time></trkpt><trkpt lat="59.0945792198" lon="30.0007224083"><time>2026-04-22T13:43:13Z</time></trkpt><trkpt lat="59.0945577621" lon="30.0006151199"><time>2026-04-22T13:43:15Z</time></trkpt><trkpt lat="59.0945577621" lon="30.0005722046"><time>2026-04-22T13:43:18Z</time></trkpt><trkpt lat="59.0945577621" lon="30.0005722046"><time>2026-04-22T13:43:20Z</time></trkpt><trkpt lat="59.0945577621" lon="30.0005936623"><time>2026-04-22T13:43:23Z</time></trkpt><trkpt lat="59.0945363045" lon="30.0006365776"><time>2026-04-22T13:43:25Z</time></trkpt><trkpt lat="59.0945363045" lon="30.0006365776"><time>2026-04-22T13:43:28Z</time></trkpt><trkpt lat="59.0944933891" lon="30.0006151199"><time>2026-04-22T13:43:30Z</time></trkpt><trkpt lat="59.0944504738" lon="30.0005936623"><time>2026-04-22T13:43:33Z</time></trkpt><trkpt lat="59.0944075584" lon="30.0005936623"><time>2026-04-22T13:43:35Z</time></trkpt><trkpt lat="59.0943861008" lon="30.0005936623"><time>2026-04-22T13:43:38Z</time></trkpt><trkpt lat="59.0943217278" lon="30.0005507469"><time>2026-04-22T13:43:40Z</time></trkpt><trkpt lat="59.0942788124" lon="30.0005292892"><time>2026-04-22T13:43:43Z</time></trkpt><trkpt lat="59.0942573547" lon="30.0005292892"><time>2026-04-22T13:43:45Z</time></trkpt><trkpt lat="59.0942573547" lon="30.0005292892"><time>2026-04-22T13:43:48Z</time></trkpt><trkpt lat="59.0941929817" lon="30.0004649162"><time>2026-04-22T13:43:50Z</time></trkpt><trkpt lat="59.0941715240" lon="30.0004649162"><time>2026-04-22T13:43:53Z</time></trkpt><trkpt lat="59.0941715240" lon="30.0004649162"><time>2026-04-22T13:43:55Z</time></trkpt><trkpt lat="59.0941715240" lon="30.0004649162"><time>2026-04-22T13:43:58Z</time></trkpt><trkpt lat="59.0941071510" lon="30.0004863739"><time>2026-04-22T13:44:00Z</time></trkpt><trkpt lat="59.0941071510" lon="30.0005078316"><time>2026-04-22T13:44:03Z</time></trkpt><trkpt lat="59.0941071510" lon="30.0005722046"><time>2026-04-22T13:44:05Z</time></trkpt><trkpt lat="59.0940856934" lon="30.0006151199"><time>2026-04-22T13:44:08Z</time></trkpt><trkpt lat="59.0940642357" lon="30.0006794930"><time>2026-04-22T13:44:10Z</time></trkpt><trkpt lat="59.0940427780" lon="30.0007009506"><time>2026-04-22T13:44:13Z</time></trkpt><trkpt lat="59.0940213203" lon="30.0007009506"><time>2026-04-22T13:44:15Z</time></trkpt><trkpt lat="59.0940213203" lon="30.0007009506"><time>2026-04-22T13:44:18Z</time></trkpt><trkpt lat="59.0940213203" lon="30.0006794930"><time>2026-04-22T13:44:20Z</time></trkpt><trkpt lat="59.0939784050" lon="30.0006580353"><time>2026-04-22T13:44:23Z</time></trkpt><trkpt lat="59.0939569473" lon="30.0006151199"><time>2026-04-22T13:44:25Z</time></trkpt><trkpt lat="59.0939354897" lon="30.0005936623"><time>2026-04-22T13:44:28Z</time></trkpt><trkpt lat="59.0938925743" lon="30.0005722046"><time>2026-04-22T13:44:30Z</time></trkpt><trkpt lat="59.0938496590" lon="30.0005722046"><time>2026-04-22T13:44:33Z</time></trkpt><trkpt lat="59.0938067436" lon="30.0005507469"><time>2026-04-22T13:44:35Z</time></trkpt><trkpt lat="59.0937852859" lon="30.0005507469"><time>2026-04-22T13:44:38Z</time></trkpt><trkpt lat="59.0937423706" lon="30.0005507469"><time>2026-04-22T13:44:40Z</time></trkpt><trkpt lat="59.0937209129" lon="30.0005722046"><time>2026-04-22T13:44:43Z</time></trkpt><trkpt lat="59.0936779976" lon="30.0005507469"><time>2026-04-22T13:44:45Z</time></trkpt><trkpt lat="59.0936779976" lon="30.0005292892"><time>2026-04-22T13:44:48Z</time></trkpt><trkpt lat="59.0936779976" lon="30.0005292892"><time>2026-04-22T13:44:50Z</time></trkpt><trkpt lat="59.0936565399" lon="30.0005507469"><time>2026-04-22T13:44:53Z</time></trkpt><trkpt lat="59.0936350822" lon="30.0005507469"><time>2026-04-22T13:44:55Z</time></trkpt><trkpt lat="59.0936350822" lon="30.0005078316"><time>2026-04-22T13:44:58Z</time></trkpt><trkpt lat="59.0936565399" lon="30.0004434586"><time>2026-04-22T13:45:00Z</time></trkpt><trkpt lat="59.0936565399" lon="30.0004005432"><time>2026-04-22T13:45:03Z</time></trkpt><trkpt lat="59.0936350822" lon="30.0003361702"><time>2026-04-22T13:45:05Z</time></trkpt><trkpt lat="59.0936136246" lon="30.0003361702"><time>2026-04-22T13:45:08Z</time></trkpt><trkpt lat="59.0935921669" lon="30.0003147125"><time>2026-04-22T13:45:10Z</time></trkpt><trkpt lat="59.0935707092" lon="30.0002717972"><time>2026-04-22T13:45:13Z</time></trkpt><trkpt lat="59.0935921669" lon="30.0002288818"><time>2026-04-22T13:45:15Z</time></trkpt><trkpt lat="59.0935921669" lon="30.0001859665"><time>2026-04-22T13:45:18Z</time></trkpt><trkpt lat="59.0935921669" lon="30.0001859665"><time>2026-04-22T13:45:20Z</time></trkpt><trkpt lat="59.0935921669" lon="30.0001859665"><time>2026-04-22T13:45:23Z</time></trkpt><trkpt lat="59.0935921669" lon="30.0001430511"><time>2026-04-22T13:45:25Z</time></trkpt><trkpt lat="59.0935707092" lon="30.0001645088"><time>2026-04-22T13:45:28Z</time></trkpt><trkpt lat="59.0935707092" lon="30.0001859665"><time>2026-04-22T13:45:30Z</time></trkpt><trkpt lat="59.0935707092" lon="30.0002074242"><time>2026-04-22T13:45:33Z</time></trkpt><trkpt lat="59.0935921669" lon="30.0002288818"><time>2026-04-22T13:45:35Z</time></trkpt><trkpt lat="59.0936136246" lon="30.0001859665"><time>2026-04-22T13:45:38Z</time></trkpt><trkpt lat="59.0935492516" lon="30.0001001358"><time>2026-04-22T13:45:40Z</time></trkpt><trkpt lat="59.0935063362" lon="30.0000357628"><time>2026-04-22T13:45:43Z</time></trkpt><trkpt lat="59.0934634209" lon="29.9999284744"><time>2026-04-22T13:45:45Z</time></trkpt><trkpt lat="59.0934419632" lon="29.9998641014"><time>2026-04-22T13:45:48Z</time></trkpt><trkpt lat="59.0934205055" lon="29.9997782707"><time>2026-04-22T13:45:50Z</time></trkpt><trkpt lat="59.0934205055" lon="29.9997568130"><time>2026-04-22T13:45:53Z</time></trkpt><trkpt lat="59.0934205055" lon="29.9997568130"><time>2026-04-22T13:45:55Z</time></trkpt><trkpt lat="59.0934205055" lon="29.9997353554"><time>2026-04-22T13:45:58Z</time></trkpt><trkpt lat="59.0934205055" lon="29.9996495247"><time>2026-04-22T13:46:00Z</time></trkpt><trkpt lat="59.0933990479" lon="29.9996495247"><time>2026-04-22T13:46:03Z</time></trkpt><trkpt lat="59.0933990479" lon="29.9995636940"><time>2026-04-22T13:46:05Z</time></trkpt><trkpt lat="59.0934205055" lon="29.9995207787"><time>2026-04-22T13:46:08Z</time></trkpt><trkpt lat="59.0934205055" lon="29.9994993210"><time>2026-04-22T13:46:10Z</time></trkpt><trkpt lat="59.0934205055" lon="29.9994993210"><time>2026-04-22T13:46:13Z</time></trkpt><trkpt lat="59.0934205055" lon="29.9994993210"><time>2026-04-22T13:46:15Z</time></trkpt><trkpt lat="59.0934205055" lon="29.9994993210"><time>2026-04-22T13:46:18Z</time></trkpt><trkpt lat="59.0934205055" lon="29.9994993210"><time>2026-04-22T13:46:20Z</time></trkpt><trkpt lat="59.0934205055" lon="29.9994564056"><time>2026-04-22T13:46:23Z</time></trkpt><trkpt lat="59.0934419632" lon="29.9993920326"><time>2026-04-22T13:46:25Z</time></trkpt><trkpt lat="59.0934205055" lon="29.9993491173"><time>2026-04-22T13:46:28Z</time></trkpt><trkpt lat="59.0934205055" lon="29.9992632866"><time>2026-04-22T13:46:30Z</time></trkpt><trkpt lat="59.0934205055" lon="29.9992203712"><time>2026-04-22T13:46:33Z</time></trkpt><trkpt lat="59.0934205055" lon="29.9991774559"><time>2026-04-22T13:46:35Z</time></trkpt><trkpt lat="59.0933990479" lon="29.9991345406"><time>2026-04-22T13:46:38Z</time></trkpt><trkpt lat="59.0933561325" lon="29.9990701675"><time>2026-04-22T13:46:40Z</time></trkpt><trkpt lat="59.0933775902" lon="29.9990487099"><time>2026-04-22T13:46:43Z</time></trkpt><trkpt lat="59.0933346748" lon="29.9990916252"><time>2026-04-22T13:46:45Z</time></trkpt><trkpt lat="59.0933132172" lon="29.9991559982"><time>2026-04-22T13:46:48Z</time></trkpt><trkpt lat="59.0932703018" lon="29.9991989136"><time>2026-04-22T13:46:50Z</time></trkpt><trkpt lat="59.0932488441" lon="29.9992418289"><time>2026-04-22T13:46:53Z</time></trkpt><trkpt lat="59.0932273865" lon="29.9992418289"><time>2026-04-22T13:46:55Z</time></trkpt><trkpt lat="59.0932273865" lon="29.9991989136"><time>2026-04-22T13:46:58Z</time></trkpt><trkpt lat="59.0932273865" lon="29.9991345406"><time>2026-04-22T13:47:00Z</time></trkpt><trkpt lat="59.0932273865" lon="29.9990916252"><time>2026-04-22T13:47:03Z</time></trkpt><trkpt lat="59.0932273865" lon="29.9990487099"><time>2026-04-22T13:47:05Z</time></trkpt><trkpt lat="59.0932059288" lon="29.9990057945"><time>2026-04-22T13:47:08Z</time></trkpt><trkpt lat="59.0931630135" lon="29.9989628792"><time>2026-04-22T13:47:10Z</time></trkpt><trkpt lat="59.0931200981" lon="29.9989199638"><time>2026-04-22T13:47:13Z</time></trkpt><trkpt lat="59.0930986404" lon="29.9988985062"><time>2026-04-22T13:47:15Z</time></trkpt><trkpt lat="59.0930986404" lon="29.9988985062"><time>2026-04-22T13:47:18Z</time></trkpt><trkpt lat="59.0930557251" lon="29.9988341331"><time>2026-04-22T13:47:20Z</time></trkpt><trkpt lat="59.0930342674" lon="29.9987912178"><time>2026-04-22T13:47:23Z</time></trkpt><trkpt lat="59.0929913521" lon="29.9987483025"><time>2026-04-22T13:47:25Z</time></trkpt><trkpt lat="59.0929698944" lon="29.9987268448"><time>2026-04-22T13:47:28Z</time></trkpt><trkpt lat="59.0929698944" lon="29.9987268448"><time>2026-04-22T13:47:30Z</time></trkpt><trkpt lat="59.0929698944" lon="29.9987268448"><time>2026-04-22T13:47:33Z</time></trkpt><trkpt lat="59.0929484367" lon="29.9986839294"><time>2026-04-22T13:47:35Z</time></trkpt><trkpt lat="59.0929698944" lon="29.9986410141"><time>2026-04-22T13:47:38Z</time></trkpt><trkpt lat="59.0930128098" lon="29.9986195564"><time>2026-04-22T13:47:40Z</time></trkpt><trkpt lat="59.0930128098" lon="29.9986195564"><time>2026-04-22T13:47:43Z</time></trkpt><trkpt lat="59.0930128098" lon="29.9985980988"><time>2026-04-22T13:47:45Z</time></trkpt><trkpt lat="59.0930342674" lon="29.9985766411"><time>2026-04-22T13:47:48Z</time></trkpt><trkpt lat="59.0930557251" lon="29.9985122681"><time>2026-04-22T13:47:50Z</time></trkpt><trkpt lat="59.0930771828" lon="29.9984478951"><time>2026-04-22T13:47:53Z</time></trkpt><trkpt lat="59.0930986404" lon="29.9983835220"><time>2026-04-22T13:47:55Z</time></trkpt><trkpt lat="59.0930986404" lon="29.9983835220"><time>2026-04-22T13:47:58Z</time></trkpt><trkpt lat="59.0930986404" lon="29.9983406067"><time>2026-04-22T13:48:00Z</time></trkpt><trkpt lat="59.0930986404" lon="29.9983191490"><time>2026-04-22T13:48:03Z</time></trkpt><trkpt lat="59.0930986404" lon="29.9982762337"><time>2026-04-22T13:48:05Z</time></trkpt><trkpt lat="59.0930986404" lon="29.9982762337"><time>2026-04-22T13:48:08Z</time></trkpt><trkpt lat="59.0930986404" lon="29.9982762337"><time>2026-04-22T13:48:10Z</time></trkpt><trkpt lat="59.0930771828" lon="29.9982333183"><time>2026-04-22T13:48:13Z</time></trkpt><trkpt lat="59.0930986404" lon="29.9981260300"><time>2026-04-22T13:48:15Z</time></trkpt><trkpt lat="59.0931415558" lon="29.9980831146"><time>2026-04-22T13:48:18Z</time></trkpt><trkpt lat="59.0931630135" lon="29.9980616570"><time>2026-04-22T13:48:20Z</time></trkpt><trkpt lat="59.0932059288" lon="29.9980187416"><time>2026-04-22T13:48:23Z</time></trkpt><trkpt lat="59.0932273865" lon="29.9979758263"><time>2026-04-22T13:48:25Z</time></trkpt><trkpt lat="59.0932059288" lon="29.9979329109"><time>2026-04-22T13:48:28Z</time></trkpt><trkpt lat="59.0931844711" lon="29.9978899956"><time>2026-04-22T13:48:30Z</time></trkpt><trkpt lat="59.0931844711" lon="29.9978470802"><time>2026-04-22T13:48:33Z</time></trkpt><trkpt lat="59.0932273865" lon="29.9977827072"><time>2026-04-22T13:48:35Z</time></trkpt><trkpt lat="59.0932488441" lon="29.9977612495"><time>2026-04-22T13:48:38Z</time></trkpt><trkpt lat="59.0932917595" lon="29.9976968765"><time>2026-04-22T13:48:40Z</time></trkpt><trkpt lat="59.0932703018" lon="29.9976539612"><time>2026-04-22T13:48:43Z</time></trkpt><trkpt lat="59.0932917595" lon="29.9975466728"><time>2026-04-22T13:48:45Z</time></trkpt><trkpt lat="59.0932917595" lon="29.9975252151"><time>2026-04-22T13:48:48Z</time></trkpt><trkpt lat="59.0932703018" lon="29.9975252151"><time>2026-04-22T13:48:50Z</time></trkpt><trkpt lat="59.0932703018" lon="29.9975037575"><time>2026-04-22T13:48:53Z</time></trkpt><trkpt lat="59.0932703018" lon="29.9975037575"><time>2026-04-22T13:48:55Z</time></trkpt><trkpt lat="59.0932703018" lon="29.9975037575"><time>2026-04-22T13:48:58Z</time></trkpt><trkpt lat="59.0932703018" lon="29.9975037575"><time>2026-04-22T13:49:00Z</time></trkpt><trkpt lat="59.0932703018" lon="29.9975037575"><time>2026-04-22T13:49:03Z</time></trkpt><trkpt lat="59.0932703018" lon="29.9975037575"><time>2026-04-22T13:49:05Z</time></trkpt><trkpt lat="59.0932703018" lon="29.9975037575"><time>2026-04-22T13:49:08Z</time></trkpt><trkpt lat="59.0932703018" lon="29.9974393845"><time>2026-04-22T13:49:10Z</time></trkpt><trkpt lat="59.0932703018" lon="29.9974179268"><time>2026-04-22T13:49:13Z</time></trkpt><trkpt lat="59.0932703018" lon="29.9974179268"><time>2026-04-22T13:49:15Z</time></trkpt><trkpt lat="59.0932703018" lon="29.9974179268"><time>2026-04-22T13:49:18Z</time></trkpt><trkpt lat="59.0932703018" lon="29.9974179268"><time>2026-04-22T13:49:20Z</time></trkpt><trkpt lat="59.0932488441" lon="29.9974179268"><time>2026-04-22T13:49:23Z</time></trkpt><trkpt lat="59.0931844711" lon="29.9972462654"><time>2026-04-22T13:49:30Z</time></trkpt><trkpt lat="59.0931844711" lon="29.9972248077"><time>2026-04-22T13:49:33Z</time></trkpt><trkpt lat="59.0931844711" lon="29.9971389771"><time>2026-04-22T13:49:35Z</time></trkpt><trkpt lat="59.0932059288" lon="29.9970960617"><time>2026-04-22T13:49:38Z</time></trkpt><trkpt lat="59.0932059288" lon="29.9969887733"><time>2026-04-22T13:49:40Z</time></trkpt><trkpt lat="59.0932059288" lon="29.9969244003"><time>2026-04-22T13:49:43Z</time></trkpt><trkpt lat="59.0931844711" lon="29.9968814850"><time>2026-04-22T13:49:45Z</time></trkpt><trkpt lat="59.0931630135" lon="29.9968814850"><time>2026-04-22T13:49:48Z</time></trkpt><trkpt lat="59.0931630135" lon="29.9968814850"><time>2026-04-22T13:49:50Z</time></trkpt><trkpt lat="59.0931630135" lon="29.9968600273"><time>2026-04-22T13:49:53Z</time></trkpt><trkpt lat="59.0931200981" lon="29.9968385696"><time>2026-04-22T13:49:55Z</time></trkpt><trkpt lat="59.0930986404" lon="29.9968171120"><time>2026-04-22T13:49:58Z</time></trkpt><trkpt lat="59.0930771828" lon="29.9967956543"><time>2026-04-22T13:50:00Z</time></trkpt><trkpt lat="59.0930771828" lon="29.9967741966"><time>2026-04-22T13:50:03Z</time></trkpt><trkpt lat="59.0930771828" lon="29.9967741966"><time>2026-04-22T13:50:05Z</time></trkpt><trkpt lat="59.0930771828" lon="29.9967741966"><time>2026-04-22T13:50:08Z</time></trkpt><trkpt lat="59.0930557251" lon="29.9968171120"><time>2026-04-22T13:50:10Z</time></trkpt><trkpt lat="59.0930557251" lon="29.9968600273"><time>2026-04-22T13:50:13Z</time></trkpt><trkpt lat="59.0930557251" lon="29.9968385696"><time>2026-04-22T13:50:15Z</time></trkpt><trkpt lat="59.0930128098" lon="29.9967956543"><time>2026-04-22T13:50:18Z</time></trkpt><trkpt lat="59.0929698944" lon="29.9967741966"><time>2026-04-22T13:50:20Z</time></trkpt><trkpt lat="59.0929484367" lon="29.9968171120"><time>2026-04-22T13:50:23Z</time></trkpt><trkpt lat="59.0929484367" lon="29.9967956543"><time>2026-04-22T13:50:25Z</time></trkpt><trkpt lat="59.0929698944" lon="29.9967098236"><time>2026-04-22T13:50:28Z</time></trkpt><trkpt lat="59.0929698944" lon="29.9966669083"><time>2026-04-22T13:50:30Z</time></trkpt><trkpt lat="59.0929269791" lon="29.9966025352"><time>2026-04-22T13:50:33Z</time></trkpt><trkpt lat="59.0929484367" lon="29.9965167046"><time>2026-04-22T13:50:35Z</time></trkpt><trkpt lat="59.0929913521" lon="29.9964952469"><time>2026-04-22T13:50:38Z</time></trkpt><trkpt lat="59.0929913521" lon="29.9963450432"><time>2026-04-22T13:50:40Z</time></trkpt><trkpt lat="59.0929913521" lon="29.9962162971"><time>2026-04-22T13:50:43Z</time></trkpt><trkpt lat="59.0929913521" lon="29.9962162971"><time>2026-04-22T13:50:45Z</time></trkpt><trkpt lat="59.0929913521" lon="29.9962162971"><time>2026-04-22T13:50:48Z</time></trkpt><trkpt lat="59.0929913521" lon="29.9962162971"><time>2026-04-22T13:50:50Z</time></trkpt><trkpt lat="59.0929913521" lon="29.9962162971"><time>2026-04-22T13:50:53Z</time></trkpt><trkpt lat="59.0929913521" lon="29.9962162971"><time>2026-04-22T13:50:55Z</time></trkpt><trkpt lat="59.0929913521" lon="29.9962162971"><time>2026-04-22T13:50:58Z</time></trkpt><trkpt lat="59.0929913521" lon="29.9962162971"><time>2026-04-22T13:51:00Z</time></trkpt><trkpt lat="59.0929913521" lon="29.9962162971"><time>2026-04-22T13:51:03Z</time></trkpt><trkpt lat="59.0929913521" lon="29.9962162971"><time>2026-04-22T13:51:05Z</time></trkpt><trkpt lat="59.0929913521" lon="29.9962162971"><time>2026-04-22T13:51:08Z</time></trkpt><trkpt lat="59.0929913521" lon="29.9962162971"><time>2026-04-22T13:51:10Z</time></trkpt><trkpt lat="59.0929913521" lon="29.9962162971"><time>2026-04-22T13:51:13Z</time></trkpt><trkpt lat="59.0929913521" lon="29.9962162971"><time>2026-04-22T13:51:15Z</time></trkpt><trkpt lat="59.0929913521" lon="29.9962162971"><time>2026-04-22T13:51:18Z</time></trkpt><trkpt lat="59.0929913521" lon="29.9962162971"><time>2026-04-22T13:51:20Z</time></trkpt><trkpt lat="59.0929913521" lon="29.9962162971"><time>2026-04-22T13:51:23Z</time></trkpt><trkpt lat="59.0929913521" lon="29.9962162971"><time>2026-04-22T13:51:25Z</time></trkpt><trkpt lat="59.0929913521" lon="29.9962162971"><time>2026-04-22T13:51:28Z</time></trkpt><trkpt lat="59.0929913521" lon="29.9962162971"><time>2026-04-22T13:51:30Z</time></trkpt><trkpt lat="59.0929698944" lon="29.9962592125"><time>2026-04-22T13:51:33Z</time></trkpt><trkpt lat="59.0929698944" lon="29.9962806702"><time>2026-04-22T13:51:35Z</time></trkpt><trkpt lat="59.0929698944" lon="29.9962806702"><time>2026-04-22T13:51:38Z</time></trkpt><trkpt lat="59.0929698944" lon="29.9962806702"><time>2026-04-22T13:51:40Z</time></trkpt><trkpt lat="59.0929698944" lon="29.9962806702"><time>2026-04-22T13:51:43Z</time></trkpt><trkpt lat="59.0929698944" lon="29.9962806702"><time>2026-04-22T13:51:45Z</time></trkpt><trkpt lat="59.0929698944" lon="29.9962806702"><time>2026-04-22T13:51:48Z</time></trkpt><trkpt lat="59.0929698944" lon="29.9962806702"><time>2026-04-22T13:51:50Z</time></trkpt><trkpt lat="59.0929698944" lon="29.9962806702"><time>2026-04-22T13:51:53Z</time></trkpt><trkpt lat="59.0929698944" lon="29.9962806702"><time>2026-04-22T13:51:55Z</time></trkpt><trkpt lat="59.0929698944" lon="29.9962377548"><time>2026-04-22T13:51:58Z</time></trkpt><trkpt lat="59.0929698944" lon="29.9962162971"><time>2026-04-22T13:52:00Z</time></trkpt><trkpt lat="59.0929913521" lon="29.9962162971"><time>2026-04-22T13:52:03Z</time></trkpt><trkpt lat="59.0930128098" lon="29.9961733818"><time>2026-04-22T13:52:05Z</time></trkpt><trkpt lat="59.0930342674" lon="29.9961948395"><time>2026-04-22T13:52:08Z</time></trkpt><trkpt lat="59.0930342674" lon="29.9961948395"><time>2026-04-22T13:52:10Z</time></trkpt><trkpt lat="59.0930342674" lon="29.9961948395"><time>2026-04-22T13:52:13Z</time></trkpt><trkpt lat="59.0930771828" lon="29.9962592125"><time>2026-04-22T13:52:15Z</time></trkpt><trkpt lat="59.0930986404" lon="29.9962806702"><time>2026-04-22T13:52:18Z</time></trkpt><trkpt lat="59.0930771828" lon="29.9962377548"><time>2026-04-22T13:52:20Z</time></trkpt><trkpt lat="59.0930771828" lon="29.9962162971"><time>2026-04-22T13:52:23Z</time></trkpt><trkpt lat="59.0930771828" lon="29.9962377548"><time>2026-04-22T13:52:25Z</time></trkpt><trkpt lat="59.0930771828" lon="29.9962377548"><time>2026-04-22T13:52:28Z</time></trkpt><trkpt lat="59.0930771828" lon="29.9962377548"><time>2026-04-22T13:52:30Z</time></trkpt><trkpt lat="59.0930771828" lon="29.9962377548"><time>2026-04-22T13:52:33Z</time></trkpt><trkpt lat="59.0930771828" lon="29.9962377548"><time>2026-04-22T13:52:35Z</time></trkpt><trkpt lat="59.0930771828" lon="29.9962377548"><time>2026-04-22T13:52:38Z</time></trkpt><trkpt lat="59.0930771828" lon="29.9962377548"><time>2026-04-22T13:52:40Z</time></trkpt><trkpt lat="59.0930771828" lon="29.9962377548"><time>2026-04-22T13:52:43Z</time></trkpt><trkpt lat="59.0930771828" lon="29.9962377548"><time>2026-04-22T13:52:45Z</time></trkpt><trkpt lat="59.0930771828" lon="29.9962377548"><time>2026-04-22T13:52:48Z</time></trkpt><trkpt lat="59.0930557251" lon="29.9962162971"><time>2026-04-22T13:52:50Z</time></trkpt><trkpt lat="59.0930557251" lon="29.9962162971"><time>2026-04-22T13:52:53Z</time></trkpt><trkpt lat="59.0930557251" lon="29.9962162971"><time>2026-04-22T13:52:55Z</time></trkpt></trkseg></trk></gpx>